<?xml version="1.0" encoding="UTF-8" standalone="no" ?>
<gpx xmlns="http://www.topografix.com/GPX/1/1" xmlns:xsi="http://www.w3.org/2001/XMLSchema-instance" xsi:schemaLocation="http://www.topografix.com/GPX/1/1 http://www.topografix.com/GPX/1/1/gpx.xsd" version="1.1" creator="VisuGPX - https://www.visugpx.com">
  <metadata>
    <name>Valpreveyre rando</name>
  </metadata>
  <trk>
    <name><![CDATA[Valpreveyre rando]]></name>
    <trkseg>
      <trkpt lat="44.81866" lon="6.94388">
        <ele>1739</ele>
        <time>2021-03-19T13:35:14Z</time>
      </trkpt>
      <trkpt lat="44.81865" lon="6.94388">
        <ele>1739</ele>
        <time>2021-03-19T13:35:15Z</time>
      </trkpt>
      <trkpt lat="44.81864" lon="6.94388">
        <ele>1739</ele>
        <time>2021-03-19T13:35:16Z</time>
      </trkpt>
      <trkpt lat="44.81863" lon="6.94388">
        <ele>1739</ele>
        <time>2021-03-19T13:35:17Z</time>
      </trkpt>
      <trkpt lat="44.81862" lon="6.94388">
        <ele>1739</ele>
        <time>2021-03-19T13:35:18Z</time>
      </trkpt>
      <trkpt lat="44.81861" lon="6.94388">
        <ele>1739</ele>
        <time>2021-03-19T13:35:19Z</time>
      </trkpt>
      <trkpt lat="44.8186" lon="6.94388">
        <ele>1739</ele>
        <time>2021-03-19T13:35:20Z</time>
      </trkpt>
      <trkpt lat="44.81859" lon="6.94388">
        <ele>1739</ele>
        <time>2021-03-19T13:35:21Z</time>
      </trkpt>
      <trkpt lat="44.81858" lon="6.94388">
        <ele>1740</ele>
        <time>2021-03-19T13:35:22Z</time>
      </trkpt>
      <trkpt lat="44.81858" lon="6.94389">
        <ele>1740</ele>
        <time>2021-03-19T13:35:23Z</time>
      </trkpt>
      <trkpt lat="44.81857" lon="6.94389">
        <ele>1740</ele>
        <time>2021-03-19T13:35:24Z</time>
      </trkpt>
      <trkpt lat="44.81857" lon="6.94389">
        <ele>1740</ele>
        <time>2021-03-19T13:35:25Z</time>
      </trkpt>
      <trkpt lat="44.81856" lon="6.9439">
        <ele>1740</ele>
        <time>2021-03-19T13:35:26Z</time>
      </trkpt>
      <trkpt lat="44.81855" lon="6.9439">
        <ele>1740</ele>
        <time>2021-03-19T13:35:27Z</time>
      </trkpt>
      <trkpt lat="44.81855" lon="6.94391">
        <ele>1740</ele>
        <time>2021-03-19T13:35:28Z</time>
      </trkpt>
      <trkpt lat="44.81854" lon="6.94392">
        <ele>1740</ele>
        <time>2021-03-19T13:35:29Z</time>
      </trkpt>
      <trkpt lat="44.81853" lon="6.94392">
        <ele>1740</ele>
        <time>2021-03-19T13:35:30Z</time>
      </trkpt>
      <trkpt lat="44.81853" lon="6.94393">
        <ele>1740</ele>
        <time>2021-03-19T13:35:31Z</time>
      </trkpt>
      <trkpt lat="44.81853" lon="6.94393">
        <ele>1740</ele>
        <time>2021-03-19T13:35:32Z</time>
      </trkpt>
      <trkpt lat="44.81852" lon="6.94394">
        <ele>1740</ele>
        <time>2021-03-19T13:35:33Z</time>
      </trkpt>
      <trkpt lat="44.81851" lon="6.94394">
        <ele>1740</ele>
        <time>2021-03-19T13:35:34Z</time>
      </trkpt>
      <trkpt lat="44.81851" lon="6.94395">
        <ele>1740</ele>
        <time>2021-03-19T13:35:35Z</time>
      </trkpt>
      <trkpt lat="44.8185" lon="6.94395">
        <ele>1740</ele>
        <time>2021-03-19T13:35:36Z</time>
      </trkpt>
      <trkpt lat="44.8185" lon="6.94396">
        <ele>1741</ele>
        <time>2021-03-19T13:35:37Z</time>
      </trkpt>
      <trkpt lat="44.81849" lon="6.94396">
        <ele>1741</ele>
        <time>2021-03-19T13:35:38Z</time>
      </trkpt>
      <trkpt lat="44.81849" lon="6.94397">
        <ele>1741</ele>
        <time>2021-03-19T13:35:39Z</time>
      </trkpt>
      <trkpt lat="44.81848" lon="6.94397">
        <ele>1741</ele>
        <time>2021-03-19T13:35:40Z</time>
      </trkpt>
      <trkpt lat="44.81847" lon="6.94398">
        <ele>1741</ele>
        <time>2021-03-19T13:35:41Z</time>
      </trkpt>
      <trkpt lat="44.81846" lon="6.94399">
        <ele>1741</ele>
        <time>2021-03-19T13:35:42Z</time>
      </trkpt>
      <trkpt lat="44.81845" lon="6.94399">
        <ele>1741</ele>
        <time>2021-03-19T13:35:43Z</time>
      </trkpt>
      <trkpt lat="44.81844" lon="6.944">
        <ele>1741</ele>
        <time>2021-03-19T13:35:44Z</time>
      </trkpt>
      <trkpt lat="44.81843" lon="6.94401">
        <ele>1741</ele>
        <time>2021-03-19T13:35:45Z</time>
      </trkpt>
      <trkpt lat="44.81842" lon="6.94401">
        <ele>1741</ele>
        <time>2021-03-19T13:35:46Z</time>
      </trkpt>
      <trkpt lat="44.81841" lon="6.94401">
        <ele>1741</ele>
        <time>2021-03-19T13:35:47Z</time>
      </trkpt>
      <trkpt lat="44.8184" lon="6.94401">
        <ele>1741</ele>
        <time>2021-03-19T13:35:48Z</time>
      </trkpt>
      <trkpt lat="44.81839" lon="6.94402">
        <ele>1741</ele>
        <time>2021-03-19T13:35:49Z</time>
      </trkpt>
      <trkpt lat="44.81839" lon="6.94402">
        <ele>1741</ele>
        <time>2021-03-19T13:35:50Z</time>
      </trkpt>
      <trkpt lat="44.81838" lon="6.94403">
        <ele>1741</ele>
        <time>2021-03-19T13:35:51Z</time>
      </trkpt>
      <trkpt lat="44.81837" lon="6.94404">
        <ele>1742</ele>
        <time>2021-03-19T13:35:52Z</time>
      </trkpt>
      <trkpt lat="44.81837" lon="6.94404">
        <ele>1742</ele>
        <time>2021-03-19T13:35:53Z</time>
      </trkpt>
      <trkpt lat="44.81836" lon="6.94405">
        <ele>1742</ele>
        <time>2021-03-19T13:35:54Z</time>
      </trkpt>
      <trkpt lat="44.81835" lon="6.94405">
        <ele>1742</ele>
        <time>2021-03-19T13:35:55Z</time>
      </trkpt>
      <trkpt lat="44.81834" lon="6.94405">
        <ele>1742</ele>
        <time>2021-03-19T13:35:56Z</time>
      </trkpt>
      <trkpt lat="44.81834" lon="6.94406">
        <ele>1743</ele>
        <time>2021-03-19T13:35:57Z</time>
      </trkpt>
      <trkpt lat="44.81833" lon="6.94406">
        <ele>1743</ele>
        <time>2021-03-19T13:35:58Z</time>
      </trkpt>
      <trkpt lat="44.81832" lon="6.94407">
        <ele>1743</ele>
        <time>2021-03-19T13:35:59Z</time>
      </trkpt>
      <trkpt lat="44.81831" lon="6.94407">
        <ele>1743</ele>
        <time>2021-03-19T13:36:00Z</time>
      </trkpt>
      <trkpt lat="44.8183" lon="6.94408">
        <ele>1743</ele>
        <time>2021-03-19T13:36:01Z</time>
      </trkpt>
      <trkpt lat="44.81829" lon="6.94409">
        <ele>1743</ele>
        <time>2021-03-19T13:36:02Z</time>
      </trkpt>
      <trkpt lat="44.81828" lon="6.94409">
        <ele>1743</ele>
        <time>2021-03-19T13:36:03Z</time>
      </trkpt>
      <trkpt lat="44.81828" lon="6.9441">
        <ele>1743</ele>
        <time>2021-03-19T13:36:04Z</time>
      </trkpt>
      <trkpt lat="44.81827" lon="6.94411">
        <ele>1743</ele>
        <time>2021-03-19T13:36:05Z</time>
      </trkpt>
      <trkpt lat="44.81827" lon="6.94412">
        <ele>1743</ele>
        <time>2021-03-19T13:36:06Z</time>
      </trkpt>
      <trkpt lat="44.81826" lon="6.94414">
        <ele>1744</ele>
        <time>2021-03-19T13:36:07Z</time>
      </trkpt>
      <trkpt lat="44.81826" lon="6.94415">
        <ele>1744</ele>
        <time>2021-03-19T13:36:08Z</time>
      </trkpt>
      <trkpt lat="44.81826" lon="6.94416">
        <ele>1744</ele>
        <time>2021-03-19T13:36:09Z</time>
      </trkpt>
      <trkpt lat="44.81825" lon="6.94417">
        <ele>1744</ele>
        <time>2021-03-19T13:36:10Z</time>
      </trkpt>
      <trkpt lat="44.81825" lon="6.94418">
        <ele>1744</ele>
        <time>2021-03-19T13:36:11Z</time>
      </trkpt>
      <trkpt lat="44.81825" lon="6.94419">
        <ele>1744</ele>
        <time>2021-03-19T13:36:12Z</time>
      </trkpt>
      <trkpt lat="44.81825" lon="6.94421">
        <ele>1744</ele>
        <time>2021-03-19T13:36:13Z</time>
      </trkpt>
      <trkpt lat="44.81825" lon="6.94422">
        <ele>1744</ele>
        <time>2021-03-19T13:36:14Z</time>
      </trkpt>
      <trkpt lat="44.81825" lon="6.94424">
        <ele>1744</ele>
        <time>2021-03-19T13:36:15Z</time>
      </trkpt>
      <trkpt lat="44.81825" lon="6.94425">
        <ele>1744</ele>
        <time>2021-03-19T13:36:16Z</time>
      </trkpt>
      <trkpt lat="44.81825" lon="6.94427">
        <ele>1744</ele>
        <time>2021-03-19T13:36:17Z</time>
      </trkpt>
      <trkpt lat="44.81825" lon="6.94428">
        <ele>1744</ele>
        <time>2021-03-19T13:36:18Z</time>
      </trkpt>
      <trkpt lat="44.81825" lon="6.9443">
        <ele>1744</ele>
        <time>2021-03-19T13:36:19Z</time>
      </trkpt>
      <trkpt lat="44.81826" lon="6.94431">
        <ele>1744</ele>
        <time>2021-03-19T13:36:20Z</time>
      </trkpt>
      <trkpt lat="44.81826" lon="6.94432">
        <ele>1744</ele>
        <time>2021-03-19T13:36:21Z</time>
      </trkpt>
      <trkpt lat="44.81827" lon="6.94433">
        <ele>1744</ele>
        <time>2021-03-19T13:36:22Z</time>
      </trkpt>
      <trkpt lat="44.81827" lon="6.94434">
        <ele>1744</ele>
        <time>2021-03-19T13:36:23Z</time>
      </trkpt>
      <trkpt lat="44.81828" lon="6.94435">
        <ele>1744</ele>
        <time>2021-03-19T13:36:24Z</time>
      </trkpt>
      <trkpt lat="44.81829" lon="6.94435">
        <ele>1744</ele>
        <time>2021-03-19T13:36:25Z</time>
      </trkpt>
      <trkpt lat="44.8183" lon="6.94436">
        <ele>1744</ele>
        <time>2021-03-19T13:36:26Z</time>
      </trkpt>
      <trkpt lat="44.81832" lon="6.94436">
        <ele>1744</ele>
        <time>2021-03-19T13:36:27Z</time>
      </trkpt>
      <trkpt lat="44.81833" lon="6.94436">
        <ele>1744</ele>
        <time>2021-03-19T13:36:28Z</time>
      </trkpt>
      <trkpt lat="44.81834" lon="6.94436">
        <ele>1744</ele>
        <time>2021-03-19T13:36:29Z</time>
      </trkpt>
      <trkpt lat="44.81834" lon="6.94436">
        <ele>1744</ele>
        <time>2021-03-19T13:36:30Z</time>
      </trkpt>
      <trkpt lat="44.81834" lon="6.94436">
        <ele>1744</ele>
        <time>2021-03-19T13:36:31Z</time>
      </trkpt>
      <trkpt lat="44.81834" lon="6.94436">
        <ele>1745</ele>
        <time>2021-03-19T13:36:32Z</time>
      </trkpt>
      <trkpt lat="44.81834" lon="6.94436">
        <ele>1745</ele>
        <time>2021-03-19T13:36:33Z</time>
      </trkpt>
      <trkpt lat="44.81834" lon="6.94436">
        <ele>1745</ele>
        <time>2021-03-19T13:36:34Z</time>
      </trkpt>
      <trkpt lat="44.81834" lon="6.94436">
        <ele>1745</ele>
        <time>2021-03-19T13:36:35Z</time>
      </trkpt>
      <trkpt lat="44.81833" lon="6.94436">
        <ele>1745</ele>
        <time>2021-03-19T13:36:36Z</time>
      </trkpt>
      <trkpt lat="44.81833" lon="6.94437">
        <ele>1745</ele>
        <time>2021-03-19T13:36:37Z</time>
      </trkpt>
      <trkpt lat="44.81832" lon="6.94437">
        <ele>1745</ele>
        <time>2021-03-19T13:36:38Z</time>
      </trkpt>
      <trkpt lat="44.81831" lon="6.94438">
        <ele>1745</ele>
        <time>2021-03-19T13:36:39Z</time>
      </trkpt>
      <trkpt lat="44.8183" lon="6.94438">
        <ele>1745</ele>
        <time>2021-03-19T13:36:40Z</time>
      </trkpt>
      <trkpt lat="44.81829" lon="6.94439">
        <ele>1745</ele>
        <time>2021-03-19T13:36:41Z</time>
      </trkpt>
      <trkpt lat="44.81828" lon="6.9444">
        <ele>1745</ele>
        <time>2021-03-19T13:36:42Z</time>
      </trkpt>
      <trkpt lat="44.81827" lon="6.94441">
        <ele>1745</ele>
        <time>2021-03-19T13:36:43Z</time>
      </trkpt>
      <trkpt lat="44.81825" lon="6.94442">
        <ele>1745</ele>
        <time>2021-03-19T13:36:44Z</time>
      </trkpt>
      <trkpt lat="44.81824" lon="6.94443">
        <ele>1745</ele>
        <time>2021-03-19T13:36:45Z</time>
      </trkpt>
      <trkpt lat="44.81823" lon="6.94444">
        <ele>1745</ele>
        <time>2021-03-19T13:36:46Z</time>
      </trkpt>
      <trkpt lat="44.81822" lon="6.94445">
        <ele>1746</ele>
        <time>2021-03-19T13:36:47Z</time>
      </trkpt>
      <trkpt lat="44.81822" lon="6.94446">
        <ele>1746</ele>
        <time>2021-03-19T13:36:48Z</time>
      </trkpt>
      <trkpt lat="44.81821" lon="6.94447">
        <ele>1746</ele>
        <time>2021-03-19T13:36:49Z</time>
      </trkpt>
      <trkpt lat="44.8182" lon="6.94448">
        <ele>1746</ele>
        <time>2021-03-19T13:36:50Z</time>
      </trkpt>
      <trkpt lat="44.8182" lon="6.94448">
        <ele>1746</ele>
        <time>2021-03-19T13:36:51Z</time>
      </trkpt>
      <trkpt lat="44.8182" lon="6.94449">
        <ele>1746</ele>
        <time>2021-03-19T13:36:52Z</time>
      </trkpt>
      <trkpt lat="44.81819" lon="6.94449">
        <ele>1746</ele>
        <time>2021-03-19T13:37:02Z</time>
      </trkpt>
      <trkpt lat="44.81819" lon="6.9445">
        <ele>1746</ele>
        <time>2021-03-19T13:37:03Z</time>
      </trkpt>
      <trkpt lat="44.81818" lon="6.9445">
        <ele>1746</ele>
        <time>2021-03-19T13:37:04Z</time>
      </trkpt>
      <trkpt lat="44.81818" lon="6.94451">
        <ele>1746</ele>
        <time>2021-03-19T13:37:05Z</time>
      </trkpt>
      <trkpt lat="44.81817" lon="6.94452">
        <ele>1746</ele>
        <time>2021-03-19T13:37:06Z</time>
      </trkpt>
      <trkpt lat="44.81817" lon="6.94453">
        <ele>1746</ele>
        <time>2021-03-19T13:37:07Z</time>
      </trkpt>
      <trkpt lat="44.81816" lon="6.94454">
        <ele>1746</ele>
        <time>2021-03-19T13:37:08Z</time>
      </trkpt>
      <trkpt lat="44.81815" lon="6.94455">
        <ele>1746</ele>
        <time>2021-03-19T13:37:09Z</time>
      </trkpt>
      <trkpt lat="44.81814" lon="6.94456">
        <ele>1746</ele>
        <time>2021-03-19T13:37:10Z</time>
      </trkpt>
      <trkpt lat="44.81813" lon="6.94457">
        <ele>1746</ele>
        <time>2021-03-19T13:37:11Z</time>
      </trkpt>
      <trkpt lat="44.81813" lon="6.94458">
        <ele>1747</ele>
        <time>2021-03-19T13:37:12Z</time>
      </trkpt>
      <trkpt lat="44.81812" lon="6.94459">
        <ele>1747</ele>
        <time>2021-03-19T13:37:13Z</time>
      </trkpt>
      <trkpt lat="44.81811" lon="6.9446">
        <ele>1747</ele>
        <time>2021-03-19T13:37:14Z</time>
      </trkpt>
      <trkpt lat="44.8181" lon="6.94461">
        <ele>1747</ele>
        <time>2021-03-19T13:37:15Z</time>
      </trkpt>
      <trkpt lat="44.81809" lon="6.94462">
        <ele>1747</ele>
        <time>2021-03-19T13:37:16Z</time>
      </trkpt>
      <trkpt lat="44.81808" lon="6.94463">
        <ele>1747</ele>
        <time>2021-03-19T13:37:23Z</time>
      </trkpt>
      <trkpt lat="44.81807" lon="6.94463">
        <ele>1747</ele>
        <time>2021-03-19T13:37:24Z</time>
      </trkpt>
      <trkpt lat="44.81806" lon="6.94464">
        <ele>1747</ele>
        <time>2021-03-19T13:37:25Z</time>
      </trkpt>
      <trkpt lat="44.81806" lon="6.94464">
        <ele>1747</ele>
        <time>2021-03-19T13:37:26Z</time>
      </trkpt>
      <trkpt lat="44.81805" lon="6.94465">
        <ele>1747</ele>
        <time>2021-03-19T13:37:27Z</time>
      </trkpt>
      <trkpt lat="44.81804" lon="6.94465">
        <ele>1747</ele>
        <time>2021-03-19T13:37:28Z</time>
      </trkpt>
      <trkpt lat="44.81804" lon="6.94466">
        <ele>1747</ele>
        <time>2021-03-19T13:37:29Z</time>
      </trkpt>
      <trkpt lat="44.81803" lon="6.94466">
        <ele>1747</ele>
        <time>2021-03-19T13:37:30Z</time>
      </trkpt>
      <trkpt lat="44.81802" lon="6.94466">
        <ele>1747</ele>
        <time>2021-03-19T13:37:31Z</time>
      </trkpt>
      <trkpt lat="44.81801" lon="6.94467">
        <ele>1747</ele>
        <time>2021-03-19T13:37:32Z</time>
      </trkpt>
      <trkpt lat="44.81801" lon="6.94467">
        <ele>1747</ele>
        <time>2021-03-19T13:37:33Z</time>
      </trkpt>
      <trkpt lat="44.818" lon="6.94468">
        <ele>1747</ele>
        <time>2021-03-19T13:37:34Z</time>
      </trkpt>
      <trkpt lat="44.81799" lon="6.94469">
        <ele>1747</ele>
        <time>2021-03-19T13:37:35Z</time>
      </trkpt>
      <trkpt lat="44.81798" lon="6.9447">
        <ele>1747</ele>
        <time>2021-03-19T13:37:36Z</time>
      </trkpt>
      <trkpt lat="44.81797" lon="6.9447">
        <ele>1748</ele>
        <time>2021-03-19T13:37:37Z</time>
      </trkpt>
      <trkpt lat="44.81797" lon="6.94471">
        <ele>1748</ele>
        <time>2021-03-19T13:37:38Z</time>
      </trkpt>
      <trkpt lat="44.81796" lon="6.94472">
        <ele>1748</ele>
        <time>2021-03-19T13:37:39Z</time>
      </trkpt>
      <trkpt lat="44.81795" lon="6.94472">
        <ele>1748</ele>
        <time>2021-03-19T13:37:40Z</time>
      </trkpt>
      <trkpt lat="44.81795" lon="6.94473">
        <ele>1748</ele>
        <time>2021-03-19T13:37:41Z</time>
      </trkpt>
      <trkpt lat="44.81794" lon="6.94473">
        <ele>1748</ele>
        <time>2021-03-19T13:37:42Z</time>
      </trkpt>
      <trkpt lat="44.81793" lon="6.94474">
        <ele>1748</ele>
        <time>2021-03-19T13:37:43Z</time>
      </trkpt>
      <trkpt lat="44.81793" lon="6.94475">
        <ele>1748</ele>
        <time>2021-03-19T13:37:44Z</time>
      </trkpt>
      <trkpt lat="44.81792" lon="6.94475">
        <ele>1748</ele>
        <time>2021-03-19T13:37:45Z</time>
      </trkpt>
      <trkpt lat="44.81792" lon="6.94476">
        <ele>1748</ele>
        <time>2021-03-19T13:37:46Z</time>
      </trkpt>
      <trkpt lat="44.81792" lon="6.94477">
        <ele>1748</ele>
        <time>2021-03-19T13:37:47Z</time>
      </trkpt>
      <trkpt lat="44.81791" lon="6.94478">
        <ele>1748</ele>
        <time>2021-03-19T13:37:48Z</time>
      </trkpt>
      <trkpt lat="44.81791" lon="6.94478">
        <ele>1748</ele>
        <time>2021-03-19T13:37:49Z</time>
      </trkpt>
      <trkpt lat="44.81791" lon="6.94479">
        <ele>1748</ele>
        <time>2021-03-19T13:37:50Z</time>
      </trkpt>
      <trkpt lat="44.81791" lon="6.94481">
        <ele>1748</ele>
        <time>2021-03-19T13:37:51Z</time>
      </trkpt>
      <trkpt lat="44.81791" lon="6.94481">
        <ele>1749</ele>
        <time>2021-03-19T13:37:52Z</time>
      </trkpt>
      <trkpt lat="44.8179" lon="6.94482">
        <ele>1749</ele>
        <time>2021-03-19T13:37:53Z</time>
      </trkpt>
      <trkpt lat="44.8179" lon="6.94483">
        <ele>1749</ele>
        <time>2021-03-19T13:37:54Z</time>
      </trkpt>
      <trkpt lat="44.8179" lon="6.94484">
        <ele>1749</ele>
        <time>2021-03-19T13:37:55Z</time>
      </trkpt>
      <trkpt lat="44.8179" lon="6.94485">
        <ele>1749</ele>
        <time>2021-03-19T13:37:56Z</time>
      </trkpt>
      <trkpt lat="44.8179" lon="6.94485">
        <ele>1750</ele>
        <time>2021-03-19T13:37:57Z</time>
      </trkpt>
      <trkpt lat="44.8179" lon="6.94486">
        <ele>1750</ele>
        <time>2021-03-19T13:37:58Z</time>
      </trkpt>
      <trkpt lat="44.81791" lon="6.94486">
        <ele>1750</ele>
        <time>2021-03-19T13:37:59Z</time>
      </trkpt>
      <trkpt lat="44.81792" lon="6.94486">
        <ele>1750</ele>
        <time>2021-03-19T13:38:00Z</time>
      </trkpt>
      <trkpt lat="44.81793" lon="6.94486">
        <ele>1750</ele>
        <time>2021-03-19T13:38:01Z</time>
      </trkpt>
      <trkpt lat="44.81794" lon="6.94485">
        <ele>1750</ele>
        <time>2021-03-19T13:38:02Z</time>
      </trkpt>
      <trkpt lat="44.81795" lon="6.94485">
        <ele>1750</ele>
        <time>2021-03-19T13:38:03Z</time>
      </trkpt>
      <trkpt lat="44.81796" lon="6.94484">
        <ele>1750</ele>
        <time>2021-03-19T13:38:04Z</time>
      </trkpt>
      <trkpt lat="44.81797" lon="6.94484">
        <ele>1750</ele>
        <time>2021-03-19T13:38:05Z</time>
      </trkpt>
      <trkpt lat="44.81798" lon="6.94483">
        <ele>1750</ele>
        <time>2021-03-19T13:38:06Z</time>
      </trkpt>
      <trkpt lat="44.81799" lon="6.94482">
        <ele>1751</ele>
        <time>2021-03-19T13:38:07Z</time>
      </trkpt>
      <trkpt lat="44.818" lon="6.94481">
        <ele>1751</ele>
        <time>2021-03-19T13:38:08Z</time>
      </trkpt>
      <trkpt lat="44.81801" lon="6.9448">
        <ele>1751</ele>
        <time>2021-03-19T13:38:09Z</time>
      </trkpt>
      <trkpt lat="44.81803" lon="6.9448">
        <ele>1751</ele>
        <time>2021-03-19T13:38:10Z</time>
      </trkpt>
      <trkpt lat="44.81804" lon="6.94479">
        <ele>1751</ele>
        <time>2021-03-19T13:38:11Z</time>
      </trkpt>
      <trkpt lat="44.81805" lon="6.94478">
        <ele>1751</ele>
        <time>2021-03-19T13:38:12Z</time>
      </trkpt>
      <trkpt lat="44.81806" lon="6.94477">
        <ele>1751</ele>
        <time>2021-03-19T13:38:13Z</time>
      </trkpt>
      <trkpt lat="44.81807" lon="6.94477">
        <ele>1751</ele>
        <time>2021-03-19T13:38:14Z</time>
      </trkpt>
      <trkpt lat="44.81808" lon="6.94476">
        <ele>1751</ele>
        <time>2021-03-19T13:38:15Z</time>
      </trkpt>
      <trkpt lat="44.81809" lon="6.94475">
        <ele>1751</ele>
        <time>2021-03-19T13:38:16Z</time>
      </trkpt>
      <trkpt lat="44.8181" lon="6.94475">
        <ele>1751</ele>
        <time>2021-03-19T13:38:17Z</time>
      </trkpt>
      <trkpt lat="44.8181" lon="6.94474">
        <ele>1751</ele>
        <time>2021-03-19T13:38:18Z</time>
      </trkpt>
      <trkpt lat="44.81811" lon="6.94474">
        <ele>1751</ele>
        <time>2021-03-19T13:38:19Z</time>
      </trkpt>
      <trkpt lat="44.81812" lon="6.94473">
        <ele>1751</ele>
        <time>2021-03-19T13:38:20Z</time>
      </trkpt>
      <trkpt lat="44.81814" lon="6.94472">
        <ele>1751</ele>
        <time>2021-03-19T13:38:21Z</time>
      </trkpt>
      <trkpt lat="44.81815" lon="6.94471">
        <ele>1752</ele>
        <time>2021-03-19T13:38:22Z</time>
      </trkpt>
      <trkpt lat="44.81816" lon="6.9447">
        <ele>1752</ele>
        <time>2021-03-19T13:38:23Z</time>
      </trkpt>
      <trkpt lat="44.81817" lon="6.94469">
        <ele>1752</ele>
        <time>2021-03-19T13:38:24Z</time>
      </trkpt>
      <trkpt lat="44.81818" lon="6.94469">
        <ele>1752</ele>
        <time>2021-03-19T13:38:25Z</time>
      </trkpt>
      <trkpt lat="44.81819" lon="6.94468">
        <ele>1752</ele>
        <time>2021-03-19T13:38:26Z</time>
      </trkpt>
      <trkpt lat="44.8182" lon="6.94468">
        <ele>1752</ele>
        <time>2021-03-19T13:38:27Z</time>
      </trkpt>
      <trkpt lat="44.81821" lon="6.94468">
        <ele>1752</ele>
        <time>2021-03-19T13:38:28Z</time>
      </trkpt>
      <trkpt lat="44.81822" lon="6.94468">
        <ele>1752</ele>
        <time>2021-03-19T13:38:29Z</time>
      </trkpt>
      <trkpt lat="44.81823" lon="6.94468">
        <ele>1753</ele>
        <time>2021-03-19T13:38:37Z</time>
      </trkpt>
      <trkpt lat="44.81824" lon="6.94468">
        <ele>1753</ele>
        <time>2021-03-19T13:38:38Z</time>
      </trkpt>
      <trkpt lat="44.81825" lon="6.94468">
        <ele>1753</ele>
        <time>2021-03-19T13:38:39Z</time>
      </trkpt>
      <trkpt lat="44.81826" lon="6.94468">
        <ele>1753</ele>
        <time>2021-03-19T13:38:40Z</time>
      </trkpt>
      <trkpt lat="44.81828" lon="6.94468">
        <ele>1753</ele>
        <time>2021-03-19T13:38:41Z</time>
      </trkpt>
      <trkpt lat="44.81828" lon="6.94468">
        <ele>1754</ele>
        <time>2021-03-19T13:38:42Z</time>
      </trkpt>
      <trkpt lat="44.81828" lon="6.94468">
        <ele>1754</ele>
        <time>2021-03-19T13:38:43Z</time>
      </trkpt>
      <trkpt lat="44.81829" lon="6.94469">
        <ele>1754</ele>
        <time>2021-03-19T13:38:44Z</time>
      </trkpt>
      <trkpt lat="44.8183" lon="6.94469">
        <ele>1754</ele>
        <time>2021-03-19T13:38:45Z</time>
      </trkpt>
      <trkpt lat="44.81831" lon="6.94469">
        <ele>1754</ele>
        <time>2021-03-19T13:38:46Z</time>
      </trkpt>
      <trkpt lat="44.81832" lon="6.94469">
        <ele>1754</ele>
        <time>2021-03-19T13:38:47Z</time>
      </trkpt>
      <trkpt lat="44.81832" lon="6.94469">
        <ele>1754</ele>
        <time>2021-03-19T13:38:48Z</time>
      </trkpt>
      <trkpt lat="44.81833" lon="6.94469">
        <ele>1754</ele>
        <time>2021-03-19T13:38:49Z</time>
      </trkpt>
      <trkpt lat="44.81834" lon="6.94468">
        <ele>1754</ele>
        <time>2021-03-19T13:38:50Z</time>
      </trkpt>
      <trkpt lat="44.81834" lon="6.94468">
        <ele>1754</ele>
        <time>2021-03-19T13:38:51Z</time>
      </trkpt>
      <trkpt lat="44.81835" lon="6.94468">
        <ele>1754</ele>
        <time>2021-03-19T13:38:52Z</time>
      </trkpt>
      <trkpt lat="44.81835" lon="6.94468">
        <ele>1754</ele>
        <time>2021-03-19T13:38:53Z</time>
      </trkpt>
      <trkpt lat="44.81836" lon="6.94468">
        <ele>1754</ele>
        <time>2021-03-19T13:38:54Z</time>
      </trkpt>
      <trkpt lat="44.81837" lon="6.94468">
        <ele>1754</ele>
        <time>2021-03-19T13:38:55Z</time>
      </trkpt>
      <trkpt lat="44.81837" lon="6.94468">
        <ele>1754</ele>
        <time>2021-03-19T13:38:56Z</time>
      </trkpt>
      <trkpt lat="44.81838" lon="6.94468">
        <ele>1755</ele>
        <time>2021-03-19T13:38:57Z</time>
      </trkpt>
      <trkpt lat="44.81838" lon="6.94468">
        <ele>1755</ele>
        <time>2021-03-19T13:38:58Z</time>
      </trkpt>
      <trkpt lat="44.81839" lon="6.94468">
        <ele>1755</ele>
        <time>2021-03-19T13:38:59Z</time>
      </trkpt>
      <trkpt lat="44.8184" lon="6.94469">
        <ele>1755</ele>
        <time>2021-03-19T13:39:00Z</time>
      </trkpt>
      <trkpt lat="44.81843" lon="6.9447">
        <ele>1756</ele>
        <time>2021-03-19T13:39:08Z</time>
      </trkpt>
      <trkpt lat="44.81844" lon="6.9447">
        <ele>1756</ele>
        <time>2021-03-19T13:39:09Z</time>
      </trkpt>
      <trkpt lat="44.81845" lon="6.9447">
        <ele>1756</ele>
        <time>2021-03-19T13:39:10Z</time>
      </trkpt>
      <trkpt lat="44.81845" lon="6.9447">
        <ele>1756</ele>
        <time>2021-03-19T13:39:11Z</time>
      </trkpt>
      <trkpt lat="44.81846" lon="6.9447">
        <ele>1756</ele>
        <time>2021-03-19T13:39:12Z</time>
      </trkpt>
      <trkpt lat="44.81847" lon="6.9447">
        <ele>1756</ele>
        <time>2021-03-19T13:39:13Z</time>
      </trkpt>
      <trkpt lat="44.81848" lon="6.94469">
        <ele>1756</ele>
        <time>2021-03-19T13:39:14Z</time>
      </trkpt>
      <trkpt lat="44.81848" lon="6.94469">
        <ele>1756</ele>
        <time>2021-03-19T13:39:15Z</time>
      </trkpt>
      <trkpt lat="44.81849" lon="6.94469">
        <ele>1756</ele>
        <time>2021-03-19T13:39:16Z</time>
      </trkpt>
      <trkpt lat="44.8185" lon="6.94469">
        <ele>1757</ele>
        <time>2021-03-19T13:39:17Z</time>
      </trkpt>
      <trkpt lat="44.8185" lon="6.94469">
        <ele>1757</ele>
        <time>2021-03-19T13:39:18Z</time>
      </trkpt>
      <trkpt lat="44.81851" lon="6.94468">
        <ele>1757</ele>
        <time>2021-03-19T13:39:19Z</time>
      </trkpt>
      <trkpt lat="44.81851" lon="6.94468">
        <ele>1757</ele>
        <time>2021-03-19T13:39:20Z</time>
      </trkpt>
      <trkpt lat="44.81852" lon="6.94468">
        <ele>1757</ele>
        <time>2021-03-19T13:39:21Z</time>
      </trkpt>
      <trkpt lat="44.81852" lon="6.94467">
        <ele>1757</ele>
        <time>2021-03-19T13:39:22Z</time>
      </trkpt>
      <trkpt lat="44.81853" lon="6.94467">
        <ele>1757</ele>
        <time>2021-03-19T13:39:23Z</time>
      </trkpt>
      <trkpt lat="44.81854" lon="6.94467">
        <ele>1757</ele>
        <time>2021-03-19T13:39:24Z</time>
      </trkpt>
      <trkpt lat="44.81854" lon="6.94466">
        <ele>1757</ele>
        <time>2021-03-19T13:39:25Z</time>
      </trkpt>
      <trkpt lat="44.81855" lon="6.94466">
        <ele>1757</ele>
        <time>2021-03-19T13:39:26Z</time>
      </trkpt>
      <trkpt lat="44.81855" lon="6.94466">
        <ele>1757</ele>
        <time>2021-03-19T13:39:27Z</time>
      </trkpt>
      <trkpt lat="44.81856" lon="6.94466">
        <ele>1757</ele>
        <time>2021-03-19T13:39:28Z</time>
      </trkpt>
      <trkpt lat="44.81856" lon="6.94465">
        <ele>1757</ele>
        <time>2021-03-19T13:39:29Z</time>
      </trkpt>
      <trkpt lat="44.81857" lon="6.94465">
        <ele>1757</ele>
        <time>2021-03-19T13:39:30Z</time>
      </trkpt>
      <trkpt lat="44.81858" lon="6.94465">
        <ele>1757</ele>
        <time>2021-03-19T13:39:31Z</time>
      </trkpt>
      <trkpt lat="44.81858" lon="6.94465">
        <ele>1758</ele>
        <time>2021-03-19T13:39:32Z</time>
      </trkpt>
      <trkpt lat="44.81859" lon="6.94464">
        <ele>1758</ele>
        <time>2021-03-19T13:39:33Z</time>
      </trkpt>
      <trkpt lat="44.8186" lon="6.94464">
        <ele>1758</ele>
        <time>2021-03-19T13:39:34Z</time>
      </trkpt>
      <trkpt lat="44.81861" lon="6.94463">
        <ele>1758</ele>
        <time>2021-03-19T13:39:35Z</time>
      </trkpt>
      <trkpt lat="44.81862" lon="6.94463">
        <ele>1758</ele>
        <time>2021-03-19T13:39:36Z</time>
      </trkpt>
      <trkpt lat="44.81863" lon="6.94463">
        <ele>1758</ele>
        <time>2021-03-19T13:39:37Z</time>
      </trkpt>
      <trkpt lat="44.81864" lon="6.94462">
        <ele>1758</ele>
        <time>2021-03-19T13:39:38Z</time>
      </trkpt>
      <trkpt lat="44.81865" lon="6.94462">
        <ele>1758</ele>
        <time>2021-03-19T13:39:39Z</time>
      </trkpt>
      <trkpt lat="44.81865" lon="6.94461">
        <ele>1758</ele>
        <time>2021-03-19T13:39:40Z</time>
      </trkpt>
      <trkpt lat="44.81866" lon="6.9446">
        <ele>1758</ele>
        <time>2021-03-19T13:39:41Z</time>
      </trkpt>
      <trkpt lat="44.81867" lon="6.9446">
        <ele>1759</ele>
        <time>2021-03-19T13:39:42Z</time>
      </trkpt>
      <trkpt lat="44.81867" lon="6.94459">
        <ele>1759</ele>
        <time>2021-03-19T13:39:43Z</time>
      </trkpt>
      <trkpt lat="44.81868" lon="6.94459">
        <ele>1759</ele>
        <time>2021-03-19T13:39:44Z</time>
      </trkpt>
      <trkpt lat="44.81868" lon="6.94459">
        <ele>1760</ele>
        <time>2021-03-19T13:40:12Z</time>
      </trkpt>
      <trkpt lat="44.81868" lon="6.94459">
        <ele>1760</ele>
        <time>2021-03-19T13:40:13Z</time>
      </trkpt>
      <trkpt lat="44.81868" lon="6.94458">
        <ele>1760</ele>
        <time>2021-03-19T13:40:14Z</time>
      </trkpt>
      <trkpt lat="44.81868" lon="6.94458">
        <ele>1760</ele>
        <time>2021-03-19T13:40:15Z</time>
      </trkpt>
      <trkpt lat="44.81869" lon="6.94457">
        <ele>1760</ele>
        <time>2021-03-19T13:40:16Z</time>
      </trkpt>
      <trkpt lat="44.81869" lon="6.94457">
        <ele>1760</ele>
        <time>2021-03-19T13:40:17Z</time>
      </trkpt>
      <trkpt lat="44.8187" lon="6.94456">
        <ele>1760</ele>
        <time>2021-03-19T13:40:18Z</time>
      </trkpt>
      <trkpt lat="44.8187" lon="6.94456">
        <ele>1760</ele>
        <time>2021-03-19T13:40:19Z</time>
      </trkpt>
      <trkpt lat="44.81871" lon="6.94455">
        <ele>1760</ele>
        <time>2021-03-19T13:40:20Z</time>
      </trkpt>
      <trkpt lat="44.81872" lon="6.94455">
        <ele>1760</ele>
        <time>2021-03-19T13:40:21Z</time>
      </trkpt>
      <trkpt lat="44.81872" lon="6.94454">
        <ele>1760</ele>
        <time>2021-03-19T13:40:22Z</time>
      </trkpt>
      <trkpt lat="44.81873" lon="6.94454">
        <ele>1760</ele>
        <time>2021-03-19T13:40:23Z</time>
      </trkpt>
      <trkpt lat="44.81874" lon="6.94453">
        <ele>1760</ele>
        <time>2021-03-19T13:40:24Z</time>
      </trkpt>
      <trkpt lat="44.81874" lon="6.94452">
        <ele>1760</ele>
        <time>2021-03-19T13:40:25Z</time>
      </trkpt>
      <trkpt lat="44.81875" lon="6.94451">
        <ele>1760</ele>
        <time>2021-03-19T13:40:26Z</time>
      </trkpt>
      <trkpt lat="44.81876" lon="6.9445">
        <ele>1760</ele>
        <time>2021-03-19T13:40:27Z</time>
      </trkpt>
      <trkpt lat="44.81877" lon="6.94449">
        <ele>1760</ele>
        <time>2021-03-19T13:40:28Z</time>
      </trkpt>
      <trkpt lat="44.81878" lon="6.94449">
        <ele>1760</ele>
        <time>2021-03-19T13:40:29Z</time>
      </trkpt>
      <trkpt lat="44.81878" lon="6.94448">
        <ele>1760</ele>
        <time>2021-03-19T13:40:30Z</time>
      </trkpt>
      <trkpt lat="44.81879" lon="6.94448">
        <ele>1760</ele>
        <time>2021-03-19T13:40:31Z</time>
      </trkpt>
      <trkpt lat="44.81879" lon="6.94448">
        <ele>1760</ele>
        <time>2021-03-19T13:40:32Z</time>
      </trkpt>
      <trkpt lat="44.81879" lon="6.94448">
        <ele>1760</ele>
        <time>2021-03-19T13:40:33Z</time>
      </trkpt>
      <trkpt lat="44.81879" lon="6.94448">
        <ele>1760</ele>
        <time>2021-03-19T13:40:34Z</time>
      </trkpt>
      <trkpt lat="44.81879" lon="6.94448">
        <ele>1760</ele>
        <time>2021-03-19T13:40:35Z</time>
      </trkpt>
      <trkpt lat="44.8188" lon="6.94448">
        <ele>1760</ele>
        <time>2021-03-19T13:40:36Z</time>
      </trkpt>
      <trkpt lat="44.8188" lon="6.94449">
        <ele>1760</ele>
        <time>2021-03-19T13:40:37Z</time>
      </trkpt>
      <trkpt lat="44.81879" lon="6.9445">
        <ele>1760</ele>
        <time>2021-03-19T13:40:38Z</time>
      </trkpt>
      <trkpt lat="44.81879" lon="6.94451">
        <ele>1760</ele>
        <time>2021-03-19T13:40:39Z</time>
      </trkpt>
      <trkpt lat="44.81879" lon="6.94451">
        <ele>1760</ele>
        <time>2021-03-19T13:40:40Z</time>
      </trkpt>
      <trkpt lat="44.81878" lon="6.94451">
        <ele>1760</ele>
        <time>2021-03-19T13:40:41Z</time>
      </trkpt>
      <trkpt lat="44.81878" lon="6.94451">
        <ele>1760</ele>
        <time>2021-03-19T13:40:42Z</time>
      </trkpt>
      <trkpt lat="44.81878" lon="6.94451">
        <ele>1760</ele>
        <time>2021-03-19T13:40:43Z</time>
      </trkpt>
      <trkpt lat="44.81878" lon="6.94451">
        <ele>1760</ele>
        <time>2021-03-19T13:40:44Z</time>
      </trkpt>
      <trkpt lat="44.81878" lon="6.94452">
        <ele>1760</ele>
        <time>2021-03-19T13:40:45Z</time>
      </trkpt>
      <trkpt lat="44.81879" lon="6.94451">
        <ele>1760</ele>
        <time>2021-03-19T13:40:46Z</time>
      </trkpt>
      <trkpt lat="44.81879" lon="6.94451">
        <ele>1760</ele>
        <time>2021-03-19T13:40:47Z</time>
      </trkpt>
      <trkpt lat="44.8188" lon="6.94451">
        <ele>1760</ele>
        <time>2021-03-19T13:40:48Z</time>
      </trkpt>
      <trkpt lat="44.8188" lon="6.94451">
        <ele>1760</ele>
        <time>2021-03-19T13:40:49Z</time>
      </trkpt>
      <trkpt lat="44.81881" lon="6.9445">
        <ele>1760</ele>
        <time>2021-03-19T13:40:50Z</time>
      </trkpt>
      <trkpt lat="44.81882" lon="6.9445">
        <ele>1760</ele>
        <time>2021-03-19T13:40:51Z</time>
      </trkpt>
      <trkpt lat="44.81884" lon="6.9445">
        <ele>1761</ele>
        <time>2021-03-19T13:40:52Z</time>
      </trkpt>
      <trkpt lat="44.81885" lon="6.94449">
        <ele>1761</ele>
        <time>2021-03-19T13:40:53Z</time>
      </trkpt>
      <trkpt lat="44.81886" lon="6.94449">
        <ele>1761</ele>
        <time>2021-03-19T13:40:54Z</time>
      </trkpt>
      <trkpt lat="44.81887" lon="6.94448">
        <ele>1761</ele>
        <time>2021-03-19T13:40:55Z</time>
      </trkpt>
      <trkpt lat="44.81888" lon="6.94447">
        <ele>1761</ele>
        <time>2021-03-19T13:40:56Z</time>
      </trkpt>
      <trkpt lat="44.81889" lon="6.94447">
        <ele>1761</ele>
        <time>2021-03-19T13:40:57Z</time>
      </trkpt>
      <trkpt lat="44.8189" lon="6.94446">
        <ele>1761</ele>
        <time>2021-03-19T13:40:58Z</time>
      </trkpt>
      <trkpt lat="44.81891" lon="6.94446">
        <ele>1761</ele>
        <time>2021-03-19T13:40:59Z</time>
      </trkpt>
      <trkpt lat="44.81891" lon="6.94446">
        <ele>1761</ele>
        <time>2021-03-19T13:41:00Z</time>
      </trkpt>
      <trkpt lat="44.81892" lon="6.94446">
        <ele>1761</ele>
        <time>2021-03-19T13:41:01Z</time>
      </trkpt>
      <trkpt lat="44.81893" lon="6.94445">
        <ele>1761</ele>
        <time>2021-03-19T13:41:02Z</time>
      </trkpt>
      <trkpt lat="44.81894" lon="6.94445">
        <ele>1761</ele>
        <time>2021-03-19T13:41:03Z</time>
      </trkpt>
      <trkpt lat="44.81894" lon="6.94444">
        <ele>1761</ele>
        <time>2021-03-19T13:41:10Z</time>
      </trkpt>
      <trkpt lat="44.81894" lon="6.94443">
        <ele>1761</ele>
        <time>2021-03-19T13:41:11Z</time>
      </trkpt>
      <trkpt lat="44.81894" lon="6.94443">
        <ele>1762</ele>
        <time>2021-03-19T13:41:12Z</time>
      </trkpt>
      <trkpt lat="44.81894" lon="6.94443">
        <ele>1762</ele>
        <time>2021-03-19T13:41:13Z</time>
      </trkpt>
      <trkpt lat="44.81893" lon="6.94443">
        <ele>1762</ele>
        <time>2021-03-19T13:41:14Z</time>
      </trkpt>
      <trkpt lat="44.81893" lon="6.94443">
        <ele>1762</ele>
        <time>2021-03-19T13:41:15Z</time>
      </trkpt>
      <trkpt lat="44.81893" lon="6.94443">
        <ele>1762</ele>
        <time>2021-03-19T13:41:16Z</time>
      </trkpt>
      <trkpt lat="44.81894" lon="6.94443">
        <ele>1762</ele>
        <time>2021-03-19T13:41:17Z</time>
      </trkpt>
      <trkpt lat="44.81894" lon="6.94443">
        <ele>1762</ele>
        <time>2021-03-19T13:41:18Z</time>
      </trkpt>
      <trkpt lat="44.81895" lon="6.94442">
        <ele>1762</ele>
        <time>2021-03-19T13:41:35Z</time>
      </trkpt>
      <trkpt lat="44.81895" lon="6.94441">
        <ele>1762</ele>
        <time>2021-03-19T13:41:36Z</time>
      </trkpt>
      <trkpt lat="44.81895" lon="6.9444">
        <ele>1762</ele>
        <time>2021-03-19T13:41:37Z</time>
      </trkpt>
      <trkpt lat="44.81894" lon="6.94439">
        <ele>1762</ele>
        <time>2021-03-19T13:41:47Z</time>
      </trkpt>
      <trkpt lat="44.81895" lon="6.94439">
        <ele>1762</ele>
        <time>2021-03-19T13:41:48Z</time>
      </trkpt>
      <trkpt lat="44.81895" lon="6.94439">
        <ele>1762</ele>
        <time>2021-03-19T13:41:49Z</time>
      </trkpt>
      <trkpt lat="44.81895" lon="6.94439">
        <ele>1762</ele>
        <time>2021-03-19T13:41:50Z</time>
      </trkpt>
      <trkpt lat="44.81896" lon="6.94438">
        <ele>1762</ele>
        <time>2021-03-19T13:41:51Z</time>
      </trkpt>
      <trkpt lat="44.81897" lon="6.94438">
        <ele>1762</ele>
        <time>2021-03-19T13:41:52Z</time>
      </trkpt>
      <trkpt lat="44.81897" lon="6.94437">
        <ele>1762</ele>
        <time>2021-03-19T13:41:53Z</time>
      </trkpt>
      <trkpt lat="44.81898" lon="6.94437">
        <ele>1762</ele>
        <time>2021-03-19T13:41:54Z</time>
      </trkpt>
      <trkpt lat="44.81899" lon="6.94436">
        <ele>1762</ele>
        <time>2021-03-19T13:41:55Z</time>
      </trkpt>
      <trkpt lat="44.81899" lon="6.94435">
        <ele>1762</ele>
        <time>2021-03-19T13:41:56Z</time>
      </trkpt>
      <trkpt lat="44.819" lon="6.94434">
        <ele>1762</ele>
        <time>2021-03-19T13:41:57Z</time>
      </trkpt>
      <trkpt lat="44.81901" lon="6.94433">
        <ele>1762</ele>
        <time>2021-03-19T13:41:58Z</time>
      </trkpt>
      <trkpt lat="44.81901" lon="6.94432">
        <ele>1762</ele>
        <time>2021-03-19T13:41:59Z</time>
      </trkpt>
      <trkpt lat="44.81902" lon="6.94431">
        <ele>1762</ele>
        <time>2021-03-19T13:42:00Z</time>
      </trkpt>
      <trkpt lat="44.81902" lon="6.9443">
        <ele>1762</ele>
        <time>2021-03-19T13:42:01Z</time>
      </trkpt>
      <trkpt lat="44.81903" lon="6.94428">
        <ele>1762</ele>
        <time>2021-03-19T13:42:02Z</time>
      </trkpt>
      <trkpt lat="44.81904" lon="6.94427">
        <ele>1762</ele>
        <time>2021-03-19T13:42:03Z</time>
      </trkpt>
      <trkpt lat="44.81905" lon="6.94426">
        <ele>1762</ele>
        <time>2021-03-19T13:42:04Z</time>
      </trkpt>
      <trkpt lat="44.81906" lon="6.94425">
        <ele>1762</ele>
        <time>2021-03-19T13:42:05Z</time>
      </trkpt>
      <trkpt lat="44.81907" lon="6.94425">
        <ele>1762</ele>
        <time>2021-03-19T13:42:06Z</time>
      </trkpt>
      <trkpt lat="44.81908" lon="6.94425">
        <ele>1763</ele>
        <time>2021-03-19T13:42:07Z</time>
      </trkpt>
      <trkpt lat="44.81909" lon="6.94424">
        <ele>1763</ele>
        <time>2021-03-19T13:42:08Z</time>
      </trkpt>
      <trkpt lat="44.8191" lon="6.94424">
        <ele>1763</ele>
        <time>2021-03-19T13:42:09Z</time>
      </trkpt>
      <trkpt lat="44.81911" lon="6.94424">
        <ele>1763</ele>
        <time>2021-03-19T13:42:10Z</time>
      </trkpt>
      <trkpt lat="44.81912" lon="6.94424">
        <ele>1763</ele>
        <time>2021-03-19T13:42:11Z</time>
      </trkpt>
      <trkpt lat="44.81912" lon="6.94423">
        <ele>1763</ele>
        <time>2021-03-19T13:42:12Z</time>
      </trkpt>
      <trkpt lat="44.81912" lon="6.94423">
        <ele>1763</ele>
        <time>2021-03-19T13:42:13Z</time>
      </trkpt>
      <trkpt lat="44.81913" lon="6.94424">
        <ele>1763</ele>
        <time>2021-03-19T13:42:14Z</time>
      </trkpt>
      <trkpt lat="44.81913" lon="6.94424">
        <ele>1763</ele>
        <time>2021-03-19T13:42:15Z</time>
      </trkpt>
      <trkpt lat="44.81913" lon="6.94424">
        <ele>1763</ele>
        <time>2021-03-19T13:42:16Z</time>
      </trkpt>
      <trkpt lat="44.81914" lon="6.94424">
        <ele>1763</ele>
        <time>2021-03-19T13:42:17Z</time>
      </trkpt>
      <trkpt lat="44.81914" lon="6.94424">
        <ele>1763</ele>
        <time>2021-03-19T13:42:18Z</time>
      </trkpt>
      <trkpt lat="44.81915" lon="6.94424">
        <ele>1763</ele>
        <time>2021-03-19T13:42:19Z</time>
      </trkpt>
      <trkpt lat="44.81916" lon="6.94424">
        <ele>1763</ele>
        <time>2021-03-19T13:42:20Z</time>
      </trkpt>
      <trkpt lat="44.81916" lon="6.94423">
        <ele>1763</ele>
        <time>2021-03-19T13:42:21Z</time>
      </trkpt>
      <trkpt lat="44.81917" lon="6.94423">
        <ele>1763</ele>
        <time>2021-03-19T13:42:22Z</time>
      </trkpt>
      <trkpt lat="44.81918" lon="6.94422">
        <ele>1763</ele>
        <time>2021-03-19T13:42:23Z</time>
      </trkpt>
      <trkpt lat="44.81919" lon="6.94422">
        <ele>1763</ele>
        <time>2021-03-19T13:42:24Z</time>
      </trkpt>
      <trkpt lat="44.8192" lon="6.94421">
        <ele>1763</ele>
        <time>2021-03-19T13:42:25Z</time>
      </trkpt>
      <trkpt lat="44.81921" lon="6.94421">
        <ele>1763</ele>
        <time>2021-03-19T13:42:26Z</time>
      </trkpt>
      <trkpt lat="44.81922" lon="6.94421">
        <ele>1764</ele>
        <time>2021-03-19T13:42:27Z</time>
      </trkpt>
      <trkpt lat="44.81923" lon="6.9442">
        <ele>1764</ele>
        <time>2021-03-19T13:42:28Z</time>
      </trkpt>
      <trkpt lat="44.81924" lon="6.9442">
        <ele>1764</ele>
        <time>2021-03-19T13:42:29Z</time>
      </trkpt>
      <trkpt lat="44.81924" lon="6.94419">
        <ele>1764</ele>
        <time>2021-03-19T13:42:30Z</time>
      </trkpt>
      <trkpt lat="44.81925" lon="6.94419">
        <ele>1764</ele>
        <time>2021-03-19T13:42:31Z</time>
      </trkpt>
      <trkpt lat="44.81926" lon="6.94419">
        <ele>1764</ele>
        <time>2021-03-19T13:42:32Z</time>
      </trkpt>
      <trkpt lat="44.81927" lon="6.94419">
        <ele>1764</ele>
        <time>2021-03-19T13:42:33Z</time>
      </trkpt>
      <trkpt lat="44.81928" lon="6.94418">
        <ele>1764</ele>
        <time>2021-03-19T13:42:34Z</time>
      </trkpt>
      <trkpt lat="44.81929" lon="6.94418">
        <ele>1764</ele>
        <time>2021-03-19T13:42:35Z</time>
      </trkpt>
      <trkpt lat="44.8193" lon="6.94418">
        <ele>1764</ele>
        <time>2021-03-19T13:42:36Z</time>
      </trkpt>
      <trkpt lat="44.81931" lon="6.94417">
        <ele>1764</ele>
        <time>2021-03-19T13:42:37Z</time>
      </trkpt>
      <trkpt lat="44.81932" lon="6.94417">
        <ele>1764</ele>
        <time>2021-03-19T13:42:38Z</time>
      </trkpt>
      <trkpt lat="44.81932" lon="6.94417">
        <ele>1764</ele>
        <time>2021-03-19T13:42:39Z</time>
      </trkpt>
      <trkpt lat="44.81933" lon="6.94417">
        <ele>1764</ele>
        <time>2021-03-19T13:42:40Z</time>
      </trkpt>
      <trkpt lat="44.81934" lon="6.94416">
        <ele>1764</ele>
        <time>2021-03-19T13:42:41Z</time>
      </trkpt>
      <trkpt lat="44.81934" lon="6.94416">
        <ele>1765</ele>
        <time>2021-03-19T13:42:42Z</time>
      </trkpt>
      <trkpt lat="44.81935" lon="6.94415">
        <ele>1765</ele>
        <time>2021-03-19T13:42:43Z</time>
      </trkpt>
      <trkpt lat="44.81936" lon="6.94415">
        <ele>1765</ele>
        <time>2021-03-19T13:42:44Z</time>
      </trkpt>
      <trkpt lat="44.81936" lon="6.94415">
        <ele>1765</ele>
        <time>2021-03-19T13:42:45Z</time>
      </trkpt>
      <trkpt lat="44.81937" lon="6.94414">
        <ele>1765</ele>
        <time>2021-03-19T13:42:46Z</time>
      </trkpt>
      <trkpt lat="44.81937" lon="6.94414">
        <ele>1766</ele>
        <time>2021-03-19T13:42:47Z</time>
      </trkpt>
      <trkpt lat="44.81938" lon="6.94413">
        <ele>1766</ele>
        <time>2021-03-19T13:42:48Z</time>
      </trkpt>
      <trkpt lat="44.81939" lon="6.94413">
        <ele>1766</ele>
        <time>2021-03-19T13:42:49Z</time>
      </trkpt>
      <trkpt lat="44.8194" lon="6.94413">
        <ele>1766</ele>
        <time>2021-03-19T13:42:50Z</time>
      </trkpt>
      <trkpt lat="44.81941" lon="6.94416">
        <ele>1766</ele>
        <time>2021-03-19T13:43:03Z</time>
      </trkpt>
      <trkpt lat="44.81941" lon="6.94417">
        <ele>1766</ele>
        <time>2021-03-19T13:43:04Z</time>
      </trkpt>
      <trkpt lat="44.81942" lon="6.94419">
        <ele>1766</ele>
        <time>2021-03-19T13:43:05Z</time>
      </trkpt>
      <trkpt lat="44.81941" lon="6.9442">
        <ele>1766</ele>
        <time>2021-03-19T13:43:19Z</time>
      </trkpt>
      <trkpt lat="44.81941" lon="6.94421">
        <ele>1766</ele>
        <time>2021-03-19T13:43:20Z</time>
      </trkpt>
      <trkpt lat="44.81942" lon="6.94422">
        <ele>1766</ele>
        <time>2021-03-19T13:43:21Z</time>
      </trkpt>
      <trkpt lat="44.81942" lon="6.94424">
        <ele>1767</ele>
        <time>2021-03-19T13:43:31Z</time>
      </trkpt>
      <trkpt lat="44.81941" lon="6.94425">
        <ele>1767</ele>
        <time>2021-03-19T13:43:32Z</time>
      </trkpt>
      <trkpt lat="44.81941" lon="6.94426">
        <ele>1767</ele>
        <time>2021-03-19T13:43:33Z</time>
      </trkpt>
      <trkpt lat="44.81942" lon="6.94427">
        <ele>1767</ele>
        <time>2021-03-19T13:43:34Z</time>
      </trkpt>
      <trkpt lat="44.81942" lon="6.94428">
        <ele>1767</ele>
        <time>2021-03-19T13:43:35Z</time>
      </trkpt>
      <trkpt lat="44.81943" lon="6.94429">
        <ele>1767</ele>
        <time>2021-03-19T13:43:49Z</time>
      </trkpt>
      <trkpt lat="44.81943" lon="6.94429">
        <ele>1767</ele>
        <time>2021-03-19T13:43:50Z</time>
      </trkpt>
      <trkpt lat="44.81944" lon="6.94429">
        <ele>1767</ele>
        <time>2021-03-19T13:43:51Z</time>
      </trkpt>
      <trkpt lat="44.81945" lon="6.94428">
        <ele>1767</ele>
        <time>2021-03-19T13:43:52Z</time>
      </trkpt>
      <trkpt lat="44.81946" lon="6.94428">
        <ele>1767</ele>
        <time>2021-03-19T13:43:53Z</time>
      </trkpt>
      <trkpt lat="44.81947" lon="6.94427">
        <ele>1767</ele>
        <time>2021-03-19T13:43:54Z</time>
      </trkpt>
      <trkpt lat="44.81949" lon="6.94426">
        <ele>1767</ele>
        <time>2021-03-19T13:43:55Z</time>
      </trkpt>
      <trkpt lat="44.8195" lon="6.94426">
        <ele>1767</ele>
        <time>2021-03-19T13:43:56Z</time>
      </trkpt>
      <trkpt lat="44.81951" lon="6.94426">
        <ele>1767</ele>
        <time>2021-03-19T13:43:57Z</time>
      </trkpt>
      <trkpt lat="44.81951" lon="6.94426">
        <ele>1767</ele>
        <time>2021-03-19T13:43:58Z</time>
      </trkpt>
      <trkpt lat="44.81952" lon="6.94426">
        <ele>1767</ele>
        <time>2021-03-19T13:43:59Z</time>
      </trkpt>
      <trkpt lat="44.81951" lon="6.94427">
        <ele>1767</ele>
        <time>2021-03-19T13:44:00Z</time>
      </trkpt>
      <trkpt lat="44.81951" lon="6.94427">
        <ele>1767</ele>
        <time>2021-03-19T13:44:01Z</time>
      </trkpt>
      <trkpt lat="44.81951" lon="6.94427">
        <ele>1767</ele>
        <time>2021-03-19T13:44:02Z</time>
      </trkpt>
      <trkpt lat="44.8195" lon="6.94427">
        <ele>1767</ele>
        <time>2021-03-19T13:44:03Z</time>
      </trkpt>
      <trkpt lat="44.8195" lon="6.94427">
        <ele>1767</ele>
        <time>2021-03-19T13:44:04Z</time>
      </trkpt>
      <trkpt lat="44.8195" lon="6.94427">
        <ele>1767</ele>
        <time>2021-03-19T13:44:05Z</time>
      </trkpt>
      <trkpt lat="44.8195" lon="6.94427">
        <ele>1767</ele>
        <time>2021-03-19T13:44:06Z</time>
      </trkpt>
      <trkpt lat="44.81949" lon="6.94427">
        <ele>1767</ele>
        <time>2021-03-19T13:44:07Z</time>
      </trkpt>
      <trkpt lat="44.81949" lon="6.94426">
        <ele>1767</ele>
        <time>2021-03-19T13:44:08Z</time>
      </trkpt>
      <trkpt lat="44.81949" lon="6.94425">
        <ele>1767</ele>
        <time>2021-03-19T13:44:09Z</time>
      </trkpt>
      <trkpt lat="44.81948" lon="6.94424">
        <ele>1767</ele>
        <time>2021-03-19T13:44:10Z</time>
      </trkpt>
      <trkpt lat="44.81949" lon="6.94422">
        <ele>1768</ele>
        <time>2021-03-19T13:44:26Z</time>
      </trkpt>
      <trkpt lat="44.81949" lon="6.9442">
        <ele>1768</ele>
        <time>2021-03-19T13:44:27Z</time>
      </trkpt>
      <trkpt lat="44.8195" lon="6.94419">
        <ele>1768</ele>
        <time>2021-03-19T13:44:28Z</time>
      </trkpt>
      <trkpt lat="44.81951" lon="6.94418">
        <ele>1768</ele>
        <time>2021-03-19T13:44:29Z</time>
      </trkpt>
      <trkpt lat="44.81951" lon="6.94418">
        <ele>1768</ele>
        <time>2021-03-19T13:44:30Z</time>
      </trkpt>
      <trkpt lat="44.81953" lon="6.94418">
        <ele>1768</ele>
        <time>2021-03-19T13:44:31Z</time>
      </trkpt>
      <trkpt lat="44.81954" lon="6.94418">
        <ele>1768</ele>
        <time>2021-03-19T13:44:32Z</time>
      </trkpt>
      <trkpt lat="44.81956" lon="6.94419">
        <ele>1768</ele>
        <time>2021-03-19T13:44:38Z</time>
      </trkpt>
      <trkpt lat="44.81956" lon="6.94419">
        <ele>1768</ele>
        <time>2021-03-19T13:44:39Z</time>
      </trkpt>
      <trkpt lat="44.81957" lon="6.94419">
        <ele>1768</ele>
        <time>2021-03-19T13:44:40Z</time>
      </trkpt>
      <trkpt lat="44.81957" lon="6.94419">
        <ele>1768</ele>
        <time>2021-03-19T13:44:41Z</time>
      </trkpt>
      <trkpt lat="44.81957" lon="6.94419">
        <ele>1768</ele>
        <time>2021-03-19T13:44:42Z</time>
      </trkpt>
      <trkpt lat="44.81958" lon="6.94418">
        <ele>1768</ele>
        <time>2021-03-19T13:44:43Z</time>
      </trkpt>
      <trkpt lat="44.81958" lon="6.94418">
        <ele>1768</ele>
        <time>2021-03-19T13:44:44Z</time>
      </trkpt>
      <trkpt lat="44.81959" lon="6.94417">
        <ele>1768</ele>
        <time>2021-03-19T13:44:45Z</time>
      </trkpt>
      <trkpt lat="44.81959" lon="6.94416">
        <ele>1768</ele>
        <time>2021-03-19T13:44:46Z</time>
      </trkpt>
      <trkpt lat="44.8196" lon="6.94416">
        <ele>1768</ele>
        <time>2021-03-19T13:44:47Z</time>
      </trkpt>
      <trkpt lat="44.81961" lon="6.94415">
        <ele>1768</ele>
        <time>2021-03-19T13:44:48Z</time>
      </trkpt>
      <trkpt lat="44.81962" lon="6.94414">
        <ele>1768</ele>
        <time>2021-03-19T13:44:49Z</time>
      </trkpt>
      <trkpt lat="44.81963" lon="6.94413">
        <ele>1768</ele>
        <time>2021-03-19T13:44:50Z</time>
      </trkpt>
      <trkpt lat="44.81964" lon="6.94412">
        <ele>1768</ele>
        <time>2021-03-19T13:44:51Z</time>
      </trkpt>
      <trkpt lat="44.81964" lon="6.94411">
        <ele>1768</ele>
        <time>2021-03-19T13:44:52Z</time>
      </trkpt>
      <trkpt lat="44.81965" lon="6.9441">
        <ele>1767</ele>
        <time>2021-03-19T13:44:53Z</time>
      </trkpt>
      <trkpt lat="44.81966" lon="6.94409">
        <ele>1767</ele>
        <time>2021-03-19T13:44:54Z</time>
      </trkpt>
      <trkpt lat="44.81967" lon="6.94408">
        <ele>1767</ele>
        <time>2021-03-19T13:44:55Z</time>
      </trkpt>
      <trkpt lat="44.81968" lon="6.94408">
        <ele>1767</ele>
        <time>2021-03-19T13:44:56Z</time>
      </trkpt>
      <trkpt lat="44.8197" lon="6.94408">
        <ele>1767</ele>
        <time>2021-03-19T13:44:57Z</time>
      </trkpt>
      <trkpt lat="44.81971" lon="6.94407">
        <ele>1767</ele>
        <time>2021-03-19T13:44:58Z</time>
      </trkpt>
      <trkpt lat="44.81972" lon="6.94407">
        <ele>1767</ele>
        <time>2021-03-19T13:44:59Z</time>
      </trkpt>
      <trkpt lat="44.81973" lon="6.94407">
        <ele>1767</ele>
        <time>2021-03-19T13:45:00Z</time>
      </trkpt>
      <trkpt lat="44.81975" lon="6.94407">
        <ele>1767</ele>
        <time>2021-03-19T13:45:01Z</time>
      </trkpt>
      <trkpt lat="44.81976" lon="6.94407">
        <ele>1767</ele>
        <time>2021-03-19T13:45:02Z</time>
      </trkpt>
      <trkpt lat="44.81977" lon="6.94406">
        <ele>1767</ele>
        <time>2021-03-19T13:45:03Z</time>
      </trkpt>
      <trkpt lat="44.81978" lon="6.94406">
        <ele>1767</ele>
        <time>2021-03-19T13:45:04Z</time>
      </trkpt>
      <trkpt lat="44.81979" lon="6.94405">
        <ele>1767</ele>
        <time>2021-03-19T13:45:05Z</time>
      </trkpt>
      <trkpt lat="44.8198" lon="6.94405">
        <ele>1767</ele>
        <time>2021-03-19T13:45:06Z</time>
      </trkpt>
      <trkpt lat="44.81981" lon="6.94405">
        <ele>1767</ele>
        <time>2021-03-19T13:45:07Z</time>
      </trkpt>
      <trkpt lat="44.81982" lon="6.94405">
        <ele>1767</ele>
        <time>2021-03-19T13:45:08Z</time>
      </trkpt>
      <trkpt lat="44.81983" lon="6.94406">
        <ele>1767</ele>
        <time>2021-03-19T13:45:09Z</time>
      </trkpt>
      <trkpt lat="44.81984" lon="6.94406">
        <ele>1767</ele>
        <time>2021-03-19T13:45:10Z</time>
      </trkpt>
      <trkpt lat="44.81985" lon="6.94407">
        <ele>1767</ele>
        <time>2021-03-19T13:45:11Z</time>
      </trkpt>
      <trkpt lat="44.81986" lon="6.94408">
        <ele>1767</ele>
        <time>2021-03-19T13:45:12Z</time>
      </trkpt>
      <trkpt lat="44.81987" lon="6.94408">
        <ele>1767</ele>
        <time>2021-03-19T13:45:13Z</time>
      </trkpt>
      <trkpt lat="44.81988" lon="6.94409">
        <ele>1767</ele>
        <time>2021-03-19T13:45:14Z</time>
      </trkpt>
      <trkpt lat="44.81989" lon="6.94409">
        <ele>1767</ele>
        <time>2021-03-19T13:45:15Z</time>
      </trkpt>
      <trkpt lat="44.8199" lon="6.9441">
        <ele>1767</ele>
        <time>2021-03-19T13:45:16Z</time>
      </trkpt>
      <trkpt lat="44.8199" lon="6.94411">
        <ele>1767</ele>
        <time>2021-03-19T13:45:17Z</time>
      </trkpt>
      <trkpt lat="44.81991" lon="6.94412">
        <ele>1767</ele>
        <time>2021-03-19T13:45:18Z</time>
      </trkpt>
      <trkpt lat="44.81992" lon="6.94413">
        <ele>1767</ele>
        <time>2021-03-19T13:45:19Z</time>
      </trkpt>
      <trkpt lat="44.81992" lon="6.94414">
        <ele>1767</ele>
        <time>2021-03-19T13:45:20Z</time>
      </trkpt>
      <trkpt lat="44.81992" lon="6.94415">
        <ele>1767</ele>
        <time>2021-03-19T13:45:21Z</time>
      </trkpt>
      <trkpt lat="44.81992" lon="6.94416">
        <ele>1767</ele>
        <time>2021-03-19T13:45:22Z</time>
      </trkpt>
      <trkpt lat="44.81991" lon="6.94417">
        <ele>1767</ele>
        <time>2021-03-19T13:45:23Z</time>
      </trkpt>
      <trkpt lat="44.8199" lon="6.94417">
        <ele>1767</ele>
        <time>2021-03-19T13:45:24Z</time>
      </trkpt>
      <trkpt lat="44.81989" lon="6.94418">
        <ele>1767</ele>
        <time>2021-03-19T13:45:25Z</time>
      </trkpt>
      <trkpt lat="44.81989" lon="6.94418">
        <ele>1767</ele>
        <time>2021-03-19T13:45:26Z</time>
      </trkpt>
      <trkpt lat="44.81988" lon="6.94419">
        <ele>1767</ele>
        <time>2021-03-19T13:45:27Z</time>
      </trkpt>
      <trkpt lat="44.81987" lon="6.94419">
        <ele>1767</ele>
        <time>2021-03-19T13:45:28Z</time>
      </trkpt>
      <trkpt lat="44.81987" lon="6.94419">
        <ele>1767</ele>
        <time>2021-03-19T13:45:29Z</time>
      </trkpt>
      <trkpt lat="44.81986" lon="6.94419">
        <ele>1767</ele>
        <time>2021-03-19T13:45:30Z</time>
      </trkpt>
      <trkpt lat="44.81986" lon="6.94419">
        <ele>1767</ele>
        <time>2021-03-19T13:45:31Z</time>
      </trkpt>
      <trkpt lat="44.81985" lon="6.94419">
        <ele>1767</ele>
        <time>2021-03-19T13:45:32Z</time>
      </trkpt>
      <trkpt lat="44.81985" lon="6.94419">
        <ele>1767</ele>
        <time>2021-03-19T13:45:33Z</time>
      </trkpt>
      <trkpt lat="44.81984" lon="6.94419">
        <ele>1767</ele>
        <time>2021-03-19T13:45:34Z</time>
      </trkpt>
      <trkpt lat="44.81984" lon="6.94419">
        <ele>1767</ele>
        <time>2021-03-19T13:45:35Z</time>
      </trkpt>
      <trkpt lat="44.81984" lon="6.9442">
        <ele>1767</ele>
        <time>2021-03-19T13:45:36Z</time>
      </trkpt>
      <trkpt lat="44.81984" lon="6.9442">
        <ele>1768</ele>
        <time>2021-03-19T13:45:37Z</time>
      </trkpt>
      <trkpt lat="44.81983" lon="6.9442">
        <ele>1768</ele>
        <time>2021-03-19T13:45:38Z</time>
      </trkpt>
      <trkpt lat="44.81983" lon="6.9442">
        <ele>1768</ele>
        <time>2021-03-19T13:45:39Z</time>
      </trkpt>
      <trkpt lat="44.81983" lon="6.94421">
        <ele>1768</ele>
        <time>2021-03-19T13:45:40Z</time>
      </trkpt>
      <trkpt lat="44.81982" lon="6.94421">
        <ele>1768</ele>
        <time>2021-03-19T13:45:41Z</time>
      </trkpt>
      <trkpt lat="44.81982" lon="6.94422">
        <ele>1768</ele>
        <time>2021-03-19T13:45:42Z</time>
      </trkpt>
      <trkpt lat="44.81982" lon="6.94423">
        <ele>1768</ele>
        <time>2021-03-19T13:45:43Z</time>
      </trkpt>
      <trkpt lat="44.81981" lon="6.94423">
        <ele>1768</ele>
        <time>2021-03-19T13:45:44Z</time>
      </trkpt>
      <trkpt lat="44.81981" lon="6.94424">
        <ele>1768</ele>
        <time>2021-03-19T13:45:45Z</time>
      </trkpt>
      <trkpt lat="44.8198" lon="6.94424">
        <ele>1768</ele>
        <time>2021-03-19T13:45:46Z</time>
      </trkpt>
      <trkpt lat="44.8198" lon="6.94425">
        <ele>1769</ele>
        <time>2021-03-19T13:45:47Z</time>
      </trkpt>
      <trkpt lat="44.81979" lon="6.94425">
        <ele>1769</ele>
        <time>2021-03-19T13:45:48Z</time>
      </trkpt>
      <trkpt lat="44.81979" lon="6.94426">
        <ele>1769</ele>
        <time>2021-03-19T13:45:49Z</time>
      </trkpt>
      <trkpt lat="44.81978" lon="6.94426">
        <ele>1769</ele>
        <time>2021-03-19T13:45:50Z</time>
      </trkpt>
      <trkpt lat="44.81978" lon="6.94426">
        <ele>1769</ele>
        <time>2021-03-19T13:45:51Z</time>
      </trkpt>
      <trkpt lat="44.81977" lon="6.94426">
        <ele>1770</ele>
        <time>2021-03-19T13:45:52Z</time>
      </trkpt>
      <trkpt lat="44.81976" lon="6.94427">
        <ele>1770</ele>
        <time>2021-03-19T13:45:53Z</time>
      </trkpt>
      <trkpt lat="44.81976" lon="6.94428">
        <ele>1770</ele>
        <time>2021-03-19T13:45:54Z</time>
      </trkpt>
      <trkpt lat="44.81975" lon="6.94428">
        <ele>1770</ele>
        <time>2021-03-19T13:45:55Z</time>
      </trkpt>
      <trkpt lat="44.81975" lon="6.94429">
        <ele>1770</ele>
        <time>2021-03-19T13:45:56Z</time>
      </trkpt>
      <trkpt lat="44.81974" lon="6.9443">
        <ele>1770</ele>
        <time>2021-03-19T13:45:57Z</time>
      </trkpt>
      <trkpt lat="44.81974" lon="6.94431">
        <ele>1770</ele>
        <time>2021-03-19T13:45:58Z</time>
      </trkpt>
      <trkpt lat="44.81974" lon="6.94431">
        <ele>1770</ele>
        <time>2021-03-19T13:45:59Z</time>
      </trkpt>
      <trkpt lat="44.81974" lon="6.94432">
        <ele>1770</ele>
        <time>2021-03-19T13:46:00Z</time>
      </trkpt>
      <trkpt lat="44.81974" lon="6.94433">
        <ele>1770</ele>
        <time>2021-03-19T13:46:01Z</time>
      </trkpt>
      <trkpt lat="44.81974" lon="6.94434">
        <ele>1770</ele>
        <time>2021-03-19T13:46:02Z</time>
      </trkpt>
      <trkpt lat="44.81974" lon="6.94434">
        <ele>1770</ele>
        <time>2021-03-19T13:46:03Z</time>
      </trkpt>
      <trkpt lat="44.81974" lon="6.94435">
        <ele>1770</ele>
        <time>2021-03-19T13:46:04Z</time>
      </trkpt>
      <trkpt lat="44.81974" lon="6.94436">
        <ele>1770</ele>
        <time>2021-03-19T13:46:05Z</time>
      </trkpt>
      <trkpt lat="44.81974" lon="6.94436">
        <ele>1770</ele>
        <time>2021-03-19T13:46:06Z</time>
      </trkpt>
      <trkpt lat="44.81974" lon="6.94437">
        <ele>1771</ele>
        <time>2021-03-19T13:46:07Z</time>
      </trkpt>
      <trkpt lat="44.81974" lon="6.94437">
        <ele>1771</ele>
        <time>2021-03-19T13:46:08Z</time>
      </trkpt>
      <trkpt lat="44.81974" lon="6.9444">
        <ele>1774</ele>
        <time>2021-03-19T13:46:30Z</time>
      </trkpt>
      <trkpt lat="44.81974" lon="6.94442">
        <ele>1774</ele>
        <time>2021-03-19T13:46:31Z</time>
      </trkpt>
      <trkpt lat="44.81974" lon="6.94443">
        <ele>1774</ele>
        <time>2021-03-19T13:46:32Z</time>
      </trkpt>
      <trkpt lat="44.81973" lon="6.94445">
        <ele>1774</ele>
        <time>2021-03-19T13:46:33Z</time>
      </trkpt>
      <trkpt lat="44.81973" lon="6.94446">
        <ele>1774</ele>
        <time>2021-03-19T13:46:34Z</time>
      </trkpt>
      <trkpt lat="44.81973" lon="6.94447">
        <ele>1774</ele>
        <time>2021-03-19T13:46:35Z</time>
      </trkpt>
      <trkpt lat="44.81973" lon="6.94448">
        <ele>1774</ele>
        <time>2021-03-19T13:46:36Z</time>
      </trkpt>
      <trkpt lat="44.81972" lon="6.94448">
        <ele>1775</ele>
        <time>2021-03-19T13:46:37Z</time>
      </trkpt>
      <trkpt lat="44.81972" lon="6.94449">
        <ele>1775</ele>
        <time>2021-03-19T13:46:38Z</time>
      </trkpt>
      <trkpt lat="44.81972" lon="6.94449">
        <ele>1775</ele>
        <time>2021-03-19T13:46:39Z</time>
      </trkpt>
      <trkpt lat="44.81971" lon="6.9445">
        <ele>1775</ele>
        <time>2021-03-19T13:46:40Z</time>
      </trkpt>
      <trkpt lat="44.81971" lon="6.9445">
        <ele>1775</ele>
        <time>2021-03-19T13:46:41Z</time>
      </trkpt>
      <trkpt lat="44.81971" lon="6.9445">
        <ele>1776</ele>
        <time>2021-03-19T13:46:42Z</time>
      </trkpt>
      <trkpt lat="44.81971" lon="6.94451">
        <ele>1776</ele>
        <time>2021-03-19T13:46:43Z</time>
      </trkpt>
      <trkpt lat="44.81972" lon="6.94451">
        <ele>1776</ele>
        <time>2021-03-19T13:46:44Z</time>
      </trkpt>
      <trkpt lat="44.81972" lon="6.94451">
        <ele>1776</ele>
        <time>2021-03-19T13:46:45Z</time>
      </trkpt>
      <trkpt lat="44.81972" lon="6.94452">
        <ele>1776</ele>
        <time>2021-03-19T13:46:46Z</time>
      </trkpt>
      <trkpt lat="44.81973" lon="6.94452">
        <ele>1777</ele>
        <time>2021-03-19T13:46:47Z</time>
      </trkpt>
      <trkpt lat="44.81974" lon="6.94452">
        <ele>1777</ele>
        <time>2021-03-19T13:46:48Z</time>
      </trkpt>
      <trkpt lat="44.81975" lon="6.94453">
        <ele>1777</ele>
        <time>2021-03-19T13:46:49Z</time>
      </trkpt>
      <trkpt lat="44.81975" lon="6.94453">
        <ele>1777</ele>
        <time>2021-03-19T13:46:50Z</time>
      </trkpt>
      <trkpt lat="44.81975" lon="6.94454">
        <ele>1777</ele>
        <time>2021-03-19T13:46:51Z</time>
      </trkpt>
      <trkpt lat="44.81975" lon="6.94455">
        <ele>1777</ele>
        <time>2021-03-19T13:46:52Z</time>
      </trkpt>
      <trkpt lat="44.81974" lon="6.94455">
        <ele>1777</ele>
        <time>2021-03-19T13:46:53Z</time>
      </trkpt>
      <trkpt lat="44.81974" lon="6.94455">
        <ele>1777</ele>
        <time>2021-03-19T13:46:54Z</time>
      </trkpt>
      <trkpt lat="44.81973" lon="6.94456">
        <ele>1777</ele>
        <time>2021-03-19T13:46:55Z</time>
      </trkpt>
      <trkpt lat="44.81973" lon="6.94457">
        <ele>1777</ele>
        <time>2021-03-19T13:46:56Z</time>
      </trkpt>
      <trkpt lat="44.81972" lon="6.94457">
        <ele>1778</ele>
        <time>2021-03-19T13:46:57Z</time>
      </trkpt>
      <trkpt lat="44.81972" lon="6.94458">
        <ele>1778</ele>
        <time>2021-03-19T13:46:58Z</time>
      </trkpt>
      <trkpt lat="44.81972" lon="6.94458">
        <ele>1778</ele>
        <time>2021-03-19T13:46:59Z</time>
      </trkpt>
      <trkpt lat="44.81972" lon="6.94459">
        <ele>1778</ele>
        <time>2021-03-19T13:47:00Z</time>
      </trkpt>
      <trkpt lat="44.81972" lon="6.94459">
        <ele>1778</ele>
        <time>2021-03-19T13:47:01Z</time>
      </trkpt>
      <trkpt lat="44.81972" lon="6.94459">
        <ele>1779</ele>
        <time>2021-03-19T13:47:02Z</time>
      </trkpt>
      <trkpt lat="44.81973" lon="6.94459">
        <ele>1779</ele>
        <time>2021-03-19T13:47:03Z</time>
      </trkpt>
      <trkpt lat="44.81973" lon="6.94459">
        <ele>1779</ele>
        <time>2021-03-19T13:47:04Z</time>
      </trkpt>
      <trkpt lat="44.81974" lon="6.94459">
        <ele>1779</ele>
        <time>2021-03-19T13:47:05Z</time>
      </trkpt>
      <trkpt lat="44.81975" lon="6.94459">
        <ele>1779</ele>
        <time>2021-03-19T13:47:06Z</time>
      </trkpt>
      <trkpt lat="44.81976" lon="6.94459">
        <ele>1780</ele>
        <time>2021-03-19T13:47:07Z</time>
      </trkpt>
      <trkpt lat="44.81976" lon="6.9446">
        <ele>1780</ele>
        <time>2021-03-19T13:47:08Z</time>
      </trkpt>
      <trkpt lat="44.81977" lon="6.9446">
        <ele>1780</ele>
        <time>2021-03-19T13:47:09Z</time>
      </trkpt>
      <trkpt lat="44.81976" lon="6.94461">
        <ele>1780</ele>
        <time>2021-03-19T13:47:10Z</time>
      </trkpt>
      <trkpt lat="44.81976" lon="6.94462">
        <ele>1780</ele>
        <time>2021-03-19T13:47:11Z</time>
      </trkpt>
      <trkpt lat="44.81975" lon="6.94463">
        <ele>1780</ele>
        <time>2021-03-19T13:47:12Z</time>
      </trkpt>
      <trkpt lat="44.81975" lon="6.94464">
        <ele>1780</ele>
        <time>2021-03-19T13:47:13Z</time>
      </trkpt>
      <trkpt lat="44.81974" lon="6.94465">
        <ele>1781</ele>
        <time>2021-03-19T13:47:20Z</time>
      </trkpt>
      <trkpt lat="44.81974" lon="6.94465">
        <ele>1781</ele>
        <time>2021-03-19T13:47:21Z</time>
      </trkpt>
      <trkpt lat="44.81974" lon="6.94466">
        <ele>1782</ele>
        <time>2021-03-19T13:47:22Z</time>
      </trkpt>
      <trkpt lat="44.81976" lon="6.94468">
        <ele>1783</ele>
        <time>2021-03-19T13:47:34Z</time>
      </trkpt>
      <trkpt lat="44.81977" lon="6.94469">
        <ele>1784</ele>
        <time>2021-03-19T13:47:35Z</time>
      </trkpt>
      <trkpt lat="44.81978" lon="6.9447">
        <ele>1784</ele>
        <time>2021-03-19T13:47:36Z</time>
      </trkpt>
      <trkpt lat="44.81979" lon="6.94471">
        <ele>1785</ele>
        <time>2021-03-19T13:47:37Z</time>
      </trkpt>
      <trkpt lat="44.81979" lon="6.94472">
        <ele>1785</ele>
        <time>2021-03-19T13:47:38Z</time>
      </trkpt>
      <trkpt lat="44.81979" lon="6.94473">
        <ele>1785</ele>
        <time>2021-03-19T13:47:39Z</time>
      </trkpt>
      <trkpt lat="44.81979" lon="6.94474">
        <ele>1785</ele>
        <time>2021-03-19T13:47:40Z</time>
      </trkpt>
      <trkpt lat="44.81979" lon="6.94474">
        <ele>1785</ele>
        <time>2021-03-19T13:47:41Z</time>
      </trkpt>
      <trkpt lat="44.81978" lon="6.94475">
        <ele>1785</ele>
        <time>2021-03-19T13:47:42Z</time>
      </trkpt>
      <trkpt lat="44.81978" lon="6.94476">
        <ele>1785</ele>
        <time>2021-03-19T13:47:43Z</time>
      </trkpt>
      <trkpt lat="44.81977" lon="6.94476">
        <ele>1785</ele>
        <time>2021-03-19T13:47:44Z</time>
      </trkpt>
      <trkpt lat="44.81976" lon="6.94476">
        <ele>1785</ele>
        <time>2021-03-19T13:47:45Z</time>
      </trkpt>
      <trkpt lat="44.81976" lon="6.94477">
        <ele>1785</ele>
        <time>2021-03-19T13:47:46Z</time>
      </trkpt>
      <trkpt lat="44.81976" lon="6.94477">
        <ele>1786</ele>
        <time>2021-03-19T13:47:47Z</time>
      </trkpt>
      <trkpt lat="44.81975" lon="6.94477">
        <ele>1786</ele>
        <time>2021-03-19T13:47:48Z</time>
      </trkpt>
      <trkpt lat="44.81975" lon="6.94478">
        <ele>1786</ele>
        <time>2021-03-19T13:47:49Z</time>
      </trkpt>
      <trkpt lat="44.81975" lon="6.94479">
        <ele>1786</ele>
        <time>2021-03-19T13:47:50Z</time>
      </trkpt>
      <trkpt lat="44.81975" lon="6.94479">
        <ele>1786</ele>
        <time>2021-03-19T13:47:51Z</time>
      </trkpt>
      <trkpt lat="44.81975" lon="6.9448">
        <ele>1786</ele>
        <time>2021-03-19T13:47:52Z</time>
      </trkpt>
      <trkpt lat="44.81975" lon="6.9448">
        <ele>1786</ele>
        <time>2021-03-19T13:47:53Z</time>
      </trkpt>
      <trkpt lat="44.81975" lon="6.94481">
        <ele>1786</ele>
        <time>2021-03-19T13:47:54Z</time>
      </trkpt>
      <trkpt lat="44.81975" lon="6.94482">
        <ele>1787</ele>
        <time>2021-03-19T13:47:55Z</time>
      </trkpt>
      <trkpt lat="44.81975" lon="6.94483">
        <ele>1787</ele>
        <time>2021-03-19T13:47:56Z</time>
      </trkpt>
      <trkpt lat="44.81974" lon="6.94484">
        <ele>1788</ele>
        <time>2021-03-19T13:47:57Z</time>
      </trkpt>
      <trkpt lat="44.81974" lon="6.94485">
        <ele>1788</ele>
        <time>2021-03-19T13:47:58Z</time>
      </trkpt>
      <trkpt lat="44.81974" lon="6.94486">
        <ele>1788</ele>
        <time>2021-03-19T13:47:59Z</time>
      </trkpt>
      <trkpt lat="44.81973" lon="6.94487">
        <ele>1788</ele>
        <time>2021-03-19T13:48:00Z</time>
      </trkpt>
      <trkpt lat="44.81972" lon="6.94488">
        <ele>1788</ele>
        <time>2021-03-19T13:48:01Z</time>
      </trkpt>
      <trkpt lat="44.81972" lon="6.94488">
        <ele>1789</ele>
        <time>2021-03-19T13:48:02Z</time>
      </trkpt>
      <trkpt lat="44.81972" lon="6.94489">
        <ele>1789</ele>
        <time>2021-03-19T13:48:03Z</time>
      </trkpt>
      <trkpt lat="44.81971" lon="6.94489">
        <ele>1789</ele>
        <time>2021-03-19T13:48:04Z</time>
      </trkpt>
      <trkpt lat="44.81971" lon="6.9449">
        <ele>1789</ele>
        <time>2021-03-19T13:48:05Z</time>
      </trkpt>
      <trkpt lat="44.81971" lon="6.9449">
        <ele>1789</ele>
        <time>2021-03-19T13:48:06Z</time>
      </trkpt>
      <trkpt lat="44.81971" lon="6.9449">
        <ele>1789</ele>
        <time>2021-03-19T13:48:07Z</time>
      </trkpt>
      <trkpt lat="44.8197" lon="6.94491">
        <ele>1789</ele>
        <time>2021-03-19T13:48:08Z</time>
      </trkpt>
      <trkpt lat="44.8197" lon="6.94492">
        <ele>1789</ele>
        <time>2021-03-19T13:48:09Z</time>
      </trkpt>
      <trkpt lat="44.81969" lon="6.94493">
        <ele>1789</ele>
        <time>2021-03-19T13:48:10Z</time>
      </trkpt>
      <trkpt lat="44.81969" lon="6.94494">
        <ele>1789</ele>
        <time>2021-03-19T13:48:11Z</time>
      </trkpt>
      <trkpt lat="44.81969" lon="6.94494">
        <ele>1790</ele>
        <time>2021-03-19T13:48:12Z</time>
      </trkpt>
      <trkpt lat="44.81969" lon="6.94495">
        <ele>1790</ele>
        <time>2021-03-19T13:48:13Z</time>
      </trkpt>
      <trkpt lat="44.81968" lon="6.94495">
        <ele>1790</ele>
        <time>2021-03-19T13:48:14Z</time>
      </trkpt>
      <trkpt lat="44.81968" lon="6.94495">
        <ele>1790</ele>
        <time>2021-03-19T13:48:15Z</time>
      </trkpt>
      <trkpt lat="44.81968" lon="6.94496">
        <ele>1790</ele>
        <time>2021-03-19T13:48:16Z</time>
      </trkpt>
      <trkpt lat="44.81969" lon="6.94496">
        <ele>1791</ele>
        <time>2021-03-19T13:48:17Z</time>
      </trkpt>
      <trkpt lat="44.81969" lon="6.94497">
        <ele>1791</ele>
        <time>2021-03-19T13:48:18Z</time>
      </trkpt>
      <trkpt lat="44.8197" lon="6.94497">
        <ele>1791</ele>
        <time>2021-03-19T13:48:19Z</time>
      </trkpt>
      <trkpt lat="44.8197" lon="6.94497">
        <ele>1791</ele>
        <time>2021-03-19T13:48:20Z</time>
      </trkpt>
      <trkpt lat="44.81971" lon="6.94497">
        <ele>1791</ele>
        <time>2021-03-19T13:48:21Z</time>
      </trkpt>
      <trkpt lat="44.81972" lon="6.94497">
        <ele>1792</ele>
        <time>2021-03-19T13:48:22Z</time>
      </trkpt>
      <trkpt lat="44.81972" lon="6.94497">
        <ele>1792</ele>
        <time>2021-03-19T13:48:23Z</time>
      </trkpt>
      <trkpt lat="44.81973" lon="6.94497">
        <ele>1792</ele>
        <time>2021-03-19T13:48:24Z</time>
      </trkpt>
      <trkpt lat="44.81974" lon="6.94497">
        <ele>1792</ele>
        <time>2021-03-19T13:48:25Z</time>
      </trkpt>
      <trkpt lat="44.81975" lon="6.94497">
        <ele>1792</ele>
        <time>2021-03-19T13:48:26Z</time>
      </trkpt>
      <trkpt lat="44.81975" lon="6.94497">
        <ele>1793</ele>
        <time>2021-03-19T13:48:27Z</time>
      </trkpt>
      <trkpt lat="44.81976" lon="6.94497">
        <ele>1793</ele>
        <time>2021-03-19T13:48:28Z</time>
      </trkpt>
      <trkpt lat="44.81976" lon="6.94497">
        <ele>1793</ele>
        <time>2021-03-19T13:48:29Z</time>
      </trkpt>
      <trkpt lat="44.81977" lon="6.94497">
        <ele>1793</ele>
        <time>2021-03-19T13:48:30Z</time>
      </trkpt>
      <trkpt lat="44.81977" lon="6.94498">
        <ele>1793</ele>
        <time>2021-03-19T13:48:31Z</time>
      </trkpt>
      <trkpt lat="44.81977" lon="6.94498">
        <ele>1793</ele>
        <time>2021-03-19T13:48:32Z</time>
      </trkpt>
      <trkpt lat="44.81978" lon="6.94498">
        <ele>1793</ele>
        <time>2021-03-19T13:48:33Z</time>
      </trkpt>
      <trkpt lat="44.81979" lon="6.94498">
        <ele>1793</ele>
        <time>2021-03-19T13:48:34Z</time>
      </trkpt>
      <trkpt lat="44.8198" lon="6.94499">
        <ele>1793</ele>
        <time>2021-03-19T13:48:35Z</time>
      </trkpt>
      <trkpt lat="44.8198" lon="6.94499">
        <ele>1793</ele>
        <time>2021-03-19T13:48:36Z</time>
      </trkpt>
      <trkpt lat="44.81981" lon="6.94499">
        <ele>1794</ele>
        <time>2021-03-19T13:48:37Z</time>
      </trkpt>
      <trkpt lat="44.81982" lon="6.945">
        <ele>1794</ele>
        <time>2021-03-19T13:48:38Z</time>
      </trkpt>
      <trkpt lat="44.81982" lon="6.945">
        <ele>1794</ele>
        <time>2021-03-19T13:48:39Z</time>
      </trkpt>
      <trkpt lat="44.81983" lon="6.94501">
        <ele>1794</ele>
        <time>2021-03-19T13:48:40Z</time>
      </trkpt>
      <trkpt lat="44.81983" lon="6.94502">
        <ele>1794</ele>
        <time>2021-03-19T13:48:41Z</time>
      </trkpt>
      <trkpt lat="44.81983" lon="6.94502">
        <ele>1794</ele>
        <time>2021-03-19T13:48:42Z</time>
      </trkpt>
      <trkpt lat="44.81982" lon="6.94504">
        <ele>1795</ele>
        <time>2021-03-19T13:49:03Z</time>
      </trkpt>
      <trkpt lat="44.81982" lon="6.94505">
        <ele>1795</ele>
        <time>2021-03-19T13:49:04Z</time>
      </trkpt>
      <trkpt lat="44.81981" lon="6.94506">
        <ele>1795</ele>
        <time>2021-03-19T13:49:05Z</time>
      </trkpt>
      <trkpt lat="44.81981" lon="6.94507">
        <ele>1795</ele>
        <time>2021-03-19T13:49:06Z</time>
      </trkpt>
      <trkpt lat="44.81981" lon="6.94508">
        <ele>1795</ele>
        <time>2021-03-19T13:49:07Z</time>
      </trkpt>
      <trkpt lat="44.8198" lon="6.94508">
        <ele>1795</ele>
        <time>2021-03-19T13:49:08Z</time>
      </trkpt>
      <trkpt lat="44.8198" lon="6.94509">
        <ele>1795</ele>
        <time>2021-03-19T13:49:09Z</time>
      </trkpt>
      <trkpt lat="44.8198" lon="6.9451">
        <ele>1795</ele>
        <time>2021-03-19T13:49:10Z</time>
      </trkpt>
      <trkpt lat="44.8198" lon="6.94511">
        <ele>1795</ele>
        <time>2021-03-19T13:49:11Z</time>
      </trkpt>
      <trkpt lat="44.8198" lon="6.94511">
        <ele>1796</ele>
        <time>2021-03-19T13:49:12Z</time>
      </trkpt>
      <trkpt lat="44.8198" lon="6.94512">
        <ele>1796</ele>
        <time>2021-03-19T13:49:13Z</time>
      </trkpt>
      <trkpt lat="44.8198" lon="6.94513">
        <ele>1796</ele>
        <time>2021-03-19T13:49:14Z</time>
      </trkpt>
      <trkpt lat="44.8198" lon="6.94514">
        <ele>1796</ele>
        <time>2021-03-19T13:49:15Z</time>
      </trkpt>
      <trkpt lat="44.8198" lon="6.94517">
        <ele>1797</ele>
        <time>2021-03-19T13:49:22Z</time>
      </trkpt>
      <trkpt lat="44.81979" lon="6.94518">
        <ele>1797</ele>
        <time>2021-03-19T13:49:23Z</time>
      </trkpt>
      <trkpt lat="44.81979" lon="6.94519">
        <ele>1797</ele>
        <time>2021-03-19T13:49:24Z</time>
      </trkpt>
      <trkpt lat="44.81979" lon="6.9452">
        <ele>1797</ele>
        <time>2021-03-19T13:49:25Z</time>
      </trkpt>
      <trkpt lat="44.81978" lon="6.94521">
        <ele>1797</ele>
        <time>2021-03-19T13:49:26Z</time>
      </trkpt>
      <trkpt lat="44.81977" lon="6.94522">
        <ele>1798</ele>
        <time>2021-03-19T13:49:27Z</time>
      </trkpt>
      <trkpt lat="44.81977" lon="6.94522">
        <ele>1798</ele>
        <time>2021-03-19T13:49:28Z</time>
      </trkpt>
      <trkpt lat="44.81976" lon="6.94523">
        <ele>1798</ele>
        <time>2021-03-19T13:49:29Z</time>
      </trkpt>
      <trkpt lat="44.81976" lon="6.94523">
        <ele>1798</ele>
        <time>2021-03-19T13:49:30Z</time>
      </trkpt>
      <trkpt lat="44.81976" lon="6.94524">
        <ele>1798</ele>
        <time>2021-03-19T13:49:31Z</time>
      </trkpt>
      <trkpt lat="44.81976" lon="6.94524">
        <ele>1799</ele>
        <time>2021-03-19T13:49:32Z</time>
      </trkpt>
      <trkpt lat="44.81975" lon="6.94525">
        <ele>1799</ele>
        <time>2021-03-19T13:49:33Z</time>
      </trkpt>
      <trkpt lat="44.81975" lon="6.94526">
        <ele>1799</ele>
        <time>2021-03-19T13:49:34Z</time>
      </trkpt>
      <trkpt lat="44.81975" lon="6.94526">
        <ele>1799</ele>
        <time>2021-03-19T13:49:35Z</time>
      </trkpt>
      <trkpt lat="44.81975" lon="6.94527">
        <ele>1799</ele>
        <time>2021-03-19T13:49:36Z</time>
      </trkpt>
      <trkpt lat="44.81975" lon="6.94528">
        <ele>1800</ele>
        <time>2021-03-19T13:49:37Z</time>
      </trkpt>
      <trkpt lat="44.81975" lon="6.94528">
        <ele>1800</ele>
        <time>2021-03-19T13:49:38Z</time>
      </trkpt>
      <trkpt lat="44.81975" lon="6.94529">
        <ele>1800</ele>
        <time>2021-03-19T13:49:39Z</time>
      </trkpt>
      <trkpt lat="44.81975" lon="6.9453">
        <ele>1800</ele>
        <time>2021-03-19T13:49:40Z</time>
      </trkpt>
      <trkpt lat="44.81975" lon="6.94531">
        <ele>1800</ele>
        <time>2021-03-19T13:49:41Z</time>
      </trkpt>
      <trkpt lat="44.81974" lon="6.94532">
        <ele>1801</ele>
        <time>2021-03-19T13:49:42Z</time>
      </trkpt>
      <trkpt lat="44.81974" lon="6.94532">
        <ele>1801</ele>
        <time>2021-03-19T13:49:43Z</time>
      </trkpt>
      <trkpt lat="44.81973" lon="6.94533">
        <ele>1801</ele>
        <time>2021-03-19T13:49:44Z</time>
      </trkpt>
      <trkpt lat="44.81973" lon="6.94534">
        <ele>1801</ele>
        <time>2021-03-19T13:49:45Z</time>
      </trkpt>
      <trkpt lat="44.81973" lon="6.94535">
        <ele>1801</ele>
        <time>2021-03-19T13:49:46Z</time>
      </trkpt>
      <trkpt lat="44.81972" lon="6.94536">
        <ele>1802</ele>
        <time>2021-03-19T13:49:47Z</time>
      </trkpt>
      <trkpt lat="44.81972" lon="6.94536">
        <ele>1802</ele>
        <time>2021-03-19T13:49:48Z</time>
      </trkpt>
      <trkpt lat="44.81972" lon="6.94536">
        <ele>1802</ele>
        <time>2021-03-19T13:49:49Z</time>
      </trkpt>
      <trkpt lat="44.81972" lon="6.94536">
        <ele>1802</ele>
        <time>2021-03-19T13:49:50Z</time>
      </trkpt>
      <trkpt lat="44.81972" lon="6.94537">
        <ele>1802</ele>
        <time>2021-03-19T13:49:51Z</time>
      </trkpt>
      <trkpt lat="44.81972" lon="6.94537">
        <ele>1803</ele>
        <time>2021-03-19T13:49:52Z</time>
      </trkpt>
      <trkpt lat="44.81972" lon="6.94538">
        <ele>1803</ele>
        <time>2021-03-19T13:49:53Z</time>
      </trkpt>
      <trkpt lat="44.81972" lon="6.94539">
        <ele>1803</ele>
        <time>2021-03-19T13:49:54Z</time>
      </trkpt>
      <trkpt lat="44.81971" lon="6.9454">
        <ele>1803</ele>
        <time>2021-03-19T13:49:55Z</time>
      </trkpt>
      <trkpt lat="44.81971" lon="6.9454">
        <ele>1803</ele>
        <time>2021-03-19T13:49:56Z</time>
      </trkpt>
      <trkpt lat="44.8197" lon="6.94541">
        <ele>1803</ele>
        <time>2021-03-19T13:49:57Z</time>
      </trkpt>
      <trkpt lat="44.8197" lon="6.94541">
        <ele>1803</ele>
        <time>2021-03-19T13:49:58Z</time>
      </trkpt>
      <trkpt lat="44.81969" lon="6.94542">
        <ele>1803</ele>
        <time>2021-03-19T13:49:59Z</time>
      </trkpt>
      <trkpt lat="44.81969" lon="6.94543">
        <ele>1803</ele>
        <time>2021-03-19T13:50:00Z</time>
      </trkpt>
      <trkpt lat="44.81968" lon="6.94543">
        <ele>1803</ele>
        <time>2021-03-19T13:50:01Z</time>
      </trkpt>
      <trkpt lat="44.81967" lon="6.94544">
        <ele>1804</ele>
        <time>2021-03-19T13:50:02Z</time>
      </trkpt>
      <trkpt lat="44.81967" lon="6.94544">
        <ele>1804</ele>
        <time>2021-03-19T13:50:03Z</time>
      </trkpt>
      <trkpt lat="44.81966" lon="6.94545">
        <ele>1804</ele>
        <time>2021-03-19T13:50:04Z</time>
      </trkpt>
      <trkpt lat="44.81966" lon="6.94545">
        <ele>1804</ele>
        <time>2021-03-19T13:50:05Z</time>
      </trkpt>
      <trkpt lat="44.81965" lon="6.94546">
        <ele>1804</ele>
        <time>2021-03-19T13:50:06Z</time>
      </trkpt>
      <trkpt lat="44.81964" lon="6.94546">
        <ele>1805</ele>
        <time>2021-03-19T13:50:07Z</time>
      </trkpt>
      <trkpt lat="44.81963" lon="6.94547">
        <ele>1805</ele>
        <time>2021-03-19T13:50:08Z</time>
      </trkpt>
      <trkpt lat="44.81963" lon="6.94548">
        <ele>1805</ele>
        <time>2021-03-19T13:50:09Z</time>
      </trkpt>
      <trkpt lat="44.81962" lon="6.94548">
        <ele>1805</ele>
        <time>2021-03-19T13:50:10Z</time>
      </trkpt>
      <trkpt lat="44.81961" lon="6.94549">
        <ele>1805</ele>
        <time>2021-03-19T13:50:11Z</time>
      </trkpt>
      <trkpt lat="44.81961" lon="6.94549">
        <ele>1805</ele>
        <time>2021-03-19T13:50:12Z</time>
      </trkpt>
      <trkpt lat="44.8196" lon="6.9455">
        <ele>1805</ele>
        <time>2021-03-19T13:50:13Z</time>
      </trkpt>
      <trkpt lat="44.81959" lon="6.9455">
        <ele>1805</ele>
        <time>2021-03-19T13:50:14Z</time>
      </trkpt>
      <trkpt lat="44.81959" lon="6.94551">
        <ele>1805</ele>
        <time>2021-03-19T13:50:15Z</time>
      </trkpt>
      <trkpt lat="44.81958" lon="6.94552">
        <ele>1805</ele>
        <time>2021-03-19T13:50:21Z</time>
      </trkpt>
      <trkpt lat="44.81957" lon="6.94553">
        <ele>1806</ele>
        <time>2021-03-19T13:50:22Z</time>
      </trkpt>
      <trkpt lat="44.81957" lon="6.94554">
        <ele>1806</ele>
        <time>2021-03-19T13:50:23Z</time>
      </trkpt>
      <trkpt lat="44.81956" lon="6.94555">
        <ele>1806</ele>
        <time>2021-03-19T13:50:24Z</time>
      </trkpt>
      <trkpt lat="44.81956" lon="6.94555">
        <ele>1806</ele>
        <time>2021-03-19T13:50:25Z</time>
      </trkpt>
      <trkpt lat="44.81955" lon="6.94556">
        <ele>1806</ele>
        <time>2021-03-19T13:50:26Z</time>
      </trkpt>
      <trkpt lat="44.81955" lon="6.94556">
        <ele>1807</ele>
        <time>2021-03-19T13:50:27Z</time>
      </trkpt>
      <trkpt lat="44.81955" lon="6.94557">
        <ele>1807</ele>
        <time>2021-03-19T13:50:28Z</time>
      </trkpt>
      <trkpt lat="44.81954" lon="6.94557">
        <ele>1807</ele>
        <time>2021-03-19T13:50:29Z</time>
      </trkpt>
      <trkpt lat="44.81954" lon="6.94557">
        <ele>1807</ele>
        <time>2021-03-19T13:50:30Z</time>
      </trkpt>
      <trkpt lat="44.81954" lon="6.94558">
        <ele>1807</ele>
        <time>2021-03-19T13:50:31Z</time>
      </trkpt>
      <trkpt lat="44.81954" lon="6.94558">
        <ele>1808</ele>
        <time>2021-03-19T13:50:32Z</time>
      </trkpt>
      <trkpt lat="44.81954" lon="6.94559">
        <ele>1808</ele>
        <time>2021-03-19T13:50:33Z</time>
      </trkpt>
      <trkpt lat="44.81954" lon="6.94559">
        <ele>1808</ele>
        <time>2021-03-19T13:50:34Z</time>
      </trkpt>
      <trkpt lat="44.81955" lon="6.9456">
        <ele>1808</ele>
        <time>2021-03-19T13:50:35Z</time>
      </trkpt>
      <trkpt lat="44.81955" lon="6.9456">
        <ele>1808</ele>
        <time>2021-03-19T13:50:36Z</time>
      </trkpt>
      <trkpt lat="44.81956" lon="6.9456">
        <ele>1809</ele>
        <time>2021-03-19T13:50:37Z</time>
      </trkpt>
      <trkpt lat="44.81956" lon="6.94561">
        <ele>1809</ele>
        <time>2021-03-19T13:50:38Z</time>
      </trkpt>
      <trkpt lat="44.81957" lon="6.94561">
        <ele>1809</ele>
        <time>2021-03-19T13:50:39Z</time>
      </trkpt>
      <trkpt lat="44.81957" lon="6.94562">
        <ele>1809</ele>
        <time>2021-03-19T13:50:40Z</time>
      </trkpt>
      <trkpt lat="44.81957" lon="6.94562">
        <ele>1809</ele>
        <time>2021-03-19T13:50:41Z</time>
      </trkpt>
      <trkpt lat="44.81957" lon="6.94563">
        <ele>1809</ele>
        <time>2021-03-19T13:50:42Z</time>
      </trkpt>
      <trkpt lat="44.81957" lon="6.94564">
        <ele>1809</ele>
        <time>2021-03-19T13:50:43Z</time>
      </trkpt>
      <trkpt lat="44.81957" lon="6.94565">
        <ele>1811</ele>
        <time>2021-03-19T13:50:56Z</time>
      </trkpt>
      <trkpt lat="44.81957" lon="6.94566">
        <ele>1812</ele>
        <time>2021-03-19T13:50:57Z</time>
      </trkpt>
      <trkpt lat="44.81957" lon="6.94566">
        <ele>1812</ele>
        <time>2021-03-19T13:50:58Z</time>
      </trkpt>
      <trkpt lat="44.81958" lon="6.94567">
        <ele>1812</ele>
        <time>2021-03-19T13:50:59Z</time>
      </trkpt>
      <trkpt lat="44.81958" lon="6.94567">
        <ele>1812</ele>
        <time>2021-03-19T13:51:00Z</time>
      </trkpt>
      <trkpt lat="44.81959" lon="6.94568">
        <ele>1813</ele>
        <time>2021-03-19T13:51:36Z</time>
      </trkpt>
      <trkpt lat="44.81959" lon="6.94568">
        <ele>1813</ele>
        <time>2021-03-19T13:51:37Z</time>
      </trkpt>
      <trkpt lat="44.81959" lon="6.94568">
        <ele>1813</ele>
        <time>2021-03-19T13:51:38Z</time>
      </trkpt>
      <trkpt lat="44.81959" lon="6.94568">
        <ele>1813</ele>
        <time>2021-03-19T13:51:39Z</time>
      </trkpt>
      <trkpt lat="44.81959" lon="6.94569">
        <ele>1813</ele>
        <time>2021-03-19T13:51:40Z</time>
      </trkpt>
      <trkpt lat="44.81958" lon="6.94569">
        <ele>1813</ele>
        <time>2021-03-19T13:51:41Z</time>
      </trkpt>
      <trkpt lat="44.81957" lon="6.9457">
        <ele>1813</ele>
        <time>2021-03-19T13:51:42Z</time>
      </trkpt>
      <trkpt lat="44.81957" lon="6.9457">
        <ele>1813</ele>
        <time>2021-03-19T13:51:43Z</time>
      </trkpt>
      <trkpt lat="44.81956" lon="6.94571">
        <ele>1813</ele>
        <time>2021-03-19T13:51:44Z</time>
      </trkpt>
      <trkpt lat="44.81955" lon="6.94571">
        <ele>1813</ele>
        <time>2021-03-19T13:51:45Z</time>
      </trkpt>
      <trkpt lat="44.81954" lon="6.94572">
        <ele>1813</ele>
        <time>2021-03-19T13:51:46Z</time>
      </trkpt>
      <trkpt lat="44.81953" lon="6.94572">
        <ele>1813</ele>
        <time>2021-03-19T13:51:47Z</time>
      </trkpt>
      <trkpt lat="44.81952" lon="6.94573">
        <ele>1813</ele>
        <time>2021-03-19T13:51:48Z</time>
      </trkpt>
      <trkpt lat="44.81952" lon="6.94573">
        <ele>1813</ele>
        <time>2021-03-19T13:51:49Z</time>
      </trkpt>
      <trkpt lat="44.81951" lon="6.94574">
        <ele>1813</ele>
        <time>2021-03-19T13:51:50Z</time>
      </trkpt>
      <trkpt lat="44.8195" lon="6.94574">
        <ele>1813</ele>
        <time>2021-03-19T13:51:51Z</time>
      </trkpt>
      <trkpt lat="44.81949" lon="6.94575">
        <ele>1813</ele>
        <time>2021-03-19T13:51:52Z</time>
      </trkpt>
      <trkpt lat="44.81948" lon="6.94576">
        <ele>1813</ele>
        <time>2021-03-19T13:51:53Z</time>
      </trkpt>
      <trkpt lat="44.81947" lon="6.94576">
        <ele>1813</ele>
        <time>2021-03-19T13:51:54Z</time>
      </trkpt>
      <trkpt lat="44.81947" lon="6.94577">
        <ele>1813</ele>
        <time>2021-03-19T13:51:55Z</time>
      </trkpt>
      <trkpt lat="44.81946" lon="6.94578">
        <ele>1813</ele>
        <time>2021-03-19T13:51:56Z</time>
      </trkpt>
      <trkpt lat="44.81945" lon="6.94578">
        <ele>1814</ele>
        <time>2021-03-19T13:51:57Z</time>
      </trkpt>
      <trkpt lat="44.81944" lon="6.94579">
        <ele>1814</ele>
        <time>2021-03-19T13:51:58Z</time>
      </trkpt>
      <trkpt lat="44.81943" lon="6.9458">
        <ele>1814</ele>
        <time>2021-03-19T13:51:59Z</time>
      </trkpt>
      <trkpt lat="44.81942" lon="6.9458">
        <ele>1814</ele>
        <time>2021-03-19T13:52:00Z</time>
      </trkpt>
      <trkpt lat="44.81941" lon="6.94581">
        <ele>1814</ele>
        <time>2021-03-19T13:52:01Z</time>
      </trkpt>
      <trkpt lat="44.81941" lon="6.94581">
        <ele>1814</ele>
        <time>2021-03-19T13:52:02Z</time>
      </trkpt>
      <trkpt lat="44.8194" lon="6.94582">
        <ele>1814</ele>
        <time>2021-03-19T13:52:03Z</time>
      </trkpt>
      <trkpt lat="44.81939" lon="6.94582">
        <ele>1814</ele>
        <time>2021-03-19T13:52:04Z</time>
      </trkpt>
      <trkpt lat="44.81938" lon="6.94583">
        <ele>1814</ele>
        <time>2021-03-19T13:52:05Z</time>
      </trkpt>
      <trkpt lat="44.81937" lon="6.94583">
        <ele>1814</ele>
        <time>2021-03-19T13:52:06Z</time>
      </trkpt>
      <trkpt lat="44.81936" lon="6.94584">
        <ele>1815</ele>
        <time>2021-03-19T13:52:07Z</time>
      </trkpt>
      <trkpt lat="44.81935" lon="6.94585">
        <ele>1815</ele>
        <time>2021-03-19T13:52:08Z</time>
      </trkpt>
      <trkpt lat="44.81934" lon="6.94585">
        <ele>1815</ele>
        <time>2021-03-19T13:52:09Z</time>
      </trkpt>
      <trkpt lat="44.81933" lon="6.94586">
        <ele>1815</ele>
        <time>2021-03-19T13:52:10Z</time>
      </trkpt>
      <trkpt lat="44.81933" lon="6.94586">
        <ele>1815</ele>
        <time>2021-03-19T13:52:11Z</time>
      </trkpt>
      <trkpt lat="44.81932" lon="6.94586">
        <ele>1815</ele>
        <time>2021-03-19T13:52:12Z</time>
      </trkpt>
      <trkpt lat="44.81932" lon="6.94586">
        <ele>1815</ele>
        <time>2021-03-19T13:52:13Z</time>
      </trkpt>
      <trkpt lat="44.81931" lon="6.94587">
        <ele>1815</ele>
        <time>2021-03-19T13:52:14Z</time>
      </trkpt>
      <trkpt lat="44.81931" lon="6.94587">
        <ele>1815</ele>
        <time>2021-03-19T13:52:15Z</time>
      </trkpt>
      <trkpt lat="44.8193" lon="6.94587">
        <ele>1815</ele>
        <time>2021-03-19T13:52:16Z</time>
      </trkpt>
      <trkpt lat="44.8193" lon="6.94588">
        <ele>1815</ele>
        <time>2021-03-19T13:52:17Z</time>
      </trkpt>
      <trkpt lat="44.81929" lon="6.94589">
        <ele>1815</ele>
        <time>2021-03-19T13:52:18Z</time>
      </trkpt>
      <trkpt lat="44.81929" lon="6.94589">
        <ele>1815</ele>
        <time>2021-03-19T13:52:19Z</time>
      </trkpt>
      <trkpt lat="44.81928" lon="6.9459">
        <ele>1815</ele>
        <time>2021-03-19T13:52:20Z</time>
      </trkpt>
      <trkpt lat="44.81927" lon="6.94591">
        <ele>1815</ele>
        <time>2021-03-19T13:52:21Z</time>
      </trkpt>
      <trkpt lat="44.81926" lon="6.94592">
        <ele>1815</ele>
        <time>2021-03-19T13:52:22Z</time>
      </trkpt>
      <trkpt lat="44.81926" lon="6.94592">
        <ele>1815</ele>
        <time>2021-03-19T13:52:23Z</time>
      </trkpt>
      <trkpt lat="44.81925" lon="6.94593">
        <ele>1815</ele>
        <time>2021-03-19T13:52:24Z</time>
      </trkpt>
      <trkpt lat="44.81924" lon="6.94593">
        <ele>1815</ele>
        <time>2021-03-19T13:52:25Z</time>
      </trkpt>
      <trkpt lat="44.81924" lon="6.94594">
        <ele>1815</ele>
        <time>2021-03-19T13:52:26Z</time>
      </trkpt>
      <trkpt lat="44.81923" lon="6.94594">
        <ele>1815</ele>
        <time>2021-03-19T13:52:27Z</time>
      </trkpt>
      <trkpt lat="44.81922" lon="6.94595">
        <ele>1815</ele>
        <time>2021-03-19T13:52:28Z</time>
      </trkpt>
      <trkpt lat="44.81922" lon="6.94595">
        <ele>1815</ele>
        <time>2021-03-19T13:52:29Z</time>
      </trkpt>
      <trkpt lat="44.81921" lon="6.94596">
        <ele>1815</ele>
        <time>2021-03-19T13:52:30Z</time>
      </trkpt>
      <trkpt lat="44.8192" lon="6.94596">
        <ele>1815</ele>
        <time>2021-03-19T13:52:31Z</time>
      </trkpt>
      <trkpt lat="44.81919" lon="6.94596">
        <ele>1815</ele>
        <time>2021-03-19T13:52:32Z</time>
      </trkpt>
      <trkpt lat="44.81918" lon="6.94597">
        <ele>1814</ele>
        <time>2021-03-19T13:52:33Z</time>
      </trkpt>
      <trkpt lat="44.81918" lon="6.94597">
        <ele>1814</ele>
        <time>2021-03-19T13:52:34Z</time>
      </trkpt>
      <trkpt lat="44.81917" lon="6.94597">
        <ele>1814</ele>
        <time>2021-03-19T13:52:35Z</time>
      </trkpt>
      <trkpt lat="44.81917" lon="6.94597">
        <ele>1814</ele>
        <time>2021-03-19T13:52:36Z</time>
      </trkpt>
      <trkpt lat="44.81916" lon="6.94598">
        <ele>1812</ele>
        <time>2021-03-19T13:52:44Z</time>
      </trkpt>
      <trkpt lat="44.81915" lon="6.94599">
        <ele>1812</ele>
        <time>2021-03-19T13:52:45Z</time>
      </trkpt>
      <trkpt lat="44.81914" lon="6.946">
        <ele>1812</ele>
        <time>2021-03-19T13:52:46Z</time>
      </trkpt>
      <trkpt lat="44.81914" lon="6.94601">
        <ele>1812</ele>
        <time>2021-03-19T13:52:47Z</time>
      </trkpt>
      <trkpt lat="44.81914" lon="6.94602">
        <ele>1812</ele>
        <time>2021-03-19T13:52:48Z</time>
      </trkpt>
      <trkpt lat="44.81914" lon="6.94602">
        <ele>1812</ele>
        <time>2021-03-19T13:52:49Z</time>
      </trkpt>
      <trkpt lat="44.81913" lon="6.94603">
        <ele>1812</ele>
        <time>2021-03-19T13:52:50Z</time>
      </trkpt>
      <trkpt lat="44.81913" lon="6.94604">
        <ele>1812</ele>
        <time>2021-03-19T13:52:51Z</time>
      </trkpt>
      <trkpt lat="44.81913" lon="6.94605">
        <ele>1812</ele>
        <time>2021-03-19T13:52:52Z</time>
      </trkpt>
      <trkpt lat="44.81913" lon="6.94606">
        <ele>1812</ele>
        <time>2021-03-19T13:52:53Z</time>
      </trkpt>
      <trkpt lat="44.81912" lon="6.94607">
        <ele>1812</ele>
        <time>2021-03-19T13:52:54Z</time>
      </trkpt>
      <trkpt lat="44.81912" lon="6.94607">
        <ele>1812</ele>
        <time>2021-03-19T13:52:55Z</time>
      </trkpt>
      <trkpt lat="44.81911" lon="6.94608">
        <ele>1812</ele>
        <time>2021-03-19T13:52:56Z</time>
      </trkpt>
      <trkpt lat="44.8191" lon="6.94608">
        <ele>1812</ele>
        <time>2021-03-19T13:52:57Z</time>
      </trkpt>
      <trkpt lat="44.81909" lon="6.94609">
        <ele>1812</ele>
        <time>2021-03-19T13:52:58Z</time>
      </trkpt>
      <trkpt lat="44.81908" lon="6.94609">
        <ele>1812</ele>
        <time>2021-03-19T13:52:59Z</time>
      </trkpt>
      <trkpt lat="44.81907" lon="6.9461">
        <ele>1812</ele>
        <time>2021-03-19T13:53:00Z</time>
      </trkpt>
      <trkpt lat="44.81906" lon="6.9461">
        <ele>1812</ele>
        <time>2021-03-19T13:53:01Z</time>
      </trkpt>
      <trkpt lat="44.81905" lon="6.94611">
        <ele>1813</ele>
        <time>2021-03-19T13:53:02Z</time>
      </trkpt>
      <trkpt lat="44.81904" lon="6.94611">
        <ele>1813</ele>
        <time>2021-03-19T13:53:03Z</time>
      </trkpt>
      <trkpt lat="44.81904" lon="6.94612">
        <ele>1813</ele>
        <time>2021-03-19T13:53:04Z</time>
      </trkpt>
      <trkpt lat="44.81903" lon="6.94613">
        <ele>1813</ele>
        <time>2021-03-19T13:53:05Z</time>
      </trkpt>
      <trkpt lat="44.81903" lon="6.94614">
        <ele>1813</ele>
        <time>2021-03-19T13:53:06Z</time>
      </trkpt>
      <trkpt lat="44.81902" lon="6.94614">
        <ele>1813</ele>
        <time>2021-03-19T13:53:07Z</time>
      </trkpt>
      <trkpt lat="44.81902" lon="6.94615">
        <ele>1813</ele>
        <time>2021-03-19T13:53:08Z</time>
      </trkpt>
      <trkpt lat="44.81902" lon="6.94616">
        <ele>1813</ele>
        <time>2021-03-19T13:53:09Z</time>
      </trkpt>
      <trkpt lat="44.81902" lon="6.94617">
        <ele>1813</ele>
        <time>2021-03-19T13:53:10Z</time>
      </trkpt>
      <trkpt lat="44.81902" lon="6.94617">
        <ele>1813</ele>
        <time>2021-03-19T13:53:11Z</time>
      </trkpt>
      <trkpt lat="44.81902" lon="6.94618">
        <ele>1814</ele>
        <time>2021-03-19T13:53:12Z</time>
      </trkpt>
      <trkpt lat="44.81902" lon="6.94619">
        <ele>1814</ele>
        <time>2021-03-19T13:53:13Z</time>
      </trkpt>
      <trkpt lat="44.81902" lon="6.9462">
        <ele>1814</ele>
        <time>2021-03-19T13:53:14Z</time>
      </trkpt>
      <trkpt lat="44.81901" lon="6.94622">
        <ele>1814</ele>
        <time>2021-03-19T13:53:15Z</time>
      </trkpt>
      <trkpt lat="44.81901" lon="6.94623">
        <ele>1814</ele>
        <time>2021-03-19T13:53:16Z</time>
      </trkpt>
      <trkpt lat="44.81901" lon="6.94624">
        <ele>1814</ele>
        <time>2021-03-19T13:53:17Z</time>
      </trkpt>
      <trkpt lat="44.819" lon="6.94625">
        <ele>1814</ele>
        <time>2021-03-19T13:53:18Z</time>
      </trkpt>
      <trkpt lat="44.819" lon="6.94626">
        <ele>1814</ele>
        <time>2021-03-19T13:53:19Z</time>
      </trkpt>
      <trkpt lat="44.81899" lon="6.94627">
        <ele>1814</ele>
        <time>2021-03-19T13:53:20Z</time>
      </trkpt>
      <trkpt lat="44.81899" lon="6.94628">
        <ele>1814</ele>
        <time>2021-03-19T13:53:21Z</time>
      </trkpt>
      <trkpt lat="44.81898" lon="6.94629">
        <ele>1815</ele>
        <time>2021-03-19T13:53:22Z</time>
      </trkpt>
      <trkpt lat="44.81898" lon="6.9463">
        <ele>1815</ele>
        <time>2021-03-19T13:53:23Z</time>
      </trkpt>
      <trkpt lat="44.81898" lon="6.9463">
        <ele>1815</ele>
        <time>2021-03-19T13:53:24Z</time>
      </trkpt>
      <trkpt lat="44.81897" lon="6.94631">
        <ele>1815</ele>
        <time>2021-03-19T13:53:25Z</time>
      </trkpt>
      <trkpt lat="44.81897" lon="6.94631">
        <ele>1815</ele>
        <time>2021-03-19T13:53:26Z</time>
      </trkpt>
      <trkpt lat="44.81896" lon="6.94631">
        <ele>1815</ele>
        <time>2021-03-19T13:53:27Z</time>
      </trkpt>
      <trkpt lat="44.81896" lon="6.94631">
        <ele>1815</ele>
        <time>2021-03-19T13:53:28Z</time>
      </trkpt>
      <trkpt lat="44.81895" lon="6.94631">
        <ele>1815</ele>
        <time>2021-03-19T13:53:29Z</time>
      </trkpt>
      <trkpt lat="44.81895" lon="6.94631">
        <ele>1815</ele>
        <time>2021-03-19T13:53:30Z</time>
      </trkpt>
      <trkpt lat="44.81894" lon="6.9463">
        <ele>1815</ele>
        <time>2021-03-19T13:53:31Z</time>
      </trkpt>
      <trkpt lat="44.81894" lon="6.9463">
        <ele>1816</ele>
        <time>2021-03-19T13:53:32Z</time>
      </trkpt>
      <trkpt lat="44.81894" lon="6.94629">
        <ele>1816</ele>
        <time>2021-03-19T13:53:33Z</time>
      </trkpt>
      <trkpt lat="44.81893" lon="6.94629">
        <ele>1816</ele>
        <time>2021-03-19T13:53:34Z</time>
      </trkpt>
      <trkpt lat="44.81893" lon="6.94628">
        <ele>1816</ele>
        <time>2021-03-19T13:53:35Z</time>
      </trkpt>
      <trkpt lat="44.81893" lon="6.94628">
        <ele>1816</ele>
        <time>2021-03-19T13:53:36Z</time>
      </trkpt>
      <trkpt lat="44.81892" lon="6.94627">
        <ele>1816</ele>
        <time>2021-03-19T13:53:37Z</time>
      </trkpt>
      <trkpt lat="44.81892" lon="6.94627">
        <ele>1816</ele>
        <time>2021-03-19T13:53:38Z</time>
      </trkpt>
      <trkpt lat="44.81891" lon="6.94626">
        <ele>1816</ele>
        <time>2021-03-19T13:53:39Z</time>
      </trkpt>
      <trkpt lat="44.81891" lon="6.94626">
        <ele>1816</ele>
        <time>2021-03-19T13:53:40Z</time>
      </trkpt>
      <trkpt lat="44.8189" lon="6.94626">
        <ele>1816</ele>
        <time>2021-03-19T13:53:41Z</time>
      </trkpt>
      <trkpt lat="44.8189" lon="6.94625">
        <ele>1816</ele>
        <time>2021-03-19T13:53:42Z</time>
      </trkpt>
      <trkpt lat="44.81889" lon="6.94625">
        <ele>1816</ele>
        <time>2021-03-19T13:53:43Z</time>
      </trkpt>
      <trkpt lat="44.81888" lon="6.94625">
        <ele>1816</ele>
        <time>2021-03-19T13:53:44Z</time>
      </trkpt>
      <trkpt lat="44.81887" lon="6.94625">
        <ele>1816</ele>
        <time>2021-03-19T13:53:45Z</time>
      </trkpt>
      <trkpt lat="44.81887" lon="6.94625">
        <ele>1816</ele>
        <time>2021-03-19T13:53:46Z</time>
      </trkpt>
      <trkpt lat="44.81886" lon="6.94625">
        <ele>1816</ele>
        <time>2021-03-19T13:53:47Z</time>
      </trkpt>
      <trkpt lat="44.81885" lon="6.94625">
        <ele>1816</ele>
        <time>2021-03-19T13:53:48Z</time>
      </trkpt>
      <trkpt lat="44.81883" lon="6.94625">
        <ele>1816</ele>
        <time>2021-03-19T13:53:49Z</time>
      </trkpt>
      <trkpt lat="44.81882" lon="6.94625">
        <ele>1816</ele>
        <time>2021-03-19T13:53:50Z</time>
      </trkpt>
      <trkpt lat="44.81881" lon="6.94626">
        <ele>1816</ele>
        <time>2021-03-19T13:53:51Z</time>
      </trkpt>
      <trkpt lat="44.81881" lon="6.94626">
        <ele>1816</ele>
        <time>2021-03-19T13:53:52Z</time>
      </trkpt>
      <trkpt lat="44.8188" lon="6.94627">
        <ele>1816</ele>
        <time>2021-03-19T13:53:53Z</time>
      </trkpt>
      <trkpt lat="44.81879" lon="6.94628">
        <ele>1816</ele>
        <time>2021-03-19T13:53:54Z</time>
      </trkpt>
      <trkpt lat="44.81879" lon="6.94629">
        <ele>1816</ele>
        <time>2021-03-19T13:53:55Z</time>
      </trkpt>
      <trkpt lat="44.81878" lon="6.94629">
        <ele>1816</ele>
        <time>2021-03-19T13:53:56Z</time>
      </trkpt>
      <trkpt lat="44.81878" lon="6.9463">
        <ele>1816</ele>
        <time>2021-03-19T13:53:57Z</time>
      </trkpt>
      <trkpt lat="44.81877" lon="6.94631">
        <ele>1815</ele>
        <time>2021-03-19T13:53:58Z</time>
      </trkpt>
      <trkpt lat="44.81876" lon="6.94631">
        <ele>1815</ele>
        <time>2021-03-19T13:53:59Z</time>
      </trkpt>
      <trkpt lat="44.81876" lon="6.94632">
        <ele>1815</ele>
        <time>2021-03-19T13:54:00Z</time>
      </trkpt>
      <trkpt lat="44.81875" lon="6.94632">
        <ele>1815</ele>
        <time>2021-03-19T13:54:01Z</time>
      </trkpt>
      <trkpt lat="44.81875" lon="6.94633">
        <ele>1815</ele>
        <time>2021-03-19T13:54:02Z</time>
      </trkpt>
      <trkpt lat="44.81874" lon="6.94633">
        <ele>1815</ele>
        <time>2021-03-19T13:54:03Z</time>
      </trkpt>
      <trkpt lat="44.81873" lon="6.94634">
        <ele>1815</ele>
        <time>2021-03-19T13:54:04Z</time>
      </trkpt>
      <trkpt lat="44.81872" lon="6.94634">
        <ele>1815</ele>
        <time>2021-03-19T13:54:05Z</time>
      </trkpt>
      <trkpt lat="44.81872" lon="6.94635">
        <ele>1815</ele>
        <time>2021-03-19T13:54:06Z</time>
      </trkpt>
      <trkpt lat="44.81871" lon="6.94635">
        <ele>1815</ele>
        <time>2021-03-19T13:54:07Z</time>
      </trkpt>
      <trkpt lat="44.8187" lon="6.94636">
        <ele>1815</ele>
        <time>2021-03-19T13:54:08Z</time>
      </trkpt>
      <trkpt lat="44.81869" lon="6.94637">
        <ele>1815</ele>
        <time>2021-03-19T13:54:09Z</time>
      </trkpt>
      <trkpt lat="44.81869" lon="6.94638">
        <ele>1815</ele>
        <time>2021-03-19T13:54:10Z</time>
      </trkpt>
      <trkpt lat="44.81868" lon="6.94638">
        <ele>1815</ele>
        <time>2021-03-19T13:54:11Z</time>
      </trkpt>
      <trkpt lat="44.81868" lon="6.94638">
        <ele>1816</ele>
        <time>2021-03-19T13:54:12Z</time>
      </trkpt>
      <trkpt lat="44.81867" lon="6.94639">
        <ele>1816</ele>
        <time>2021-03-19T13:54:13Z</time>
      </trkpt>
      <trkpt lat="44.81866" lon="6.9464">
        <ele>1816</ele>
        <time>2021-03-19T13:54:14Z</time>
      </trkpt>
      <trkpt lat="44.81865" lon="6.94641">
        <ele>1816</ele>
        <time>2021-03-19T13:54:15Z</time>
      </trkpt>
      <trkpt lat="44.81864" lon="6.94641">
        <ele>1816</ele>
        <time>2021-03-19T13:54:16Z</time>
      </trkpt>
      <trkpt lat="44.81864" lon="6.94642">
        <ele>1817</ele>
        <time>2021-03-19T13:54:17Z</time>
      </trkpt>
      <trkpt lat="44.81863" lon="6.94643">
        <ele>1817</ele>
        <time>2021-03-19T13:54:18Z</time>
      </trkpt>
      <trkpt lat="44.81863" lon="6.94643">
        <ele>1817</ele>
        <time>2021-03-19T13:54:19Z</time>
      </trkpt>
      <trkpt lat="44.81862" lon="6.94644">
        <ele>1817</ele>
        <time>2021-03-19T13:54:20Z</time>
      </trkpt>
      <trkpt lat="44.81861" lon="6.94644">
        <ele>1817</ele>
        <time>2021-03-19T13:54:21Z</time>
      </trkpt>
      <trkpt lat="44.81861" lon="6.94645">
        <ele>1818</ele>
        <time>2021-03-19T13:54:22Z</time>
      </trkpt>
      <trkpt lat="44.8186" lon="6.94645">
        <ele>1818</ele>
        <time>2021-03-19T13:54:23Z</time>
      </trkpt>
      <trkpt lat="44.81859" lon="6.94645">
        <ele>1818</ele>
        <time>2021-03-19T13:54:24Z</time>
      </trkpt>
      <trkpt lat="44.81859" lon="6.94646">
        <ele>1818</ele>
        <time>2021-03-19T13:54:25Z</time>
      </trkpt>
      <trkpt lat="44.81858" lon="6.94646">
        <ele>1818</ele>
        <time>2021-03-19T13:54:26Z</time>
      </trkpt>
      <trkpt lat="44.81858" lon="6.94647">
        <ele>1819</ele>
        <time>2021-03-19T13:54:27Z</time>
      </trkpt>
      <trkpt lat="44.81857" lon="6.94647">
        <ele>1819</ele>
        <time>2021-03-19T13:54:28Z</time>
      </trkpt>
      <trkpt lat="44.81856" lon="6.94648">
        <ele>1819</ele>
        <time>2021-03-19T13:54:29Z</time>
      </trkpt>
      <trkpt lat="44.81856" lon="6.94648">
        <ele>1819</ele>
        <time>2021-03-19T13:54:30Z</time>
      </trkpt>
      <trkpt lat="44.81855" lon="6.94649">
        <ele>1819</ele>
        <time>2021-03-19T13:54:31Z</time>
      </trkpt>
      <trkpt lat="44.81854" lon="6.9465">
        <ele>1819</ele>
        <time>2021-03-19T13:54:32Z</time>
      </trkpt>
      <trkpt lat="44.81853" lon="6.9465">
        <ele>1819</ele>
        <time>2021-03-19T13:54:33Z</time>
      </trkpt>
      <trkpt lat="44.81852" lon="6.94651">
        <ele>1819</ele>
        <time>2021-03-19T13:54:34Z</time>
      </trkpt>
      <trkpt lat="44.81852" lon="6.94652">
        <ele>1819</ele>
        <time>2021-03-19T13:54:35Z</time>
      </trkpt>
      <trkpt lat="44.81851" lon="6.94652">
        <ele>1819</ele>
        <time>2021-03-19T13:54:36Z</time>
      </trkpt>
      <trkpt lat="44.8185" lon="6.94653">
        <ele>1819</ele>
        <time>2021-03-19T13:54:37Z</time>
      </trkpt>
      <trkpt lat="44.81849" lon="6.94654">
        <ele>1819</ele>
        <time>2021-03-19T13:54:38Z</time>
      </trkpt>
      <trkpt lat="44.81849" lon="6.94654">
        <ele>1819</ele>
        <time>2021-03-19T13:54:39Z</time>
      </trkpt>
      <trkpt lat="44.81848" lon="6.94655">
        <ele>1819</ele>
        <time>2021-03-19T13:54:40Z</time>
      </trkpt>
      <trkpt lat="44.81847" lon="6.94656">
        <ele>1819</ele>
        <time>2021-03-19T13:54:41Z</time>
      </trkpt>
      <trkpt lat="44.81847" lon="6.94657">
        <ele>1820</ele>
        <time>2021-03-19T13:54:42Z</time>
      </trkpt>
      <trkpt lat="44.81846" lon="6.94658">
        <ele>1820</ele>
        <time>2021-03-19T13:54:43Z</time>
      </trkpt>
      <trkpt lat="44.81846" lon="6.94658">
        <ele>1820</ele>
        <time>2021-03-19T13:54:44Z</time>
      </trkpt>
      <trkpt lat="44.81845" lon="6.94659">
        <ele>1820</ele>
        <time>2021-03-19T13:54:45Z</time>
      </trkpt>
      <trkpt lat="44.81845" lon="6.9466">
        <ele>1820</ele>
        <time>2021-03-19T13:54:46Z</time>
      </trkpt>
      <trkpt lat="44.81845" lon="6.94661">
        <ele>1820</ele>
        <time>2021-03-19T13:54:47Z</time>
      </trkpt>
      <trkpt lat="44.81844" lon="6.94662">
        <ele>1820</ele>
        <time>2021-03-19T13:54:48Z</time>
      </trkpt>
      <trkpt lat="44.81844" lon="6.94663">
        <ele>1820</ele>
        <time>2021-03-19T13:54:49Z</time>
      </trkpt>
      <trkpt lat="44.81844" lon="6.94664">
        <ele>1820</ele>
        <time>2021-03-19T13:54:50Z</time>
      </trkpt>
      <trkpt lat="44.81843" lon="6.94664">
        <ele>1820</ele>
        <time>2021-03-19T13:54:51Z</time>
      </trkpt>
      <trkpt lat="44.81843" lon="6.94665">
        <ele>1820</ele>
        <time>2021-03-19T13:54:52Z</time>
      </trkpt>
      <trkpt lat="44.81842" lon="6.94666">
        <ele>1820</ele>
        <time>2021-03-19T13:54:53Z</time>
      </trkpt>
      <trkpt lat="44.81842" lon="6.94667">
        <ele>1820</ele>
        <time>2021-03-19T13:54:54Z</time>
      </trkpt>
      <trkpt lat="44.81841" lon="6.94668">
        <ele>1820</ele>
        <time>2021-03-19T13:54:55Z</time>
      </trkpt>
      <trkpt lat="44.81841" lon="6.94669">
        <ele>1820</ele>
        <time>2021-03-19T13:54:56Z</time>
      </trkpt>
      <trkpt lat="44.8184" lon="6.94669">
        <ele>1821</ele>
        <time>2021-03-19T13:54:57Z</time>
      </trkpt>
      <trkpt lat="44.8184" lon="6.9467">
        <ele>1821</ele>
        <time>2021-03-19T13:54:58Z</time>
      </trkpt>
      <trkpt lat="44.81839" lon="6.94671">
        <ele>1821</ele>
        <time>2021-03-19T13:54:59Z</time>
      </trkpt>
      <trkpt lat="44.81839" lon="6.94672">
        <ele>1821</ele>
        <time>2021-03-19T13:55:00Z</time>
      </trkpt>
      <trkpt lat="44.81839" lon="6.94673">
        <ele>1821</ele>
        <time>2021-03-19T13:55:01Z</time>
      </trkpt>
      <trkpt lat="44.81839" lon="6.94674">
        <ele>1821</ele>
        <time>2021-03-19T13:55:02Z</time>
      </trkpt>
      <trkpt lat="44.81838" lon="6.94675">
        <ele>1821</ele>
        <time>2021-03-19T13:55:03Z</time>
      </trkpt>
      <trkpt lat="44.81838" lon="6.94676">
        <ele>1821</ele>
        <time>2021-03-19T13:55:04Z</time>
      </trkpt>
      <trkpt lat="44.81838" lon="6.94677">
        <ele>1821</ele>
        <time>2021-03-19T13:55:05Z</time>
      </trkpt>
      <trkpt lat="44.81837" lon="6.94678">
        <ele>1821</ele>
        <time>2021-03-19T13:55:06Z</time>
      </trkpt>
      <trkpt lat="44.81837" lon="6.94679">
        <ele>1821</ele>
        <time>2021-03-19T13:55:07Z</time>
      </trkpt>
      <trkpt lat="44.81836" lon="6.9468">
        <ele>1821</ele>
        <time>2021-03-19T13:55:08Z</time>
      </trkpt>
      <trkpt lat="44.81835" lon="6.94681">
        <ele>1821</ele>
        <time>2021-03-19T13:55:09Z</time>
      </trkpt>
      <trkpt lat="44.81835" lon="6.94682">
        <ele>1821</ele>
        <time>2021-03-19T13:55:10Z</time>
      </trkpt>
      <trkpt lat="44.81834" lon="6.94683">
        <ele>1821</ele>
        <time>2021-03-19T13:55:11Z</time>
      </trkpt>
      <trkpt lat="44.81834" lon="6.94684">
        <ele>1821</ele>
        <time>2021-03-19T13:55:12Z</time>
      </trkpt>
      <trkpt lat="44.81833" lon="6.94685">
        <ele>1821</ele>
        <time>2021-03-19T13:55:13Z</time>
      </trkpt>
      <trkpt lat="44.81833" lon="6.94686">
        <ele>1821</ele>
        <time>2021-03-19T13:55:14Z</time>
      </trkpt>
      <trkpt lat="44.81832" lon="6.94687">
        <ele>1821</ele>
        <time>2021-03-19T13:55:15Z</time>
      </trkpt>
      <trkpt lat="44.81832" lon="6.94688">
        <ele>1821</ele>
        <time>2021-03-19T13:55:16Z</time>
      </trkpt>
      <trkpt lat="44.81831" lon="6.94689">
        <ele>1821</ele>
        <time>2021-03-19T13:55:17Z</time>
      </trkpt>
      <trkpt lat="44.81831" lon="6.9469">
        <ele>1821</ele>
        <time>2021-03-19T13:55:18Z</time>
      </trkpt>
      <trkpt lat="44.8183" lon="6.9469">
        <ele>1821</ele>
        <time>2021-03-19T13:55:19Z</time>
      </trkpt>
      <trkpt lat="44.8183" lon="6.94691">
        <ele>1821</ele>
        <time>2021-03-19T13:55:20Z</time>
      </trkpt>
      <trkpt lat="44.81829" lon="6.94692">
        <ele>1821</ele>
        <time>2021-03-19T13:55:21Z</time>
      </trkpt>
      <trkpt lat="44.81828" lon="6.94694">
        <ele>1821</ele>
        <time>2021-03-19T13:55:22Z</time>
      </trkpt>
      <trkpt lat="44.81828" lon="6.94694">
        <ele>1821</ele>
        <time>2021-03-19T13:55:23Z</time>
      </trkpt>
      <trkpt lat="44.81827" lon="6.94695">
        <ele>1821</ele>
        <time>2021-03-19T13:55:24Z</time>
      </trkpt>
      <trkpt lat="44.81826" lon="6.94696">
        <ele>1821</ele>
        <time>2021-03-19T13:55:25Z</time>
      </trkpt>
      <trkpt lat="44.81826" lon="6.94697">
        <ele>1821</ele>
        <time>2021-03-19T13:55:26Z</time>
      </trkpt>
      <trkpt lat="44.81825" lon="6.94698">
        <ele>1821</ele>
        <time>2021-03-19T13:55:27Z</time>
      </trkpt>
      <trkpt lat="44.81825" lon="6.94699">
        <ele>1821</ele>
        <time>2021-03-19T13:55:28Z</time>
      </trkpt>
      <trkpt lat="44.81824" lon="6.947">
        <ele>1821</ele>
        <time>2021-03-19T13:55:29Z</time>
      </trkpt>
      <trkpt lat="44.81823" lon="6.94701">
        <ele>1821</ele>
        <time>2021-03-19T13:55:30Z</time>
      </trkpt>
      <trkpt lat="44.81823" lon="6.94701">
        <ele>1821</ele>
        <time>2021-03-19T13:55:31Z</time>
      </trkpt>
      <trkpt lat="44.81822" lon="6.94702">
        <ele>1821</ele>
        <time>2021-03-19T13:55:32Z</time>
      </trkpt>
      <trkpt lat="44.8182" lon="6.94703">
        <ele>1821</ele>
        <time>2021-03-19T13:55:33Z</time>
      </trkpt>
      <trkpt lat="44.81819" lon="6.94703">
        <ele>1821</ele>
        <time>2021-03-19T13:55:34Z</time>
      </trkpt>
      <trkpt lat="44.81818" lon="6.94704">
        <ele>1821</ele>
        <time>2021-03-19T13:55:35Z</time>
      </trkpt>
      <trkpt lat="44.81817" lon="6.94704">
        <ele>1821</ele>
        <time>2021-03-19T13:55:36Z</time>
      </trkpt>
      <trkpt lat="44.81815" lon="6.94704">
        <ele>1821</ele>
        <time>2021-03-19T13:55:37Z</time>
      </trkpt>
      <trkpt lat="44.81814" lon="6.94705">
        <ele>1821</ele>
        <time>2021-03-19T13:55:38Z</time>
      </trkpt>
      <trkpt lat="44.81813" lon="6.94705">
        <ele>1821</ele>
        <time>2021-03-19T13:55:39Z</time>
      </trkpt>
      <trkpt lat="44.81812" lon="6.94706">
        <ele>1821</ele>
        <time>2021-03-19T13:55:40Z</time>
      </trkpt>
      <trkpt lat="44.81811" lon="6.94706">
        <ele>1821</ele>
        <time>2021-03-19T13:55:41Z</time>
      </trkpt>
      <trkpt lat="44.81811" lon="6.94707">
        <ele>1821</ele>
        <time>2021-03-19T13:55:42Z</time>
      </trkpt>
      <trkpt lat="44.8181" lon="6.94707">
        <ele>1821</ele>
        <time>2021-03-19T13:55:43Z</time>
      </trkpt>
      <trkpt lat="44.81809" lon="6.94708">
        <ele>1821</ele>
        <time>2021-03-19T13:55:44Z</time>
      </trkpt>
      <trkpt lat="44.81808" lon="6.94708">
        <ele>1821</ele>
        <time>2021-03-19T13:55:45Z</time>
      </trkpt>
      <trkpt lat="44.81807" lon="6.94708">
        <ele>1821</ele>
        <time>2021-03-19T13:55:46Z</time>
      </trkpt>
      <trkpt lat="44.81807" lon="6.94708">
        <ele>1820</ele>
        <time>2021-03-19T13:56:21Z</time>
      </trkpt>
      <trkpt lat="44.81808" lon="6.94709">
        <ele>1820</ele>
        <time>2021-03-19T13:56:22Z</time>
      </trkpt>
      <trkpt lat="44.81808" lon="6.94709">
        <ele>1820</ele>
        <time>2021-03-19T13:56:23Z</time>
      </trkpt>
      <trkpt lat="44.81808" lon="6.9471">
        <ele>1820</ele>
        <time>2021-03-19T13:56:24Z</time>
      </trkpt>
      <trkpt lat="44.81808" lon="6.9471">
        <ele>1820</ele>
        <time>2021-03-19T13:56:25Z</time>
      </trkpt>
      <trkpt lat="44.81808" lon="6.9471">
        <ele>1820</ele>
        <time>2021-03-19T13:56:26Z</time>
      </trkpt>
      <trkpt lat="44.81807" lon="6.94711">
        <ele>1820</ele>
        <time>2021-03-19T13:56:27Z</time>
      </trkpt>
      <trkpt lat="44.81806" lon="6.94712">
        <ele>1820</ele>
        <time>2021-03-19T13:56:28Z</time>
      </trkpt>
      <trkpt lat="44.81806" lon="6.94712">
        <ele>1820</ele>
        <time>2021-03-19T13:56:29Z</time>
      </trkpt>
      <trkpt lat="44.81805" lon="6.94713">
        <ele>1820</ele>
        <time>2021-03-19T13:56:30Z</time>
      </trkpt>
      <trkpt lat="44.81804" lon="6.94714">
        <ele>1820</ele>
        <time>2021-03-19T13:56:31Z</time>
      </trkpt>
      <trkpt lat="44.81803" lon="6.94714">
        <ele>1821</ele>
        <time>2021-03-19T13:56:32Z</time>
      </trkpt>
      <trkpt lat="44.81802" lon="6.94715">
        <ele>1821</ele>
        <time>2021-03-19T13:56:33Z</time>
      </trkpt>
      <trkpt lat="44.81801" lon="6.94716">
        <ele>1821</ele>
        <time>2021-03-19T13:56:34Z</time>
      </trkpt>
      <trkpt lat="44.818" lon="6.94717">
        <ele>1821</ele>
        <time>2021-03-19T13:56:35Z</time>
      </trkpt>
      <trkpt lat="44.818" lon="6.94718">
        <ele>1821</ele>
        <time>2021-03-19T13:56:36Z</time>
      </trkpt>
      <trkpt lat="44.81799" lon="6.94718">
        <ele>1821</ele>
        <time>2021-03-19T13:56:37Z</time>
      </trkpt>
      <trkpt lat="44.81799" lon="6.94719">
        <ele>1821</ele>
        <time>2021-03-19T13:56:38Z</time>
      </trkpt>
      <trkpt lat="44.81798" lon="6.9472">
        <ele>1821</ele>
        <time>2021-03-19T13:56:39Z</time>
      </trkpt>
      <trkpt lat="44.81798" lon="6.94722">
        <ele>1821</ele>
        <time>2021-03-19T13:56:40Z</time>
      </trkpt>
      <trkpt lat="44.81797" lon="6.94723">
        <ele>1821</ele>
        <time>2021-03-19T13:56:41Z</time>
      </trkpt>
      <trkpt lat="44.81797" lon="6.94724">
        <ele>1821</ele>
        <time>2021-03-19T13:56:42Z</time>
      </trkpt>
      <trkpt lat="44.81796" lon="6.94725">
        <ele>1821</ele>
        <time>2021-03-19T13:56:43Z</time>
      </trkpt>
      <trkpt lat="44.81796" lon="6.94726">
        <ele>1821</ele>
        <time>2021-03-19T13:56:44Z</time>
      </trkpt>
      <trkpt lat="44.81795" lon="6.94727">
        <ele>1821</ele>
        <time>2021-03-19T13:56:45Z</time>
      </trkpt>
      <trkpt lat="44.81795" lon="6.94728">
        <ele>1821</ele>
        <time>2021-03-19T13:56:46Z</time>
      </trkpt>
      <trkpt lat="44.81794" lon="6.94729">
        <ele>1821</ele>
        <time>2021-03-19T13:56:47Z</time>
      </trkpt>
      <trkpt lat="44.81794" lon="6.9473">
        <ele>1821</ele>
        <time>2021-03-19T13:56:48Z</time>
      </trkpt>
      <trkpt lat="44.81793" lon="6.94731">
        <ele>1821</ele>
        <time>2021-03-19T13:56:49Z</time>
      </trkpt>
      <trkpt lat="44.81793" lon="6.94732">
        <ele>1821</ele>
        <time>2021-03-19T13:56:50Z</time>
      </trkpt>
      <trkpt lat="44.81792" lon="6.94733">
        <ele>1821</ele>
        <time>2021-03-19T13:56:51Z</time>
      </trkpt>
      <trkpt lat="44.81791" lon="6.94734">
        <ele>1821</ele>
        <time>2021-03-19T13:56:52Z</time>
      </trkpt>
      <trkpt lat="44.81791" lon="6.94735">
        <ele>1821</ele>
        <time>2021-03-19T13:56:53Z</time>
      </trkpt>
      <trkpt lat="44.8179" lon="6.94735">
        <ele>1821</ele>
        <time>2021-03-19T13:56:54Z</time>
      </trkpt>
      <trkpt lat="44.8179" lon="6.94736">
        <ele>1821</ele>
        <time>2021-03-19T13:56:55Z</time>
      </trkpt>
      <trkpt lat="44.81789" lon="6.94737">
        <ele>1821</ele>
        <time>2021-03-19T13:56:56Z</time>
      </trkpt>
      <trkpt lat="44.81788" lon="6.94738">
        <ele>1822</ele>
        <time>2021-03-19T13:57:02Z</time>
      </trkpt>
      <trkpt lat="44.81788" lon="6.94739">
        <ele>1822</ele>
        <time>2021-03-19T13:57:03Z</time>
      </trkpt>
      <trkpt lat="44.81787" lon="6.94739">
        <ele>1822</ele>
        <time>2021-03-19T13:57:04Z</time>
      </trkpt>
      <trkpt lat="44.81787" lon="6.94741">
        <ele>1822</ele>
        <time>2021-03-19T13:57:05Z</time>
      </trkpt>
      <trkpt lat="44.81786" lon="6.94742">
        <ele>1822</ele>
        <time>2021-03-19T13:57:06Z</time>
      </trkpt>
      <trkpt lat="44.81786" lon="6.94743">
        <ele>1823</ele>
        <time>2021-03-19T13:57:07Z</time>
      </trkpt>
      <trkpt lat="44.81786" lon="6.94744">
        <ele>1823</ele>
        <time>2021-03-19T13:57:08Z</time>
      </trkpt>
      <trkpt lat="44.81786" lon="6.94746">
        <ele>1823</ele>
        <time>2021-03-19T13:57:09Z</time>
      </trkpt>
      <trkpt lat="44.81786" lon="6.94747">
        <ele>1823</ele>
        <time>2021-03-19T13:57:10Z</time>
      </trkpt>
      <trkpt lat="44.81786" lon="6.94748">
        <ele>1823</ele>
        <time>2021-03-19T13:57:11Z</time>
      </trkpt>
      <trkpt lat="44.81785" lon="6.94749">
        <ele>1823</ele>
        <time>2021-03-19T13:57:12Z</time>
      </trkpt>
      <trkpt lat="44.81785" lon="6.94751">
        <ele>1823</ele>
        <time>2021-03-19T13:57:13Z</time>
      </trkpt>
      <trkpt lat="44.81785" lon="6.94752">
        <ele>1823</ele>
        <time>2021-03-19T13:57:14Z</time>
      </trkpt>
      <trkpt lat="44.81785" lon="6.94753">
        <ele>1823</ele>
        <time>2021-03-19T13:57:15Z</time>
      </trkpt>
      <trkpt lat="44.81784" lon="6.94754">
        <ele>1823</ele>
        <time>2021-03-19T13:57:16Z</time>
      </trkpt>
      <trkpt lat="44.81784" lon="6.94755">
        <ele>1823</ele>
        <time>2021-03-19T13:57:17Z</time>
      </trkpt>
      <trkpt lat="44.81784" lon="6.94756">
        <ele>1823</ele>
        <time>2021-03-19T13:57:18Z</time>
      </trkpt>
      <trkpt lat="44.81784" lon="6.94758">
        <ele>1823</ele>
        <time>2021-03-19T13:57:19Z</time>
      </trkpt>
      <trkpt lat="44.81784" lon="6.94759">
        <ele>1823</ele>
        <time>2021-03-19T13:57:20Z</time>
      </trkpt>
      <trkpt lat="44.81784" lon="6.9476">
        <ele>1823</ele>
        <time>2021-03-19T13:57:21Z</time>
      </trkpt>
      <trkpt lat="44.81784" lon="6.94761">
        <ele>1824</ele>
        <time>2021-03-19T13:57:22Z</time>
      </trkpt>
      <trkpt lat="44.81784" lon="6.94763">
        <ele>1824</ele>
        <time>2021-03-19T13:57:23Z</time>
      </trkpt>
      <trkpt lat="44.81783" lon="6.94764">
        <ele>1824</ele>
        <time>2021-03-19T13:57:24Z</time>
      </trkpt>
      <trkpt lat="44.81783" lon="6.94765">
        <ele>1824</ele>
        <time>2021-03-19T13:57:25Z</time>
      </trkpt>
      <trkpt lat="44.81783" lon="6.94766">
        <ele>1824</ele>
        <time>2021-03-19T13:57:26Z</time>
      </trkpt>
      <trkpt lat="44.81783" lon="6.94767">
        <ele>1825</ele>
        <time>2021-03-19T13:57:27Z</time>
      </trkpt>
      <trkpt lat="44.81783" lon="6.94768">
        <ele>1825</ele>
        <time>2021-03-19T13:57:28Z</time>
      </trkpt>
      <trkpt lat="44.81783" lon="6.94769">
        <ele>1825</ele>
        <time>2021-03-19T13:57:29Z</time>
      </trkpt>
      <trkpt lat="44.81782" lon="6.94771">
        <ele>1825</ele>
        <time>2021-03-19T13:57:30Z</time>
      </trkpt>
      <trkpt lat="44.81782" lon="6.94772">
        <ele>1825</ele>
        <time>2021-03-19T13:57:31Z</time>
      </trkpt>
      <trkpt lat="44.81782" lon="6.94773">
        <ele>1825</ele>
        <time>2021-03-19T13:57:32Z</time>
      </trkpt>
      <trkpt lat="44.81781" lon="6.94774">
        <ele>1825</ele>
        <time>2021-03-19T13:57:33Z</time>
      </trkpt>
      <trkpt lat="44.81781" lon="6.94775">
        <ele>1825</ele>
        <time>2021-03-19T13:57:34Z</time>
      </trkpt>
      <trkpt lat="44.81781" lon="6.94776">
        <ele>1825</ele>
        <time>2021-03-19T13:57:35Z</time>
      </trkpt>
      <trkpt lat="44.8178" lon="6.94776">
        <ele>1825</ele>
        <time>2021-03-19T13:57:36Z</time>
      </trkpt>
      <trkpt lat="44.8178" lon="6.94777">
        <ele>1825</ele>
        <time>2021-03-19T13:57:37Z</time>
      </trkpt>
      <trkpt lat="44.81779" lon="6.94778">
        <ele>1825</ele>
        <time>2021-03-19T13:57:38Z</time>
      </trkpt>
      <trkpt lat="44.81778" lon="6.94779">
        <ele>1825</ele>
        <time>2021-03-19T13:57:39Z</time>
      </trkpt>
      <trkpt lat="44.81778" lon="6.9478">
        <ele>1825</ele>
        <time>2021-03-19T13:57:40Z</time>
      </trkpt>
      <trkpt lat="44.81777" lon="6.94781">
        <ele>1825</ele>
        <time>2021-03-19T13:57:41Z</time>
      </trkpt>
      <trkpt lat="44.81776" lon="6.94783">
        <ele>1825</ele>
        <time>2021-03-19T13:57:42Z</time>
      </trkpt>
      <trkpt lat="44.81776" lon="6.94784">
        <ele>1825</ele>
        <time>2021-03-19T13:57:43Z</time>
      </trkpt>
      <trkpt lat="44.81776" lon="6.94785">
        <ele>1825</ele>
        <time>2021-03-19T13:57:44Z</time>
      </trkpt>
      <trkpt lat="44.81776" lon="6.94787">
        <ele>1825</ele>
        <time>2021-03-19T13:57:45Z</time>
      </trkpt>
      <trkpt lat="44.81776" lon="6.94788">
        <ele>1825</ele>
        <time>2021-03-19T13:57:46Z</time>
      </trkpt>
      <trkpt lat="44.81776" lon="6.94789">
        <ele>1825</ele>
        <time>2021-03-19T13:57:47Z</time>
      </trkpt>
      <trkpt lat="44.81776" lon="6.94789">
        <ele>1825</ele>
        <time>2021-03-19T13:57:48Z</time>
      </trkpt>
      <trkpt lat="44.81776" lon="6.9479">
        <ele>1825</ele>
        <time>2021-03-19T13:57:49Z</time>
      </trkpt>
      <trkpt lat="44.81776" lon="6.9479">
        <ele>1825</ele>
        <time>2021-03-19T13:57:50Z</time>
      </trkpt>
      <trkpt lat="44.81776" lon="6.9479">
        <ele>1825</ele>
        <time>2021-03-19T13:57:51Z</time>
      </trkpt>
      <trkpt lat="44.81776" lon="6.94791">
        <ele>1826</ele>
        <time>2021-03-19T13:57:52Z</time>
      </trkpt>
      <trkpt lat="44.81776" lon="6.94791">
        <ele>1826</ele>
        <time>2021-03-19T13:57:53Z</time>
      </trkpt>
      <trkpt lat="44.81776" lon="6.94792">
        <ele>1826</ele>
        <time>2021-03-19T13:57:54Z</time>
      </trkpt>
      <trkpt lat="44.81776" lon="6.94794">
        <ele>1826</ele>
        <time>2021-03-19T13:57:55Z</time>
      </trkpt>
      <trkpt lat="44.81776" lon="6.94795">
        <ele>1826</ele>
        <time>2021-03-19T13:57:56Z</time>
      </trkpt>
      <trkpt lat="44.81775" lon="6.94796">
        <ele>1826</ele>
        <time>2021-03-19T13:57:57Z</time>
      </trkpt>
      <trkpt lat="44.81775" lon="6.94797">
        <ele>1826</ele>
        <time>2021-03-19T13:57:58Z</time>
      </trkpt>
      <trkpt lat="44.81774" lon="6.94799">
        <ele>1826</ele>
        <time>2021-03-19T13:57:59Z</time>
      </trkpt>
      <trkpt lat="44.81774" lon="6.948">
        <ele>1826</ele>
        <time>2021-03-19T13:58:00Z</time>
      </trkpt>
      <trkpt lat="44.81773" lon="6.94801">
        <ele>1826</ele>
        <time>2021-03-19T13:58:01Z</time>
      </trkpt>
      <trkpt lat="44.81773" lon="6.94802">
        <ele>1827</ele>
        <time>2021-03-19T13:58:02Z</time>
      </trkpt>
      <trkpt lat="44.81773" lon="6.94803">
        <ele>1827</ele>
        <time>2021-03-19T13:58:03Z</time>
      </trkpt>
      <trkpt lat="44.81772" lon="6.94804">
        <ele>1827</ele>
        <time>2021-03-19T13:58:04Z</time>
      </trkpt>
      <trkpt lat="44.81772" lon="6.94805">
        <ele>1827</ele>
        <time>2021-03-19T13:58:05Z</time>
      </trkpt>
      <trkpt lat="44.81771" lon="6.94806">
        <ele>1827</ele>
        <time>2021-03-19T13:58:06Z</time>
      </trkpt>
      <trkpt lat="44.81771" lon="6.94807">
        <ele>1828</ele>
        <time>2021-03-19T13:58:07Z</time>
      </trkpt>
      <trkpt lat="44.8177" lon="6.94808">
        <ele>1828</ele>
        <time>2021-03-19T13:58:08Z</time>
      </trkpt>
      <trkpt lat="44.8177" lon="6.94809">
        <ele>1828</ele>
        <time>2021-03-19T13:58:09Z</time>
      </trkpt>
      <trkpt lat="44.81769" lon="6.94809">
        <ele>1828</ele>
        <time>2021-03-19T13:58:10Z</time>
      </trkpt>
      <trkpt lat="44.81769" lon="6.9481">
        <ele>1828</ele>
        <time>2021-03-19T13:58:11Z</time>
      </trkpt>
      <trkpt lat="44.81769" lon="6.94811">
        <ele>1829</ele>
        <time>2021-03-19T13:58:12Z</time>
      </trkpt>
      <trkpt lat="44.81768" lon="6.94812">
        <ele>1829</ele>
        <time>2021-03-19T13:58:13Z</time>
      </trkpt>
      <trkpt lat="44.81768" lon="6.94813">
        <ele>1829</ele>
        <time>2021-03-19T13:58:14Z</time>
      </trkpt>
      <trkpt lat="44.81767" lon="6.94814">
        <ele>1829</ele>
        <time>2021-03-19T13:58:15Z</time>
      </trkpt>
      <trkpt lat="44.81767" lon="6.94815">
        <ele>1829</ele>
        <time>2021-03-19T13:58:16Z</time>
      </trkpt>
      <trkpt lat="44.81767" lon="6.94816">
        <ele>1829</ele>
        <time>2021-03-19T13:58:17Z</time>
      </trkpt>
      <trkpt lat="44.81767" lon="6.94817">
        <ele>1829</ele>
        <time>2021-03-19T13:58:18Z</time>
      </trkpt>
      <trkpt lat="44.81767" lon="6.94818">
        <ele>1829</ele>
        <time>2021-03-19T13:58:19Z</time>
      </trkpt>
      <trkpt lat="44.81766" lon="6.94818">
        <ele>1829</ele>
        <time>2021-03-19T13:58:20Z</time>
      </trkpt>
      <trkpt lat="44.81766" lon="6.94819">
        <ele>1829</ele>
        <time>2021-03-19T13:58:21Z</time>
      </trkpt>
      <trkpt lat="44.81765" lon="6.9482">
        <ele>1830</ele>
        <time>2021-03-19T13:58:22Z</time>
      </trkpt>
      <trkpt lat="44.81765" lon="6.94821">
        <ele>1830</ele>
        <time>2021-03-19T13:58:23Z</time>
      </trkpt>
      <trkpt lat="44.81764" lon="6.94822">
        <ele>1830</ele>
        <time>2021-03-19T13:58:24Z</time>
      </trkpt>
      <trkpt lat="44.81764" lon="6.94823">
        <ele>1830</ele>
        <time>2021-03-19T13:58:25Z</time>
      </trkpt>
      <trkpt lat="44.81763" lon="6.94824">
        <ele>1830</ele>
        <time>2021-03-19T13:58:26Z</time>
      </trkpt>
      <trkpt lat="44.81763" lon="6.94825">
        <ele>1831</ele>
        <time>2021-03-19T13:58:27Z</time>
      </trkpt>
      <trkpt lat="44.81762" lon="6.94826">
        <ele>1831</ele>
        <time>2021-03-19T13:58:28Z</time>
      </trkpt>
      <trkpt lat="44.81762" lon="6.94827">
        <ele>1831</ele>
        <time>2021-03-19T13:58:29Z</time>
      </trkpt>
      <trkpt lat="44.81761" lon="6.94827">
        <ele>1831</ele>
        <time>2021-03-19T13:58:30Z</time>
      </trkpt>
      <trkpt lat="44.81761" lon="6.94828">
        <ele>1831</ele>
        <time>2021-03-19T13:58:31Z</time>
      </trkpt>
      <trkpt lat="44.8176" lon="6.94829">
        <ele>1831</ele>
        <time>2021-03-19T13:58:32Z</time>
      </trkpt>
      <trkpt lat="44.8176" lon="6.9483">
        <ele>1831</ele>
        <time>2021-03-19T13:58:33Z</time>
      </trkpt>
      <trkpt lat="44.8176" lon="6.94831">
        <ele>1831</ele>
        <time>2021-03-19T13:58:34Z</time>
      </trkpt>
      <trkpt lat="44.81759" lon="6.94832">
        <ele>1831</ele>
        <time>2021-03-19T13:58:35Z</time>
      </trkpt>
      <trkpt lat="44.81759" lon="6.94833">
        <ele>1831</ele>
        <time>2021-03-19T13:58:36Z</time>
      </trkpt>
      <trkpt lat="44.81758" lon="6.94834">
        <ele>1831</ele>
        <time>2021-03-19T13:58:37Z</time>
      </trkpt>
      <trkpt lat="44.81758" lon="6.94835">
        <ele>1831</ele>
        <time>2021-03-19T13:58:38Z</time>
      </trkpt>
      <trkpt lat="44.81757" lon="6.94836">
        <ele>1831</ele>
        <time>2021-03-19T13:58:39Z</time>
      </trkpt>
      <trkpt lat="44.81757" lon="6.94837">
        <ele>1831</ele>
        <time>2021-03-19T13:58:40Z</time>
      </trkpt>
      <trkpt lat="44.81757" lon="6.94838">
        <ele>1831</ele>
        <time>2021-03-19T13:58:41Z</time>
      </trkpt>
      <trkpt lat="44.81757" lon="6.94839">
        <ele>1832</ele>
        <time>2021-03-19T13:58:42Z</time>
      </trkpt>
      <trkpt lat="44.81757" lon="6.9484">
        <ele>1832</ele>
        <time>2021-03-19T13:58:43Z</time>
      </trkpt>
      <trkpt lat="44.81756" lon="6.94841">
        <ele>1832</ele>
        <time>2021-03-19T13:58:44Z</time>
      </trkpt>
      <trkpt lat="44.81756" lon="6.94842">
        <ele>1832</ele>
        <time>2021-03-19T13:58:45Z</time>
      </trkpt>
      <trkpt lat="44.81755" lon="6.94844">
        <ele>1832</ele>
        <time>2021-03-19T13:58:46Z</time>
      </trkpt>
      <trkpt lat="44.81755" lon="6.94845">
        <ele>1832</ele>
        <time>2021-03-19T13:58:47Z</time>
      </trkpt>
      <trkpt lat="44.81755" lon="6.94846">
        <ele>1832</ele>
        <time>2021-03-19T13:58:48Z</time>
      </trkpt>
      <trkpt lat="44.81754" lon="6.94847">
        <ele>1832</ele>
        <time>2021-03-19T13:58:49Z</time>
      </trkpt>
      <trkpt lat="44.81754" lon="6.94848">
        <ele>1832</ele>
        <time>2021-03-19T13:58:50Z</time>
      </trkpt>
      <trkpt lat="44.81754" lon="6.9485">
        <ele>1832</ele>
        <time>2021-03-19T13:58:51Z</time>
      </trkpt>
      <trkpt lat="44.81754" lon="6.9485">
        <ele>1833</ele>
        <time>2021-03-19T13:58:52Z</time>
      </trkpt>
      <trkpt lat="44.81753" lon="6.94851">
        <ele>1833</ele>
        <time>2021-03-19T13:58:53Z</time>
      </trkpt>
      <trkpt lat="44.81753" lon="6.94852">
        <ele>1833</ele>
        <time>2021-03-19T13:58:54Z</time>
      </trkpt>
      <trkpt lat="44.81752" lon="6.94853">
        <ele>1833</ele>
        <time>2021-03-19T13:58:55Z</time>
      </trkpt>
      <trkpt lat="44.81752" lon="6.94854">
        <ele>1833</ele>
        <time>2021-03-19T13:58:56Z</time>
      </trkpt>
      <trkpt lat="44.81752" lon="6.94854">
        <ele>1834</ele>
        <time>2021-03-19T13:58:57Z</time>
      </trkpt>
      <trkpt lat="44.81751" lon="6.94855">
        <ele>1834</ele>
        <time>2021-03-19T13:58:58Z</time>
      </trkpt>
      <trkpt lat="44.81751" lon="6.94856">
        <ele>1834</ele>
        <time>2021-03-19T13:58:59Z</time>
      </trkpt>
      <trkpt lat="44.8175" lon="6.94857">
        <ele>1834</ele>
        <time>2021-03-19T13:59:00Z</time>
      </trkpt>
      <trkpt lat="44.8175" lon="6.94858">
        <ele>1834</ele>
        <time>2021-03-19T13:59:01Z</time>
      </trkpt>
      <trkpt lat="44.8175" lon="6.94859">
        <ele>1834</ele>
        <time>2021-03-19T13:59:02Z</time>
      </trkpt>
      <trkpt lat="44.81749" lon="6.9486">
        <ele>1834</ele>
        <time>2021-03-19T13:59:03Z</time>
      </trkpt>
      <trkpt lat="44.81749" lon="6.94861">
        <ele>1834</ele>
        <time>2021-03-19T13:59:04Z</time>
      </trkpt>
      <trkpt lat="44.81749" lon="6.94862">
        <ele>1834</ele>
        <time>2021-03-19T13:59:05Z</time>
      </trkpt>
      <trkpt lat="44.81748" lon="6.94863">
        <ele>1834</ele>
        <time>2021-03-19T13:59:06Z</time>
      </trkpt>
      <trkpt lat="44.81748" lon="6.94864">
        <ele>1834</ele>
        <time>2021-03-19T13:59:07Z</time>
      </trkpt>
      <trkpt lat="44.81748" lon="6.94864">
        <ele>1834</ele>
        <time>2021-03-19T13:59:08Z</time>
      </trkpt>
      <trkpt lat="44.81748" lon="6.94865">
        <ele>1834</ele>
        <time>2021-03-19T13:59:09Z</time>
      </trkpt>
      <trkpt lat="44.81748" lon="6.94865">
        <ele>1834</ele>
        <time>2021-03-19T13:59:10Z</time>
      </trkpt>
      <trkpt lat="44.81747" lon="6.94866">
        <ele>1834</ele>
        <time>2021-03-19T13:59:11Z</time>
      </trkpt>
      <trkpt lat="44.81748" lon="6.94866">
        <ele>1835</ele>
        <time>2021-03-19T13:59:12Z</time>
      </trkpt>
      <trkpt lat="44.81748" lon="6.94867">
        <ele>1835</ele>
        <time>2021-03-19T13:59:13Z</time>
      </trkpt>
      <trkpt lat="44.81748" lon="6.94867">
        <ele>1835</ele>
        <time>2021-03-19T13:59:14Z</time>
      </trkpt>
      <trkpt lat="44.81749" lon="6.94868">
        <ele>1835</ele>
        <time>2021-03-19T13:59:15Z</time>
      </trkpt>
      <trkpt lat="44.81749" lon="6.94869">
        <ele>1835</ele>
        <time>2021-03-19T13:59:16Z</time>
      </trkpt>
      <trkpt lat="44.8175" lon="6.9487">
        <ele>1836</ele>
        <time>2021-03-19T13:59:17Z</time>
      </trkpt>
      <trkpt lat="44.8175" lon="6.9487">
        <ele>1836</ele>
        <time>2021-03-19T13:59:18Z</time>
      </trkpt>
      <trkpt lat="44.81751" lon="6.94871">
        <ele>1836</ele>
        <time>2021-03-19T13:59:19Z</time>
      </trkpt>
      <trkpt lat="44.81751" lon="6.94872">
        <ele>1836</ele>
        <time>2021-03-19T13:59:20Z</time>
      </trkpt>
      <trkpt lat="44.81751" lon="6.94873">
        <ele>1836</ele>
        <time>2021-03-19T13:59:21Z</time>
      </trkpt>
      <trkpt lat="44.81751" lon="6.94874">
        <ele>1836</ele>
        <time>2021-03-19T13:59:22Z</time>
      </trkpt>
      <trkpt lat="44.81751" lon="6.94875">
        <ele>1836</ele>
        <time>2021-03-19T13:59:23Z</time>
      </trkpt>
      <trkpt lat="44.81751" lon="6.94876">
        <ele>1836</ele>
        <time>2021-03-19T13:59:24Z</time>
      </trkpt>
      <trkpt lat="44.81751" lon="6.94877">
        <ele>1836</ele>
        <time>2021-03-19T13:59:25Z</time>
      </trkpt>
      <trkpt lat="44.81751" lon="6.94878">
        <ele>1836</ele>
        <time>2021-03-19T13:59:26Z</time>
      </trkpt>
      <trkpt lat="44.8175" lon="6.94879">
        <ele>1837</ele>
        <time>2021-03-19T13:59:27Z</time>
      </trkpt>
      <trkpt lat="44.8175" lon="6.9488">
        <ele>1837</ele>
        <time>2021-03-19T13:59:28Z</time>
      </trkpt>
      <trkpt lat="44.8175" lon="6.9488">
        <ele>1837</ele>
        <time>2021-03-19T13:59:29Z</time>
      </trkpt>
      <trkpt lat="44.81749" lon="6.94881">
        <ele>1837</ele>
        <time>2021-03-19T13:59:30Z</time>
      </trkpt>
      <trkpt lat="44.8175" lon="6.94882">
        <ele>1837</ele>
        <time>2021-03-19T13:59:31Z</time>
      </trkpt>
      <trkpt lat="44.8175" lon="6.94883">
        <ele>1838</ele>
        <time>2021-03-19T13:59:32Z</time>
      </trkpt>
      <trkpt lat="44.81751" lon="6.94883">
        <ele>1838</ele>
        <time>2021-03-19T13:59:33Z</time>
      </trkpt>
      <trkpt lat="44.81752" lon="6.94883">
        <ele>1838</ele>
        <time>2021-03-19T13:59:34Z</time>
      </trkpt>
      <trkpt lat="44.81752" lon="6.94883">
        <ele>1838</ele>
        <time>2021-03-19T13:59:35Z</time>
      </trkpt>
      <trkpt lat="44.81753" lon="6.94883">
        <ele>1838</ele>
        <time>2021-03-19T13:59:36Z</time>
      </trkpt>
      <trkpt lat="44.81753" lon="6.94883">
        <ele>1838</ele>
        <time>2021-03-19T13:59:37Z</time>
      </trkpt>
      <trkpt lat="44.81754" lon="6.94882">
        <ele>1838</ele>
        <time>2021-03-19T13:59:38Z</time>
      </trkpt>
      <trkpt lat="44.81755" lon="6.94881">
        <ele>1838</ele>
        <time>2021-03-19T13:59:39Z</time>
      </trkpt>
      <trkpt lat="44.81755" lon="6.94881">
        <ele>1838</ele>
        <time>2021-03-19T13:59:40Z</time>
      </trkpt>
      <trkpt lat="44.81756" lon="6.9488">
        <ele>1838</ele>
        <time>2021-03-19T13:59:41Z</time>
      </trkpt>
      <trkpt lat="44.81756" lon="6.94879">
        <ele>1839</ele>
        <time>2021-03-19T13:59:42Z</time>
      </trkpt>
      <trkpt lat="44.81756" lon="6.94879">
        <ele>1839</ele>
        <time>2021-03-19T13:59:43Z</time>
      </trkpt>
      <trkpt lat="44.81756" lon="6.94879">
        <ele>1839</ele>
        <time>2021-03-19T13:59:44Z</time>
      </trkpt>
      <trkpt lat="44.81757" lon="6.94879">
        <ele>1839</ele>
        <time>2021-03-19T13:59:45Z</time>
      </trkpt>
      <trkpt lat="44.81757" lon="6.94879">
        <ele>1839</ele>
        <time>2021-03-19T13:59:46Z</time>
      </trkpt>
      <trkpt lat="44.81757" lon="6.94879">
        <ele>1840</ele>
        <time>2021-03-19T13:59:47Z</time>
      </trkpt>
      <trkpt lat="44.81757" lon="6.94879">
        <ele>1840</ele>
        <time>2021-03-19T13:59:48Z</time>
      </trkpt>
      <trkpt lat="44.81757" lon="6.9488">
        <ele>1840</ele>
        <time>2021-03-19T13:59:49Z</time>
      </trkpt>
      <trkpt lat="44.81757" lon="6.94881">
        <ele>1840</ele>
        <time>2021-03-19T13:59:50Z</time>
      </trkpt>
      <trkpt lat="44.81757" lon="6.94882">
        <ele>1840</ele>
        <time>2021-03-19T13:59:51Z</time>
      </trkpt>
      <trkpt lat="44.81756" lon="6.94882">
        <ele>1841</ele>
        <time>2021-03-19T13:59:52Z</time>
      </trkpt>
      <trkpt lat="44.81756" lon="6.94883">
        <ele>1841</ele>
        <time>2021-03-19T13:59:53Z</time>
      </trkpt>
      <trkpt lat="44.81756" lon="6.94884">
        <ele>1841</ele>
        <time>2021-03-19T13:59:54Z</time>
      </trkpt>
      <trkpt lat="44.81755" lon="6.94884">
        <ele>1841</ele>
        <time>2021-03-19T13:59:55Z</time>
      </trkpt>
      <trkpt lat="44.81755" lon="6.94884">
        <ele>1841</ele>
        <time>2021-03-19T13:59:56Z</time>
      </trkpt>
      <trkpt lat="44.81755" lon="6.94885">
        <ele>1842</ele>
        <time>2021-03-19T13:59:57Z</time>
      </trkpt>
      <trkpt lat="44.81754" lon="6.94885">
        <ele>1842</ele>
        <time>2021-03-19T13:59:58Z</time>
      </trkpt>
      <trkpt lat="44.81754" lon="6.94885">
        <ele>1842</ele>
        <time>2021-03-19T13:59:59Z</time>
      </trkpt>
      <trkpt lat="44.81754" lon="6.94885">
        <ele>1842</ele>
        <time>2021-03-19T14:00:00Z</time>
      </trkpt>
      <trkpt lat="44.81754" lon="6.94886">
        <ele>1842</ele>
        <time>2021-03-19T14:00:01Z</time>
      </trkpt>
      <trkpt lat="44.81754" lon="6.94886">
        <ele>1842</ele>
        <time>2021-03-19T14:00:02Z</time>
      </trkpt>
      <trkpt lat="44.81754" lon="6.94886">
        <ele>1842</ele>
        <time>2021-03-19T14:00:03Z</time>
      </trkpt>
      <trkpt lat="44.81754" lon="6.94886">
        <ele>1842</ele>
        <time>2021-03-19T14:00:04Z</time>
      </trkpt>
      <trkpt lat="44.81755" lon="6.94887">
        <ele>1842</ele>
        <time>2021-03-19T14:00:05Z</time>
      </trkpt>
      <trkpt lat="44.81756" lon="6.94887">
        <ele>1842</ele>
        <time>2021-03-19T14:00:06Z</time>
      </trkpt>
      <trkpt lat="44.81756" lon="6.94888">
        <ele>1843</ele>
        <time>2021-03-19T14:00:07Z</time>
      </trkpt>
      <trkpt lat="44.81756" lon="6.94888">
        <ele>1843</ele>
        <time>2021-03-19T14:00:08Z</time>
      </trkpt>
      <trkpt lat="44.81756" lon="6.94889">
        <ele>1843</ele>
        <time>2021-03-19T14:00:09Z</time>
      </trkpt>
      <trkpt lat="44.81757" lon="6.94889">
        <ele>1843</ele>
        <time>2021-03-19T14:00:10Z</time>
      </trkpt>
      <trkpt lat="44.81757" lon="6.94892">
        <ele>1845</ele>
        <time>2021-03-19T14:00:26Z</time>
      </trkpt>
      <trkpt lat="44.81757" lon="6.94893">
        <ele>1846</ele>
        <time>2021-03-19T14:00:27Z</time>
      </trkpt>
      <trkpt lat="44.81757" lon="6.94894">
        <ele>1846</ele>
        <time>2021-03-19T14:00:28Z</time>
      </trkpt>
      <trkpt lat="44.81758" lon="6.94895">
        <ele>1846</ele>
        <time>2021-03-19T14:00:29Z</time>
      </trkpt>
      <trkpt lat="44.81758" lon="6.94895">
        <ele>1846</ele>
        <time>2021-03-19T14:00:30Z</time>
      </trkpt>
      <trkpt lat="44.81758" lon="6.94895">
        <ele>1846</ele>
        <time>2021-03-19T14:00:31Z</time>
      </trkpt>
      <trkpt lat="44.81759" lon="6.94895">
        <ele>1847</ele>
        <time>2021-03-19T14:00:32Z</time>
      </trkpt>
      <trkpt lat="44.81759" lon="6.94895">
        <ele>1847</ele>
        <time>2021-03-19T14:00:33Z</time>
      </trkpt>
      <trkpt lat="44.81759" lon="6.94895">
        <ele>1847</ele>
        <time>2021-03-19T14:00:34Z</time>
      </trkpt>
      <trkpt lat="44.81759" lon="6.94895">
        <ele>1847</ele>
        <time>2021-03-19T14:00:35Z</time>
      </trkpt>
      <trkpt lat="44.81759" lon="6.94895">
        <ele>1847</ele>
        <time>2021-03-19T14:00:36Z</time>
      </trkpt>
      <trkpt lat="44.8176" lon="6.94896">
        <ele>1848</ele>
        <time>2021-03-19T14:00:37Z</time>
      </trkpt>
      <trkpt lat="44.8176" lon="6.94896">
        <ele>1848</ele>
        <time>2021-03-19T14:00:38Z</time>
      </trkpt>
      <trkpt lat="44.81759" lon="6.94898">
        <ele>1849</ele>
        <time>2021-03-19T14:00:50Z</time>
      </trkpt>
      <trkpt lat="44.81759" lon="6.94899">
        <ele>1849</ele>
        <time>2021-03-19T14:00:51Z</time>
      </trkpt>
      <trkpt lat="44.81759" lon="6.949">
        <ele>1850</ele>
        <time>2021-03-19T14:00:52Z</time>
      </trkpt>
      <trkpt lat="44.81759" lon="6.94901">
        <ele>1850</ele>
        <time>2021-03-19T14:00:53Z</time>
      </trkpt>
      <trkpt lat="44.81759" lon="6.94902">
        <ele>1850</ele>
        <time>2021-03-19T14:00:54Z</time>
      </trkpt>
      <trkpt lat="44.81759" lon="6.94903">
        <ele>1850</ele>
        <time>2021-03-19T14:00:55Z</time>
      </trkpt>
      <trkpt lat="44.81758" lon="6.94906">
        <ele>1851</ele>
        <time>2021-03-19T14:01:02Z</time>
      </trkpt>
      <trkpt lat="44.81758" lon="6.94907">
        <ele>1851</ele>
        <time>2021-03-19T14:01:03Z</time>
      </trkpt>
      <trkpt lat="44.81758" lon="6.94908">
        <ele>1851</ele>
        <time>2021-03-19T14:01:04Z</time>
      </trkpt>
      <trkpt lat="44.81758" lon="6.9491">
        <ele>1851</ele>
        <time>2021-03-19T14:01:05Z</time>
      </trkpt>
      <trkpt lat="44.81758" lon="6.94911">
        <ele>1851</ele>
        <time>2021-03-19T14:01:06Z</time>
      </trkpt>
      <trkpt lat="44.81757" lon="6.94912">
        <ele>1851</ele>
        <time>2021-03-19T14:01:07Z</time>
      </trkpt>
      <trkpt lat="44.81757" lon="6.94913">
        <ele>1851</ele>
        <time>2021-03-19T14:01:08Z</time>
      </trkpt>
      <trkpt lat="44.81756" lon="6.94914">
        <ele>1851</ele>
        <time>2021-03-19T14:01:09Z</time>
      </trkpt>
      <trkpt lat="44.81756" lon="6.94915">
        <ele>1851</ele>
        <time>2021-03-19T14:01:10Z</time>
      </trkpt>
      <trkpt lat="44.81755" lon="6.94916">
        <ele>1851</ele>
        <time>2021-03-19T14:01:11Z</time>
      </trkpt>
      <trkpt lat="44.81755" lon="6.94916">
        <ele>1851</ele>
        <time>2021-03-19T14:01:12Z</time>
      </trkpt>
      <trkpt lat="44.81754" lon="6.94917">
        <ele>1851</ele>
        <time>2021-03-19T14:01:13Z</time>
      </trkpt>
      <trkpt lat="44.81754" lon="6.94918">
        <ele>1851</ele>
        <time>2021-03-19T14:01:14Z</time>
      </trkpt>
      <trkpt lat="44.81753" lon="6.94919">
        <ele>1852</ele>
        <time>2021-03-19T14:01:15Z</time>
      </trkpt>
      <trkpt lat="44.81753" lon="6.94921">
        <ele>1852</ele>
        <time>2021-03-19T14:01:16Z</time>
      </trkpt>
      <trkpt lat="44.81752" lon="6.94922">
        <ele>1853</ele>
        <time>2021-03-19T14:01:17Z</time>
      </trkpt>
      <trkpt lat="44.81752" lon="6.94923">
        <ele>1853</ele>
        <time>2021-03-19T14:01:18Z</time>
      </trkpt>
      <trkpt lat="44.81752" lon="6.94924">
        <ele>1853</ele>
        <time>2021-03-19T14:01:19Z</time>
      </trkpt>
      <trkpt lat="44.81752" lon="6.94925">
        <ele>1853</ele>
        <time>2021-03-19T14:01:20Z</time>
      </trkpt>
      <trkpt lat="44.81752" lon="6.94926">
        <ele>1853</ele>
        <time>2021-03-19T14:01:21Z</time>
      </trkpt>
      <trkpt lat="44.81751" lon="6.94928">
        <ele>1853</ele>
        <time>2021-03-19T14:01:22Z</time>
      </trkpt>
      <trkpt lat="44.81751" lon="6.94929">
        <ele>1853</ele>
        <time>2021-03-19T14:01:23Z</time>
      </trkpt>
      <trkpt lat="44.81751" lon="6.9493">
        <ele>1853</ele>
        <time>2021-03-19T14:01:24Z</time>
      </trkpt>
      <trkpt lat="44.81751" lon="6.94931">
        <ele>1853</ele>
        <time>2021-03-19T14:01:25Z</time>
      </trkpt>
      <trkpt lat="44.81752" lon="6.94932">
        <ele>1853</ele>
        <time>2021-03-19T14:01:26Z</time>
      </trkpt>
      <trkpt lat="44.81752" lon="6.94933">
        <ele>1853</ele>
        <time>2021-03-19T14:01:27Z</time>
      </trkpt>
      <trkpt lat="44.81752" lon="6.94935">
        <ele>1853</ele>
        <time>2021-03-19T14:01:28Z</time>
      </trkpt>
      <trkpt lat="44.81751" lon="6.94936">
        <ele>1853</ele>
        <time>2021-03-19T14:01:29Z</time>
      </trkpt>
      <trkpt lat="44.81751" lon="6.94937">
        <ele>1853</ele>
        <time>2021-03-19T14:01:30Z</time>
      </trkpt>
      <trkpt lat="44.8175" lon="6.94938">
        <ele>1853</ele>
        <time>2021-03-19T14:01:31Z</time>
      </trkpt>
      <trkpt lat="44.81749" lon="6.94939">
        <ele>1853</ele>
        <time>2021-03-19T14:01:32Z</time>
      </trkpt>
      <trkpt lat="44.81749" lon="6.9494">
        <ele>1853</ele>
        <time>2021-03-19T14:01:33Z</time>
      </trkpt>
      <trkpt lat="44.81748" lon="6.94941">
        <ele>1853</ele>
        <time>2021-03-19T14:01:34Z</time>
      </trkpt>
      <trkpt lat="44.81747" lon="6.94943">
        <ele>1853</ele>
        <time>2021-03-19T14:01:35Z</time>
      </trkpt>
      <trkpt lat="44.81747" lon="6.94944">
        <ele>1853</ele>
        <time>2021-03-19T14:01:36Z</time>
      </trkpt>
      <trkpt lat="44.81746" lon="6.94945">
        <ele>1853</ele>
        <time>2021-03-19T14:01:37Z</time>
      </trkpt>
      <trkpt lat="44.81746" lon="6.94946">
        <ele>1853</ele>
        <time>2021-03-19T14:01:38Z</time>
      </trkpt>
      <trkpt lat="44.81746" lon="6.94947">
        <ele>1853</ele>
        <time>2021-03-19T14:01:39Z</time>
      </trkpt>
      <trkpt lat="44.81746" lon="6.94948">
        <ele>1853</ele>
        <time>2021-03-19T14:01:40Z</time>
      </trkpt>
      <trkpt lat="44.81745" lon="6.9495">
        <ele>1853</ele>
        <time>2021-03-19T14:01:41Z</time>
      </trkpt>
      <trkpt lat="44.81745" lon="6.94951">
        <ele>1854</ele>
        <time>2021-03-19T14:01:42Z</time>
      </trkpt>
      <trkpt lat="44.81745" lon="6.94952">
        <ele>1854</ele>
        <time>2021-03-19T14:01:43Z</time>
      </trkpt>
      <trkpt lat="44.81745" lon="6.94954">
        <ele>1854</ele>
        <time>2021-03-19T14:01:44Z</time>
      </trkpt>
      <trkpt lat="44.81745" lon="6.94955">
        <ele>1854</ele>
        <time>2021-03-19T14:01:45Z</time>
      </trkpt>
      <trkpt lat="44.81745" lon="6.94956">
        <ele>1854</ele>
        <time>2021-03-19T14:01:46Z</time>
      </trkpt>
      <trkpt lat="44.81745" lon="6.94957">
        <ele>1854</ele>
        <time>2021-03-19T14:01:47Z</time>
      </trkpt>
      <trkpt lat="44.81745" lon="6.94959">
        <ele>1854</ele>
        <time>2021-03-19T14:01:48Z</time>
      </trkpt>
      <trkpt lat="44.81744" lon="6.94959">
        <ele>1854</ele>
        <time>2021-03-19T14:01:49Z</time>
      </trkpt>
      <trkpt lat="44.81744" lon="6.9496">
        <ele>1854</ele>
        <time>2021-03-19T14:01:50Z</time>
      </trkpt>
      <trkpt lat="44.81744" lon="6.94962">
        <ele>1854</ele>
        <time>2021-03-19T14:01:51Z</time>
      </trkpt>
      <trkpt lat="44.81743" lon="6.94963">
        <ele>1855</ele>
        <time>2021-03-19T14:01:52Z</time>
      </trkpt>
      <trkpt lat="44.81743" lon="6.94964">
        <ele>1855</ele>
        <time>2021-03-19T14:01:53Z</time>
      </trkpt>
      <trkpt lat="44.81743" lon="6.94965">
        <ele>1855</ele>
        <time>2021-03-19T14:01:54Z</time>
      </trkpt>
      <trkpt lat="44.81742" lon="6.94967">
        <ele>1855</ele>
        <time>2021-03-19T14:01:55Z</time>
      </trkpt>
      <trkpt lat="44.81742" lon="6.94968">
        <ele>1855</ele>
        <time>2021-03-19T14:01:56Z</time>
      </trkpt>
      <trkpt lat="44.81742" lon="6.94969">
        <ele>1855</ele>
        <time>2021-03-19T14:01:57Z</time>
      </trkpt>
      <trkpt lat="44.81742" lon="6.9497">
        <ele>1855</ele>
        <time>2021-03-19T14:01:58Z</time>
      </trkpt>
      <trkpt lat="44.81742" lon="6.94971">
        <ele>1855</ele>
        <time>2021-03-19T14:01:59Z</time>
      </trkpt>
      <trkpt lat="44.81741" lon="6.94972">
        <ele>1855</ele>
        <time>2021-03-19T14:02:00Z</time>
      </trkpt>
      <trkpt lat="44.81741" lon="6.94973">
        <ele>1855</ele>
        <time>2021-03-19T14:02:01Z</time>
      </trkpt>
      <trkpt lat="44.81741" lon="6.94974">
        <ele>1856</ele>
        <time>2021-03-19T14:02:02Z</time>
      </trkpt>
      <trkpt lat="44.8174" lon="6.94975">
        <ele>1856</ele>
        <time>2021-03-19T14:02:03Z</time>
      </trkpt>
      <trkpt lat="44.8174" lon="6.94976">
        <ele>1856</ele>
        <time>2021-03-19T14:02:04Z</time>
      </trkpt>
      <trkpt lat="44.8174" lon="6.94977">
        <ele>1856</ele>
        <time>2021-03-19T14:02:05Z</time>
      </trkpt>
      <trkpt lat="44.8174" lon="6.94979">
        <ele>1856</ele>
        <time>2021-03-19T14:02:06Z</time>
      </trkpt>
      <trkpt lat="44.81739" lon="6.9498">
        <ele>1856</ele>
        <time>2021-03-19T14:02:07Z</time>
      </trkpt>
      <trkpt lat="44.81739" lon="6.94981">
        <ele>1856</ele>
        <time>2021-03-19T14:02:08Z</time>
      </trkpt>
      <trkpt lat="44.81739" lon="6.94982">
        <ele>1856</ele>
        <time>2021-03-19T14:02:09Z</time>
      </trkpt>
      <trkpt lat="44.81739" lon="6.94984">
        <ele>1856</ele>
        <time>2021-03-19T14:02:10Z</time>
      </trkpt>
      <trkpt lat="44.81739" lon="6.94984">
        <ele>1856</ele>
        <time>2021-03-19T14:02:11Z</time>
      </trkpt>
      <trkpt lat="44.81739" lon="6.94985">
        <ele>1857</ele>
        <time>2021-03-19T14:02:12Z</time>
      </trkpt>
      <trkpt lat="44.81738" lon="6.94986">
        <ele>1857</ele>
        <time>2021-03-19T14:02:13Z</time>
      </trkpt>
      <trkpt lat="44.81738" lon="6.94987">
        <ele>1857</ele>
        <time>2021-03-19T14:02:14Z</time>
      </trkpt>
      <trkpt lat="44.81738" lon="6.94988">
        <ele>1857</ele>
        <time>2021-03-19T14:02:15Z</time>
      </trkpt>
      <trkpt lat="44.81738" lon="6.94988">
        <ele>1857</ele>
        <time>2021-03-19T14:02:16Z</time>
      </trkpt>
      <trkpt lat="44.81738" lon="6.94989">
        <ele>1858</ele>
        <time>2021-03-19T14:02:17Z</time>
      </trkpt>
      <trkpt lat="44.81737" lon="6.9499">
        <ele>1858</ele>
        <time>2021-03-19T14:02:18Z</time>
      </trkpt>
      <trkpt lat="44.81737" lon="6.94991">
        <ele>1858</ele>
        <time>2021-03-19T14:02:19Z</time>
      </trkpt>
      <trkpt lat="44.81737" lon="6.94991">
        <ele>1858</ele>
        <time>2021-03-19T14:02:20Z</time>
      </trkpt>
      <trkpt lat="44.81737" lon="6.94992">
        <ele>1858</ele>
        <time>2021-03-19T14:02:21Z</time>
      </trkpt>
      <trkpt lat="44.81736" lon="6.94992">
        <ele>1858</ele>
        <time>2021-03-19T14:02:22Z</time>
      </trkpt>
      <trkpt lat="44.81736" lon="6.94993">
        <ele>1858</ele>
        <time>2021-03-19T14:02:23Z</time>
      </trkpt>
      <trkpt lat="44.81736" lon="6.94994">
        <ele>1858</ele>
        <time>2021-03-19T14:02:24Z</time>
      </trkpt>
      <trkpt lat="44.81735" lon="6.94995">
        <ele>1858</ele>
        <time>2021-03-19T14:02:25Z</time>
      </trkpt>
      <trkpt lat="44.81735" lon="6.94996">
        <ele>1858</ele>
        <time>2021-03-19T14:02:26Z</time>
      </trkpt>
      <trkpt lat="44.81735" lon="6.94997">
        <ele>1859</ele>
        <time>2021-03-19T14:02:27Z</time>
      </trkpt>
      <trkpt lat="44.81735" lon="6.94998">
        <ele>1859</ele>
        <time>2021-03-19T14:02:28Z</time>
      </trkpt>
      <trkpt lat="44.81735" lon="6.94999">
        <ele>1859</ele>
        <time>2021-03-19T14:02:29Z</time>
      </trkpt>
      <trkpt lat="44.81735" lon="6.95">
        <ele>1859</ele>
        <time>2021-03-19T14:02:30Z</time>
      </trkpt>
      <trkpt lat="44.81734" lon="6.95">
        <ele>1859</ele>
        <time>2021-03-19T14:02:31Z</time>
      </trkpt>
      <trkpt lat="44.81734" lon="6.95001">
        <ele>1860</ele>
        <time>2021-03-19T14:02:32Z</time>
      </trkpt>
      <trkpt lat="44.81734" lon="6.95002">
        <ele>1860</ele>
        <time>2021-03-19T14:02:33Z</time>
      </trkpt>
      <trkpt lat="44.81733" lon="6.95003">
        <ele>1860</ele>
        <time>2021-03-19T14:02:34Z</time>
      </trkpt>
      <trkpt lat="44.81733" lon="6.95004">
        <ele>1860</ele>
        <time>2021-03-19T14:02:35Z</time>
      </trkpt>
      <trkpt lat="44.81732" lon="6.95005">
        <ele>1860</ele>
        <time>2021-03-19T14:02:36Z</time>
      </trkpt>
      <trkpt lat="44.81731" lon="6.95006">
        <ele>1860</ele>
        <time>2021-03-19T14:02:37Z</time>
      </trkpt>
      <trkpt lat="44.81731" lon="6.95007">
        <ele>1860</ele>
        <time>2021-03-19T14:02:38Z</time>
      </trkpt>
      <trkpt lat="44.81731" lon="6.95008">
        <ele>1860</ele>
        <time>2021-03-19T14:02:39Z</time>
      </trkpt>
      <trkpt lat="44.8173" lon="6.95009">
        <ele>1860</ele>
        <time>2021-03-19T14:02:40Z</time>
      </trkpt>
      <trkpt lat="44.8173" lon="6.9501">
        <ele>1860</ele>
        <time>2021-03-19T14:02:41Z</time>
      </trkpt>
      <trkpt lat="44.81729" lon="6.95012">
        <ele>1861</ele>
        <time>2021-03-19T14:02:42Z</time>
      </trkpt>
      <trkpt lat="44.81729" lon="6.95013">
        <ele>1861</ele>
        <time>2021-03-19T14:02:43Z</time>
      </trkpt>
      <trkpt lat="44.81728" lon="6.95014">
        <ele>1861</ele>
        <time>2021-03-19T14:02:44Z</time>
      </trkpt>
      <trkpt lat="44.81728" lon="6.95014">
        <ele>1861</ele>
        <time>2021-03-19T14:02:45Z</time>
      </trkpt>
      <trkpt lat="44.81727" lon="6.95015">
        <ele>1861</ele>
        <time>2021-03-19T14:02:46Z</time>
      </trkpt>
      <trkpt lat="44.81727" lon="6.95016">
        <ele>1862</ele>
        <time>2021-03-19T14:02:47Z</time>
      </trkpt>
      <trkpt lat="44.81726" lon="6.95017">
        <ele>1862</ele>
        <time>2021-03-19T14:02:48Z</time>
      </trkpt>
      <trkpt lat="44.81726" lon="6.95018">
        <ele>1862</ele>
        <time>2021-03-19T14:02:49Z</time>
      </trkpt>
      <trkpt lat="44.81726" lon="6.95019">
        <ele>1862</ele>
        <time>2021-03-19T14:02:50Z</time>
      </trkpt>
      <trkpt lat="44.81725" lon="6.9502">
        <ele>1862</ele>
        <time>2021-03-19T14:02:51Z</time>
      </trkpt>
      <trkpt lat="44.81725" lon="6.95021">
        <ele>1862</ele>
        <time>2021-03-19T14:02:52Z</time>
      </trkpt>
      <trkpt lat="44.81725" lon="6.95022">
        <ele>1862</ele>
        <time>2021-03-19T14:02:53Z</time>
      </trkpt>
      <trkpt lat="44.81725" lon="6.95023">
        <ele>1862</ele>
        <time>2021-03-19T14:02:54Z</time>
      </trkpt>
      <trkpt lat="44.81724" lon="6.95023">
        <ele>1862</ele>
        <time>2021-03-19T14:02:55Z</time>
      </trkpt>
      <trkpt lat="44.81724" lon="6.95024">
        <ele>1862</ele>
        <time>2021-03-19T14:02:56Z</time>
      </trkpt>
      <trkpt lat="44.81724" lon="6.95025">
        <ele>1863</ele>
        <time>2021-03-19T14:02:57Z</time>
      </trkpt>
      <trkpt lat="44.81723" lon="6.95026">
        <ele>1863</ele>
        <time>2021-03-19T14:02:58Z</time>
      </trkpt>
      <trkpt lat="44.81723" lon="6.95027">
        <ele>1863</ele>
        <time>2021-03-19T14:02:59Z</time>
      </trkpt>
      <trkpt lat="44.81722" lon="6.95027">
        <ele>1863</ele>
        <time>2021-03-19T14:03:00Z</time>
      </trkpt>
      <trkpt lat="44.81722" lon="6.95028">
        <ele>1863</ele>
        <time>2021-03-19T14:03:01Z</time>
      </trkpt>
      <trkpt lat="44.81721" lon="6.95029">
        <ele>1864</ele>
        <time>2021-03-19T14:03:02Z</time>
      </trkpt>
      <trkpt lat="44.81721" lon="6.9503">
        <ele>1864</ele>
        <time>2021-03-19T14:03:03Z</time>
      </trkpt>
      <trkpt lat="44.81721" lon="6.95031">
        <ele>1864</ele>
        <time>2021-03-19T14:03:04Z</time>
      </trkpt>
      <trkpt lat="44.8172" lon="6.95031">
        <ele>1864</ele>
        <time>2021-03-19T14:03:05Z</time>
      </trkpt>
      <trkpt lat="44.8172" lon="6.95032">
        <ele>1864</ele>
        <time>2021-03-19T14:03:06Z</time>
      </trkpt>
      <trkpt lat="44.8172" lon="6.95033">
        <ele>1864</ele>
        <time>2021-03-19T14:03:07Z</time>
      </trkpt>
      <trkpt lat="44.81719" lon="6.95034">
        <ele>1864</ele>
        <time>2021-03-19T14:03:08Z</time>
      </trkpt>
      <trkpt lat="44.81719" lon="6.95035">
        <ele>1864</ele>
        <time>2021-03-19T14:03:09Z</time>
      </trkpt>
      <trkpt lat="44.81718" lon="6.95036">
        <ele>1864</ele>
        <time>2021-03-19T14:03:10Z</time>
      </trkpt>
      <trkpt lat="44.81718" lon="6.95037">
        <ele>1864</ele>
        <time>2021-03-19T14:03:11Z</time>
      </trkpt>
      <trkpt lat="44.81717" lon="6.95038">
        <ele>1865</ele>
        <time>2021-03-19T14:03:12Z</time>
      </trkpt>
      <trkpt lat="44.81717" lon="6.95038">
        <ele>1865</ele>
        <time>2021-03-19T14:03:13Z</time>
      </trkpt>
      <trkpt lat="44.81717" lon="6.95039">
        <ele>1865</ele>
        <time>2021-03-19T14:03:14Z</time>
      </trkpt>
      <trkpt lat="44.81717" lon="6.95039">
        <ele>1865</ele>
        <time>2021-03-19T14:03:15Z</time>
      </trkpt>
      <trkpt lat="44.81716" lon="6.9504">
        <ele>1865</ele>
        <time>2021-03-19T14:03:16Z</time>
      </trkpt>
      <trkpt lat="44.81716" lon="6.9504">
        <ele>1866</ele>
        <time>2021-03-19T14:03:17Z</time>
      </trkpt>
      <trkpt lat="44.81715" lon="6.95041">
        <ele>1866</ele>
        <time>2021-03-19T14:03:18Z</time>
      </trkpt>
      <trkpt lat="44.81715" lon="6.95042">
        <ele>1866</ele>
        <time>2021-03-19T14:03:19Z</time>
      </trkpt>
      <trkpt lat="44.81714" lon="6.95043">
        <ele>1866</ele>
        <time>2021-03-19T14:03:20Z</time>
      </trkpt>
      <trkpt lat="44.81713" lon="6.95043">
        <ele>1866</ele>
        <time>2021-03-19T14:03:21Z</time>
      </trkpt>
      <trkpt lat="44.81713" lon="6.95044">
        <ele>1866</ele>
        <time>2021-03-19T14:03:22Z</time>
      </trkpt>
      <trkpt lat="44.81713" lon="6.95044">
        <ele>1866</ele>
        <time>2021-03-19T14:03:23Z</time>
      </trkpt>
      <trkpt lat="44.81712" lon="6.95044">
        <ele>1866</ele>
        <time>2021-03-19T14:03:24Z</time>
      </trkpt>
      <trkpt lat="44.81712" lon="6.95045">
        <ele>1866</ele>
        <time>2021-03-19T14:03:25Z</time>
      </trkpt>
      <trkpt lat="44.81712" lon="6.95045">
        <ele>1866</ele>
        <time>2021-03-19T14:03:26Z</time>
      </trkpt>
      <trkpt lat="44.81711" lon="6.95046">
        <ele>1867</ele>
        <time>2021-03-19T14:03:27Z</time>
      </trkpt>
      <trkpt lat="44.81711" lon="6.95049">
        <ele>1869</ele>
        <time>2021-03-19T14:03:40Z</time>
      </trkpt>
      <trkpt lat="44.81711" lon="6.95051">
        <ele>1869</ele>
        <time>2021-03-19T14:03:41Z</time>
      </trkpt>
      <trkpt lat="44.81711" lon="6.95052">
        <ele>1869</ele>
        <time>2021-03-19T14:03:42Z</time>
      </trkpt>
      <trkpt lat="44.81711" lon="6.95053">
        <ele>1869</ele>
        <time>2021-03-19T14:03:43Z</time>
      </trkpt>
      <trkpt lat="44.8171" lon="6.95054">
        <ele>1869</ele>
        <time>2021-03-19T14:03:44Z</time>
      </trkpt>
      <trkpt lat="44.8171" lon="6.95055">
        <ele>1869</ele>
        <time>2021-03-19T14:03:45Z</time>
      </trkpt>
      <trkpt lat="44.8171" lon="6.95056">
        <ele>1869</ele>
        <time>2021-03-19T14:03:46Z</time>
      </trkpt>
      <trkpt lat="44.81711" lon="6.95057">
        <ele>1870</ele>
        <time>2021-03-19T14:03:47Z</time>
      </trkpt>
      <trkpt lat="44.8171" lon="6.95058">
        <ele>1870</ele>
        <time>2021-03-19T14:03:48Z</time>
      </trkpt>
      <trkpt lat="44.8171" lon="6.95059">
        <ele>1870</ele>
        <time>2021-03-19T14:03:49Z</time>
      </trkpt>
      <trkpt lat="44.8171" lon="6.9506">
        <ele>1870</ele>
        <time>2021-03-19T14:03:50Z</time>
      </trkpt>
      <trkpt lat="44.8171" lon="6.9506">
        <ele>1870</ele>
        <time>2021-03-19T14:03:51Z</time>
      </trkpt>
      <trkpt lat="44.8171" lon="6.95061">
        <ele>1871</ele>
        <time>2021-03-19T14:03:52Z</time>
      </trkpt>
      <trkpt lat="44.8171" lon="6.95061">
        <ele>1871</ele>
        <time>2021-03-19T14:03:53Z</time>
      </trkpt>
      <trkpt lat="44.81709" lon="6.95062">
        <ele>1871</ele>
        <time>2021-03-19T14:03:54Z</time>
      </trkpt>
      <trkpt lat="44.81709" lon="6.95063">
        <ele>1871</ele>
        <time>2021-03-19T14:03:55Z</time>
      </trkpt>
      <trkpt lat="44.81709" lon="6.95064">
        <ele>1871</ele>
        <time>2021-03-19T14:03:56Z</time>
      </trkpt>
      <trkpt lat="44.81709" lon="6.95065">
        <ele>1872</ele>
        <time>2021-03-19T14:03:57Z</time>
      </trkpt>
      <trkpt lat="44.81708" lon="6.95066">
        <ele>1872</ele>
        <time>2021-03-19T14:03:58Z</time>
      </trkpt>
      <trkpt lat="44.81708" lon="6.95066">
        <ele>1872</ele>
        <time>2021-03-19T14:03:59Z</time>
      </trkpt>
      <trkpt lat="44.81708" lon="6.95067">
        <ele>1872</ele>
        <time>2021-03-19T14:04:00Z</time>
      </trkpt>
      <trkpt lat="44.81708" lon="6.95067">
        <ele>1872</ele>
        <time>2021-03-19T14:04:01Z</time>
      </trkpt>
      <trkpt lat="44.81708" lon="6.95068">
        <ele>1872</ele>
        <time>2021-03-19T14:04:02Z</time>
      </trkpt>
      <trkpt lat="44.81708" lon="6.95069">
        <ele>1872</ele>
        <time>2021-03-19T14:04:03Z</time>
      </trkpt>
      <trkpt lat="44.81708" lon="6.9507">
        <ele>1872</ele>
        <time>2021-03-19T14:04:04Z</time>
      </trkpt>
      <trkpt lat="44.81709" lon="6.95071">
        <ele>1872</ele>
        <time>2021-03-19T14:04:05Z</time>
      </trkpt>
      <trkpt lat="44.81709" lon="6.95072">
        <ele>1872</ele>
        <time>2021-03-19T14:04:06Z</time>
      </trkpt>
      <trkpt lat="44.81709" lon="6.95072">
        <ele>1873</ele>
        <time>2021-03-19T14:04:07Z</time>
      </trkpt>
      <trkpt lat="44.81709" lon="6.95073">
        <ele>1873</ele>
        <time>2021-03-19T14:04:08Z</time>
      </trkpt>
      <trkpt lat="44.81709" lon="6.95073">
        <ele>1873</ele>
        <time>2021-03-19T14:04:09Z</time>
      </trkpt>
      <trkpt lat="44.81709" lon="6.95074">
        <ele>1873</ele>
        <time>2021-03-19T14:04:10Z</time>
      </trkpt>
      <trkpt lat="44.81709" lon="6.95075">
        <ele>1873</ele>
        <time>2021-03-19T14:04:11Z</time>
      </trkpt>
      <trkpt lat="44.81709" lon="6.95076">
        <ele>1874</ele>
        <time>2021-03-19T14:04:12Z</time>
      </trkpt>
      <trkpt lat="44.81709" lon="6.95077">
        <ele>1874</ele>
        <time>2021-03-19T14:04:13Z</time>
      </trkpt>
      <trkpt lat="44.81709" lon="6.95079">
        <ele>1874</ele>
        <time>2021-03-19T14:04:14Z</time>
      </trkpt>
      <trkpt lat="44.81708" lon="6.9508">
        <ele>1874</ele>
        <time>2021-03-19T14:04:15Z</time>
      </trkpt>
      <trkpt lat="44.81708" lon="6.95081">
        <ele>1874</ele>
        <time>2021-03-19T14:04:16Z</time>
      </trkpt>
      <trkpt lat="44.81708" lon="6.95082">
        <ele>1874</ele>
        <time>2021-03-19T14:04:17Z</time>
      </trkpt>
      <trkpt lat="44.81707" lon="6.95083">
        <ele>1874</ele>
        <time>2021-03-19T14:04:18Z</time>
      </trkpt>
      <trkpt lat="44.81707" lon="6.95085">
        <ele>1874</ele>
        <time>2021-03-19T14:04:19Z</time>
      </trkpt>
      <trkpt lat="44.81707" lon="6.95085">
        <ele>1874</ele>
        <time>2021-03-19T14:04:20Z</time>
      </trkpt>
      <trkpt lat="44.81706" lon="6.95086">
        <ele>1874</ele>
        <time>2021-03-19T14:04:21Z</time>
      </trkpt>
      <trkpt lat="44.81706" lon="6.95087">
        <ele>1875</ele>
        <time>2021-03-19T14:04:22Z</time>
      </trkpt>
      <trkpt lat="44.81706" lon="6.95088">
        <ele>1875</ele>
        <time>2021-03-19T14:04:23Z</time>
      </trkpt>
      <trkpt lat="44.81705" lon="6.95089">
        <ele>1875</ele>
        <time>2021-03-19T14:04:24Z</time>
      </trkpt>
      <trkpt lat="44.81705" lon="6.9509">
        <ele>1875</ele>
        <time>2021-03-19T14:04:25Z</time>
      </trkpt>
      <trkpt lat="44.81705" lon="6.95091">
        <ele>1875</ele>
        <time>2021-03-19T14:04:26Z</time>
      </trkpt>
      <trkpt lat="44.81704" lon="6.95092">
        <ele>1875</ele>
        <time>2021-03-19T14:04:27Z</time>
      </trkpt>
      <trkpt lat="44.81704" lon="6.95093">
        <ele>1875</ele>
        <time>2021-03-19T14:04:28Z</time>
      </trkpt>
      <trkpt lat="44.81703" lon="6.95094">
        <ele>1875</ele>
        <time>2021-03-19T14:04:29Z</time>
      </trkpt>
      <trkpt lat="44.81703" lon="6.95095">
        <ele>1875</ele>
        <time>2021-03-19T14:04:30Z</time>
      </trkpt>
      <trkpt lat="44.81703" lon="6.95096">
        <ele>1875</ele>
        <time>2021-03-19T14:04:31Z</time>
      </trkpt>
      <trkpt lat="44.81702" lon="6.95097">
        <ele>1875</ele>
        <time>2021-03-19T14:04:32Z</time>
      </trkpt>
      <trkpt lat="44.81702" lon="6.95098">
        <ele>1875</ele>
        <time>2021-03-19T14:04:33Z</time>
      </trkpt>
      <trkpt lat="44.81702" lon="6.95099">
        <ele>1875</ele>
        <time>2021-03-19T14:04:34Z</time>
      </trkpt>
      <trkpt lat="44.81702" lon="6.951">
        <ele>1875</ele>
        <time>2021-03-19T14:04:35Z</time>
      </trkpt>
      <trkpt lat="44.81701" lon="6.95101">
        <ele>1875</ele>
        <time>2021-03-19T14:04:36Z</time>
      </trkpt>
      <trkpt lat="44.81701" lon="6.95102">
        <ele>1875</ele>
        <time>2021-03-19T14:04:37Z</time>
      </trkpt>
      <trkpt lat="44.81701" lon="6.95103">
        <ele>1875</ele>
        <time>2021-03-19T14:04:38Z</time>
      </trkpt>
      <trkpt lat="44.817" lon="6.95104">
        <ele>1875</ele>
        <time>2021-03-19T14:04:39Z</time>
      </trkpt>
      <trkpt lat="44.817" lon="6.95105">
        <ele>1875</ele>
        <time>2021-03-19T14:04:40Z</time>
      </trkpt>
      <trkpt lat="44.817" lon="6.95106">
        <ele>1875</ele>
        <time>2021-03-19T14:04:41Z</time>
      </trkpt>
      <trkpt lat="44.817" lon="6.95107">
        <ele>1876</ele>
        <time>2021-03-19T14:04:42Z</time>
      </trkpt>
      <trkpt lat="44.817" lon="6.95109">
        <ele>1876</ele>
        <time>2021-03-19T14:04:43Z</time>
      </trkpt>
      <trkpt lat="44.817" lon="6.9511">
        <ele>1876</ele>
        <time>2021-03-19T14:04:44Z</time>
      </trkpt>
      <trkpt lat="44.817" lon="6.95111">
        <ele>1876</ele>
        <time>2021-03-19T14:04:45Z</time>
      </trkpt>
      <trkpt lat="44.817" lon="6.95111">
        <ele>1876</ele>
        <time>2021-03-19T14:04:46Z</time>
      </trkpt>
      <trkpt lat="44.817" lon="6.95112">
        <ele>1877</ele>
        <time>2021-03-19T14:04:47Z</time>
      </trkpt>
      <trkpt lat="44.817" lon="6.95112">
        <ele>1877</ele>
        <time>2021-03-19T14:04:48Z</time>
      </trkpt>
      <trkpt lat="44.817" lon="6.95114">
        <ele>1877</ele>
        <time>2021-03-19T14:04:49Z</time>
      </trkpt>
      <trkpt lat="44.817" lon="6.95115">
        <ele>1877</ele>
        <time>2021-03-19T14:04:50Z</time>
      </trkpt>
      <trkpt lat="44.817" lon="6.95117">
        <ele>1877</ele>
        <time>2021-03-19T14:04:51Z</time>
      </trkpt>
      <trkpt lat="44.817" lon="6.95118">
        <ele>1877</ele>
        <time>2021-03-19T14:04:52Z</time>
      </trkpt>
      <trkpt lat="44.817" lon="6.9512">
        <ele>1877</ele>
        <time>2021-03-19T14:04:53Z</time>
      </trkpt>
      <trkpt lat="44.81699" lon="6.95121">
        <ele>1877</ele>
        <time>2021-03-19T14:04:54Z</time>
      </trkpt>
      <trkpt lat="44.81699" lon="6.95122">
        <ele>1877</ele>
        <time>2021-03-19T14:04:55Z</time>
      </trkpt>
      <trkpt lat="44.81699" lon="6.95124">
        <ele>1877</ele>
        <time>2021-03-19T14:04:56Z</time>
      </trkpt>
      <trkpt lat="44.81698" lon="6.95127">
        <ele>1880</ele>
        <time>2021-03-19T14:08:26Z</time>
      </trkpt>
      <trkpt lat="44.81697" lon="6.95128">
        <ele>1880</ele>
        <time>2021-03-19T14:08:27Z</time>
      </trkpt>
      <trkpt lat="44.81697" lon="6.9513">
        <ele>1880</ele>
        <time>2021-03-19T14:08:28Z</time>
      </trkpt>
      <trkpt lat="44.81696" lon="6.95133">
        <ele>1881</ele>
        <time>2021-03-19T14:08:57Z</time>
      </trkpt>
      <trkpt lat="44.81695" lon="6.95134">
        <ele>1881</ele>
        <time>2021-03-19T14:08:58Z</time>
      </trkpt>
      <trkpt lat="44.81694" lon="6.95135">
        <ele>1881</ele>
        <time>2021-03-19T14:08:59Z</time>
      </trkpt>
      <trkpt lat="44.81694" lon="6.95135">
        <ele>1881</ele>
        <time>2021-03-19T14:09:00Z</time>
      </trkpt>
      <trkpt lat="44.81693" lon="6.95136">
        <ele>1881</ele>
        <time>2021-03-19T14:09:01Z</time>
      </trkpt>
      <trkpt lat="44.81692" lon="6.95136">
        <ele>1881</ele>
        <time>2021-03-19T14:09:02Z</time>
      </trkpt>
      <trkpt lat="44.81692" lon="6.95136">
        <ele>1881</ele>
        <time>2021-03-19T14:09:03Z</time>
      </trkpt>
      <trkpt lat="44.81691" lon="6.95137">
        <ele>1881</ele>
        <time>2021-03-19T14:09:04Z</time>
      </trkpt>
      <trkpt lat="44.8169" lon="6.95137">
        <ele>1881</ele>
        <time>2021-03-19T14:09:05Z</time>
      </trkpt>
      <trkpt lat="44.8169" lon="6.95137">
        <ele>1881</ele>
        <time>2021-03-19T14:09:06Z</time>
      </trkpt>
      <trkpt lat="44.81689" lon="6.95138">
        <ele>1881</ele>
        <time>2021-03-19T14:09:07Z</time>
      </trkpt>
      <trkpt lat="44.81689" lon="6.95138">
        <ele>1880</ele>
        <time>2021-03-19T14:09:08Z</time>
      </trkpt>
      <trkpt lat="44.81688" lon="6.95139">
        <ele>1880</ele>
        <time>2021-03-19T14:09:09Z</time>
      </trkpt>
      <trkpt lat="44.81688" lon="6.95139">
        <ele>1880</ele>
        <time>2021-03-19T14:09:10Z</time>
      </trkpt>
      <trkpt lat="44.81687" lon="6.9514">
        <ele>1880</ele>
        <time>2021-03-19T14:09:11Z</time>
      </trkpt>
      <trkpt lat="44.81686" lon="6.95141">
        <ele>1880</ele>
        <time>2021-03-19T14:09:12Z</time>
      </trkpt>
      <trkpt lat="44.81686" lon="6.95141">
        <ele>1880</ele>
        <time>2021-03-19T14:09:13Z</time>
      </trkpt>
      <trkpt lat="44.81685" lon="6.95142">
        <ele>1880</ele>
        <time>2021-03-19T14:09:14Z</time>
      </trkpt>
      <trkpt lat="44.81685" lon="6.95143">
        <ele>1880</ele>
        <time>2021-03-19T14:09:15Z</time>
      </trkpt>
      <trkpt lat="44.81684" lon="6.95144">
        <ele>1880</ele>
        <time>2021-03-19T14:09:16Z</time>
      </trkpt>
      <trkpt lat="44.81684" lon="6.95145">
        <ele>1880</ele>
        <time>2021-03-19T14:09:17Z</time>
      </trkpt>
      <trkpt lat="44.81683" lon="6.95146">
        <ele>1880</ele>
        <time>2021-03-19T14:09:18Z</time>
      </trkpt>
      <trkpt lat="44.81682" lon="6.95147">
        <ele>1880</ele>
        <time>2021-03-19T14:09:19Z</time>
      </trkpt>
      <trkpt lat="44.81682" lon="6.95148">
        <ele>1880</ele>
        <time>2021-03-19T14:09:20Z</time>
      </trkpt>
      <trkpt lat="44.81681" lon="6.95149">
        <ele>1880</ele>
        <time>2021-03-19T14:09:21Z</time>
      </trkpt>
      <trkpt lat="44.81681" lon="6.9515">
        <ele>1880</ele>
        <time>2021-03-19T14:09:22Z</time>
      </trkpt>
      <trkpt lat="44.8168" lon="6.95151">
        <ele>1879</ele>
        <time>2021-03-19T14:09:23Z</time>
      </trkpt>
      <trkpt lat="44.81679" lon="6.95152">
        <ele>1879</ele>
        <time>2021-03-19T14:09:24Z</time>
      </trkpt>
      <trkpt lat="44.81679" lon="6.95154">
        <ele>1879</ele>
        <time>2021-03-19T14:09:25Z</time>
      </trkpt>
      <trkpt lat="44.81678" lon="6.95155">
        <ele>1879</ele>
        <time>2021-03-19T14:09:26Z</time>
      </trkpt>
      <trkpt lat="44.81678" lon="6.95156">
        <ele>1879</ele>
        <time>2021-03-19T14:09:27Z</time>
      </trkpt>
      <trkpt lat="44.81677" lon="6.95158">
        <ele>1878</ele>
        <time>2021-03-19T14:09:28Z</time>
      </trkpt>
      <trkpt lat="44.81677" lon="6.95159">
        <ele>1878</ele>
        <time>2021-03-19T14:09:29Z</time>
      </trkpt>
      <trkpt lat="44.81676" lon="6.9516">
        <ele>1878</ele>
        <time>2021-03-19T14:09:30Z</time>
      </trkpt>
      <trkpt lat="44.81676" lon="6.95162">
        <ele>1878</ele>
        <time>2021-03-19T14:09:31Z</time>
      </trkpt>
      <trkpt lat="44.81675" lon="6.95163">
        <ele>1878</ele>
        <time>2021-03-19T14:09:32Z</time>
      </trkpt>
      <trkpt lat="44.81674" lon="6.95164">
        <ele>1877</ele>
        <time>2021-03-19T14:09:33Z</time>
      </trkpt>
      <trkpt lat="44.81674" lon="6.95165">
        <ele>1877</ele>
        <time>2021-03-19T14:09:34Z</time>
      </trkpt>
      <trkpt lat="44.81673" lon="6.95166">
        <ele>1877</ele>
        <time>2021-03-19T14:09:35Z</time>
      </trkpt>
      <trkpt lat="44.81673" lon="6.95167">
        <ele>1877</ele>
        <time>2021-03-19T14:09:36Z</time>
      </trkpt>
      <trkpt lat="44.81672" lon="6.95168">
        <ele>1877</ele>
        <time>2021-03-19T14:09:37Z</time>
      </trkpt>
      <trkpt lat="44.81672" lon="6.9517">
        <ele>1877</ele>
        <time>2021-03-19T14:09:38Z</time>
      </trkpt>
      <trkpt lat="44.81671" lon="6.95171">
        <ele>1877</ele>
        <time>2021-03-19T14:09:39Z</time>
      </trkpt>
      <trkpt lat="44.81671" lon="6.95172">
        <ele>1877</ele>
        <time>2021-03-19T14:09:40Z</time>
      </trkpt>
      <trkpt lat="44.8167" lon="6.95173">
        <ele>1877</ele>
        <time>2021-03-19T14:09:41Z</time>
      </trkpt>
      <trkpt lat="44.8167" lon="6.95174">
        <ele>1877</ele>
        <time>2021-03-19T14:09:42Z</time>
      </trkpt>
      <trkpt lat="44.8167" lon="6.95175">
        <ele>1877</ele>
        <time>2021-03-19T14:09:43Z</time>
      </trkpt>
      <trkpt lat="44.81669" lon="6.95176">
        <ele>1877</ele>
        <time>2021-03-19T14:09:44Z</time>
      </trkpt>
      <trkpt lat="44.81669" lon="6.95178">
        <ele>1877</ele>
        <time>2021-03-19T14:09:45Z</time>
      </trkpt>
      <trkpt lat="44.81669" lon="6.95179">
        <ele>1877</ele>
        <time>2021-03-19T14:09:46Z</time>
      </trkpt>
      <trkpt lat="44.81669" lon="6.9518">
        <ele>1877</ele>
        <time>2021-03-19T14:09:47Z</time>
      </trkpt>
      <trkpt lat="44.81668" lon="6.95181">
        <ele>1877</ele>
        <time>2021-03-19T14:09:48Z</time>
      </trkpt>
      <trkpt lat="44.81668" lon="6.95183">
        <ele>1877</ele>
        <time>2021-03-19T14:09:49Z</time>
      </trkpt>
      <trkpt lat="44.81668" lon="6.95184">
        <ele>1877</ele>
        <time>2021-03-19T14:09:50Z</time>
      </trkpt>
      <trkpt lat="44.81667" lon="6.95186">
        <ele>1877</ele>
        <time>2021-03-19T14:09:51Z</time>
      </trkpt>
      <trkpt lat="44.81667" lon="6.95187">
        <ele>1877</ele>
        <time>2021-03-19T14:09:52Z</time>
      </trkpt>
      <trkpt lat="44.81666" lon="6.95188">
        <ele>1877</ele>
        <time>2021-03-19T14:09:53Z</time>
      </trkpt>
      <trkpt lat="44.81666" lon="6.9519">
        <ele>1877</ele>
        <time>2021-03-19T14:09:54Z</time>
      </trkpt>
      <trkpt lat="44.81665" lon="6.95191">
        <ele>1877</ele>
        <time>2021-03-19T14:09:55Z</time>
      </trkpt>
      <trkpt lat="44.81665" lon="6.95192">
        <ele>1877</ele>
        <time>2021-03-19T14:09:56Z</time>
      </trkpt>
      <trkpt lat="44.81664" lon="6.95194">
        <ele>1878</ele>
        <time>2021-03-19T14:09:57Z</time>
      </trkpt>
      <trkpt lat="44.81663" lon="6.95195">
        <ele>1878</ele>
        <time>2021-03-19T14:09:58Z</time>
      </trkpt>
      <trkpt lat="44.81663" lon="6.95196">
        <ele>1878</ele>
        <time>2021-03-19T14:09:59Z</time>
      </trkpt>
      <trkpt lat="44.81662" lon="6.95197">
        <ele>1878</ele>
        <time>2021-03-19T14:10:00Z</time>
      </trkpt>
      <trkpt lat="44.81661" lon="6.95198">
        <ele>1878</ele>
        <time>2021-03-19T14:10:01Z</time>
      </trkpt>
      <trkpt lat="44.81661" lon="6.95199">
        <ele>1878</ele>
        <time>2021-03-19T14:10:02Z</time>
      </trkpt>
      <trkpt lat="44.8166" lon="6.952">
        <ele>1878</ele>
        <time>2021-03-19T14:10:03Z</time>
      </trkpt>
      <trkpt lat="44.81659" lon="6.952">
        <ele>1878</ele>
        <time>2021-03-19T14:10:04Z</time>
      </trkpt>
      <trkpt lat="44.81659" lon="6.95201">
        <ele>1878</ele>
        <time>2021-03-19T14:10:05Z</time>
      </trkpt>
      <trkpt lat="44.81658" lon="6.95201">
        <ele>1878</ele>
        <time>2021-03-19T14:10:06Z</time>
      </trkpt>
      <trkpt lat="44.81657" lon="6.95202">
        <ele>1878</ele>
        <time>2021-03-19T14:10:07Z</time>
      </trkpt>
      <trkpt lat="44.81656" lon="6.95202">
        <ele>1878</ele>
        <time>2021-03-19T14:10:08Z</time>
      </trkpt>
      <trkpt lat="44.81655" lon="6.95203">
        <ele>1878</ele>
        <time>2021-03-19T14:10:09Z</time>
      </trkpt>
      <trkpt lat="44.81654" lon="6.95204">
        <ele>1878</ele>
        <time>2021-03-19T14:10:10Z</time>
      </trkpt>
      <trkpt lat="44.81653" lon="6.95204">
        <ele>1878</ele>
        <time>2021-03-19T14:10:11Z</time>
      </trkpt>
      <trkpt lat="44.81653" lon="6.95205">
        <ele>1878</ele>
        <time>2021-03-19T14:10:12Z</time>
      </trkpt>
      <trkpt lat="44.81652" lon="6.95206">
        <ele>1878</ele>
        <time>2021-03-19T14:10:13Z</time>
      </trkpt>
      <trkpt lat="44.81651" lon="6.95206">
        <ele>1878</ele>
        <time>2021-03-19T14:10:14Z</time>
      </trkpt>
      <trkpt lat="44.8165" lon="6.95207">
        <ele>1878</ele>
        <time>2021-03-19T14:10:15Z</time>
      </trkpt>
      <trkpt lat="44.81649" lon="6.95207">
        <ele>1878</ele>
        <time>2021-03-19T14:10:16Z</time>
      </trkpt>
      <trkpt lat="44.81649" lon="6.95208">
        <ele>1878</ele>
        <time>2021-03-19T14:10:17Z</time>
      </trkpt>
      <trkpt lat="44.81648" lon="6.95209">
        <ele>1878</ele>
        <time>2021-03-19T14:10:18Z</time>
      </trkpt>
      <trkpt lat="44.81648" lon="6.95209">
        <ele>1878</ele>
        <time>2021-03-19T14:10:19Z</time>
      </trkpt>
      <trkpt lat="44.81647" lon="6.9521">
        <ele>1878</ele>
        <time>2021-03-19T14:10:20Z</time>
      </trkpt>
      <trkpt lat="44.81646" lon="6.95211">
        <ele>1878</ele>
        <time>2021-03-19T14:10:21Z</time>
      </trkpt>
      <trkpt lat="44.81646" lon="6.95212">
        <ele>1878</ele>
        <time>2021-03-19T14:10:22Z</time>
      </trkpt>
      <trkpt lat="44.81645" lon="6.95213">
        <ele>1877</ele>
        <time>2021-03-19T14:10:23Z</time>
      </trkpt>
      <trkpt lat="44.81645" lon="6.95214">
        <ele>1877</ele>
        <time>2021-03-19T14:10:24Z</time>
      </trkpt>
      <trkpt lat="44.81644" lon="6.95215">
        <ele>1877</ele>
        <time>2021-03-19T14:10:25Z</time>
      </trkpt>
      <trkpt lat="44.81644" lon="6.95216">
        <ele>1877</ele>
        <time>2021-03-19T14:10:26Z</time>
      </trkpt>
      <trkpt lat="44.81644" lon="6.95217">
        <ele>1877</ele>
        <time>2021-03-19T14:10:27Z</time>
      </trkpt>
      <trkpt lat="44.81643" lon="6.95218">
        <ele>1877</ele>
        <time>2021-03-19T14:10:28Z</time>
      </trkpt>
      <trkpt lat="44.81643" lon="6.9522">
        <ele>1877</ele>
        <time>2021-03-19T14:10:29Z</time>
      </trkpt>
      <trkpt lat="44.81642" lon="6.95221">
        <ele>1877</ele>
        <time>2021-03-19T14:10:30Z</time>
      </trkpt>
      <trkpt lat="44.81642" lon="6.95222">
        <ele>1877</ele>
        <time>2021-03-19T14:10:31Z</time>
      </trkpt>
      <trkpt lat="44.81641" lon="6.95223">
        <ele>1877</ele>
        <time>2021-03-19T14:10:32Z</time>
      </trkpt>
      <trkpt lat="44.81641" lon="6.95224">
        <ele>1877</ele>
        <time>2021-03-19T14:10:33Z</time>
      </trkpt>
      <trkpt lat="44.8164" lon="6.95225">
        <ele>1877</ele>
        <time>2021-03-19T14:10:34Z</time>
      </trkpt>
      <trkpt lat="44.81639" lon="6.95226">
        <ele>1877</ele>
        <time>2021-03-19T14:10:35Z</time>
      </trkpt>
      <trkpt lat="44.81639" lon="6.95227">
        <ele>1877</ele>
        <time>2021-03-19T14:10:36Z</time>
      </trkpt>
      <trkpt lat="44.81638" lon="6.95228">
        <ele>1877</ele>
        <time>2021-03-19T14:10:37Z</time>
      </trkpt>
      <trkpt lat="44.81637" lon="6.95229">
        <ele>1877</ele>
        <time>2021-03-19T14:10:38Z</time>
      </trkpt>
      <trkpt lat="44.81637" lon="6.9523">
        <ele>1877</ele>
        <time>2021-03-19T14:10:39Z</time>
      </trkpt>
      <trkpt lat="44.81636" lon="6.95231">
        <ele>1877</ele>
        <time>2021-03-19T14:10:40Z</time>
      </trkpt>
      <trkpt lat="44.81635" lon="6.95232">
        <ele>1877</ele>
        <time>2021-03-19T14:10:41Z</time>
      </trkpt>
      <trkpt lat="44.81634" lon="6.95232">
        <ele>1877</ele>
        <time>2021-03-19T14:10:42Z</time>
      </trkpt>
      <trkpt lat="44.81634" lon="6.95233">
        <ele>1877</ele>
        <time>2021-03-19T14:10:43Z</time>
      </trkpt>
      <trkpt lat="44.81633" lon="6.95234">
        <ele>1877</ele>
        <time>2021-03-19T14:10:44Z</time>
      </trkpt>
      <trkpt lat="44.81632" lon="6.95235">
        <ele>1877</ele>
        <time>2021-03-19T14:10:45Z</time>
      </trkpt>
      <trkpt lat="44.81631" lon="6.95235">
        <ele>1877</ele>
        <time>2021-03-19T14:10:46Z</time>
      </trkpt>
      <trkpt lat="44.81631" lon="6.95236">
        <ele>1877</ele>
        <time>2021-03-19T14:10:47Z</time>
      </trkpt>
      <trkpt lat="44.8163" lon="6.95236">
        <ele>1877</ele>
        <time>2021-03-19T14:10:48Z</time>
      </trkpt>
      <trkpt lat="44.8163" lon="6.95237">
        <ele>1877</ele>
        <time>2021-03-19T14:10:49Z</time>
      </trkpt>
      <trkpt lat="44.81629" lon="6.95237">
        <ele>1877</ele>
        <time>2021-03-19T14:10:50Z</time>
      </trkpt>
      <trkpt lat="44.81628" lon="6.95238">
        <ele>1877</ele>
        <time>2021-03-19T14:10:51Z</time>
      </trkpt>
      <trkpt lat="44.81628" lon="6.95239">
        <ele>1877</ele>
        <time>2021-03-19T14:10:52Z</time>
      </trkpt>
      <trkpt lat="44.81627" lon="6.95239">
        <ele>1877</ele>
        <time>2021-03-19T14:10:53Z</time>
      </trkpt>
      <trkpt lat="44.81627" lon="6.9524">
        <ele>1877</ele>
        <time>2021-03-19T14:10:54Z</time>
      </trkpt>
      <trkpt lat="44.81626" lon="6.95241">
        <ele>1877</ele>
        <time>2021-03-19T14:10:55Z</time>
      </trkpt>
      <trkpt lat="44.81625" lon="6.95242">
        <ele>1877</ele>
        <time>2021-03-19T14:10:56Z</time>
      </trkpt>
      <trkpt lat="44.81625" lon="6.95242">
        <ele>1877</ele>
        <time>2021-03-19T14:10:57Z</time>
      </trkpt>
      <trkpt lat="44.81624" lon="6.95243">
        <ele>1877</ele>
        <time>2021-03-19T14:10:58Z</time>
      </trkpt>
      <trkpt lat="44.81623" lon="6.95244">
        <ele>1877</ele>
        <time>2021-03-19T14:10:59Z</time>
      </trkpt>
      <trkpt lat="44.81623" lon="6.95246">
        <ele>1877</ele>
        <time>2021-03-19T14:11:00Z</time>
      </trkpt>
      <trkpt lat="44.81622" lon="6.95247">
        <ele>1877</ele>
        <time>2021-03-19T14:11:01Z</time>
      </trkpt>
      <trkpt lat="44.81622" lon="6.95248">
        <ele>1877</ele>
        <time>2021-03-19T14:11:02Z</time>
      </trkpt>
      <trkpt lat="44.81621" lon="6.95249">
        <ele>1877</ele>
        <time>2021-03-19T14:11:03Z</time>
      </trkpt>
      <trkpt lat="44.81621" lon="6.9525">
        <ele>1877</ele>
        <time>2021-03-19T14:11:04Z</time>
      </trkpt>
      <trkpt lat="44.8162" lon="6.95252">
        <ele>1877</ele>
        <time>2021-03-19T14:11:05Z</time>
      </trkpt>
      <trkpt lat="44.8162" lon="6.95253">
        <ele>1877</ele>
        <time>2021-03-19T14:11:06Z</time>
      </trkpt>
      <trkpt lat="44.8162" lon="6.95254">
        <ele>1877</ele>
        <time>2021-03-19T14:11:07Z</time>
      </trkpt>
      <trkpt lat="44.81619" lon="6.95255">
        <ele>1877</ele>
        <time>2021-03-19T14:11:08Z</time>
      </trkpt>
      <trkpt lat="44.81619" lon="6.95256">
        <ele>1877</ele>
        <time>2021-03-19T14:11:09Z</time>
      </trkpt>
      <trkpt lat="44.81619" lon="6.95257">
        <ele>1877</ele>
        <time>2021-03-19T14:11:10Z</time>
      </trkpt>
      <trkpt lat="44.81619" lon="6.95259">
        <ele>1877</ele>
        <time>2021-03-19T14:11:11Z</time>
      </trkpt>
      <trkpt lat="44.81619" lon="6.9526">
        <ele>1877</ele>
        <time>2021-03-19T14:11:12Z</time>
      </trkpt>
      <trkpt lat="44.81619" lon="6.95261">
        <ele>1877</ele>
        <time>2021-03-19T14:11:13Z</time>
      </trkpt>
      <trkpt lat="44.81619" lon="6.95262">
        <ele>1877</ele>
        <time>2021-03-19T14:11:14Z</time>
      </trkpt>
      <trkpt lat="44.81618" lon="6.95264">
        <ele>1877</ele>
        <time>2021-03-19T14:11:15Z</time>
      </trkpt>
      <trkpt lat="44.81618" lon="6.95265">
        <ele>1877</ele>
        <time>2021-03-19T14:11:16Z</time>
      </trkpt>
      <trkpt lat="44.81618" lon="6.95266">
        <ele>1877</ele>
        <time>2021-03-19T14:11:17Z</time>
      </trkpt>
      <trkpt lat="44.81618" lon="6.95267">
        <ele>1877</ele>
        <time>2021-03-19T14:11:18Z</time>
      </trkpt>
      <trkpt lat="44.81618" lon="6.95268">
        <ele>1877</ele>
        <time>2021-03-19T14:11:19Z</time>
      </trkpt>
      <trkpt lat="44.81618" lon="6.95269">
        <ele>1877</ele>
        <time>2021-03-19T14:11:20Z</time>
      </trkpt>
      <trkpt lat="44.81618" lon="6.95271">
        <ele>1877</ele>
        <time>2021-03-19T14:11:21Z</time>
      </trkpt>
      <trkpt lat="44.81617" lon="6.95272">
        <ele>1877</ele>
        <time>2021-03-19T14:11:22Z</time>
      </trkpt>
      <trkpt lat="44.81617" lon="6.95273">
        <ele>1877</ele>
        <time>2021-03-19T14:11:23Z</time>
      </trkpt>
      <trkpt lat="44.81616" lon="6.95274">
        <ele>1877</ele>
        <time>2021-03-19T14:11:24Z</time>
      </trkpt>
      <trkpt lat="44.81616" lon="6.95275">
        <ele>1877</ele>
        <time>2021-03-19T14:11:25Z</time>
      </trkpt>
      <trkpt lat="44.81615" lon="6.95277">
        <ele>1877</ele>
        <time>2021-03-19T14:11:26Z</time>
      </trkpt>
      <trkpt lat="44.81614" lon="6.95279">
        <ele>1878</ele>
        <time>2021-03-19T14:11:27Z</time>
      </trkpt>
      <trkpt lat="44.81614" lon="6.9528">
        <ele>1878</ele>
        <time>2021-03-19T14:11:28Z</time>
      </trkpt>
      <trkpt lat="44.81613" lon="6.95281">
        <ele>1878</ele>
        <time>2021-03-19T14:11:29Z</time>
      </trkpt>
      <trkpt lat="44.81612" lon="6.95283">
        <ele>1878</ele>
        <time>2021-03-19T14:11:30Z</time>
      </trkpt>
      <trkpt lat="44.81611" lon="6.95284">
        <ele>1878</ele>
        <time>2021-03-19T14:11:31Z</time>
      </trkpt>
      <trkpt lat="44.81611" lon="6.95285">
        <ele>1878</ele>
        <time>2021-03-19T14:11:32Z</time>
      </trkpt>
      <trkpt lat="44.8161" lon="6.95287">
        <ele>1878</ele>
        <time>2021-03-19T14:11:33Z</time>
      </trkpt>
      <trkpt lat="44.8161" lon="6.95288">
        <ele>1878</ele>
        <time>2021-03-19T14:11:34Z</time>
      </trkpt>
      <trkpt lat="44.81609" lon="6.9529">
        <ele>1878</ele>
        <time>2021-03-19T14:11:35Z</time>
      </trkpt>
      <trkpt lat="44.81609" lon="6.95291">
        <ele>1878</ele>
        <time>2021-03-19T14:11:36Z</time>
      </trkpt>
      <trkpt lat="44.81608" lon="6.95292">
        <ele>1878</ele>
        <time>2021-03-19T14:11:37Z</time>
      </trkpt>
      <trkpt lat="44.81608" lon="6.95293">
        <ele>1878</ele>
        <time>2021-03-19T14:11:38Z</time>
      </trkpt>
      <trkpt lat="44.81608" lon="6.95294">
        <ele>1878</ele>
        <time>2021-03-19T14:11:39Z</time>
      </trkpt>
      <trkpt lat="44.81607" lon="6.95294">
        <ele>1878</ele>
        <time>2021-03-19T14:11:40Z</time>
      </trkpt>
      <trkpt lat="44.81607" lon="6.95295">
        <ele>1878</ele>
        <time>2021-03-19T14:11:41Z</time>
      </trkpt>
      <trkpt lat="44.81606" lon="6.95295">
        <ele>1879</ele>
        <time>2021-03-19T14:11:42Z</time>
      </trkpt>
      <trkpt lat="44.81606" lon="6.95296">
        <ele>1879</ele>
        <time>2021-03-19T14:11:43Z</time>
      </trkpt>
      <trkpt lat="44.81606" lon="6.95296">
        <ele>1879</ele>
        <time>2021-03-19T14:11:44Z</time>
      </trkpt>
      <trkpt lat="44.81605" lon="6.95297">
        <ele>1879</ele>
        <time>2021-03-19T14:11:45Z</time>
      </trkpt>
      <trkpt lat="44.81605" lon="6.95298">
        <ele>1879</ele>
        <time>2021-03-19T14:11:46Z</time>
      </trkpt>
      <trkpt lat="44.81604" lon="6.95298">
        <ele>1879</ele>
        <time>2021-03-19T14:11:47Z</time>
      </trkpt>
      <trkpt lat="44.81604" lon="6.95299">
        <ele>1879</ele>
        <time>2021-03-19T14:11:48Z</time>
      </trkpt>
      <trkpt lat="44.81603" lon="6.953">
        <ele>1879</ele>
        <time>2021-03-19T14:11:49Z</time>
      </trkpt>
      <trkpt lat="44.81603" lon="6.95301">
        <ele>1879</ele>
        <time>2021-03-19T14:11:50Z</time>
      </trkpt>
      <trkpt lat="44.81602" lon="6.95302">
        <ele>1879</ele>
        <time>2021-03-19T14:11:51Z</time>
      </trkpt>
      <trkpt lat="44.81601" lon="6.95304">
        <ele>1879</ele>
        <time>2021-03-19T14:11:52Z</time>
      </trkpt>
      <trkpt lat="44.816" lon="6.95305">
        <ele>1879</ele>
        <time>2021-03-19T14:11:53Z</time>
      </trkpt>
      <trkpt lat="44.81599" lon="6.95306">
        <ele>1879</ele>
        <time>2021-03-19T14:11:54Z</time>
      </trkpt>
      <trkpt lat="44.81598" lon="6.95307">
        <ele>1879</ele>
        <time>2021-03-19T14:11:55Z</time>
      </trkpt>
      <trkpt lat="44.81597" lon="6.95309">
        <ele>1879</ele>
        <time>2021-03-19T14:11:56Z</time>
      </trkpt>
      <trkpt lat="44.81596" lon="6.95309">
        <ele>1880</ele>
        <time>2021-03-19T14:11:57Z</time>
      </trkpt>
      <trkpt lat="44.81596" lon="6.9531">
        <ele>1880</ele>
        <time>2021-03-19T14:11:58Z</time>
      </trkpt>
      <trkpt lat="44.81595" lon="6.95311">
        <ele>1880</ele>
        <time>2021-03-19T14:11:59Z</time>
      </trkpt>
      <trkpt lat="44.81595" lon="6.95312">
        <ele>1880</ele>
        <time>2021-03-19T14:12:00Z</time>
      </trkpt>
      <trkpt lat="44.81594" lon="6.95312">
        <ele>1880</ele>
        <time>2021-03-19T14:12:01Z</time>
      </trkpt>
      <trkpt lat="44.81594" lon="6.95313">
        <ele>1880</ele>
        <time>2021-03-19T14:12:02Z</time>
      </trkpt>
      <trkpt lat="44.81593" lon="6.95313">
        <ele>1880</ele>
        <time>2021-03-19T14:12:03Z</time>
      </trkpt>
      <trkpt lat="44.81593" lon="6.95313">
        <ele>1880</ele>
        <time>2021-03-19T14:12:04Z</time>
      </trkpt>
      <trkpt lat="44.81592" lon="6.95313">
        <ele>1880</ele>
        <time>2021-03-19T14:12:05Z</time>
      </trkpt>
      <trkpt lat="44.81591" lon="6.95313">
        <ele>1880</ele>
        <time>2021-03-19T14:12:06Z</time>
      </trkpt>
      <trkpt lat="44.8159" lon="6.95313">
        <ele>1880</ele>
        <time>2021-03-19T14:12:07Z</time>
      </trkpt>
      <trkpt lat="44.8159" lon="6.95313">
        <ele>1880</ele>
        <time>2021-03-19T14:12:08Z</time>
      </trkpt>
      <trkpt lat="44.81589" lon="6.95313">
        <ele>1880</ele>
        <time>2021-03-19T14:12:09Z</time>
      </trkpt>
      <trkpt lat="44.81588" lon="6.95314">
        <ele>1880</ele>
        <time>2021-03-19T14:12:10Z</time>
      </trkpt>
      <trkpt lat="44.81587" lon="6.95315">
        <ele>1880</ele>
        <time>2021-03-19T14:12:11Z</time>
      </trkpt>
      <trkpt lat="44.81586" lon="6.95316">
        <ele>1880</ele>
        <time>2021-03-19T14:12:12Z</time>
      </trkpt>
      <trkpt lat="44.81585" lon="6.95317">
        <ele>1880</ele>
        <time>2021-03-19T14:12:13Z</time>
      </trkpt>
      <trkpt lat="44.81584" lon="6.95318">
        <ele>1880</ele>
        <time>2021-03-19T14:12:14Z</time>
      </trkpt>
      <trkpt lat="44.81583" lon="6.95319">
        <ele>1880</ele>
        <time>2021-03-19T14:12:15Z</time>
      </trkpt>
      <trkpt lat="44.81582" lon="6.9532">
        <ele>1880</ele>
        <time>2021-03-19T14:12:16Z</time>
      </trkpt>
      <trkpt lat="44.81581" lon="6.95321">
        <ele>1880</ele>
        <time>2021-03-19T14:12:17Z</time>
      </trkpt>
      <trkpt lat="44.8158" lon="6.95322">
        <ele>1880</ele>
        <time>2021-03-19T14:12:18Z</time>
      </trkpt>
      <trkpt lat="44.8158" lon="6.95323">
        <ele>1880</ele>
        <time>2021-03-19T14:12:19Z</time>
      </trkpt>
      <trkpt lat="44.81579" lon="6.95323">
        <ele>1880</ele>
        <time>2021-03-19T14:12:20Z</time>
      </trkpt>
      <trkpt lat="44.81578" lon="6.95324">
        <ele>1880</ele>
        <time>2021-03-19T14:12:21Z</time>
      </trkpt>
      <trkpt lat="44.81577" lon="6.95325">
        <ele>1880</ele>
        <time>2021-03-19T14:12:22Z</time>
      </trkpt>
      <trkpt lat="44.81577" lon="6.95326">
        <ele>1880</ele>
        <time>2021-03-19T14:12:23Z</time>
      </trkpt>
      <trkpt lat="44.81576" lon="6.95326">
        <ele>1880</ele>
        <time>2021-03-19T14:12:24Z</time>
      </trkpt>
      <trkpt lat="44.81575" lon="6.95327">
        <ele>1880</ele>
        <time>2021-03-19T14:12:25Z</time>
      </trkpt>
      <trkpt lat="44.81575" lon="6.95327">
        <ele>1880</ele>
        <time>2021-03-19T14:12:26Z</time>
      </trkpt>
      <trkpt lat="44.81574" lon="6.95327">
        <ele>1880</ele>
        <time>2021-03-19T14:12:27Z</time>
      </trkpt>
      <trkpt lat="44.81573" lon="6.95328">
        <ele>1880</ele>
        <time>2021-03-19T14:12:28Z</time>
      </trkpt>
      <trkpt lat="44.81573" lon="6.95328">
        <ele>1880</ele>
        <time>2021-03-19T14:12:29Z</time>
      </trkpt>
      <trkpt lat="44.81572" lon="6.95329">
        <ele>1880</ele>
        <time>2021-03-19T14:12:30Z</time>
      </trkpt>
      <trkpt lat="44.81571" lon="6.9533">
        <ele>1880</ele>
        <time>2021-03-19T14:12:31Z</time>
      </trkpt>
      <trkpt lat="44.8157" lon="6.9533">
        <ele>1880</ele>
        <time>2021-03-19T14:12:32Z</time>
      </trkpt>
      <trkpt lat="44.81568" lon="6.95331">
        <ele>1880</ele>
        <time>2021-03-19T14:12:33Z</time>
      </trkpt>
      <trkpt lat="44.81567" lon="6.95332">
        <ele>1880</ele>
        <time>2021-03-19T14:12:34Z</time>
      </trkpt>
      <trkpt lat="44.81566" lon="6.95333">
        <ele>1880</ele>
        <time>2021-03-19T14:12:35Z</time>
      </trkpt>
      <trkpt lat="44.81565" lon="6.95334">
        <ele>1880</ele>
        <time>2021-03-19T14:12:36Z</time>
      </trkpt>
      <trkpt lat="44.81565" lon="6.95335">
        <ele>1880</ele>
        <time>2021-03-19T14:12:37Z</time>
      </trkpt>
      <trkpt lat="44.81564" lon="6.95336">
        <ele>1880</ele>
        <time>2021-03-19T14:12:38Z</time>
      </trkpt>
      <trkpt lat="44.81564" lon="6.95337">
        <ele>1880</ele>
        <time>2021-03-19T14:12:39Z</time>
      </trkpt>
      <trkpt lat="44.81564" lon="6.95338">
        <ele>1880</ele>
        <time>2021-03-19T14:12:40Z</time>
      </trkpt>
      <trkpt lat="44.81563" lon="6.95339">
        <ele>1880</ele>
        <time>2021-03-19T14:12:41Z</time>
      </trkpt>
      <trkpt lat="44.81563" lon="6.9534">
        <ele>1880</ele>
        <time>2021-03-19T14:12:42Z</time>
      </trkpt>
      <trkpt lat="44.81563" lon="6.9534">
        <ele>1880</ele>
        <time>2021-03-19T14:12:43Z</time>
      </trkpt>
      <trkpt lat="44.81562" lon="6.95341">
        <ele>1880</ele>
        <time>2021-03-19T14:12:44Z</time>
      </trkpt>
      <trkpt lat="44.81562" lon="6.95342">
        <ele>1880</ele>
        <time>2021-03-19T14:12:45Z</time>
      </trkpt>
      <trkpt lat="44.81562" lon="6.95342">
        <ele>1880</ele>
        <time>2021-03-19T14:12:46Z</time>
      </trkpt>
      <trkpt lat="44.81561" lon="6.95343">
        <ele>1880</ele>
        <time>2021-03-19T14:12:47Z</time>
      </trkpt>
      <trkpt lat="44.81561" lon="6.95344">
        <ele>1880</ele>
        <time>2021-03-19T14:12:48Z</time>
      </trkpt>
      <trkpt lat="44.8156" lon="6.95345">
        <ele>1880</ele>
        <time>2021-03-19T14:12:49Z</time>
      </trkpt>
      <trkpt lat="44.8156" lon="6.95346">
        <ele>1880</ele>
        <time>2021-03-19T14:12:50Z</time>
      </trkpt>
      <trkpt lat="44.81559" lon="6.95346">
        <ele>1880</ele>
        <time>2021-03-19T14:12:51Z</time>
      </trkpt>
      <trkpt lat="44.81559" lon="6.95347">
        <ele>1881</ele>
        <time>2021-03-19T14:12:52Z</time>
      </trkpt>
      <trkpt lat="44.81559" lon="6.95348">
        <ele>1881</ele>
        <time>2021-03-19T14:12:53Z</time>
      </trkpt>
      <trkpt lat="44.81558" lon="6.95349">
        <ele>1881</ele>
        <time>2021-03-19T14:12:54Z</time>
      </trkpt>
      <trkpt lat="44.81558" lon="6.9535">
        <ele>1881</ele>
        <time>2021-03-19T14:12:55Z</time>
      </trkpt>
      <trkpt lat="44.81558" lon="6.95351">
        <ele>1881</ele>
        <time>2021-03-19T14:12:56Z</time>
      </trkpt>
      <trkpt lat="44.81557" lon="6.95352">
        <ele>1882</ele>
        <time>2021-03-19T14:12:57Z</time>
      </trkpt>
      <trkpt lat="44.81557" lon="6.95353">
        <ele>1882</ele>
        <time>2021-03-19T14:12:58Z</time>
      </trkpt>
      <trkpt lat="44.81557" lon="6.95353">
        <ele>1882</ele>
        <time>2021-03-19T14:12:59Z</time>
      </trkpt>
      <trkpt lat="44.81557" lon="6.95354">
        <ele>1882</ele>
        <time>2021-03-19T14:13:00Z</time>
      </trkpt>
      <trkpt lat="44.81556" lon="6.95355">
        <ele>1882</ele>
        <time>2021-03-19T14:13:01Z</time>
      </trkpt>
      <trkpt lat="44.81556" lon="6.95356">
        <ele>1883</ele>
        <time>2021-03-19T14:13:02Z</time>
      </trkpt>
      <trkpt lat="44.81556" lon="6.95357">
        <ele>1883</ele>
        <time>2021-03-19T14:13:03Z</time>
      </trkpt>
      <trkpt lat="44.81555" lon="6.95358">
        <ele>1883</ele>
        <time>2021-03-19T14:13:04Z</time>
      </trkpt>
      <trkpt lat="44.81555" lon="6.95359">
        <ele>1883</ele>
        <time>2021-03-19T14:13:05Z</time>
      </trkpt>
      <trkpt lat="44.81555" lon="6.9536">
        <ele>1883</ele>
        <time>2021-03-19T14:13:06Z</time>
      </trkpt>
      <trkpt lat="44.81555" lon="6.95361">
        <ele>1884</ele>
        <time>2021-03-19T14:13:07Z</time>
      </trkpt>
      <trkpt lat="44.81554" lon="6.95361">
        <ele>1884</ele>
        <time>2021-03-19T14:13:08Z</time>
      </trkpt>
      <trkpt lat="44.81554" lon="6.95362">
        <ele>1884</ele>
        <time>2021-03-19T14:13:09Z</time>
      </trkpt>
      <trkpt lat="44.81554" lon="6.95363">
        <ele>1884</ele>
        <time>2021-03-19T14:13:10Z</time>
      </trkpt>
      <trkpt lat="44.81553" lon="6.95364">
        <ele>1884</ele>
        <time>2021-03-19T14:13:11Z</time>
      </trkpt>
      <trkpt lat="44.81553" lon="6.95364">
        <ele>1885</ele>
        <time>2021-03-19T14:13:12Z</time>
      </trkpt>
      <trkpt lat="44.81552" lon="6.95365">
        <ele>1885</ele>
        <time>2021-03-19T14:13:13Z</time>
      </trkpt>
      <trkpt lat="44.81551" lon="6.95366">
        <ele>1885</ele>
        <time>2021-03-19T14:13:14Z</time>
      </trkpt>
      <trkpt lat="44.81551" lon="6.95367">
        <ele>1885</ele>
        <time>2021-03-19T14:13:15Z</time>
      </trkpt>
      <trkpt lat="44.8155" lon="6.95367">
        <ele>1885</ele>
        <time>2021-03-19T14:13:16Z</time>
      </trkpt>
      <trkpt lat="44.81549" lon="6.95368">
        <ele>1886</ele>
        <time>2021-03-19T14:13:17Z</time>
      </trkpt>
      <trkpt lat="44.81548" lon="6.95369">
        <ele>1886</ele>
        <time>2021-03-19T14:13:18Z</time>
      </trkpt>
      <trkpt lat="44.81548" lon="6.95369">
        <ele>1886</ele>
        <time>2021-03-19T14:13:19Z</time>
      </trkpt>
      <trkpt lat="44.81547" lon="6.95369">
        <ele>1886</ele>
        <time>2021-03-19T14:13:20Z</time>
      </trkpt>
      <trkpt lat="44.81546" lon="6.9537">
        <ele>1886</ele>
        <time>2021-03-19T14:13:21Z</time>
      </trkpt>
      <trkpt lat="44.81545" lon="6.9537">
        <ele>1886</ele>
        <time>2021-03-19T14:13:22Z</time>
      </trkpt>
      <trkpt lat="44.81544" lon="6.95371">
        <ele>1886</ele>
        <time>2021-03-19T14:13:23Z</time>
      </trkpt>
      <trkpt lat="44.81544" lon="6.95371">
        <ele>1886</ele>
        <time>2021-03-19T14:13:24Z</time>
      </trkpt>
      <trkpt lat="44.81543" lon="6.95371">
        <ele>1886</ele>
        <time>2021-03-19T14:13:25Z</time>
      </trkpt>
      <trkpt lat="44.81542" lon="6.95372">
        <ele>1886</ele>
        <time>2021-03-19T14:13:26Z</time>
      </trkpt>
      <trkpt lat="44.81541" lon="6.95372">
        <ele>1887</ele>
        <time>2021-03-19T14:13:27Z</time>
      </trkpt>
      <trkpt lat="44.81541" lon="6.95373">
        <ele>1887</ele>
        <time>2021-03-19T14:13:28Z</time>
      </trkpt>
      <trkpt lat="44.8154" lon="6.95373">
        <ele>1887</ele>
        <time>2021-03-19T14:13:29Z</time>
      </trkpt>
      <trkpt lat="44.8154" lon="6.95374">
        <ele>1887</ele>
        <time>2021-03-19T14:13:30Z</time>
      </trkpt>
      <trkpt lat="44.81539" lon="6.95375">
        <ele>1887</ele>
        <time>2021-03-19T14:13:31Z</time>
      </trkpt>
      <trkpt lat="44.81539" lon="6.95376">
        <ele>1887</ele>
        <time>2021-03-19T14:13:32Z</time>
      </trkpt>
      <trkpt lat="44.81539" lon="6.95376">
        <ele>1887</ele>
        <time>2021-03-19T14:13:33Z</time>
      </trkpt>
      <trkpt lat="44.81538" lon="6.95377">
        <ele>1887</ele>
        <time>2021-03-19T14:13:34Z</time>
      </trkpt>
      <trkpt lat="44.81538" lon="6.95378">
        <ele>1887</ele>
        <time>2021-03-19T14:13:35Z</time>
      </trkpt>
      <trkpt lat="44.81537" lon="6.95379">
        <ele>1887</ele>
        <time>2021-03-19T14:13:36Z</time>
      </trkpt>
      <trkpt lat="44.81537" lon="6.95379">
        <ele>1887</ele>
        <time>2021-03-19T14:13:37Z</time>
      </trkpt>
      <trkpt lat="44.81536" lon="6.9538">
        <ele>1887</ele>
        <time>2021-03-19T14:13:38Z</time>
      </trkpt>
      <trkpt lat="44.81536" lon="6.95381">
        <ele>1887</ele>
        <time>2021-03-19T14:13:39Z</time>
      </trkpt>
      <trkpt lat="44.81535" lon="6.95381">
        <ele>1887</ele>
        <time>2021-03-19T14:13:40Z</time>
      </trkpt>
      <trkpt lat="44.81535" lon="6.95382">
        <ele>1887</ele>
        <time>2021-03-19T14:13:41Z</time>
      </trkpt>
      <trkpt lat="44.81534" lon="6.95383">
        <ele>1888</ele>
        <time>2021-03-19T14:13:42Z</time>
      </trkpt>
      <trkpt lat="44.81533" lon="6.95384">
        <ele>1888</ele>
        <time>2021-03-19T14:13:43Z</time>
      </trkpt>
      <trkpt lat="44.81533" lon="6.95385">
        <ele>1888</ele>
        <time>2021-03-19T14:13:44Z</time>
      </trkpt>
      <trkpt lat="44.81532" lon="6.95385">
        <ele>1888</ele>
        <time>2021-03-19T14:13:45Z</time>
      </trkpt>
      <trkpt lat="44.81531" lon="6.95386">
        <ele>1888</ele>
        <time>2021-03-19T14:13:46Z</time>
      </trkpt>
      <trkpt lat="44.81531" lon="6.95387">
        <ele>1889</ele>
        <time>2021-03-19T14:13:47Z</time>
      </trkpt>
      <trkpt lat="44.8153" lon="6.95388">
        <ele>1889</ele>
        <time>2021-03-19T14:13:48Z</time>
      </trkpt>
      <trkpt lat="44.81529" lon="6.95388">
        <ele>1889</ele>
        <time>2021-03-19T14:13:49Z</time>
      </trkpt>
      <trkpt lat="44.81528" lon="6.95389">
        <ele>1889</ele>
        <time>2021-03-19T14:13:50Z</time>
      </trkpt>
      <trkpt lat="44.81528" lon="6.95389">
        <ele>1889</ele>
        <time>2021-03-19T14:13:51Z</time>
      </trkpt>
      <trkpt lat="44.81527" lon="6.9539">
        <ele>1890</ele>
        <time>2021-03-19T14:13:52Z</time>
      </trkpt>
      <trkpt lat="44.81526" lon="6.95391">
        <ele>1890</ele>
        <time>2021-03-19T14:13:53Z</time>
      </trkpt>
      <trkpt lat="44.81525" lon="6.95392">
        <ele>1890</ele>
        <time>2021-03-19T14:13:54Z</time>
      </trkpt>
      <trkpt lat="44.81524" lon="6.95392">
        <ele>1890</ele>
        <time>2021-03-19T14:13:55Z</time>
      </trkpt>
      <trkpt lat="44.81523" lon="6.95393">
        <ele>1890</ele>
        <time>2021-03-19T14:13:56Z</time>
      </trkpt>
      <trkpt lat="44.81523" lon="6.95394">
        <ele>1890</ele>
        <time>2021-03-19T14:13:57Z</time>
      </trkpt>
      <trkpt lat="44.81522" lon="6.95395">
        <ele>1890</ele>
        <time>2021-03-19T14:13:58Z</time>
      </trkpt>
      <trkpt lat="44.81521" lon="6.95395">
        <ele>1890</ele>
        <time>2021-03-19T14:13:59Z</time>
      </trkpt>
      <trkpt lat="44.8152" lon="6.95396">
        <ele>1890</ele>
        <time>2021-03-19T14:14:00Z</time>
      </trkpt>
      <trkpt lat="44.81519" lon="6.95396">
        <ele>1890</ele>
        <time>2021-03-19T14:14:01Z</time>
      </trkpt>
      <trkpt lat="44.81518" lon="6.95397">
        <ele>1890</ele>
        <time>2021-03-19T14:14:02Z</time>
      </trkpt>
      <trkpt lat="44.81517" lon="6.95398">
        <ele>1889</ele>
        <time>2021-03-19T14:14:03Z</time>
      </trkpt>
      <trkpt lat="44.81516" lon="6.95398">
        <ele>1889</ele>
        <time>2021-03-19T14:14:04Z</time>
      </trkpt>
      <trkpt lat="44.81515" lon="6.95399">
        <ele>1889</ele>
        <time>2021-03-19T14:14:05Z</time>
      </trkpt>
      <trkpt lat="44.81514" lon="6.954">
        <ele>1889</ele>
        <time>2021-03-19T14:14:06Z</time>
      </trkpt>
      <trkpt lat="44.81514" lon="6.954">
        <ele>1889</ele>
        <time>2021-03-19T14:14:07Z</time>
      </trkpt>
      <trkpt lat="44.81513" lon="6.95401">
        <ele>1889</ele>
        <time>2021-03-19T14:14:08Z</time>
      </trkpt>
      <trkpt lat="44.81512" lon="6.95401">
        <ele>1889</ele>
        <time>2021-03-19T14:14:09Z</time>
      </trkpt>
      <trkpt lat="44.81511" lon="6.95402">
        <ele>1889</ele>
        <time>2021-03-19T14:14:10Z</time>
      </trkpt>
      <trkpt lat="44.8151" lon="6.95403">
        <ele>1889</ele>
        <time>2021-03-19T14:14:11Z</time>
      </trkpt>
      <trkpt lat="44.81509" lon="6.95404">
        <ele>1889</ele>
        <time>2021-03-19T14:14:12Z</time>
      </trkpt>
      <trkpt lat="44.81507" lon="6.95404">
        <ele>1888</ele>
        <time>2021-03-19T14:14:13Z</time>
      </trkpt>
      <trkpt lat="44.81506" lon="6.95405">
        <ele>1888</ele>
        <time>2021-03-19T14:14:14Z</time>
      </trkpt>
      <trkpt lat="44.81505" lon="6.95405">
        <ele>1888</ele>
        <time>2021-03-19T14:14:15Z</time>
      </trkpt>
      <trkpt lat="44.81505" lon="6.95405">
        <ele>1888</ele>
        <time>2021-03-19T14:14:16Z</time>
      </trkpt>
      <trkpt lat="44.81504" lon="6.95406">
        <ele>1888</ele>
        <time>2021-03-19T14:14:17Z</time>
      </trkpt>
      <trkpt lat="44.81504" lon="6.95406">
        <ele>1888</ele>
        <time>2021-03-19T14:14:18Z</time>
      </trkpt>
      <trkpt lat="44.81503" lon="6.95407">
        <ele>1888</ele>
        <time>2021-03-19T14:14:25Z</time>
      </trkpt>
      <trkpt lat="44.81503" lon="6.95406">
        <ele>1888</ele>
        <time>2021-03-19T14:14:26Z</time>
      </trkpt>
      <trkpt lat="44.81503" lon="6.95406">
        <ele>1888</ele>
        <time>2021-03-19T14:14:27Z</time>
      </trkpt>
      <trkpt lat="44.81503" lon="6.95406">
        <ele>1888</ele>
        <time>2021-03-19T14:14:28Z</time>
      </trkpt>
      <trkpt lat="44.81504" lon="6.95405">
        <ele>1888</ele>
        <time>2021-03-19T14:14:29Z</time>
      </trkpt>
      <trkpt lat="44.81504" lon="6.95405">
        <ele>1888</ele>
        <time>2021-03-19T14:14:30Z</time>
      </trkpt>
      <trkpt lat="44.81505" lon="6.95404">
        <ele>1888</ele>
        <time>2021-03-19T14:14:31Z</time>
      </trkpt>
      <trkpt lat="44.81506" lon="6.95406">
        <ele>1887</ele>
        <time>2021-03-19T14:14:59Z</time>
      </trkpt>
      <trkpt lat="44.81506" lon="6.95408">
        <ele>1887</ele>
        <time>2021-03-19T14:15:00Z</time>
      </trkpt>
      <trkpt lat="44.81507" lon="6.95409">
        <ele>1887</ele>
        <time>2021-03-19T14:15:01Z</time>
      </trkpt>
      <trkpt lat="44.81506" lon="6.95409">
        <ele>1887</ele>
        <time>2021-03-19T14:15:02Z</time>
      </trkpt>
      <trkpt lat="44.81506" lon="6.9541">
        <ele>1887</ele>
        <time>2021-03-19T14:15:03Z</time>
      </trkpt>
      <trkpt lat="44.81506" lon="6.9541">
        <ele>1887</ele>
        <time>2021-03-19T14:15:04Z</time>
      </trkpt>
      <trkpt lat="44.81506" lon="6.9541">
        <ele>1887</ele>
        <time>2021-03-19T14:15:05Z</time>
      </trkpt>
      <trkpt lat="44.81505" lon="6.9541">
        <ele>1887</ele>
        <time>2021-03-19T14:15:06Z</time>
      </trkpt>
      <trkpt lat="44.81505" lon="6.9541">
        <ele>1887</ele>
        <time>2021-03-19T14:15:07Z</time>
      </trkpt>
      <trkpt lat="44.81504" lon="6.9541">
        <ele>1887</ele>
        <time>2021-03-19T14:15:08Z</time>
      </trkpt>
      <trkpt lat="44.81504" lon="6.9541">
        <ele>1887</ele>
        <time>2021-03-19T14:15:09Z</time>
      </trkpt>
      <trkpt lat="44.81504" lon="6.9541">
        <ele>1887</ele>
        <time>2021-03-19T14:15:10Z</time>
      </trkpt>
      <trkpt lat="44.81503" lon="6.9541">
        <ele>1887</ele>
        <time>2021-03-19T14:15:11Z</time>
      </trkpt>
      <trkpt lat="44.81502" lon="6.9541">
        <ele>1887</ele>
        <time>2021-03-19T14:15:12Z</time>
      </trkpt>
      <trkpt lat="44.81502" lon="6.9541">
        <ele>1887</ele>
        <time>2021-03-19T14:15:13Z</time>
      </trkpt>
      <trkpt lat="44.81501" lon="6.95411">
        <ele>1887</ele>
        <time>2021-03-19T14:15:14Z</time>
      </trkpt>
      <trkpt lat="44.815" lon="6.95411">
        <ele>1887</ele>
        <time>2021-03-19T14:15:15Z</time>
      </trkpt>
      <trkpt lat="44.81499" lon="6.95411">
        <ele>1887</ele>
        <time>2021-03-19T14:15:16Z</time>
      </trkpt>
      <trkpt lat="44.81498" lon="6.95412">
        <ele>1887</ele>
        <time>2021-03-19T14:15:17Z</time>
      </trkpt>
      <trkpt lat="44.81497" lon="6.95412">
        <ele>1887</ele>
        <time>2021-03-19T14:15:18Z</time>
      </trkpt>
      <trkpt lat="44.81496" lon="6.95412">
        <ele>1887</ele>
        <time>2021-03-19T14:15:19Z</time>
      </trkpt>
      <trkpt lat="44.81495" lon="6.95412">
        <ele>1887</ele>
        <time>2021-03-19T14:15:20Z</time>
      </trkpt>
      <trkpt lat="44.81494" lon="6.95413">
        <ele>1887</ele>
        <time>2021-03-19T14:15:21Z</time>
      </trkpt>
      <trkpt lat="44.81493" lon="6.95413">
        <ele>1887</ele>
        <time>2021-03-19T14:15:22Z</time>
      </trkpt>
      <trkpt lat="44.81492" lon="6.95413">
        <ele>1887</ele>
        <time>2021-03-19T14:15:23Z</time>
      </trkpt>
      <trkpt lat="44.81491" lon="6.95414">
        <ele>1887</ele>
        <time>2021-03-19T14:15:24Z</time>
      </trkpt>
      <trkpt lat="44.81489" lon="6.95414">
        <ele>1887</ele>
        <time>2021-03-19T14:15:25Z</time>
      </trkpt>
      <trkpt lat="44.81488" lon="6.95415">
        <ele>1887</ele>
        <time>2021-03-19T14:15:26Z</time>
      </trkpt>
      <trkpt lat="44.81487" lon="6.95415">
        <ele>1887</ele>
        <time>2021-03-19T14:15:27Z</time>
      </trkpt>
      <trkpt lat="44.81486" lon="6.95415">
        <ele>1887</ele>
        <time>2021-03-19T14:15:28Z</time>
      </trkpt>
      <trkpt lat="44.81485" lon="6.95415">
        <ele>1887</ele>
        <time>2021-03-19T14:15:29Z</time>
      </trkpt>
      <trkpt lat="44.81485" lon="6.95415">
        <ele>1887</ele>
        <time>2021-03-19T14:15:30Z</time>
      </trkpt>
      <trkpt lat="44.81484" lon="6.95415">
        <ele>1887</ele>
        <time>2021-03-19T14:15:31Z</time>
      </trkpt>
      <trkpt lat="44.81483" lon="6.95416">
        <ele>1887</ele>
        <time>2021-03-19T14:15:32Z</time>
      </trkpt>
      <trkpt lat="44.81482" lon="6.95416">
        <ele>1886</ele>
        <time>2021-03-19T14:15:33Z</time>
      </trkpt>
      <trkpt lat="44.81482" lon="6.95417">
        <ele>1886</ele>
        <time>2021-03-19T14:15:34Z</time>
      </trkpt>
      <trkpt lat="44.81481" lon="6.95418">
        <ele>1886</ele>
        <time>2021-03-19T14:15:35Z</time>
      </trkpt>
      <trkpt lat="44.8148" lon="6.95418">
        <ele>1886</ele>
        <time>2021-03-19T14:15:36Z</time>
      </trkpt>
      <trkpt lat="44.81479" lon="6.95419">
        <ele>1886</ele>
        <time>2021-03-19T14:15:37Z</time>
      </trkpt>
      <trkpt lat="44.81479" lon="6.9542">
        <ele>1886</ele>
        <time>2021-03-19T14:15:38Z</time>
      </trkpt>
      <trkpt lat="44.81478" lon="6.9542">
        <ele>1886</ele>
        <time>2021-03-19T14:15:39Z</time>
      </trkpt>
      <trkpt lat="44.81477" lon="6.95421">
        <ele>1886</ele>
        <time>2021-03-19T14:15:40Z</time>
      </trkpt>
      <trkpt lat="44.81476" lon="6.95421">
        <ele>1886</ele>
        <time>2021-03-19T14:15:41Z</time>
      </trkpt>
      <trkpt lat="44.81475" lon="6.95422">
        <ele>1886</ele>
        <time>2021-03-19T14:15:42Z</time>
      </trkpt>
      <trkpt lat="44.81474" lon="6.95422">
        <ele>1885</ele>
        <time>2021-03-19T14:15:43Z</time>
      </trkpt>
      <trkpt lat="44.81473" lon="6.95423">
        <ele>1885</ele>
        <time>2021-03-19T14:15:44Z</time>
      </trkpt>
      <trkpt lat="44.81472" lon="6.95424">
        <ele>1885</ele>
        <time>2021-03-19T14:15:45Z</time>
      </trkpt>
      <trkpt lat="44.81471" lon="6.95425">
        <ele>1885</ele>
        <time>2021-03-19T14:15:46Z</time>
      </trkpt>
      <trkpt lat="44.8147" lon="6.95426">
        <ele>1885</ele>
        <time>2021-03-19T14:15:47Z</time>
      </trkpt>
      <trkpt lat="44.8147" lon="6.95427">
        <ele>1885</ele>
        <time>2021-03-19T14:15:48Z</time>
      </trkpt>
      <trkpt lat="44.81469" lon="6.95428">
        <ele>1885</ele>
        <time>2021-03-19T14:15:49Z</time>
      </trkpt>
      <trkpt lat="44.81468" lon="6.95429">
        <ele>1885</ele>
        <time>2021-03-19T14:15:50Z</time>
      </trkpt>
      <trkpt lat="44.81468" lon="6.9543">
        <ele>1885</ele>
        <time>2021-03-19T14:15:51Z</time>
      </trkpt>
      <trkpt lat="44.81467" lon="6.9543">
        <ele>1885</ele>
        <time>2021-03-19T14:15:52Z</time>
      </trkpt>
      <trkpt lat="44.81466" lon="6.95431">
        <ele>1885</ele>
        <time>2021-03-19T14:15:53Z</time>
      </trkpt>
      <trkpt lat="44.81465" lon="6.95432">
        <ele>1885</ele>
        <time>2021-03-19T14:15:54Z</time>
      </trkpt>
      <trkpt lat="44.81464" lon="6.95434">
        <ele>1885</ele>
        <time>2021-03-19T14:15:55Z</time>
      </trkpt>
      <trkpt lat="44.81463" lon="6.95435">
        <ele>1885</ele>
        <time>2021-03-19T14:15:56Z</time>
      </trkpt>
      <trkpt lat="44.81463" lon="6.95436">
        <ele>1885</ele>
        <time>2021-03-19T14:15:57Z</time>
      </trkpt>
      <trkpt lat="44.81462" lon="6.95437">
        <ele>1885</ele>
        <time>2021-03-19T14:15:58Z</time>
      </trkpt>
      <trkpt lat="44.81461" lon="6.95439">
        <ele>1885</ele>
        <time>2021-03-19T14:15:59Z</time>
      </trkpt>
      <trkpt lat="44.8146" lon="6.9544">
        <ele>1885</ele>
        <time>2021-03-19T14:16:00Z</time>
      </trkpt>
      <trkpt lat="44.81459" lon="6.95441">
        <ele>1885</ele>
        <time>2021-03-19T14:16:01Z</time>
      </trkpt>
      <trkpt lat="44.81459" lon="6.95442">
        <ele>1885</ele>
        <time>2021-03-19T14:16:02Z</time>
      </trkpt>
      <trkpt lat="44.81458" lon="6.95443">
        <ele>1885</ele>
        <time>2021-03-19T14:16:03Z</time>
      </trkpt>
      <trkpt lat="44.81458" lon="6.95444">
        <ele>1885</ele>
        <time>2021-03-19T14:16:04Z</time>
      </trkpt>
      <trkpt lat="44.81458" lon="6.95445">
        <ele>1885</ele>
        <time>2021-03-19T14:16:05Z</time>
      </trkpt>
      <trkpt lat="44.81457" lon="6.95446">
        <ele>1885</ele>
        <time>2021-03-19T14:16:06Z</time>
      </trkpt>
      <trkpt lat="44.81457" lon="6.95447">
        <ele>1885</ele>
        <time>2021-03-19T14:16:07Z</time>
      </trkpt>
      <trkpt lat="44.81456" lon="6.95448">
        <ele>1884</ele>
        <time>2021-03-19T14:16:08Z</time>
      </trkpt>
      <trkpt lat="44.81456" lon="6.95449">
        <ele>1884</ele>
        <time>2021-03-19T14:16:09Z</time>
      </trkpt>
      <trkpt lat="44.81455" lon="6.95451">
        <ele>1884</ele>
        <time>2021-03-19T14:16:10Z</time>
      </trkpt>
      <trkpt lat="44.81455" lon="6.95452">
        <ele>1884</ele>
        <time>2021-03-19T14:16:11Z</time>
      </trkpt>
      <trkpt lat="44.81454" lon="6.95453">
        <ele>1884</ele>
        <time>2021-03-19T14:16:12Z</time>
      </trkpt>
      <trkpt lat="44.81454" lon="6.95454">
        <ele>1884</ele>
        <time>2021-03-19T14:16:13Z</time>
      </trkpt>
      <trkpt lat="44.81453" lon="6.95455">
        <ele>1884</ele>
        <time>2021-03-19T14:16:14Z</time>
      </trkpt>
      <trkpt lat="44.81453" lon="6.95457">
        <ele>1884</ele>
        <time>2021-03-19T14:16:15Z</time>
      </trkpt>
      <trkpt lat="44.81453" lon="6.95458">
        <ele>1884</ele>
        <time>2021-03-19T14:16:16Z</time>
      </trkpt>
      <trkpt lat="44.81452" lon="6.95459">
        <ele>1885</ele>
        <time>2021-03-19T14:16:17Z</time>
      </trkpt>
      <trkpt lat="44.81452" lon="6.9546">
        <ele>1885</ele>
        <time>2021-03-19T14:16:18Z</time>
      </trkpt>
      <trkpt lat="44.81451" lon="6.9546">
        <ele>1885</ele>
        <time>2021-03-19T14:16:19Z</time>
      </trkpt>
      <trkpt lat="44.81451" lon="6.95461">
        <ele>1885</ele>
        <time>2021-03-19T14:16:20Z</time>
      </trkpt>
      <trkpt lat="44.8145" lon="6.95462">
        <ele>1885</ele>
        <time>2021-03-19T14:16:21Z</time>
      </trkpt>
      <trkpt lat="44.8145" lon="6.95462">
        <ele>1885</ele>
        <time>2021-03-19T14:16:22Z</time>
      </trkpt>
      <trkpt lat="44.81449" lon="6.95463">
        <ele>1885</ele>
        <time>2021-03-19T14:16:23Z</time>
      </trkpt>
      <trkpt lat="44.81448" lon="6.95464">
        <ele>1885</ele>
        <time>2021-03-19T14:16:24Z</time>
      </trkpt>
      <trkpt lat="44.81447" lon="6.95465">
        <ele>1885</ele>
        <time>2021-03-19T14:16:25Z</time>
      </trkpt>
      <trkpt lat="44.81446" lon="6.95465">
        <ele>1885</ele>
        <time>2021-03-19T14:16:26Z</time>
      </trkpt>
      <trkpt lat="44.81445" lon="6.95466">
        <ele>1885</ele>
        <time>2021-03-19T14:16:27Z</time>
      </trkpt>
      <trkpt lat="44.81444" lon="6.95467">
        <ele>1884</ele>
        <time>2021-03-19T14:16:28Z</time>
      </trkpt>
      <trkpt lat="44.81443" lon="6.95467">
        <ele>1884</ele>
        <time>2021-03-19T14:16:29Z</time>
      </trkpt>
      <trkpt lat="44.81442" lon="6.95468">
        <ele>1884</ele>
        <time>2021-03-19T14:16:30Z</time>
      </trkpt>
      <trkpt lat="44.81441" lon="6.95469">
        <ele>1884</ele>
        <time>2021-03-19T14:16:31Z</time>
      </trkpt>
      <trkpt lat="44.8144" lon="6.9547">
        <ele>1884</ele>
        <time>2021-03-19T14:16:32Z</time>
      </trkpt>
      <trkpt lat="44.81439" lon="6.9547">
        <ele>1884</ele>
        <time>2021-03-19T14:16:33Z</time>
      </trkpt>
      <trkpt lat="44.81438" lon="6.95471">
        <ele>1884</ele>
        <time>2021-03-19T14:16:34Z</time>
      </trkpt>
      <trkpt lat="44.81437" lon="6.95472">
        <ele>1884</ele>
        <time>2021-03-19T14:16:35Z</time>
      </trkpt>
      <trkpt lat="44.81436" lon="6.95473">
        <ele>1884</ele>
        <time>2021-03-19T14:16:36Z</time>
      </trkpt>
      <trkpt lat="44.81436" lon="6.95473">
        <ele>1884</ele>
        <time>2021-03-19T14:16:37Z</time>
      </trkpt>
      <trkpt lat="44.81435" lon="6.95474">
        <ele>1883</ele>
        <time>2021-03-19T14:16:38Z</time>
      </trkpt>
      <trkpt lat="44.81434" lon="6.95475">
        <ele>1883</ele>
        <time>2021-03-19T14:16:39Z</time>
      </trkpt>
      <trkpt lat="44.81434" lon="6.95475">
        <ele>1883</ele>
        <time>2021-03-19T14:16:40Z</time>
      </trkpt>
      <trkpt lat="44.81433" lon="6.95476">
        <ele>1883</ele>
        <time>2021-03-19T14:16:41Z</time>
      </trkpt>
      <trkpt lat="44.81433" lon="6.95477">
        <ele>1883</ele>
        <time>2021-03-19T14:16:42Z</time>
      </trkpt>
      <trkpt lat="44.81432" lon="6.95478">
        <ele>1882</ele>
        <time>2021-03-19T14:16:43Z</time>
      </trkpt>
      <trkpt lat="44.81432" lon="6.95479">
        <ele>1882</ele>
        <time>2021-03-19T14:16:44Z</time>
      </trkpt>
      <trkpt lat="44.81431" lon="6.95479">
        <ele>1882</ele>
        <time>2021-03-19T14:16:45Z</time>
      </trkpt>
      <trkpt lat="44.8143" lon="6.9548">
        <ele>1882</ele>
        <time>2021-03-19T14:16:46Z</time>
      </trkpt>
      <trkpt lat="44.81429" lon="6.95481">
        <ele>1882</ele>
        <time>2021-03-19T14:16:47Z</time>
      </trkpt>
      <trkpt lat="44.81428" lon="6.95482">
        <ele>1882</ele>
        <time>2021-03-19T14:16:48Z</time>
      </trkpt>
      <trkpt lat="44.81427" lon="6.95483">
        <ele>1882</ele>
        <time>2021-03-19T14:16:49Z</time>
      </trkpt>
      <trkpt lat="44.81426" lon="6.95484">
        <ele>1882</ele>
        <time>2021-03-19T14:16:50Z</time>
      </trkpt>
      <trkpt lat="44.81425" lon="6.95486">
        <ele>1882</ele>
        <time>2021-03-19T14:16:51Z</time>
      </trkpt>
      <trkpt lat="44.81424" lon="6.95487">
        <ele>1882</ele>
        <time>2021-03-19T14:16:52Z</time>
      </trkpt>
      <trkpt lat="44.81424" lon="6.95488">
        <ele>1882</ele>
        <time>2021-03-19T14:16:53Z</time>
      </trkpt>
      <trkpt lat="44.81423" lon="6.95489">
        <ele>1882</ele>
        <time>2021-03-19T14:16:54Z</time>
      </trkpt>
      <trkpt lat="44.81423" lon="6.9549">
        <ele>1882</ele>
        <time>2021-03-19T14:16:55Z</time>
      </trkpt>
      <trkpt lat="44.81422" lon="6.95491">
        <ele>1882</ele>
        <time>2021-03-19T14:16:56Z</time>
      </trkpt>
      <trkpt lat="44.81422" lon="6.95492">
        <ele>1882</ele>
        <time>2021-03-19T14:16:57Z</time>
      </trkpt>
      <trkpt lat="44.81422" lon="6.95494">
        <ele>1881</ele>
        <time>2021-03-19T14:16:58Z</time>
      </trkpt>
      <trkpt lat="44.81421" lon="6.95495">
        <ele>1881</ele>
        <time>2021-03-19T14:16:59Z</time>
      </trkpt>
      <trkpt lat="44.81421" lon="6.95496">
        <ele>1881</ele>
        <time>2021-03-19T14:17:00Z</time>
      </trkpt>
      <trkpt lat="44.81421" lon="6.95497">
        <ele>1881</ele>
        <time>2021-03-19T14:17:01Z</time>
      </trkpt>
      <trkpt lat="44.8142" lon="6.95498">
        <ele>1881</ele>
        <time>2021-03-19T14:17:02Z</time>
      </trkpt>
      <trkpt lat="44.8142" lon="6.95499">
        <ele>1881</ele>
        <time>2021-03-19T14:17:03Z</time>
      </trkpt>
      <trkpt lat="44.81419" lon="6.95501">
        <ele>1881</ele>
        <time>2021-03-19T14:17:04Z</time>
      </trkpt>
      <trkpt lat="44.81419" lon="6.95502">
        <ele>1881</ele>
        <time>2021-03-19T14:17:05Z</time>
      </trkpt>
      <trkpt lat="44.81418" lon="6.95503">
        <ele>1881</ele>
        <time>2021-03-19T14:17:06Z</time>
      </trkpt>
      <trkpt lat="44.81418" lon="6.95504">
        <ele>1882</ele>
        <time>2021-03-19T14:17:07Z</time>
      </trkpt>
      <trkpt lat="44.81417" lon="6.95506">
        <ele>1882</ele>
        <time>2021-03-19T14:17:08Z</time>
      </trkpt>
      <trkpt lat="44.81417" lon="6.95507">
        <ele>1882</ele>
        <time>2021-03-19T14:17:09Z</time>
      </trkpt>
      <trkpt lat="44.81416" lon="6.95508">
        <ele>1882</ele>
        <time>2021-03-19T14:17:10Z</time>
      </trkpt>
      <trkpt lat="44.81416" lon="6.95509">
        <ele>1882</ele>
        <time>2021-03-19T14:17:11Z</time>
      </trkpt>
      <trkpt lat="44.81416" lon="6.9551">
        <ele>1883</ele>
        <time>2021-03-19T14:17:12Z</time>
      </trkpt>
      <trkpt lat="44.81415" lon="6.95511">
        <ele>1883</ele>
        <time>2021-03-19T14:17:13Z</time>
      </trkpt>
      <trkpt lat="44.81415" lon="6.95512">
        <ele>1883</ele>
        <time>2021-03-19T14:17:14Z</time>
      </trkpt>
      <trkpt lat="44.81414" lon="6.95513">
        <ele>1883</ele>
        <time>2021-03-19T14:17:15Z</time>
      </trkpt>
      <trkpt lat="44.81414" lon="6.95515">
        <ele>1883</ele>
        <time>2021-03-19T14:17:16Z</time>
      </trkpt>
      <trkpt lat="44.81413" lon="6.95516">
        <ele>1883</ele>
        <time>2021-03-19T14:17:17Z</time>
      </trkpt>
      <trkpt lat="44.81413" lon="6.95517">
        <ele>1883</ele>
        <time>2021-03-19T14:17:18Z</time>
      </trkpt>
      <trkpt lat="44.81412" lon="6.95518">
        <ele>1883</ele>
        <time>2021-03-19T14:17:19Z</time>
      </trkpt>
      <trkpt lat="44.81412" lon="6.95519">
        <ele>1883</ele>
        <time>2021-03-19T14:17:20Z</time>
      </trkpt>
      <trkpt lat="44.81412" lon="6.9552">
        <ele>1883</ele>
        <time>2021-03-19T14:17:21Z</time>
      </trkpt>
      <trkpt lat="44.81411" lon="6.95522">
        <ele>1883</ele>
        <time>2021-03-19T14:17:22Z</time>
      </trkpt>
      <trkpt lat="44.81411" lon="6.95523">
        <ele>1883</ele>
        <time>2021-03-19T14:17:23Z</time>
      </trkpt>
      <trkpt lat="44.8141" lon="6.95524">
        <ele>1883</ele>
        <time>2021-03-19T14:17:24Z</time>
      </trkpt>
      <trkpt lat="44.8141" lon="6.95526">
        <ele>1883</ele>
        <time>2021-03-19T14:17:25Z</time>
      </trkpt>
      <trkpt lat="44.81409" lon="6.95527">
        <ele>1883</ele>
        <time>2021-03-19T14:17:26Z</time>
      </trkpt>
      <trkpt lat="44.81409" lon="6.95528">
        <ele>1883</ele>
        <time>2021-03-19T14:17:27Z</time>
      </trkpt>
      <trkpt lat="44.81408" lon="6.95529">
        <ele>1883</ele>
        <time>2021-03-19T14:17:28Z</time>
      </trkpt>
      <trkpt lat="44.81407" lon="6.9553">
        <ele>1883</ele>
        <time>2021-03-19T14:17:29Z</time>
      </trkpt>
      <trkpt lat="44.81407" lon="6.95531">
        <ele>1883</ele>
        <time>2021-03-19T14:17:30Z</time>
      </trkpt>
      <trkpt lat="44.81406" lon="6.95532">
        <ele>1883</ele>
        <time>2021-03-19T14:17:31Z</time>
      </trkpt>
      <trkpt lat="44.81406" lon="6.95533">
        <ele>1883</ele>
        <time>2021-03-19T14:17:32Z</time>
      </trkpt>
      <trkpt lat="44.81405" lon="6.95534">
        <ele>1883</ele>
        <time>2021-03-19T14:17:33Z</time>
      </trkpt>
      <trkpt lat="44.81404" lon="6.95535">
        <ele>1883</ele>
        <time>2021-03-19T14:17:34Z</time>
      </trkpt>
      <trkpt lat="44.81404" lon="6.95535">
        <ele>1883</ele>
        <time>2021-03-19T14:17:35Z</time>
      </trkpt>
      <trkpt lat="44.81403" lon="6.95536">
        <ele>1883</ele>
        <time>2021-03-19T14:17:36Z</time>
      </trkpt>
      <trkpt lat="44.81402" lon="6.95537">
        <ele>1883</ele>
        <time>2021-03-19T14:17:37Z</time>
      </trkpt>
      <trkpt lat="44.81402" lon="6.95538">
        <ele>1882</ele>
        <time>2021-03-19T14:17:38Z</time>
      </trkpt>
      <trkpt lat="44.81402" lon="6.95539">
        <ele>1882</ele>
        <time>2021-03-19T14:17:39Z</time>
      </trkpt>
      <trkpt lat="44.81401" lon="6.9554">
        <ele>1882</ele>
        <time>2021-03-19T14:17:40Z</time>
      </trkpt>
      <trkpt lat="44.81401" lon="6.95542">
        <ele>1882</ele>
        <time>2021-03-19T14:17:41Z</time>
      </trkpt>
      <trkpt lat="44.81401" lon="6.95543">
        <ele>1882</ele>
        <time>2021-03-19T14:17:42Z</time>
      </trkpt>
      <trkpt lat="44.814" lon="6.95544">
        <ele>1882</ele>
        <time>2021-03-19T14:17:43Z</time>
      </trkpt>
      <trkpt lat="44.814" lon="6.95545">
        <ele>1882</ele>
        <time>2021-03-19T14:17:44Z</time>
      </trkpt>
      <trkpt lat="44.814" lon="6.95547">
        <ele>1882</ele>
        <time>2021-03-19T14:17:45Z</time>
      </trkpt>
      <trkpt lat="44.814" lon="6.95548">
        <ele>1882</ele>
        <time>2021-03-19T14:17:46Z</time>
      </trkpt>
      <trkpt lat="44.81399" lon="6.95549">
        <ele>1882</ele>
        <time>2021-03-19T14:17:47Z</time>
      </trkpt>
      <trkpt lat="44.81399" lon="6.95551">
        <ele>1882</ele>
        <time>2021-03-19T14:17:48Z</time>
      </trkpt>
      <trkpt lat="44.81398" lon="6.95552">
        <ele>1882</ele>
        <time>2021-03-19T14:17:49Z</time>
      </trkpt>
      <trkpt lat="44.81398" lon="6.95553">
        <ele>1882</ele>
        <time>2021-03-19T14:17:50Z</time>
      </trkpt>
      <trkpt lat="44.81397" lon="6.95555">
        <ele>1882</ele>
        <time>2021-03-19T14:17:51Z</time>
      </trkpt>
      <trkpt lat="44.81396" lon="6.95556">
        <ele>1882</ele>
        <time>2021-03-19T14:17:52Z</time>
      </trkpt>
      <trkpt lat="44.81396" lon="6.95557">
        <ele>1882</ele>
        <time>2021-03-19T14:17:53Z</time>
      </trkpt>
      <trkpt lat="44.81395" lon="6.95558">
        <ele>1882</ele>
        <time>2021-03-19T14:17:54Z</time>
      </trkpt>
      <trkpt lat="44.81395" lon="6.95559">
        <ele>1882</ele>
        <time>2021-03-19T14:17:55Z</time>
      </trkpt>
      <trkpt lat="44.81394" lon="6.9556">
        <ele>1882</ele>
        <time>2021-03-19T14:17:56Z</time>
      </trkpt>
      <trkpt lat="44.81394" lon="6.95561">
        <ele>1882</ele>
        <time>2021-03-19T14:17:57Z</time>
      </trkpt>
      <trkpt lat="44.81394" lon="6.95563">
        <ele>1882</ele>
        <time>2021-03-19T14:17:58Z</time>
      </trkpt>
      <trkpt lat="44.81393" lon="6.95564">
        <ele>1882</ele>
        <time>2021-03-19T14:17:59Z</time>
      </trkpt>
      <trkpt lat="44.81393" lon="6.95565">
        <ele>1882</ele>
        <time>2021-03-19T14:18:00Z</time>
      </trkpt>
      <trkpt lat="44.81393" lon="6.95566">
        <ele>1882</ele>
        <time>2021-03-19T14:18:01Z</time>
      </trkpt>
      <trkpt lat="44.81392" lon="6.95567">
        <ele>1883</ele>
        <time>2021-03-19T14:18:02Z</time>
      </trkpt>
      <trkpt lat="44.81392" lon="6.95568">
        <ele>1883</ele>
        <time>2021-03-19T14:18:03Z</time>
      </trkpt>
      <trkpt lat="44.81392" lon="6.95569">
        <ele>1883</ele>
        <time>2021-03-19T14:18:04Z</time>
      </trkpt>
      <trkpt lat="44.81392" lon="6.95569">
        <ele>1883</ele>
        <time>2021-03-19T14:18:05Z</time>
      </trkpt>
      <trkpt lat="44.81392" lon="6.9557">
        <ele>1883</ele>
        <time>2021-03-19T14:18:06Z</time>
      </trkpt>
      <trkpt lat="44.81391" lon="6.95571">
        <ele>1883</ele>
        <time>2021-03-19T14:18:07Z</time>
      </trkpt>
      <trkpt lat="44.81391" lon="6.95571">
        <ele>1883</ele>
        <time>2021-03-19T14:18:08Z</time>
      </trkpt>
      <trkpt lat="44.81391" lon="6.95572">
        <ele>1883</ele>
        <time>2021-03-19T14:18:09Z</time>
      </trkpt>
      <trkpt lat="44.81391" lon="6.95573">
        <ele>1883</ele>
        <time>2021-03-19T14:18:10Z</time>
      </trkpt>
      <trkpt lat="44.8139" lon="6.95574">
        <ele>1883</ele>
        <time>2021-03-19T14:18:11Z</time>
      </trkpt>
      <trkpt lat="44.8139" lon="6.95575">
        <ele>1883</ele>
        <time>2021-03-19T14:18:12Z</time>
      </trkpt>
      <trkpt lat="44.8139" lon="6.95576">
        <ele>1883</ele>
        <time>2021-03-19T14:18:13Z</time>
      </trkpt>
      <trkpt lat="44.8139" lon="6.95578">
        <ele>1883</ele>
        <time>2021-03-19T14:18:14Z</time>
      </trkpt>
      <trkpt lat="44.8139" lon="6.95579">
        <ele>1883</ele>
        <time>2021-03-19T14:18:15Z</time>
      </trkpt>
      <trkpt lat="44.8139" lon="6.95581">
        <ele>1883</ele>
        <time>2021-03-19T14:18:16Z</time>
      </trkpt>
      <trkpt lat="44.8139" lon="6.95582">
        <ele>1884</ele>
        <time>2021-03-19T14:18:17Z</time>
      </trkpt>
      <trkpt lat="44.8139" lon="6.95583">
        <ele>1884</ele>
        <time>2021-03-19T14:18:18Z</time>
      </trkpt>
      <trkpt lat="44.8139" lon="6.95584">
        <ele>1884</ele>
        <time>2021-03-19T14:18:19Z</time>
      </trkpt>
      <trkpt lat="44.8139" lon="6.95585">
        <ele>1884</ele>
        <time>2021-03-19T14:18:20Z</time>
      </trkpt>
      <trkpt lat="44.8139" lon="6.95586">
        <ele>1884</ele>
        <time>2021-03-19T14:18:21Z</time>
      </trkpt>
      <trkpt lat="44.81389" lon="6.95587">
        <ele>1884</ele>
        <time>2021-03-19T14:18:22Z</time>
      </trkpt>
      <trkpt lat="44.81389" lon="6.95588">
        <ele>1884</ele>
        <time>2021-03-19T14:18:23Z</time>
      </trkpt>
      <trkpt lat="44.81388" lon="6.95588">
        <ele>1884</ele>
        <time>2021-03-19T14:18:24Z</time>
      </trkpt>
      <trkpt lat="44.81388" lon="6.95589">
        <ele>1884</ele>
        <time>2021-03-19T14:18:25Z</time>
      </trkpt>
      <trkpt lat="44.81387" lon="6.9559">
        <ele>1884</ele>
        <time>2021-03-19T14:18:26Z</time>
      </trkpt>
      <trkpt lat="44.81387" lon="6.95592">
        <ele>1885</ele>
        <time>2021-03-19T14:18:27Z</time>
      </trkpt>
      <trkpt lat="44.81387" lon="6.95593">
        <ele>1884</ele>
        <time>2021-03-19T14:18:28Z</time>
      </trkpt>
      <trkpt lat="44.81386" lon="6.95594">
        <ele>1884</ele>
        <time>2021-03-19T14:18:29Z</time>
      </trkpt>
      <trkpt lat="44.81386" lon="6.95595">
        <ele>1884</ele>
        <time>2021-03-19T14:18:30Z</time>
      </trkpt>
      <trkpt lat="44.81387" lon="6.95596">
        <ele>1884</ele>
        <time>2021-03-19T14:18:31Z</time>
      </trkpt>
      <trkpt lat="44.81387" lon="6.95598">
        <ele>1884</ele>
        <time>2021-03-19T14:18:32Z</time>
      </trkpt>
      <trkpt lat="44.81387" lon="6.95599">
        <ele>1884</ele>
        <time>2021-03-19T14:18:33Z</time>
      </trkpt>
      <trkpt lat="44.81387" lon="6.956">
        <ele>1884</ele>
        <time>2021-03-19T14:18:34Z</time>
      </trkpt>
      <trkpt lat="44.81386" lon="6.956">
        <ele>1884</ele>
        <time>2021-03-19T14:18:35Z</time>
      </trkpt>
      <trkpt lat="44.81386" lon="6.95601">
        <ele>1884</ele>
        <time>2021-03-19T14:18:36Z</time>
      </trkpt>
      <trkpt lat="44.81386" lon="6.95602">
        <ele>1884</ele>
        <time>2021-03-19T14:18:37Z</time>
      </trkpt>
      <trkpt lat="44.81385" lon="6.95603">
        <ele>1884</ele>
        <time>2021-03-19T14:18:38Z</time>
      </trkpt>
      <trkpt lat="44.81385" lon="6.95604">
        <ele>1884</ele>
        <time>2021-03-19T14:18:39Z</time>
      </trkpt>
      <trkpt lat="44.81385" lon="6.95605">
        <ele>1884</ele>
        <time>2021-03-19T14:18:40Z</time>
      </trkpt>
      <trkpt lat="44.81385" lon="6.95606">
        <ele>1884</ele>
        <time>2021-03-19T14:18:41Z</time>
      </trkpt>
      <trkpt lat="44.81384" lon="6.95607">
        <ele>1884</ele>
        <time>2021-03-19T14:18:42Z</time>
      </trkpt>
      <trkpt lat="44.81383" lon="6.95608">
        <ele>1884</ele>
        <time>2021-03-19T14:18:43Z</time>
      </trkpt>
      <trkpt lat="44.81383" lon="6.95609">
        <ele>1884</ele>
        <time>2021-03-19T14:18:44Z</time>
      </trkpt>
      <trkpt lat="44.81382" lon="6.9561">
        <ele>1884</ele>
        <time>2021-03-19T14:18:45Z</time>
      </trkpt>
      <trkpt lat="44.81381" lon="6.95612">
        <ele>1884</ele>
        <time>2021-03-19T14:18:46Z</time>
      </trkpt>
      <trkpt lat="44.8138" lon="6.95613">
        <ele>1884</ele>
        <time>2021-03-19T14:18:47Z</time>
      </trkpt>
      <trkpt lat="44.8138" lon="6.95614">
        <ele>1884</ele>
        <time>2021-03-19T14:18:48Z</time>
      </trkpt>
      <trkpt lat="44.81379" lon="6.95615">
        <ele>1884</ele>
        <time>2021-03-19T14:18:49Z</time>
      </trkpt>
      <trkpt lat="44.81378" lon="6.95616">
        <ele>1884</ele>
        <time>2021-03-19T14:18:50Z</time>
      </trkpt>
      <trkpt lat="44.81377" lon="6.95617">
        <ele>1884</ele>
        <time>2021-03-19T14:18:51Z</time>
      </trkpt>
      <trkpt lat="44.81377" lon="6.95618">
        <ele>1884</ele>
        <time>2021-03-19T14:18:52Z</time>
      </trkpt>
      <trkpt lat="44.81376" lon="6.9562">
        <ele>1884</ele>
        <time>2021-03-19T14:18:53Z</time>
      </trkpt>
      <trkpt lat="44.81376" lon="6.95621">
        <ele>1884</ele>
        <time>2021-03-19T14:18:54Z</time>
      </trkpt>
      <trkpt lat="44.81375" lon="6.95622">
        <ele>1884</ele>
        <time>2021-03-19T14:18:55Z</time>
      </trkpt>
      <trkpt lat="44.81375" lon="6.95624">
        <ele>1884</ele>
        <time>2021-03-19T14:18:56Z</time>
      </trkpt>
      <trkpt lat="44.81374" lon="6.95625">
        <ele>1884</ele>
        <time>2021-03-19T14:18:57Z</time>
      </trkpt>
      <trkpt lat="44.81374" lon="6.95627">
        <ele>1884</ele>
        <time>2021-03-19T14:18:58Z</time>
      </trkpt>
      <trkpt lat="44.81373" lon="6.95628">
        <ele>1884</ele>
        <time>2021-03-19T14:18:59Z</time>
      </trkpt>
      <trkpt lat="44.81373" lon="6.95629">
        <ele>1884</ele>
        <time>2021-03-19T14:19:00Z</time>
      </trkpt>
      <trkpt lat="44.81373" lon="6.95631">
        <ele>1884</ele>
        <time>2021-03-19T14:19:01Z</time>
      </trkpt>
      <trkpt lat="44.81373" lon="6.95632">
        <ele>1884</ele>
        <time>2021-03-19T14:19:02Z</time>
      </trkpt>
      <trkpt lat="44.81372" lon="6.95633">
        <ele>1884</ele>
        <time>2021-03-19T14:19:03Z</time>
      </trkpt>
      <trkpt lat="44.81372" lon="6.95635">
        <ele>1884</ele>
        <time>2021-03-19T14:19:04Z</time>
      </trkpt>
      <trkpt lat="44.81372" lon="6.95636">
        <ele>1884</ele>
        <time>2021-03-19T14:19:05Z</time>
      </trkpt>
      <trkpt lat="44.81373" lon="6.95637">
        <ele>1884</ele>
        <time>2021-03-19T14:19:06Z</time>
      </trkpt>
      <trkpt lat="44.81372" lon="6.95638">
        <ele>1884</ele>
        <time>2021-03-19T14:19:07Z</time>
      </trkpt>
      <trkpt lat="44.81372" lon="6.9564">
        <ele>1884</ele>
        <time>2021-03-19T14:19:08Z</time>
      </trkpt>
      <trkpt lat="44.81372" lon="6.95641">
        <ele>1884</ele>
        <time>2021-03-19T14:19:09Z</time>
      </trkpt>
      <trkpt lat="44.81372" lon="6.95642">
        <ele>1884</ele>
        <time>2021-03-19T14:19:10Z</time>
      </trkpt>
      <trkpt lat="44.81371" lon="6.95643">
        <ele>1884</ele>
        <time>2021-03-19T14:19:11Z</time>
      </trkpt>
      <trkpt lat="44.81371" lon="6.95644">
        <ele>1884</ele>
        <time>2021-03-19T14:19:12Z</time>
      </trkpt>
      <trkpt lat="44.81371" lon="6.95645">
        <ele>1884</ele>
        <time>2021-03-19T14:19:13Z</time>
      </trkpt>
      <trkpt lat="44.8137" lon="6.95646">
        <ele>1884</ele>
        <time>2021-03-19T14:19:14Z</time>
      </trkpt>
      <trkpt lat="44.8137" lon="6.95648">
        <ele>1884</ele>
        <time>2021-03-19T14:19:15Z</time>
      </trkpt>
      <trkpt lat="44.81369" lon="6.95649">
        <ele>1884</ele>
        <time>2021-03-19T14:19:16Z</time>
      </trkpt>
      <trkpt lat="44.81369" lon="6.9565">
        <ele>1885</ele>
        <time>2021-03-19T14:19:17Z</time>
      </trkpt>
      <trkpt lat="44.81369" lon="6.95652">
        <ele>1885</ele>
        <time>2021-03-19T14:19:18Z</time>
      </trkpt>
      <trkpt lat="44.81368" lon="6.95653">
        <ele>1885</ele>
        <time>2021-03-19T14:19:19Z</time>
      </trkpt>
      <trkpt lat="44.81368" lon="6.95654">
        <ele>1885</ele>
        <time>2021-03-19T14:19:20Z</time>
      </trkpt>
      <trkpt lat="44.81368" lon="6.95655">
        <ele>1885</ele>
        <time>2021-03-19T14:19:21Z</time>
      </trkpt>
      <trkpt lat="44.81368" lon="6.95657">
        <ele>1885</ele>
        <time>2021-03-19T14:19:22Z</time>
      </trkpt>
      <trkpt lat="44.81367" lon="6.95657">
        <ele>1885</ele>
        <time>2021-03-19T14:19:23Z</time>
      </trkpt>
      <trkpt lat="44.81367" lon="6.95658">
        <ele>1885</ele>
        <time>2021-03-19T14:19:24Z</time>
      </trkpt>
      <trkpt lat="44.81366" lon="6.95659">
        <ele>1885</ele>
        <time>2021-03-19T14:19:25Z</time>
      </trkpt>
      <trkpt lat="44.81365" lon="6.9566">
        <ele>1885</ele>
        <time>2021-03-19T14:19:26Z</time>
      </trkpt>
      <trkpt lat="44.81365" lon="6.95661">
        <ele>1885</ele>
        <time>2021-03-19T14:19:27Z</time>
      </trkpt>
      <trkpt lat="44.81364" lon="6.95662">
        <ele>1885</ele>
        <time>2021-03-19T14:19:28Z</time>
      </trkpt>
      <trkpt lat="44.81363" lon="6.95663">
        <ele>1885</ele>
        <time>2021-03-19T14:19:29Z</time>
      </trkpt>
      <trkpt lat="44.81363" lon="6.95664">
        <ele>1885</ele>
        <time>2021-03-19T14:19:30Z</time>
      </trkpt>
      <trkpt lat="44.81362" lon="6.95665">
        <ele>1885</ele>
        <time>2021-03-19T14:19:31Z</time>
      </trkpt>
      <trkpt lat="44.81362" lon="6.95666">
        <ele>1886</ele>
        <time>2021-03-19T14:19:32Z</time>
      </trkpt>
      <trkpt lat="44.81361" lon="6.95667">
        <ele>1886</ele>
        <time>2021-03-19T14:19:33Z</time>
      </trkpt>
      <trkpt lat="44.81361" lon="6.95668">
        <ele>1886</ele>
        <time>2021-03-19T14:19:34Z</time>
      </trkpt>
      <trkpt lat="44.8136" lon="6.95669">
        <ele>1886</ele>
        <time>2021-03-19T14:19:35Z</time>
      </trkpt>
      <trkpt lat="44.81359" lon="6.9567">
        <ele>1886</ele>
        <time>2021-03-19T14:19:36Z</time>
      </trkpt>
      <trkpt lat="44.81359" lon="6.95671">
        <ele>1886</ele>
        <time>2021-03-19T14:19:37Z</time>
      </trkpt>
      <trkpt lat="44.81358" lon="6.95672">
        <ele>1886</ele>
        <time>2021-03-19T14:19:38Z</time>
      </trkpt>
      <trkpt lat="44.81357" lon="6.95673">
        <ele>1886</ele>
        <time>2021-03-19T14:19:39Z</time>
      </trkpt>
      <trkpt lat="44.81356" lon="6.95674">
        <ele>1886</ele>
        <time>2021-03-19T14:19:40Z</time>
      </trkpt>
      <trkpt lat="44.81356" lon="6.95675">
        <ele>1886</ele>
        <time>2021-03-19T14:19:41Z</time>
      </trkpt>
      <trkpt lat="44.81355" lon="6.95676">
        <ele>1886</ele>
        <time>2021-03-19T14:19:42Z</time>
      </trkpt>
      <trkpt lat="44.81354" lon="6.95677">
        <ele>1886</ele>
        <time>2021-03-19T14:19:43Z</time>
      </trkpt>
      <trkpt lat="44.81353" lon="6.95678">
        <ele>1886</ele>
        <time>2021-03-19T14:19:44Z</time>
      </trkpt>
      <trkpt lat="44.81353" lon="6.95679">
        <ele>1886</ele>
        <time>2021-03-19T14:19:45Z</time>
      </trkpt>
      <trkpt lat="44.81352" lon="6.9568">
        <ele>1886</ele>
        <time>2021-03-19T14:19:46Z</time>
      </trkpt>
      <trkpt lat="44.81351" lon="6.95681">
        <ele>1886</ele>
        <time>2021-03-19T14:19:47Z</time>
      </trkpt>
      <trkpt lat="44.8135" lon="6.95682">
        <ele>1886</ele>
        <time>2021-03-19T14:19:48Z</time>
      </trkpt>
      <trkpt lat="44.8135" lon="6.95683">
        <ele>1886</ele>
        <time>2021-03-19T14:19:49Z</time>
      </trkpt>
      <trkpt lat="44.81349" lon="6.95685">
        <ele>1886</ele>
        <time>2021-03-19T14:19:50Z</time>
      </trkpt>
      <trkpt lat="44.81349" lon="6.95686">
        <ele>1886</ele>
        <time>2021-03-19T14:19:51Z</time>
      </trkpt>
      <trkpt lat="44.81348" lon="6.95687">
        <ele>1886</ele>
        <time>2021-03-19T14:19:52Z</time>
      </trkpt>
      <trkpt lat="44.81348" lon="6.95689">
        <ele>1886</ele>
        <time>2021-03-19T14:19:53Z</time>
      </trkpt>
      <trkpt lat="44.81347" lon="6.9569">
        <ele>1886</ele>
        <time>2021-03-19T14:19:54Z</time>
      </trkpt>
      <trkpt lat="44.81347" lon="6.95691">
        <ele>1886</ele>
        <time>2021-03-19T14:19:55Z</time>
      </trkpt>
      <trkpt lat="44.81346" lon="6.95692">
        <ele>1886</ele>
        <time>2021-03-19T14:19:56Z</time>
      </trkpt>
      <trkpt lat="44.81345" lon="6.95693">
        <ele>1886</ele>
        <time>2021-03-19T14:19:57Z</time>
      </trkpt>
      <trkpt lat="44.81345" lon="6.95695">
        <ele>1886</ele>
        <time>2021-03-19T14:19:58Z</time>
      </trkpt>
      <trkpt lat="44.81344" lon="6.95696">
        <ele>1886</ele>
        <time>2021-03-19T14:19:59Z</time>
      </trkpt>
      <trkpt lat="44.81344" lon="6.95696">
        <ele>1886</ele>
        <time>2021-03-19T14:20:00Z</time>
      </trkpt>
      <trkpt lat="44.81343" lon="6.95697">
        <ele>1886</ele>
        <time>2021-03-19T14:20:01Z</time>
      </trkpt>
      <trkpt lat="44.81342" lon="6.95698">
        <ele>1886</ele>
        <time>2021-03-19T14:20:02Z</time>
      </trkpt>
      <trkpt lat="44.81342" lon="6.95699">
        <ele>1886</ele>
        <time>2021-03-19T14:20:03Z</time>
      </trkpt>
      <trkpt lat="44.81341" lon="6.957">
        <ele>1886</ele>
        <time>2021-03-19T14:20:04Z</time>
      </trkpt>
      <trkpt lat="44.81341" lon="6.95701">
        <ele>1886</ele>
        <time>2021-03-19T14:20:05Z</time>
      </trkpt>
      <trkpt lat="44.8134" lon="6.95702">
        <ele>1886</ele>
        <time>2021-03-19T14:20:06Z</time>
      </trkpt>
      <trkpt lat="44.8134" lon="6.95703">
        <ele>1886</ele>
        <time>2021-03-19T14:20:07Z</time>
      </trkpt>
      <trkpt lat="44.81339" lon="6.95704">
        <ele>1885</ele>
        <time>2021-03-19T14:20:08Z</time>
      </trkpt>
      <trkpt lat="44.81339" lon="6.95705">
        <ele>1885</ele>
        <time>2021-03-19T14:20:09Z</time>
      </trkpt>
      <trkpt lat="44.81338" lon="6.95706">
        <ele>1884</ele>
        <time>2021-03-19T14:20:10Z</time>
      </trkpt>
      <trkpt lat="44.81338" lon="6.95707">
        <ele>1884</ele>
        <time>2021-03-19T14:20:11Z</time>
      </trkpt>
      <trkpt lat="44.81337" lon="6.95708">
        <ele>1884</ele>
        <time>2021-03-19T14:20:12Z</time>
      </trkpt>
      <trkpt lat="44.81337" lon="6.95709">
        <ele>1883</ele>
        <time>2021-03-19T14:20:13Z</time>
      </trkpt>
      <trkpt lat="44.81336" lon="6.9571">
        <ele>1883</ele>
        <time>2021-03-19T14:20:14Z</time>
      </trkpt>
      <trkpt lat="44.81336" lon="6.95711">
        <ele>1883</ele>
        <time>2021-03-19T14:20:15Z</time>
      </trkpt>
      <trkpt lat="44.81336" lon="6.95712">
        <ele>1883</ele>
        <time>2021-03-19T14:20:16Z</time>
      </trkpt>
      <trkpt lat="44.81336" lon="6.95714">
        <ele>1883</ele>
        <time>2021-03-19T14:20:17Z</time>
      </trkpt>
      <trkpt lat="44.81335" lon="6.95715">
        <ele>1883</ele>
        <time>2021-03-19T14:20:18Z</time>
      </trkpt>
      <trkpt lat="44.81335" lon="6.95716">
        <ele>1883</ele>
        <time>2021-03-19T14:20:19Z</time>
      </trkpt>
      <trkpt lat="44.81335" lon="6.95718">
        <ele>1883</ele>
        <time>2021-03-19T14:20:20Z</time>
      </trkpt>
      <trkpt lat="44.81334" lon="6.95719">
        <ele>1883</ele>
        <time>2021-03-19T14:20:21Z</time>
      </trkpt>
      <trkpt lat="44.81334" lon="6.9572">
        <ele>1883</ele>
        <time>2021-03-19T14:20:22Z</time>
      </trkpt>
      <trkpt lat="44.81334" lon="6.95721">
        <ele>1882</ele>
        <time>2021-03-19T14:20:23Z</time>
      </trkpt>
      <trkpt lat="44.81334" lon="6.95722">
        <ele>1882</ele>
        <time>2021-03-19T14:20:24Z</time>
      </trkpt>
      <trkpt lat="44.81334" lon="6.95723">
        <ele>1882</ele>
        <time>2021-03-19T14:20:25Z</time>
      </trkpt>
      <trkpt lat="44.81334" lon="6.95724">
        <ele>1882</ele>
        <time>2021-03-19T14:20:26Z</time>
      </trkpt>
      <trkpt lat="44.81334" lon="6.95726">
        <ele>1882</ele>
        <time>2021-03-19T14:20:27Z</time>
      </trkpt>
      <trkpt lat="44.81334" lon="6.95727">
        <ele>1882</ele>
        <time>2021-03-19T14:20:28Z</time>
      </trkpt>
      <trkpt lat="44.81334" lon="6.95729">
        <ele>1882</ele>
        <time>2021-03-19T14:20:29Z</time>
      </trkpt>
      <trkpt lat="44.81334" lon="6.9573">
        <ele>1882</ele>
        <time>2021-03-19T14:20:30Z</time>
      </trkpt>
      <trkpt lat="44.81333" lon="6.95731">
        <ele>1882</ele>
        <time>2021-03-19T14:20:31Z</time>
      </trkpt>
      <trkpt lat="44.81333" lon="6.95733">
        <ele>1882</ele>
        <time>2021-03-19T14:20:32Z</time>
      </trkpt>
      <trkpt lat="44.81333" lon="6.95734">
        <ele>1881</ele>
        <time>2021-03-19T14:20:33Z</time>
      </trkpt>
      <trkpt lat="44.81333" lon="6.95736">
        <ele>1881</ele>
        <time>2021-03-19T14:20:34Z</time>
      </trkpt>
      <trkpt lat="44.81333" lon="6.95737">
        <ele>1881</ele>
        <time>2021-03-19T14:20:35Z</time>
      </trkpt>
      <trkpt lat="44.81333" lon="6.95739">
        <ele>1881</ele>
        <time>2021-03-19T14:20:36Z</time>
      </trkpt>
      <trkpt lat="44.81333" lon="6.9574">
        <ele>1881</ele>
        <time>2021-03-19T14:20:37Z</time>
      </trkpt>
      <trkpt lat="44.81333" lon="6.95742">
        <ele>1880</ele>
        <time>2021-03-19T14:20:38Z</time>
      </trkpt>
      <trkpt lat="44.81333" lon="6.95743">
        <ele>1880</ele>
        <time>2021-03-19T14:20:39Z</time>
      </trkpt>
      <trkpt lat="44.81332" lon="6.95745">
        <ele>1880</ele>
        <time>2021-03-19T14:20:40Z</time>
      </trkpt>
      <trkpt lat="44.81332" lon="6.95746">
        <ele>1880</ele>
        <time>2021-03-19T14:20:41Z</time>
      </trkpt>
      <trkpt lat="44.81332" lon="6.95748">
        <ele>1880</ele>
        <time>2021-03-19T14:20:42Z</time>
      </trkpt>
      <trkpt lat="44.81332" lon="6.95749">
        <ele>1879</ele>
        <time>2021-03-19T14:20:43Z</time>
      </trkpt>
      <trkpt lat="44.81332" lon="6.9575">
        <ele>1879</ele>
        <time>2021-03-19T14:20:44Z</time>
      </trkpt>
      <trkpt lat="44.81332" lon="6.95752">
        <ele>1879</ele>
        <time>2021-03-19T14:20:45Z</time>
      </trkpt>
      <trkpt lat="44.81332" lon="6.95753">
        <ele>1879</ele>
        <time>2021-03-19T14:20:46Z</time>
      </trkpt>
      <trkpt lat="44.81332" lon="6.95754">
        <ele>1879</ele>
        <time>2021-03-19T14:20:47Z</time>
      </trkpt>
      <trkpt lat="44.81332" lon="6.95756">
        <ele>1878</ele>
        <time>2021-03-19T14:20:48Z</time>
      </trkpt>
      <trkpt lat="44.81332" lon="6.95757">
        <ele>1878</ele>
        <time>2021-03-19T14:20:49Z</time>
      </trkpt>
      <trkpt lat="44.81332" lon="6.95758">
        <ele>1878</ele>
        <time>2021-03-19T14:20:50Z</time>
      </trkpt>
      <trkpt lat="44.81332" lon="6.9576">
        <ele>1878</ele>
        <time>2021-03-19T14:20:51Z</time>
      </trkpt>
      <trkpt lat="44.81332" lon="6.95761">
        <ele>1878</ele>
        <time>2021-03-19T14:20:52Z</time>
      </trkpt>
      <trkpt lat="44.81332" lon="6.95763">
        <ele>1877</ele>
        <time>2021-03-19T14:20:53Z</time>
      </trkpt>
      <trkpt lat="44.81332" lon="6.95764">
        <ele>1877</ele>
        <time>2021-03-19T14:20:54Z</time>
      </trkpt>
      <trkpt lat="44.81332" lon="6.95765">
        <ele>1877</ele>
        <time>2021-03-19T14:20:55Z</time>
      </trkpt>
      <trkpt lat="44.81332" lon="6.95767">
        <ele>1877</ele>
        <time>2021-03-19T14:20:56Z</time>
      </trkpt>
      <trkpt lat="44.81331" lon="6.95768">
        <ele>1877</ele>
        <time>2021-03-19T14:20:57Z</time>
      </trkpt>
      <trkpt lat="44.81331" lon="6.95769">
        <ele>1877</ele>
        <time>2021-03-19T14:20:58Z</time>
      </trkpt>
      <trkpt lat="44.81331" lon="6.95771">
        <ele>1877</ele>
        <time>2021-03-19T14:20:59Z</time>
      </trkpt>
      <trkpt lat="44.81331" lon="6.95772">
        <ele>1877</ele>
        <time>2021-03-19T14:21:00Z</time>
      </trkpt>
      <trkpt lat="44.81331" lon="6.95772">
        <ele>1877</ele>
        <time>2021-03-19T14:21:01Z</time>
      </trkpt>
      <trkpt lat="44.81331" lon="6.95773">
        <ele>1877</ele>
        <time>2021-03-19T14:21:02Z</time>
      </trkpt>
      <trkpt lat="44.81331" lon="6.95774">
        <ele>1876</ele>
        <time>2021-03-19T14:21:03Z</time>
      </trkpt>
      <trkpt lat="44.8133" lon="6.95775">
        <ele>1876</ele>
        <time>2021-03-19T14:21:04Z</time>
      </trkpt>
      <trkpt lat="44.8133" lon="6.95776">
        <ele>1876</ele>
        <time>2021-03-19T14:21:05Z</time>
      </trkpt>
      <trkpt lat="44.8133" lon="6.95777">
        <ele>1876</ele>
        <time>2021-03-19T14:21:06Z</time>
      </trkpt>
      <trkpt lat="44.8133" lon="6.95778">
        <ele>1876</ele>
        <time>2021-03-19T14:21:07Z</time>
      </trkpt>
      <trkpt lat="44.81329" lon="6.95779">
        <ele>1876</ele>
        <time>2021-03-19T14:21:08Z</time>
      </trkpt>
      <trkpt lat="44.81329" lon="6.9578">
        <ele>1876</ele>
        <time>2021-03-19T14:21:09Z</time>
      </trkpt>
      <trkpt lat="44.81329" lon="6.95782">
        <ele>1876</ele>
        <time>2021-03-19T14:21:10Z</time>
      </trkpt>
      <trkpt lat="44.81329" lon="6.95783">
        <ele>1876</ele>
        <time>2021-03-19T14:21:11Z</time>
      </trkpt>
      <trkpt lat="44.81329" lon="6.95784">
        <ele>1876</ele>
        <time>2021-03-19T14:21:12Z</time>
      </trkpt>
      <trkpt lat="44.81328" lon="6.95785">
        <ele>1876</ele>
        <time>2021-03-19T14:21:13Z</time>
      </trkpt>
      <trkpt lat="44.81328" lon="6.95786">
        <ele>1876</ele>
        <time>2021-03-19T14:21:14Z</time>
      </trkpt>
      <trkpt lat="44.81328" lon="6.95788">
        <ele>1876</ele>
        <time>2021-03-19T14:21:15Z</time>
      </trkpt>
      <trkpt lat="44.81327" lon="6.95789">
        <ele>1876</ele>
        <time>2021-03-19T14:21:16Z</time>
      </trkpt>
      <trkpt lat="44.81327" lon="6.9579">
        <ele>1876</ele>
        <time>2021-03-19T14:21:17Z</time>
      </trkpt>
      <trkpt lat="44.81327" lon="6.95792">
        <ele>1876</ele>
        <time>2021-03-19T14:21:18Z</time>
      </trkpt>
      <trkpt lat="44.81326" lon="6.95793">
        <ele>1876</ele>
        <time>2021-03-19T14:21:19Z</time>
      </trkpt>
      <trkpt lat="44.81326" lon="6.95795">
        <ele>1876</ele>
        <time>2021-03-19T14:21:20Z</time>
      </trkpt>
      <trkpt lat="44.81325" lon="6.95796">
        <ele>1876</ele>
        <time>2021-03-19T14:21:21Z</time>
      </trkpt>
      <trkpt lat="44.81325" lon="6.95797">
        <ele>1876</ele>
        <time>2021-03-19T14:21:22Z</time>
      </trkpt>
      <trkpt lat="44.81325" lon="6.95799">
        <ele>1875</ele>
        <time>2021-03-19T14:21:23Z</time>
      </trkpt>
      <trkpt lat="44.81324" lon="6.958">
        <ele>1875</ele>
        <time>2021-03-19T14:21:24Z</time>
      </trkpt>
      <trkpt lat="44.81324" lon="6.95802">
        <ele>1875</ele>
        <time>2021-03-19T14:21:25Z</time>
      </trkpt>
      <trkpt lat="44.81323" lon="6.95803">
        <ele>1875</ele>
        <time>2021-03-19T14:21:26Z</time>
      </trkpt>
      <trkpt lat="44.81323" lon="6.95805">
        <ele>1875</ele>
        <time>2021-03-19T14:21:27Z</time>
      </trkpt>
      <trkpt lat="44.81322" lon="6.95806">
        <ele>1875</ele>
        <time>2021-03-19T14:21:28Z</time>
      </trkpt>
      <trkpt lat="44.81321" lon="6.95807">
        <ele>1875</ele>
        <time>2021-03-19T14:21:29Z</time>
      </trkpt>
      <trkpt lat="44.8132" lon="6.95809">
        <ele>1875</ele>
        <time>2021-03-19T14:21:30Z</time>
      </trkpt>
      <trkpt lat="44.81319" lon="6.95809">
        <ele>1875</ele>
        <time>2021-03-19T14:21:31Z</time>
      </trkpt>
      <trkpt lat="44.81318" lon="6.9581">
        <ele>1875</ele>
        <time>2021-03-19T14:21:32Z</time>
      </trkpt>
      <trkpt lat="44.81317" lon="6.95811">
        <ele>1874</ele>
        <time>2021-03-19T14:21:33Z</time>
      </trkpt>
      <trkpt lat="44.81317" lon="6.95812">
        <ele>1874</ele>
        <time>2021-03-19T14:21:34Z</time>
      </trkpt>
      <trkpt lat="44.81316" lon="6.95813">
        <ele>1874</ele>
        <time>2021-03-19T14:21:35Z</time>
      </trkpt>
      <trkpt lat="44.81315" lon="6.95814">
        <ele>1874</ele>
        <time>2021-03-19T14:21:36Z</time>
      </trkpt>
      <trkpt lat="44.81315" lon="6.95815">
        <ele>1874</ele>
        <time>2021-03-19T14:21:37Z</time>
      </trkpt>
      <trkpt lat="44.81315" lon="6.95816">
        <ele>1874</ele>
        <time>2021-03-19T14:21:38Z</time>
      </trkpt>
      <trkpt lat="44.81314" lon="6.95817">
        <ele>1874</ele>
        <time>2021-03-19T14:21:39Z</time>
      </trkpt>
      <trkpt lat="44.81314" lon="6.95818">
        <ele>1874</ele>
        <time>2021-03-19T14:21:40Z</time>
      </trkpt>
      <trkpt lat="44.81314" lon="6.9582">
        <ele>1874</ele>
        <time>2021-03-19T14:21:41Z</time>
      </trkpt>
      <trkpt lat="44.81314" lon="6.95821">
        <ele>1874</ele>
        <time>2021-03-19T14:21:42Z</time>
      </trkpt>
      <trkpt lat="44.81313" lon="6.95822">
        <ele>1874</ele>
        <time>2021-03-19T14:21:43Z</time>
      </trkpt>
      <trkpt lat="44.81313" lon="6.95823">
        <ele>1874</ele>
        <time>2021-03-19T14:21:44Z</time>
      </trkpt>
      <trkpt lat="44.81313" lon="6.95825">
        <ele>1874</ele>
        <time>2021-03-19T14:21:45Z</time>
      </trkpt>
      <trkpt lat="44.81312" lon="6.95826">
        <ele>1874</ele>
        <time>2021-03-19T14:21:46Z</time>
      </trkpt>
      <trkpt lat="44.81312" lon="6.95827">
        <ele>1874</ele>
        <time>2021-03-19T14:21:47Z</time>
      </trkpt>
      <trkpt lat="44.81312" lon="6.95828">
        <ele>1874</ele>
        <time>2021-03-19T14:21:48Z</time>
      </trkpt>
      <trkpt lat="44.81312" lon="6.9583">
        <ele>1874</ele>
        <time>2021-03-19T14:21:49Z</time>
      </trkpt>
      <trkpt lat="44.81312" lon="6.95831">
        <ele>1874</ele>
        <time>2021-03-19T14:21:50Z</time>
      </trkpt>
      <trkpt lat="44.81312" lon="6.95832">
        <ele>1874</ele>
        <time>2021-03-19T14:21:51Z</time>
      </trkpt>
      <trkpt lat="44.81312" lon="6.95833">
        <ele>1874</ele>
        <time>2021-03-19T14:21:52Z</time>
      </trkpt>
      <trkpt lat="44.81312" lon="6.95834">
        <ele>1874</ele>
        <time>2021-03-19T14:21:53Z</time>
      </trkpt>
      <trkpt lat="44.81312" lon="6.95836">
        <ele>1874</ele>
        <time>2021-03-19T14:21:54Z</time>
      </trkpt>
      <trkpt lat="44.81312" lon="6.95837">
        <ele>1874</ele>
        <time>2021-03-19T14:21:55Z</time>
      </trkpt>
      <trkpt lat="44.81311" lon="6.95838">
        <ele>1874</ele>
        <time>2021-03-19T14:21:56Z</time>
      </trkpt>
      <trkpt lat="44.81311" lon="6.9584">
        <ele>1874</ele>
        <time>2021-03-19T14:21:57Z</time>
      </trkpt>
      <trkpt lat="44.81311" lon="6.95841">
        <ele>1874</ele>
        <time>2021-03-19T14:21:58Z</time>
      </trkpt>
      <trkpt lat="44.81311" lon="6.95843">
        <ele>1874</ele>
        <time>2021-03-19T14:21:59Z</time>
      </trkpt>
      <trkpt lat="44.81311" lon="6.95844">
        <ele>1874</ele>
        <time>2021-03-19T14:22:00Z</time>
      </trkpt>
      <trkpt lat="44.81311" lon="6.95845">
        <ele>1874</ele>
        <time>2021-03-19T14:22:01Z</time>
      </trkpt>
      <trkpt lat="44.8131" lon="6.95846">
        <ele>1874</ele>
        <time>2021-03-19T14:22:02Z</time>
      </trkpt>
      <trkpt lat="44.8131" lon="6.95847">
        <ele>1874</ele>
        <time>2021-03-19T14:22:03Z</time>
      </trkpt>
      <trkpt lat="44.8131" lon="6.95848">
        <ele>1874</ele>
        <time>2021-03-19T14:22:04Z</time>
      </trkpt>
      <trkpt lat="44.81309" lon="6.9585">
        <ele>1874</ele>
        <time>2021-03-19T14:22:05Z</time>
      </trkpt>
      <trkpt lat="44.81309" lon="6.95851">
        <ele>1874</ele>
        <time>2021-03-19T14:22:06Z</time>
      </trkpt>
      <trkpt lat="44.81309" lon="6.95852">
        <ele>1874</ele>
        <time>2021-03-19T14:22:07Z</time>
      </trkpt>
      <trkpt lat="44.81309" lon="6.95854">
        <ele>1873</ele>
        <time>2021-03-19T14:22:08Z</time>
      </trkpt>
      <trkpt lat="44.81309" lon="6.95855">
        <ele>1873</ele>
        <time>2021-03-19T14:22:09Z</time>
      </trkpt>
      <trkpt lat="44.81308" lon="6.95856">
        <ele>1873</ele>
        <time>2021-03-19T14:22:10Z</time>
      </trkpt>
      <trkpt lat="44.81308" lon="6.95857">
        <ele>1873</ele>
        <time>2021-03-19T14:22:11Z</time>
      </trkpt>
      <trkpt lat="44.81308" lon="6.95859">
        <ele>1873</ele>
        <time>2021-03-19T14:22:12Z</time>
      </trkpt>
      <trkpt lat="44.81307" lon="6.9586">
        <ele>1872</ele>
        <time>2021-03-19T14:22:13Z</time>
      </trkpt>
      <trkpt lat="44.81307" lon="6.95861">
        <ele>1872</ele>
        <time>2021-03-19T14:22:14Z</time>
      </trkpt>
      <trkpt lat="44.81307" lon="6.95863">
        <ele>1872</ele>
        <time>2021-03-19T14:22:15Z</time>
      </trkpt>
      <trkpt lat="44.81308" lon="6.95864">
        <ele>1872</ele>
        <time>2021-03-19T14:22:16Z</time>
      </trkpt>
      <trkpt lat="44.81308" lon="6.95866">
        <ele>1872</ele>
        <time>2021-03-19T14:22:17Z</time>
      </trkpt>
      <trkpt lat="44.81308" lon="6.95867">
        <ele>1872</ele>
        <time>2021-03-19T14:22:18Z</time>
      </trkpt>
      <trkpt lat="44.81308" lon="6.95869">
        <ele>1872</ele>
        <time>2021-03-19T14:22:19Z</time>
      </trkpt>
      <trkpt lat="44.81308" lon="6.95871">
        <ele>1872</ele>
        <time>2021-03-19T14:22:20Z</time>
      </trkpt>
      <trkpt lat="44.81309" lon="6.95873">
        <ele>1872</ele>
        <time>2021-03-19T14:22:21Z</time>
      </trkpt>
      <trkpt lat="44.81309" lon="6.95874">
        <ele>1872</ele>
        <time>2021-03-19T14:22:22Z</time>
      </trkpt>
      <trkpt lat="44.81309" lon="6.95876">
        <ele>1871</ele>
        <time>2021-03-19T14:22:23Z</time>
      </trkpt>
      <trkpt lat="44.81308" lon="6.95877">
        <ele>1871</ele>
        <time>2021-03-19T14:22:24Z</time>
      </trkpt>
      <trkpt lat="44.81308" lon="6.95878">
        <ele>1871</ele>
        <time>2021-03-19T14:22:25Z</time>
      </trkpt>
      <trkpt lat="44.81308" lon="6.95879">
        <ele>1871</ele>
        <time>2021-03-19T14:22:26Z</time>
      </trkpt>
      <trkpt lat="44.81307" lon="6.9588">
        <ele>1871</ele>
        <time>2021-03-19T14:22:27Z</time>
      </trkpt>
      <trkpt lat="44.81307" lon="6.95882">
        <ele>1871</ele>
        <time>2021-03-19T14:22:28Z</time>
      </trkpt>
      <trkpt lat="44.81307" lon="6.95883">
        <ele>1871</ele>
        <time>2021-03-19T14:22:29Z</time>
      </trkpt>
      <trkpt lat="44.81306" lon="6.95885">
        <ele>1871</ele>
        <time>2021-03-19T14:22:30Z</time>
      </trkpt>
      <trkpt lat="44.81306" lon="6.95886">
        <ele>1871</ele>
        <time>2021-03-19T14:22:31Z</time>
      </trkpt>
      <trkpt lat="44.81307" lon="6.95887">
        <ele>1871</ele>
        <time>2021-03-19T14:22:32Z</time>
      </trkpt>
      <trkpt lat="44.81307" lon="6.95888">
        <ele>1871</ele>
        <time>2021-03-19T14:22:33Z</time>
      </trkpt>
      <trkpt lat="44.81307" lon="6.9589">
        <ele>1871</ele>
        <time>2021-03-19T14:22:34Z</time>
      </trkpt>
      <trkpt lat="44.81308" lon="6.95891">
        <ele>1871</ele>
        <time>2021-03-19T14:22:35Z</time>
      </trkpt>
      <trkpt lat="44.81308" lon="6.95893">
        <ele>1871</ele>
        <time>2021-03-19T14:22:36Z</time>
      </trkpt>
      <trkpt lat="44.81308" lon="6.95894">
        <ele>1871</ele>
        <time>2021-03-19T14:22:37Z</time>
      </trkpt>
      <trkpt lat="44.81308" lon="6.95894">
        <ele>1871</ele>
        <time>2021-03-19T14:22:38Z</time>
      </trkpt>
      <trkpt lat="44.81308" lon="6.95895">
        <ele>1871</ele>
        <time>2021-03-19T14:22:39Z</time>
      </trkpt>
      <trkpt lat="44.81309" lon="6.95896">
        <ele>1871</ele>
        <time>2021-03-19T14:22:40Z</time>
      </trkpt>
      <trkpt lat="44.81309" lon="6.95897">
        <ele>1871</ele>
        <time>2021-03-19T14:22:41Z</time>
      </trkpt>
      <trkpt lat="44.81309" lon="6.95898">
        <ele>1871</ele>
        <time>2021-03-19T14:22:42Z</time>
      </trkpt>
      <trkpt lat="44.8131" lon="6.959">
        <ele>1871</ele>
        <time>2021-03-19T14:22:43Z</time>
      </trkpt>
      <trkpt lat="44.8131" lon="6.95901">
        <ele>1871</ele>
        <time>2021-03-19T14:22:44Z</time>
      </trkpt>
      <trkpt lat="44.81311" lon="6.95902">
        <ele>1871</ele>
        <time>2021-03-19T14:22:45Z</time>
      </trkpt>
      <trkpt lat="44.81311" lon="6.95903">
        <ele>1871</ele>
        <time>2021-03-19T14:22:46Z</time>
      </trkpt>
      <trkpt lat="44.81311" lon="6.95905">
        <ele>1871</ele>
        <time>2021-03-19T14:22:47Z</time>
      </trkpt>
      <trkpt lat="44.81311" lon="6.95906">
        <ele>1871</ele>
        <time>2021-03-19T14:22:48Z</time>
      </trkpt>
      <trkpt lat="44.81311" lon="6.95907">
        <ele>1871</ele>
        <time>2021-03-19T14:22:49Z</time>
      </trkpt>
      <trkpt lat="44.81312" lon="6.95908">
        <ele>1871</ele>
        <time>2021-03-19T14:22:50Z</time>
      </trkpt>
      <trkpt lat="44.81312" lon="6.95909">
        <ele>1871</ele>
        <time>2021-03-19T14:22:51Z</time>
      </trkpt>
      <trkpt lat="44.81312" lon="6.9591">
        <ele>1872</ele>
        <time>2021-03-19T14:22:52Z</time>
      </trkpt>
      <trkpt lat="44.81313" lon="6.95911">
        <ele>1872</ele>
        <time>2021-03-19T14:22:53Z</time>
      </trkpt>
      <trkpt lat="44.81313" lon="6.95912">
        <ele>1872</ele>
        <time>2021-03-19T14:22:54Z</time>
      </trkpt>
      <trkpt lat="44.81313" lon="6.95912">
        <ele>1872</ele>
        <time>2021-03-19T14:22:55Z</time>
      </trkpt>
      <trkpt lat="44.81312" lon="6.95913">
        <ele>1872</ele>
        <time>2021-03-19T14:22:56Z</time>
      </trkpt>
      <trkpt lat="44.81312" lon="6.95914">
        <ele>1873</ele>
        <time>2021-03-19T14:22:57Z</time>
      </trkpt>
      <trkpt lat="44.81311" lon="6.95915">
        <ele>1873</ele>
        <time>2021-03-19T14:22:58Z</time>
      </trkpt>
      <trkpt lat="44.81311" lon="6.95916">
        <ele>1873</ele>
        <time>2021-03-19T14:22:59Z</time>
      </trkpt>
      <trkpt lat="44.8131" lon="6.95918">
        <ele>1873</ele>
        <time>2021-03-19T14:23:00Z</time>
      </trkpt>
      <trkpt lat="44.8131" lon="6.95919">
        <ele>1873</ele>
        <time>2021-03-19T14:23:01Z</time>
      </trkpt>
      <trkpt lat="44.8131" lon="6.9592">
        <ele>1874</ele>
        <time>2021-03-19T14:23:02Z</time>
      </trkpt>
      <trkpt lat="44.8131" lon="6.95921">
        <ele>1874</ele>
        <time>2021-03-19T14:23:03Z</time>
      </trkpt>
      <trkpt lat="44.8131" lon="6.95922">
        <ele>1874</ele>
        <time>2021-03-19T14:23:04Z</time>
      </trkpt>
      <trkpt lat="44.8131" lon="6.95923">
        <ele>1874</ele>
        <time>2021-03-19T14:23:05Z</time>
      </trkpt>
      <trkpt lat="44.8131" lon="6.95925">
        <ele>1874</ele>
        <time>2021-03-19T14:23:06Z</time>
      </trkpt>
      <trkpt lat="44.8131" lon="6.95926">
        <ele>1874</ele>
        <time>2021-03-19T14:23:07Z</time>
      </trkpt>
      <trkpt lat="44.81311" lon="6.95927">
        <ele>1874</ele>
        <time>2021-03-19T14:23:08Z</time>
      </trkpt>
      <trkpt lat="44.81311" lon="6.95928">
        <ele>1874</ele>
        <time>2021-03-19T14:23:09Z</time>
      </trkpt>
      <trkpt lat="44.81311" lon="6.95929">
        <ele>1874</ele>
        <time>2021-03-19T14:23:10Z</time>
      </trkpt>
      <trkpt lat="44.81311" lon="6.95931">
        <ele>1874</ele>
        <time>2021-03-19T14:23:11Z</time>
      </trkpt>
      <trkpt lat="44.81312" lon="6.95932">
        <ele>1875</ele>
        <time>2021-03-19T14:23:12Z</time>
      </trkpt>
      <trkpt lat="44.81312" lon="6.95933">
        <ele>1875</ele>
        <time>2021-03-19T14:23:13Z</time>
      </trkpt>
      <trkpt lat="44.81312" lon="6.95934">
        <ele>1875</ele>
        <time>2021-03-19T14:23:14Z</time>
      </trkpt>
      <trkpt lat="44.81313" lon="6.95936">
        <ele>1875</ele>
        <time>2021-03-19T14:23:15Z</time>
      </trkpt>
      <trkpt lat="44.81313" lon="6.95937">
        <ele>1875</ele>
        <time>2021-03-19T14:23:16Z</time>
      </trkpt>
      <trkpt lat="44.81313" lon="6.95938">
        <ele>1876</ele>
        <time>2021-03-19T14:23:17Z</time>
      </trkpt>
      <trkpt lat="44.81313" lon="6.95939">
        <ele>1876</ele>
        <time>2021-03-19T14:23:18Z</time>
      </trkpt>
      <trkpt lat="44.81313" lon="6.9594">
        <ele>1876</ele>
        <time>2021-03-19T14:23:19Z</time>
      </trkpt>
      <trkpt lat="44.81313" lon="6.95941">
        <ele>1876</ele>
        <time>2021-03-19T14:23:20Z</time>
      </trkpt>
      <trkpt lat="44.81313" lon="6.95942">
        <ele>1876</ele>
        <time>2021-03-19T14:23:21Z</time>
      </trkpt>
      <trkpt lat="44.81313" lon="6.95943">
        <ele>1877</ele>
        <time>2021-03-19T14:23:22Z</time>
      </trkpt>
      <trkpt lat="44.81313" lon="6.95944">
        <ele>1877</ele>
        <time>2021-03-19T14:23:23Z</time>
      </trkpt>
      <trkpt lat="44.81313" lon="6.95945">
        <ele>1877</ele>
        <time>2021-03-19T14:23:24Z</time>
      </trkpt>
      <trkpt lat="44.81313" lon="6.95946">
        <ele>1877</ele>
        <time>2021-03-19T14:23:25Z</time>
      </trkpt>
      <trkpt lat="44.81313" lon="6.95947">
        <ele>1877</ele>
        <time>2021-03-19T14:23:26Z</time>
      </trkpt>
      <trkpt lat="44.81314" lon="6.95948">
        <ele>1877</ele>
        <time>2021-03-19T14:23:27Z</time>
      </trkpt>
      <trkpt lat="44.81314" lon="6.95949">
        <ele>1877</ele>
        <time>2021-03-19T14:23:28Z</time>
      </trkpt>
      <trkpt lat="44.81314" lon="6.9595">
        <ele>1877</ele>
        <time>2021-03-19T14:23:29Z</time>
      </trkpt>
      <trkpt lat="44.81314" lon="6.95951">
        <ele>1877</ele>
        <time>2021-03-19T14:23:30Z</time>
      </trkpt>
      <trkpt lat="44.81314" lon="6.95952">
        <ele>1877</ele>
        <time>2021-03-19T14:23:31Z</time>
      </trkpt>
      <trkpt lat="44.81314" lon="6.95953">
        <ele>1878</ele>
        <time>2021-03-19T14:23:32Z</time>
      </trkpt>
      <trkpt lat="44.81314" lon="6.95955">
        <ele>1878</ele>
        <time>2021-03-19T14:23:33Z</time>
      </trkpt>
      <trkpt lat="44.81314" lon="6.95956">
        <ele>1878</ele>
        <time>2021-03-19T14:23:34Z</time>
      </trkpt>
      <trkpt lat="44.81314" lon="6.95957">
        <ele>1878</ele>
        <time>2021-03-19T14:23:35Z</time>
      </trkpt>
      <trkpt lat="44.81313" lon="6.95958">
        <ele>1878</ele>
        <time>2021-03-19T14:23:36Z</time>
      </trkpt>
      <trkpt lat="44.81313" lon="6.95959">
        <ele>1878</ele>
        <time>2021-03-19T14:23:37Z</time>
      </trkpt>
      <trkpt lat="44.81313" lon="6.95961">
        <ele>1878</ele>
        <time>2021-03-19T14:23:38Z</time>
      </trkpt>
      <trkpt lat="44.81313" lon="6.95962">
        <ele>1878</ele>
        <time>2021-03-19T14:23:39Z</time>
      </trkpt>
      <trkpt lat="44.81313" lon="6.95963">
        <ele>1878</ele>
        <time>2021-03-19T14:23:40Z</time>
      </trkpt>
      <trkpt lat="44.81312" lon="6.95964">
        <ele>1878</ele>
        <time>2021-03-19T14:23:41Z</time>
      </trkpt>
      <trkpt lat="44.81312" lon="6.95965">
        <ele>1878</ele>
        <time>2021-03-19T14:23:42Z</time>
      </trkpt>
      <trkpt lat="44.81312" lon="6.95966">
        <ele>1878</ele>
        <time>2021-03-19T14:23:43Z</time>
      </trkpt>
      <trkpt lat="44.81311" lon="6.95966">
        <ele>1878</ele>
        <time>2021-03-19T14:23:44Z</time>
      </trkpt>
      <trkpt lat="44.81311" lon="6.95967">
        <ele>1878</ele>
        <time>2021-03-19T14:23:45Z</time>
      </trkpt>
      <trkpt lat="44.81311" lon="6.95968">
        <ele>1878</ele>
        <time>2021-03-19T14:23:46Z</time>
      </trkpt>
      <trkpt lat="44.81311" lon="6.95969">
        <ele>1878</ele>
        <time>2021-03-19T14:23:47Z</time>
      </trkpt>
      <trkpt lat="44.81311" lon="6.9597">
        <ele>1878</ele>
        <time>2021-03-19T14:23:48Z</time>
      </trkpt>
      <trkpt lat="44.81311" lon="6.95971">
        <ele>1878</ele>
        <time>2021-03-19T14:23:49Z</time>
      </trkpt>
      <trkpt lat="44.81311" lon="6.95972">
        <ele>1878</ele>
        <time>2021-03-19T14:23:50Z</time>
      </trkpt>
      <trkpt lat="44.81311" lon="6.95973">
        <ele>1878</ele>
        <time>2021-03-19T14:23:51Z</time>
      </trkpt>
      <trkpt lat="44.81311" lon="6.95973">
        <ele>1879</ele>
        <time>2021-03-19T14:23:52Z</time>
      </trkpt>
      <trkpt lat="44.81311" lon="6.95974">
        <ele>1879</ele>
        <time>2021-03-19T14:23:53Z</time>
      </trkpt>
      <trkpt lat="44.81311" lon="6.95975">
        <ele>1879</ele>
        <time>2021-03-19T14:23:54Z</time>
      </trkpt>
      <trkpt lat="44.81311" lon="6.95976">
        <ele>1879</ele>
        <time>2021-03-19T14:23:55Z</time>
      </trkpt>
      <trkpt lat="44.81311" lon="6.95977">
        <ele>1879</ele>
        <time>2021-03-19T14:23:56Z</time>
      </trkpt>
      <trkpt lat="44.81311" lon="6.95978">
        <ele>1879</ele>
        <time>2021-03-19T14:23:57Z</time>
      </trkpt>
      <trkpt lat="44.81311" lon="6.95979">
        <ele>1879</ele>
        <time>2021-03-19T14:23:58Z</time>
      </trkpt>
      <trkpt lat="44.8131" lon="6.9598">
        <ele>1879</ele>
        <time>2021-03-19T14:23:59Z</time>
      </trkpt>
      <trkpt lat="44.8131" lon="6.95981">
        <ele>1879</ele>
        <time>2021-03-19T14:24:00Z</time>
      </trkpt>
      <trkpt lat="44.81309" lon="6.95982">
        <ele>1879</ele>
        <time>2021-03-19T14:24:01Z</time>
      </trkpt>
      <trkpt lat="44.81309" lon="6.95983">
        <ele>1880</ele>
        <time>2021-03-19T14:24:02Z</time>
      </trkpt>
      <trkpt lat="44.81308" lon="6.95985">
        <ele>1880</ele>
        <time>2021-03-19T14:24:03Z</time>
      </trkpt>
      <trkpt lat="44.81308" lon="6.95986">
        <ele>1880</ele>
        <time>2021-03-19T14:24:04Z</time>
      </trkpt>
      <trkpt lat="44.81307" lon="6.95987">
        <ele>1880</ele>
        <time>2021-03-19T14:24:05Z</time>
      </trkpt>
      <trkpt lat="44.81307" lon="6.95988">
        <ele>1880</ele>
        <time>2021-03-19T14:24:06Z</time>
      </trkpt>
      <trkpt lat="44.81306" lon="6.95989">
        <ele>1880</ele>
        <time>2021-03-19T14:24:07Z</time>
      </trkpt>
      <trkpt lat="44.81305" lon="6.9599">
        <ele>1880</ele>
        <time>2021-03-19T14:24:08Z</time>
      </trkpt>
      <trkpt lat="44.81304" lon="6.95991">
        <ele>1880</ele>
        <time>2021-03-19T14:24:09Z</time>
      </trkpt>
      <trkpt lat="44.81304" lon="6.95993">
        <ele>1880</ele>
        <time>2021-03-19T14:24:10Z</time>
      </trkpt>
      <trkpt lat="44.81303" lon="6.95994">
        <ele>1880</ele>
        <time>2021-03-19T14:24:11Z</time>
      </trkpt>
      <trkpt lat="44.81303" lon="6.95995">
        <ele>1881</ele>
        <time>2021-03-19T14:24:12Z</time>
      </trkpt>
      <trkpt lat="44.81302" lon="6.95996">
        <ele>1881</ele>
        <time>2021-03-19T14:24:13Z</time>
      </trkpt>
      <trkpt lat="44.81302" lon="6.95997">
        <ele>1881</ele>
        <time>2021-03-19T14:24:14Z</time>
      </trkpt>
      <trkpt lat="44.81302" lon="6.95998">
        <ele>1881</ele>
        <time>2021-03-19T14:24:15Z</time>
      </trkpt>
      <trkpt lat="44.81301" lon="6.95999">
        <ele>1881</ele>
        <time>2021-03-19T14:24:16Z</time>
      </trkpt>
      <trkpt lat="44.81301" lon="6.96">
        <ele>1882</ele>
        <time>2021-03-19T14:24:17Z</time>
      </trkpt>
      <trkpt lat="44.81301" lon="6.96001">
        <ele>1882</ele>
        <time>2021-03-19T14:24:18Z</time>
      </trkpt>
      <trkpt lat="44.813" lon="6.96002">
        <ele>1882</ele>
        <time>2021-03-19T14:24:19Z</time>
      </trkpt>
      <trkpt lat="44.81299" lon="6.96003">
        <ele>1882</ele>
        <time>2021-03-19T14:24:20Z</time>
      </trkpt>
      <trkpt lat="44.81299" lon="6.96005">
        <ele>1882</ele>
        <time>2021-03-19T14:24:21Z</time>
      </trkpt>
      <trkpt lat="44.81298" lon="6.96006">
        <ele>1882</ele>
        <time>2021-03-19T14:24:22Z</time>
      </trkpt>
      <trkpt lat="44.81297" lon="6.96007">
        <ele>1882</ele>
        <time>2021-03-19T14:24:23Z</time>
      </trkpt>
      <trkpt lat="44.81297" lon="6.96008">
        <ele>1882</ele>
        <time>2021-03-19T14:24:24Z</time>
      </trkpt>
      <trkpt lat="44.81296" lon="6.96009">
        <ele>1882</ele>
        <time>2021-03-19T14:24:25Z</time>
      </trkpt>
      <trkpt lat="44.81296" lon="6.9601">
        <ele>1882</ele>
        <time>2021-03-19T14:24:26Z</time>
      </trkpt>
      <trkpt lat="44.81295" lon="6.96011">
        <ele>1882</ele>
        <time>2021-03-19T14:24:27Z</time>
      </trkpt>
      <trkpt lat="44.81295" lon="6.96013">
        <ele>1882</ele>
        <time>2021-03-19T14:24:28Z</time>
      </trkpt>
      <trkpt lat="44.81294" lon="6.96014">
        <ele>1882</ele>
        <time>2021-03-19T14:24:29Z</time>
      </trkpt>
      <trkpt lat="44.81294" lon="6.96015">
        <ele>1882</ele>
        <time>2021-03-19T14:24:30Z</time>
      </trkpt>
      <trkpt lat="44.81293" lon="6.96016">
        <ele>1882</ele>
        <time>2021-03-19T14:24:31Z</time>
      </trkpt>
      <trkpt lat="44.81292" lon="6.96017">
        <ele>1882</ele>
        <time>2021-03-19T14:24:32Z</time>
      </trkpt>
      <trkpt lat="44.81292" lon="6.96018">
        <ele>1882</ele>
        <time>2021-03-19T14:24:33Z</time>
      </trkpt>
      <trkpt lat="44.81291" lon="6.96019">
        <ele>1882</ele>
        <time>2021-03-19T14:24:34Z</time>
      </trkpt>
      <trkpt lat="44.8129" lon="6.9602">
        <ele>1882</ele>
        <time>2021-03-19T14:24:35Z</time>
      </trkpt>
      <trkpt lat="44.8129" lon="6.96021">
        <ele>1882</ele>
        <time>2021-03-19T14:24:36Z</time>
      </trkpt>
      <trkpt lat="44.81289" lon="6.96022">
        <ele>1882</ele>
        <time>2021-03-19T14:24:37Z</time>
      </trkpt>
      <trkpt lat="44.81289" lon="6.96023">
        <ele>1882</ele>
        <time>2021-03-19T14:24:38Z</time>
      </trkpt>
      <trkpt lat="44.81288" lon="6.96025">
        <ele>1882</ele>
        <time>2021-03-19T14:24:39Z</time>
      </trkpt>
      <trkpt lat="44.81288" lon="6.96026">
        <ele>1882</ele>
        <time>2021-03-19T14:24:40Z</time>
      </trkpt>
      <trkpt lat="44.81288" lon="6.96027">
        <ele>1882</ele>
        <time>2021-03-19T14:24:41Z</time>
      </trkpt>
      <trkpt lat="44.81287" lon="6.96028">
        <ele>1883</ele>
        <time>2021-03-19T14:24:42Z</time>
      </trkpt>
      <trkpt lat="44.81287" lon="6.96029">
        <ele>1883</ele>
        <time>2021-03-19T14:24:43Z</time>
      </trkpt>
      <trkpt lat="44.81286" lon="6.9603">
        <ele>1883</ele>
        <time>2021-03-19T14:24:44Z</time>
      </trkpt>
      <trkpt lat="44.81286" lon="6.9603">
        <ele>1883</ele>
        <time>2021-03-19T14:24:45Z</time>
      </trkpt>
      <trkpt lat="44.81285" lon="6.96031">
        <ele>1883</ele>
        <time>2021-03-19T14:24:46Z</time>
      </trkpt>
      <trkpt lat="44.81285" lon="6.96032">
        <ele>1883</ele>
        <time>2021-03-19T14:24:47Z</time>
      </trkpt>
      <trkpt lat="44.81284" lon="6.96033">
        <ele>1883</ele>
        <time>2021-03-19T14:24:48Z</time>
      </trkpt>
      <trkpt lat="44.81284" lon="6.96034">
        <ele>1883</ele>
        <time>2021-03-19T14:24:49Z</time>
      </trkpt>
      <trkpt lat="44.81284" lon="6.96035">
        <ele>1883</ele>
        <time>2021-03-19T14:24:50Z</time>
      </trkpt>
      <trkpt lat="44.81283" lon="6.96036">
        <ele>1883</ele>
        <time>2021-03-19T14:24:51Z</time>
      </trkpt>
      <trkpt lat="44.81283" lon="6.96037">
        <ele>1883</ele>
        <time>2021-03-19T14:24:52Z</time>
      </trkpt>
      <trkpt lat="44.81282" lon="6.96037">
        <ele>1883</ele>
        <time>2021-03-19T14:24:53Z</time>
      </trkpt>
      <trkpt lat="44.81282" lon="6.96038">
        <ele>1883</ele>
        <time>2021-03-19T14:24:54Z</time>
      </trkpt>
      <trkpt lat="44.81282" lon="6.9604">
        <ele>1883</ele>
        <time>2021-03-19T14:24:55Z</time>
      </trkpt>
      <trkpt lat="44.81281" lon="6.96041">
        <ele>1883</ele>
        <time>2021-03-19T14:24:56Z</time>
      </trkpt>
      <trkpt lat="44.81281" lon="6.96042">
        <ele>1884</ele>
        <time>2021-03-19T14:24:57Z</time>
      </trkpt>
      <trkpt lat="44.8128" lon="6.96043">
        <ele>1884</ele>
        <time>2021-03-19T14:24:58Z</time>
      </trkpt>
      <trkpt lat="44.8128" lon="6.96044">
        <ele>1884</ele>
        <time>2021-03-19T14:24:59Z</time>
      </trkpt>
      <trkpt lat="44.81279" lon="6.96044">
        <ele>1884</ele>
        <time>2021-03-19T14:25:00Z</time>
      </trkpt>
      <trkpt lat="44.81279" lon="6.96045">
        <ele>1884</ele>
        <time>2021-03-19T14:25:01Z</time>
      </trkpt>
      <trkpt lat="44.81278" lon="6.96046">
        <ele>1884</ele>
        <time>2021-03-19T14:25:02Z</time>
      </trkpt>
      <trkpt lat="44.81278" lon="6.96046">
        <ele>1884</ele>
        <time>2021-03-19T14:25:03Z</time>
      </trkpt>
      <trkpt lat="44.81277" lon="6.96047">
        <ele>1884</ele>
        <time>2021-03-19T14:25:04Z</time>
      </trkpt>
      <trkpt lat="44.81277" lon="6.96047">
        <ele>1884</ele>
        <time>2021-03-19T14:25:05Z</time>
      </trkpt>
      <trkpt lat="44.81276" lon="6.96048">
        <ele>1884</ele>
        <time>2021-03-19T14:25:06Z</time>
      </trkpt>
      <trkpt lat="44.81276" lon="6.96049">
        <ele>1885</ele>
        <time>2021-03-19T14:25:07Z</time>
      </trkpt>
      <trkpt lat="44.81275" lon="6.96049">
        <ele>1885</ele>
        <time>2021-03-19T14:25:08Z</time>
      </trkpt>
      <trkpt lat="44.81275" lon="6.9605">
        <ele>1885</ele>
        <time>2021-03-19T14:25:09Z</time>
      </trkpt>
      <trkpt lat="44.81274" lon="6.96051">
        <ele>1885</ele>
        <time>2021-03-19T14:25:10Z</time>
      </trkpt>
      <trkpt lat="44.81273" lon="6.96052">
        <ele>1885</ele>
        <time>2021-03-19T14:25:11Z</time>
      </trkpt>
      <trkpt lat="44.81273" lon="6.96053">
        <ele>1886</ele>
        <time>2021-03-19T14:25:12Z</time>
      </trkpt>
      <trkpt lat="44.81272" lon="6.96054">
        <ele>1886</ele>
        <time>2021-03-19T14:25:13Z</time>
      </trkpt>
      <trkpt lat="44.81272" lon="6.96055">
        <ele>1886</ele>
        <time>2021-03-19T14:25:14Z</time>
      </trkpt>
      <trkpt lat="44.81271" lon="6.96056">
        <ele>1886</ele>
        <time>2021-03-19T14:25:15Z</time>
      </trkpt>
      <trkpt lat="44.81271" lon="6.96057">
        <ele>1886</ele>
        <time>2021-03-19T14:25:16Z</time>
      </trkpt>
      <trkpt lat="44.8127" lon="6.96058">
        <ele>1887</ele>
        <time>2021-03-19T14:25:17Z</time>
      </trkpt>
      <trkpt lat="44.8127" lon="6.96059">
        <ele>1887</ele>
        <time>2021-03-19T14:25:18Z</time>
      </trkpt>
      <trkpt lat="44.81269" lon="6.9606">
        <ele>1887</ele>
        <time>2021-03-19T14:25:19Z</time>
      </trkpt>
      <trkpt lat="44.81269" lon="6.96061">
        <ele>1887</ele>
        <time>2021-03-19T14:25:20Z</time>
      </trkpt>
      <trkpt lat="44.81269" lon="6.96062">
        <ele>1887</ele>
        <time>2021-03-19T14:25:21Z</time>
      </trkpt>
      <trkpt lat="44.81268" lon="6.96063">
        <ele>1887</ele>
        <time>2021-03-19T14:25:22Z</time>
      </trkpt>
      <trkpt lat="44.81268" lon="6.96064">
        <ele>1887</ele>
        <time>2021-03-19T14:25:23Z</time>
      </trkpt>
      <trkpt lat="44.81267" lon="6.96065">
        <ele>1887</ele>
        <time>2021-03-19T14:25:24Z</time>
      </trkpt>
      <trkpt lat="44.81267" lon="6.96066">
        <ele>1887</ele>
        <time>2021-03-19T14:25:25Z</time>
      </trkpt>
      <trkpt lat="44.81266" lon="6.96067">
        <ele>1887</ele>
        <time>2021-03-19T14:25:26Z</time>
      </trkpt>
      <trkpt lat="44.81266" lon="6.96068">
        <ele>1888</ele>
        <time>2021-03-19T14:25:27Z</time>
      </trkpt>
      <trkpt lat="44.81265" lon="6.96069">
        <ele>1888</ele>
        <time>2021-03-19T14:25:28Z</time>
      </trkpt>
      <trkpt lat="44.81265" lon="6.9607">
        <ele>1888</ele>
        <time>2021-03-19T14:25:29Z</time>
      </trkpt>
      <trkpt lat="44.81264" lon="6.96071">
        <ele>1888</ele>
        <time>2021-03-19T14:25:30Z</time>
      </trkpt>
      <trkpt lat="44.81264" lon="6.96072">
        <ele>1888</ele>
        <time>2021-03-19T14:25:31Z</time>
      </trkpt>
      <trkpt lat="44.81263" lon="6.96073">
        <ele>1889</ele>
        <time>2021-03-19T14:25:32Z</time>
      </trkpt>
      <trkpt lat="44.81263" lon="6.96074">
        <ele>1889</ele>
        <time>2021-03-19T14:25:33Z</time>
      </trkpt>
      <trkpt lat="44.81263" lon="6.96074">
        <ele>1889</ele>
        <time>2021-03-19T14:25:34Z</time>
      </trkpt>
      <trkpt lat="44.81262" lon="6.96075">
        <ele>1889</ele>
        <time>2021-03-19T14:25:35Z</time>
      </trkpt>
      <trkpt lat="44.81262" lon="6.96076">
        <ele>1889</ele>
        <time>2021-03-19T14:25:36Z</time>
      </trkpt>
      <trkpt lat="44.81261" lon="6.96077">
        <ele>1890</ele>
        <time>2021-03-19T14:25:37Z</time>
      </trkpt>
      <trkpt lat="44.81261" lon="6.96078">
        <ele>1890</ele>
        <time>2021-03-19T14:25:38Z</time>
      </trkpt>
      <trkpt lat="44.8126" lon="6.96079">
        <ele>1890</ele>
        <time>2021-03-19T14:25:39Z</time>
      </trkpt>
      <trkpt lat="44.8126" lon="6.96079">
        <ele>1890</ele>
        <time>2021-03-19T14:25:40Z</time>
      </trkpt>
      <trkpt lat="44.81259" lon="6.9608">
        <ele>1890</ele>
        <time>2021-03-19T14:25:41Z</time>
      </trkpt>
      <trkpt lat="44.81259" lon="6.96081">
        <ele>1890</ele>
        <time>2021-03-19T14:25:42Z</time>
      </trkpt>
      <trkpt lat="44.81258" lon="6.96082">
        <ele>1890</ele>
        <time>2021-03-19T14:25:43Z</time>
      </trkpt>
      <trkpt lat="44.81258" lon="6.96083">
        <ele>1890</ele>
        <time>2021-03-19T14:25:44Z</time>
      </trkpt>
      <trkpt lat="44.81257" lon="6.96084">
        <ele>1890</ele>
        <time>2021-03-19T14:25:45Z</time>
      </trkpt>
      <trkpt lat="44.81257" lon="6.96086">
        <ele>1890</ele>
        <time>2021-03-19T14:25:46Z</time>
      </trkpt>
      <trkpt lat="44.81256" lon="6.96087">
        <ele>1891</ele>
        <time>2021-03-19T14:25:47Z</time>
      </trkpt>
      <trkpt lat="44.81255" lon="6.96088">
        <ele>1891</ele>
        <time>2021-03-19T14:25:48Z</time>
      </trkpt>
      <trkpt lat="44.81255" lon="6.96089">
        <ele>1891</ele>
        <time>2021-03-19T14:25:49Z</time>
      </trkpt>
      <trkpt lat="44.81254" lon="6.9609">
        <ele>1891</ele>
        <time>2021-03-19T14:25:50Z</time>
      </trkpt>
      <trkpt lat="44.81254" lon="6.96092">
        <ele>1891</ele>
        <time>2021-03-19T14:25:51Z</time>
      </trkpt>
      <trkpt lat="44.81253" lon="6.96093">
        <ele>1891</ele>
        <time>2021-03-19T14:25:52Z</time>
      </trkpt>
      <trkpt lat="44.81253" lon="6.96094">
        <ele>1891</ele>
        <time>2021-03-19T14:25:53Z</time>
      </trkpt>
      <trkpt lat="44.81253" lon="6.96095">
        <ele>1891</ele>
        <time>2021-03-19T14:25:54Z</time>
      </trkpt>
      <trkpt lat="44.81253" lon="6.96096">
        <ele>1891</ele>
        <time>2021-03-19T14:25:55Z</time>
      </trkpt>
      <trkpt lat="44.81253" lon="6.96098">
        <ele>1891</ele>
        <time>2021-03-19T14:25:56Z</time>
      </trkpt>
      <trkpt lat="44.81253" lon="6.96098">
        <ele>1891</ele>
        <time>2021-03-19T14:25:57Z</time>
      </trkpt>
      <trkpt lat="44.81254" lon="6.96099">
        <ele>1891</ele>
        <time>2021-03-19T14:25:58Z</time>
      </trkpt>
      <trkpt lat="44.81254" lon="6.96101">
        <ele>1891</ele>
        <time>2021-03-19T14:25:59Z</time>
      </trkpt>
      <trkpt lat="44.81254" lon="6.96102">
        <ele>1891</ele>
        <time>2021-03-19T14:26:00Z</time>
      </trkpt>
      <trkpt lat="44.81254" lon="6.96103">
        <ele>1891</ele>
        <time>2021-03-19T14:26:01Z</time>
      </trkpt>
      <trkpt lat="44.81254" lon="6.96104">
        <ele>1892</ele>
        <time>2021-03-19T14:26:02Z</time>
      </trkpt>
      <trkpt lat="44.81254" lon="6.96105">
        <ele>1892</ele>
        <time>2021-03-19T14:26:03Z</time>
      </trkpt>
      <trkpt lat="44.81253" lon="6.96106">
        <ele>1892</ele>
        <time>2021-03-19T14:26:04Z</time>
      </trkpt>
      <trkpt lat="44.81252" lon="6.96106">
        <ele>1892</ele>
        <time>2021-03-19T14:26:05Z</time>
      </trkpt>
      <trkpt lat="44.81252" lon="6.96107">
        <ele>1892</ele>
        <time>2021-03-19T14:26:06Z</time>
      </trkpt>
      <trkpt lat="44.81251" lon="6.96108">
        <ele>1893</ele>
        <time>2021-03-19T14:26:07Z</time>
      </trkpt>
      <trkpt lat="44.81251" lon="6.96109">
        <ele>1893</ele>
        <time>2021-03-19T14:26:08Z</time>
      </trkpt>
      <trkpt lat="44.8125" lon="6.9611">
        <ele>1893</ele>
        <time>2021-03-19T14:26:09Z</time>
      </trkpt>
      <trkpt lat="44.8125" lon="6.96111">
        <ele>1893</ele>
        <time>2021-03-19T14:26:10Z</time>
      </trkpt>
      <trkpt lat="44.8125" lon="6.96112">
        <ele>1893</ele>
        <time>2021-03-19T14:26:11Z</time>
      </trkpt>
      <trkpt lat="44.81249" lon="6.96112">
        <ele>1894</ele>
        <time>2021-03-19T14:26:12Z</time>
      </trkpt>
      <trkpt lat="44.81249" lon="6.96113">
        <ele>1894</ele>
        <time>2021-03-19T14:26:13Z</time>
      </trkpt>
      <trkpt lat="44.81249" lon="6.96114">
        <ele>1894</ele>
        <time>2021-03-19T14:26:14Z</time>
      </trkpt>
      <trkpt lat="44.81249" lon="6.96115">
        <ele>1894</ele>
        <time>2021-03-19T14:26:15Z</time>
      </trkpt>
      <trkpt lat="44.81248" lon="6.96116">
        <ele>1894</ele>
        <time>2021-03-19T14:26:16Z</time>
      </trkpt>
      <trkpt lat="44.81248" lon="6.96117">
        <ele>1894</ele>
        <time>2021-03-19T14:26:17Z</time>
      </trkpt>
      <trkpt lat="44.81248" lon="6.96118">
        <ele>1894</ele>
        <time>2021-03-19T14:26:18Z</time>
      </trkpt>
      <trkpt lat="44.81248" lon="6.96119">
        <ele>1894</ele>
        <time>2021-03-19T14:26:19Z</time>
      </trkpt>
      <trkpt lat="44.81248" lon="6.9612">
        <ele>1894</ele>
        <time>2021-03-19T14:26:20Z</time>
      </trkpt>
      <trkpt lat="44.81248" lon="6.96121">
        <ele>1894</ele>
        <time>2021-03-19T14:26:21Z</time>
      </trkpt>
      <trkpt lat="44.81248" lon="6.96122">
        <ele>1895</ele>
        <time>2021-03-19T14:26:22Z</time>
      </trkpt>
      <trkpt lat="44.81248" lon="6.96123">
        <ele>1895</ele>
        <time>2021-03-19T14:26:23Z</time>
      </trkpt>
      <trkpt lat="44.81248" lon="6.96125">
        <ele>1895</ele>
        <time>2021-03-19T14:26:24Z</time>
      </trkpt>
      <trkpt lat="44.81248" lon="6.96126">
        <ele>1895</ele>
        <time>2021-03-19T14:26:25Z</time>
      </trkpt>
      <trkpt lat="44.81248" lon="6.96127">
        <ele>1895</ele>
        <time>2021-03-19T14:26:26Z</time>
      </trkpt>
      <trkpt lat="44.81247" lon="6.96128">
        <ele>1895</ele>
        <time>2021-03-19T14:26:27Z</time>
      </trkpt>
      <trkpt lat="44.81247" lon="6.96129">
        <ele>1895</ele>
        <time>2021-03-19T14:26:28Z</time>
      </trkpt>
      <trkpt lat="44.81248" lon="6.9613">
        <ele>1895</ele>
        <time>2021-03-19T14:26:29Z</time>
      </trkpt>
      <trkpt lat="44.81248" lon="6.96131">
        <ele>1895</ele>
        <time>2021-03-19T14:26:30Z</time>
      </trkpt>
      <trkpt lat="44.81248" lon="6.96132">
        <ele>1895</ele>
        <time>2021-03-19T14:26:31Z</time>
      </trkpt>
      <trkpt lat="44.81249" lon="6.96132">
        <ele>1895</ele>
        <time>2021-03-19T14:26:32Z</time>
      </trkpt>
      <trkpt lat="44.81249" lon="6.96132">
        <ele>1895</ele>
        <time>2021-03-19T14:26:33Z</time>
      </trkpt>
      <trkpt lat="44.8125" lon="6.96132">
        <ele>1895</ele>
        <time>2021-03-19T14:26:34Z</time>
      </trkpt>
      <trkpt lat="44.8125" lon="6.96132">
        <ele>1895</ele>
        <time>2021-03-19T14:26:35Z</time>
      </trkpt>
      <trkpt lat="44.8125" lon="6.96132">
        <ele>1895</ele>
        <time>2021-03-19T14:26:36Z</time>
      </trkpt>
      <trkpt lat="44.81251" lon="6.96131">
        <ele>1896</ele>
        <time>2021-03-19T14:26:37Z</time>
      </trkpt>
      <trkpt lat="44.81251" lon="6.9613">
        <ele>1896</ele>
        <time>2021-03-19T14:26:38Z</time>
      </trkpt>
      <trkpt lat="44.81252" lon="6.96129">
        <ele>1896</ele>
        <time>2021-03-19T14:26:39Z</time>
      </trkpt>
      <trkpt lat="44.81252" lon="6.96128">
        <ele>1896</ele>
        <time>2021-03-19T14:26:40Z</time>
      </trkpt>
      <trkpt lat="44.81253" lon="6.96127">
        <ele>1896</ele>
        <time>2021-03-19T14:26:41Z</time>
      </trkpt>
      <trkpt lat="44.81254" lon="6.96126">
        <ele>1897</ele>
        <time>2021-03-19T14:26:42Z</time>
      </trkpt>
      <trkpt lat="44.81255" lon="6.96126">
        <ele>1897</ele>
        <time>2021-03-19T14:26:43Z</time>
      </trkpt>
      <trkpt lat="44.81256" lon="6.96126">
        <ele>1897</ele>
        <time>2021-03-19T14:26:44Z</time>
      </trkpt>
      <trkpt lat="44.81257" lon="6.96127">
        <ele>1897</ele>
        <time>2021-03-19T14:26:45Z</time>
      </trkpt>
      <trkpt lat="44.81258" lon="6.96128">
        <ele>1897</ele>
        <time>2021-03-19T14:26:46Z</time>
      </trkpt>
      <trkpt lat="44.81258" lon="6.96129">
        <ele>1898</ele>
        <time>2021-03-19T14:26:47Z</time>
      </trkpt>
      <trkpt lat="44.81259" lon="6.9613">
        <ele>1898</ele>
        <time>2021-03-19T14:26:48Z</time>
      </trkpt>
      <trkpt lat="44.81259" lon="6.96131">
        <ele>1898</ele>
        <time>2021-03-19T14:26:49Z</time>
      </trkpt>
      <trkpt lat="44.81259" lon="6.96133">
        <ele>1898</ele>
        <time>2021-03-19T14:26:50Z</time>
      </trkpt>
      <trkpt lat="44.81259" lon="6.96134">
        <ele>1898</ele>
        <time>2021-03-19T14:26:51Z</time>
      </trkpt>
      <trkpt lat="44.81259" lon="6.96134">
        <ele>1899</ele>
        <time>2021-03-19T14:26:52Z</time>
      </trkpt>
      <trkpt lat="44.81258" lon="6.96135">
        <ele>1899</ele>
        <time>2021-03-19T14:26:53Z</time>
      </trkpt>
      <trkpt lat="44.81258" lon="6.96136">
        <ele>1899</ele>
        <time>2021-03-19T14:26:54Z</time>
      </trkpt>
      <trkpt lat="44.81258" lon="6.96137">
        <ele>1899</ele>
        <time>2021-03-19T14:26:55Z</time>
      </trkpt>
      <trkpt lat="44.81258" lon="6.96138">
        <ele>1899</ele>
        <time>2021-03-19T14:26:56Z</time>
      </trkpt>
      <trkpt lat="44.81258" lon="6.96139">
        <ele>1900</ele>
        <time>2021-03-19T14:26:57Z</time>
      </trkpt>
      <trkpt lat="44.81258" lon="6.9614">
        <ele>1900</ele>
        <time>2021-03-19T14:26:58Z</time>
      </trkpt>
      <trkpt lat="44.81258" lon="6.96141">
        <ele>1900</ele>
        <time>2021-03-19T14:26:59Z</time>
      </trkpt>
      <trkpt lat="44.81258" lon="6.96142">
        <ele>1900</ele>
        <time>2021-03-19T14:27:00Z</time>
      </trkpt>
      <trkpt lat="44.81258" lon="6.96143">
        <ele>1900</ele>
        <time>2021-03-19T14:27:01Z</time>
      </trkpt>
      <trkpt lat="44.81259" lon="6.96144">
        <ele>1901</ele>
        <time>2021-03-19T14:27:02Z</time>
      </trkpt>
      <trkpt lat="44.81259" lon="6.96145">
        <ele>1901</ele>
        <time>2021-03-19T14:27:03Z</time>
      </trkpt>
      <trkpt lat="44.81259" lon="6.96146">
        <ele>1901</ele>
        <time>2021-03-19T14:27:04Z</time>
      </trkpt>
      <trkpt lat="44.81259" lon="6.96147">
        <ele>1901</ele>
        <time>2021-03-19T14:27:05Z</time>
      </trkpt>
      <trkpt lat="44.81259" lon="6.96148">
        <ele>1901</ele>
        <time>2021-03-19T14:27:06Z</time>
      </trkpt>
      <trkpt lat="44.8126" lon="6.9615">
        <ele>1901</ele>
        <time>2021-03-19T14:27:07Z</time>
      </trkpt>
      <trkpt lat="44.8126" lon="6.96151">
        <ele>1901</ele>
        <time>2021-03-19T14:27:08Z</time>
      </trkpt>
      <trkpt lat="44.8126" lon="6.96152">
        <ele>1901</ele>
        <time>2021-03-19T14:27:09Z</time>
      </trkpt>
      <trkpt lat="44.8126" lon="6.96153">
        <ele>1901</ele>
        <time>2021-03-19T14:27:10Z</time>
      </trkpt>
      <trkpt lat="44.81261" lon="6.96155">
        <ele>1901</ele>
        <time>2021-03-19T14:27:11Z</time>
      </trkpt>
      <trkpt lat="44.81261" lon="6.96156">
        <ele>1901</ele>
        <time>2021-03-19T14:27:12Z</time>
      </trkpt>
      <trkpt lat="44.81261" lon="6.96157">
        <ele>1901</ele>
        <time>2021-03-19T14:27:13Z</time>
      </trkpt>
      <trkpt lat="44.81261" lon="6.96158">
        <ele>1901</ele>
        <time>2021-03-19T14:27:14Z</time>
      </trkpt>
      <trkpt lat="44.81261" lon="6.96159">
        <ele>1901</ele>
        <time>2021-03-19T14:27:15Z</time>
      </trkpt>
      <trkpt lat="44.81261" lon="6.9616">
        <ele>1901</ele>
        <time>2021-03-19T14:27:16Z</time>
      </trkpt>
      <trkpt lat="44.81261" lon="6.96161">
        <ele>1901</ele>
        <time>2021-03-19T14:27:17Z</time>
      </trkpt>
      <trkpt lat="44.81261" lon="6.96162">
        <ele>1901</ele>
        <time>2021-03-19T14:27:18Z</time>
      </trkpt>
      <trkpt lat="44.81261" lon="6.96163">
        <ele>1901</ele>
        <time>2021-03-19T14:27:19Z</time>
      </trkpt>
      <trkpt lat="44.81262" lon="6.96164">
        <ele>1901</ele>
        <time>2021-03-19T14:27:20Z</time>
      </trkpt>
      <trkpt lat="44.81262" lon="6.96166">
        <ele>1901</ele>
        <time>2021-03-19T14:27:21Z</time>
      </trkpt>
      <trkpt lat="44.81262" lon="6.96167">
        <ele>1901</ele>
        <time>2021-03-19T14:27:22Z</time>
      </trkpt>
      <trkpt lat="44.81263" lon="6.96168">
        <ele>1901</ele>
        <time>2021-03-19T14:27:23Z</time>
      </trkpt>
      <trkpt lat="44.81263" lon="6.96169">
        <ele>1901</ele>
        <time>2021-03-19T14:27:24Z</time>
      </trkpt>
      <trkpt lat="44.81263" lon="6.96171">
        <ele>1901</ele>
        <time>2021-03-19T14:27:25Z</time>
      </trkpt>
      <trkpt lat="44.81263" lon="6.96172">
        <ele>1901</ele>
        <time>2021-03-19T14:27:26Z</time>
      </trkpt>
      <trkpt lat="44.81263" lon="6.96173">
        <ele>1901</ele>
        <time>2021-03-19T14:27:27Z</time>
      </trkpt>
      <trkpt lat="44.81263" lon="6.96174">
        <ele>1901</ele>
        <time>2021-03-19T14:27:28Z</time>
      </trkpt>
      <trkpt lat="44.81263" lon="6.96175">
        <ele>1901</ele>
        <time>2021-03-19T14:27:29Z</time>
      </trkpt>
      <trkpt lat="44.81262" lon="6.96176">
        <ele>1901</ele>
        <time>2021-03-19T14:27:30Z</time>
      </trkpt>
      <trkpt lat="44.81262" lon="6.96177">
        <ele>1901</ele>
        <time>2021-03-19T14:27:31Z</time>
      </trkpt>
      <trkpt lat="44.81262" lon="6.96178">
        <ele>1901</ele>
        <time>2021-03-19T14:27:32Z</time>
      </trkpt>
      <trkpt lat="44.81262" lon="6.96179">
        <ele>1901</ele>
        <time>2021-03-19T14:27:33Z</time>
      </trkpt>
      <trkpt lat="44.81262" lon="6.96181">
        <ele>1901</ele>
        <time>2021-03-19T14:27:34Z</time>
      </trkpt>
      <trkpt lat="44.81261" lon="6.96182">
        <ele>1901</ele>
        <time>2021-03-19T14:27:35Z</time>
      </trkpt>
      <trkpt lat="44.81261" lon="6.96183">
        <ele>1901</ele>
        <time>2021-03-19T14:27:36Z</time>
      </trkpt>
      <trkpt lat="44.81261" lon="6.96185">
        <ele>1901</ele>
        <time>2021-03-19T14:27:37Z</time>
      </trkpt>
      <trkpt lat="44.8126" lon="6.96186">
        <ele>1901</ele>
        <time>2021-03-19T14:27:38Z</time>
      </trkpt>
      <trkpt lat="44.8126" lon="6.96188">
        <ele>1901</ele>
        <time>2021-03-19T14:27:39Z</time>
      </trkpt>
      <trkpt lat="44.81259" lon="6.9619">
        <ele>1901</ele>
        <time>2021-03-19T14:27:40Z</time>
      </trkpt>
      <trkpt lat="44.81259" lon="6.96192">
        <ele>1901</ele>
        <time>2021-03-19T14:27:41Z</time>
      </trkpt>
      <trkpt lat="44.81259" lon="6.96193">
        <ele>1901</ele>
        <time>2021-03-19T14:27:42Z</time>
      </trkpt>
      <trkpt lat="44.81259" lon="6.96195">
        <ele>1901</ele>
        <time>2021-03-19T14:27:43Z</time>
      </trkpt>
      <trkpt lat="44.81258" lon="6.96196">
        <ele>1901</ele>
        <time>2021-03-19T14:27:44Z</time>
      </trkpt>
      <trkpt lat="44.81258" lon="6.96198">
        <ele>1901</ele>
        <time>2021-03-19T14:27:45Z</time>
      </trkpt>
      <trkpt lat="44.81258" lon="6.96199">
        <ele>1901</ele>
        <time>2021-03-19T14:27:46Z</time>
      </trkpt>
      <trkpt lat="44.81258" lon="6.962">
        <ele>1901</ele>
        <time>2021-03-19T14:27:47Z</time>
      </trkpt>
      <trkpt lat="44.81258" lon="6.96201">
        <ele>1900</ele>
        <time>2021-03-19T14:27:48Z</time>
      </trkpt>
      <trkpt lat="44.81257" lon="6.96202">
        <ele>1900</ele>
        <time>2021-03-19T14:27:49Z</time>
      </trkpt>
      <trkpt lat="44.81257" lon="6.96203">
        <ele>1900</ele>
        <time>2021-03-19T14:27:50Z</time>
      </trkpt>
      <trkpt lat="44.81257" lon="6.96205">
        <ele>1900</ele>
        <time>2021-03-19T14:27:51Z</time>
      </trkpt>
      <trkpt lat="44.81256" lon="6.96206">
        <ele>1900</ele>
        <time>2021-03-19T14:27:52Z</time>
      </trkpt>
      <trkpt lat="44.81256" lon="6.96207">
        <ele>1900</ele>
        <time>2021-03-19T14:27:53Z</time>
      </trkpt>
      <trkpt lat="44.81255" lon="6.96208">
        <ele>1900</ele>
        <time>2021-03-19T14:27:54Z</time>
      </trkpt>
      <trkpt lat="44.81255" lon="6.9621">
        <ele>1900</ele>
        <time>2021-03-19T14:27:55Z</time>
      </trkpt>
      <trkpt lat="44.81254" lon="6.96211">
        <ele>1900</ele>
        <time>2021-03-19T14:27:56Z</time>
      </trkpt>
      <trkpt lat="44.81254" lon="6.96212">
        <ele>1900</ele>
        <time>2021-03-19T14:27:57Z</time>
      </trkpt>
      <trkpt lat="44.81254" lon="6.96213">
        <ele>1900</ele>
        <time>2021-03-19T14:27:58Z</time>
      </trkpt>
      <trkpt lat="44.81253" lon="6.96215">
        <ele>1900</ele>
        <time>2021-03-19T14:27:59Z</time>
      </trkpt>
      <trkpt lat="44.81253" lon="6.96216">
        <ele>1900</ele>
        <time>2021-03-19T14:28:00Z</time>
      </trkpt>
      <trkpt lat="44.81252" lon="6.96217">
        <ele>1900</ele>
        <time>2021-03-19T14:28:01Z</time>
      </trkpt>
      <trkpt lat="44.81252" lon="6.96218">
        <ele>1900</ele>
        <time>2021-03-19T14:28:02Z</time>
      </trkpt>
      <trkpt lat="44.81252" lon="6.96219">
        <ele>1899</ele>
        <time>2021-03-19T14:28:03Z</time>
      </trkpt>
      <trkpt lat="44.81252" lon="6.96221">
        <ele>1899</ele>
        <time>2021-03-19T14:28:04Z</time>
      </trkpt>
      <trkpt lat="44.81252" lon="6.96222">
        <ele>1899</ele>
        <time>2021-03-19T14:28:05Z</time>
      </trkpt>
      <trkpt lat="44.81252" lon="6.96223">
        <ele>1899</ele>
        <time>2021-03-19T14:28:06Z</time>
      </trkpt>
      <trkpt lat="44.81252" lon="6.96224">
        <ele>1899</ele>
        <time>2021-03-19T14:28:07Z</time>
      </trkpt>
      <trkpt lat="44.81251" lon="6.96225">
        <ele>1899</ele>
        <time>2021-03-19T14:28:08Z</time>
      </trkpt>
      <trkpt lat="44.81251" lon="6.96227">
        <ele>1899</ele>
        <time>2021-03-19T14:28:09Z</time>
      </trkpt>
      <trkpt lat="44.81251" lon="6.96228">
        <ele>1899</ele>
        <time>2021-03-19T14:28:10Z</time>
      </trkpt>
      <trkpt lat="44.81251" lon="6.96229">
        <ele>1899</ele>
        <time>2021-03-19T14:28:11Z</time>
      </trkpt>
      <trkpt lat="44.81251" lon="6.96231">
        <ele>1899</ele>
        <time>2021-03-19T14:28:12Z</time>
      </trkpt>
      <trkpt lat="44.81251" lon="6.96232">
        <ele>1899</ele>
        <time>2021-03-19T14:28:13Z</time>
      </trkpt>
      <trkpt lat="44.81251" lon="6.96234">
        <ele>1899</ele>
        <time>2021-03-19T14:28:14Z</time>
      </trkpt>
      <trkpt lat="44.81251" lon="6.96235">
        <ele>1899</ele>
        <time>2021-03-19T14:28:15Z</time>
      </trkpt>
      <trkpt lat="44.81251" lon="6.96237">
        <ele>1899</ele>
        <time>2021-03-19T14:28:16Z</time>
      </trkpt>
      <trkpt lat="44.8125" lon="6.96238">
        <ele>1899</ele>
        <time>2021-03-19T14:28:17Z</time>
      </trkpt>
      <trkpt lat="44.8125" lon="6.9624">
        <ele>1899</ele>
        <time>2021-03-19T14:28:18Z</time>
      </trkpt>
      <trkpt lat="44.8125" lon="6.96241">
        <ele>1899</ele>
        <time>2021-03-19T14:28:19Z</time>
      </trkpt>
      <trkpt lat="44.8125" lon="6.96242">
        <ele>1899</ele>
        <time>2021-03-19T14:28:20Z</time>
      </trkpt>
      <trkpt lat="44.81249" lon="6.96244">
        <ele>1899</ele>
        <time>2021-03-19T14:28:21Z</time>
      </trkpt>
      <trkpt lat="44.81249" lon="6.96245">
        <ele>1899</ele>
        <time>2021-03-19T14:28:22Z</time>
      </trkpt>
      <trkpt lat="44.81249" lon="6.96246">
        <ele>1899</ele>
        <time>2021-03-19T14:28:23Z</time>
      </trkpt>
      <trkpt lat="44.81249" lon="6.96247">
        <ele>1899</ele>
        <time>2021-03-19T14:28:24Z</time>
      </trkpt>
      <trkpt lat="44.81248" lon="6.96248">
        <ele>1899</ele>
        <time>2021-03-19T14:28:25Z</time>
      </trkpt>
      <trkpt lat="44.81248" lon="6.9625">
        <ele>1899</ele>
        <time>2021-03-19T14:28:26Z</time>
      </trkpt>
      <trkpt lat="44.81248" lon="6.96251">
        <ele>1899</ele>
        <time>2021-03-19T14:28:27Z</time>
      </trkpt>
      <trkpt lat="44.81247" lon="6.96252">
        <ele>1898</ele>
        <time>2021-03-19T14:28:28Z</time>
      </trkpt>
      <trkpt lat="44.81247" lon="6.96254">
        <ele>1898</ele>
        <time>2021-03-19T14:28:29Z</time>
      </trkpt>
      <trkpt lat="44.81247" lon="6.96255">
        <ele>1898</ele>
        <time>2021-03-19T14:28:30Z</time>
      </trkpt>
      <trkpt lat="44.81247" lon="6.96257">
        <ele>1898</ele>
        <time>2021-03-19T14:28:31Z</time>
      </trkpt>
      <trkpt lat="44.81247" lon="6.96258">
        <ele>1898</ele>
        <time>2021-03-19T14:28:32Z</time>
      </trkpt>
      <trkpt lat="44.81247" lon="6.96259">
        <ele>1897</ele>
        <time>2021-03-19T14:28:33Z</time>
      </trkpt>
      <trkpt lat="44.81247" lon="6.96261">
        <ele>1897</ele>
        <time>2021-03-19T14:28:34Z</time>
      </trkpt>
      <trkpt lat="44.81248" lon="6.96262">
        <ele>1896</ele>
        <time>2021-03-19T14:28:35Z</time>
      </trkpt>
      <trkpt lat="44.81248" lon="6.96264">
        <ele>1896</ele>
        <time>2021-03-19T14:28:36Z</time>
      </trkpt>
      <trkpt lat="44.81249" lon="6.96265">
        <ele>1896</ele>
        <time>2021-03-19T14:28:37Z</time>
      </trkpt>
      <trkpt lat="44.81249" lon="6.96267">
        <ele>1895</ele>
        <time>2021-03-19T14:28:38Z</time>
      </trkpt>
      <trkpt lat="44.8125" lon="6.96268">
        <ele>1895</ele>
        <time>2021-03-19T14:28:39Z</time>
      </trkpt>
      <trkpt lat="44.8125" lon="6.9627">
        <ele>1895</ele>
        <time>2021-03-19T14:28:40Z</time>
      </trkpt>
      <trkpt lat="44.81251" lon="6.96271">
        <ele>1895</ele>
        <time>2021-03-19T14:28:41Z</time>
      </trkpt>
      <trkpt lat="44.81251" lon="6.96272">
        <ele>1895</ele>
        <time>2021-03-19T14:28:42Z</time>
      </trkpt>
      <trkpt lat="44.81252" lon="6.96273">
        <ele>1895</ele>
        <time>2021-03-19T14:28:43Z</time>
      </trkpt>
      <trkpt lat="44.81252" lon="6.96274">
        <ele>1895</ele>
        <time>2021-03-19T14:28:44Z</time>
      </trkpt>
      <trkpt lat="44.81252" lon="6.96275">
        <ele>1895</ele>
        <time>2021-03-19T14:28:45Z</time>
      </trkpt>
      <trkpt lat="44.81253" lon="6.96276">
        <ele>1895</ele>
        <time>2021-03-19T14:28:46Z</time>
      </trkpt>
      <trkpt lat="44.81252" lon="6.96277">
        <ele>1895</ele>
        <time>2021-03-19T14:28:47Z</time>
      </trkpt>
      <trkpt lat="44.81252" lon="6.96279">
        <ele>1894</ele>
        <time>2021-03-19T14:28:48Z</time>
      </trkpt>
      <trkpt lat="44.81251" lon="6.96281">
        <ele>1894</ele>
        <time>2021-03-19T14:28:49Z</time>
      </trkpt>
      <trkpt lat="44.8125" lon="6.96282">
        <ele>1894</ele>
        <time>2021-03-19T14:28:50Z</time>
      </trkpt>
      <trkpt lat="44.81249" lon="6.96284">
        <ele>1894</ele>
        <time>2021-03-19T14:28:51Z</time>
      </trkpt>
      <trkpt lat="44.81248" lon="6.96285">
        <ele>1894</ele>
        <time>2021-03-19T14:28:52Z</time>
      </trkpt>
      <trkpt lat="44.81247" lon="6.96286">
        <ele>1893</ele>
        <time>2021-03-19T14:28:53Z</time>
      </trkpt>
      <trkpt lat="44.81246" lon="6.96288">
        <ele>1893</ele>
        <time>2021-03-19T14:28:54Z</time>
      </trkpt>
      <trkpt lat="44.81244" lon="6.96288">
        <ele>1893</ele>
        <time>2021-03-19T14:28:55Z</time>
      </trkpt>
      <trkpt lat="44.81243" lon="6.96289">
        <ele>1893</ele>
        <time>2021-03-19T14:28:56Z</time>
      </trkpt>
      <trkpt lat="44.81242" lon="6.9629">
        <ele>1893</ele>
        <time>2021-03-19T14:28:57Z</time>
      </trkpt>
      <trkpt lat="44.81241" lon="6.9629">
        <ele>1892</ele>
        <time>2021-03-19T14:28:58Z</time>
      </trkpt>
      <trkpt lat="44.8124" lon="6.9629">
        <ele>1892</ele>
        <time>2021-03-19T14:28:59Z</time>
      </trkpt>
      <trkpt lat="44.81239" lon="6.9629">
        <ele>1891</ele>
        <time>2021-03-19T14:29:00Z</time>
      </trkpt>
      <trkpt lat="44.81237" lon="6.96289">
        <ele>1891</ele>
        <time>2021-03-19T14:29:01Z</time>
      </trkpt>
      <trkpt lat="44.81236" lon="6.96289">
        <ele>1891</ele>
        <time>2021-03-19T14:29:02Z</time>
      </trkpt>
      <trkpt lat="44.81236" lon="6.96289">
        <ele>1890</ele>
        <time>2021-03-19T14:29:03Z</time>
      </trkpt>
      <trkpt lat="44.81235" lon="6.96289">
        <ele>1890</ele>
        <time>2021-03-19T14:29:04Z</time>
      </trkpt>
      <trkpt lat="44.81235" lon="6.96288">
        <ele>1890</ele>
        <time>2021-03-19T14:29:05Z</time>
      </trkpt>
      <trkpt lat="44.81235" lon="6.96289">
        <ele>1890</ele>
        <time>2021-03-19T14:29:06Z</time>
      </trkpt>
      <trkpt lat="44.81235" lon="6.96289">
        <ele>1890</ele>
        <time>2021-03-19T14:29:07Z</time>
      </trkpt>
      <trkpt lat="44.81235" lon="6.9629">
        <ele>1890</ele>
        <time>2021-03-19T14:29:08Z</time>
      </trkpt>
      <trkpt lat="44.81235" lon="6.96291">
        <ele>1890</ele>
        <time>2021-03-19T14:29:09Z</time>
      </trkpt>
      <trkpt lat="44.81235" lon="6.96291">
        <ele>1890</ele>
        <time>2021-03-19T14:29:10Z</time>
      </trkpt>
      <trkpt lat="44.81235" lon="6.96292">
        <ele>1890</ele>
        <time>2021-03-19T14:29:11Z</time>
      </trkpt>
      <trkpt lat="44.81234" lon="6.96292">
        <ele>1890</ele>
        <time>2021-03-19T14:29:12Z</time>
      </trkpt>
      <trkpt lat="44.81234" lon="6.96291">
        <ele>1889</ele>
        <time>2021-03-19T14:29:13Z</time>
      </trkpt>
      <trkpt lat="44.81234" lon="6.96291">
        <ele>1889</ele>
        <time>2021-03-19T14:29:14Z</time>
      </trkpt>
      <trkpt lat="44.81233" lon="6.96292">
        <ele>1889</ele>
        <time>2021-03-19T14:29:15Z</time>
      </trkpt>
      <trkpt lat="44.81233" lon="6.96292">
        <ele>1889</ele>
        <time>2021-03-19T14:29:16Z</time>
      </trkpt>
      <trkpt lat="44.81233" lon="6.96292">
        <ele>1889</ele>
        <time>2021-03-19T14:29:17Z</time>
      </trkpt>
      <trkpt lat="44.81232" lon="6.96293">
        <ele>1888</ele>
        <time>2021-03-19T14:29:18Z</time>
      </trkpt>
      <trkpt lat="44.81232" lon="6.96293">
        <ele>1888</ele>
        <time>2021-03-19T14:29:19Z</time>
      </trkpt>
      <trkpt lat="44.81231" lon="6.96294">
        <ele>1887</ele>
        <time>2021-03-19T14:29:20Z</time>
      </trkpt>
      <trkpt lat="44.81231" lon="6.96294">
        <ele>1887</ele>
        <time>2021-03-19T14:29:21Z</time>
      </trkpt>
      <trkpt lat="44.8123" lon="6.96295">
        <ele>1887</ele>
        <time>2021-03-19T14:29:22Z</time>
      </trkpt>
      <trkpt lat="44.81229" lon="6.96295">
        <ele>1886</ele>
        <time>2021-03-19T14:29:23Z</time>
      </trkpt>
      <trkpt lat="44.81229" lon="6.96295">
        <ele>1886</ele>
        <time>2021-03-19T14:29:24Z</time>
      </trkpt>
      <trkpt lat="44.81228" lon="6.96295">
        <ele>1886</ele>
        <time>2021-03-19T14:29:25Z</time>
      </trkpt>
      <trkpt lat="44.81227" lon="6.96295">
        <ele>1886</ele>
        <time>2021-03-19T14:29:26Z</time>
      </trkpt>
      <trkpt lat="44.81226" lon="6.96295">
        <ele>1886</ele>
        <time>2021-03-19T14:29:27Z</time>
      </trkpt>
      <trkpt lat="44.81225" lon="6.96295">
        <ele>1885</ele>
        <time>2021-03-19T14:29:28Z</time>
      </trkpt>
      <trkpt lat="44.81224" lon="6.96294">
        <ele>1885</ele>
        <time>2021-03-19T14:29:29Z</time>
      </trkpt>
      <trkpt lat="44.81223" lon="6.96293">
        <ele>1885</ele>
        <time>2021-03-19T14:29:30Z</time>
      </trkpt>
      <trkpt lat="44.81222" lon="6.96292">
        <ele>1885</ele>
        <time>2021-03-19T14:29:31Z</time>
      </trkpt>
      <trkpt lat="44.81221" lon="6.96292">
        <ele>1885</ele>
        <time>2021-03-19T14:29:32Z</time>
      </trkpt>
      <trkpt lat="44.8122" lon="6.96292">
        <ele>1884</ele>
        <time>2021-03-19T14:29:33Z</time>
      </trkpt>
      <trkpt lat="44.81219" lon="6.96292">
        <ele>1884</ele>
        <time>2021-03-19T14:29:34Z</time>
      </trkpt>
      <trkpt lat="44.81218" lon="6.96292">
        <ele>1883</ele>
        <time>2021-03-19T14:29:35Z</time>
      </trkpt>
      <trkpt lat="44.81217" lon="6.96293">
        <ele>1883</ele>
        <time>2021-03-19T14:29:36Z</time>
      </trkpt>
      <trkpt lat="44.81216" lon="6.96293">
        <ele>1883</ele>
        <time>2021-03-19T14:29:37Z</time>
      </trkpt>
      <trkpt lat="44.81216" lon="6.96294">
        <ele>1882</ele>
        <time>2021-03-19T14:29:38Z</time>
      </trkpt>
      <trkpt lat="44.81216" lon="6.96296">
        <ele>1882</ele>
        <time>2021-03-19T14:29:39Z</time>
      </trkpt>
      <trkpt lat="44.81215" lon="6.96297">
        <ele>1882</ele>
        <time>2021-03-19T14:29:40Z</time>
      </trkpt>
      <trkpt lat="44.81215" lon="6.96299">
        <ele>1882</ele>
        <time>2021-03-19T14:29:41Z</time>
      </trkpt>
      <trkpt lat="44.81214" lon="6.96301">
        <ele>1882</ele>
        <time>2021-03-19T14:29:42Z</time>
      </trkpt>
      <trkpt lat="44.81213" lon="6.96303">
        <ele>1881</ele>
        <time>2021-03-19T14:29:43Z</time>
      </trkpt>
      <trkpt lat="44.81213" lon="6.96305">
        <ele>1881</ele>
        <time>2021-03-19T14:29:44Z</time>
      </trkpt>
      <trkpt lat="44.81212" lon="6.96307">
        <ele>1881</ele>
        <time>2021-03-19T14:29:45Z</time>
      </trkpt>
      <trkpt lat="44.81211" lon="6.96308">
        <ele>1881</ele>
        <time>2021-03-19T14:29:46Z</time>
      </trkpt>
      <trkpt lat="44.8121" lon="6.96309">
        <ele>1881</ele>
        <time>2021-03-19T14:29:47Z</time>
      </trkpt>
      <trkpt lat="44.8121" lon="6.9631">
        <ele>1881</ele>
        <time>2021-03-19T14:29:48Z</time>
      </trkpt>
      <trkpt lat="44.81209" lon="6.9631">
        <ele>1881</ele>
        <time>2021-03-19T14:29:49Z</time>
      </trkpt>
      <trkpt lat="44.81209" lon="6.96311">
        <ele>1881</ele>
        <time>2021-03-19T14:29:50Z</time>
      </trkpt>
      <trkpt lat="44.81208" lon="6.96312">
        <ele>1881</ele>
        <time>2021-03-19T14:29:51Z</time>
      </trkpt>
      <trkpt lat="44.81208" lon="6.96313">
        <ele>1881</ele>
        <time>2021-03-19T14:29:52Z</time>
      </trkpt>
      <trkpt lat="44.81207" lon="6.96313">
        <ele>1881</ele>
        <time>2021-03-19T14:29:53Z</time>
      </trkpt>
      <trkpt lat="44.81207" lon="6.96314">
        <ele>1881</ele>
        <time>2021-03-19T14:29:54Z</time>
      </trkpt>
      <trkpt lat="44.81206" lon="6.96314">
        <ele>1881</ele>
        <time>2021-03-19T14:29:55Z</time>
      </trkpt>
      <trkpt lat="44.81206" lon="6.96315">
        <ele>1881</ele>
        <time>2021-03-19T14:29:56Z</time>
      </trkpt>
      <trkpt lat="44.81206" lon="6.96316">
        <ele>1881</ele>
        <time>2021-03-19T14:29:57Z</time>
      </trkpt>
      <trkpt lat="44.81206" lon="6.96318">
        <ele>1881</ele>
        <time>2021-03-19T14:30:05Z</time>
      </trkpt>
      <trkpt lat="44.81207" lon="6.96318">
        <ele>1881</ele>
        <time>2021-03-19T14:30:06Z</time>
      </trkpt>
      <trkpt lat="44.81207" lon="6.96319">
        <ele>1881</ele>
        <time>2021-03-19T14:30:07Z</time>
      </trkpt>
      <trkpt lat="44.81207" lon="6.9632">
        <ele>1881</ele>
        <time>2021-03-19T14:30:08Z</time>
      </trkpt>
      <trkpt lat="44.81207" lon="6.9632">
        <ele>1881</ele>
        <time>2021-03-19T14:30:09Z</time>
      </trkpt>
      <trkpt lat="44.81207" lon="6.96322">
        <ele>1881</ele>
        <time>2021-03-19T14:30:10Z</time>
      </trkpt>
      <trkpt lat="44.81207" lon="6.96323">
        <ele>1881</ele>
        <time>2021-03-19T14:30:11Z</time>
      </trkpt>
      <trkpt lat="44.81206" lon="6.96325">
        <ele>1880</ele>
        <time>2021-03-19T14:30:23Z</time>
      </trkpt>
      <trkpt lat="44.81206" lon="6.96325">
        <ele>1880</ele>
        <time>2021-03-19T14:30:24Z</time>
      </trkpt>
      <trkpt lat="44.81206" lon="6.96325">
        <ele>1880</ele>
        <time>2021-03-19T14:30:25Z</time>
      </trkpt>
      <trkpt lat="44.81206" lon="6.96325">
        <ele>1880</ele>
        <time>2021-03-19T14:30:26Z</time>
      </trkpt>
      <trkpt lat="44.81207" lon="6.96325">
        <ele>1880</ele>
        <time>2021-03-19T14:30:27Z</time>
      </trkpt>
      <trkpt lat="44.81207" lon="6.96325">
        <ele>1880</ele>
        <time>2021-03-19T14:30:28Z</time>
      </trkpt>
      <trkpt lat="44.81207" lon="6.96324">
        <ele>1880</ele>
        <time>2021-03-19T14:30:29Z</time>
      </trkpt>
      <trkpt lat="44.81207" lon="6.96324">
        <ele>1880</ele>
        <time>2021-03-19T14:30:30Z</time>
      </trkpt>
      <trkpt lat="44.81208" lon="6.96325">
        <ele>1880</ele>
        <time>2021-03-19T14:30:31Z</time>
      </trkpt>
      <trkpt lat="44.81207" lon="6.96325">
        <ele>1880</ele>
        <time>2021-03-19T14:30:32Z</time>
      </trkpt>
      <trkpt lat="44.81207" lon="6.96326">
        <ele>1880</ele>
        <time>2021-03-19T14:30:33Z</time>
      </trkpt>
      <trkpt lat="44.81206" lon="6.96327">
        <ele>1880</ele>
        <time>2021-03-19T14:30:34Z</time>
      </trkpt>
      <trkpt lat="44.81206" lon="6.96328">
        <ele>1880</ele>
        <time>2021-03-19T14:30:35Z</time>
      </trkpt>
      <trkpt lat="44.81205" lon="6.96329">
        <ele>1880</ele>
        <time>2021-03-19T14:30:36Z</time>
      </trkpt>
      <trkpt lat="44.81205" lon="6.9633">
        <ele>1880</ele>
        <time>2021-03-19T14:30:37Z</time>
      </trkpt>
      <trkpt lat="44.81204" lon="6.9633">
        <ele>1879</ele>
        <time>2021-03-19T14:30:38Z</time>
      </trkpt>
      <trkpt lat="44.81203" lon="6.96331">
        <ele>1879</ele>
        <time>2021-03-19T14:30:39Z</time>
      </trkpt>
      <trkpt lat="44.81203" lon="6.96332">
        <ele>1879</ele>
        <time>2021-03-19T14:30:40Z</time>
      </trkpt>
      <trkpt lat="44.81202" lon="6.96333">
        <ele>1879</ele>
        <time>2021-03-19T14:30:41Z</time>
      </trkpt>
      <trkpt lat="44.81201" lon="6.96334">
        <ele>1879</ele>
        <time>2021-03-19T14:30:42Z</time>
      </trkpt>
      <trkpt lat="44.812" lon="6.96335">
        <ele>1878</ele>
        <time>2021-03-19T14:30:43Z</time>
      </trkpt>
      <trkpt lat="44.81199" lon="6.96336">
        <ele>1878</ele>
        <time>2021-03-19T14:30:44Z</time>
      </trkpt>
      <trkpt lat="44.81198" lon="6.96337">
        <ele>1877</ele>
        <time>2021-03-19T14:30:45Z</time>
      </trkpt>
      <trkpt lat="44.81198" lon="6.96338">
        <ele>1877</ele>
        <time>2021-03-19T14:30:46Z</time>
      </trkpt>
      <trkpt lat="44.81197" lon="6.96338">
        <ele>1877</ele>
        <time>2021-03-19T14:30:47Z</time>
      </trkpt>
      <trkpt lat="44.81197" lon="6.96339">
        <ele>1876</ele>
        <time>2021-03-19T14:30:48Z</time>
      </trkpt>
      <trkpt lat="44.81196" lon="6.96341">
        <ele>1876</ele>
        <time>2021-03-19T14:30:49Z</time>
      </trkpt>
      <trkpt lat="44.81196" lon="6.96342">
        <ele>1876</ele>
        <time>2021-03-19T14:30:50Z</time>
      </trkpt>
      <trkpt lat="44.81195" lon="6.96343">
        <ele>1876</ele>
        <time>2021-03-19T14:30:51Z</time>
      </trkpt>
      <trkpt lat="44.81195" lon="6.96344">
        <ele>1876</ele>
        <time>2021-03-19T14:30:52Z</time>
      </trkpt>
      <trkpt lat="44.81194" lon="6.96346">
        <ele>1875</ele>
        <time>2021-03-19T14:30:53Z</time>
      </trkpt>
      <trkpt lat="44.81193" lon="6.96347">
        <ele>1875</ele>
        <time>2021-03-19T14:30:54Z</time>
      </trkpt>
      <trkpt lat="44.81193" lon="6.96348">
        <ele>1875</ele>
        <time>2021-03-19T14:30:55Z</time>
      </trkpt>
      <trkpt lat="44.81192" lon="6.96349">
        <ele>1875</ele>
        <time>2021-03-19T14:30:56Z</time>
      </trkpt>
      <trkpt lat="44.81192" lon="6.9635">
        <ele>1875</ele>
        <time>2021-03-19T14:30:57Z</time>
      </trkpt>
      <trkpt lat="44.81192" lon="6.96352">
        <ele>1874</ele>
        <time>2021-03-19T14:30:58Z</time>
      </trkpt>
      <trkpt lat="44.81192" lon="6.96353">
        <ele>1874</ele>
        <time>2021-03-19T14:30:59Z</time>
      </trkpt>
      <trkpt lat="44.81192" lon="6.96355">
        <ele>1874</ele>
        <time>2021-03-19T14:31:00Z</time>
      </trkpt>
      <trkpt lat="44.81192" lon="6.96357">
        <ele>1874</ele>
        <time>2021-03-19T14:31:01Z</time>
      </trkpt>
      <trkpt lat="44.81192" lon="6.96358">
        <ele>1874</ele>
        <time>2021-03-19T14:31:02Z</time>
      </trkpt>
      <trkpt lat="44.81192" lon="6.9636">
        <ele>1873</ele>
        <time>2021-03-19T14:31:03Z</time>
      </trkpt>
      <trkpt lat="44.81192" lon="6.96361">
        <ele>1873</ele>
        <time>2021-03-19T14:31:04Z</time>
      </trkpt>
      <trkpt lat="44.81192" lon="6.96363">
        <ele>1873</ele>
        <time>2021-03-19T14:31:05Z</time>
      </trkpt>
      <trkpt lat="44.81191" lon="6.96364">
        <ele>1873</ele>
        <time>2021-03-19T14:31:06Z</time>
      </trkpt>
      <trkpt lat="44.81191" lon="6.96365">
        <ele>1873</ele>
        <time>2021-03-19T14:31:07Z</time>
      </trkpt>
      <trkpt lat="44.81191" lon="6.96367">
        <ele>1872</ele>
        <time>2021-03-19T14:31:08Z</time>
      </trkpt>
      <trkpt lat="44.8119" lon="6.96368">
        <ele>1872</ele>
        <time>2021-03-19T14:31:09Z</time>
      </trkpt>
      <trkpt lat="44.8119" lon="6.96369">
        <ele>1872</ele>
        <time>2021-03-19T14:31:10Z</time>
      </trkpt>
      <trkpt lat="44.8119" lon="6.9637">
        <ele>1872</ele>
        <time>2021-03-19T14:31:11Z</time>
      </trkpt>
      <trkpt lat="44.8119" lon="6.96371">
        <ele>1872</ele>
        <time>2021-03-19T14:31:12Z</time>
      </trkpt>
      <trkpt lat="44.81189" lon="6.96372">
        <ele>1871</ele>
        <time>2021-03-19T14:31:13Z</time>
      </trkpt>
      <trkpt lat="44.81189" lon="6.96372">
        <ele>1871</ele>
        <time>2021-03-19T14:31:14Z</time>
      </trkpt>
      <trkpt lat="44.81189" lon="6.96372">
        <ele>1871</ele>
        <time>2021-03-19T14:31:15Z</time>
      </trkpt>
      <trkpt lat="44.81189" lon="6.96373">
        <ele>1871</ele>
        <time>2021-03-19T14:31:16Z</time>
      </trkpt>
      <trkpt lat="44.81189" lon="6.96373">
        <ele>1871</ele>
        <time>2021-03-19T14:31:17Z</time>
      </trkpt>
      <trkpt lat="44.81188" lon="6.96373">
        <ele>1871</ele>
        <time>2021-03-19T14:31:18Z</time>
      </trkpt>
      <trkpt lat="44.81188" lon="6.96373">
        <ele>1871</ele>
        <time>2021-03-19T14:31:19Z</time>
      </trkpt>
      <trkpt lat="44.81187" lon="6.96374">
        <ele>1871</ele>
        <time>2021-03-19T14:31:20Z</time>
      </trkpt>
      <trkpt lat="44.81187" lon="6.96375">
        <ele>1871</ele>
        <time>2021-03-19T14:31:21Z</time>
      </trkpt>
      <trkpt lat="44.81187" lon="6.96375">
        <ele>1871</ele>
        <time>2021-03-19T14:31:22Z</time>
      </trkpt>
      <trkpt lat="44.81187" lon="6.96376">
        <ele>1870</ele>
        <time>2021-03-19T14:31:23Z</time>
      </trkpt>
      <trkpt lat="44.81186" lon="6.96376">
        <ele>1870</ele>
        <time>2021-03-19T14:31:24Z</time>
      </trkpt>
      <trkpt lat="44.81186" lon="6.96377">
        <ele>1870</ele>
        <time>2021-03-19T14:31:25Z</time>
      </trkpt>
      <trkpt lat="44.81187" lon="6.96377">
        <ele>1870</ele>
        <time>2021-03-19T14:31:26Z</time>
      </trkpt>
      <trkpt lat="44.81187" lon="6.96378">
        <ele>1870</ele>
        <time>2021-03-19T14:31:27Z</time>
      </trkpt>
      <trkpt lat="44.81187" lon="6.96379">
        <ele>1870</ele>
        <time>2021-03-19T14:31:28Z</time>
      </trkpt>
      <trkpt lat="44.81187" lon="6.9638">
        <ele>1870</ele>
        <time>2021-03-19T14:31:29Z</time>
      </trkpt>
      <trkpt lat="44.81187" lon="6.9638">
        <ele>1870</ele>
        <time>2021-03-19T14:31:30Z</time>
      </trkpt>
      <trkpt lat="44.81188" lon="6.96381">
        <ele>1870</ele>
        <time>2021-03-19T14:31:31Z</time>
      </trkpt>
      <trkpt lat="44.81188" lon="6.96382">
        <ele>1870</ele>
        <time>2021-03-19T14:31:32Z</time>
      </trkpt>
      <trkpt lat="44.81189" lon="6.96383">
        <ele>1870</ele>
        <time>2021-03-19T14:31:33Z</time>
      </trkpt>
      <trkpt lat="44.81189" lon="6.96384">
        <ele>1870</ele>
        <time>2021-03-19T14:31:34Z</time>
      </trkpt>
      <trkpt lat="44.8119" lon="6.96385">
        <ele>1870</ele>
        <time>2021-03-19T14:31:35Z</time>
      </trkpt>
      <trkpt lat="44.8119" lon="6.96386">
        <ele>1870</ele>
        <time>2021-03-19T14:31:36Z</time>
      </trkpt>
      <trkpt lat="44.8119" lon="6.96387">
        <ele>1870</ele>
        <time>2021-03-19T14:31:37Z</time>
      </trkpt>
      <trkpt lat="44.8119" lon="6.96389">
        <ele>1870</ele>
        <time>2021-03-19T14:31:38Z</time>
      </trkpt>
      <trkpt lat="44.8119" lon="6.9639">
        <ele>1870</ele>
        <time>2021-03-19T14:31:39Z</time>
      </trkpt>
      <trkpt lat="44.8119" lon="6.96391">
        <ele>1870</ele>
        <time>2021-03-19T14:31:40Z</time>
      </trkpt>
      <trkpt lat="44.8119" lon="6.96393">
        <ele>1870</ele>
        <time>2021-03-19T14:31:41Z</time>
      </trkpt>
      <trkpt lat="44.8119" lon="6.96394">
        <ele>1870</ele>
        <time>2021-03-19T14:31:42Z</time>
      </trkpt>
      <trkpt lat="44.81189" lon="6.96395">
        <ele>1869</ele>
        <time>2021-03-19T14:31:43Z</time>
      </trkpt>
      <trkpt lat="44.81189" lon="6.96397">
        <ele>1869</ele>
        <time>2021-03-19T14:31:44Z</time>
      </trkpt>
      <trkpt lat="44.81189" lon="6.96398">
        <ele>1869</ele>
        <time>2021-03-19T14:31:45Z</time>
      </trkpt>
      <trkpt lat="44.81188" lon="6.964">
        <ele>1869</ele>
        <time>2021-03-19T14:31:46Z</time>
      </trkpt>
      <trkpt lat="44.81188" lon="6.96401">
        <ele>1869</ele>
        <time>2021-03-19T14:31:47Z</time>
      </trkpt>
      <trkpt lat="44.81188" lon="6.96403">
        <ele>1868</ele>
        <time>2021-03-19T14:31:48Z</time>
      </trkpt>
      <trkpt lat="44.81188" lon="6.96404">
        <ele>1868</ele>
        <time>2021-03-19T14:31:49Z</time>
      </trkpt>
      <trkpt lat="44.81188" lon="6.96406">
        <ele>1868</ele>
        <time>2021-03-19T14:31:50Z</time>
      </trkpt>
      <trkpt lat="44.81188" lon="6.96408">
        <ele>1868</ele>
        <time>2021-03-19T14:31:51Z</time>
      </trkpt>
      <trkpt lat="44.81188" lon="6.96409">
        <ele>1868</ele>
        <time>2021-03-19T14:31:52Z</time>
      </trkpt>
      <trkpt lat="44.81187" lon="6.96411">
        <ele>1867</ele>
        <time>2021-03-19T14:31:53Z</time>
      </trkpt>
      <trkpt lat="44.81187" lon="6.96412">
        <ele>1867</ele>
        <time>2021-03-19T14:31:54Z</time>
      </trkpt>
      <trkpt lat="44.81187" lon="6.96414">
        <ele>1867</ele>
        <time>2021-03-19T14:31:55Z</time>
      </trkpt>
      <trkpt lat="44.81187" lon="6.96415">
        <ele>1867</ele>
        <time>2021-03-19T14:31:56Z</time>
      </trkpt>
      <trkpt lat="44.81187" lon="6.96417">
        <ele>1867</ele>
        <time>2021-03-19T14:31:57Z</time>
      </trkpt>
      <trkpt lat="44.81187" lon="6.96418">
        <ele>1867</ele>
        <time>2021-03-19T14:31:58Z</time>
      </trkpt>
      <trkpt lat="44.81187" lon="6.9642">
        <ele>1867</ele>
        <time>2021-03-19T14:31:59Z</time>
      </trkpt>
      <trkpt lat="44.81187" lon="6.96422">
        <ele>1867</ele>
        <time>2021-03-19T14:32:00Z</time>
      </trkpt>
      <trkpt lat="44.81186" lon="6.96423">
        <ele>1867</ele>
        <time>2021-03-19T14:32:01Z</time>
      </trkpt>
      <trkpt lat="44.81186" lon="6.96425">
        <ele>1867</ele>
        <time>2021-03-19T14:32:02Z</time>
      </trkpt>
      <trkpt lat="44.81186" lon="6.96426">
        <ele>1867</ele>
        <time>2021-03-19T14:32:03Z</time>
      </trkpt>
      <trkpt lat="44.81185" lon="6.96427">
        <ele>1867</ele>
        <time>2021-03-19T14:32:04Z</time>
      </trkpt>
      <trkpt lat="44.81185" lon="6.96429">
        <ele>1867</ele>
        <time>2021-03-19T14:32:05Z</time>
      </trkpt>
      <trkpt lat="44.81184" lon="6.9643">
        <ele>1867</ele>
        <time>2021-03-19T14:32:06Z</time>
      </trkpt>
      <trkpt lat="44.81184" lon="6.96431">
        <ele>1867</ele>
        <time>2021-03-19T14:32:07Z</time>
      </trkpt>
      <trkpt lat="44.81184" lon="6.96433">
        <ele>1867</ele>
        <time>2021-03-19T14:32:08Z</time>
      </trkpt>
      <trkpt lat="44.81183" lon="6.96434">
        <ele>1867</ele>
        <time>2021-03-19T14:32:09Z</time>
      </trkpt>
      <trkpt lat="44.81183" lon="6.96436">
        <ele>1867</ele>
        <time>2021-03-19T14:32:10Z</time>
      </trkpt>
      <trkpt lat="44.81183" lon="6.96437">
        <ele>1867</ele>
        <time>2021-03-19T14:32:11Z</time>
      </trkpt>
      <trkpt lat="44.81183" lon="6.96439">
        <ele>1867</ele>
        <time>2021-03-19T14:32:12Z</time>
      </trkpt>
      <trkpt lat="44.81183" lon="6.9644">
        <ele>1866</ele>
        <time>2021-03-19T14:32:13Z</time>
      </trkpt>
      <trkpt lat="44.81183" lon="6.96441">
        <ele>1866</ele>
        <time>2021-03-19T14:32:14Z</time>
      </trkpt>
      <trkpt lat="44.81183" lon="6.96443">
        <ele>1866</ele>
        <time>2021-03-19T14:32:15Z</time>
      </trkpt>
      <trkpt lat="44.81183" lon="6.96444">
        <ele>1866</ele>
        <time>2021-03-19T14:32:16Z</time>
      </trkpt>
      <trkpt lat="44.81184" lon="6.96445">
        <ele>1866</ele>
        <time>2021-03-19T14:32:17Z</time>
      </trkpt>
      <trkpt lat="44.81184" lon="6.96447">
        <ele>1866</ele>
        <time>2021-03-19T14:32:18Z</time>
      </trkpt>
      <trkpt lat="44.81184" lon="6.96448">
        <ele>1866</ele>
        <time>2021-03-19T14:32:19Z</time>
      </trkpt>
      <trkpt lat="44.81184" lon="6.96449">
        <ele>1866</ele>
        <time>2021-03-19T14:32:20Z</time>
      </trkpt>
      <trkpt lat="44.81184" lon="6.96451">
        <ele>1866</ele>
        <time>2021-03-19T14:32:21Z</time>
      </trkpt>
      <trkpt lat="44.81184" lon="6.96452">
        <ele>1867</ele>
        <time>2021-03-19T14:32:22Z</time>
      </trkpt>
      <trkpt lat="44.81185" lon="6.96453">
        <ele>1867</ele>
        <time>2021-03-19T14:32:23Z</time>
      </trkpt>
      <trkpt lat="44.81185" lon="6.96454">
        <ele>1867</ele>
        <time>2021-03-19T14:32:24Z</time>
      </trkpt>
      <trkpt lat="44.81185" lon="6.96456">
        <ele>1867</ele>
        <time>2021-03-19T14:32:25Z</time>
      </trkpt>
      <trkpt lat="44.81185" lon="6.96456">
        <ele>1867</ele>
        <time>2021-03-19T14:32:26Z</time>
      </trkpt>
      <trkpt lat="44.81186" lon="6.96457">
        <ele>1867</ele>
        <time>2021-03-19T14:32:27Z</time>
      </trkpt>
      <trkpt lat="44.81186" lon="6.96458">
        <ele>1867</ele>
        <time>2021-03-19T14:32:28Z</time>
      </trkpt>
      <trkpt lat="44.81186" lon="6.96459">
        <ele>1867</ele>
        <time>2021-03-19T14:32:29Z</time>
      </trkpt>
      <trkpt lat="44.81187" lon="6.9646">
        <ele>1867</ele>
        <time>2021-03-19T14:32:30Z</time>
      </trkpt>
      <trkpt lat="44.81187" lon="6.96461">
        <ele>1867</ele>
        <time>2021-03-19T14:32:31Z</time>
      </trkpt>
      <trkpt lat="44.81187" lon="6.96462">
        <ele>1867</ele>
        <time>2021-03-19T14:32:32Z</time>
      </trkpt>
      <trkpt lat="44.81188" lon="6.96462">
        <ele>1867</ele>
        <time>2021-03-19T14:32:33Z</time>
      </trkpt>
      <trkpt lat="44.81188" lon="6.96463">
        <ele>1867</ele>
        <time>2021-03-19T14:32:34Z</time>
      </trkpt>
      <trkpt lat="44.81188" lon="6.96464">
        <ele>1867</ele>
        <time>2021-03-19T14:32:35Z</time>
      </trkpt>
      <trkpt lat="44.81189" lon="6.96465">
        <ele>1867</ele>
        <time>2021-03-19T14:32:36Z</time>
      </trkpt>
      <trkpt lat="44.81189" lon="6.96466">
        <ele>1867</ele>
        <time>2021-03-19T14:32:37Z</time>
      </trkpt>
      <trkpt lat="44.8119" lon="6.96468">
        <ele>1867</ele>
        <time>2021-03-19T14:32:38Z</time>
      </trkpt>
      <trkpt lat="44.8119" lon="6.96469">
        <ele>1867</ele>
        <time>2021-03-19T14:32:39Z</time>
      </trkpt>
      <trkpt lat="44.81191" lon="6.9647">
        <ele>1867</ele>
        <time>2021-03-19T14:32:40Z</time>
      </trkpt>
      <trkpt lat="44.81191" lon="6.96471">
        <ele>1867</ele>
        <time>2021-03-19T14:32:41Z</time>
      </trkpt>
      <trkpt lat="44.81192" lon="6.96473">
        <ele>1868</ele>
        <time>2021-03-19T14:32:42Z</time>
      </trkpt>
      <trkpt lat="44.81193" lon="6.96474">
        <ele>1868</ele>
        <time>2021-03-19T14:32:43Z</time>
      </trkpt>
      <trkpt lat="44.81193" lon="6.96475">
        <ele>1868</ele>
        <time>2021-03-19T14:32:44Z</time>
      </trkpt>
      <trkpt lat="44.81194" lon="6.96476">
        <ele>1868</ele>
        <time>2021-03-19T14:32:45Z</time>
      </trkpt>
      <trkpt lat="44.81194" lon="6.96477">
        <ele>1868</ele>
        <time>2021-03-19T14:32:46Z</time>
      </trkpt>
      <trkpt lat="44.81194" lon="6.96478">
        <ele>1868</ele>
        <time>2021-03-19T14:32:47Z</time>
      </trkpt>
      <trkpt lat="44.81194" lon="6.96479">
        <ele>1868</ele>
        <time>2021-03-19T14:32:48Z</time>
      </trkpt>
      <trkpt lat="44.81195" lon="6.96481">
        <ele>1868</ele>
        <time>2021-03-19T14:32:49Z</time>
      </trkpt>
      <trkpt lat="44.81195" lon="6.96482">
        <ele>1868</ele>
        <time>2021-03-19T14:32:50Z</time>
      </trkpt>
      <trkpt lat="44.81195" lon="6.96483">
        <ele>1868</ele>
        <time>2021-03-19T14:32:51Z</time>
      </trkpt>
      <trkpt lat="44.81194" lon="6.96484">
        <ele>1869</ele>
        <time>2021-03-19T14:32:52Z</time>
      </trkpt>
      <trkpt lat="44.81194" lon="6.96485">
        <ele>1869</ele>
        <time>2021-03-19T14:32:53Z</time>
      </trkpt>
      <trkpt lat="44.81194" lon="6.96487">
        <ele>1869</ele>
        <time>2021-03-19T14:33:00Z</time>
      </trkpt>
      <trkpt lat="44.81194" lon="6.96487">
        <ele>1869</ele>
        <time>2021-03-19T14:33:01Z</time>
      </trkpt>
      <trkpt lat="44.81194" lon="6.96487">
        <ele>1870</ele>
        <time>2021-03-19T14:33:02Z</time>
      </trkpt>
      <trkpt lat="44.81194" lon="6.96488">
        <ele>1870</ele>
        <time>2021-03-19T14:33:03Z</time>
      </trkpt>
      <trkpt lat="44.81194" lon="6.96488">
        <ele>1870</ele>
        <time>2021-03-19T14:33:04Z</time>
      </trkpt>
      <trkpt lat="44.81195" lon="6.96489">
        <ele>1870</ele>
        <time>2021-03-19T14:33:05Z</time>
      </trkpt>
      <trkpt lat="44.81195" lon="6.9649">
        <ele>1870</ele>
        <time>2021-03-19T14:33:06Z</time>
      </trkpt>
      <trkpt lat="44.81195" lon="6.96491">
        <ele>1871</ele>
        <time>2021-03-19T14:33:07Z</time>
      </trkpt>
      <trkpt lat="44.81195" lon="6.96492">
        <ele>1871</ele>
        <time>2021-03-19T14:33:08Z</time>
      </trkpt>
      <trkpt lat="44.81196" lon="6.96494">
        <ele>1871</ele>
        <time>2021-03-19T14:33:09Z</time>
      </trkpt>
      <trkpt lat="44.81196" lon="6.96495">
        <ele>1871</ele>
        <time>2021-03-19T14:33:10Z</time>
      </trkpt>
      <trkpt lat="44.81196" lon="6.96495">
        <ele>1871</ele>
        <time>2021-03-19T14:33:11Z</time>
      </trkpt>
      <trkpt lat="44.81197" lon="6.96496">
        <ele>1871</ele>
        <time>2021-03-19T14:33:12Z</time>
      </trkpt>
      <trkpt lat="44.81197" lon="6.96497">
        <ele>1871</ele>
        <time>2021-03-19T14:33:13Z</time>
      </trkpt>
      <trkpt lat="44.81197" lon="6.96498">
        <ele>1871</ele>
        <time>2021-03-19T14:33:14Z</time>
      </trkpt>
      <trkpt lat="44.81197" lon="6.96499">
        <ele>1871</ele>
        <time>2021-03-19T14:33:15Z</time>
      </trkpt>
      <trkpt lat="44.81198" lon="6.965">
        <ele>1871</ele>
        <time>2021-03-19T14:33:16Z</time>
      </trkpt>
      <trkpt lat="44.81198" lon="6.96501">
        <ele>1871</ele>
        <time>2021-03-19T14:33:17Z</time>
      </trkpt>
      <trkpt lat="44.81198" lon="6.96503">
        <ele>1871</ele>
        <time>2021-03-19T14:33:18Z</time>
      </trkpt>
      <trkpt lat="44.81198" lon="6.96504">
        <ele>1871</ele>
        <time>2021-03-19T14:33:19Z</time>
      </trkpt>
      <trkpt lat="44.81198" lon="6.96505">
        <ele>1871</ele>
        <time>2021-03-19T14:33:20Z</time>
      </trkpt>
      <trkpt lat="44.81198" lon="6.96506">
        <ele>1871</ele>
        <time>2021-03-19T14:33:21Z</time>
      </trkpt>
      <trkpt lat="44.81198" lon="6.96507">
        <ele>1871</ele>
        <time>2021-03-19T14:33:22Z</time>
      </trkpt>
      <trkpt lat="44.81198" lon="6.96508">
        <ele>1871</ele>
        <time>2021-03-19T14:33:23Z</time>
      </trkpt>
      <trkpt lat="44.81198" lon="6.9651">
        <ele>1871</ele>
        <time>2021-03-19T14:33:24Z</time>
      </trkpt>
      <trkpt lat="44.81198" lon="6.96511">
        <ele>1871</ele>
        <time>2021-03-19T14:33:25Z</time>
      </trkpt>
      <trkpt lat="44.81198" lon="6.96512">
        <ele>1871</ele>
        <time>2021-03-19T14:33:26Z</time>
      </trkpt>
      <trkpt lat="44.81198" lon="6.96514">
        <ele>1871</ele>
        <time>2021-03-19T14:33:27Z</time>
      </trkpt>
      <trkpt lat="44.81198" lon="6.96515">
        <ele>1871</ele>
        <time>2021-03-19T14:33:28Z</time>
      </trkpt>
      <trkpt lat="44.81197" lon="6.96516">
        <ele>1871</ele>
        <time>2021-03-19T14:33:29Z</time>
      </trkpt>
      <trkpt lat="44.81197" lon="6.96518">
        <ele>1871</ele>
        <time>2021-03-19T14:33:30Z</time>
      </trkpt>
      <trkpt lat="44.81197" lon="6.96519">
        <ele>1871</ele>
        <time>2021-03-19T14:33:31Z</time>
      </trkpt>
      <trkpt lat="44.81197" lon="6.9652">
        <ele>1871</ele>
        <time>2021-03-19T14:33:32Z</time>
      </trkpt>
      <trkpt lat="44.81197" lon="6.96522">
        <ele>1871</ele>
        <time>2021-03-19T14:33:33Z</time>
      </trkpt>
      <trkpt lat="44.81197" lon="6.96523">
        <ele>1871</ele>
        <time>2021-03-19T14:33:34Z</time>
      </trkpt>
      <trkpt lat="44.81197" lon="6.96525">
        <ele>1871</ele>
        <time>2021-03-19T14:33:35Z</time>
      </trkpt>
      <trkpt lat="44.81197" lon="6.96526">
        <ele>1871</ele>
        <time>2021-03-19T14:33:36Z</time>
      </trkpt>
      <trkpt lat="44.81197" lon="6.96528">
        <ele>1871</ele>
        <time>2021-03-19T14:33:37Z</time>
      </trkpt>
      <trkpt lat="44.81197" lon="6.96529">
        <ele>1870</ele>
        <time>2021-03-19T14:33:38Z</time>
      </trkpt>
      <trkpt lat="44.81197" lon="6.96531">
        <ele>1870</ele>
        <time>2021-03-19T14:33:39Z</time>
      </trkpt>
      <trkpt lat="44.81197" lon="6.96532">
        <ele>1869</ele>
        <time>2021-03-19T14:33:40Z</time>
      </trkpt>
      <trkpt lat="44.81197" lon="6.96533">
        <ele>1869</ele>
        <time>2021-03-19T14:33:41Z</time>
      </trkpt>
      <trkpt lat="44.81197" lon="6.96535">
        <ele>1869</ele>
        <time>2021-03-19T14:33:42Z</time>
      </trkpt>
      <trkpt lat="44.81198" lon="6.96536">
        <ele>1868</ele>
        <time>2021-03-19T14:33:43Z</time>
      </trkpt>
      <trkpt lat="44.81198" lon="6.96537">
        <ele>1868</ele>
        <time>2021-03-19T14:33:44Z</time>
      </trkpt>
      <trkpt lat="44.81198" lon="6.96538">
        <ele>1868</ele>
        <time>2021-03-19T14:33:45Z</time>
      </trkpt>
      <trkpt lat="44.81198" lon="6.9654">
        <ele>1868</ele>
        <time>2021-03-19T14:33:46Z</time>
      </trkpt>
      <trkpt lat="44.81198" lon="6.96541">
        <ele>1868</ele>
        <time>2021-03-19T14:33:47Z</time>
      </trkpt>
      <trkpt lat="44.81197" lon="6.96542">
        <ele>1867</ele>
        <time>2021-03-19T14:33:48Z</time>
      </trkpt>
      <trkpt lat="44.81197" lon="6.96544">
        <ele>1867</ele>
        <time>2021-03-19T14:33:49Z</time>
      </trkpt>
      <trkpt lat="44.81197" lon="6.96545">
        <ele>1867</ele>
        <time>2021-03-19T14:33:50Z</time>
      </trkpt>
      <trkpt lat="44.81197" lon="6.96547">
        <ele>1867</ele>
        <time>2021-03-19T14:33:51Z</time>
      </trkpt>
      <trkpt lat="44.81197" lon="6.96548">
        <ele>1867</ele>
        <time>2021-03-19T14:33:52Z</time>
      </trkpt>
      <trkpt lat="44.81197" lon="6.96549">
        <ele>1867</ele>
        <time>2021-03-19T14:33:53Z</time>
      </trkpt>
      <trkpt lat="44.81197" lon="6.96551">
        <ele>1867</ele>
        <time>2021-03-19T14:33:54Z</time>
      </trkpt>
      <trkpt lat="44.81197" lon="6.96552">
        <ele>1867</ele>
        <time>2021-03-19T14:33:55Z</time>
      </trkpt>
      <trkpt lat="44.81197" lon="6.96553">
        <ele>1867</ele>
        <time>2021-03-19T14:33:56Z</time>
      </trkpt>
      <trkpt lat="44.81196" lon="6.96555">
        <ele>1867</ele>
        <time>2021-03-19T14:33:57Z</time>
      </trkpt>
      <trkpt lat="44.81196" lon="6.96556">
        <ele>1866</ele>
        <time>2021-03-19T14:33:58Z</time>
      </trkpt>
      <trkpt lat="44.81196" lon="6.96558">
        <ele>1866</ele>
        <time>2021-03-19T14:33:59Z</time>
      </trkpt>
      <trkpt lat="44.81196" lon="6.96559">
        <ele>1866</ele>
        <time>2021-03-19T14:34:00Z</time>
      </trkpt>
      <trkpt lat="44.81196" lon="6.96561">
        <ele>1866</ele>
        <time>2021-03-19T14:34:01Z</time>
      </trkpt>
      <trkpt lat="44.81196" lon="6.96562">
        <ele>1866</ele>
        <time>2021-03-19T14:34:02Z</time>
      </trkpt>
      <trkpt lat="44.81196" lon="6.96564">
        <ele>1866</ele>
        <time>2021-03-19T14:34:03Z</time>
      </trkpt>
      <trkpt lat="44.81196" lon="6.96565">
        <ele>1866</ele>
        <time>2021-03-19T14:34:04Z</time>
      </trkpt>
      <trkpt lat="44.81196" lon="6.96567">
        <ele>1866</ele>
        <time>2021-03-19T14:34:05Z</time>
      </trkpt>
      <trkpt lat="44.81196" lon="6.96568">
        <ele>1866</ele>
        <time>2021-03-19T14:34:06Z</time>
      </trkpt>
      <trkpt lat="44.81196" lon="6.96569">
        <ele>1866</ele>
        <time>2021-03-19T14:34:07Z</time>
      </trkpt>
      <trkpt lat="44.81196" lon="6.9657">
        <ele>1865</ele>
        <time>2021-03-19T14:34:08Z</time>
      </trkpt>
      <trkpt lat="44.81196" lon="6.96571">
        <ele>1865</ele>
        <time>2021-03-19T14:34:09Z</time>
      </trkpt>
      <trkpt lat="44.81196" lon="6.96571">
        <ele>1865</ele>
        <time>2021-03-19T14:34:10Z</time>
      </trkpt>
      <trkpt lat="44.81195" lon="6.96572">
        <ele>1865</ele>
        <time>2021-03-19T14:34:11Z</time>
      </trkpt>
      <trkpt lat="44.81195" lon="6.96573">
        <ele>1865</ele>
        <time>2021-03-19T14:34:12Z</time>
      </trkpt>
      <trkpt lat="44.81195" lon="6.96574">
        <ele>1865</ele>
        <time>2021-03-19T14:34:13Z</time>
      </trkpt>
      <trkpt lat="44.81195" lon="6.96575">
        <ele>1865</ele>
        <time>2021-03-19T14:34:14Z</time>
      </trkpt>
      <trkpt lat="44.81195" lon="6.96576">
        <ele>1865</ele>
        <time>2021-03-19T14:34:15Z</time>
      </trkpt>
      <trkpt lat="44.81196" lon="6.96578">
        <ele>1865</ele>
        <time>2021-03-19T14:34:16Z</time>
      </trkpt>
      <trkpt lat="44.81196" lon="6.96579">
        <ele>1865</ele>
        <time>2021-03-19T14:34:17Z</time>
      </trkpt>
      <trkpt lat="44.81196" lon="6.9658">
        <ele>1865</ele>
        <time>2021-03-19T14:34:18Z</time>
      </trkpt>
      <trkpt lat="44.81196" lon="6.96582">
        <ele>1865</ele>
        <time>2021-03-19T14:34:19Z</time>
      </trkpt>
      <trkpt lat="44.81196" lon="6.96583">
        <ele>1865</ele>
        <time>2021-03-19T14:34:20Z</time>
      </trkpt>
      <trkpt lat="44.81196" lon="6.96584">
        <ele>1865</ele>
        <time>2021-03-19T14:34:21Z</time>
      </trkpt>
      <trkpt lat="44.81196" lon="6.96584">
        <ele>1865</ele>
        <time>2021-03-19T14:34:22Z</time>
      </trkpt>
      <trkpt lat="44.81196" lon="6.96585">
        <ele>1864</ele>
        <time>2021-03-19T14:34:23Z</time>
      </trkpt>
      <trkpt lat="44.81195" lon="6.96586">
        <ele>1864</ele>
        <time>2021-03-19T14:34:24Z</time>
      </trkpt>
      <trkpt lat="44.81195" lon="6.96587">
        <ele>1864</ele>
        <time>2021-03-19T14:34:25Z</time>
      </trkpt>
      <trkpt lat="44.81196" lon="6.96588">
        <ele>1864</ele>
        <time>2021-03-19T14:34:26Z</time>
      </trkpt>
      <trkpt lat="44.81196" lon="6.96589">
        <ele>1864</ele>
        <time>2021-03-19T14:34:27Z</time>
      </trkpt>
      <trkpt lat="44.81196" lon="6.9659">
        <ele>1864</ele>
        <time>2021-03-19T14:34:28Z</time>
      </trkpt>
      <trkpt lat="44.81196" lon="6.96591">
        <ele>1864</ele>
        <time>2021-03-19T14:34:29Z</time>
      </trkpt>
      <trkpt lat="44.81196" lon="6.96592">
        <ele>1864</ele>
        <time>2021-03-19T14:34:30Z</time>
      </trkpt>
      <trkpt lat="44.81197" lon="6.96593">
        <ele>1864</ele>
        <time>2021-03-19T14:34:31Z</time>
      </trkpt>
      <trkpt lat="44.81197" lon="6.96594">
        <ele>1864</ele>
        <time>2021-03-19T14:34:32Z</time>
      </trkpt>
      <trkpt lat="44.81197" lon="6.96596">
        <ele>1864</ele>
        <time>2021-03-19T14:34:33Z</time>
      </trkpt>
      <trkpt lat="44.81198" lon="6.96597">
        <ele>1864</ele>
        <time>2021-03-19T14:34:34Z</time>
      </trkpt>
      <trkpt lat="44.81198" lon="6.96598">
        <ele>1864</ele>
        <time>2021-03-19T14:34:35Z</time>
      </trkpt>
      <trkpt lat="44.81199" lon="6.96599">
        <ele>1864</ele>
        <time>2021-03-19T14:34:36Z</time>
      </trkpt>
      <trkpt lat="44.81199" lon="6.96601">
        <ele>1864</ele>
        <time>2021-03-19T14:34:37Z</time>
      </trkpt>
      <trkpt lat="44.81199" lon="6.96602">
        <ele>1863</ele>
        <time>2021-03-19T14:34:38Z</time>
      </trkpt>
      <trkpt lat="44.81199" lon="6.96604">
        <ele>1863</ele>
        <time>2021-03-19T14:34:39Z</time>
      </trkpt>
      <trkpt lat="44.81199" lon="6.96605">
        <ele>1863</ele>
        <time>2021-03-19T14:34:40Z</time>
      </trkpt>
      <trkpt lat="44.81199" lon="6.96606">
        <ele>1863</ele>
        <time>2021-03-19T14:34:41Z</time>
      </trkpt>
      <trkpt lat="44.81199" lon="6.96607">
        <ele>1863</ele>
        <time>2021-03-19T14:34:42Z</time>
      </trkpt>
      <trkpt lat="44.81199" lon="6.96608">
        <ele>1863</ele>
        <time>2021-03-19T14:34:43Z</time>
      </trkpt>
      <trkpt lat="44.81199" lon="6.96609">
        <ele>1863</ele>
        <time>2021-03-19T14:34:44Z</time>
      </trkpt>
      <trkpt lat="44.81199" lon="6.9661">
        <ele>1863</ele>
        <time>2021-03-19T14:34:45Z</time>
      </trkpt>
      <trkpt lat="44.81199" lon="6.9661">
        <ele>1863</ele>
        <time>2021-03-19T14:34:46Z</time>
      </trkpt>
      <trkpt lat="44.81199" lon="6.96611">
        <ele>1864</ele>
        <time>2021-03-19T14:34:47Z</time>
      </trkpt>
      <trkpt lat="44.81199" lon="6.96612">
        <ele>1864</ele>
        <time>2021-03-19T14:34:48Z</time>
      </trkpt>
      <trkpt lat="44.81199" lon="6.96613">
        <ele>1864</ele>
        <time>2021-03-19T14:34:49Z</time>
      </trkpt>
      <trkpt lat="44.812" lon="6.96614">
        <ele>1864</ele>
        <time>2021-03-19T14:34:50Z</time>
      </trkpt>
      <trkpt lat="44.812" lon="6.96615">
        <ele>1864</ele>
        <time>2021-03-19T14:34:51Z</time>
      </trkpt>
      <trkpt lat="44.812" lon="6.96615">
        <ele>1864</ele>
        <time>2021-03-19T14:34:52Z</time>
      </trkpt>
      <trkpt lat="44.81201" lon="6.96616">
        <ele>1864</ele>
        <time>2021-03-19T14:34:53Z</time>
      </trkpt>
      <trkpt lat="44.81201" lon="6.96617">
        <ele>1864</ele>
        <time>2021-03-19T14:34:54Z</time>
      </trkpt>
      <trkpt lat="44.81201" lon="6.96618">
        <ele>1864</ele>
        <time>2021-03-19T14:34:55Z</time>
      </trkpt>
      <trkpt lat="44.81202" lon="6.96619">
        <ele>1864</ele>
        <time>2021-03-19T14:34:56Z</time>
      </trkpt>
      <trkpt lat="44.81202" lon="6.9662">
        <ele>1865</ele>
        <time>2021-03-19T14:34:57Z</time>
      </trkpt>
      <trkpt lat="44.81202" lon="6.96622">
        <ele>1865</ele>
        <time>2021-03-19T14:34:58Z</time>
      </trkpt>
      <trkpt lat="44.81202" lon="6.96623">
        <ele>1865</ele>
        <time>2021-03-19T14:34:59Z</time>
      </trkpt>
      <trkpt lat="44.81203" lon="6.96625">
        <ele>1865</ele>
        <time>2021-03-19T14:35:00Z</time>
      </trkpt>
      <trkpt lat="44.81203" lon="6.96627">
        <ele>1865</ele>
        <time>2021-03-19T14:35:01Z</time>
      </trkpt>
      <trkpt lat="44.81203" lon="6.96628">
        <ele>1865</ele>
        <time>2021-03-19T14:35:02Z</time>
      </trkpt>
      <trkpt lat="44.81203" lon="6.9663">
        <ele>1865</ele>
        <time>2021-03-19T14:35:03Z</time>
      </trkpt>
      <trkpt lat="44.81203" lon="6.96631">
        <ele>1865</ele>
        <time>2021-03-19T14:35:04Z</time>
      </trkpt>
      <trkpt lat="44.81203" lon="6.96633">
        <ele>1865</ele>
        <time>2021-03-19T14:35:05Z</time>
      </trkpt>
      <trkpt lat="44.81203" lon="6.96634">
        <ele>1865</ele>
        <time>2021-03-19T14:35:06Z</time>
      </trkpt>
      <trkpt lat="44.81203" lon="6.96635">
        <ele>1865</ele>
        <time>2021-03-19T14:35:07Z</time>
      </trkpt>
      <trkpt lat="44.81203" lon="6.96636">
        <ele>1864</ele>
        <time>2021-03-19T14:35:08Z</time>
      </trkpt>
      <trkpt lat="44.81203" lon="6.96638">
        <ele>1864</ele>
        <time>2021-03-19T14:35:09Z</time>
      </trkpt>
      <trkpt lat="44.81202" lon="6.96639">
        <ele>1864</ele>
        <time>2021-03-19T14:35:10Z</time>
      </trkpt>
      <trkpt lat="44.81202" lon="6.9664">
        <ele>1864</ele>
        <time>2021-03-19T14:35:11Z</time>
      </trkpt>
      <trkpt lat="44.81202" lon="6.96641">
        <ele>1864</ele>
        <time>2021-03-19T14:35:12Z</time>
      </trkpt>
      <trkpt lat="44.81202" lon="6.96642">
        <ele>1864</ele>
        <time>2021-03-19T14:35:13Z</time>
      </trkpt>
      <trkpt lat="44.81202" lon="6.96642">
        <ele>1864</ele>
        <time>2021-03-19T14:35:14Z</time>
      </trkpt>
      <trkpt lat="44.81202" lon="6.96643">
        <ele>1864</ele>
        <time>2021-03-19T14:35:15Z</time>
      </trkpt>
      <trkpt lat="44.81202" lon="6.96643">
        <ele>1864</ele>
        <time>2021-03-19T14:35:16Z</time>
      </trkpt>
      <trkpt lat="44.81202" lon="6.96644">
        <ele>1864</ele>
        <time>2021-03-19T14:35:17Z</time>
      </trkpt>
      <trkpt lat="44.81202" lon="6.96645">
        <ele>1863</ele>
        <time>2021-03-19T14:35:18Z</time>
      </trkpt>
      <trkpt lat="44.81202" lon="6.96646">
        <ele>1863</ele>
        <time>2021-03-19T14:35:19Z</time>
      </trkpt>
      <trkpt lat="44.81202" lon="6.96647">
        <ele>1863</ele>
        <time>2021-03-19T14:35:20Z</time>
      </trkpt>
      <trkpt lat="44.81203" lon="6.96648">
        <ele>1863</ele>
        <time>2021-03-19T14:35:21Z</time>
      </trkpt>
      <trkpt lat="44.81203" lon="6.96649">
        <ele>1863</ele>
        <time>2021-03-19T14:35:22Z</time>
      </trkpt>
      <trkpt lat="44.81203" lon="6.9665">
        <ele>1862</ele>
        <time>2021-03-19T14:35:23Z</time>
      </trkpt>
      <trkpt lat="44.81204" lon="6.96651">
        <ele>1862</ele>
        <time>2021-03-19T14:35:24Z</time>
      </trkpt>
      <trkpt lat="44.81204" lon="6.96652">
        <ele>1862</ele>
        <time>2021-03-19T14:35:25Z</time>
      </trkpt>
      <trkpt lat="44.81204" lon="6.96653">
        <ele>1862</ele>
        <time>2021-03-19T14:35:26Z</time>
      </trkpt>
      <trkpt lat="44.81204" lon="6.96654">
        <ele>1862</ele>
        <time>2021-03-19T14:35:27Z</time>
      </trkpt>
      <trkpt lat="44.81203" lon="6.96655">
        <ele>1861</ele>
        <time>2021-03-19T14:35:28Z</time>
      </trkpt>
      <trkpt lat="44.81203" lon="6.96656">
        <ele>1861</ele>
        <time>2021-03-19T14:35:29Z</time>
      </trkpt>
      <trkpt lat="44.81203" lon="6.96657">
        <ele>1861</ele>
        <time>2021-03-19T14:35:30Z</time>
      </trkpt>
      <trkpt lat="44.81203" lon="6.96658">
        <ele>1861</ele>
        <time>2021-03-19T14:35:31Z</time>
      </trkpt>
      <trkpt lat="44.81203" lon="6.96659">
        <ele>1861</ele>
        <time>2021-03-19T14:35:32Z</time>
      </trkpt>
      <trkpt lat="44.81203" lon="6.9666">
        <ele>1861</ele>
        <time>2021-03-19T14:35:33Z</time>
      </trkpt>
      <trkpt lat="44.81203" lon="6.96661">
        <ele>1861</ele>
        <time>2021-03-19T14:35:34Z</time>
      </trkpt>
      <trkpt lat="44.81203" lon="6.96663">
        <ele>1861</ele>
        <time>2021-03-19T14:35:35Z</time>
      </trkpt>
      <trkpt lat="44.81203" lon="6.96664">
        <ele>1861</ele>
        <time>2021-03-19T14:35:36Z</time>
      </trkpt>
      <trkpt lat="44.81203" lon="6.96666">
        <ele>1861</ele>
        <time>2021-03-19T14:35:37Z</time>
      </trkpt>
      <trkpt lat="44.81203" lon="6.96667">
        <ele>1860</ele>
        <time>2021-03-19T14:35:38Z</time>
      </trkpt>
      <trkpt lat="44.81202" lon="6.96668">
        <ele>1860</ele>
        <time>2021-03-19T14:35:39Z</time>
      </trkpt>
      <trkpt lat="44.81202" lon="6.9667">
        <ele>1860</ele>
        <time>2021-03-19T14:35:40Z</time>
      </trkpt>
      <trkpt lat="44.81202" lon="6.96671">
        <ele>1860</ele>
        <time>2021-03-19T14:35:41Z</time>
      </trkpt>
      <trkpt lat="44.81202" lon="6.96673">
        <ele>1860</ele>
        <time>2021-03-19T14:35:42Z</time>
      </trkpt>
      <trkpt lat="44.81202" lon="6.96674">
        <ele>1860</ele>
        <time>2021-03-19T14:35:43Z</time>
      </trkpt>
      <trkpt lat="44.81202" lon="6.96675">
        <ele>1860</ele>
        <time>2021-03-19T14:35:44Z</time>
      </trkpt>
      <trkpt lat="44.81202" lon="6.96677">
        <ele>1860</ele>
        <time>2021-03-19T14:35:45Z</time>
      </trkpt>
      <trkpt lat="44.81202" lon="6.96678">
        <ele>1860</ele>
        <time>2021-03-19T14:35:46Z</time>
      </trkpt>
      <trkpt lat="44.81202" lon="6.96679">
        <ele>1860</ele>
        <time>2021-03-19T14:35:47Z</time>
      </trkpt>
      <trkpt lat="44.81202" lon="6.9668">
        <ele>1859</ele>
        <time>2021-03-19T14:35:48Z</time>
      </trkpt>
      <trkpt lat="44.81202" lon="6.96682">
        <ele>1859</ele>
        <time>2021-03-19T14:35:49Z</time>
      </trkpt>
      <trkpt lat="44.81202" lon="6.96683">
        <ele>1859</ele>
        <time>2021-03-19T14:35:50Z</time>
      </trkpt>
      <trkpt lat="44.81202" lon="6.96685">
        <ele>1859</ele>
        <time>2021-03-19T14:35:51Z</time>
      </trkpt>
      <trkpt lat="44.81202" lon="6.96686">
        <ele>1859</ele>
        <time>2021-03-19T14:35:52Z</time>
      </trkpt>
      <trkpt lat="44.81203" lon="6.96688">
        <ele>1859</ele>
        <time>2021-03-19T14:35:53Z</time>
      </trkpt>
      <trkpt lat="44.81202" lon="6.96689">
        <ele>1859</ele>
        <time>2021-03-19T14:35:54Z</time>
      </trkpt>
      <trkpt lat="44.81202" lon="6.9669">
        <ele>1859</ele>
        <time>2021-03-19T14:35:55Z</time>
      </trkpt>
      <trkpt lat="44.81202" lon="6.96691">
        <ele>1859</ele>
        <time>2021-03-19T14:35:56Z</time>
      </trkpt>
      <trkpt lat="44.81202" lon="6.96692">
        <ele>1859</ele>
        <time>2021-03-19T14:35:57Z</time>
      </trkpt>
      <trkpt lat="44.81202" lon="6.96694">
        <ele>1859</ele>
        <time>2021-03-19T14:35:58Z</time>
      </trkpt>
      <trkpt lat="44.81202" lon="6.96695">
        <ele>1859</ele>
        <time>2021-03-19T14:35:59Z</time>
      </trkpt>
      <trkpt lat="44.81203" lon="6.96696">
        <ele>1859</ele>
        <time>2021-03-19T14:36:00Z</time>
      </trkpt>
      <trkpt lat="44.81203" lon="6.96696">
        <ele>1859</ele>
        <time>2021-03-19T14:36:01Z</time>
      </trkpt>
      <trkpt lat="44.81203" lon="6.96697">
        <ele>1859</ele>
        <time>2021-03-19T14:36:02Z</time>
      </trkpt>
      <trkpt lat="44.81204" lon="6.96698">
        <ele>1859</ele>
        <time>2021-03-19T14:36:03Z</time>
      </trkpt>
      <trkpt lat="44.81204" lon="6.96699">
        <ele>1859</ele>
        <time>2021-03-19T14:36:04Z</time>
      </trkpt>
      <trkpt lat="44.81205" lon="6.96699">
        <ele>1859</ele>
        <time>2021-03-19T14:36:05Z</time>
      </trkpt>
      <trkpt lat="44.81203" lon="6.96701">
        <ele>1859</ele>
        <time>2021-03-19T14:38:05Z</time>
      </trkpt>
      <trkpt lat="44.81203" lon="6.96702">
        <ele>1859</ele>
        <time>2021-03-19T14:38:06Z</time>
      </trkpt>
      <trkpt lat="44.81202" lon="6.96703">
        <ele>1859</ele>
        <time>2021-03-19T14:38:07Z</time>
      </trkpt>
      <trkpt lat="44.81202" lon="6.96704">
        <ele>1859</ele>
        <time>2021-03-19T14:38:08Z</time>
      </trkpt>
      <trkpt lat="44.81202" lon="6.96705">
        <ele>1859</ele>
        <time>2021-03-19T14:38:09Z</time>
      </trkpt>
      <trkpt lat="44.81202" lon="6.96705">
        <ele>1859</ele>
        <time>2021-03-19T14:38:10Z</time>
      </trkpt>
      <trkpt lat="44.81202" lon="6.96706">
        <ele>1859</ele>
        <time>2021-03-19T14:38:11Z</time>
      </trkpt>
      <trkpt lat="44.81202" lon="6.96707">
        <ele>1859</ele>
        <time>2021-03-19T14:38:12Z</time>
      </trkpt>
      <trkpt lat="44.81202" lon="6.96708">
        <ele>1859</ele>
        <time>2021-03-19T14:38:13Z</time>
      </trkpt>
      <trkpt lat="44.81203" lon="6.96709">
        <ele>1859</ele>
        <time>2021-03-19T14:38:14Z</time>
      </trkpt>
      <trkpt lat="44.81203" lon="6.9671">
        <ele>1859</ele>
        <time>2021-03-19T14:38:15Z</time>
      </trkpt>
      <trkpt lat="44.81204" lon="6.9671">
        <ele>1859</ele>
        <time>2021-03-19T14:38:16Z</time>
      </trkpt>
      <trkpt lat="44.81204" lon="6.96711">
        <ele>1859</ele>
        <time>2021-03-19T14:38:17Z</time>
      </trkpt>
      <trkpt lat="44.81204" lon="6.96711">
        <ele>1859</ele>
        <time>2021-03-19T14:39:38Z</time>
      </trkpt>
      <trkpt lat="44.81205" lon="6.96712">
        <ele>1859</ele>
        <time>2021-03-19T14:39:39Z</time>
      </trkpt>
      <trkpt lat="44.81205" lon="6.96712">
        <ele>1859</ele>
        <time>2021-03-19T14:39:40Z</time>
      </trkpt>
      <trkpt lat="44.81206" lon="6.96712">
        <ele>1859</ele>
        <time>2021-03-19T14:39:41Z</time>
      </trkpt>
      <trkpt lat="44.81206" lon="6.96713">
        <ele>1859</ele>
        <time>2021-03-19T14:39:42Z</time>
      </trkpt>
      <trkpt lat="44.81207" lon="6.96711">
        <ele>1859</ele>
        <time>2021-03-19T14:40:07Z</time>
      </trkpt>
      <trkpt lat="44.81207" lon="6.9671">
        <ele>1859</ele>
        <time>2021-03-19T14:40:08Z</time>
      </trkpt>
      <trkpt lat="44.81207" lon="6.96709">
        <ele>1859</ele>
        <time>2021-03-19T14:40:09Z</time>
      </trkpt>
      <trkpt lat="44.81207" lon="6.96711">
        <ele>1859</ele>
        <time>2021-03-19T14:42:04Z</time>
      </trkpt>
      <trkpt lat="44.81208" lon="6.96712">
        <ele>1859</ele>
        <time>2021-03-19T14:42:05Z</time>
      </trkpt>
      <trkpt lat="44.81208" lon="6.96713">
        <ele>1859</ele>
        <time>2021-03-19T14:42:06Z</time>
      </trkpt>
      <trkpt lat="44.81209" lon="6.96715">
        <ele>1860</ele>
        <time>2021-03-19T14:43:09Z</time>
      </trkpt>
      <trkpt lat="44.81209" lon="6.96715">
        <ele>1860</ele>
        <time>2021-03-19T14:43:10Z</time>
      </trkpt>
      <trkpt lat="44.81208" lon="6.96716">
        <ele>1860</ele>
        <time>2021-03-19T14:43:11Z</time>
      </trkpt>
      <trkpt lat="44.81208" lon="6.96716">
        <ele>1860</ele>
        <time>2021-03-19T14:43:12Z</time>
      </trkpt>
      <trkpt lat="44.81208" lon="6.96716">
        <ele>1860</ele>
        <time>2021-03-19T14:43:13Z</time>
      </trkpt>
      <trkpt lat="44.81208" lon="6.96716">
        <ele>1859</ele>
        <time>2021-03-19T14:44:50Z</time>
      </trkpt>
      <trkpt lat="44.81207" lon="6.96717">
        <ele>1859</ele>
        <time>2021-03-19T14:44:51Z</time>
      </trkpt>
      <trkpt lat="44.81207" lon="6.96717">
        <ele>1859</ele>
        <time>2021-03-19T14:44:52Z</time>
      </trkpt>
      <trkpt lat="44.81207" lon="6.96718">
        <ele>1859</ele>
        <time>2021-03-19T14:45:52Z</time>
      </trkpt>
      <trkpt lat="44.81207" lon="6.96718">
        <ele>1859</ele>
        <time>2021-03-19T14:45:53Z</time>
      </trkpt>
      <trkpt lat="44.81207" lon="6.96718">
        <ele>1859</ele>
        <time>2021-03-19T14:45:54Z</time>
      </trkpt>
      <trkpt lat="44.81207" lon="6.96718">
        <ele>1859</ele>
        <time>2021-03-19T14:45:55Z</time>
      </trkpt>
      <trkpt lat="44.81206" lon="6.96717">
        <ele>1859</ele>
        <time>2021-03-19T14:45:56Z</time>
      </trkpt>
      <trkpt lat="44.81206" lon="6.96716">
        <ele>1859</ele>
        <time>2021-03-19T14:45:57Z</time>
      </trkpt>
      <trkpt lat="44.81205" lon="6.96715">
        <ele>1859</ele>
        <time>2021-03-19T14:45:58Z</time>
      </trkpt>
      <trkpt lat="44.81205" lon="6.96715">
        <ele>1859</ele>
        <time>2021-03-19T14:46:21Z</time>
      </trkpt>
      <trkpt lat="44.81205" lon="6.96715">
        <ele>1859</ele>
        <time>2021-03-19T14:46:22Z</time>
      </trkpt>
      <trkpt lat="44.81205" lon="6.96715">
        <ele>1859</ele>
        <time>2021-03-19T14:46:23Z</time>
      </trkpt>
      <trkpt lat="44.81205" lon="6.96715">
        <ele>1859</ele>
        <time>2021-03-19T14:46:24Z</time>
      </trkpt>
      <trkpt lat="44.81205" lon="6.96715">
        <ele>1859</ele>
        <time>2021-03-19T14:46:25Z</time>
      </trkpt>
      <trkpt lat="44.81205" lon="6.96715">
        <ele>1859</ele>
        <time>2021-03-19T14:46:26Z</time>
      </trkpt>
      <trkpt lat="44.81206" lon="6.96716">
        <ele>1859</ele>
        <time>2021-03-19T14:46:27Z</time>
      </trkpt>
      <trkpt lat="44.81206" lon="6.96716">
        <ele>1859</ele>
        <time>2021-03-19T14:46:28Z</time>
      </trkpt>
      <trkpt lat="44.81206" lon="6.96717">
        <ele>1859</ele>
        <time>2021-03-19T14:46:59Z</time>
      </trkpt>
      <trkpt lat="44.81206" lon="6.96717">
        <ele>1859</ele>
        <time>2021-03-19T14:47:00Z</time>
      </trkpt>
      <trkpt lat="44.81206" lon="6.96717">
        <ele>1859</ele>
        <time>2021-03-19T14:47:01Z</time>
      </trkpt>
      <trkpt lat="44.81205" lon="6.96716">
        <ele>1858</ele>
        <time>2021-03-19T14:47:12Z</time>
      </trkpt>
      <trkpt lat="44.81204" lon="6.96716">
        <ele>1858</ele>
        <time>2021-03-19T14:47:13Z</time>
      </trkpt>
      <trkpt lat="44.81204" lon="6.96715">
        <ele>1858</ele>
        <time>2021-03-19T14:47:14Z</time>
      </trkpt>
      <trkpt lat="44.81204" lon="6.96716">
        <ele>1858</ele>
        <time>2021-03-19T14:47:15Z</time>
      </trkpt>
      <trkpt lat="44.81204" lon="6.96716">
        <ele>1858</ele>
        <time>2021-03-19T14:47:16Z</time>
      </trkpt>
      <trkpt lat="44.81204" lon="6.96717">
        <ele>1858</ele>
        <time>2021-03-19T14:47:17Z</time>
      </trkpt>
      <trkpt lat="44.81203" lon="6.96718">
        <ele>1858</ele>
        <time>2021-03-19T14:47:18Z</time>
      </trkpt>
      <trkpt lat="44.81203" lon="6.96719">
        <ele>1858</ele>
        <time>2021-03-19T14:47:19Z</time>
      </trkpt>
      <trkpt lat="44.81203" lon="6.96721">
        <ele>1858</ele>
        <time>2021-03-19T14:47:20Z</time>
      </trkpt>
      <trkpt lat="44.81203" lon="6.96722">
        <ele>1858</ele>
        <time>2021-03-19T14:47:21Z</time>
      </trkpt>
      <trkpt lat="44.81203" lon="6.96724">
        <ele>1858</ele>
        <time>2021-03-19T14:47:22Z</time>
      </trkpt>
      <trkpt lat="44.81204" lon="6.96725">
        <ele>1858</ele>
        <time>2021-03-19T14:47:23Z</time>
      </trkpt>
      <trkpt lat="44.81204" lon="6.96727">
        <ele>1858</ele>
        <time>2021-03-19T14:47:24Z</time>
      </trkpt>
      <trkpt lat="44.81204" lon="6.96728">
        <ele>1858</ele>
        <time>2021-03-19T14:47:25Z</time>
      </trkpt>
      <trkpt lat="44.81204" lon="6.96729">
        <ele>1858</ele>
        <time>2021-03-19T14:47:26Z</time>
      </trkpt>
      <trkpt lat="44.81205" lon="6.96731">
        <ele>1858</ele>
        <time>2021-03-19T14:47:27Z</time>
      </trkpt>
      <trkpt lat="44.81205" lon="6.96732">
        <ele>1858</ele>
        <time>2021-03-19T14:47:28Z</time>
      </trkpt>
      <trkpt lat="44.81205" lon="6.96733">
        <ele>1858</ele>
        <time>2021-03-19T14:47:29Z</time>
      </trkpt>
      <trkpt lat="44.81205" lon="6.96735">
        <ele>1858</ele>
        <time>2021-03-19T14:47:30Z</time>
      </trkpt>
      <trkpt lat="44.81205" lon="6.96736">
        <ele>1858</ele>
        <time>2021-03-19T14:47:31Z</time>
      </trkpt>
      <trkpt lat="44.81205" lon="6.96737">
        <ele>1858</ele>
        <time>2021-03-19T14:47:32Z</time>
      </trkpt>
      <trkpt lat="44.81205" lon="6.96739">
        <ele>1858</ele>
        <time>2021-03-19T14:47:33Z</time>
      </trkpt>
      <trkpt lat="44.81205" lon="6.9674">
        <ele>1858</ele>
        <time>2021-03-19T14:47:34Z</time>
      </trkpt>
      <trkpt lat="44.81205" lon="6.96742">
        <ele>1858</ele>
        <time>2021-03-19T14:47:35Z</time>
      </trkpt>
      <trkpt lat="44.81206" lon="6.96743">
        <ele>1858</ele>
        <time>2021-03-19T14:47:36Z</time>
      </trkpt>
      <trkpt lat="44.81206" lon="6.96745">
        <ele>1858</ele>
        <time>2021-03-19T14:47:37Z</time>
      </trkpt>
      <trkpt lat="44.81206" lon="6.96746">
        <ele>1858</ele>
        <time>2021-03-19T14:47:38Z</time>
      </trkpt>
      <trkpt lat="44.81206" lon="6.96747">
        <ele>1858</ele>
        <time>2021-03-19T14:47:39Z</time>
      </trkpt>
      <trkpt lat="44.81207" lon="6.96748">
        <ele>1858</ele>
        <time>2021-03-19T14:47:40Z</time>
      </trkpt>
      <trkpt lat="44.81207" lon="6.9675">
        <ele>1858</ele>
        <time>2021-03-19T14:47:41Z</time>
      </trkpt>
      <trkpt lat="44.81207" lon="6.96751">
        <ele>1858</ele>
        <time>2021-03-19T14:47:42Z</time>
      </trkpt>
      <trkpt lat="44.81207" lon="6.96752">
        <ele>1858</ele>
        <time>2021-03-19T14:47:43Z</time>
      </trkpt>
      <trkpt lat="44.81207" lon="6.96754">
        <ele>1858</ele>
        <time>2021-03-19T14:47:44Z</time>
      </trkpt>
      <trkpt lat="44.81207" lon="6.96755">
        <ele>1858</ele>
        <time>2021-03-19T14:47:45Z</time>
      </trkpt>
      <trkpt lat="44.81207" lon="6.96756">
        <ele>1858</ele>
        <time>2021-03-19T14:47:46Z</time>
      </trkpt>
      <trkpt lat="44.81207" lon="6.96757">
        <ele>1858</ele>
        <time>2021-03-19T14:47:47Z</time>
      </trkpt>
      <trkpt lat="44.81207" lon="6.96759">
        <ele>1858</ele>
        <time>2021-03-19T14:47:48Z</time>
      </trkpt>
      <trkpt lat="44.81207" lon="6.9676">
        <ele>1858</ele>
        <time>2021-03-19T14:47:49Z</time>
      </trkpt>
      <trkpt lat="44.81208" lon="6.96762">
        <ele>1858</ele>
        <time>2021-03-19T14:47:50Z</time>
      </trkpt>
      <trkpt lat="44.81207" lon="6.96763">
        <ele>1858</ele>
        <time>2021-03-19T14:47:51Z</time>
      </trkpt>
      <trkpt lat="44.81207" lon="6.96764">
        <ele>1858</ele>
        <time>2021-03-19T14:47:52Z</time>
      </trkpt>
      <trkpt lat="44.81207" lon="6.96765">
        <ele>1858</ele>
        <time>2021-03-19T14:47:53Z</time>
      </trkpt>
      <trkpt lat="44.81206" lon="6.96766">
        <ele>1858</ele>
        <time>2021-03-19T14:47:54Z</time>
      </trkpt>
      <trkpt lat="44.81206" lon="6.96767">
        <ele>1858</ele>
        <time>2021-03-19T14:47:55Z</time>
      </trkpt>
      <trkpt lat="44.81206" lon="6.96768">
        <ele>1858</ele>
        <time>2021-03-19T14:47:56Z</time>
      </trkpt>
      <trkpt lat="44.81206" lon="6.9677">
        <ele>1858</ele>
        <time>2021-03-19T14:47:57Z</time>
      </trkpt>
      <trkpt lat="44.81207" lon="6.96771">
        <ele>1858</ele>
        <time>2021-03-19T14:47:58Z</time>
      </trkpt>
      <trkpt lat="44.81207" lon="6.96772">
        <ele>1858</ele>
        <time>2021-03-19T14:47:59Z</time>
      </trkpt>
      <trkpt lat="44.81207" lon="6.96774">
        <ele>1858</ele>
        <time>2021-03-19T14:48:00Z</time>
      </trkpt>
      <trkpt lat="44.81206" lon="6.96775">
        <ele>1858</ele>
        <time>2021-03-19T14:48:01Z</time>
      </trkpt>
      <trkpt lat="44.81206" lon="6.96776">
        <ele>1859</ele>
        <time>2021-03-19T14:48:02Z</time>
      </trkpt>
      <trkpt lat="44.81206" lon="6.96777">
        <ele>1859</ele>
        <time>2021-03-19T14:48:03Z</time>
      </trkpt>
      <trkpt lat="44.81206" lon="6.96778">
        <ele>1859</ele>
        <time>2021-03-19T14:48:04Z</time>
      </trkpt>
      <trkpt lat="44.81206" lon="6.9678">
        <ele>1859</ele>
        <time>2021-03-19T14:48:05Z</time>
      </trkpt>
      <trkpt lat="44.81206" lon="6.96781">
        <ele>1859</ele>
        <time>2021-03-19T14:48:06Z</time>
      </trkpt>
      <trkpt lat="44.81206" lon="6.96783">
        <ele>1859</ele>
        <time>2021-03-19T14:48:07Z</time>
      </trkpt>
      <trkpt lat="44.81206" lon="6.96784">
        <ele>1859</ele>
        <time>2021-03-19T14:48:08Z</time>
      </trkpt>
      <trkpt lat="44.81206" lon="6.96785">
        <ele>1859</ele>
        <time>2021-03-19T14:48:09Z</time>
      </trkpt>
      <trkpt lat="44.81206" lon="6.96787">
        <ele>1859</ele>
        <time>2021-03-19T14:48:10Z</time>
      </trkpt>
      <trkpt lat="44.81206" lon="6.96788">
        <ele>1859</ele>
        <time>2021-03-19T14:48:11Z</time>
      </trkpt>
      <trkpt lat="44.81206" lon="6.96789">
        <ele>1860</ele>
        <time>2021-03-19T14:48:12Z</time>
      </trkpt>
      <trkpt lat="44.81205" lon="6.9679">
        <ele>1860</ele>
        <time>2021-03-19T14:48:13Z</time>
      </trkpt>
      <trkpt lat="44.81205" lon="6.9679">
        <ele>1860</ele>
        <time>2021-03-19T14:48:14Z</time>
      </trkpt>
      <trkpt lat="44.81205" lon="6.96791">
        <ele>1860</ele>
        <time>2021-03-19T14:48:15Z</time>
      </trkpt>
      <trkpt lat="44.81205" lon="6.96793">
        <ele>1860</ele>
        <time>2021-03-19T14:48:16Z</time>
      </trkpt>
      <trkpt lat="44.81204" lon="6.96794">
        <ele>1860</ele>
        <time>2021-03-19T14:48:17Z</time>
      </trkpt>
      <trkpt lat="44.81204" lon="6.96795">
        <ele>1860</ele>
        <time>2021-03-19T14:48:18Z</time>
      </trkpt>
      <trkpt lat="44.81204" lon="6.96796">
        <ele>1860</ele>
        <time>2021-03-19T14:48:19Z</time>
      </trkpt>
      <trkpt lat="44.81204" lon="6.96797">
        <ele>1860</ele>
        <time>2021-03-19T14:48:20Z</time>
      </trkpt>
      <trkpt lat="44.81204" lon="6.96798">
        <ele>1860</ele>
        <time>2021-03-19T14:48:21Z</time>
      </trkpt>
      <trkpt lat="44.81204" lon="6.96799">
        <ele>1860</ele>
        <time>2021-03-19T14:48:22Z</time>
      </trkpt>
      <trkpt lat="44.81204" lon="6.96801">
        <ele>1860</ele>
        <time>2021-03-19T14:48:23Z</time>
      </trkpt>
      <trkpt lat="44.81204" lon="6.96802">
        <ele>1860</ele>
        <time>2021-03-19T14:48:24Z</time>
      </trkpt>
      <trkpt lat="44.81204" lon="6.96804">
        <ele>1860</ele>
        <time>2021-03-19T14:48:25Z</time>
      </trkpt>
      <trkpt lat="44.81205" lon="6.96805">
        <ele>1860</ele>
        <time>2021-03-19T14:48:26Z</time>
      </trkpt>
      <trkpt lat="44.81205" lon="6.96807">
        <ele>1860</ele>
        <time>2021-03-19T14:48:27Z</time>
      </trkpt>
      <trkpt lat="44.81205" lon="6.96808">
        <ele>1860</ele>
        <time>2021-03-19T14:48:28Z</time>
      </trkpt>
      <trkpt lat="44.81205" lon="6.96809">
        <ele>1860</ele>
        <time>2021-03-19T14:48:29Z</time>
      </trkpt>
      <trkpt lat="44.81205" lon="6.96811">
        <ele>1860</ele>
        <time>2021-03-19T14:48:30Z</time>
      </trkpt>
      <trkpt lat="44.81205" lon="6.96812">
        <ele>1860</ele>
        <time>2021-03-19T14:48:31Z</time>
      </trkpt>
      <trkpt lat="44.81206" lon="6.96814">
        <ele>1860</ele>
        <time>2021-03-19T14:48:32Z</time>
      </trkpt>
      <trkpt lat="44.81206" lon="6.96815">
        <ele>1860</ele>
        <time>2021-03-19T14:48:33Z</time>
      </trkpt>
      <trkpt lat="44.81206" lon="6.96816">
        <ele>1860</ele>
        <time>2021-03-19T14:48:34Z</time>
      </trkpt>
      <trkpt lat="44.81206" lon="6.96817">
        <ele>1860</ele>
        <time>2021-03-19T14:48:35Z</time>
      </trkpt>
      <trkpt lat="44.81206" lon="6.96818">
        <ele>1860</ele>
        <time>2021-03-19T14:48:36Z</time>
      </trkpt>
      <trkpt lat="44.81206" lon="6.96819">
        <ele>1861</ele>
        <time>2021-03-19T14:48:37Z</time>
      </trkpt>
      <trkpt lat="44.81206" lon="6.9682">
        <ele>1861</ele>
        <time>2021-03-19T14:48:38Z</time>
      </trkpt>
      <trkpt lat="44.81205" lon="6.96821">
        <ele>1861</ele>
        <time>2021-03-19T14:48:39Z</time>
      </trkpt>
      <trkpt lat="44.81205" lon="6.96823">
        <ele>1861</ele>
        <time>2021-03-19T14:48:40Z</time>
      </trkpt>
      <trkpt lat="44.81205" lon="6.96824">
        <ele>1861</ele>
        <time>2021-03-19T14:48:41Z</time>
      </trkpt>
      <trkpt lat="44.81205" lon="6.96825">
        <ele>1861</ele>
        <time>2021-03-19T14:48:42Z</time>
      </trkpt>
      <trkpt lat="44.81206" lon="6.96827">
        <ele>1861</ele>
        <time>2021-03-19T14:48:43Z</time>
      </trkpt>
      <trkpt lat="44.81206" lon="6.96829">
        <ele>1861</ele>
        <time>2021-03-19T14:48:44Z</time>
      </trkpt>
      <trkpt lat="44.81206" lon="6.9683">
        <ele>1861</ele>
        <time>2021-03-19T14:48:45Z</time>
      </trkpt>
      <trkpt lat="44.81207" lon="6.96832">
        <ele>1861</ele>
        <time>2021-03-19T14:48:46Z</time>
      </trkpt>
      <trkpt lat="44.81207" lon="6.96833">
        <ele>1861</ele>
        <time>2021-03-19T14:48:47Z</time>
      </trkpt>
      <trkpt lat="44.81207" lon="6.96835">
        <ele>1861</ele>
        <time>2021-03-19T14:48:48Z</time>
      </trkpt>
      <trkpt lat="44.81207" lon="6.96835">
        <ele>1861</ele>
        <time>2021-03-19T14:48:49Z</time>
      </trkpt>
      <trkpt lat="44.81206" lon="6.96836">
        <ele>1861</ele>
        <time>2021-03-19T14:48:50Z</time>
      </trkpt>
      <trkpt lat="44.81206" lon="6.96837">
        <ele>1861</ele>
        <time>2021-03-19T14:48:51Z</time>
      </trkpt>
      <trkpt lat="44.81206" lon="6.96838">
        <ele>1861</ele>
        <time>2021-03-19T14:48:52Z</time>
      </trkpt>
      <trkpt lat="44.81205" lon="6.96839">
        <ele>1861</ele>
        <time>2021-03-19T14:48:53Z</time>
      </trkpt>
      <trkpt lat="44.81205" lon="6.9684">
        <ele>1861</ele>
        <time>2021-03-19T14:48:54Z</time>
      </trkpt>
      <trkpt lat="44.81205" lon="6.96841">
        <ele>1861</ele>
        <time>2021-03-19T14:48:55Z</time>
      </trkpt>
      <trkpt lat="44.81205" lon="6.96842">
        <ele>1861</ele>
        <time>2021-03-19T14:48:56Z</time>
      </trkpt>
      <trkpt lat="44.81205" lon="6.96844">
        <ele>1862</ele>
        <time>2021-03-19T14:48:57Z</time>
      </trkpt>
      <trkpt lat="44.81204" lon="6.96845">
        <ele>1862</ele>
        <time>2021-03-19T14:48:58Z</time>
      </trkpt>
      <trkpt lat="44.81204" lon="6.96846">
        <ele>1862</ele>
        <time>2021-03-19T14:48:59Z</time>
      </trkpt>
      <trkpt lat="44.81205" lon="6.96847">
        <ele>1862</ele>
        <time>2021-03-19T14:49:00Z</time>
      </trkpt>
      <trkpt lat="44.81205" lon="6.96849">
        <ele>1862</ele>
        <time>2021-03-19T14:49:01Z</time>
      </trkpt>
      <trkpt lat="44.81205" lon="6.9685">
        <ele>1862</ele>
        <time>2021-03-19T14:49:02Z</time>
      </trkpt>
      <trkpt lat="44.81205" lon="6.96851">
        <ele>1862</ele>
        <time>2021-03-19T14:49:03Z</time>
      </trkpt>
      <trkpt lat="44.81204" lon="6.96852">
        <ele>1862</ele>
        <time>2021-03-19T14:49:04Z</time>
      </trkpt>
      <trkpt lat="44.81204" lon="6.96853">
        <ele>1862</ele>
        <time>2021-03-19T14:49:05Z</time>
      </trkpt>
      <trkpt lat="44.81204" lon="6.96854">
        <ele>1862</ele>
        <time>2021-03-19T14:49:06Z</time>
      </trkpt>
      <trkpt lat="44.81203" lon="6.96855">
        <ele>1862</ele>
        <time>2021-03-19T14:49:07Z</time>
      </trkpt>
      <trkpt lat="44.81203" lon="6.96856">
        <ele>1862</ele>
        <time>2021-03-19T14:49:08Z</time>
      </trkpt>
      <trkpt lat="44.81203" lon="6.96857">
        <ele>1862</ele>
        <time>2021-03-19T14:49:09Z</time>
      </trkpt>
      <trkpt lat="44.81203" lon="6.96858">
        <ele>1862</ele>
        <time>2021-03-19T14:49:10Z</time>
      </trkpt>
      <trkpt lat="44.81203" lon="6.9686">
        <ele>1862</ele>
        <time>2021-03-19T14:49:11Z</time>
      </trkpt>
      <trkpt lat="44.81203" lon="6.96861">
        <ele>1863</ele>
        <time>2021-03-19T14:49:12Z</time>
      </trkpt>
      <trkpt lat="44.81203" lon="6.96863">
        <ele>1863</ele>
        <time>2021-03-19T14:49:13Z</time>
      </trkpt>
      <trkpt lat="44.81203" lon="6.96864">
        <ele>1863</ele>
        <time>2021-03-19T14:49:14Z</time>
      </trkpt>
      <trkpt lat="44.81203" lon="6.96866">
        <ele>1863</ele>
        <time>2021-03-19T14:49:15Z</time>
      </trkpt>
      <trkpt lat="44.81203" lon="6.96867">
        <ele>1863</ele>
        <time>2021-03-19T14:49:16Z</time>
      </trkpt>
      <trkpt lat="44.81203" lon="6.96869">
        <ele>1863</ele>
        <time>2021-03-19T14:49:17Z</time>
      </trkpt>
      <trkpt lat="44.81203" lon="6.9687">
        <ele>1863</ele>
        <time>2021-03-19T14:49:18Z</time>
      </trkpt>
      <trkpt lat="44.81203" lon="6.96872">
        <ele>1863</ele>
        <time>2021-03-19T14:49:19Z</time>
      </trkpt>
      <trkpt lat="44.81203" lon="6.96873">
        <ele>1863</ele>
        <time>2021-03-19T14:49:20Z</time>
      </trkpt>
      <trkpt lat="44.81203" lon="6.96874">
        <ele>1863</ele>
        <time>2021-03-19T14:49:21Z</time>
      </trkpt>
      <trkpt lat="44.81203" lon="6.96875">
        <ele>1863</ele>
        <time>2021-03-19T14:49:22Z</time>
      </trkpt>
      <trkpt lat="44.81203" lon="6.96876">
        <ele>1863</ele>
        <time>2021-03-19T14:49:23Z</time>
      </trkpt>
      <trkpt lat="44.81203" lon="6.96878">
        <ele>1863</ele>
        <time>2021-03-19T14:49:24Z</time>
      </trkpt>
      <trkpt lat="44.81203" lon="6.96879">
        <ele>1863</ele>
        <time>2021-03-19T14:49:25Z</time>
      </trkpt>
      <trkpt lat="44.81203" lon="6.9688">
        <ele>1863</ele>
        <time>2021-03-19T14:49:26Z</time>
      </trkpt>
      <trkpt lat="44.81203" lon="6.96881">
        <ele>1864</ele>
        <time>2021-03-19T14:49:27Z</time>
      </trkpt>
      <trkpt lat="44.81203" lon="6.96883">
        <ele>1864</ele>
        <time>2021-03-19T14:49:28Z</time>
      </trkpt>
      <trkpt lat="44.81203" lon="6.96884">
        <ele>1864</ele>
        <time>2021-03-19T14:49:29Z</time>
      </trkpt>
      <trkpt lat="44.81203" lon="6.96885">
        <ele>1864</ele>
        <time>2021-03-19T14:49:30Z</time>
      </trkpt>
      <trkpt lat="44.81202" lon="6.96887">
        <ele>1864</ele>
        <time>2021-03-19T14:49:31Z</time>
      </trkpt>
      <trkpt lat="44.81202" lon="6.96888">
        <ele>1864</ele>
        <time>2021-03-19T14:49:32Z</time>
      </trkpt>
      <trkpt lat="44.81202" lon="6.96888">
        <ele>1864</ele>
        <time>2021-03-19T14:49:33Z</time>
      </trkpt>
      <trkpt lat="44.81202" lon="6.96889">
        <ele>1864</ele>
        <time>2021-03-19T14:49:34Z</time>
      </trkpt>
      <trkpt lat="44.81202" lon="6.9689">
        <ele>1864</ele>
        <time>2021-03-19T14:49:35Z</time>
      </trkpt>
      <trkpt lat="44.81202" lon="6.96891">
        <ele>1864</ele>
        <time>2021-03-19T14:49:36Z</time>
      </trkpt>
      <trkpt lat="44.81202" lon="6.96892">
        <ele>1864</ele>
        <time>2021-03-19T14:49:37Z</time>
      </trkpt>
      <trkpt lat="44.81202" lon="6.96893">
        <ele>1864</ele>
        <time>2021-03-19T14:49:38Z</time>
      </trkpt>
      <trkpt lat="44.81202" lon="6.96894">
        <ele>1864</ele>
        <time>2021-03-19T14:49:39Z</time>
      </trkpt>
      <trkpt lat="44.81202" lon="6.96896">
        <ele>1864</ele>
        <time>2021-03-19T14:49:40Z</time>
      </trkpt>
      <trkpt lat="44.81202" lon="6.96897">
        <ele>1864</ele>
        <time>2021-03-19T14:49:41Z</time>
      </trkpt>
      <trkpt lat="44.81202" lon="6.96898">
        <ele>1864</ele>
        <time>2021-03-19T14:49:42Z</time>
      </trkpt>
      <trkpt lat="44.81202" lon="6.969">
        <ele>1864</ele>
        <time>2021-03-19T14:49:43Z</time>
      </trkpt>
      <trkpt lat="44.81202" lon="6.96901">
        <ele>1864</ele>
        <time>2021-03-19T14:49:44Z</time>
      </trkpt>
      <trkpt lat="44.81202" lon="6.96902">
        <ele>1864</ele>
        <time>2021-03-19T14:49:45Z</time>
      </trkpt>
      <trkpt lat="44.81202" lon="6.96903">
        <ele>1864</ele>
        <time>2021-03-19T14:49:46Z</time>
      </trkpt>
      <trkpt lat="44.81202" lon="6.96904">
        <ele>1865</ele>
        <time>2021-03-19T14:49:47Z</time>
      </trkpt>
      <trkpt lat="44.81203" lon="6.96904">
        <ele>1865</ele>
        <time>2021-03-19T14:49:48Z</time>
      </trkpt>
      <trkpt lat="44.81203" lon="6.96905">
        <ele>1865</ele>
        <time>2021-03-19T14:49:49Z</time>
      </trkpt>
      <trkpt lat="44.81203" lon="6.96906">
        <ele>1865</ele>
        <time>2021-03-19T14:49:50Z</time>
      </trkpt>
      <trkpt lat="44.81204" lon="6.96907">
        <ele>1865</ele>
        <time>2021-03-19T14:49:51Z</time>
      </trkpt>
      <trkpt lat="44.81204" lon="6.96908">
        <ele>1865</ele>
        <time>2021-03-19T14:49:52Z</time>
      </trkpt>
      <trkpt lat="44.81204" lon="6.96909">
        <ele>1865</ele>
        <time>2021-03-19T14:49:53Z</time>
      </trkpt>
      <trkpt lat="44.81205" lon="6.96909">
        <ele>1865</ele>
        <time>2021-03-19T14:49:54Z</time>
      </trkpt>
      <trkpt lat="44.81205" lon="6.9691">
        <ele>1865</ele>
        <time>2021-03-19T14:49:55Z</time>
      </trkpt>
      <trkpt lat="44.81205" lon="6.96911">
        <ele>1865</ele>
        <time>2021-03-19T14:49:56Z</time>
      </trkpt>
      <trkpt lat="44.81205" lon="6.96913">
        <ele>1865</ele>
        <time>2021-03-19T14:49:57Z</time>
      </trkpt>
      <trkpt lat="44.81206" lon="6.96914">
        <ele>1865</ele>
        <time>2021-03-19T14:49:58Z</time>
      </trkpt>
      <trkpt lat="44.81206" lon="6.96918">
        <ele>1866</ele>
        <time>2021-03-19T14:50:11Z</time>
      </trkpt>
      <trkpt lat="44.81207" lon="6.96919">
        <ele>1867</ele>
        <time>2021-03-19T14:50:12Z</time>
      </trkpt>
      <trkpt lat="44.81208" lon="6.96921">
        <ele>1867</ele>
        <time>2021-03-19T14:50:13Z</time>
      </trkpt>
      <trkpt lat="44.81208" lon="6.96922">
        <ele>1867</ele>
        <time>2021-03-19T14:50:14Z</time>
      </trkpt>
      <trkpt lat="44.81209" lon="6.96923">
        <ele>1867</ele>
        <time>2021-03-19T14:50:15Z</time>
      </trkpt>
      <trkpt lat="44.8121" lon="6.96924">
        <ele>1867</ele>
        <time>2021-03-19T14:50:16Z</time>
      </trkpt>
      <trkpt lat="44.81211" lon="6.96925">
        <ele>1867</ele>
        <time>2021-03-19T14:50:17Z</time>
      </trkpt>
      <trkpt lat="44.81212" lon="6.96925">
        <ele>1867</ele>
        <time>2021-03-19T14:50:18Z</time>
      </trkpt>
      <trkpt lat="44.81213" lon="6.96926">
        <ele>1867</ele>
        <time>2021-03-19T14:50:19Z</time>
      </trkpt>
      <trkpt lat="44.81213" lon="6.96926">
        <ele>1867</ele>
        <time>2021-03-19T14:50:20Z</time>
      </trkpt>
      <trkpt lat="44.81214" lon="6.96926">
        <ele>1867</ele>
        <time>2021-03-19T14:50:21Z</time>
      </trkpt>
      <trkpt lat="44.81215" lon="6.96926">
        <ele>1868</ele>
        <time>2021-03-19T14:50:22Z</time>
      </trkpt>
      <trkpt lat="44.81215" lon="6.96926">
        <ele>1868</ele>
        <time>2021-03-19T14:50:23Z</time>
      </trkpt>
      <trkpt lat="44.81216" lon="6.96926">
        <ele>1868</ele>
        <time>2021-03-19T14:50:24Z</time>
      </trkpt>
      <trkpt lat="44.81216" lon="6.96926">
        <ele>1868</ele>
        <time>2021-03-19T14:50:25Z</time>
      </trkpt>
      <trkpt lat="44.81217" lon="6.96926">
        <ele>1868</ele>
        <time>2021-03-19T14:50:26Z</time>
      </trkpt>
      <trkpt lat="44.81217" lon="6.96926">
        <ele>1868</ele>
        <time>2021-03-19T14:50:27Z</time>
      </trkpt>
      <trkpt lat="44.81218" lon="6.96926">
        <ele>1868</ele>
        <time>2021-03-19T14:50:28Z</time>
      </trkpt>
      <trkpt lat="44.81219" lon="6.96926">
        <ele>1868</ele>
        <time>2021-03-19T14:50:29Z</time>
      </trkpt>
      <trkpt lat="44.81219" lon="6.96926">
        <ele>1868</ele>
        <time>2021-03-19T14:50:30Z</time>
      </trkpt>
      <trkpt lat="44.8122" lon="6.96926">
        <ele>1868</ele>
        <time>2021-03-19T14:50:31Z</time>
      </trkpt>
      <trkpt lat="44.81221" lon="6.96925">
        <ele>1868</ele>
        <time>2021-03-19T14:50:32Z</time>
      </trkpt>
      <trkpt lat="44.81222" lon="6.96925">
        <ele>1868</ele>
        <time>2021-03-19T14:50:33Z</time>
      </trkpt>
      <trkpt lat="44.81222" lon="6.96924">
        <ele>1868</ele>
        <time>2021-03-19T14:50:34Z</time>
      </trkpt>
      <trkpt lat="44.81223" lon="6.96924">
        <ele>1868</ele>
        <time>2021-03-19T14:50:35Z</time>
      </trkpt>
      <trkpt lat="44.81224" lon="6.96923">
        <ele>1868</ele>
        <time>2021-03-19T14:50:36Z</time>
      </trkpt>
      <trkpt lat="44.81225" lon="6.96923">
        <ele>1869</ele>
        <time>2021-03-19T14:50:37Z</time>
      </trkpt>
      <trkpt lat="44.81225" lon="6.96922">
        <ele>1869</ele>
        <time>2021-03-19T14:50:38Z</time>
      </trkpt>
      <trkpt lat="44.81226" lon="6.96921">
        <ele>1869</ele>
        <time>2021-03-19T14:50:39Z</time>
      </trkpt>
      <trkpt lat="44.81226" lon="6.96921">
        <ele>1869</ele>
        <time>2021-03-19T14:50:40Z</time>
      </trkpt>
      <trkpt lat="44.81227" lon="6.9692">
        <ele>1869</ele>
        <time>2021-03-19T14:50:41Z</time>
      </trkpt>
      <trkpt lat="44.81227" lon="6.9692">
        <ele>1869</ele>
        <time>2021-03-19T14:50:42Z</time>
      </trkpt>
      <trkpt lat="44.81228" lon="6.96919">
        <ele>1869</ele>
        <time>2021-03-19T14:50:43Z</time>
      </trkpt>
      <trkpt lat="44.81228" lon="6.96918">
        <ele>1869</ele>
        <time>2021-03-19T14:50:44Z</time>
      </trkpt>
      <trkpt lat="44.81229" lon="6.96917">
        <ele>1869</ele>
        <time>2021-03-19T14:50:45Z</time>
      </trkpt>
      <trkpt lat="44.81229" lon="6.96917">
        <ele>1869</ele>
        <time>2021-03-19T14:50:46Z</time>
      </trkpt>
      <trkpt lat="44.8123" lon="6.96916">
        <ele>1869</ele>
        <time>2021-03-19T14:50:47Z</time>
      </trkpt>
      <trkpt lat="44.8123" lon="6.96916">
        <ele>1869</ele>
        <time>2021-03-19T14:50:48Z</time>
      </trkpt>
      <trkpt lat="44.81231" lon="6.96915">
        <ele>1869</ele>
        <time>2021-03-19T14:50:49Z</time>
      </trkpt>
      <trkpt lat="44.81232" lon="6.96915">
        <ele>1869</ele>
        <time>2021-03-19T14:50:50Z</time>
      </trkpt>
      <trkpt lat="44.81232" lon="6.96915">
        <ele>1869</ele>
        <time>2021-03-19T14:50:51Z</time>
      </trkpt>
      <trkpt lat="44.81233" lon="6.96914">
        <ele>1869</ele>
        <time>2021-03-19T14:50:52Z</time>
      </trkpt>
      <trkpt lat="44.81233" lon="6.96914">
        <ele>1869</ele>
        <time>2021-03-19T14:50:53Z</time>
      </trkpt>
      <trkpt lat="44.81233" lon="6.96913">
        <ele>1869</ele>
        <time>2021-03-19T14:50:54Z</time>
      </trkpt>
      <trkpt lat="44.81233" lon="6.96913">
        <ele>1869</ele>
        <time>2021-03-19T14:50:55Z</time>
      </trkpt>
      <trkpt lat="44.81234" lon="6.96912">
        <ele>1869</ele>
        <time>2021-03-19T14:50:56Z</time>
      </trkpt>
      <trkpt lat="44.81234" lon="6.96911">
        <ele>1870</ele>
        <time>2021-03-19T14:50:57Z</time>
      </trkpt>
      <trkpt lat="44.81234" lon="6.9691">
        <ele>1870</ele>
        <time>2021-03-19T14:50:58Z</time>
      </trkpt>
      <trkpt lat="44.81235" lon="6.9691">
        <ele>1870</ele>
        <time>2021-03-19T14:50:59Z</time>
      </trkpt>
      <trkpt lat="44.81235" lon="6.96909">
        <ele>1870</ele>
        <time>2021-03-19T14:51:00Z</time>
      </trkpt>
      <trkpt lat="44.81235" lon="6.96908">
        <ele>1870</ele>
        <time>2021-03-19T14:51:01Z</time>
      </trkpt>
      <trkpt lat="44.81235" lon="6.96905">
        <ele>1870</ele>
        <time>2021-03-19T14:51:14Z</time>
      </trkpt>
      <trkpt lat="44.81235" lon="6.96903">
        <ele>1870</ele>
        <time>2021-03-19T14:51:15Z</time>
      </trkpt>
      <trkpt lat="44.81235" lon="6.96901">
        <ele>1870</ele>
        <time>2021-03-19T14:51:16Z</time>
      </trkpt>
      <trkpt lat="44.81235" lon="6.969">
        <ele>1870</ele>
        <time>2021-03-19T14:51:17Z</time>
      </trkpt>
      <trkpt lat="44.81235" lon="6.96898">
        <ele>1870</ele>
        <time>2021-03-19T14:51:18Z</time>
      </trkpt>
      <trkpt lat="44.81235" lon="6.96897">
        <ele>1870</ele>
        <time>2021-03-19T14:51:19Z</time>
      </trkpt>
      <trkpt lat="44.81235" lon="6.96897">
        <ele>1870</ele>
        <time>2021-03-19T14:51:20Z</time>
      </trkpt>
      <trkpt lat="44.81235" lon="6.96896">
        <ele>1870</ele>
        <time>2021-03-19T14:51:21Z</time>
      </trkpt>
      <trkpt lat="44.81235" lon="6.96894">
        <ele>1871</ele>
        <time>2021-03-19T14:51:42Z</time>
      </trkpt>
      <trkpt lat="44.81234" lon="6.96894">
        <ele>1871</ele>
        <time>2021-03-19T14:51:43Z</time>
      </trkpt>
      <trkpt lat="44.81234" lon="6.96894">
        <ele>1871</ele>
        <time>2021-03-19T14:51:44Z</time>
      </trkpt>
      <trkpt lat="44.81233" lon="6.96894">
        <ele>1871</ele>
        <time>2021-03-19T14:51:45Z</time>
      </trkpt>
      <trkpt lat="44.81232" lon="6.96894">
        <ele>1871</ele>
        <time>2021-03-19T14:51:46Z</time>
      </trkpt>
      <trkpt lat="44.81232" lon="6.96895">
        <ele>1871</ele>
        <time>2021-03-19T14:51:47Z</time>
      </trkpt>
      <trkpt lat="44.81232" lon="6.96895">
        <ele>1871</ele>
        <time>2021-03-19T14:51:48Z</time>
      </trkpt>
      <trkpt lat="44.81232" lon="6.96895">
        <ele>1871</ele>
        <time>2021-03-19T14:51:49Z</time>
      </trkpt>
      <trkpt lat="44.81231" lon="6.96895">
        <ele>1871</ele>
        <time>2021-03-19T14:51:50Z</time>
      </trkpt>
      <trkpt lat="44.81231" lon="6.96894">
        <ele>1871</ele>
        <time>2021-03-19T14:51:51Z</time>
      </trkpt>
      <trkpt lat="44.81231" lon="6.96893">
        <ele>1871</ele>
        <time>2021-03-19T14:51:52Z</time>
      </trkpt>
      <trkpt lat="44.81231" lon="6.96889">
        <ele>1870</ele>
        <time>2021-03-19T14:52:09Z</time>
      </trkpt>
      <trkpt lat="44.81231" lon="6.96887">
        <ele>1870</ele>
        <time>2021-03-19T14:52:10Z</time>
      </trkpt>
      <trkpt lat="44.81232" lon="6.96885">
        <ele>1870</ele>
        <time>2021-03-19T14:52:11Z</time>
      </trkpt>
      <trkpt lat="44.81231" lon="6.96884">
        <ele>1870</ele>
        <time>2021-03-19T14:52:12Z</time>
      </trkpt>
      <trkpt lat="44.81231" lon="6.96883">
        <ele>1870</ele>
        <time>2021-03-19T14:52:13Z</time>
      </trkpt>
      <trkpt lat="44.81231" lon="6.96886">
        <ele>1870</ele>
        <time>2021-03-19T14:53:03Z</time>
      </trkpt>
      <trkpt lat="44.81232" lon="6.96889">
        <ele>1870</ele>
        <time>2021-03-19T14:53:04Z</time>
      </trkpt>
      <trkpt lat="44.81233" lon="6.96892">
        <ele>1870</ele>
        <time>2021-03-19T14:53:05Z</time>
      </trkpt>
      <trkpt lat="44.81233" lon="6.96893">
        <ele>1870</ele>
        <time>2021-03-19T14:53:06Z</time>
      </trkpt>
      <trkpt lat="44.81234" lon="6.96895">
        <ele>1870</ele>
        <time>2021-03-19T14:53:07Z</time>
      </trkpt>
      <trkpt lat="44.81234" lon="6.96897">
        <ele>1870</ele>
        <time>2021-03-19T14:53:08Z</time>
      </trkpt>
      <trkpt lat="44.81234" lon="6.96898">
        <ele>1870</ele>
        <time>2021-03-19T14:53:09Z</time>
      </trkpt>
      <trkpt lat="44.81235" lon="6.969">
        <ele>1870</ele>
        <time>2021-03-19T14:53:10Z</time>
      </trkpt>
      <trkpt lat="44.81235" lon="6.96901">
        <ele>1870</ele>
        <time>2021-03-19T14:53:11Z</time>
      </trkpt>
      <trkpt lat="44.81236" lon="6.96903">
        <ele>1871</ele>
        <time>2021-03-19T14:53:25Z</time>
      </trkpt>
      <trkpt lat="44.81236" lon="6.96904">
        <ele>1871</ele>
        <time>2021-03-19T14:53:26Z</time>
      </trkpt>
      <trkpt lat="44.81237" lon="6.96906">
        <ele>1871</ele>
        <time>2021-03-19T14:53:27Z</time>
      </trkpt>
      <trkpt lat="44.81237" lon="6.96907">
        <ele>1871</ele>
        <time>2021-03-19T14:53:28Z</time>
      </trkpt>
      <trkpt lat="44.81237" lon="6.96907">
        <ele>1871</ele>
        <time>2021-03-19T14:53:29Z</time>
      </trkpt>
      <trkpt lat="44.81236" lon="6.96908">
        <ele>1871</ele>
        <time>2021-03-19T14:53:30Z</time>
      </trkpt>
      <trkpt lat="44.81236" lon="6.96909">
        <ele>1871</ele>
        <time>2021-03-19T14:53:31Z</time>
      </trkpt>
      <trkpt lat="44.81236" lon="6.96911">
        <ele>1871</ele>
        <time>2021-03-19T14:53:32Z</time>
      </trkpt>
      <trkpt lat="44.81236" lon="6.96912">
        <ele>1871</ele>
        <time>2021-03-19T14:53:33Z</time>
      </trkpt>
      <trkpt lat="44.81236" lon="6.96913">
        <ele>1871</ele>
        <time>2021-03-19T14:53:34Z</time>
      </trkpt>
      <trkpt lat="44.81236" lon="6.96914">
        <ele>1871</ele>
        <time>2021-03-19T14:53:35Z</time>
      </trkpt>
      <trkpt lat="44.81236" lon="6.96915">
        <ele>1871</ele>
        <time>2021-03-19T14:53:36Z</time>
      </trkpt>
      <trkpt lat="44.81235" lon="6.96916">
        <ele>1871</ele>
        <time>2021-03-19T14:53:37Z</time>
      </trkpt>
      <trkpt lat="44.81235" lon="6.96918">
        <ele>1871</ele>
        <time>2021-03-19T14:53:38Z</time>
      </trkpt>
      <trkpt lat="44.81235" lon="6.96919">
        <ele>1871</ele>
        <time>2021-03-19T14:53:39Z</time>
      </trkpt>
      <trkpt lat="44.81235" lon="6.9692">
        <ele>1871</ele>
        <time>2021-03-19T14:53:40Z</time>
      </trkpt>
      <trkpt lat="44.81235" lon="6.96921">
        <ele>1871</ele>
        <time>2021-03-19T14:53:41Z</time>
      </trkpt>
      <trkpt lat="44.81235" lon="6.96922">
        <ele>1871</ele>
        <time>2021-03-19T14:53:42Z</time>
      </trkpt>
      <trkpt lat="44.81235" lon="6.96923">
        <ele>1870</ele>
        <time>2021-03-19T14:53:43Z</time>
      </trkpt>
      <trkpt lat="44.81236" lon="6.96924">
        <ele>1870</ele>
        <time>2021-03-19T14:53:44Z</time>
      </trkpt>
      <trkpt lat="44.81236" lon="6.96926">
        <ele>1870</ele>
        <time>2021-03-19T14:53:45Z</time>
      </trkpt>
      <trkpt lat="44.81237" lon="6.96927">
        <ele>1870</ele>
        <time>2021-03-19T14:53:46Z</time>
      </trkpt>
      <trkpt lat="44.81237" lon="6.96928">
        <ele>1870</ele>
        <time>2021-03-19T14:53:47Z</time>
      </trkpt>
      <trkpt lat="44.81238" lon="6.96931">
        <ele>1870</ele>
        <time>2021-03-19T14:53:55Z</time>
      </trkpt>
      <trkpt lat="44.81238" lon="6.96932">
        <ele>1870</ele>
        <time>2021-03-19T14:53:56Z</time>
      </trkpt>
      <trkpt lat="44.81239" lon="6.96933">
        <ele>1870</ele>
        <time>2021-03-19T14:53:57Z</time>
      </trkpt>
      <trkpt lat="44.8124" lon="6.96934">
        <ele>1870</ele>
        <time>2021-03-19T14:53:58Z</time>
      </trkpt>
      <trkpt lat="44.81241" lon="6.96935">
        <ele>1870</ele>
        <time>2021-03-19T14:53:59Z</time>
      </trkpt>
      <trkpt lat="44.81242" lon="6.96935">
        <ele>1870</ele>
        <time>2021-03-19T14:54:00Z</time>
      </trkpt>
      <trkpt lat="44.81242" lon="6.96935">
        <ele>1870</ele>
        <time>2021-03-19T14:54:01Z</time>
      </trkpt>
      <trkpt lat="44.81243" lon="6.96935">
        <ele>1870</ele>
        <time>2021-03-19T14:54:02Z</time>
      </trkpt>
      <trkpt lat="44.81244" lon="6.96935">
        <ele>1870</ele>
        <time>2021-03-19T14:54:03Z</time>
      </trkpt>
      <trkpt lat="44.81245" lon="6.96935">
        <ele>1870</ele>
        <time>2021-03-19T14:54:04Z</time>
      </trkpt>
      <trkpt lat="44.81245" lon="6.96935">
        <ele>1870</ele>
        <time>2021-03-19T14:54:05Z</time>
      </trkpt>
      <trkpt lat="44.81246" lon="6.96936">
        <ele>1870</ele>
        <time>2021-03-19T14:54:06Z</time>
      </trkpt>
      <trkpt lat="44.81247" lon="6.96937">
        <ele>1870</ele>
        <time>2021-03-19T14:54:07Z</time>
      </trkpt>
      <trkpt lat="44.81247" lon="6.96938">
        <ele>1870</ele>
        <time>2021-03-19T14:54:08Z</time>
      </trkpt>
      <trkpt lat="44.81248" lon="6.96939">
        <ele>1870</ele>
        <time>2021-03-19T14:54:09Z</time>
      </trkpt>
      <trkpt lat="44.81248" lon="6.9694">
        <ele>1870</ele>
        <time>2021-03-19T14:54:10Z</time>
      </trkpt>
      <trkpt lat="44.81248" lon="6.9694">
        <ele>1870</ele>
        <time>2021-03-19T14:54:11Z</time>
      </trkpt>
      <trkpt lat="44.81248" lon="6.9694">
        <ele>1870</ele>
        <time>2021-03-19T14:54:12Z</time>
      </trkpt>
      <trkpt lat="44.81249" lon="6.96941">
        <ele>1870</ele>
        <time>2021-03-19T14:54:13Z</time>
      </trkpt>
      <trkpt lat="44.81249" lon="6.96942">
        <ele>1870</ele>
        <time>2021-03-19T14:54:14Z</time>
      </trkpt>
      <trkpt lat="44.8125" lon="6.96943">
        <ele>1870</ele>
        <time>2021-03-19T14:54:15Z</time>
      </trkpt>
      <trkpt lat="44.8125" lon="6.96944">
        <ele>1870</ele>
        <time>2021-03-19T14:54:16Z</time>
      </trkpt>
      <trkpt lat="44.8125" lon="6.96945">
        <ele>1870</ele>
        <time>2021-03-19T14:54:17Z</time>
      </trkpt>
      <trkpt lat="44.81251" lon="6.96946">
        <ele>1870</ele>
        <time>2021-03-19T14:54:18Z</time>
      </trkpt>
      <trkpt lat="44.81251" lon="6.96947">
        <ele>1870</ele>
        <time>2021-03-19T14:54:19Z</time>
      </trkpt>
      <trkpt lat="44.81252" lon="6.96948">
        <ele>1870</ele>
        <time>2021-03-19T14:54:20Z</time>
      </trkpt>
      <trkpt lat="44.81252" lon="6.96949">
        <ele>1870</ele>
        <time>2021-03-19T14:54:21Z</time>
      </trkpt>
      <trkpt lat="44.81252" lon="6.9695">
        <ele>1870</ele>
        <time>2021-03-19T14:54:22Z</time>
      </trkpt>
      <trkpt lat="44.81253" lon="6.96952">
        <ele>1870</ele>
        <time>2021-03-19T14:54:23Z</time>
      </trkpt>
      <trkpt lat="44.81253" lon="6.96952">
        <ele>1870</ele>
        <time>2021-03-19T14:54:24Z</time>
      </trkpt>
      <trkpt lat="44.81253" lon="6.96953">
        <ele>1870</ele>
        <time>2021-03-19T14:54:25Z</time>
      </trkpt>
      <trkpt lat="44.81253" lon="6.96954">
        <ele>1870</ele>
        <time>2021-03-19T14:54:26Z</time>
      </trkpt>
      <trkpt lat="44.81253" lon="6.96955">
        <ele>1871</ele>
        <time>2021-03-19T14:54:51Z</time>
      </trkpt>
      <trkpt lat="44.81253" lon="6.96956">
        <ele>1871</ele>
        <time>2021-03-19T14:54:52Z</time>
      </trkpt>
      <trkpt lat="44.81254" lon="6.96957">
        <ele>1871</ele>
        <time>2021-03-19T14:54:53Z</time>
      </trkpt>
      <trkpt lat="44.81254" lon="6.96957">
        <ele>1871</ele>
        <time>2021-03-19T14:54:54Z</time>
      </trkpt>
      <trkpt lat="44.81254" lon="6.96958">
        <ele>1871</ele>
        <time>2021-03-19T14:54:55Z</time>
      </trkpt>
      <trkpt lat="44.81254" lon="6.9696">
        <ele>1871</ele>
        <time>2021-03-19T14:54:56Z</time>
      </trkpt>
      <trkpt lat="44.81255" lon="6.96961">
        <ele>1871</ele>
        <time>2021-03-19T14:54:57Z</time>
      </trkpt>
      <trkpt lat="44.81255" lon="6.96962">
        <ele>1871</ele>
        <time>2021-03-19T14:54:58Z</time>
      </trkpt>
      <trkpt lat="44.81255" lon="6.96964">
        <ele>1871</ele>
        <time>2021-03-19T14:54:59Z</time>
      </trkpt>
      <trkpt lat="44.81255" lon="6.96965">
        <ele>1871</ele>
        <time>2021-03-19T14:55:00Z</time>
      </trkpt>
      <trkpt lat="44.81256" lon="6.96966">
        <ele>1871</ele>
        <time>2021-03-19T14:55:01Z</time>
      </trkpt>
      <trkpt lat="44.81256" lon="6.96967">
        <ele>1871</ele>
        <time>2021-03-19T14:55:02Z</time>
      </trkpt>
      <trkpt lat="44.81256" lon="6.96968">
        <ele>1871</ele>
        <time>2021-03-19T14:55:03Z</time>
      </trkpt>
      <trkpt lat="44.81255" lon="6.9697">
        <ele>1871</ele>
        <time>2021-03-19T14:55:04Z</time>
      </trkpt>
      <trkpt lat="44.81255" lon="6.96971">
        <ele>1871</ele>
        <time>2021-03-19T14:55:05Z</time>
      </trkpt>
      <trkpt lat="44.81255" lon="6.96972">
        <ele>1871</ele>
        <time>2021-03-19T14:55:06Z</time>
      </trkpt>
      <trkpt lat="44.81255" lon="6.96973">
        <ele>1871</ele>
        <time>2021-03-19T14:55:07Z</time>
      </trkpt>
      <trkpt lat="44.81255" lon="6.96974">
        <ele>1871</ele>
        <time>2021-03-19T14:55:08Z</time>
      </trkpt>
      <trkpt lat="44.81254" lon="6.96975">
        <ele>1871</ele>
        <time>2021-03-19T14:55:09Z</time>
      </trkpt>
      <trkpt lat="44.81254" lon="6.96976">
        <ele>1872</ele>
        <time>2021-03-19T14:55:21Z</time>
      </trkpt>
      <trkpt lat="44.81254" lon="6.96977">
        <ele>1872</ele>
        <time>2021-03-19T14:55:22Z</time>
      </trkpt>
      <trkpt lat="44.81254" lon="6.96978">
        <ele>1872</ele>
        <time>2021-03-19T14:55:23Z</time>
      </trkpt>
      <trkpt lat="44.81253" lon="6.96978">
        <ele>1871</ele>
        <time>2021-03-19T14:55:52Z</time>
      </trkpt>
      <trkpt lat="44.81253" lon="6.96978">
        <ele>1871</ele>
        <time>2021-03-19T14:55:53Z</time>
      </trkpt>
      <trkpt lat="44.81252" lon="6.96978">
        <ele>1871</ele>
        <time>2021-03-19T14:55:54Z</time>
      </trkpt>
      <trkpt lat="44.81252" lon="6.96978">
        <ele>1871</ele>
        <time>2021-03-19T14:55:55Z</time>
      </trkpt>
      <trkpt lat="44.81252" lon="6.96978">
        <ele>1871</ele>
        <time>2021-03-19T14:55:56Z</time>
      </trkpt>
      <trkpt lat="44.81252" lon="6.96978">
        <ele>1871</ele>
        <time>2021-03-19T14:55:57Z</time>
      </trkpt>
      <trkpt lat="44.81252" lon="6.96978">
        <ele>1871</ele>
        <time>2021-03-19T14:55:58Z</time>
      </trkpt>
      <trkpt lat="44.81252" lon="6.96978">
        <ele>1871</ele>
        <time>2021-03-19T14:55:59Z</time>
      </trkpt>
      <trkpt lat="44.81252" lon="6.96979">
        <ele>1871</ele>
        <time>2021-03-19T14:56:00Z</time>
      </trkpt>
      <trkpt lat="44.81252" lon="6.96979">
        <ele>1871</ele>
        <time>2021-03-19T14:56:01Z</time>
      </trkpt>
      <trkpt lat="44.81252" lon="6.9698">
        <ele>1871</ele>
        <time>2021-03-19T14:56:02Z</time>
      </trkpt>
      <trkpt lat="44.81252" lon="6.96981">
        <ele>1871</ele>
        <time>2021-03-19T14:56:03Z</time>
      </trkpt>
      <trkpt lat="44.81252" lon="6.96983">
        <ele>1871</ele>
        <time>2021-03-19T14:56:04Z</time>
      </trkpt>
      <trkpt lat="44.81252" lon="6.96984">
        <ele>1871</ele>
        <time>2021-03-19T14:56:05Z</time>
      </trkpt>
      <trkpt lat="44.81252" lon="6.96985">
        <ele>1871</ele>
        <time>2021-03-19T14:56:06Z</time>
      </trkpt>
      <trkpt lat="44.81252" lon="6.96986">
        <ele>1871</ele>
        <time>2021-03-19T14:56:07Z</time>
      </trkpt>
      <trkpt lat="44.81252" lon="6.96987">
        <ele>1871</ele>
        <time>2021-03-19T14:56:08Z</time>
      </trkpt>
      <trkpt lat="44.81251" lon="6.96988">
        <ele>1871</ele>
        <time>2021-03-19T14:56:09Z</time>
      </trkpt>
      <trkpt lat="44.81251" lon="6.96989">
        <ele>1871</ele>
        <time>2021-03-19T14:56:10Z</time>
      </trkpt>
      <trkpt lat="44.81251" lon="6.9699">
        <ele>1871</ele>
        <time>2021-03-19T14:56:11Z</time>
      </trkpt>
      <trkpt lat="44.81251" lon="6.96991">
        <ele>1871</ele>
        <time>2021-03-19T14:56:12Z</time>
      </trkpt>
      <trkpt lat="44.81251" lon="6.96992">
        <ele>1871</ele>
        <time>2021-03-19T14:56:13Z</time>
      </trkpt>
      <trkpt lat="44.81251" lon="6.96993">
        <ele>1871</ele>
        <time>2021-03-19T14:56:14Z</time>
      </trkpt>
      <trkpt lat="44.81251" lon="6.96994">
        <ele>1871</ele>
        <time>2021-03-19T14:56:15Z</time>
      </trkpt>
      <trkpt lat="44.81251" lon="6.96995">
        <ele>1871</ele>
        <time>2021-03-19T14:56:16Z</time>
      </trkpt>
      <trkpt lat="44.81251" lon="6.96996">
        <ele>1871</ele>
        <time>2021-03-19T14:56:17Z</time>
      </trkpt>
      <trkpt lat="44.81251" lon="6.96997">
        <ele>1871</ele>
        <time>2021-03-19T14:56:18Z</time>
      </trkpt>
      <trkpt lat="44.81251" lon="6.96998">
        <ele>1871</ele>
        <time>2021-03-19T14:56:19Z</time>
      </trkpt>
      <trkpt lat="44.81251" lon="6.96999">
        <ele>1871</ele>
        <time>2021-03-19T14:56:20Z</time>
      </trkpt>
      <trkpt lat="44.81251" lon="6.97">
        <ele>1871</ele>
        <time>2021-03-19T14:56:21Z</time>
      </trkpt>
      <trkpt lat="44.81252" lon="6.97">
        <ele>1871</ele>
        <time>2021-03-19T14:56:22Z</time>
      </trkpt>
      <trkpt lat="44.81252" lon="6.97001">
        <ele>1871</ele>
        <time>2021-03-19T14:56:23Z</time>
      </trkpt>
      <trkpt lat="44.81252" lon="6.97002">
        <ele>1871</ele>
        <time>2021-03-19T14:56:24Z</time>
      </trkpt>
      <trkpt lat="44.81252" lon="6.97003">
        <ele>1871</ele>
        <time>2021-03-19T14:56:25Z</time>
      </trkpt>
      <trkpt lat="44.81253" lon="6.97004">
        <ele>1871</ele>
        <time>2021-03-19T14:56:26Z</time>
      </trkpt>
      <trkpt lat="44.81253" lon="6.97006">
        <ele>1871</ele>
        <time>2021-03-19T14:56:27Z</time>
      </trkpt>
      <trkpt lat="44.81253" lon="6.97007">
        <ele>1871</ele>
        <time>2021-03-19T14:56:28Z</time>
      </trkpt>
      <trkpt lat="44.81253" lon="6.97008">
        <ele>1871</ele>
        <time>2021-03-19T14:56:29Z</time>
      </trkpt>
      <trkpt lat="44.81253" lon="6.97009">
        <ele>1871</ele>
        <time>2021-03-19T14:56:30Z</time>
      </trkpt>
      <trkpt lat="44.81253" lon="6.9701">
        <ele>1871</ele>
        <time>2021-03-19T14:56:31Z</time>
      </trkpt>
      <trkpt lat="44.81254" lon="6.97011">
        <ele>1872</ele>
        <time>2021-03-19T14:56:32Z</time>
      </trkpt>
      <trkpt lat="44.81253" lon="6.97014">
        <ele>1872</ele>
        <time>2021-03-19T14:56:38Z</time>
      </trkpt>
      <trkpt lat="44.81253" lon="6.97014">
        <ele>1872</ele>
        <time>2021-03-19T14:56:39Z</time>
      </trkpt>
      <trkpt lat="44.81253" lon="6.97015">
        <ele>1872</ele>
        <time>2021-03-19T14:56:40Z</time>
      </trkpt>
      <trkpt lat="44.81253" lon="6.97017">
        <ele>1872</ele>
        <time>2021-03-19T14:56:55Z</time>
      </trkpt>
      <trkpt lat="44.81254" lon="6.97018">
        <ele>1872</ele>
        <time>2021-03-19T14:56:56Z</time>
      </trkpt>
      <trkpt lat="44.81254" lon="6.97019">
        <ele>1872</ele>
        <time>2021-03-19T14:56:57Z</time>
      </trkpt>
      <trkpt lat="44.81255" lon="6.9702">
        <ele>1872</ele>
        <time>2021-03-19T14:57:04Z</time>
      </trkpt>
      <trkpt lat="44.81255" lon="6.97021">
        <ele>1872</ele>
        <time>2021-03-19T14:57:05Z</time>
      </trkpt>
      <trkpt lat="44.81255" lon="6.97022">
        <ele>1872</ele>
        <time>2021-03-19T14:57:06Z</time>
      </trkpt>
      <trkpt lat="44.81254" lon="6.97022">
        <ele>1872</ele>
        <time>2021-03-19T14:57:07Z</time>
      </trkpt>
      <trkpt lat="44.81254" lon="6.97023">
        <ele>1872</ele>
        <time>2021-03-19T14:57:08Z</time>
      </trkpt>
      <trkpt lat="44.81254" lon="6.97023">
        <ele>1872</ele>
        <time>2021-03-19T14:57:09Z</time>
      </trkpt>
      <trkpt lat="44.81253" lon="6.97023">
        <ele>1872</ele>
        <time>2021-03-19T14:57:10Z</time>
      </trkpt>
      <trkpt lat="44.81253" lon="6.97023">
        <ele>1872</ele>
        <time>2021-03-19T14:57:11Z</time>
      </trkpt>
      <trkpt lat="44.81253" lon="6.97023">
        <ele>1872</ele>
        <time>2021-03-19T14:57:12Z</time>
      </trkpt>
      <trkpt lat="44.81253" lon="6.97023">
        <ele>1872</ele>
        <time>2021-03-19T14:57:13Z</time>
      </trkpt>
      <trkpt lat="44.81253" lon="6.97022">
        <ele>1872</ele>
        <time>2021-03-19T14:57:14Z</time>
      </trkpt>
      <trkpt lat="44.81254" lon="6.97022">
        <ele>1872</ele>
        <time>2021-03-19T14:57:15Z</time>
      </trkpt>
      <trkpt lat="44.81254" lon="6.97022">
        <ele>1872</ele>
        <time>2021-03-19T14:57:16Z</time>
      </trkpt>
      <trkpt lat="44.81255" lon="6.97022">
        <ele>1872</ele>
        <time>2021-03-19T14:57:17Z</time>
      </trkpt>
      <trkpt lat="44.81256" lon="6.97022">
        <ele>1872</ele>
        <time>2021-03-19T14:57:18Z</time>
      </trkpt>
      <trkpt lat="44.81257" lon="6.97022">
        <ele>1872</ele>
        <time>2021-03-19T14:57:19Z</time>
      </trkpt>
      <trkpt lat="44.81258" lon="6.97021">
        <ele>1872</ele>
        <time>2021-03-19T14:57:27Z</time>
      </trkpt>
      <trkpt lat="44.81258" lon="6.9702">
        <ele>1872</ele>
        <time>2021-03-19T14:57:28Z</time>
      </trkpt>
      <trkpt lat="44.81258" lon="6.9702">
        <ele>1872</ele>
        <time>2021-03-19T14:57:29Z</time>
      </trkpt>
      <trkpt lat="44.81258" lon="6.97019">
        <ele>1872</ele>
        <time>2021-03-19T14:57:30Z</time>
      </trkpt>
      <trkpt lat="44.81258" lon="6.97019">
        <ele>1872</ele>
        <time>2021-03-19T14:57:31Z</time>
      </trkpt>
      <trkpt lat="44.81258" lon="6.97018">
        <ele>1872</ele>
        <time>2021-03-19T14:57:32Z</time>
      </trkpt>
      <trkpt lat="44.81258" lon="6.97016">
        <ele>1874</ele>
        <time>2021-03-19T14:57:48Z</time>
      </trkpt>
      <trkpt lat="44.81257" lon="6.97015">
        <ele>1874</ele>
        <time>2021-03-19T14:57:49Z</time>
      </trkpt>
      <trkpt lat="44.81257" lon="6.97013">
        <ele>1874</ele>
        <time>2021-03-19T14:57:50Z</time>
      </trkpt>
      <trkpt lat="44.81257" lon="6.97012">
        <ele>1874</ele>
        <time>2021-03-19T14:57:51Z</time>
      </trkpt>
      <trkpt lat="44.81257" lon="6.97011">
        <ele>1874</ele>
        <time>2021-03-19T14:57:52Z</time>
      </trkpt>
      <trkpt lat="44.81256" lon="6.9701">
        <ele>1874</ele>
        <time>2021-03-19T14:57:53Z</time>
      </trkpt>
      <trkpt lat="44.81256" lon="6.97009">
        <ele>1874</ele>
        <time>2021-03-19T14:57:54Z</time>
      </trkpt>
      <trkpt lat="44.81257" lon="6.97009">
        <ele>1874</ele>
        <time>2021-03-19T14:58:11Z</time>
      </trkpt>
      <trkpt lat="44.81257" lon="6.97008">
        <ele>1874</ele>
        <time>2021-03-19T14:58:12Z</time>
      </trkpt>
      <trkpt lat="44.81257" lon="6.97008">
        <ele>1874</ele>
        <time>2021-03-19T14:58:13Z</time>
      </trkpt>
      <trkpt lat="44.81257" lon="6.97008">
        <ele>1874</ele>
        <time>2021-03-19T14:58:14Z</time>
      </trkpt>
      <trkpt lat="44.81258" lon="6.97007">
        <ele>1874</ele>
        <time>2021-03-19T14:58:15Z</time>
      </trkpt>
      <trkpt lat="44.81258" lon="6.97007">
        <ele>1874</ele>
        <time>2021-03-19T14:58:16Z</time>
      </trkpt>
      <trkpt lat="44.81259" lon="6.97006">
        <ele>1874</ele>
        <time>2021-03-19T14:58:17Z</time>
      </trkpt>
      <trkpt lat="44.8126" lon="6.97006">
        <ele>1874</ele>
        <time>2021-03-19T14:58:25Z</time>
      </trkpt>
      <trkpt lat="44.81261" lon="6.97005">
        <ele>1874</ele>
        <time>2021-03-19T14:58:26Z</time>
      </trkpt>
      <trkpt lat="44.81263" lon="6.97005">
        <ele>1874</ele>
        <time>2021-03-19T14:58:27Z</time>
      </trkpt>
      <trkpt lat="44.81263" lon="6.97004">
        <ele>1874</ele>
        <time>2021-03-19T14:58:28Z</time>
      </trkpt>
      <trkpt lat="44.81264" lon="6.97004">
        <ele>1874</ele>
        <time>2021-03-19T14:58:29Z</time>
      </trkpt>
      <trkpt lat="44.81265" lon="6.97003">
        <ele>1874</ele>
        <time>2021-03-19T14:58:30Z</time>
      </trkpt>
      <trkpt lat="44.81265" lon="6.97002">
        <ele>1874</ele>
        <time>2021-03-19T14:58:31Z</time>
      </trkpt>
      <trkpt lat="44.81266" lon="6.97002">
        <ele>1874</ele>
        <time>2021-03-19T14:58:32Z</time>
      </trkpt>
      <trkpt lat="44.81267" lon="6.97001">
        <ele>1873</ele>
        <time>2021-03-19T14:58:33Z</time>
      </trkpt>
      <trkpt lat="44.81268" lon="6.97001">
        <ele>1873</ele>
        <time>2021-03-19T14:58:34Z</time>
      </trkpt>
      <trkpt lat="44.81269" lon="6.97">
        <ele>1873</ele>
        <time>2021-03-19T14:58:35Z</time>
      </trkpt>
      <trkpt lat="44.81269" lon="6.97">
        <ele>1873</ele>
        <time>2021-03-19T14:58:36Z</time>
      </trkpt>
      <trkpt lat="44.8127" lon="6.97001">
        <ele>1873</ele>
        <time>2021-03-19T14:58:37Z</time>
      </trkpt>
      <trkpt lat="44.8127" lon="6.97001">
        <ele>1872</ele>
        <time>2021-03-19T14:58:38Z</time>
      </trkpt>
      <trkpt lat="44.8127" lon="6.97001">
        <ele>1872</ele>
        <time>2021-03-19T14:58:39Z</time>
      </trkpt>
      <trkpt lat="44.81271" lon="6.97002">
        <ele>1872</ele>
        <time>2021-03-19T14:58:59Z</time>
      </trkpt>
      <trkpt lat="44.81271" lon="6.97003">
        <ele>1872</ele>
        <time>2021-03-19T14:59:00Z</time>
      </trkpt>
      <trkpt lat="44.81272" lon="6.97004">
        <ele>1872</ele>
        <time>2021-03-19T14:59:01Z</time>
      </trkpt>
      <trkpt lat="44.81272" lon="6.97004">
        <ele>1872</ele>
        <time>2021-03-19T14:59:10Z</time>
      </trkpt>
      <trkpt lat="44.81271" lon="6.97004">
        <ele>1872</ele>
        <time>2021-03-19T14:59:11Z</time>
      </trkpt>
      <trkpt lat="44.8127" lon="6.97003">
        <ele>1872</ele>
        <time>2021-03-19T14:59:12Z</time>
      </trkpt>
      <trkpt lat="44.8127" lon="6.97003">
        <ele>1872</ele>
        <time>2021-03-19T14:59:13Z</time>
      </trkpt>
      <trkpt lat="44.81269" lon="6.97003">
        <ele>1872</ele>
        <time>2021-03-19T14:59:14Z</time>
      </trkpt>
      <trkpt lat="44.81268" lon="6.97003">
        <ele>1872</ele>
        <time>2021-03-19T14:59:15Z</time>
      </trkpt>
      <trkpt lat="44.81268" lon="6.97003">
        <ele>1872</ele>
        <time>2021-03-19T14:59:16Z</time>
      </trkpt>
      <trkpt lat="44.81267" lon="6.97003">
        <ele>1872</ele>
        <time>2021-03-19T14:59:17Z</time>
      </trkpt>
      <trkpt lat="44.81266" lon="6.97002">
        <ele>1872</ele>
        <time>2021-03-19T14:59:18Z</time>
      </trkpt>
      <trkpt lat="44.81265" lon="6.97002">
        <ele>1872</ele>
        <time>2021-03-19T14:59:19Z</time>
      </trkpt>
      <trkpt lat="44.81264" lon="6.97002">
        <ele>1872</ele>
        <time>2021-03-19T14:59:20Z</time>
      </trkpt>
      <trkpt lat="44.81263" lon="6.97002">
        <ele>1872</ele>
        <time>2021-03-19T14:59:21Z</time>
      </trkpt>
      <trkpt lat="44.81262" lon="6.97002">
        <ele>1872</ele>
        <time>2021-03-19T14:59:22Z</time>
      </trkpt>
      <trkpt lat="44.81262" lon="6.97002">
        <ele>1872</ele>
        <time>2021-03-19T14:59:23Z</time>
      </trkpt>
      <trkpt lat="44.81261" lon="6.97002">
        <ele>1872</ele>
        <time>2021-03-19T14:59:24Z</time>
      </trkpt>
      <trkpt lat="44.8126" lon="6.97002">
        <ele>1872</ele>
        <time>2021-03-19T14:59:25Z</time>
      </trkpt>
      <trkpt lat="44.8126" lon="6.97002">
        <ele>1872</ele>
        <time>2021-03-19T14:59:26Z</time>
      </trkpt>
      <trkpt lat="44.81259" lon="6.97002">
        <ele>1872</ele>
        <time>2021-03-19T14:59:27Z</time>
      </trkpt>
      <trkpt lat="44.81259" lon="6.97002">
        <ele>1871</ele>
        <time>2021-03-19T14:59:28Z</time>
      </trkpt>
      <trkpt lat="44.81258" lon="6.97001">
        <ele>1871</ele>
        <time>2021-03-19T14:59:29Z</time>
      </trkpt>
      <trkpt lat="44.81257" lon="6.97001">
        <ele>1871</ele>
        <time>2021-03-19T14:59:30Z</time>
      </trkpt>
      <trkpt lat="44.81256" lon="6.97">
        <ele>1871</ele>
        <time>2021-03-19T14:59:31Z</time>
      </trkpt>
      <trkpt lat="44.81256" lon="6.97">
        <ele>1871</ele>
        <time>2021-03-19T14:59:32Z</time>
      </trkpt>
      <trkpt lat="44.81256" lon="6.97">
        <ele>1871</ele>
        <time>2021-03-19T14:59:33Z</time>
      </trkpt>
      <trkpt lat="44.81255" lon="6.96999">
        <ele>1871</ele>
        <time>2021-03-19T14:59:34Z</time>
      </trkpt>
      <trkpt lat="44.81255" lon="6.96999">
        <ele>1871</ele>
        <time>2021-03-19T14:59:35Z</time>
      </trkpt>
      <trkpt lat="44.81254" lon="6.96999">
        <ele>1871</ele>
        <time>2021-03-19T14:59:36Z</time>
      </trkpt>
      <trkpt lat="44.81254" lon="6.96998">
        <ele>1871</ele>
        <time>2021-03-19T14:59:37Z</time>
      </trkpt>
      <trkpt lat="44.81253" lon="6.96998">
        <ele>1871</ele>
        <time>2021-03-19T14:59:38Z</time>
      </trkpt>
      <trkpt lat="44.81253" lon="6.96997">
        <ele>1871</ele>
        <time>2021-03-19T14:59:39Z</time>
      </trkpt>
      <trkpt lat="44.81252" lon="6.96996">
        <ele>1871</ele>
        <time>2021-03-19T14:59:40Z</time>
      </trkpt>
      <trkpt lat="44.81251" lon="6.96996">
        <ele>1871</ele>
        <time>2021-03-19T14:59:41Z</time>
      </trkpt>
      <trkpt lat="44.81251" lon="6.96995">
        <ele>1871</ele>
        <time>2021-03-19T14:59:42Z</time>
      </trkpt>
      <trkpt lat="44.8125" lon="6.96994">
        <ele>1871</ele>
        <time>2021-03-19T14:59:43Z</time>
      </trkpt>
      <trkpt lat="44.81249" lon="6.96994">
        <ele>1871</ele>
        <time>2021-03-19T14:59:44Z</time>
      </trkpt>
      <trkpt lat="44.81249" lon="6.96993">
        <ele>1871</ele>
        <time>2021-03-19T14:59:45Z</time>
      </trkpt>
      <trkpt lat="44.81249" lon="6.96993">
        <ele>1871</ele>
        <time>2021-03-19T14:59:46Z</time>
      </trkpt>
      <trkpt lat="44.81248" lon="6.96993">
        <ele>1871</ele>
        <time>2021-03-19T14:59:47Z</time>
      </trkpt>
      <trkpt lat="44.81248" lon="6.96993">
        <ele>1871</ele>
        <time>2021-03-19T14:59:48Z</time>
      </trkpt>
      <trkpt lat="44.81247" lon="6.96993">
        <ele>1871</ele>
        <time>2021-03-19T14:59:49Z</time>
      </trkpt>
      <trkpt lat="44.81247" lon="6.96993">
        <ele>1871</ele>
        <time>2021-03-19T14:59:50Z</time>
      </trkpt>
      <trkpt lat="44.81246" lon="6.96993">
        <ele>1871</ele>
        <time>2021-03-19T14:59:51Z</time>
      </trkpt>
      <trkpt lat="44.81246" lon="6.96994">
        <ele>1871</ele>
        <time>2021-03-19T14:59:52Z</time>
      </trkpt>
      <trkpt lat="44.81245" lon="6.96995">
        <ele>1871</ele>
        <time>2021-03-19T14:59:53Z</time>
      </trkpt>
      <trkpt lat="44.81244" lon="6.96995">
        <ele>1871</ele>
        <time>2021-03-19T14:59:54Z</time>
      </trkpt>
      <trkpt lat="44.81244" lon="6.96997">
        <ele>1871</ele>
        <time>2021-03-19T14:59:55Z</time>
      </trkpt>
      <trkpt lat="44.81243" lon="6.96998">
        <ele>1871</ele>
        <time>2021-03-19T14:59:56Z</time>
      </trkpt>
      <trkpt lat="44.81242" lon="6.96999">
        <ele>1871</ele>
        <time>2021-03-19T14:59:57Z</time>
      </trkpt>
      <trkpt lat="44.81242" lon="6.97">
        <ele>1871</ele>
        <time>2021-03-19T14:59:58Z</time>
      </trkpt>
      <trkpt lat="44.81242" lon="6.97002">
        <ele>1871</ele>
        <time>2021-03-19T14:59:59Z</time>
      </trkpt>
      <trkpt lat="44.81241" lon="6.97003">
        <ele>1871</ele>
        <time>2021-03-19T15:00:00Z</time>
      </trkpt>
      <trkpt lat="44.81241" lon="6.97004">
        <ele>1871</ele>
        <time>2021-03-19T15:00:01Z</time>
      </trkpt>
      <trkpt lat="44.81241" lon="6.97005">
        <ele>1871</ele>
        <time>2021-03-19T15:00:02Z</time>
      </trkpt>
      <trkpt lat="44.81241" lon="6.97006">
        <ele>1871</ele>
        <time>2021-03-19T15:00:03Z</time>
      </trkpt>
      <trkpt lat="44.81241" lon="6.97008">
        <ele>1871</ele>
        <time>2021-03-19T15:00:04Z</time>
      </trkpt>
      <trkpt lat="44.8124" lon="6.97008">
        <ele>1870</ele>
        <time>2021-03-19T15:00:17Z</time>
      </trkpt>
      <trkpt lat="44.8124" lon="6.97008">
        <ele>1870</ele>
        <time>2021-03-19T15:00:18Z</time>
      </trkpt>
      <trkpt lat="44.8124" lon="6.97009">
        <ele>1870</ele>
        <time>2021-03-19T15:00:19Z</time>
      </trkpt>
      <trkpt lat="44.81239" lon="6.97008">
        <ele>1870</ele>
        <time>2021-03-19T15:00:20Z</time>
      </trkpt>
      <trkpt lat="44.81239" lon="6.97007">
        <ele>1870</ele>
        <time>2021-03-19T15:00:21Z</time>
      </trkpt>
      <trkpt lat="44.81239" lon="6.97006">
        <ele>1870</ele>
        <time>2021-03-19T15:00:22Z</time>
      </trkpt>
      <trkpt lat="44.81239" lon="6.97005">
        <ele>1870</ele>
        <time>2021-03-19T15:00:23Z</time>
      </trkpt>
      <trkpt lat="44.81239" lon="6.97004">
        <ele>1870</ele>
        <time>2021-03-19T15:00:24Z</time>
      </trkpt>
      <trkpt lat="44.81239" lon="6.97002">
        <ele>1870</ele>
        <time>2021-03-19T15:00:25Z</time>
      </trkpt>
      <trkpt lat="44.81239" lon="6.97001">
        <ele>1870</ele>
        <time>2021-03-19T15:00:26Z</time>
      </trkpt>
      <trkpt lat="44.81239" lon="6.96999">
        <ele>1870</ele>
        <time>2021-03-19T15:00:27Z</time>
      </trkpt>
      <trkpt lat="44.8124" lon="6.96997">
        <ele>1870</ele>
        <time>2021-03-19T15:00:28Z</time>
      </trkpt>
      <trkpt lat="44.8124" lon="6.96996">
        <ele>1870</ele>
        <time>2021-03-19T15:00:29Z</time>
      </trkpt>
      <trkpt lat="44.8124" lon="6.96995">
        <ele>1870</ele>
        <time>2021-03-19T15:00:30Z</time>
      </trkpt>
      <trkpt lat="44.8124" lon="6.96994">
        <ele>1870</ele>
        <time>2021-03-19T15:00:31Z</time>
      </trkpt>
      <trkpt lat="44.8124" lon="6.96993">
        <ele>1870</ele>
        <time>2021-03-19T15:00:32Z</time>
      </trkpt>
      <trkpt lat="44.8124" lon="6.96991">
        <ele>1870</ele>
        <time>2021-03-19T15:00:33Z</time>
      </trkpt>
      <trkpt lat="44.8124" lon="6.9699">
        <ele>1870</ele>
        <time>2021-03-19T15:00:34Z</time>
      </trkpt>
      <trkpt lat="44.8124" lon="6.96989">
        <ele>1870</ele>
        <time>2021-03-19T15:00:35Z</time>
      </trkpt>
      <trkpt lat="44.81241" lon="6.96988">
        <ele>1870</ele>
        <time>2021-03-19T15:00:36Z</time>
      </trkpt>
      <trkpt lat="44.81241" lon="6.96987">
        <ele>1870</ele>
        <time>2021-03-19T15:00:37Z</time>
      </trkpt>
      <trkpt lat="44.81241" lon="6.96986">
        <ele>1870</ele>
        <time>2021-03-19T15:00:38Z</time>
      </trkpt>
      <trkpt lat="44.81241" lon="6.96985">
        <ele>1870</ele>
        <time>2021-03-19T15:00:39Z</time>
      </trkpt>
      <trkpt lat="44.81241" lon="6.96984">
        <ele>1870</ele>
        <time>2021-03-19T15:00:40Z</time>
      </trkpt>
      <trkpt lat="44.81241" lon="6.96984">
        <ele>1870</ele>
        <time>2021-03-19T15:00:41Z</time>
      </trkpt>
      <trkpt lat="44.81241" lon="6.96983">
        <ele>1870</ele>
        <time>2021-03-19T15:00:42Z</time>
      </trkpt>
      <trkpt lat="44.8124" lon="6.96982">
        <ele>1869</ele>
        <time>2021-03-19T15:00:43Z</time>
      </trkpt>
      <trkpt lat="44.8124" lon="6.96981">
        <ele>1869</ele>
        <time>2021-03-19T15:00:44Z</time>
      </trkpt>
      <trkpt lat="44.8124" lon="6.9698">
        <ele>1869</ele>
        <time>2021-03-19T15:00:45Z</time>
      </trkpt>
      <trkpt lat="44.8124" lon="6.96979">
        <ele>1869</ele>
        <time>2021-03-19T15:00:46Z</time>
      </trkpt>
      <trkpt lat="44.8124" lon="6.96978">
        <ele>1869</ele>
        <time>2021-03-19T15:00:47Z</time>
      </trkpt>
      <trkpt lat="44.8124" lon="6.96977">
        <ele>1869</ele>
        <time>2021-03-19T15:00:48Z</time>
      </trkpt>
      <trkpt lat="44.8124" lon="6.96975">
        <ele>1869</ele>
        <time>2021-03-19T15:00:49Z</time>
      </trkpt>
      <trkpt lat="44.81239" lon="6.96974">
        <ele>1869</ele>
        <time>2021-03-19T15:00:50Z</time>
      </trkpt>
      <trkpt lat="44.81239" lon="6.96973">
        <ele>1869</ele>
        <time>2021-03-19T15:00:51Z</time>
      </trkpt>
      <trkpt lat="44.81239" lon="6.96971">
        <ele>1869</ele>
        <time>2021-03-19T15:00:52Z</time>
      </trkpt>
      <trkpt lat="44.8124" lon="6.9697">
        <ele>1869</ele>
        <time>2021-03-19T15:00:53Z</time>
      </trkpt>
      <trkpt lat="44.8124" lon="6.96969">
        <ele>1869</ele>
        <time>2021-03-19T15:00:54Z</time>
      </trkpt>
      <trkpt lat="44.8124" lon="6.96969">
        <ele>1869</ele>
        <time>2021-03-19T15:00:55Z</time>
      </trkpt>
      <trkpt lat="44.8124" lon="6.96968">
        <ele>1869</ele>
        <time>2021-03-19T15:00:56Z</time>
      </trkpt>
      <trkpt lat="44.8124" lon="6.96968">
        <ele>1869</ele>
        <time>2021-03-19T15:00:57Z</time>
      </trkpt>
      <trkpt lat="44.81241" lon="6.96967">
        <ele>1869</ele>
        <time>2021-03-19T15:00:58Z</time>
      </trkpt>
      <trkpt lat="44.81241" lon="6.96967">
        <ele>1869</ele>
        <time>2021-03-19T15:00:59Z</time>
      </trkpt>
      <trkpt lat="44.81241" lon="6.96967">
        <ele>1869</ele>
        <time>2021-03-19T15:01:00Z</time>
      </trkpt>
      <trkpt lat="44.81241" lon="6.96967">
        <ele>1869</ele>
        <time>2021-03-19T15:01:01Z</time>
      </trkpt>
      <trkpt lat="44.81241" lon="6.96967">
        <ele>1869</ele>
        <time>2021-03-19T15:01:02Z</time>
      </trkpt>
      <trkpt lat="44.81241" lon="6.96967">
        <ele>1869</ele>
        <time>2021-03-19T15:01:03Z</time>
      </trkpt>
      <trkpt lat="44.81242" lon="6.96967">
        <ele>1869</ele>
        <time>2021-03-19T15:01:04Z</time>
      </trkpt>
      <trkpt lat="44.81242" lon="6.96968">
        <ele>1869</ele>
        <time>2021-03-19T15:01:05Z</time>
      </trkpt>
      <trkpt lat="44.81242" lon="6.96968">
        <ele>1869</ele>
        <time>2021-03-19T15:01:06Z</time>
      </trkpt>
      <trkpt lat="44.81242" lon="6.96968">
        <ele>1869</ele>
        <time>2021-03-19T15:01:07Z</time>
      </trkpt>
      <trkpt lat="44.81242" lon="6.96969">
        <ele>1869</ele>
        <time>2021-03-19T15:01:08Z</time>
      </trkpt>
      <trkpt lat="44.81243" lon="6.96969">
        <ele>1869</ele>
        <time>2021-03-19T15:01:09Z</time>
      </trkpt>
      <trkpt lat="44.81243" lon="6.9697">
        <ele>1869</ele>
        <time>2021-03-19T15:01:10Z</time>
      </trkpt>
      <trkpt lat="44.81244" lon="6.96971">
        <ele>1869</ele>
        <time>2021-03-19T15:01:11Z</time>
      </trkpt>
      <trkpt lat="44.81244" lon="6.96972">
        <ele>1869</ele>
        <time>2021-03-19T15:01:12Z</time>
      </trkpt>
      <trkpt lat="44.81244" lon="6.96972">
        <ele>1869</ele>
        <time>2021-03-19T15:01:13Z</time>
      </trkpt>
      <trkpt lat="44.81245" lon="6.96973">
        <ele>1869</ele>
        <time>2021-03-19T15:01:14Z</time>
      </trkpt>
      <trkpt lat="44.81245" lon="6.96973">
        <ele>1869</ele>
        <time>2021-03-19T15:01:15Z</time>
      </trkpt>
      <trkpt lat="44.81246" lon="6.96974">
        <ele>1869</ele>
        <time>2021-03-19T15:01:16Z</time>
      </trkpt>
      <trkpt lat="44.81247" lon="6.96975">
        <ele>1869</ele>
        <time>2021-03-19T15:01:17Z</time>
      </trkpt>
      <trkpt lat="44.81248" lon="6.96976">
        <ele>1869</ele>
        <time>2021-03-19T15:01:18Z</time>
      </trkpt>
      <trkpt lat="44.81249" lon="6.96977">
        <ele>1869</ele>
        <time>2021-03-19T15:01:19Z</time>
      </trkpt>
      <trkpt lat="44.81249" lon="6.96977">
        <ele>1869</ele>
        <time>2021-03-19T15:01:20Z</time>
      </trkpt>
      <trkpt lat="44.8125" lon="6.96977">
        <ele>1869</ele>
        <time>2021-03-19T15:01:21Z</time>
      </trkpt>
      <trkpt lat="44.81251" lon="6.96977">
        <ele>1869</ele>
        <time>2021-03-19T15:01:22Z</time>
      </trkpt>
      <trkpt lat="44.81252" lon="6.96978">
        <ele>1869</ele>
        <time>2021-03-19T15:01:23Z</time>
      </trkpt>
      <trkpt lat="44.81252" lon="6.96978">
        <ele>1869</ele>
        <time>2021-03-19T15:01:24Z</time>
      </trkpt>
      <trkpt lat="44.81252" lon="6.96978">
        <ele>1869</ele>
        <time>2021-03-19T15:01:25Z</time>
      </trkpt>
      <trkpt lat="44.81252" lon="6.96978">
        <ele>1869</ele>
        <time>2021-03-19T15:01:26Z</time>
      </trkpt>
      <trkpt lat="44.81252" lon="6.96978">
        <ele>1869</ele>
        <time>2021-03-19T15:01:27Z</time>
      </trkpt>
      <trkpt lat="44.81252" lon="6.96978">
        <ele>1869</ele>
        <time>2021-03-19T15:01:28Z</time>
      </trkpt>
      <trkpt lat="44.81252" lon="6.96978">
        <ele>1869</ele>
        <time>2021-03-19T15:01:29Z</time>
      </trkpt>
      <trkpt lat="44.81252" lon="6.96978">
        <ele>1869</ele>
        <time>2021-03-19T15:01:30Z</time>
      </trkpt>
      <trkpt lat="44.81251" lon="6.96978">
        <ele>1869</ele>
        <time>2021-03-19T15:01:31Z</time>
      </trkpt>
      <trkpt lat="44.8125" lon="6.96978">
        <ele>1869</ele>
        <time>2021-03-19T15:01:38Z</time>
      </trkpt>
      <trkpt lat="44.8125" lon="6.96978">
        <ele>1869</ele>
        <time>2021-03-19T15:01:39Z</time>
      </trkpt>
      <trkpt lat="44.8125" lon="6.96978">
        <ele>1869</ele>
        <time>2021-03-19T15:01:40Z</time>
      </trkpt>
      <trkpt lat="44.81249" lon="6.96978">
        <ele>1869</ele>
        <time>2021-03-19T15:01:41Z</time>
      </trkpt>
      <trkpt lat="44.81249" lon="6.96979">
        <ele>1869</ele>
        <time>2021-03-19T15:01:42Z</time>
      </trkpt>
      <trkpt lat="44.81249" lon="6.96979">
        <ele>1869</ele>
        <time>2021-03-19T15:01:43Z</time>
      </trkpt>
      <trkpt lat="44.81248" lon="6.96979">
        <ele>1869</ele>
        <time>2021-03-19T15:01:44Z</time>
      </trkpt>
      <trkpt lat="44.81247" lon="6.9698">
        <ele>1869</ele>
        <time>2021-03-19T15:01:45Z</time>
      </trkpt>
      <trkpt lat="44.81246" lon="6.9698">
        <ele>1869</ele>
        <time>2021-03-19T15:01:46Z</time>
      </trkpt>
      <trkpt lat="44.81245" lon="6.9698">
        <ele>1869</ele>
        <time>2021-03-19T15:01:47Z</time>
      </trkpt>
      <trkpt lat="44.81244" lon="6.9698">
        <ele>1869</ele>
        <time>2021-03-19T15:01:48Z</time>
      </trkpt>
      <trkpt lat="44.81243" lon="6.9698">
        <ele>1869</ele>
        <time>2021-03-19T15:01:49Z</time>
      </trkpt>
      <trkpt lat="44.81241" lon="6.96979">
        <ele>1869</ele>
        <time>2021-03-19T15:01:50Z</time>
      </trkpt>
      <trkpt lat="44.81239" lon="6.96978">
        <ele>1869</ele>
        <time>2021-03-19T15:01:51Z</time>
      </trkpt>
      <trkpt lat="44.81238" lon="6.96977">
        <ele>1869</ele>
        <time>2021-03-19T15:01:52Z</time>
      </trkpt>
      <trkpt lat="44.81236" lon="6.96975">
        <ele>1869</ele>
        <time>2021-03-19T15:01:53Z</time>
      </trkpt>
      <trkpt lat="44.81234" lon="6.96974">
        <ele>1869</ele>
        <time>2021-03-19T15:01:54Z</time>
      </trkpt>
      <trkpt lat="44.81233" lon="6.96973">
        <ele>1869</ele>
        <time>2021-03-19T15:01:55Z</time>
      </trkpt>
      <trkpt lat="44.81232" lon="6.96971">
        <ele>1869</ele>
        <time>2021-03-19T15:01:56Z</time>
      </trkpt>
      <trkpt lat="44.81231" lon="6.9697">
        <ele>1869</ele>
        <time>2021-03-19T15:01:57Z</time>
      </trkpt>
      <trkpt lat="44.8123" lon="6.96969">
        <ele>1868</ele>
        <time>2021-03-19T15:01:58Z</time>
      </trkpt>
      <trkpt lat="44.81229" lon="6.96968">
        <ele>1868</ele>
        <time>2021-03-19T15:01:59Z</time>
      </trkpt>
      <trkpt lat="44.81228" lon="6.96967">
        <ele>1868</ele>
        <time>2021-03-19T15:02:00Z</time>
      </trkpt>
      <trkpt lat="44.81227" lon="6.96966">
        <ele>1868</ele>
        <time>2021-03-19T15:02:01Z</time>
      </trkpt>
      <trkpt lat="44.81227" lon="6.96966">
        <ele>1868</ele>
        <time>2021-03-19T15:02:02Z</time>
      </trkpt>
      <trkpt lat="44.81226" lon="6.96965">
        <ele>1868</ele>
        <time>2021-03-19T15:02:03Z</time>
      </trkpt>
      <trkpt lat="44.81225" lon="6.96964">
        <ele>1868</ele>
        <time>2021-03-19T15:02:04Z</time>
      </trkpt>
      <trkpt lat="44.81224" lon="6.96964">
        <ele>1868</ele>
        <time>2021-03-19T15:02:05Z</time>
      </trkpt>
      <trkpt lat="44.81224" lon="6.96964">
        <ele>1868</ele>
        <time>2021-03-19T15:02:06Z</time>
      </trkpt>
      <trkpt lat="44.81223" lon="6.96963">
        <ele>1868</ele>
        <time>2021-03-19T15:02:07Z</time>
      </trkpt>
      <trkpt lat="44.81222" lon="6.96963">
        <ele>1868</ele>
        <time>2021-03-19T15:02:08Z</time>
      </trkpt>
      <trkpt lat="44.81221" lon="6.96962">
        <ele>1868</ele>
        <time>2021-03-19T15:02:09Z</time>
      </trkpt>
      <trkpt lat="44.8122" lon="6.96961">
        <ele>1868</ele>
        <time>2021-03-19T15:02:10Z</time>
      </trkpt>
      <trkpt lat="44.81219" lon="6.9696">
        <ele>1868</ele>
        <time>2021-03-19T15:02:11Z</time>
      </trkpt>
      <trkpt lat="44.81219" lon="6.96959">
        <ele>1868</ele>
        <time>2021-03-19T15:02:12Z</time>
      </trkpt>
      <trkpt lat="44.81218" lon="6.96958">
        <ele>1868</ele>
        <time>2021-03-19T15:02:13Z</time>
      </trkpt>
      <trkpt lat="44.81217" lon="6.96957">
        <ele>1868</ele>
        <time>2021-03-19T15:02:14Z</time>
      </trkpt>
      <trkpt lat="44.81217" lon="6.96957">
        <ele>1868</ele>
        <time>2021-03-19T15:02:37Z</time>
      </trkpt>
      <trkpt lat="44.81217" lon="6.96956">
        <ele>1868</ele>
        <time>2021-03-19T15:02:38Z</time>
      </trkpt>
      <trkpt lat="44.81216" lon="6.96956">
        <ele>1868</ele>
        <time>2021-03-19T15:02:39Z</time>
      </trkpt>
      <trkpt lat="44.81216" lon="6.96955">
        <ele>1868</ele>
        <time>2021-03-19T15:02:40Z</time>
      </trkpt>
      <trkpt lat="44.81215" lon="6.96955">
        <ele>1868</ele>
        <time>2021-03-19T15:02:41Z</time>
      </trkpt>
      <trkpt lat="44.81215" lon="6.96954">
        <ele>1868</ele>
        <time>2021-03-19T15:02:42Z</time>
      </trkpt>
      <trkpt lat="44.81214" lon="6.96953">
        <ele>1868</ele>
        <time>2021-03-19T15:02:43Z</time>
      </trkpt>
      <trkpt lat="44.81213" lon="6.96952">
        <ele>1868</ele>
        <time>2021-03-19T15:02:44Z</time>
      </trkpt>
      <trkpt lat="44.81212" lon="6.96951">
        <ele>1868</ele>
        <time>2021-03-19T15:02:45Z</time>
      </trkpt>
      <trkpt lat="44.81212" lon="6.9695">
        <ele>1868</ele>
        <time>2021-03-19T15:02:46Z</time>
      </trkpt>
      <trkpt lat="44.81211" lon="6.96949">
        <ele>1868</ele>
        <time>2021-03-19T15:02:47Z</time>
      </trkpt>
      <trkpt lat="44.8121" lon="6.96948">
        <ele>1868</ele>
        <time>2021-03-19T15:02:48Z</time>
      </trkpt>
      <trkpt lat="44.8121" lon="6.96947">
        <ele>1868</ele>
        <time>2021-03-19T15:02:49Z</time>
      </trkpt>
      <trkpt lat="44.8121" lon="6.96946">
        <ele>1868</ele>
        <time>2021-03-19T15:02:50Z</time>
      </trkpt>
      <trkpt lat="44.81209" lon="6.96945">
        <ele>1868</ele>
        <time>2021-03-19T15:02:51Z</time>
      </trkpt>
      <trkpt lat="44.81209" lon="6.96944">
        <ele>1868</ele>
        <time>2021-03-19T15:02:52Z</time>
      </trkpt>
      <trkpt lat="44.81208" lon="6.96943">
        <ele>1868</ele>
        <time>2021-03-19T15:02:53Z</time>
      </trkpt>
      <trkpt lat="44.81208" lon="6.96942">
        <ele>1868</ele>
        <time>2021-03-19T15:02:54Z</time>
      </trkpt>
      <trkpt lat="44.81207" lon="6.96941">
        <ele>1868</ele>
        <time>2021-03-19T15:02:55Z</time>
      </trkpt>
      <trkpt lat="44.81207" lon="6.9694">
        <ele>1868</ele>
        <time>2021-03-19T15:02:56Z</time>
      </trkpt>
      <trkpt lat="44.81206" lon="6.96939">
        <ele>1868</ele>
        <time>2021-03-19T15:02:57Z</time>
      </trkpt>
      <trkpt lat="44.81206" lon="6.96938">
        <ele>1868</ele>
        <time>2021-03-19T15:02:58Z</time>
      </trkpt>
      <trkpt lat="44.81205" lon="6.96936">
        <ele>1868</ele>
        <time>2021-03-19T15:02:59Z</time>
      </trkpt>
      <trkpt lat="44.81205" lon="6.96935">
        <ele>1868</ele>
        <time>2021-03-19T15:03:00Z</time>
      </trkpt>
      <trkpt lat="44.81204" lon="6.96934">
        <ele>1868</ele>
        <time>2021-03-19T15:03:01Z</time>
      </trkpt>
      <trkpt lat="44.81204" lon="6.96933">
        <ele>1868</ele>
        <time>2021-03-19T15:03:02Z</time>
      </trkpt>
      <trkpt lat="44.81204" lon="6.96932">
        <ele>1868</ele>
        <time>2021-03-19T15:03:03Z</time>
      </trkpt>
      <trkpt lat="44.81203" lon="6.96931">
        <ele>1868</ele>
        <time>2021-03-19T15:03:04Z</time>
      </trkpt>
      <trkpt lat="44.81203" lon="6.9693">
        <ele>1868</ele>
        <time>2021-03-19T15:03:05Z</time>
      </trkpt>
      <trkpt lat="44.81202" lon="6.96928">
        <ele>1868</ele>
        <time>2021-03-19T15:03:06Z</time>
      </trkpt>
      <trkpt lat="44.81202" lon="6.96927">
        <ele>1868</ele>
        <time>2021-03-19T15:03:07Z</time>
      </trkpt>
      <trkpt lat="44.81201" lon="6.96926">
        <ele>1867</ele>
        <time>2021-03-19T15:03:08Z</time>
      </trkpt>
      <trkpt lat="44.812" lon="6.96924">
        <ele>1867</ele>
        <time>2021-03-19T15:03:09Z</time>
      </trkpt>
      <trkpt lat="44.812" lon="6.96922">
        <ele>1867</ele>
        <time>2021-03-19T15:03:10Z</time>
      </trkpt>
      <trkpt lat="44.812" lon="6.9692">
        <ele>1867</ele>
        <time>2021-03-19T15:03:11Z</time>
      </trkpt>
      <trkpt lat="44.81199" lon="6.96918">
        <ele>1867</ele>
        <time>2021-03-19T15:03:12Z</time>
      </trkpt>
      <trkpt lat="44.81199" lon="6.96916">
        <ele>1867</ele>
        <time>2021-03-19T15:03:13Z</time>
      </trkpt>
      <trkpt lat="44.81199" lon="6.96914">
        <ele>1867</ele>
        <time>2021-03-19T15:03:14Z</time>
      </trkpt>
      <trkpt lat="44.81199" lon="6.96913">
        <ele>1867</ele>
        <time>2021-03-19T15:03:15Z</time>
      </trkpt>
      <trkpt lat="44.81199" lon="6.96911">
        <ele>1867</ele>
        <time>2021-03-19T15:03:16Z</time>
      </trkpt>
      <trkpt lat="44.81199" lon="6.96909">
        <ele>1867</ele>
        <time>2021-03-19T15:03:17Z</time>
      </trkpt>
      <trkpt lat="44.81199" lon="6.96908">
        <ele>1866</ele>
        <time>2021-03-19T15:03:18Z</time>
      </trkpt>
      <trkpt lat="44.81199" lon="6.96907">
        <ele>1866</ele>
        <time>2021-03-19T15:03:19Z</time>
      </trkpt>
      <trkpt lat="44.81199" lon="6.96906">
        <ele>1866</ele>
        <time>2021-03-19T15:03:20Z</time>
      </trkpt>
      <trkpt lat="44.81199" lon="6.96904">
        <ele>1866</ele>
        <time>2021-03-19T15:03:21Z</time>
      </trkpt>
      <trkpt lat="44.81199" lon="6.96903">
        <ele>1866</ele>
        <time>2021-03-19T15:03:22Z</time>
      </trkpt>
      <trkpt lat="44.81199" lon="6.96902">
        <ele>1866</ele>
        <time>2021-03-19T15:03:23Z</time>
      </trkpt>
      <trkpt lat="44.81199" lon="6.96901">
        <ele>1866</ele>
        <time>2021-03-19T15:03:24Z</time>
      </trkpt>
      <trkpt lat="44.81199" lon="6.969">
        <ele>1866</ele>
        <time>2021-03-19T15:03:25Z</time>
      </trkpt>
      <trkpt lat="44.81199" lon="6.96898">
        <ele>1866</ele>
        <time>2021-03-19T15:03:26Z</time>
      </trkpt>
      <trkpt lat="44.81198" lon="6.96897">
        <ele>1866</ele>
        <time>2021-03-19T15:03:27Z</time>
      </trkpt>
      <trkpt lat="44.81198" lon="6.96896">
        <ele>1866</ele>
        <time>2021-03-19T15:03:28Z</time>
      </trkpt>
      <trkpt lat="44.81198" lon="6.96894">
        <ele>1866</ele>
        <time>2021-03-19T15:03:29Z</time>
      </trkpt>
      <trkpt lat="44.81198" lon="6.96893">
        <ele>1866</ele>
        <time>2021-03-19T15:03:30Z</time>
      </trkpt>
      <trkpt lat="44.81198" lon="6.96891">
        <ele>1866</ele>
        <time>2021-03-19T15:03:31Z</time>
      </trkpt>
      <trkpt lat="44.81198" lon="6.9689">
        <ele>1866</ele>
        <time>2021-03-19T15:03:32Z</time>
      </trkpt>
      <trkpt lat="44.81198" lon="6.96888">
        <ele>1865</ele>
        <time>2021-03-19T15:03:33Z</time>
      </trkpt>
      <trkpt lat="44.81198" lon="6.96887">
        <ele>1865</ele>
        <time>2021-03-19T15:03:34Z</time>
      </trkpt>
      <trkpt lat="44.81198" lon="6.96885">
        <ele>1865</ele>
        <time>2021-03-19T15:03:35Z</time>
      </trkpt>
      <trkpt lat="44.81198" lon="6.96884">
        <ele>1865</ele>
        <time>2021-03-19T15:03:36Z</time>
      </trkpt>
      <trkpt lat="44.81198" lon="6.96882">
        <ele>1865</ele>
        <time>2021-03-19T15:03:37Z</time>
      </trkpt>
      <trkpt lat="44.81198" lon="6.96881">
        <ele>1865</ele>
        <time>2021-03-19T15:03:38Z</time>
      </trkpt>
      <trkpt lat="44.81198" lon="6.96879">
        <ele>1865</ele>
        <time>2021-03-19T15:03:39Z</time>
      </trkpt>
      <trkpt lat="44.81198" lon="6.96878">
        <ele>1865</ele>
        <time>2021-03-19T15:03:40Z</time>
      </trkpt>
      <trkpt lat="44.81198" lon="6.96876">
        <ele>1865</ele>
        <time>2021-03-19T15:03:41Z</time>
      </trkpt>
      <trkpt lat="44.81198" lon="6.96875">
        <ele>1865</ele>
        <time>2021-03-19T15:03:42Z</time>
      </trkpt>
      <trkpt lat="44.81198" lon="6.96874">
        <ele>1864</ele>
        <time>2021-03-19T15:03:43Z</time>
      </trkpt>
      <trkpt lat="44.81198" lon="6.96872">
        <ele>1864</ele>
        <time>2021-03-19T15:03:44Z</time>
      </trkpt>
      <trkpt lat="44.81198" lon="6.96871">
        <ele>1864</ele>
        <time>2021-03-19T15:03:45Z</time>
      </trkpt>
      <trkpt lat="44.81198" lon="6.96869">
        <ele>1864</ele>
        <time>2021-03-19T15:03:46Z</time>
      </trkpt>
      <trkpt lat="44.81198" lon="6.96868">
        <ele>1864</ele>
        <time>2021-03-19T15:03:47Z</time>
      </trkpt>
      <trkpt lat="44.81198" lon="6.96867">
        <ele>1864</ele>
        <time>2021-03-19T15:03:48Z</time>
      </trkpt>
      <trkpt lat="44.81198" lon="6.96865">
        <ele>1864</ele>
        <time>2021-03-19T15:03:49Z</time>
      </trkpt>
      <trkpt lat="44.81198" lon="6.96864">
        <ele>1864</ele>
        <time>2021-03-19T15:03:50Z</time>
      </trkpt>
      <trkpt lat="44.81199" lon="6.96863">
        <ele>1864</ele>
        <time>2021-03-19T15:03:51Z</time>
      </trkpt>
      <trkpt lat="44.81199" lon="6.96862">
        <ele>1864</ele>
        <time>2021-03-19T15:03:52Z</time>
      </trkpt>
      <trkpt lat="44.81199" lon="6.96861">
        <ele>1864</ele>
        <time>2021-03-19T15:03:53Z</time>
      </trkpt>
      <trkpt lat="44.81199" lon="6.9686">
        <ele>1864</ele>
        <time>2021-03-19T15:03:54Z</time>
      </trkpt>
      <trkpt lat="44.81199" lon="6.96858">
        <ele>1864</ele>
        <time>2021-03-19T15:03:55Z</time>
      </trkpt>
      <trkpt lat="44.812" lon="6.96857">
        <ele>1864</ele>
        <time>2021-03-19T15:03:56Z</time>
      </trkpt>
      <trkpt lat="44.812" lon="6.96856">
        <ele>1864</ele>
        <time>2021-03-19T15:03:57Z</time>
      </trkpt>
      <trkpt lat="44.812" lon="6.96854">
        <ele>1863</ele>
        <time>2021-03-19T15:03:58Z</time>
      </trkpt>
      <trkpt lat="44.812" lon="6.96853">
        <ele>1863</ele>
        <time>2021-03-19T15:03:59Z</time>
      </trkpt>
      <trkpt lat="44.812" lon="6.96852">
        <ele>1863</ele>
        <time>2021-03-19T15:04:00Z</time>
      </trkpt>
      <trkpt lat="44.812" lon="6.9685">
        <ele>1863</ele>
        <time>2021-03-19T15:04:01Z</time>
      </trkpt>
      <trkpt lat="44.812" lon="6.96849">
        <ele>1863</ele>
        <time>2021-03-19T15:04:02Z</time>
      </trkpt>
      <trkpt lat="44.812" lon="6.96847">
        <ele>1863</ele>
        <time>2021-03-19T15:04:03Z</time>
      </trkpt>
      <trkpt lat="44.812" lon="6.96846">
        <ele>1863</ele>
        <time>2021-03-19T15:04:04Z</time>
      </trkpt>
      <trkpt lat="44.81201" lon="6.96845">
        <ele>1863</ele>
        <time>2021-03-19T15:04:05Z</time>
      </trkpt>
      <trkpt lat="44.81201" lon="6.96843">
        <ele>1863</ele>
        <time>2021-03-19T15:04:06Z</time>
      </trkpt>
      <trkpt lat="44.81201" lon="6.96842">
        <ele>1863</ele>
        <time>2021-03-19T15:04:07Z</time>
      </trkpt>
      <trkpt lat="44.81201" lon="6.96842">
        <ele>1863</ele>
        <time>2021-03-19T15:04:08Z</time>
      </trkpt>
      <trkpt lat="44.81201" lon="6.96842">
        <ele>1863</ele>
        <time>2021-03-19T15:04:09Z</time>
      </trkpt>
      <trkpt lat="44.81201" lon="6.96841">
        <ele>1863</ele>
        <time>2021-03-19T15:04:10Z</time>
      </trkpt>
      <trkpt lat="44.81201" lon="6.96841">
        <ele>1863</ele>
        <time>2021-03-19T15:04:11Z</time>
      </trkpt>
      <trkpt lat="44.81201" lon="6.96841">
        <ele>1863</ele>
        <time>2021-03-19T15:04:12Z</time>
      </trkpt>
      <trkpt lat="44.81202" lon="6.9684">
        <ele>1862</ele>
        <time>2021-03-19T15:04:13Z</time>
      </trkpt>
      <trkpt lat="44.81202" lon="6.9684">
        <ele>1862</ele>
        <time>2021-03-19T15:04:14Z</time>
      </trkpt>
      <trkpt lat="44.81202" lon="6.96839">
        <ele>1862</ele>
        <time>2021-03-19T15:04:15Z</time>
      </trkpt>
      <trkpt lat="44.81202" lon="6.96838">
        <ele>1862</ele>
        <time>2021-03-19T15:04:16Z</time>
      </trkpt>
      <trkpt lat="44.81202" lon="6.96837">
        <ele>1862</ele>
        <time>2021-03-19T15:04:17Z</time>
      </trkpt>
      <trkpt lat="44.81202" lon="6.96836">
        <ele>1862</ele>
        <time>2021-03-19T15:04:18Z</time>
      </trkpt>
      <trkpt lat="44.81202" lon="6.96835">
        <ele>1862</ele>
        <time>2021-03-19T15:04:19Z</time>
      </trkpt>
      <trkpt lat="44.81203" lon="6.96833">
        <ele>1862</ele>
        <time>2021-03-19T15:04:20Z</time>
      </trkpt>
      <trkpt lat="44.81202" lon="6.96832">
        <ele>1862</ele>
        <time>2021-03-19T15:04:21Z</time>
      </trkpt>
      <trkpt lat="44.81202" lon="6.9683">
        <ele>1862</ele>
        <time>2021-03-19T15:04:22Z</time>
      </trkpt>
      <trkpt lat="44.81202" lon="6.96828">
        <ele>1862</ele>
        <time>2021-03-19T15:04:23Z</time>
      </trkpt>
      <trkpt lat="44.81203" lon="6.96827">
        <ele>1862</ele>
        <time>2021-03-19T15:04:24Z</time>
      </trkpt>
      <trkpt lat="44.81203" lon="6.96825">
        <ele>1862</ele>
        <time>2021-03-19T15:04:25Z</time>
      </trkpt>
      <trkpt lat="44.81203" lon="6.96824">
        <ele>1862</ele>
        <time>2021-03-19T15:04:26Z</time>
      </trkpt>
      <trkpt lat="44.81203" lon="6.96822">
        <ele>1862</ele>
        <time>2021-03-19T15:04:27Z</time>
      </trkpt>
      <trkpt lat="44.81203" lon="6.96821">
        <ele>1861</ele>
        <time>2021-03-19T15:04:28Z</time>
      </trkpt>
      <trkpt lat="44.81203" lon="6.96819">
        <ele>1861</ele>
        <time>2021-03-19T15:04:29Z</time>
      </trkpt>
      <trkpt lat="44.81203" lon="6.96818">
        <ele>1861</ele>
        <time>2021-03-19T15:04:30Z</time>
      </trkpt>
      <trkpt lat="44.81203" lon="6.96816">
        <ele>1861</ele>
        <time>2021-03-19T15:04:31Z</time>
      </trkpt>
      <trkpt lat="44.81203" lon="6.96815">
        <ele>1861</ele>
        <time>2021-03-19T15:04:32Z</time>
      </trkpt>
      <trkpt lat="44.81203" lon="6.96813">
        <ele>1861</ele>
        <time>2021-03-19T15:04:33Z</time>
      </trkpt>
      <trkpt lat="44.81203" lon="6.96812">
        <ele>1861</ele>
        <time>2021-03-19T15:04:34Z</time>
      </trkpt>
      <trkpt lat="44.81203" lon="6.96811">
        <ele>1861</ele>
        <time>2021-03-19T15:04:35Z</time>
      </trkpt>
      <trkpt lat="44.81204" lon="6.96809">
        <ele>1861</ele>
        <time>2021-03-19T15:04:36Z</time>
      </trkpt>
      <trkpt lat="44.81204" lon="6.96808">
        <ele>1861</ele>
        <time>2021-03-19T15:04:37Z</time>
      </trkpt>
      <trkpt lat="44.81204" lon="6.96807">
        <ele>1860</ele>
        <time>2021-03-19T15:04:38Z</time>
      </trkpt>
      <trkpt lat="44.81204" lon="6.96805">
        <ele>1860</ele>
        <time>2021-03-19T15:04:39Z</time>
      </trkpt>
      <trkpt lat="44.81204" lon="6.96804">
        <ele>1860</ele>
        <time>2021-03-19T15:04:40Z</time>
      </trkpt>
      <trkpt lat="44.81204" lon="6.96802">
        <ele>1860</ele>
        <time>2021-03-19T15:04:41Z</time>
      </trkpt>
      <trkpt lat="44.81204" lon="6.96801">
        <ele>1860</ele>
        <time>2021-03-19T15:04:42Z</time>
      </trkpt>
      <trkpt lat="44.81204" lon="6.96799">
        <ele>1860</ele>
        <time>2021-03-19T15:04:43Z</time>
      </trkpt>
      <trkpt lat="44.81204" lon="6.96798">
        <ele>1860</ele>
        <time>2021-03-19T15:04:44Z</time>
      </trkpt>
      <trkpt lat="44.81204" lon="6.96797">
        <ele>1860</ele>
        <time>2021-03-19T15:04:45Z</time>
      </trkpt>
      <trkpt lat="44.81204" lon="6.96795">
        <ele>1860</ele>
        <time>2021-03-19T15:04:46Z</time>
      </trkpt>
      <trkpt lat="44.81204" lon="6.96794">
        <ele>1860</ele>
        <time>2021-03-19T15:04:47Z</time>
      </trkpt>
      <trkpt lat="44.81204" lon="6.96793">
        <ele>1860</ele>
        <time>2021-03-19T15:04:48Z</time>
      </trkpt>
      <trkpt lat="44.81204" lon="6.96793">
        <ele>1860</ele>
        <time>2021-03-19T15:04:49Z</time>
      </trkpt>
      <trkpt lat="44.81205" lon="6.96793">
        <ele>1860</ele>
        <time>2021-03-19T15:04:50Z</time>
      </trkpt>
      <trkpt lat="44.81205" lon="6.96793">
        <ele>1860</ele>
        <time>2021-03-19T15:04:51Z</time>
      </trkpt>
      <trkpt lat="44.81205" lon="6.96792">
        <ele>1860</ele>
        <time>2021-03-19T15:04:52Z</time>
      </trkpt>
      <trkpt lat="44.81205" lon="6.96791">
        <ele>1860</ele>
        <time>2021-03-19T15:04:53Z</time>
      </trkpt>
      <trkpt lat="44.81205" lon="6.9679">
        <ele>1860</ele>
        <time>2021-03-19T15:04:54Z</time>
      </trkpt>
      <trkpt lat="44.81205" lon="6.96789">
        <ele>1860</ele>
        <time>2021-03-19T15:04:55Z</time>
      </trkpt>
      <trkpt lat="44.81204" lon="6.96788">
        <ele>1860</ele>
        <time>2021-03-19T15:04:56Z</time>
      </trkpt>
      <trkpt lat="44.81204" lon="6.96787">
        <ele>1860</ele>
        <time>2021-03-19T15:04:57Z</time>
      </trkpt>
      <trkpt lat="44.81204" lon="6.96785">
        <ele>1860</ele>
        <time>2021-03-19T15:04:58Z</time>
      </trkpt>
      <trkpt lat="44.81204" lon="6.96784">
        <ele>1860</ele>
        <time>2021-03-19T15:04:59Z</time>
      </trkpt>
      <trkpt lat="44.81204" lon="6.96782">
        <ele>1860</ele>
        <time>2021-03-19T15:05:00Z</time>
      </trkpt>
      <trkpt lat="44.81204" lon="6.96781">
        <ele>1860</ele>
        <time>2021-03-19T15:05:01Z</time>
      </trkpt>
      <trkpt lat="44.81204" lon="6.96779">
        <ele>1860</ele>
        <time>2021-03-19T15:05:02Z</time>
      </trkpt>
      <trkpt lat="44.81203" lon="6.96778">
        <ele>1860</ele>
        <time>2021-03-19T15:05:03Z</time>
      </trkpt>
      <trkpt lat="44.81203" lon="6.96776">
        <ele>1860</ele>
        <time>2021-03-19T15:05:04Z</time>
      </trkpt>
      <trkpt lat="44.81203" lon="6.96775">
        <ele>1860</ele>
        <time>2021-03-19T15:05:05Z</time>
      </trkpt>
      <trkpt lat="44.81203" lon="6.96774">
        <ele>1860</ele>
        <time>2021-03-19T15:05:06Z</time>
      </trkpt>
      <trkpt lat="44.81202" lon="6.96772">
        <ele>1860</ele>
        <time>2021-03-19T15:05:07Z</time>
      </trkpt>
      <trkpt lat="44.81202" lon="6.96771">
        <ele>1860</ele>
        <time>2021-03-19T15:05:08Z</time>
      </trkpt>
      <trkpt lat="44.81202" lon="6.9677">
        <ele>1860</ele>
        <time>2021-03-19T15:05:09Z</time>
      </trkpt>
      <trkpt lat="44.81202" lon="6.96769">
        <ele>1860</ele>
        <time>2021-03-19T15:05:10Z</time>
      </trkpt>
      <trkpt lat="44.81201" lon="6.96768">
        <ele>1860</ele>
        <time>2021-03-19T15:05:11Z</time>
      </trkpt>
      <trkpt lat="44.81201" lon="6.96767">
        <ele>1860</ele>
        <time>2021-03-19T15:05:12Z</time>
      </trkpt>
      <trkpt lat="44.81201" lon="6.96766">
        <ele>1860</ele>
        <time>2021-03-19T15:05:13Z</time>
      </trkpt>
      <trkpt lat="44.812" lon="6.96765">
        <ele>1860</ele>
        <time>2021-03-19T15:05:14Z</time>
      </trkpt>
      <trkpt lat="44.812" lon="6.96764">
        <ele>1860</ele>
        <time>2021-03-19T15:05:15Z</time>
      </trkpt>
      <trkpt lat="44.81199" lon="6.96763">
        <ele>1860</ele>
        <time>2021-03-19T15:05:16Z</time>
      </trkpt>
      <trkpt lat="44.81199" lon="6.96762">
        <ele>1860</ele>
        <time>2021-03-19T15:05:17Z</time>
      </trkpt>
      <trkpt lat="44.81198" lon="6.96761">
        <ele>1859</ele>
        <time>2021-03-19T15:05:18Z</time>
      </trkpt>
      <trkpt lat="44.81197" lon="6.96761">
        <ele>1859</ele>
        <time>2021-03-19T15:05:19Z</time>
      </trkpt>
      <trkpt lat="44.81197" lon="6.96759">
        <ele>1859</ele>
        <time>2021-03-19T15:05:20Z</time>
      </trkpt>
      <trkpt lat="44.81196" lon="6.96758">
        <ele>1859</ele>
        <time>2021-03-19T15:05:21Z</time>
      </trkpt>
      <trkpt lat="44.81196" lon="6.96757">
        <ele>1859</ele>
        <time>2021-03-19T15:05:22Z</time>
      </trkpt>
      <trkpt lat="44.81196" lon="6.96756">
        <ele>1859</ele>
        <time>2021-03-19T15:05:23Z</time>
      </trkpt>
      <trkpt lat="44.81196" lon="6.96754">
        <ele>1859</ele>
        <time>2021-03-19T15:05:24Z</time>
      </trkpt>
      <trkpt lat="44.81196" lon="6.96753">
        <ele>1859</ele>
        <time>2021-03-19T15:05:25Z</time>
      </trkpt>
      <trkpt lat="44.81196" lon="6.96752">
        <ele>1859</ele>
        <time>2021-03-19T15:05:26Z</time>
      </trkpt>
      <trkpt lat="44.81196" lon="6.9675">
        <ele>1859</ele>
        <time>2021-03-19T15:05:27Z</time>
      </trkpt>
      <trkpt lat="44.81196" lon="6.96749">
        <ele>1859</ele>
        <time>2021-03-19T15:05:28Z</time>
      </trkpt>
      <trkpt lat="44.81196" lon="6.96748">
        <ele>1859</ele>
        <time>2021-03-19T15:05:29Z</time>
      </trkpt>
      <trkpt lat="44.81196" lon="6.96746">
        <ele>1859</ele>
        <time>2021-03-19T15:05:30Z</time>
      </trkpt>
      <trkpt lat="44.81196" lon="6.96745">
        <ele>1859</ele>
        <time>2021-03-19T15:05:31Z</time>
      </trkpt>
      <trkpt lat="44.81196" lon="6.96743">
        <ele>1859</ele>
        <time>2021-03-19T15:05:32Z</time>
      </trkpt>
      <trkpt lat="44.81196" lon="6.96742">
        <ele>1859</ele>
        <time>2021-03-19T15:05:33Z</time>
      </trkpt>
      <trkpt lat="44.81196" lon="6.96741">
        <ele>1859</ele>
        <time>2021-03-19T15:05:34Z</time>
      </trkpt>
      <trkpt lat="44.81197" lon="6.96739">
        <ele>1859</ele>
        <time>2021-03-19T15:05:35Z</time>
      </trkpt>
      <trkpt lat="44.81196" lon="6.96738">
        <ele>1859</ele>
        <time>2021-03-19T15:05:36Z</time>
      </trkpt>
      <trkpt lat="44.81196" lon="6.96737">
        <ele>1859</ele>
        <time>2021-03-19T15:05:37Z</time>
      </trkpt>
      <trkpt lat="44.81196" lon="6.96735">
        <ele>1858</ele>
        <time>2021-03-19T15:05:38Z</time>
      </trkpt>
      <trkpt lat="44.81196" lon="6.96733">
        <ele>1858</ele>
        <time>2021-03-19T15:05:39Z</time>
      </trkpt>
      <trkpt lat="44.81196" lon="6.96732">
        <ele>1858</ele>
        <time>2021-03-19T15:05:40Z</time>
      </trkpt>
      <trkpt lat="44.81195" lon="6.9673">
        <ele>1858</ele>
        <time>2021-03-19T15:05:41Z</time>
      </trkpt>
      <trkpt lat="44.81195" lon="6.96729">
        <ele>1858</ele>
        <time>2021-03-19T15:05:42Z</time>
      </trkpt>
      <trkpt lat="44.81195" lon="6.96728">
        <ele>1858</ele>
        <time>2021-03-19T15:05:43Z</time>
      </trkpt>
      <trkpt lat="44.81194" lon="6.96727">
        <ele>1858</ele>
        <time>2021-03-19T15:05:44Z</time>
      </trkpt>
      <trkpt lat="44.81194" lon="6.96726">
        <ele>1858</ele>
        <time>2021-03-19T15:05:45Z</time>
      </trkpt>
      <trkpt lat="44.81194" lon="6.96725">
        <ele>1858</ele>
        <time>2021-03-19T15:05:46Z</time>
      </trkpt>
      <trkpt lat="44.81193" lon="6.96724">
        <ele>1858</ele>
        <time>2021-03-19T15:05:47Z</time>
      </trkpt>
      <trkpt lat="44.81193" lon="6.96723">
        <ele>1858</ele>
        <time>2021-03-19T15:06:05Z</time>
      </trkpt>
      <trkpt lat="44.81193" lon="6.96723">
        <ele>1858</ele>
        <time>2021-03-19T15:06:06Z</time>
      </trkpt>
      <trkpt lat="44.81193" lon="6.96723">
        <ele>1858</ele>
        <time>2021-03-19T15:06:07Z</time>
      </trkpt>
      <trkpt lat="44.81192" lon="6.96723">
        <ele>1858</ele>
        <time>2021-03-19T15:06:08Z</time>
      </trkpt>
      <trkpt lat="44.81192" lon="6.96723">
        <ele>1858</ele>
        <time>2021-03-19T15:06:24Z</time>
      </trkpt>
      <trkpt lat="44.81192" lon="6.96722">
        <ele>1858</ele>
        <time>2021-03-19T15:06:25Z</time>
      </trkpt>
      <trkpt lat="44.81192" lon="6.96722">
        <ele>1858</ele>
        <time>2021-03-19T15:06:26Z</time>
      </trkpt>
      <trkpt lat="44.81192" lon="6.96721">
        <ele>1858</ele>
        <time>2021-03-19T15:06:27Z</time>
      </trkpt>
      <trkpt lat="44.81192" lon="6.9672">
        <ele>1858</ele>
        <time>2021-03-19T15:06:28Z</time>
      </trkpt>
      <trkpt lat="44.81193" lon="6.96719">
        <ele>1858</ele>
        <time>2021-03-19T15:06:29Z</time>
      </trkpt>
      <trkpt lat="44.81193" lon="6.96718">
        <ele>1858</ele>
        <time>2021-03-19T15:06:30Z</time>
      </trkpt>
      <trkpt lat="44.81193" lon="6.96717">
        <ele>1858</ele>
        <time>2021-03-19T15:06:31Z</time>
      </trkpt>
      <trkpt lat="44.81193" lon="6.96715">
        <ele>1858</ele>
        <time>2021-03-19T15:06:32Z</time>
      </trkpt>
      <trkpt lat="44.81193" lon="6.96714">
        <ele>1858</ele>
        <time>2021-03-19T15:06:33Z</time>
      </trkpt>
      <trkpt lat="44.81194" lon="6.96713">
        <ele>1858</ele>
        <time>2021-03-19T15:06:34Z</time>
      </trkpt>
      <trkpt lat="44.81193" lon="6.96711">
        <ele>1859</ele>
        <time>2021-03-19T15:06:46Z</time>
      </trkpt>
      <trkpt lat="44.81194" lon="6.96709">
        <ele>1859</ele>
        <time>2021-03-19T15:06:47Z</time>
      </trkpt>
      <trkpt lat="44.81194" lon="6.96708">
        <ele>1859</ele>
        <time>2021-03-19T15:06:48Z</time>
      </trkpt>
      <trkpt lat="44.81194" lon="6.96707">
        <ele>1859</ele>
        <time>2021-03-19T15:06:49Z</time>
      </trkpt>
      <trkpt lat="44.81195" lon="6.96707">
        <ele>1859</ele>
        <time>2021-03-19T15:06:50Z</time>
      </trkpt>
      <trkpt lat="44.81196" lon="6.96707">
        <ele>1858</ele>
        <time>2021-03-19T15:07:21Z</time>
      </trkpt>
      <trkpt lat="44.81197" lon="6.96708">
        <ele>1858</ele>
        <time>2021-03-19T15:07:22Z</time>
      </trkpt>
      <trkpt lat="44.81198" lon="6.96708">
        <ele>1858</ele>
        <time>2021-03-19T15:07:23Z</time>
      </trkpt>
      <trkpt lat="44.81198" lon="6.96708">
        <ele>1858</ele>
        <time>2021-03-19T15:07:24Z</time>
      </trkpt>
      <trkpt lat="44.81199" lon="6.96709">
        <ele>1858</ele>
        <time>2021-03-19T15:07:25Z</time>
      </trkpt>
      <trkpt lat="44.812" lon="6.96711">
        <ele>1858</ele>
        <time>2021-03-19T15:08:17Z</time>
      </trkpt>
      <trkpt lat="44.812" lon="6.96711">
        <ele>1858</ele>
        <time>2021-03-19T15:08:18Z</time>
      </trkpt>
      <trkpt lat="44.81199" lon="6.96711">
        <ele>1858</ele>
        <time>2021-03-19T15:08:19Z</time>
      </trkpt>
      <trkpt lat="44.81198" lon="6.9671">
        <ele>1859</ele>
        <time>2021-03-19T15:08:29Z</time>
      </trkpt>
      <trkpt lat="44.81198" lon="6.9671">
        <ele>1859</ele>
        <time>2021-03-19T15:08:30Z</time>
      </trkpt>
      <trkpt lat="44.81198" lon="6.9671">
        <ele>1859</ele>
        <time>2021-03-19T15:08:31Z</time>
      </trkpt>
      <trkpt lat="44.81198" lon="6.96709">
        <ele>1859</ele>
        <time>2021-03-19T15:08:32Z</time>
      </trkpt>
      <trkpt lat="44.81198" lon="6.96709">
        <ele>1859</ele>
        <time>2021-03-19T15:08:33Z</time>
      </trkpt>
      <trkpt lat="44.81198" lon="6.96708">
        <ele>1859</ele>
        <time>2021-03-19T15:08:34Z</time>
      </trkpt>
      <trkpt lat="44.81198" lon="6.96708">
        <ele>1859</ele>
        <time>2021-03-19T15:08:35Z</time>
      </trkpt>
      <trkpt lat="44.81199" lon="6.96707">
        <ele>1859</ele>
        <time>2021-03-19T15:08:36Z</time>
      </trkpt>
      <trkpt lat="44.81199" lon="6.96707">
        <ele>1859</ele>
        <time>2021-03-19T15:08:37Z</time>
      </trkpt>
      <trkpt lat="44.812" lon="6.96707">
        <ele>1859</ele>
        <time>2021-03-19T15:08:38Z</time>
      </trkpt>
      <trkpt lat="44.812" lon="6.96707">
        <ele>1859</ele>
        <time>2021-03-19T15:08:39Z</time>
      </trkpt>
      <trkpt lat="44.812" lon="6.96707">
        <ele>1859</ele>
        <time>2021-03-19T15:08:40Z</time>
      </trkpt>
      <trkpt lat="44.812" lon="6.96707">
        <ele>1859</ele>
        <time>2021-03-19T15:08:41Z</time>
      </trkpt>
      <trkpt lat="44.812" lon="6.96707">
        <ele>1859</ele>
        <time>2021-03-19T15:08:42Z</time>
      </trkpt>
      <trkpt lat="44.81201" lon="6.96707">
        <ele>1859</ele>
        <time>2021-03-19T15:08:43Z</time>
      </trkpt>
      <trkpt lat="44.812" lon="6.96708">
        <ele>1859</ele>
        <time>2021-03-19T15:08:44Z</time>
      </trkpt>
      <trkpt lat="44.812" lon="6.96708">
        <ele>1859</ele>
        <time>2021-03-19T15:08:45Z</time>
      </trkpt>
      <trkpt lat="44.81199" lon="6.96708">
        <ele>1858</ele>
        <time>2021-03-19T15:09:34Z</time>
      </trkpt>
      <trkpt lat="44.81199" lon="6.96707">
        <ele>1858</ele>
        <time>2021-03-19T15:09:35Z</time>
      </trkpt>
      <trkpt lat="44.81199" lon="6.96707">
        <ele>1858</ele>
        <time>2021-03-19T15:09:36Z</time>
      </trkpt>
      <trkpt lat="44.81199" lon="6.96706">
        <ele>1859</ele>
        <time>2021-03-19T15:09:37Z</time>
      </trkpt>
      <trkpt lat="44.81199" lon="6.96705">
        <ele>1859</ele>
        <time>2021-03-19T15:09:38Z</time>
      </trkpt>
      <trkpt lat="44.81199" lon="6.96704">
        <ele>1859</ele>
        <time>2021-03-19T15:09:39Z</time>
      </trkpt>
      <trkpt lat="44.81199" lon="6.96703">
        <ele>1859</ele>
        <time>2021-03-19T15:09:40Z</time>
      </trkpt>
      <trkpt lat="44.812" lon="6.96703">
        <ele>1859</ele>
        <time>2021-03-19T15:09:41Z</time>
      </trkpt>
      <trkpt lat="44.81201" lon="6.96702">
        <ele>1859</ele>
        <time>2021-03-19T15:09:42Z</time>
      </trkpt>
      <trkpt lat="44.81202" lon="6.96701">
        <ele>1859</ele>
        <time>2021-03-19T15:11:09Z</time>
      </trkpt>
      <trkpt lat="44.81202" lon="6.967">
        <ele>1859</ele>
        <time>2021-03-19T15:11:10Z</time>
      </trkpt>
      <trkpt lat="44.81202" lon="6.967">
        <ele>1859</ele>
        <time>2021-03-19T15:11:11Z</time>
      </trkpt>
      <trkpt lat="44.81202" lon="6.967">
        <ele>1859</ele>
        <time>2021-03-19T15:11:12Z</time>
      </trkpt>
      <trkpt lat="44.81202" lon="6.967">
        <ele>1859</ele>
        <time>2021-03-19T15:11:13Z</time>
      </trkpt>
      <trkpt lat="44.81202" lon="6.967">
        <ele>1859</ele>
        <time>2021-03-19T15:11:14Z</time>
      </trkpt>
      <trkpt lat="44.81202" lon="6.967">
        <ele>1859</ele>
        <time>2021-03-19T15:11:15Z</time>
      </trkpt>
      <trkpt lat="44.81201" lon="6.967">
        <ele>1859</ele>
        <time>2021-03-19T15:11:16Z</time>
      </trkpt>
      <trkpt lat="44.81201" lon="6.967">
        <ele>1859</ele>
        <time>2021-03-19T15:11:17Z</time>
      </trkpt>
      <trkpt lat="44.81202" lon="6.967">
        <ele>1859</ele>
        <time>2021-03-19T15:11:18Z</time>
      </trkpt>
      <trkpt lat="44.81202" lon="6.967">
        <ele>1859</ele>
        <time>2021-03-19T15:11:19Z</time>
      </trkpt>
      <trkpt lat="44.81203" lon="6.96701">
        <ele>1859</ele>
        <time>2021-03-19T15:11:40Z</time>
      </trkpt>
      <trkpt lat="44.81203" lon="6.96701">
        <ele>1859</ele>
        <time>2021-03-19T15:11:41Z</time>
      </trkpt>
      <trkpt lat="44.81203" lon="6.96701">
        <ele>1859</ele>
        <time>2021-03-19T15:11:42Z</time>
      </trkpt>
      <trkpt lat="44.81202" lon="6.96701">
        <ele>1859</ele>
        <time>2021-03-19T15:11:43Z</time>
      </trkpt>
      <trkpt lat="44.81202" lon="6.967">
        <ele>1859</ele>
        <time>2021-03-19T15:11:44Z</time>
      </trkpt>
      <trkpt lat="44.81202" lon="6.96699">
        <ele>1859</ele>
        <time>2021-03-19T15:11:45Z</time>
      </trkpt>
      <trkpt lat="44.81201" lon="6.96698">
        <ele>1859</ele>
        <time>2021-03-19T15:11:46Z</time>
      </trkpt>
      <trkpt lat="44.81201" lon="6.96696">
        <ele>1859</ele>
        <time>2021-03-19T15:11:47Z</time>
      </trkpt>
      <trkpt lat="44.81201" lon="6.96695">
        <ele>1858</ele>
        <time>2021-03-19T15:11:48Z</time>
      </trkpt>
      <trkpt lat="44.81201" lon="6.96693">
        <ele>1858</ele>
        <time>2021-03-19T15:11:49Z</time>
      </trkpt>
      <trkpt lat="44.81201" lon="6.96692">
        <ele>1858</ele>
        <time>2021-03-19T15:11:50Z</time>
      </trkpt>
      <trkpt lat="44.81201" lon="6.96691">
        <ele>1858</ele>
        <time>2021-03-19T15:11:51Z</time>
      </trkpt>
      <trkpt lat="44.81202" lon="6.96689">
        <ele>1858</ele>
        <time>2021-03-19T15:11:52Z</time>
      </trkpt>
      <trkpt lat="44.81202" lon="6.96688">
        <ele>1858</ele>
        <time>2021-03-19T15:11:53Z</time>
      </trkpt>
      <trkpt lat="44.81202" lon="6.96687">
        <ele>1858</ele>
        <time>2021-03-19T15:11:54Z</time>
      </trkpt>
      <trkpt lat="44.81202" lon="6.96686">
        <ele>1858</ele>
        <time>2021-03-19T15:11:55Z</time>
      </trkpt>
      <trkpt lat="44.81202" lon="6.96684">
        <ele>1858</ele>
        <time>2021-03-19T15:11:56Z</time>
      </trkpt>
      <trkpt lat="44.81202" lon="6.96683">
        <ele>1858</ele>
        <time>2021-03-19T15:11:57Z</time>
      </trkpt>
      <trkpt lat="44.81202" lon="6.96682">
        <ele>1858</ele>
        <time>2021-03-19T15:11:58Z</time>
      </trkpt>
      <trkpt lat="44.81202" lon="6.96682">
        <ele>1858</ele>
        <time>2021-03-19T15:11:59Z</time>
      </trkpt>
      <trkpt lat="44.81202" lon="6.96681">
        <ele>1858</ele>
        <time>2021-03-19T15:12:00Z</time>
      </trkpt>
      <trkpt lat="44.81202" lon="6.9668">
        <ele>1858</ele>
        <time>2021-03-19T15:12:01Z</time>
      </trkpt>
      <trkpt lat="44.81202" lon="6.9668">
        <ele>1858</ele>
        <time>2021-03-19T15:12:02Z</time>
      </trkpt>
      <trkpt lat="44.81202" lon="6.96679">
        <ele>1858</ele>
        <time>2021-03-19T15:12:03Z</time>
      </trkpt>
      <trkpt lat="44.81202" lon="6.96678">
        <ele>1858</ele>
        <time>2021-03-19T15:12:04Z</time>
      </trkpt>
      <trkpt lat="44.81202" lon="6.96677">
        <ele>1858</ele>
        <time>2021-03-19T15:12:05Z</time>
      </trkpt>
      <trkpt lat="44.81201" lon="6.96676">
        <ele>1858</ele>
        <time>2021-03-19T15:12:06Z</time>
      </trkpt>
      <trkpt lat="44.81201" lon="6.96675">
        <ele>1858</ele>
        <time>2021-03-19T15:12:07Z</time>
      </trkpt>
      <trkpt lat="44.81201" lon="6.96674">
        <ele>1858</ele>
        <time>2021-03-19T15:12:08Z</time>
      </trkpt>
      <trkpt lat="44.81201" lon="6.96673">
        <ele>1858</ele>
        <time>2021-03-19T15:12:09Z</time>
      </trkpt>
      <trkpt lat="44.812" lon="6.96672">
        <ele>1858</ele>
        <time>2021-03-19T15:12:10Z</time>
      </trkpt>
      <trkpt lat="44.812" lon="6.96671">
        <ele>1858</ele>
        <time>2021-03-19T15:12:11Z</time>
      </trkpt>
      <trkpt lat="44.812" lon="6.96671">
        <ele>1858</ele>
        <time>2021-03-19T15:12:12Z</time>
      </trkpt>
      <trkpt lat="44.812" lon="6.9667">
        <ele>1858</ele>
        <time>2021-03-19T15:12:13Z</time>
      </trkpt>
      <trkpt lat="44.812" lon="6.9667">
        <ele>1858</ele>
        <time>2021-03-19T15:12:14Z</time>
      </trkpt>
      <trkpt lat="44.812" lon="6.9667">
        <ele>1858</ele>
        <time>2021-03-19T15:12:15Z</time>
      </trkpt>
      <trkpt lat="44.81201" lon="6.96671">
        <ele>1858</ele>
        <time>2021-03-19T15:12:16Z</time>
      </trkpt>
      <trkpt lat="44.81201" lon="6.96672">
        <ele>1858</ele>
        <time>2021-03-19T15:12:17Z</time>
      </trkpt>
      <trkpt lat="44.81202" lon="6.96672">
        <ele>1858</ele>
        <time>2021-03-19T15:12:18Z</time>
      </trkpt>
      <trkpt lat="44.81203" lon="6.96673">
        <ele>1858</ele>
        <time>2021-03-19T15:12:19Z</time>
      </trkpt>
      <trkpt lat="44.81203" lon="6.96673">
        <ele>1858</ele>
        <time>2021-03-19T15:12:20Z</time>
      </trkpt>
      <trkpt lat="44.81203" lon="6.96672">
        <ele>1858</ele>
        <time>2021-03-19T15:12:21Z</time>
      </trkpt>
      <trkpt lat="44.81202" lon="6.96672">
        <ele>1858</ele>
        <time>2021-03-19T15:12:22Z</time>
      </trkpt>
      <trkpt lat="44.81202" lon="6.96671">
        <ele>1858</ele>
        <time>2021-03-19T15:12:23Z</time>
      </trkpt>
      <trkpt lat="44.81202" lon="6.9667">
        <ele>1858</ele>
        <time>2021-03-19T15:12:24Z</time>
      </trkpt>
      <trkpt lat="44.81201" lon="6.96669">
        <ele>1858</ele>
        <time>2021-03-19T15:12:25Z</time>
      </trkpt>
      <trkpt lat="44.81201" lon="6.96667">
        <ele>1858</ele>
        <time>2021-03-19T15:12:26Z</time>
      </trkpt>
      <trkpt lat="44.81201" lon="6.96666">
        <ele>1858</ele>
        <time>2021-03-19T15:12:27Z</time>
      </trkpt>
      <trkpt lat="44.812" lon="6.96664">
        <ele>1858</ele>
        <time>2021-03-19T15:12:28Z</time>
      </trkpt>
      <trkpt lat="44.812" lon="6.96663">
        <ele>1858</ele>
        <time>2021-03-19T15:12:29Z</time>
      </trkpt>
      <trkpt lat="44.812" lon="6.96662">
        <ele>1858</ele>
        <time>2021-03-19T15:12:30Z</time>
      </trkpt>
      <trkpt lat="44.81199" lon="6.9666">
        <ele>1858</ele>
        <time>2021-03-19T15:12:31Z</time>
      </trkpt>
      <trkpt lat="44.81199" lon="6.96659">
        <ele>1858</ele>
        <time>2021-03-19T15:12:32Z</time>
      </trkpt>
      <trkpt lat="44.81198" lon="6.96658">
        <ele>1858</ele>
        <time>2021-03-19T15:12:33Z</time>
      </trkpt>
      <trkpt lat="44.81198" lon="6.96656">
        <ele>1858</ele>
        <time>2021-03-19T15:12:34Z</time>
      </trkpt>
      <trkpt lat="44.81197" lon="6.96655">
        <ele>1858</ele>
        <time>2021-03-19T15:12:35Z</time>
      </trkpt>
      <trkpt lat="44.81196" lon="6.96653">
        <ele>1858</ele>
        <time>2021-03-19T15:12:36Z</time>
      </trkpt>
      <trkpt lat="44.81196" lon="6.96652">
        <ele>1858</ele>
        <time>2021-03-19T15:12:37Z</time>
      </trkpt>
      <trkpt lat="44.81195" lon="6.9665">
        <ele>1858</ele>
        <time>2021-03-19T15:12:38Z</time>
      </trkpt>
      <trkpt lat="44.81195" lon="6.96648">
        <ele>1858</ele>
        <time>2021-03-19T15:12:39Z</time>
      </trkpt>
      <trkpt lat="44.81195" lon="6.96647">
        <ele>1858</ele>
        <time>2021-03-19T15:12:40Z</time>
      </trkpt>
      <trkpt lat="44.81195" lon="6.96645">
        <ele>1858</ele>
        <time>2021-03-19T15:12:41Z</time>
      </trkpt>
      <trkpt lat="44.81194" lon="6.96643">
        <ele>1858</ele>
        <time>2021-03-19T15:12:42Z</time>
      </trkpt>
      <trkpt lat="44.81194" lon="6.96642">
        <ele>1858</ele>
        <time>2021-03-19T15:12:43Z</time>
      </trkpt>
      <trkpt lat="44.81193" lon="6.9664">
        <ele>1858</ele>
        <time>2021-03-19T15:12:44Z</time>
      </trkpt>
      <trkpt lat="44.81193" lon="6.96639">
        <ele>1858</ele>
        <time>2021-03-19T15:12:45Z</time>
      </trkpt>
      <trkpt lat="44.81192" lon="6.96638">
        <ele>1858</ele>
        <time>2021-03-19T15:12:46Z</time>
      </trkpt>
      <trkpt lat="44.81192" lon="6.96637">
        <ele>1858</ele>
        <time>2021-03-19T15:12:47Z</time>
      </trkpt>
      <trkpt lat="44.81191" lon="6.96636">
        <ele>1858</ele>
        <time>2021-03-19T15:12:48Z</time>
      </trkpt>
      <trkpt lat="44.81191" lon="6.96634">
        <ele>1858</ele>
        <time>2021-03-19T15:12:49Z</time>
      </trkpt>
      <trkpt lat="44.8119" lon="6.96633">
        <ele>1858</ele>
        <time>2021-03-19T15:12:50Z</time>
      </trkpt>
      <trkpt lat="44.8119" lon="6.96632">
        <ele>1858</ele>
        <time>2021-03-19T15:12:51Z</time>
      </trkpt>
      <trkpt lat="44.81189" lon="6.9663">
        <ele>1858</ele>
        <time>2021-03-19T15:12:52Z</time>
      </trkpt>
      <trkpt lat="44.81189" lon="6.96629">
        <ele>1858</ele>
        <time>2021-03-19T15:12:53Z</time>
      </trkpt>
      <trkpt lat="44.81188" lon="6.96628">
        <ele>1858</ele>
        <time>2021-03-19T15:12:54Z</time>
      </trkpt>
      <trkpt lat="44.81188" lon="6.96627">
        <ele>1858</ele>
        <time>2021-03-19T15:12:55Z</time>
      </trkpt>
      <trkpt lat="44.81187" lon="6.96625">
        <ele>1858</ele>
        <time>2021-03-19T15:12:56Z</time>
      </trkpt>
      <trkpt lat="44.81187" lon="6.96624">
        <ele>1858</ele>
        <time>2021-03-19T15:12:57Z</time>
      </trkpt>
      <trkpt lat="44.81187" lon="6.96623">
        <ele>1858</ele>
        <time>2021-03-19T15:12:58Z</time>
      </trkpt>
      <trkpt lat="44.81186" lon="6.96622">
        <ele>1858</ele>
        <time>2021-03-19T15:12:59Z</time>
      </trkpt>
      <trkpt lat="44.81186" lon="6.96621">
        <ele>1858</ele>
        <time>2021-03-19T15:13:00Z</time>
      </trkpt>
      <trkpt lat="44.81185" lon="6.9662">
        <ele>1858</ele>
        <time>2021-03-19T15:13:01Z</time>
      </trkpt>
      <trkpt lat="44.81185" lon="6.9662">
        <ele>1858</ele>
        <time>2021-03-19T15:13:02Z</time>
      </trkpt>
      <trkpt lat="44.81185" lon="6.96619">
        <ele>1857</ele>
        <time>2021-03-19T15:13:03Z</time>
      </trkpt>
      <trkpt lat="44.81184" lon="6.96618">
        <ele>1857</ele>
        <time>2021-03-19T15:13:04Z</time>
      </trkpt>
      <trkpt lat="44.81184" lon="6.96617">
        <ele>1857</ele>
        <time>2021-03-19T15:13:05Z</time>
      </trkpt>
      <trkpt lat="44.81184" lon="6.96617">
        <ele>1857</ele>
        <time>2021-03-19T15:13:06Z</time>
      </trkpt>
      <trkpt lat="44.81184" lon="6.96616">
        <ele>1857</ele>
        <time>2021-03-19T15:13:07Z</time>
      </trkpt>
      <trkpt lat="44.81183" lon="6.96615">
        <ele>1857</ele>
        <time>2021-03-19T15:13:08Z</time>
      </trkpt>
      <trkpt lat="44.81183" lon="6.96614">
        <ele>1857</ele>
        <time>2021-03-19T15:13:09Z</time>
      </trkpt>
      <trkpt lat="44.81183" lon="6.96613">
        <ele>1857</ele>
        <time>2021-03-19T15:13:10Z</time>
      </trkpt>
      <trkpt lat="44.81183" lon="6.96612">
        <ele>1857</ele>
        <time>2021-03-19T15:13:11Z</time>
      </trkpt>
      <trkpt lat="44.81183" lon="6.9661">
        <ele>1857</ele>
        <time>2021-03-19T15:13:12Z</time>
      </trkpt>
      <trkpt lat="44.81182" lon="6.96609">
        <ele>1856</ele>
        <time>2021-03-19T15:13:13Z</time>
      </trkpt>
      <trkpt lat="44.81182" lon="6.96608">
        <ele>1856</ele>
        <time>2021-03-19T15:13:14Z</time>
      </trkpt>
      <trkpt lat="44.81182" lon="6.96606">
        <ele>1856</ele>
        <time>2021-03-19T15:13:15Z</time>
      </trkpt>
      <trkpt lat="44.81182" lon="6.96605">
        <ele>1856</ele>
        <time>2021-03-19T15:13:16Z</time>
      </trkpt>
      <trkpt lat="44.81181" lon="6.96604">
        <ele>1856</ele>
        <time>2021-03-19T15:13:17Z</time>
      </trkpt>
      <trkpt lat="44.81181" lon="6.96602">
        <ele>1856</ele>
        <time>2021-03-19T15:13:18Z</time>
      </trkpt>
      <trkpt lat="44.81181" lon="6.96601">
        <ele>1856</ele>
        <time>2021-03-19T15:13:19Z</time>
      </trkpt>
      <trkpt lat="44.8118" lon="6.966">
        <ele>1856</ele>
        <time>2021-03-19T15:13:20Z</time>
      </trkpt>
      <trkpt lat="44.8118" lon="6.96599">
        <ele>1856</ele>
        <time>2021-03-19T15:13:21Z</time>
      </trkpt>
      <trkpt lat="44.81179" lon="6.96597">
        <ele>1856</ele>
        <time>2021-03-19T15:13:22Z</time>
      </trkpt>
      <trkpt lat="44.81179" lon="6.96596">
        <ele>1856</ele>
        <time>2021-03-19T15:13:23Z</time>
      </trkpt>
      <trkpt lat="44.81178" lon="6.96595">
        <ele>1856</ele>
        <time>2021-03-19T15:13:24Z</time>
      </trkpt>
      <trkpt lat="44.81178" lon="6.96593">
        <ele>1856</ele>
        <time>2021-03-19T15:13:25Z</time>
      </trkpt>
      <trkpt lat="44.81177" lon="6.96592">
        <ele>1856</ele>
        <time>2021-03-19T15:13:26Z</time>
      </trkpt>
      <trkpt lat="44.81177" lon="6.96591">
        <ele>1856</ele>
        <time>2021-03-19T15:13:27Z</time>
      </trkpt>
      <trkpt lat="44.81176" lon="6.9659">
        <ele>1855</ele>
        <time>2021-03-19T15:13:28Z</time>
      </trkpt>
      <trkpt lat="44.81176" lon="6.96589">
        <ele>1855</ele>
        <time>2021-03-19T15:13:29Z</time>
      </trkpt>
      <trkpt lat="44.81176" lon="6.96587">
        <ele>1855</ele>
        <time>2021-03-19T15:13:30Z</time>
      </trkpt>
      <trkpt lat="44.81175" lon="6.96586">
        <ele>1855</ele>
        <time>2021-03-19T15:13:31Z</time>
      </trkpt>
      <trkpt lat="44.81175" lon="6.96585">
        <ele>1855</ele>
        <time>2021-03-19T15:13:32Z</time>
      </trkpt>
      <trkpt lat="44.81175" lon="6.96584">
        <ele>1855</ele>
        <time>2021-03-19T15:13:33Z</time>
      </trkpt>
      <trkpt lat="44.81174" lon="6.96582">
        <ele>1855</ele>
        <time>2021-03-19T15:13:34Z</time>
      </trkpt>
      <trkpt lat="44.81174" lon="6.96581">
        <ele>1855</ele>
        <time>2021-03-19T15:13:35Z</time>
      </trkpt>
      <trkpt lat="44.81174" lon="6.9658">
        <ele>1855</ele>
        <time>2021-03-19T15:13:36Z</time>
      </trkpt>
      <trkpt lat="44.81174" lon="6.96578">
        <ele>1855</ele>
        <time>2021-03-19T15:13:37Z</time>
      </trkpt>
      <trkpt lat="44.81173" lon="6.96577">
        <ele>1855</ele>
        <time>2021-03-19T15:13:38Z</time>
      </trkpt>
      <trkpt lat="44.81173" lon="6.96575">
        <ele>1855</ele>
        <time>2021-03-19T15:13:39Z</time>
      </trkpt>
      <trkpt lat="44.81173" lon="6.96574">
        <ele>1855</ele>
        <time>2021-03-19T15:13:40Z</time>
      </trkpt>
      <trkpt lat="44.81173" lon="6.96573">
        <ele>1855</ele>
        <time>2021-03-19T15:13:41Z</time>
      </trkpt>
      <trkpt lat="44.81172" lon="6.96571">
        <ele>1855</ele>
        <time>2021-03-19T15:13:42Z</time>
      </trkpt>
      <trkpt lat="44.81172" lon="6.9657">
        <ele>1855</ele>
        <time>2021-03-19T15:13:43Z</time>
      </trkpt>
      <trkpt lat="44.81172" lon="6.96568">
        <ele>1855</ele>
        <time>2021-03-19T15:13:44Z</time>
      </trkpt>
      <trkpt lat="44.81171" lon="6.96567">
        <ele>1855</ele>
        <time>2021-03-19T15:13:45Z</time>
      </trkpt>
      <trkpt lat="44.81171" lon="6.96565">
        <ele>1855</ele>
        <time>2021-03-19T15:13:46Z</time>
      </trkpt>
      <trkpt lat="44.81171" lon="6.96564">
        <ele>1855</ele>
        <time>2021-03-19T15:13:47Z</time>
      </trkpt>
      <trkpt lat="44.8117" lon="6.96562">
        <ele>1855</ele>
        <time>2021-03-19T15:13:48Z</time>
      </trkpt>
      <trkpt lat="44.8117" lon="6.96561">
        <ele>1855</ele>
        <time>2021-03-19T15:13:49Z</time>
      </trkpt>
      <trkpt lat="44.8117" lon="6.9656">
        <ele>1855</ele>
        <time>2021-03-19T15:13:50Z</time>
      </trkpt>
      <trkpt lat="44.8117" lon="6.96558">
        <ele>1855</ele>
        <time>2021-03-19T15:13:51Z</time>
      </trkpt>
      <trkpt lat="44.81169" lon="6.96557">
        <ele>1855</ele>
        <time>2021-03-19T15:13:52Z</time>
      </trkpt>
      <trkpt lat="44.81169" lon="6.96556">
        <ele>1855</ele>
        <time>2021-03-19T15:13:53Z</time>
      </trkpt>
      <trkpt lat="44.81169" lon="6.96554">
        <ele>1855</ele>
        <time>2021-03-19T15:13:54Z</time>
      </trkpt>
      <trkpt lat="44.81168" lon="6.96553">
        <ele>1855</ele>
        <time>2021-03-19T15:13:55Z</time>
      </trkpt>
      <trkpt lat="44.81168" lon="6.96552">
        <ele>1855</ele>
        <time>2021-03-19T15:13:56Z</time>
      </trkpt>
      <trkpt lat="44.81167" lon="6.9655">
        <ele>1855</ele>
        <time>2021-03-19T15:13:57Z</time>
      </trkpt>
      <trkpt lat="44.81167" lon="6.96549">
        <ele>1855</ele>
        <time>2021-03-19T15:13:58Z</time>
      </trkpt>
      <trkpt lat="44.81167" lon="6.96547">
        <ele>1855</ele>
        <time>2021-03-19T15:13:59Z</time>
      </trkpt>
      <trkpt lat="44.81167" lon="6.96546">
        <ele>1855</ele>
        <time>2021-03-19T15:14:00Z</time>
      </trkpt>
      <trkpt lat="44.81166" lon="6.96544">
        <ele>1855</ele>
        <time>2021-03-19T15:14:01Z</time>
      </trkpt>
      <trkpt lat="44.81166" lon="6.96543">
        <ele>1855</ele>
        <time>2021-03-19T15:14:02Z</time>
      </trkpt>
      <trkpt lat="44.81166" lon="6.96542">
        <ele>1855</ele>
        <time>2021-03-19T15:14:03Z</time>
      </trkpt>
      <trkpt lat="44.81166" lon="6.9654">
        <ele>1855</ele>
        <time>2021-03-19T15:14:04Z</time>
      </trkpt>
      <trkpt lat="44.81166" lon="6.96539">
        <ele>1855</ele>
        <time>2021-03-19T15:14:05Z</time>
      </trkpt>
      <trkpt lat="44.81166" lon="6.96537">
        <ele>1855</ele>
        <time>2021-03-19T15:14:06Z</time>
      </trkpt>
      <trkpt lat="44.81165" lon="6.96536">
        <ele>1855</ele>
        <time>2021-03-19T15:14:07Z</time>
      </trkpt>
      <trkpt lat="44.81165" lon="6.96534">
        <ele>1855</ele>
        <time>2021-03-19T15:14:08Z</time>
      </trkpt>
      <trkpt lat="44.81165" lon="6.96533">
        <ele>1855</ele>
        <time>2021-03-19T15:14:09Z</time>
      </trkpt>
      <trkpt lat="44.81165" lon="6.96531">
        <ele>1855</ele>
        <time>2021-03-19T15:14:10Z</time>
      </trkpt>
      <trkpt lat="44.81165" lon="6.9653">
        <ele>1855</ele>
        <time>2021-03-19T15:14:11Z</time>
      </trkpt>
      <trkpt lat="44.81165" lon="6.96528">
        <ele>1855</ele>
        <time>2021-03-19T15:14:12Z</time>
      </trkpt>
      <trkpt lat="44.81164" lon="6.96527">
        <ele>1855</ele>
        <time>2021-03-19T15:14:13Z</time>
      </trkpt>
      <trkpt lat="44.81164" lon="6.96526">
        <ele>1855</ele>
        <time>2021-03-19T15:14:14Z</time>
      </trkpt>
      <trkpt lat="44.81164" lon="6.96524">
        <ele>1855</ele>
        <time>2021-03-19T15:14:15Z</time>
      </trkpt>
      <trkpt lat="44.81164" lon="6.96523">
        <ele>1855</ele>
        <time>2021-03-19T15:14:16Z</time>
      </trkpt>
      <trkpt lat="44.81163" lon="6.96521">
        <ele>1855</ele>
        <time>2021-03-19T15:14:17Z</time>
      </trkpt>
      <trkpt lat="44.81163" lon="6.9652">
        <ele>1854</ele>
        <time>2021-03-19T15:14:18Z</time>
      </trkpt>
      <trkpt lat="44.81163" lon="6.96518">
        <ele>1854</ele>
        <time>2021-03-19T15:14:19Z</time>
      </trkpt>
      <trkpt lat="44.81163" lon="6.96516">
        <ele>1854</ele>
        <time>2021-03-19T15:14:20Z</time>
      </trkpt>
      <trkpt lat="44.81163" lon="6.96515">
        <ele>1854</ele>
        <time>2021-03-19T15:14:21Z</time>
      </trkpt>
      <trkpt lat="44.81163" lon="6.96513">
        <ele>1854</ele>
        <time>2021-03-19T15:14:22Z</time>
      </trkpt>
      <trkpt lat="44.81163" lon="6.96512">
        <ele>1854</ele>
        <time>2021-03-19T15:14:23Z</time>
      </trkpt>
      <trkpt lat="44.81163" lon="6.96511">
        <ele>1854</ele>
        <time>2021-03-19T15:14:24Z</time>
      </trkpt>
      <trkpt lat="44.81163" lon="6.96509">
        <ele>1854</ele>
        <time>2021-03-19T15:14:25Z</time>
      </trkpt>
      <trkpt lat="44.81162" lon="6.96508">
        <ele>1854</ele>
        <time>2021-03-19T15:14:26Z</time>
      </trkpt>
      <trkpt lat="44.81162" lon="6.96506">
        <ele>1854</ele>
        <time>2021-03-19T15:14:27Z</time>
      </trkpt>
      <trkpt lat="44.81162" lon="6.96505">
        <ele>1854</ele>
        <time>2021-03-19T15:14:28Z</time>
      </trkpt>
      <trkpt lat="44.81162" lon="6.96503">
        <ele>1854</ele>
        <time>2021-03-19T15:14:29Z</time>
      </trkpt>
      <trkpt lat="44.81162" lon="6.96502">
        <ele>1854</ele>
        <time>2021-03-19T15:14:30Z</time>
      </trkpt>
      <trkpt lat="44.81162" lon="6.96501">
        <ele>1854</ele>
        <time>2021-03-19T15:14:31Z</time>
      </trkpt>
      <trkpt lat="44.81161" lon="6.96499">
        <ele>1854</ele>
        <time>2021-03-19T15:14:32Z</time>
      </trkpt>
      <trkpt lat="44.81161" lon="6.96498">
        <ele>1854</ele>
        <time>2021-03-19T15:14:33Z</time>
      </trkpt>
      <trkpt lat="44.81161" lon="6.96496">
        <ele>1854</ele>
        <time>2021-03-19T15:14:34Z</time>
      </trkpt>
      <trkpt lat="44.81161" lon="6.96495">
        <ele>1854</ele>
        <time>2021-03-19T15:14:35Z</time>
      </trkpt>
      <trkpt lat="44.81161" lon="6.96493">
        <ele>1854</ele>
        <time>2021-03-19T15:14:36Z</time>
      </trkpt>
      <trkpt lat="44.81161" lon="6.96492">
        <ele>1854</ele>
        <time>2021-03-19T15:14:37Z</time>
      </trkpt>
      <trkpt lat="44.81161" lon="6.96491">
        <ele>1854</ele>
        <time>2021-03-19T15:14:38Z</time>
      </trkpt>
      <trkpt lat="44.8116" lon="6.96489">
        <ele>1854</ele>
        <time>2021-03-19T15:14:39Z</time>
      </trkpt>
      <trkpt lat="44.8116" lon="6.96488">
        <ele>1854</ele>
        <time>2021-03-19T15:14:40Z</time>
      </trkpt>
      <trkpt lat="44.8116" lon="6.96486">
        <ele>1854</ele>
        <time>2021-03-19T15:14:41Z</time>
      </trkpt>
      <trkpt lat="44.8116" lon="6.96484">
        <ele>1854</ele>
        <time>2021-03-19T15:14:42Z</time>
      </trkpt>
      <trkpt lat="44.8116" lon="6.96483">
        <ele>1854</ele>
        <time>2021-03-19T15:14:43Z</time>
      </trkpt>
      <trkpt lat="44.8116" lon="6.96481">
        <ele>1854</ele>
        <time>2021-03-19T15:14:44Z</time>
      </trkpt>
      <trkpt lat="44.81159" lon="6.9648">
        <ele>1854</ele>
        <time>2021-03-19T15:14:45Z</time>
      </trkpt>
      <trkpt lat="44.81159" lon="6.96478">
        <ele>1854</ele>
        <time>2021-03-19T15:14:46Z</time>
      </trkpt>
      <trkpt lat="44.81159" lon="6.96477">
        <ele>1854</ele>
        <time>2021-03-19T15:14:47Z</time>
      </trkpt>
      <trkpt lat="44.81159" lon="6.96475">
        <ele>1854</ele>
        <time>2021-03-19T15:14:48Z</time>
      </trkpt>
      <trkpt lat="44.81159" lon="6.96474">
        <ele>1854</ele>
        <time>2021-03-19T15:14:49Z</time>
      </trkpt>
      <trkpt lat="44.81159" lon="6.96472">
        <ele>1854</ele>
        <time>2021-03-19T15:14:50Z</time>
      </trkpt>
      <trkpt lat="44.81159" lon="6.96471">
        <ele>1854</ele>
        <time>2021-03-19T15:14:51Z</time>
      </trkpt>
      <trkpt lat="44.81159" lon="6.96469">
        <ele>1854</ele>
        <time>2021-03-19T15:14:52Z</time>
      </trkpt>
      <trkpt lat="44.81159" lon="6.96468">
        <ele>1853</ele>
        <time>2021-03-19T15:14:53Z</time>
      </trkpt>
      <trkpt lat="44.81159" lon="6.96466">
        <ele>1853</ele>
        <time>2021-03-19T15:14:54Z</time>
      </trkpt>
      <trkpt lat="44.81159" lon="6.96465">
        <ele>1853</ele>
        <time>2021-03-19T15:14:55Z</time>
      </trkpt>
      <trkpt lat="44.81159" lon="6.96463">
        <ele>1853</ele>
        <time>2021-03-19T15:14:56Z</time>
      </trkpt>
      <trkpt lat="44.81159" lon="6.96462">
        <ele>1853</ele>
        <time>2021-03-19T15:14:57Z</time>
      </trkpt>
      <trkpt lat="44.81159" lon="6.9646">
        <ele>1853</ele>
        <time>2021-03-19T15:14:58Z</time>
      </trkpt>
      <trkpt lat="44.81158" lon="6.96458">
        <ele>1853</ele>
        <time>2021-03-19T15:14:59Z</time>
      </trkpt>
      <trkpt lat="44.81158" lon="6.96457">
        <ele>1853</ele>
        <time>2021-03-19T15:15:00Z</time>
      </trkpt>
      <trkpt lat="44.81158" lon="6.96455">
        <ele>1853</ele>
        <time>2021-03-19T15:15:01Z</time>
      </trkpt>
      <trkpt lat="44.81158" lon="6.96453">
        <ele>1853</ele>
        <time>2021-03-19T15:15:02Z</time>
      </trkpt>
      <trkpt lat="44.81158" lon="6.96452">
        <ele>1853</ele>
        <time>2021-03-19T15:15:03Z</time>
      </trkpt>
      <trkpt lat="44.81158" lon="6.9645">
        <ele>1853</ele>
        <time>2021-03-19T15:15:04Z</time>
      </trkpt>
      <trkpt lat="44.81158" lon="6.96449">
        <ele>1853</ele>
        <time>2021-03-19T15:15:05Z</time>
      </trkpt>
      <trkpt lat="44.81158" lon="6.96447">
        <ele>1853</ele>
        <time>2021-03-19T15:15:06Z</time>
      </trkpt>
      <trkpt lat="44.81158" lon="6.96446">
        <ele>1853</ele>
        <time>2021-03-19T15:15:07Z</time>
      </trkpt>
      <trkpt lat="44.81157" lon="6.96444">
        <ele>1853</ele>
        <time>2021-03-19T15:15:08Z</time>
      </trkpt>
      <trkpt lat="44.81157" lon="6.96442">
        <ele>1853</ele>
        <time>2021-03-19T15:15:09Z</time>
      </trkpt>
      <trkpt lat="44.81157" lon="6.96441">
        <ele>1853</ele>
        <time>2021-03-19T15:15:10Z</time>
      </trkpt>
      <trkpt lat="44.81157" lon="6.96439">
        <ele>1853</ele>
        <time>2021-03-19T15:15:11Z</time>
      </trkpt>
      <trkpt lat="44.81157" lon="6.96438">
        <ele>1853</ele>
        <time>2021-03-19T15:15:12Z</time>
      </trkpt>
      <trkpt lat="44.81156" lon="6.96436">
        <ele>1853</ele>
        <time>2021-03-19T15:15:13Z</time>
      </trkpt>
      <trkpt lat="44.81156" lon="6.96435">
        <ele>1853</ele>
        <time>2021-03-19T15:15:14Z</time>
      </trkpt>
      <trkpt lat="44.81156" lon="6.96433">
        <ele>1853</ele>
        <time>2021-03-19T15:15:15Z</time>
      </trkpt>
      <trkpt lat="44.81156" lon="6.96432">
        <ele>1853</ele>
        <time>2021-03-19T15:15:16Z</time>
      </trkpt>
      <trkpt lat="44.81156" lon="6.9643">
        <ele>1853</ele>
        <time>2021-03-19T15:15:17Z</time>
      </trkpt>
      <trkpt lat="44.81156" lon="6.96428">
        <ele>1853</ele>
        <time>2021-03-19T15:15:18Z</time>
      </trkpt>
      <trkpt lat="44.81156" lon="6.96427">
        <ele>1853</ele>
        <time>2021-03-19T15:15:19Z</time>
      </trkpt>
      <trkpt lat="44.81155" lon="6.96425">
        <ele>1853</ele>
        <time>2021-03-19T15:15:20Z</time>
      </trkpt>
      <trkpt lat="44.81155" lon="6.96424">
        <ele>1853</ele>
        <time>2021-03-19T15:15:21Z</time>
      </trkpt>
      <trkpt lat="44.81155" lon="6.96422">
        <ele>1853</ele>
        <time>2021-03-19T15:15:22Z</time>
      </trkpt>
      <trkpt lat="44.81155" lon="6.96421">
        <ele>1852</ele>
        <time>2021-03-19T15:15:23Z</time>
      </trkpt>
      <trkpt lat="44.81155" lon="6.96419">
        <ele>1852</ele>
        <time>2021-03-19T15:15:24Z</time>
      </trkpt>
      <trkpt lat="44.81155" lon="6.96418">
        <ele>1852</ele>
        <time>2021-03-19T15:15:25Z</time>
      </trkpt>
      <trkpt lat="44.81155" lon="6.96417">
        <ele>1852</ele>
        <time>2021-03-19T15:15:26Z</time>
      </trkpt>
      <trkpt lat="44.81155" lon="6.96416">
        <ele>1852</ele>
        <time>2021-03-19T15:15:27Z</time>
      </trkpt>
      <trkpt lat="44.81155" lon="6.96414">
        <ele>1852</ele>
        <time>2021-03-19T15:15:28Z</time>
      </trkpt>
      <trkpt lat="44.81155" lon="6.96413">
        <ele>1852</ele>
        <time>2021-03-19T15:15:29Z</time>
      </trkpt>
      <trkpt lat="44.81155" lon="6.96412">
        <ele>1852</ele>
        <time>2021-03-19T15:15:30Z</time>
      </trkpt>
      <trkpt lat="44.81155" lon="6.9641">
        <ele>1852</ele>
        <time>2021-03-19T15:15:31Z</time>
      </trkpt>
      <trkpt lat="44.81155" lon="6.96409">
        <ele>1852</ele>
        <time>2021-03-19T15:15:32Z</time>
      </trkpt>
      <trkpt lat="44.81155" lon="6.96408">
        <ele>1852</ele>
        <time>2021-03-19T15:15:33Z</time>
      </trkpt>
      <trkpt lat="44.81155" lon="6.96406">
        <ele>1852</ele>
        <time>2021-03-19T15:15:34Z</time>
      </trkpt>
      <trkpt lat="44.81155" lon="6.96405">
        <ele>1852</ele>
        <time>2021-03-19T15:15:35Z</time>
      </trkpt>
      <trkpt lat="44.81155" lon="6.96403">
        <ele>1852</ele>
        <time>2021-03-19T15:15:36Z</time>
      </trkpt>
      <trkpt lat="44.81155" lon="6.96402">
        <ele>1852</ele>
        <time>2021-03-19T15:15:37Z</time>
      </trkpt>
      <trkpt lat="44.81155" lon="6.964">
        <ele>1852</ele>
        <time>2021-03-19T15:15:38Z</time>
      </trkpt>
      <trkpt lat="44.81155" lon="6.96399">
        <ele>1852</ele>
        <time>2021-03-19T15:15:39Z</time>
      </trkpt>
      <trkpt lat="44.81154" lon="6.96398">
        <ele>1852</ele>
        <time>2021-03-19T15:15:40Z</time>
      </trkpt>
      <trkpt lat="44.81154" lon="6.96396">
        <ele>1852</ele>
        <time>2021-03-19T15:15:41Z</time>
      </trkpt>
      <trkpt lat="44.81154" lon="6.96395">
        <ele>1852</ele>
        <time>2021-03-19T15:15:42Z</time>
      </trkpt>
      <trkpt lat="44.81154" lon="6.96394">
        <ele>1851</ele>
        <time>2021-03-19T15:15:43Z</time>
      </trkpt>
      <trkpt lat="44.81153" lon="6.96393">
        <ele>1851</ele>
        <time>2021-03-19T15:15:44Z</time>
      </trkpt>
      <trkpt lat="44.81153" lon="6.96391">
        <ele>1851</ele>
        <time>2021-03-19T15:15:45Z</time>
      </trkpt>
      <trkpt lat="44.81153" lon="6.9639">
        <ele>1851</ele>
        <time>2021-03-19T15:15:46Z</time>
      </trkpt>
      <trkpt lat="44.81153" lon="6.96389">
        <ele>1851</ele>
        <time>2021-03-19T15:15:47Z</time>
      </trkpt>
      <trkpt lat="44.81153" lon="6.96387">
        <ele>1851</ele>
        <time>2021-03-19T15:15:48Z</time>
      </trkpt>
      <trkpt lat="44.81153" lon="6.96386">
        <ele>1851</ele>
        <time>2021-03-19T15:15:49Z</time>
      </trkpt>
      <trkpt lat="44.81153" lon="6.96385">
        <ele>1851</ele>
        <time>2021-03-19T15:15:50Z</time>
      </trkpt>
      <trkpt lat="44.81153" lon="6.96383">
        <ele>1851</ele>
        <time>2021-03-19T15:15:51Z</time>
      </trkpt>
      <trkpt lat="44.81153" lon="6.96382">
        <ele>1851</ele>
        <time>2021-03-19T15:15:52Z</time>
      </trkpt>
      <trkpt lat="44.81153" lon="6.96381">
        <ele>1851</ele>
        <time>2021-03-19T15:15:53Z</time>
      </trkpt>
      <trkpt lat="44.81153" lon="6.96379">
        <ele>1851</ele>
        <time>2021-03-19T15:15:54Z</time>
      </trkpt>
      <trkpt lat="44.81153" lon="6.96378">
        <ele>1851</ele>
        <time>2021-03-19T15:15:55Z</time>
      </trkpt>
      <trkpt lat="44.81153" lon="6.96377">
        <ele>1851</ele>
        <time>2021-03-19T15:15:56Z</time>
      </trkpt>
      <trkpt lat="44.81153" lon="6.96375">
        <ele>1851</ele>
        <time>2021-03-19T15:15:57Z</time>
      </trkpt>
      <trkpt lat="44.81153" lon="6.96374">
        <ele>1851</ele>
        <time>2021-03-19T15:15:58Z</time>
      </trkpt>
      <trkpt lat="44.81153" lon="6.96372">
        <ele>1851</ele>
        <time>2021-03-19T15:15:59Z</time>
      </trkpt>
      <trkpt lat="44.81153" lon="6.96371">
        <ele>1851</ele>
        <time>2021-03-19T15:16:00Z</time>
      </trkpt>
      <trkpt lat="44.81153" lon="6.9637">
        <ele>1851</ele>
        <time>2021-03-19T15:16:01Z</time>
      </trkpt>
      <trkpt lat="44.81153" lon="6.96368">
        <ele>1851</ele>
        <time>2021-03-19T15:16:02Z</time>
      </trkpt>
      <trkpt lat="44.81153" lon="6.96367">
        <ele>1851</ele>
        <time>2021-03-19T15:16:03Z</time>
      </trkpt>
      <trkpt lat="44.81153" lon="6.96365">
        <ele>1851</ele>
        <time>2021-03-19T15:16:04Z</time>
      </trkpt>
      <trkpt lat="44.81153" lon="6.96364">
        <ele>1851</ele>
        <time>2021-03-19T15:16:05Z</time>
      </trkpt>
      <trkpt lat="44.81153" lon="6.96363">
        <ele>1851</ele>
        <time>2021-03-19T15:16:06Z</time>
      </trkpt>
      <trkpt lat="44.81153" lon="6.96361">
        <ele>1851</ele>
        <time>2021-03-19T15:16:07Z</time>
      </trkpt>
      <trkpt lat="44.81153" lon="6.9636">
        <ele>1850</ele>
        <time>2021-03-19T15:16:08Z</time>
      </trkpt>
      <trkpt lat="44.81153" lon="6.96359">
        <ele>1850</ele>
        <time>2021-03-19T15:16:09Z</time>
      </trkpt>
      <trkpt lat="44.81153" lon="6.96358">
        <ele>1850</ele>
        <time>2021-03-19T15:16:10Z</time>
      </trkpt>
      <trkpt lat="44.81153" lon="6.96356">
        <ele>1850</ele>
        <time>2021-03-19T15:16:11Z</time>
      </trkpt>
      <trkpt lat="44.81153" lon="6.96355">
        <ele>1850</ele>
        <time>2021-03-19T15:16:12Z</time>
      </trkpt>
      <trkpt lat="44.81153" lon="6.96354">
        <ele>1850</ele>
        <time>2021-03-19T15:16:13Z</time>
      </trkpt>
      <trkpt lat="44.81154" lon="6.96354">
        <ele>1850</ele>
        <time>2021-03-19T15:16:14Z</time>
      </trkpt>
      <trkpt lat="44.81154" lon="6.96353">
        <ele>1850</ele>
        <time>2021-03-19T15:16:15Z</time>
      </trkpt>
      <trkpt lat="44.81154" lon="6.96352">
        <ele>1850</ele>
        <time>2021-03-19T15:16:16Z</time>
      </trkpt>
      <trkpt lat="44.81154" lon="6.96351">
        <ele>1850</ele>
        <time>2021-03-19T15:16:17Z</time>
      </trkpt>
      <trkpt lat="44.81154" lon="6.9635">
        <ele>1850</ele>
        <time>2021-03-19T15:16:18Z</time>
      </trkpt>
      <trkpt lat="44.81154" lon="6.96349">
        <ele>1850</ele>
        <time>2021-03-19T15:16:19Z</time>
      </trkpt>
      <trkpt lat="44.81154" lon="6.96348">
        <ele>1850</ele>
        <time>2021-03-19T15:16:20Z</time>
      </trkpt>
      <trkpt lat="44.81154" lon="6.96347">
        <ele>1850</ele>
        <time>2021-03-19T15:16:21Z</time>
      </trkpt>
      <trkpt lat="44.81153" lon="6.96346">
        <ele>1850</ele>
        <time>2021-03-19T15:16:22Z</time>
      </trkpt>
      <trkpt lat="44.81153" lon="6.96345">
        <ele>1850</ele>
        <time>2021-03-19T15:16:23Z</time>
      </trkpt>
      <trkpt lat="44.81153" lon="6.96343">
        <ele>1850</ele>
        <time>2021-03-19T15:16:24Z</time>
      </trkpt>
      <trkpt lat="44.81153" lon="6.96342">
        <ele>1850</ele>
        <time>2021-03-19T15:16:25Z</time>
      </trkpt>
      <trkpt lat="44.81153" lon="6.9634">
        <ele>1850</ele>
        <time>2021-03-19T15:16:26Z</time>
      </trkpt>
      <trkpt lat="44.81154" lon="6.96339">
        <ele>1850</ele>
        <time>2021-03-19T15:16:27Z</time>
      </trkpt>
      <trkpt lat="44.81154" lon="6.96337">
        <ele>1850</ele>
        <time>2021-03-19T15:16:28Z</time>
      </trkpt>
      <trkpt lat="44.81154" lon="6.96336">
        <ele>1850</ele>
        <time>2021-03-19T15:16:29Z</time>
      </trkpt>
      <trkpt lat="44.81154" lon="6.96335">
        <ele>1850</ele>
        <time>2021-03-19T15:16:30Z</time>
      </trkpt>
      <trkpt lat="44.81154" lon="6.96333">
        <ele>1850</ele>
        <time>2021-03-19T15:16:31Z</time>
      </trkpt>
      <trkpt lat="44.81154" lon="6.96332">
        <ele>1850</ele>
        <time>2021-03-19T15:16:32Z</time>
      </trkpt>
      <trkpt lat="44.81155" lon="6.96331">
        <ele>1849</ele>
        <time>2021-03-19T15:16:33Z</time>
      </trkpt>
      <trkpt lat="44.81155" lon="6.96329">
        <ele>1849</ele>
        <time>2021-03-19T15:16:34Z</time>
      </trkpt>
      <trkpt lat="44.81155" lon="6.96328">
        <ele>1849</ele>
        <time>2021-03-19T15:16:35Z</time>
      </trkpt>
      <trkpt lat="44.81155" lon="6.96326">
        <ele>1849</ele>
        <time>2021-03-19T15:16:36Z</time>
      </trkpt>
      <trkpt lat="44.81155" lon="6.96325">
        <ele>1849</ele>
        <time>2021-03-19T15:16:37Z</time>
      </trkpt>
      <trkpt lat="44.81155" lon="6.96323">
        <ele>1849</ele>
        <time>2021-03-19T15:16:38Z</time>
      </trkpt>
      <trkpt lat="44.81155" lon="6.96322">
        <ele>1849</ele>
        <time>2021-03-19T15:16:39Z</time>
      </trkpt>
      <trkpt lat="44.81155" lon="6.96321">
        <ele>1849</ele>
        <time>2021-03-19T15:16:40Z</time>
      </trkpt>
      <trkpt lat="44.81155" lon="6.9632">
        <ele>1849</ele>
        <time>2021-03-19T15:16:41Z</time>
      </trkpt>
      <trkpt lat="44.81155" lon="6.96318">
        <ele>1849</ele>
        <time>2021-03-19T15:16:42Z</time>
      </trkpt>
      <trkpt lat="44.81155" lon="6.96317">
        <ele>1849</ele>
        <time>2021-03-19T15:16:43Z</time>
      </trkpt>
      <trkpt lat="44.81155" lon="6.96315">
        <ele>1849</ele>
        <time>2021-03-19T15:16:44Z</time>
      </trkpt>
      <trkpt lat="44.81155" lon="6.96314">
        <ele>1849</ele>
        <time>2021-03-19T15:16:45Z</time>
      </trkpt>
      <trkpt lat="44.81155" lon="6.96313">
        <ele>1849</ele>
        <time>2021-03-19T15:16:46Z</time>
      </trkpt>
      <trkpt lat="44.81156" lon="6.96311">
        <ele>1849</ele>
        <time>2021-03-19T15:16:47Z</time>
      </trkpt>
      <trkpt lat="44.81156" lon="6.9631">
        <ele>1849</ele>
        <time>2021-03-19T15:16:48Z</time>
      </trkpt>
      <trkpt lat="44.81156" lon="6.96308">
        <ele>1849</ele>
        <time>2021-03-19T15:16:49Z</time>
      </trkpt>
      <trkpt lat="44.81156" lon="6.96307">
        <ele>1849</ele>
        <time>2021-03-19T15:16:50Z</time>
      </trkpt>
      <trkpt lat="44.81156" lon="6.96305">
        <ele>1849</ele>
        <time>2021-03-19T15:16:51Z</time>
      </trkpt>
      <trkpt lat="44.81156" lon="6.96304">
        <ele>1849</ele>
        <time>2021-03-19T15:16:52Z</time>
      </trkpt>
      <trkpt lat="44.81156" lon="6.96303">
        <ele>1849</ele>
        <time>2021-03-19T15:16:53Z</time>
      </trkpt>
      <trkpt lat="44.81156" lon="6.96301">
        <ele>1849</ele>
        <time>2021-03-19T15:16:54Z</time>
      </trkpt>
      <trkpt lat="44.81157" lon="6.963">
        <ele>1849</ele>
        <time>2021-03-19T15:16:55Z</time>
      </trkpt>
      <trkpt lat="44.81157" lon="6.96298">
        <ele>1849</ele>
        <time>2021-03-19T15:16:56Z</time>
      </trkpt>
      <trkpt lat="44.81157" lon="6.96297">
        <ele>1849</ele>
        <time>2021-03-19T15:16:57Z</time>
      </trkpt>
      <trkpt lat="44.81157" lon="6.96295">
        <ele>1848</ele>
        <time>2021-03-19T15:16:58Z</time>
      </trkpt>
      <trkpt lat="44.81157" lon="6.96294">
        <ele>1848</ele>
        <time>2021-03-19T15:16:59Z</time>
      </trkpt>
      <trkpt lat="44.81157" lon="6.96293">
        <ele>1848</ele>
        <time>2021-03-19T15:17:00Z</time>
      </trkpt>
      <trkpt lat="44.81157" lon="6.96291">
        <ele>1848</ele>
        <time>2021-03-19T15:17:01Z</time>
      </trkpt>
      <trkpt lat="44.81158" lon="6.9629">
        <ele>1848</ele>
        <time>2021-03-19T15:17:02Z</time>
      </trkpt>
      <trkpt lat="44.81158" lon="6.96288">
        <ele>1848</ele>
        <time>2021-03-19T15:17:03Z</time>
      </trkpt>
      <trkpt lat="44.81158" lon="6.96287">
        <ele>1848</ele>
        <time>2021-03-19T15:17:04Z</time>
      </trkpt>
      <trkpt lat="44.81158" lon="6.96285">
        <ele>1848</ele>
        <time>2021-03-19T15:17:05Z</time>
      </trkpt>
      <trkpt lat="44.81158" lon="6.96284">
        <ele>1848</ele>
        <time>2021-03-19T15:17:06Z</time>
      </trkpt>
      <trkpt lat="44.81158" lon="6.96283">
        <ele>1848</ele>
        <time>2021-03-19T15:17:07Z</time>
      </trkpt>
      <trkpt lat="44.81158" lon="6.96281">
        <ele>1848</ele>
        <time>2021-03-19T15:17:08Z</time>
      </trkpt>
      <trkpt lat="44.81158" lon="6.9628">
        <ele>1848</ele>
        <time>2021-03-19T15:17:09Z</time>
      </trkpt>
      <trkpt lat="44.81158" lon="6.96279">
        <ele>1848</ele>
        <time>2021-03-19T15:17:10Z</time>
      </trkpt>
      <trkpt lat="44.81158" lon="6.96277">
        <ele>1848</ele>
        <time>2021-03-19T15:17:11Z</time>
      </trkpt>
      <trkpt lat="44.81159" lon="6.96276">
        <ele>1848</ele>
        <time>2021-03-19T15:17:12Z</time>
      </trkpt>
      <trkpt lat="44.81159" lon="6.96275">
        <ele>1848</ele>
        <time>2021-03-19T15:17:13Z</time>
      </trkpt>
      <trkpt lat="44.81159" lon="6.96274">
        <ele>1848</ele>
        <time>2021-03-19T15:17:14Z</time>
      </trkpt>
      <trkpt lat="44.81159" lon="6.96273">
        <ele>1848</ele>
        <time>2021-03-19T15:17:15Z</time>
      </trkpt>
      <trkpt lat="44.8116" lon="6.96271">
        <ele>1848</ele>
        <time>2021-03-19T15:17:16Z</time>
      </trkpt>
      <trkpt lat="44.8116" lon="6.9627">
        <ele>1848</ele>
        <time>2021-03-19T15:17:17Z</time>
      </trkpt>
      <trkpt lat="44.8116" lon="6.96269">
        <ele>1847</ele>
        <time>2021-03-19T15:17:18Z</time>
      </trkpt>
      <trkpt lat="44.8116" lon="6.96267">
        <ele>1847</ele>
        <time>2021-03-19T15:17:19Z</time>
      </trkpt>
      <trkpt lat="44.8116" lon="6.96266">
        <ele>1847</ele>
        <time>2021-03-19T15:17:20Z</time>
      </trkpt>
      <trkpt lat="44.81161" lon="6.96265">
        <ele>1847</ele>
        <time>2021-03-19T15:17:21Z</time>
      </trkpt>
      <trkpt lat="44.81161" lon="6.96264">
        <ele>1847</ele>
        <time>2021-03-19T15:17:22Z</time>
      </trkpt>
      <trkpt lat="44.81161" lon="6.96263">
        <ele>1847</ele>
        <time>2021-03-19T15:17:23Z</time>
      </trkpt>
      <trkpt lat="44.81162" lon="6.96262">
        <ele>1847</ele>
        <time>2021-03-19T15:17:24Z</time>
      </trkpt>
      <trkpt lat="44.81163" lon="6.96261">
        <ele>1847</ele>
        <time>2021-03-19T15:17:25Z</time>
      </trkpt>
      <trkpt lat="44.81163" lon="6.9626">
        <ele>1847</ele>
        <time>2021-03-19T15:17:26Z</time>
      </trkpt>
      <trkpt lat="44.81164" lon="6.9626">
        <ele>1847</ele>
        <time>2021-03-19T15:17:27Z</time>
      </trkpt>
      <trkpt lat="44.81165" lon="6.96259">
        <ele>1847</ele>
        <time>2021-03-19T15:17:28Z</time>
      </trkpt>
      <trkpt lat="44.81165" lon="6.96258">
        <ele>1847</ele>
        <time>2021-03-19T15:17:29Z</time>
      </trkpt>
      <trkpt lat="44.81166" lon="6.96257">
        <ele>1847</ele>
        <time>2021-03-19T15:17:30Z</time>
      </trkpt>
      <trkpt lat="44.81167" lon="6.96257">
        <ele>1847</ele>
        <time>2021-03-19T15:17:31Z</time>
      </trkpt>
      <trkpt lat="44.81167" lon="6.96255">
        <ele>1847</ele>
        <time>2021-03-19T15:17:32Z</time>
      </trkpt>
      <trkpt lat="44.81168" lon="6.96254">
        <ele>1847</ele>
        <time>2021-03-19T15:17:33Z</time>
      </trkpt>
      <trkpt lat="44.81168" lon="6.96253">
        <ele>1847</ele>
        <time>2021-03-19T15:17:34Z</time>
      </trkpt>
      <trkpt lat="44.81169" lon="6.96252">
        <ele>1847</ele>
        <time>2021-03-19T15:17:35Z</time>
      </trkpt>
      <trkpt lat="44.81169" lon="6.96251">
        <ele>1847</ele>
        <time>2021-03-19T15:17:36Z</time>
      </trkpt>
      <trkpt lat="44.8117" lon="6.96249">
        <ele>1847</ele>
        <time>2021-03-19T15:17:37Z</time>
      </trkpt>
      <trkpt lat="44.8117" lon="6.96248">
        <ele>1846</ele>
        <time>2021-03-19T15:17:38Z</time>
      </trkpt>
      <trkpt lat="44.81171" lon="6.96247">
        <ele>1846</ele>
        <time>2021-03-19T15:17:39Z</time>
      </trkpt>
      <trkpt lat="44.81172" lon="6.96246">
        <ele>1846</ele>
        <time>2021-03-19T15:17:40Z</time>
      </trkpt>
      <trkpt lat="44.81172" lon="6.96245">
        <ele>1846</ele>
        <time>2021-03-19T15:17:41Z</time>
      </trkpt>
      <trkpt lat="44.81173" lon="6.96244">
        <ele>1846</ele>
        <time>2021-03-19T15:17:42Z</time>
      </trkpt>
      <trkpt lat="44.81173" lon="6.96243">
        <ele>1846</ele>
        <time>2021-03-19T15:17:43Z</time>
      </trkpt>
      <trkpt lat="44.81174" lon="6.96241">
        <ele>1846</ele>
        <time>2021-03-19T15:17:44Z</time>
      </trkpt>
      <trkpt lat="44.81175" lon="6.9624">
        <ele>1846</ele>
        <time>2021-03-19T15:17:45Z</time>
      </trkpt>
      <trkpt lat="44.81176" lon="6.96239">
        <ele>1846</ele>
        <time>2021-03-19T15:17:46Z</time>
      </trkpt>
      <trkpt lat="44.81176" lon="6.96238">
        <ele>1846</ele>
        <time>2021-03-19T15:17:47Z</time>
      </trkpt>
      <trkpt lat="44.81177" lon="6.96237">
        <ele>1846</ele>
        <time>2021-03-19T15:17:48Z</time>
      </trkpt>
      <trkpt lat="44.81178" lon="6.96235">
        <ele>1846</ele>
        <time>2021-03-19T15:17:49Z</time>
      </trkpt>
      <trkpt lat="44.81178" lon="6.96234">
        <ele>1846</ele>
        <time>2021-03-19T15:17:50Z</time>
      </trkpt>
      <trkpt lat="44.81179" lon="6.96233">
        <ele>1846</ele>
        <time>2021-03-19T15:17:51Z</time>
      </trkpt>
      <trkpt lat="44.81179" lon="6.96232">
        <ele>1846</ele>
        <time>2021-03-19T15:17:52Z</time>
      </trkpt>
      <trkpt lat="44.8118" lon="6.9623">
        <ele>1846</ele>
        <time>2021-03-19T15:17:53Z</time>
      </trkpt>
      <trkpt lat="44.81181" lon="6.96229">
        <ele>1846</ele>
        <time>2021-03-19T15:17:54Z</time>
      </trkpt>
      <trkpt lat="44.81181" lon="6.96228">
        <ele>1846</ele>
        <time>2021-03-19T15:17:55Z</time>
      </trkpt>
      <trkpt lat="44.81182" lon="6.96227">
        <ele>1846</ele>
        <time>2021-03-19T15:17:56Z</time>
      </trkpt>
      <trkpt lat="44.81183" lon="6.96225">
        <ele>1846</ele>
        <time>2021-03-19T15:17:57Z</time>
      </trkpt>
      <trkpt lat="44.81183" lon="6.96224">
        <ele>1845</ele>
        <time>2021-03-19T15:17:58Z</time>
      </trkpt>
      <trkpt lat="44.81184" lon="6.96223">
        <ele>1845</ele>
        <time>2021-03-19T15:17:59Z</time>
      </trkpt>
      <trkpt lat="44.81184" lon="6.96221">
        <ele>1845</ele>
        <time>2021-03-19T15:18:00Z</time>
      </trkpt>
      <trkpt lat="44.81185" lon="6.9622">
        <ele>1845</ele>
        <time>2021-03-19T15:18:01Z</time>
      </trkpt>
      <trkpt lat="44.81185" lon="6.96219">
        <ele>1845</ele>
        <time>2021-03-19T15:18:02Z</time>
      </trkpt>
      <trkpt lat="44.81185" lon="6.96217">
        <ele>1845</ele>
        <time>2021-03-19T15:18:03Z</time>
      </trkpt>
      <trkpt lat="44.81186" lon="6.96216">
        <ele>1845</ele>
        <time>2021-03-19T15:18:04Z</time>
      </trkpt>
      <trkpt lat="44.81186" lon="6.96214">
        <ele>1845</ele>
        <time>2021-03-19T15:18:05Z</time>
      </trkpt>
      <trkpt lat="44.81186" lon="6.96213">
        <ele>1845</ele>
        <time>2021-03-19T15:18:06Z</time>
      </trkpt>
      <trkpt lat="44.81187" lon="6.96211">
        <ele>1845</ele>
        <time>2021-03-19T15:18:07Z</time>
      </trkpt>
      <trkpt lat="44.81187" lon="6.9621">
        <ele>1845</ele>
        <time>2021-03-19T15:18:08Z</time>
      </trkpt>
      <trkpt lat="44.81188" lon="6.96208">
        <ele>1845</ele>
        <time>2021-03-19T15:18:09Z</time>
      </trkpt>
      <trkpt lat="44.81188" lon="6.96207">
        <ele>1845</ele>
        <time>2021-03-19T15:18:10Z</time>
      </trkpt>
      <trkpt lat="44.81188" lon="6.96205">
        <ele>1845</ele>
        <time>2021-03-19T15:18:11Z</time>
      </trkpt>
      <trkpt lat="44.81188" lon="6.96204">
        <ele>1845</ele>
        <time>2021-03-19T15:18:12Z</time>
      </trkpt>
      <trkpt lat="44.81189" lon="6.96203">
        <ele>1845</ele>
        <time>2021-03-19T15:18:13Z</time>
      </trkpt>
      <trkpt lat="44.81189" lon="6.96202">
        <ele>1845</ele>
        <time>2021-03-19T15:18:14Z</time>
      </trkpt>
      <trkpt lat="44.81189" lon="6.96201">
        <ele>1845</ele>
        <time>2021-03-19T15:18:15Z</time>
      </trkpt>
      <trkpt lat="44.8119" lon="6.96199">
        <ele>1845</ele>
        <time>2021-03-19T15:18:16Z</time>
      </trkpt>
      <trkpt lat="44.8119" lon="6.96198">
        <ele>1845</ele>
        <time>2021-03-19T15:18:17Z</time>
      </trkpt>
      <trkpt lat="44.8119" lon="6.96197">
        <ele>1845</ele>
        <time>2021-03-19T15:18:18Z</time>
      </trkpt>
      <trkpt lat="44.81191" lon="6.96196">
        <ele>1845</ele>
        <time>2021-03-19T15:18:19Z</time>
      </trkpt>
      <trkpt lat="44.81191" lon="6.96194">
        <ele>1845</ele>
        <time>2021-03-19T15:18:20Z</time>
      </trkpt>
      <trkpt lat="44.81191" lon="6.96193">
        <ele>1845</ele>
        <time>2021-03-19T15:18:21Z</time>
      </trkpt>
      <trkpt lat="44.81192" lon="6.96192">
        <ele>1845</ele>
        <time>2021-03-19T15:18:22Z</time>
      </trkpt>
      <trkpt lat="44.81192" lon="6.96191">
        <ele>1844</ele>
        <time>2021-03-19T15:18:23Z</time>
      </trkpt>
      <trkpt lat="44.81192" lon="6.96189">
        <ele>1844</ele>
        <time>2021-03-19T15:18:24Z</time>
      </trkpt>
      <trkpt lat="44.81193" lon="6.96188">
        <ele>1844</ele>
        <time>2021-03-19T15:18:25Z</time>
      </trkpt>
      <trkpt lat="44.81193" lon="6.96187">
        <ele>1844</ele>
        <time>2021-03-19T15:18:26Z</time>
      </trkpt>
      <trkpt lat="44.81194" lon="6.96185">
        <ele>1844</ele>
        <time>2021-03-19T15:18:27Z</time>
      </trkpt>
      <trkpt lat="44.81194" lon="6.96184">
        <ele>1844</ele>
        <time>2021-03-19T15:18:28Z</time>
      </trkpt>
      <trkpt lat="44.81194" lon="6.96183">
        <ele>1844</ele>
        <time>2021-03-19T15:18:29Z</time>
      </trkpt>
      <trkpt lat="44.81194" lon="6.96182">
        <ele>1844</ele>
        <time>2021-03-19T15:18:30Z</time>
      </trkpt>
      <trkpt lat="44.81194" lon="6.9618">
        <ele>1844</ele>
        <time>2021-03-19T15:18:31Z</time>
      </trkpt>
      <trkpt lat="44.81194" lon="6.96179">
        <ele>1844</ele>
        <time>2021-03-19T15:18:32Z</time>
      </trkpt>
      <trkpt lat="44.81194" lon="6.96178">
        <ele>1844</ele>
        <time>2021-03-19T15:18:33Z</time>
      </trkpt>
      <trkpt lat="44.81194" lon="6.96176">
        <ele>1844</ele>
        <time>2021-03-19T15:18:34Z</time>
      </trkpt>
      <trkpt lat="44.81194" lon="6.96174">
        <ele>1844</ele>
        <time>2021-03-19T15:18:35Z</time>
      </trkpt>
      <trkpt lat="44.81194" lon="6.96173">
        <ele>1844</ele>
        <time>2021-03-19T15:18:36Z</time>
      </trkpt>
      <trkpt lat="44.81194" lon="6.96171">
        <ele>1844</ele>
        <time>2021-03-19T15:18:37Z</time>
      </trkpt>
      <trkpt lat="44.81194" lon="6.96169">
        <ele>1843</ele>
        <time>2021-03-19T15:18:38Z</time>
      </trkpt>
      <trkpt lat="44.81194" lon="6.96167">
        <ele>1843</ele>
        <time>2021-03-19T15:18:39Z</time>
      </trkpt>
      <trkpt lat="44.81194" lon="6.96165">
        <ele>1843</ele>
        <time>2021-03-19T15:18:40Z</time>
      </trkpt>
      <trkpt lat="44.81194" lon="6.96163">
        <ele>1843</ele>
        <time>2021-03-19T15:18:41Z</time>
      </trkpt>
      <trkpt lat="44.81194" lon="6.96162">
        <ele>1843</ele>
        <time>2021-03-19T15:18:42Z</time>
      </trkpt>
      <trkpt lat="44.81194" lon="6.9616">
        <ele>1843</ele>
        <time>2021-03-19T15:18:43Z</time>
      </trkpt>
      <trkpt lat="44.81193" lon="6.96158">
        <ele>1843</ele>
        <time>2021-03-19T15:18:44Z</time>
      </trkpt>
      <trkpt lat="44.81193" lon="6.96157">
        <ele>1843</ele>
        <time>2021-03-19T15:18:45Z</time>
      </trkpt>
      <trkpt lat="44.81193" lon="6.96156">
        <ele>1843</ele>
        <time>2021-03-19T15:18:46Z</time>
      </trkpt>
      <trkpt lat="44.81193" lon="6.96155">
        <ele>1843</ele>
        <time>2021-03-19T15:18:47Z</time>
      </trkpt>
      <trkpt lat="44.81193" lon="6.96154">
        <ele>1842</ele>
        <time>2021-03-19T15:18:48Z</time>
      </trkpt>
      <trkpt lat="44.81193" lon="6.96153">
        <ele>1842</ele>
        <time>2021-03-19T15:18:49Z</time>
      </trkpt>
      <trkpt lat="44.81192" lon="6.96151">
        <ele>1842</ele>
        <time>2021-03-19T15:18:50Z</time>
      </trkpt>
      <trkpt lat="44.81192" lon="6.9615">
        <ele>1842</ele>
        <time>2021-03-19T15:18:51Z</time>
      </trkpt>
      <trkpt lat="44.81192" lon="6.96149">
        <ele>1842</ele>
        <time>2021-03-19T15:18:52Z</time>
      </trkpt>
      <trkpt lat="44.81191" lon="6.96147">
        <ele>1842</ele>
        <time>2021-03-19T15:18:53Z</time>
      </trkpt>
      <trkpt lat="44.81191" lon="6.96146">
        <ele>1842</ele>
        <time>2021-03-19T15:18:54Z</time>
      </trkpt>
      <trkpt lat="44.81191" lon="6.96144">
        <ele>1842</ele>
        <time>2021-03-19T15:18:55Z</time>
      </trkpt>
      <trkpt lat="44.8119" lon="6.96143">
        <ele>1842</ele>
        <time>2021-03-19T15:18:56Z</time>
      </trkpt>
      <trkpt lat="44.8119" lon="6.96142">
        <ele>1842</ele>
        <time>2021-03-19T15:18:57Z</time>
      </trkpt>
      <trkpt lat="44.8119" lon="6.96141">
        <ele>1841</ele>
        <time>2021-03-19T15:18:58Z</time>
      </trkpt>
      <trkpt lat="44.8119" lon="6.9614">
        <ele>1841</ele>
        <time>2021-03-19T15:18:59Z</time>
      </trkpt>
      <trkpt lat="44.8119" lon="6.96138">
        <ele>1841</ele>
        <time>2021-03-19T15:19:00Z</time>
      </trkpt>
      <trkpt lat="44.8119" lon="6.96137">
        <ele>1841</ele>
        <time>2021-03-19T15:19:01Z</time>
      </trkpt>
      <trkpt lat="44.81189" lon="6.96136">
        <ele>1841</ele>
        <time>2021-03-19T15:19:02Z</time>
      </trkpt>
      <trkpt lat="44.81189" lon="6.96134">
        <ele>1841</ele>
        <time>2021-03-19T15:19:03Z</time>
      </trkpt>
      <trkpt lat="44.81188" lon="6.96133">
        <ele>1841</ele>
        <time>2021-03-19T15:19:04Z</time>
      </trkpt>
      <trkpt lat="44.81188" lon="6.96132">
        <ele>1841</ele>
        <time>2021-03-19T15:19:05Z</time>
      </trkpt>
      <trkpt lat="44.81188" lon="6.96131">
        <ele>1841</ele>
        <time>2021-03-19T15:19:06Z</time>
      </trkpt>
      <trkpt lat="44.81187" lon="6.9613">
        <ele>1841</ele>
        <time>2021-03-19T15:19:07Z</time>
      </trkpt>
      <trkpt lat="44.81187" lon="6.96128">
        <ele>1840</ele>
        <time>2021-03-19T15:19:08Z</time>
      </trkpt>
      <trkpt lat="44.81187" lon="6.96127">
        <ele>1840</ele>
        <time>2021-03-19T15:19:09Z</time>
      </trkpt>
      <trkpt lat="44.81187" lon="6.96126">
        <ele>1840</ele>
        <time>2021-03-19T15:19:10Z</time>
      </trkpt>
      <trkpt lat="44.81186" lon="6.96125">
        <ele>1840</ele>
        <time>2021-03-19T15:19:11Z</time>
      </trkpt>
      <trkpt lat="44.81186" lon="6.96123">
        <ele>1840</ele>
        <time>2021-03-19T15:19:12Z</time>
      </trkpt>
      <trkpt lat="44.81186" lon="6.96122">
        <ele>1840</ele>
        <time>2021-03-19T15:19:13Z</time>
      </trkpt>
      <trkpt lat="44.81186" lon="6.96121">
        <ele>1840</ele>
        <time>2021-03-19T15:19:14Z</time>
      </trkpt>
      <trkpt lat="44.81186" lon="6.9612">
        <ele>1840</ele>
        <time>2021-03-19T15:19:15Z</time>
      </trkpt>
      <trkpt lat="44.81185" lon="6.96118">
        <ele>1840</ele>
        <time>2021-03-19T15:19:16Z</time>
      </trkpt>
      <trkpt lat="44.81185" lon="6.96117">
        <ele>1840</ele>
        <time>2021-03-19T15:19:17Z</time>
      </trkpt>
      <trkpt lat="44.81185" lon="6.96116">
        <ele>1840</ele>
        <time>2021-03-19T15:19:18Z</time>
      </trkpt>
      <trkpt lat="44.81184" lon="6.96115">
        <ele>1840</ele>
        <time>2021-03-19T15:19:19Z</time>
      </trkpt>
      <trkpt lat="44.81184" lon="6.96113">
        <ele>1840</ele>
        <time>2021-03-19T15:19:20Z</time>
      </trkpt>
      <trkpt lat="44.81184" lon="6.96112">
        <ele>1840</ele>
        <time>2021-03-19T15:19:21Z</time>
      </trkpt>
      <trkpt lat="44.81183" lon="6.9611">
        <ele>1840</ele>
        <time>2021-03-19T15:19:22Z</time>
      </trkpt>
      <trkpt lat="44.81183" lon="6.96109">
        <ele>1839</ele>
        <time>2021-03-19T15:19:23Z</time>
      </trkpt>
      <trkpt lat="44.81182" lon="6.96107">
        <ele>1839</ele>
        <time>2021-03-19T15:19:24Z</time>
      </trkpt>
      <trkpt lat="44.81182" lon="6.96106">
        <ele>1839</ele>
        <time>2021-03-19T15:19:25Z</time>
      </trkpt>
      <trkpt lat="44.81181" lon="6.96105">
        <ele>1839</ele>
        <time>2021-03-19T15:19:26Z</time>
      </trkpt>
      <trkpt lat="44.81181" lon="6.96103">
        <ele>1839</ele>
        <time>2021-03-19T15:19:27Z</time>
      </trkpt>
      <trkpt lat="44.81181" lon="6.96102">
        <ele>1839</ele>
        <time>2021-03-19T15:19:28Z</time>
      </trkpt>
      <trkpt lat="44.8118" lon="6.96101">
        <ele>1839</ele>
        <time>2021-03-19T15:19:29Z</time>
      </trkpt>
      <trkpt lat="44.8118" lon="6.96099">
        <ele>1839</ele>
        <time>2021-03-19T15:19:30Z</time>
      </trkpt>
      <trkpt lat="44.8118" lon="6.96098">
        <ele>1839</ele>
        <time>2021-03-19T15:19:31Z</time>
      </trkpt>
      <trkpt lat="44.8118" lon="6.96097">
        <ele>1839</ele>
        <time>2021-03-19T15:19:32Z</time>
      </trkpt>
      <trkpt lat="44.8118" lon="6.96095">
        <ele>1838</ele>
        <time>2021-03-19T15:19:33Z</time>
      </trkpt>
      <trkpt lat="44.8118" lon="6.96094">
        <ele>1838</ele>
        <time>2021-03-19T15:19:34Z</time>
      </trkpt>
      <trkpt lat="44.8118" lon="6.96092">
        <ele>1838</ele>
        <time>2021-03-19T15:19:35Z</time>
      </trkpt>
      <trkpt lat="44.8118" lon="6.96091">
        <ele>1838</ele>
        <time>2021-03-19T15:19:36Z</time>
      </trkpt>
      <trkpt lat="44.8118" lon="6.96089">
        <ele>1838</ele>
        <time>2021-03-19T15:19:37Z</time>
      </trkpt>
      <trkpt lat="44.8118" lon="6.96088">
        <ele>1838</ele>
        <time>2021-03-19T15:19:38Z</time>
      </trkpt>
      <trkpt lat="44.8118" lon="6.96086">
        <ele>1838</ele>
        <time>2021-03-19T15:19:39Z</time>
      </trkpt>
      <trkpt lat="44.8118" lon="6.96085">
        <ele>1838</ele>
        <time>2021-03-19T15:19:40Z</time>
      </trkpt>
      <trkpt lat="44.81179" lon="6.96083">
        <ele>1838</ele>
        <time>2021-03-19T15:19:41Z</time>
      </trkpt>
      <trkpt lat="44.81179" lon="6.96081">
        <ele>1838</ele>
        <time>2021-03-19T15:19:42Z</time>
      </trkpt>
      <trkpt lat="44.81179" lon="6.9608">
        <ele>1838</ele>
        <time>2021-03-19T15:19:43Z</time>
      </trkpt>
      <trkpt lat="44.81179" lon="6.96078">
        <ele>1838</ele>
        <time>2021-03-19T15:19:44Z</time>
      </trkpt>
      <trkpt lat="44.8118" lon="6.96077">
        <ele>1838</ele>
        <time>2021-03-19T15:19:45Z</time>
      </trkpt>
      <trkpt lat="44.8118" lon="6.96075">
        <ele>1838</ele>
        <time>2021-03-19T15:19:46Z</time>
      </trkpt>
      <trkpt lat="44.8118" lon="6.96074">
        <ele>1838</ele>
        <time>2021-03-19T15:19:47Z</time>
      </trkpt>
      <trkpt lat="44.81179" lon="6.96072">
        <ele>1837</ele>
        <time>2021-03-19T15:19:48Z</time>
      </trkpt>
      <trkpt lat="44.81179" lon="6.96071">
        <ele>1837</ele>
        <time>2021-03-19T15:19:49Z</time>
      </trkpt>
      <trkpt lat="44.81178" lon="6.96069">
        <ele>1837</ele>
        <time>2021-03-19T15:19:50Z</time>
      </trkpt>
      <trkpt lat="44.81177" lon="6.96068">
        <ele>1837</ele>
        <time>2021-03-19T15:19:51Z</time>
      </trkpt>
      <trkpt lat="44.81177" lon="6.96066">
        <ele>1837</ele>
        <time>2021-03-19T15:19:52Z</time>
      </trkpt>
      <trkpt lat="44.81177" lon="6.96065">
        <ele>1837</ele>
        <time>2021-03-19T15:19:53Z</time>
      </trkpt>
      <trkpt lat="44.81177" lon="6.96064">
        <ele>1837</ele>
        <time>2021-03-19T15:19:54Z</time>
      </trkpt>
      <trkpt lat="44.81178" lon="6.96063">
        <ele>1837</ele>
        <time>2021-03-19T15:19:55Z</time>
      </trkpt>
      <trkpt lat="44.81178" lon="6.96061">
        <ele>1837</ele>
        <time>2021-03-19T15:19:56Z</time>
      </trkpt>
      <trkpt lat="44.81178" lon="6.9606">
        <ele>1837</ele>
        <time>2021-03-19T15:19:57Z</time>
      </trkpt>
      <trkpt lat="44.81179" lon="6.96059">
        <ele>1837</ele>
        <time>2021-03-19T15:19:58Z</time>
      </trkpt>
      <trkpt lat="44.81179" lon="6.96057">
        <ele>1837</ele>
        <time>2021-03-19T15:19:59Z</time>
      </trkpt>
      <trkpt lat="44.8118" lon="6.96056">
        <ele>1837</ele>
        <time>2021-03-19T15:20:00Z</time>
      </trkpt>
      <trkpt lat="44.8118" lon="6.96054">
        <ele>1837</ele>
        <time>2021-03-19T15:20:01Z</time>
      </trkpt>
      <trkpt lat="44.81181" lon="6.96053">
        <ele>1837</ele>
        <time>2021-03-19T15:20:02Z</time>
      </trkpt>
      <trkpt lat="44.81182" lon="6.96052">
        <ele>1837</ele>
        <time>2021-03-19T15:20:03Z</time>
      </trkpt>
      <trkpt lat="44.81183" lon="6.9605">
        <ele>1837</ele>
        <time>2021-03-19T15:20:04Z</time>
      </trkpt>
      <trkpt lat="44.81184" lon="6.96049">
        <ele>1837</ele>
        <time>2021-03-19T15:20:05Z</time>
      </trkpt>
      <trkpt lat="44.81184" lon="6.96049">
        <ele>1837</ele>
        <time>2021-03-19T15:20:06Z</time>
      </trkpt>
      <trkpt lat="44.81185" lon="6.96048">
        <ele>1837</ele>
        <time>2021-03-19T15:20:07Z</time>
      </trkpt>
      <trkpt lat="44.81186" lon="6.96047">
        <ele>1836</ele>
        <time>2021-03-19T15:20:08Z</time>
      </trkpt>
      <trkpt lat="44.81187" lon="6.96046">
        <ele>1836</ele>
        <time>2021-03-19T15:20:09Z</time>
      </trkpt>
      <trkpt lat="44.81187" lon="6.96044">
        <ele>1836</ele>
        <time>2021-03-19T15:20:10Z</time>
      </trkpt>
      <trkpt lat="44.81188" lon="6.96043">
        <ele>1836</ele>
        <time>2021-03-19T15:20:11Z</time>
      </trkpt>
      <trkpt lat="44.81188" lon="6.96042">
        <ele>1836</ele>
        <time>2021-03-19T15:20:12Z</time>
      </trkpt>
      <trkpt lat="44.81188" lon="6.96041">
        <ele>1836</ele>
        <time>2021-03-19T15:20:13Z</time>
      </trkpt>
      <trkpt lat="44.81189" lon="6.96039">
        <ele>1836</ele>
        <time>2021-03-19T15:20:14Z</time>
      </trkpt>
      <trkpt lat="44.81189" lon="6.96038">
        <ele>1836</ele>
        <time>2021-03-19T15:20:15Z</time>
      </trkpt>
      <trkpt lat="44.8119" lon="6.96037">
        <ele>1836</ele>
        <time>2021-03-19T15:20:16Z</time>
      </trkpt>
      <trkpt lat="44.81191" lon="6.96036">
        <ele>1836</ele>
        <time>2021-03-19T15:20:17Z</time>
      </trkpt>
      <trkpt lat="44.81191" lon="6.96034">
        <ele>1835</ele>
        <time>2021-03-19T15:20:18Z</time>
      </trkpt>
      <trkpt lat="44.81191" lon="6.96033">
        <ele>1835</ele>
        <time>2021-03-19T15:20:19Z</time>
      </trkpt>
      <trkpt lat="44.81192" lon="6.96031">
        <ele>1835</ele>
        <time>2021-03-19T15:20:20Z</time>
      </trkpt>
      <trkpt lat="44.81192" lon="6.9603">
        <ele>1835</ele>
        <time>2021-03-19T15:20:21Z</time>
      </trkpt>
      <trkpt lat="44.81192" lon="6.96029">
        <ele>1835</ele>
        <time>2021-03-19T15:20:22Z</time>
      </trkpt>
      <trkpt lat="44.81193" lon="6.96027">
        <ele>1834</ele>
        <time>2021-03-19T15:20:23Z</time>
      </trkpt>
      <trkpt lat="44.81193" lon="6.96026">
        <ele>1834</ele>
        <time>2021-03-19T15:20:24Z</time>
      </trkpt>
      <trkpt lat="44.81194" lon="6.96025">
        <ele>1834</ele>
        <time>2021-03-19T15:20:25Z</time>
      </trkpt>
      <trkpt lat="44.81195" lon="6.96024">
        <ele>1834</ele>
        <time>2021-03-19T15:20:26Z</time>
      </trkpt>
      <trkpt lat="44.81195" lon="6.96022">
        <ele>1834</ele>
        <time>2021-03-19T15:20:27Z</time>
      </trkpt>
      <trkpt lat="44.81196" lon="6.96021">
        <ele>1834</ele>
        <time>2021-03-19T15:20:28Z</time>
      </trkpt>
      <trkpt lat="44.81197" lon="6.9602">
        <ele>1834</ele>
        <time>2021-03-19T15:20:29Z</time>
      </trkpt>
      <trkpt lat="44.81197" lon="6.96018">
        <ele>1834</ele>
        <time>2021-03-19T15:20:30Z</time>
      </trkpt>
      <trkpt lat="44.81198" lon="6.96017">
        <ele>1834</ele>
        <time>2021-03-19T15:20:31Z</time>
      </trkpt>
      <trkpt lat="44.81199" lon="6.96015">
        <ele>1834</ele>
        <time>2021-03-19T15:20:32Z</time>
      </trkpt>
      <trkpt lat="44.81199" lon="6.96014">
        <ele>1833</ele>
        <time>2021-03-19T15:20:33Z</time>
      </trkpt>
      <trkpt lat="44.812" lon="6.96012">
        <ele>1833</ele>
        <time>2021-03-19T15:20:34Z</time>
      </trkpt>
      <trkpt lat="44.812" lon="6.96011">
        <ele>1833</ele>
        <time>2021-03-19T15:20:35Z</time>
      </trkpt>
      <trkpt lat="44.81201" lon="6.96009">
        <ele>1833</ele>
        <time>2021-03-19T15:20:36Z</time>
      </trkpt>
      <trkpt lat="44.81201" lon="6.96008">
        <ele>1833</ele>
        <time>2021-03-19T15:20:37Z</time>
      </trkpt>
      <trkpt lat="44.81202" lon="6.96007">
        <ele>1833</ele>
        <time>2021-03-19T15:20:38Z</time>
      </trkpt>
      <trkpt lat="44.81203" lon="6.96005">
        <ele>1833</ele>
        <time>2021-03-19T15:20:39Z</time>
      </trkpt>
      <trkpt lat="44.81204" lon="6.96004">
        <ele>1833</ele>
        <time>2021-03-19T15:20:40Z</time>
      </trkpt>
      <trkpt lat="44.81205" lon="6.96002">
        <ele>1833</ele>
        <time>2021-03-19T15:20:41Z</time>
      </trkpt>
      <trkpt lat="44.81205" lon="6.96001">
        <ele>1833</ele>
        <time>2021-03-19T15:20:42Z</time>
      </trkpt>
      <trkpt lat="44.81206" lon="6.96">
        <ele>1832</ele>
        <time>2021-03-19T15:20:43Z</time>
      </trkpt>
      <trkpt lat="44.81206" lon="6.95998">
        <ele>1832</ele>
        <time>2021-03-19T15:20:44Z</time>
      </trkpt>
      <trkpt lat="44.81206" lon="6.95997">
        <ele>1832</ele>
        <time>2021-03-19T15:20:45Z</time>
      </trkpt>
      <trkpt lat="44.81207" lon="6.95996">
        <ele>1832</ele>
        <time>2021-03-19T15:20:46Z</time>
      </trkpt>
      <trkpt lat="44.81207" lon="6.95995">
        <ele>1832</ele>
        <time>2021-03-19T15:20:47Z</time>
      </trkpt>
      <trkpt lat="44.81208" lon="6.95993">
        <ele>1832</ele>
        <time>2021-03-19T15:20:48Z</time>
      </trkpt>
      <trkpt lat="44.81208" lon="6.95992">
        <ele>1832</ele>
        <time>2021-03-19T15:20:49Z</time>
      </trkpt>
      <trkpt lat="44.81209" lon="6.95991">
        <ele>1832</ele>
        <time>2021-03-19T15:20:50Z</time>
      </trkpt>
      <trkpt lat="44.81209" lon="6.9599">
        <ele>1832</ele>
        <time>2021-03-19T15:20:51Z</time>
      </trkpt>
      <trkpt lat="44.8121" lon="6.95989">
        <ele>1832</ele>
        <time>2021-03-19T15:20:52Z</time>
      </trkpt>
      <trkpt lat="44.81211" lon="6.95988">
        <ele>1831</ele>
        <time>2021-03-19T15:20:53Z</time>
      </trkpt>
      <trkpt lat="44.81211" lon="6.95987">
        <ele>1831</ele>
        <time>2021-03-19T15:20:54Z</time>
      </trkpt>
      <trkpt lat="44.81212" lon="6.95986">
        <ele>1831</ele>
        <time>2021-03-19T15:20:55Z</time>
      </trkpt>
      <trkpt lat="44.81212" lon="6.95985">
        <ele>1831</ele>
        <time>2021-03-19T15:20:56Z</time>
      </trkpt>
      <trkpt lat="44.81213" lon="6.95984">
        <ele>1831</ele>
        <time>2021-03-19T15:20:57Z</time>
      </trkpt>
      <trkpt lat="44.81213" lon="6.95982">
        <ele>1831</ele>
        <time>2021-03-19T15:20:58Z</time>
      </trkpt>
      <trkpt lat="44.81214" lon="6.95981">
        <ele>1831</ele>
        <time>2021-03-19T15:20:59Z</time>
      </trkpt>
      <trkpt lat="44.81215" lon="6.9598">
        <ele>1831</ele>
        <time>2021-03-19T15:21:00Z</time>
      </trkpt>
      <trkpt lat="44.81215" lon="6.95979">
        <ele>1831</ele>
        <time>2021-03-19T15:21:01Z</time>
      </trkpt>
      <trkpt lat="44.81216" lon="6.95978">
        <ele>1831</ele>
        <time>2021-03-19T15:21:02Z</time>
      </trkpt>
      <trkpt lat="44.81217" lon="6.95977">
        <ele>1830</ele>
        <time>2021-03-19T15:21:03Z</time>
      </trkpt>
      <trkpt lat="44.81218" lon="6.95976">
        <ele>1830</ele>
        <time>2021-03-19T15:21:04Z</time>
      </trkpt>
      <trkpt lat="44.81219" lon="6.95975">
        <ele>1830</ele>
        <time>2021-03-19T15:21:05Z</time>
      </trkpt>
      <trkpt lat="44.8122" lon="6.95974">
        <ele>1830</ele>
        <time>2021-03-19T15:21:06Z</time>
      </trkpt>
      <trkpt lat="44.8122" lon="6.95973">
        <ele>1830</ele>
        <time>2021-03-19T15:21:07Z</time>
      </trkpt>
      <trkpt lat="44.81221" lon="6.95972">
        <ele>1829</ele>
        <time>2021-03-19T15:21:08Z</time>
      </trkpt>
      <trkpt lat="44.81221" lon="6.95971">
        <ele>1829</ele>
        <time>2021-03-19T15:21:09Z</time>
      </trkpt>
      <trkpt lat="44.81222" lon="6.9597">
        <ele>1829</ele>
        <time>2021-03-19T15:21:10Z</time>
      </trkpt>
      <trkpt lat="44.81222" lon="6.9597">
        <ele>1829</ele>
        <time>2021-03-19T15:21:11Z</time>
      </trkpt>
      <trkpt lat="44.81223" lon="6.95968">
        <ele>1829</ele>
        <time>2021-03-19T15:21:12Z</time>
      </trkpt>
      <trkpt lat="44.81223" lon="6.95967">
        <ele>1829</ele>
        <time>2021-03-19T15:21:13Z</time>
      </trkpt>
      <trkpt lat="44.81223" lon="6.95966">
        <ele>1829</ele>
        <time>2021-03-19T15:21:14Z</time>
      </trkpt>
      <trkpt lat="44.81224" lon="6.95965">
        <ele>1829</ele>
        <time>2021-03-19T15:21:15Z</time>
      </trkpt>
      <trkpt lat="44.81224" lon="6.95964">
        <ele>1829</ele>
        <time>2021-03-19T15:21:16Z</time>
      </trkpt>
      <trkpt lat="44.81224" lon="6.95962">
        <ele>1829</ele>
        <time>2021-03-19T15:21:17Z</time>
      </trkpt>
      <trkpt lat="44.81224" lon="6.95961">
        <ele>1828</ele>
        <time>2021-03-19T15:21:18Z</time>
      </trkpt>
      <trkpt lat="44.81225" lon="6.9596">
        <ele>1828</ele>
        <time>2021-03-19T15:21:19Z</time>
      </trkpt>
      <trkpt lat="44.81225" lon="6.95959">
        <ele>1828</ele>
        <time>2021-03-19T15:21:20Z</time>
      </trkpt>
      <trkpt lat="44.81225" lon="6.95958">
        <ele>1828</ele>
        <time>2021-03-19T15:21:21Z</time>
      </trkpt>
      <trkpt lat="44.81226" lon="6.95957">
        <ele>1828</ele>
        <time>2021-03-19T15:21:22Z</time>
      </trkpt>
      <trkpt lat="44.81226" lon="6.95955">
        <ele>1827</ele>
        <time>2021-03-19T15:21:23Z</time>
      </trkpt>
      <trkpt lat="44.81226" lon="6.95954">
        <ele>1827</ele>
        <time>2021-03-19T15:21:24Z</time>
      </trkpt>
      <trkpt lat="44.81227" lon="6.95953">
        <ele>1827</ele>
        <time>2021-03-19T15:21:25Z</time>
      </trkpt>
      <trkpt lat="44.81227" lon="6.95951">
        <ele>1827</ele>
        <time>2021-03-19T15:21:26Z</time>
      </trkpt>
      <trkpt lat="44.81228" lon="6.9595">
        <ele>1827</ele>
        <time>2021-03-19T15:21:27Z</time>
      </trkpt>
      <trkpt lat="44.81228" lon="6.95948">
        <ele>1827</ele>
        <time>2021-03-19T15:21:28Z</time>
      </trkpt>
      <trkpt lat="44.81229" lon="6.95947">
        <ele>1827</ele>
        <time>2021-03-19T15:21:29Z</time>
      </trkpt>
      <trkpt lat="44.81229" lon="6.95946">
        <ele>1827</ele>
        <time>2021-03-19T15:21:30Z</time>
      </trkpt>
      <trkpt lat="44.8123" lon="6.95944">
        <ele>1827</ele>
        <time>2021-03-19T15:21:31Z</time>
      </trkpt>
      <trkpt lat="44.8123" lon="6.95943">
        <ele>1827</ele>
        <time>2021-03-19T15:21:32Z</time>
      </trkpt>
      <trkpt lat="44.8123" lon="6.95942">
        <ele>1827</ele>
        <time>2021-03-19T15:21:33Z</time>
      </trkpt>
      <trkpt lat="44.81231" lon="6.9594">
        <ele>1827</ele>
        <time>2021-03-19T15:21:34Z</time>
      </trkpt>
      <trkpt lat="44.81231" lon="6.95939">
        <ele>1827</ele>
        <time>2021-03-19T15:21:35Z</time>
      </trkpt>
      <trkpt lat="44.81231" lon="6.95937">
        <ele>1827</ele>
        <time>2021-03-19T15:21:36Z</time>
      </trkpt>
      <trkpt lat="44.81232" lon="6.95936">
        <ele>1827</ele>
        <time>2021-03-19T15:21:37Z</time>
      </trkpt>
      <trkpt lat="44.81232" lon="6.95935">
        <ele>1826</ele>
        <time>2021-03-19T15:21:38Z</time>
      </trkpt>
      <trkpt lat="44.81232" lon="6.95933">
        <ele>1826</ele>
        <time>2021-03-19T15:21:39Z</time>
      </trkpt>
      <trkpt lat="44.81232" lon="6.95932">
        <ele>1826</ele>
        <time>2021-03-19T15:21:40Z</time>
      </trkpt>
      <trkpt lat="44.81232" lon="6.95931">
        <ele>1826</ele>
        <time>2021-03-19T15:21:41Z</time>
      </trkpt>
      <trkpt lat="44.81232" lon="6.9593">
        <ele>1826</ele>
        <time>2021-03-19T15:21:42Z</time>
      </trkpt>
      <trkpt lat="44.81232" lon="6.95928">
        <ele>1826</ele>
        <time>2021-03-19T15:21:43Z</time>
      </trkpt>
      <trkpt lat="44.81232" lon="6.95927">
        <ele>1826</ele>
        <time>2021-03-19T15:21:44Z</time>
      </trkpt>
      <trkpt lat="44.81232" lon="6.95926">
        <ele>1826</ele>
        <time>2021-03-19T15:21:45Z</time>
      </trkpt>
      <trkpt lat="44.81232" lon="6.95925">
        <ele>1826</ele>
        <time>2021-03-19T15:21:46Z</time>
      </trkpt>
      <trkpt lat="44.81232" lon="6.95924">
        <ele>1826</ele>
        <time>2021-03-19T15:21:47Z</time>
      </trkpt>
      <trkpt lat="44.81233" lon="6.95922">
        <ele>1825</ele>
        <time>2021-03-19T15:21:48Z</time>
      </trkpt>
      <trkpt lat="44.81233" lon="6.95921">
        <ele>1825</ele>
        <time>2021-03-19T15:21:49Z</time>
      </trkpt>
      <trkpt lat="44.81233" lon="6.9592">
        <ele>1825</ele>
        <time>2021-03-19T15:21:50Z</time>
      </trkpt>
      <trkpt lat="44.81233" lon="6.95918">
        <ele>1825</ele>
        <time>2021-03-19T15:21:51Z</time>
      </trkpt>
      <trkpt lat="44.81234" lon="6.95917">
        <ele>1825</ele>
        <time>2021-03-19T15:21:52Z</time>
      </trkpt>
      <trkpt lat="44.81234" lon="6.95916">
        <ele>1824</ele>
        <time>2021-03-19T15:21:53Z</time>
      </trkpt>
      <trkpt lat="44.81234" lon="6.95914">
        <ele>1824</ele>
        <time>2021-03-19T15:21:54Z</time>
      </trkpt>
      <trkpt lat="44.81235" lon="6.95913">
        <ele>1824</ele>
        <time>2021-03-19T15:21:55Z</time>
      </trkpt>
      <trkpt lat="44.81235" lon="6.95911">
        <ele>1824</ele>
        <time>2021-03-19T15:21:56Z</time>
      </trkpt>
      <trkpt lat="44.81235" lon="6.9591">
        <ele>1824</ele>
        <time>2021-03-19T15:21:57Z</time>
      </trkpt>
      <trkpt lat="44.81235" lon="6.95909">
        <ele>1824</ele>
        <time>2021-03-19T15:21:58Z</time>
      </trkpt>
      <trkpt lat="44.81235" lon="6.95907">
        <ele>1824</ele>
        <time>2021-03-19T15:21:59Z</time>
      </trkpt>
      <trkpt lat="44.81236" lon="6.95906">
        <ele>1824</ele>
        <time>2021-03-19T15:22:00Z</time>
      </trkpt>
      <trkpt lat="44.81236" lon="6.95905">
        <ele>1824</ele>
        <time>2021-03-19T15:22:01Z</time>
      </trkpt>
      <trkpt lat="44.81236" lon="6.95903">
        <ele>1824</ele>
        <time>2021-03-19T15:22:02Z</time>
      </trkpt>
      <trkpt lat="44.81236" lon="6.95902">
        <ele>1824</ele>
        <time>2021-03-19T15:22:03Z</time>
      </trkpt>
      <trkpt lat="44.81236" lon="6.959">
        <ele>1824</ele>
        <time>2021-03-19T15:22:04Z</time>
      </trkpt>
      <trkpt lat="44.81236" lon="6.95899">
        <ele>1824</ele>
        <time>2021-03-19T15:22:05Z</time>
      </trkpt>
      <trkpt lat="44.81236" lon="6.95898">
        <ele>1824</ele>
        <time>2021-03-19T15:22:06Z</time>
      </trkpt>
      <trkpt lat="44.81236" lon="6.95896">
        <ele>1824</ele>
        <time>2021-03-19T15:22:07Z</time>
      </trkpt>
      <trkpt lat="44.81236" lon="6.95895">
        <ele>1823</ele>
        <time>2021-03-19T15:22:08Z</time>
      </trkpt>
      <trkpt lat="44.81237" lon="6.95894">
        <ele>1823</ele>
        <time>2021-03-19T15:22:09Z</time>
      </trkpt>
      <trkpt lat="44.81237" lon="6.95892">
        <ele>1823</ele>
        <time>2021-03-19T15:22:10Z</time>
      </trkpt>
      <trkpt lat="44.81237" lon="6.9589">
        <ele>1823</ele>
        <time>2021-03-19T15:22:11Z</time>
      </trkpt>
      <trkpt lat="44.81237" lon="6.95888">
        <ele>1823</ele>
        <time>2021-03-19T15:22:12Z</time>
      </trkpt>
      <trkpt lat="44.81237" lon="6.95887">
        <ele>1823</ele>
        <time>2021-03-19T15:22:13Z</time>
      </trkpt>
      <trkpt lat="44.81237" lon="6.95885">
        <ele>1823</ele>
        <time>2021-03-19T15:22:14Z</time>
      </trkpt>
      <trkpt lat="44.81237" lon="6.95883">
        <ele>1823</ele>
        <time>2021-03-19T15:22:15Z</time>
      </trkpt>
      <trkpt lat="44.81237" lon="6.95882">
        <ele>1823</ele>
        <time>2021-03-19T15:22:16Z</time>
      </trkpt>
      <trkpt lat="44.81236" lon="6.9588">
        <ele>1823</ele>
        <time>2021-03-19T15:22:17Z</time>
      </trkpt>
      <trkpt lat="44.81236" lon="6.95879">
        <ele>1823</ele>
        <time>2021-03-19T15:22:18Z</time>
      </trkpt>
      <trkpt lat="44.81236" lon="6.95878">
        <ele>1823</ele>
        <time>2021-03-19T15:22:19Z</time>
      </trkpt>
      <trkpt lat="44.81236" lon="6.95876">
        <ele>1823</ele>
        <time>2021-03-19T15:22:20Z</time>
      </trkpt>
      <trkpt lat="44.81236" lon="6.95875">
        <ele>1823</ele>
        <time>2021-03-19T15:22:21Z</time>
      </trkpt>
      <trkpt lat="44.81237" lon="6.95874">
        <ele>1823</ele>
        <time>2021-03-19T15:22:22Z</time>
      </trkpt>
      <trkpt lat="44.81237" lon="6.95873">
        <ele>1822</ele>
        <time>2021-03-19T15:22:23Z</time>
      </trkpt>
      <trkpt lat="44.81237" lon="6.95871">
        <ele>1822</ele>
        <time>2021-03-19T15:22:24Z</time>
      </trkpt>
      <trkpt lat="44.81237" lon="6.95869">
        <ele>1822</ele>
        <time>2021-03-19T15:22:25Z</time>
      </trkpt>
      <trkpt lat="44.81237" lon="6.95868">
        <ele>1822</ele>
        <time>2021-03-19T15:22:26Z</time>
      </trkpt>
      <trkpt lat="44.81238" lon="6.95866">
        <ele>1822</ele>
        <time>2021-03-19T15:22:27Z</time>
      </trkpt>
      <trkpt lat="44.81238" lon="6.95864">
        <ele>1821</ele>
        <time>2021-03-19T15:22:28Z</time>
      </trkpt>
      <trkpt lat="44.81238" lon="6.95862">
        <ele>1821</ele>
        <time>2021-03-19T15:22:29Z</time>
      </trkpt>
      <trkpt lat="44.81238" lon="6.95861">
        <ele>1821</ele>
        <time>2021-03-19T15:22:30Z</time>
      </trkpt>
      <trkpt lat="44.81238" lon="6.95859">
        <ele>1821</ele>
        <time>2021-03-19T15:22:31Z</time>
      </trkpt>
      <trkpt lat="44.81238" lon="6.95858">
        <ele>1821</ele>
        <time>2021-03-19T15:22:32Z</time>
      </trkpt>
      <trkpt lat="44.81238" lon="6.95857">
        <ele>1821</ele>
        <time>2021-03-19T15:22:33Z</time>
      </trkpt>
      <trkpt lat="44.81238" lon="6.95855">
        <ele>1821</ele>
        <time>2021-03-19T15:22:34Z</time>
      </trkpt>
      <trkpt lat="44.81238" lon="6.95854">
        <ele>1821</ele>
        <time>2021-03-19T15:22:35Z</time>
      </trkpt>
      <trkpt lat="44.81239" lon="6.95853">
        <ele>1821</ele>
        <time>2021-03-19T15:22:36Z</time>
      </trkpt>
      <trkpt lat="44.81239" lon="6.95851">
        <ele>1821</ele>
        <time>2021-03-19T15:22:37Z</time>
      </trkpt>
      <trkpt lat="44.81239" lon="6.9585">
        <ele>1820</ele>
        <time>2021-03-19T15:22:38Z</time>
      </trkpt>
      <trkpt lat="44.81239" lon="6.95848">
        <ele>1820</ele>
        <time>2021-03-19T15:22:39Z</time>
      </trkpt>
      <trkpt lat="44.81239" lon="6.95846">
        <ele>1820</ele>
        <time>2021-03-19T15:22:40Z</time>
      </trkpt>
      <trkpt lat="44.81239" lon="6.95845">
        <ele>1820</ele>
        <time>2021-03-19T15:22:41Z</time>
      </trkpt>
      <trkpt lat="44.81239" lon="6.95843">
        <ele>1820</ele>
        <time>2021-03-19T15:22:42Z</time>
      </trkpt>
      <trkpt lat="44.8124" lon="6.95842">
        <ele>1820</ele>
        <time>2021-03-19T15:22:43Z</time>
      </trkpt>
      <trkpt lat="44.8124" lon="6.9584">
        <ele>1820</ele>
        <time>2021-03-19T15:22:44Z</time>
      </trkpt>
      <trkpt lat="44.8124" lon="6.95839">
        <ele>1820</ele>
        <time>2021-03-19T15:22:45Z</time>
      </trkpt>
      <trkpt lat="44.81241" lon="6.95837">
        <ele>1820</ele>
        <time>2021-03-19T15:22:46Z</time>
      </trkpt>
      <trkpt lat="44.81241" lon="6.95835">
        <ele>1820</ele>
        <time>2021-03-19T15:22:47Z</time>
      </trkpt>
      <trkpt lat="44.81241" lon="6.95834">
        <ele>1819</ele>
        <time>2021-03-19T15:22:48Z</time>
      </trkpt>
      <trkpt lat="44.81241" lon="6.95832">
        <ele>1819</ele>
        <time>2021-03-19T15:22:49Z</time>
      </trkpt>
      <trkpt lat="44.81242" lon="6.95831">
        <ele>1819</ele>
        <time>2021-03-19T15:22:50Z</time>
      </trkpt>
      <trkpt lat="44.81242" lon="6.95829">
        <ele>1819</ele>
        <time>2021-03-19T15:22:51Z</time>
      </trkpt>
      <trkpt lat="44.81242" lon="6.95828">
        <ele>1819</ele>
        <time>2021-03-19T15:22:52Z</time>
      </trkpt>
      <trkpt lat="44.81243" lon="6.95826">
        <ele>1819</ele>
        <time>2021-03-19T15:22:53Z</time>
      </trkpt>
      <trkpt lat="44.81243" lon="6.95825">
        <ele>1819</ele>
        <time>2021-03-19T15:22:54Z</time>
      </trkpt>
      <trkpt lat="44.81243" lon="6.95823">
        <ele>1819</ele>
        <time>2021-03-19T15:22:55Z</time>
      </trkpt>
      <trkpt lat="44.81244" lon="6.95822">
        <ele>1819</ele>
        <time>2021-03-19T15:22:56Z</time>
      </trkpt>
      <trkpt lat="44.81244" lon="6.95821">
        <ele>1819</ele>
        <time>2021-03-19T15:22:57Z</time>
      </trkpt>
      <trkpt lat="44.81244" lon="6.9582">
        <ele>1818</ele>
        <time>2021-03-19T15:22:58Z</time>
      </trkpt>
      <trkpt lat="44.81244" lon="6.95818">
        <ele>1818</ele>
        <time>2021-03-19T15:22:59Z</time>
      </trkpt>
      <trkpt lat="44.81245" lon="6.95817">
        <ele>1818</ele>
        <time>2021-03-19T15:23:00Z</time>
      </trkpt>
      <trkpt lat="44.81245" lon="6.95816">
        <ele>1818</ele>
        <time>2021-03-19T15:23:01Z</time>
      </trkpt>
      <trkpt lat="44.81245" lon="6.95815">
        <ele>1818</ele>
        <time>2021-03-19T15:23:02Z</time>
      </trkpt>
      <trkpt lat="44.81245" lon="6.95813">
        <ele>1818</ele>
        <time>2021-03-19T15:23:03Z</time>
      </trkpt>
      <trkpt lat="44.81245" lon="6.95812">
        <ele>1818</ele>
        <time>2021-03-19T15:23:04Z</time>
      </trkpt>
      <trkpt lat="44.81245" lon="6.9581">
        <ele>1818</ele>
        <time>2021-03-19T15:23:05Z</time>
      </trkpt>
      <trkpt lat="44.81245" lon="6.95809">
        <ele>1818</ele>
        <time>2021-03-19T15:23:06Z</time>
      </trkpt>
      <trkpt lat="44.81246" lon="6.95807">
        <ele>1818</ele>
        <time>2021-03-19T15:23:07Z</time>
      </trkpt>
      <trkpt lat="44.81246" lon="6.95806">
        <ele>1818</ele>
        <time>2021-03-19T15:23:08Z</time>
      </trkpt>
      <trkpt lat="44.81247" lon="6.95804">
        <ele>1818</ele>
        <time>2021-03-19T15:23:09Z</time>
      </trkpt>
      <trkpt lat="44.81247" lon="6.95803">
        <ele>1818</ele>
        <time>2021-03-19T15:23:10Z</time>
      </trkpt>
      <trkpt lat="44.81248" lon="6.95801">
        <ele>1818</ele>
        <time>2021-03-19T15:23:11Z</time>
      </trkpt>
      <trkpt lat="44.81248" lon="6.958">
        <ele>1818</ele>
        <time>2021-03-19T15:23:12Z</time>
      </trkpt>
      <trkpt lat="44.81248" lon="6.95799">
        <ele>1817</ele>
        <time>2021-03-19T15:23:13Z</time>
      </trkpt>
      <trkpt lat="44.81249" lon="6.95797">
        <ele>1817</ele>
        <time>2021-03-19T15:23:14Z</time>
      </trkpt>
      <trkpt lat="44.81249" lon="6.95796">
        <ele>1817</ele>
        <time>2021-03-19T15:23:15Z</time>
      </trkpt>
      <trkpt lat="44.81249" lon="6.95794">
        <ele>1817</ele>
        <time>2021-03-19T15:23:16Z</time>
      </trkpt>
      <trkpt lat="44.8125" lon="6.95793">
        <ele>1817</ele>
        <time>2021-03-19T15:23:17Z</time>
      </trkpt>
      <trkpt lat="44.8125" lon="6.95791">
        <ele>1817</ele>
        <time>2021-03-19T15:23:18Z</time>
      </trkpt>
      <trkpt lat="44.81251" lon="6.9579">
        <ele>1817</ele>
        <time>2021-03-19T15:23:19Z</time>
      </trkpt>
      <trkpt lat="44.81251" lon="6.95789">
        <ele>1817</ele>
        <time>2021-03-19T15:23:20Z</time>
      </trkpt>
      <trkpt lat="44.81251" lon="6.95787">
        <ele>1817</ele>
        <time>2021-03-19T15:23:21Z</time>
      </trkpt>
      <trkpt lat="44.81252" lon="6.95786">
        <ele>1817</ele>
        <time>2021-03-19T15:23:22Z</time>
      </trkpt>
      <trkpt lat="44.81252" lon="6.95785">
        <ele>1817</ele>
        <time>2021-03-19T15:23:23Z</time>
      </trkpt>
      <trkpt lat="44.81252" lon="6.95783">
        <ele>1817</ele>
        <time>2021-03-19T15:23:24Z</time>
      </trkpt>
      <trkpt lat="44.81252" lon="6.95782">
        <ele>1817</ele>
        <time>2021-03-19T15:23:25Z</time>
      </trkpt>
      <trkpt lat="44.81252" lon="6.9578">
        <ele>1817</ele>
        <time>2021-03-19T15:23:26Z</time>
      </trkpt>
      <trkpt lat="44.81252" lon="6.95779">
        <ele>1817</ele>
        <time>2021-03-19T15:23:27Z</time>
      </trkpt>
      <trkpt lat="44.81252" lon="6.95778">
        <ele>1816</ele>
        <time>2021-03-19T15:23:28Z</time>
      </trkpt>
      <trkpt lat="44.81252" lon="6.95776">
        <ele>1816</ele>
        <time>2021-03-19T15:23:29Z</time>
      </trkpt>
      <trkpt lat="44.81252" lon="6.95775">
        <ele>1816</ele>
        <time>2021-03-19T15:23:30Z</time>
      </trkpt>
      <trkpt lat="44.81253" lon="6.95774">
        <ele>1816</ele>
        <time>2021-03-19T15:23:31Z</time>
      </trkpt>
      <trkpt lat="44.81253" lon="6.95772">
        <ele>1816</ele>
        <time>2021-03-19T15:23:32Z</time>
      </trkpt>
      <trkpt lat="44.81253" lon="6.95771">
        <ele>1816</ele>
        <time>2021-03-19T15:23:33Z</time>
      </trkpt>
      <trkpt lat="44.81254" lon="6.95769">
        <ele>1816</ele>
        <time>2021-03-19T15:23:34Z</time>
      </trkpt>
      <trkpt lat="44.81254" lon="6.95768">
        <ele>1816</ele>
        <time>2021-03-19T15:23:35Z</time>
      </trkpt>
      <trkpt lat="44.81254" lon="6.95766">
        <ele>1816</ele>
        <time>2021-03-19T15:23:36Z</time>
      </trkpt>
      <trkpt lat="44.81254" lon="6.95765">
        <ele>1816</ele>
        <time>2021-03-19T15:23:37Z</time>
      </trkpt>
      <trkpt lat="44.81255" lon="6.95763">
        <ele>1815</ele>
        <time>2021-03-19T15:23:38Z</time>
      </trkpt>
      <trkpt lat="44.81255" lon="6.95762">
        <ele>1815</ele>
        <time>2021-03-19T15:23:39Z</time>
      </trkpt>
      <trkpt lat="44.81255" lon="6.9576">
        <ele>1815</ele>
        <time>2021-03-19T15:23:40Z</time>
      </trkpt>
      <trkpt lat="44.81255" lon="6.95759">
        <ele>1815</ele>
        <time>2021-03-19T15:23:41Z</time>
      </trkpt>
      <trkpt lat="44.81255" lon="6.95757">
        <ele>1815</ele>
        <time>2021-03-19T15:23:42Z</time>
      </trkpt>
      <trkpt lat="44.81255" lon="6.95755">
        <ele>1815</ele>
        <time>2021-03-19T15:23:43Z</time>
      </trkpt>
      <trkpt lat="44.81255" lon="6.95754">
        <ele>1815</ele>
        <time>2021-03-19T15:23:44Z</time>
      </trkpt>
      <trkpt lat="44.81255" lon="6.95752">
        <ele>1815</ele>
        <time>2021-03-19T15:23:45Z</time>
      </trkpt>
      <trkpt lat="44.81255" lon="6.95751">
        <ele>1815</ele>
        <time>2021-03-19T15:23:46Z</time>
      </trkpt>
      <trkpt lat="44.81255" lon="6.9575">
        <ele>1815</ele>
        <time>2021-03-19T15:23:47Z</time>
      </trkpt>
      <trkpt lat="44.81255" lon="6.95748">
        <ele>1814</ele>
        <time>2021-03-19T15:23:48Z</time>
      </trkpt>
      <trkpt lat="44.81255" lon="6.95747">
        <ele>1814</ele>
        <time>2021-03-19T15:23:49Z</time>
      </trkpt>
      <trkpt lat="44.81255" lon="6.95745">
        <ele>1814</ele>
        <time>2021-03-19T15:23:50Z</time>
      </trkpt>
      <trkpt lat="44.81254" lon="6.95744">
        <ele>1814</ele>
        <time>2021-03-19T15:23:51Z</time>
      </trkpt>
      <trkpt lat="44.81254" lon="6.95743">
        <ele>1814</ele>
        <time>2021-03-19T15:23:52Z</time>
      </trkpt>
      <trkpt lat="44.81253" lon="6.95742">
        <ele>1814</ele>
        <time>2021-03-19T15:23:53Z</time>
      </trkpt>
      <trkpt lat="44.81253" lon="6.95741">
        <ele>1814</ele>
        <time>2021-03-19T15:23:54Z</time>
      </trkpt>
      <trkpt lat="44.81252" lon="6.9574">
        <ele>1814</ele>
        <time>2021-03-19T15:23:55Z</time>
      </trkpt>
      <trkpt lat="44.81252" lon="6.95738">
        <ele>1814</ele>
        <time>2021-03-19T15:23:56Z</time>
      </trkpt>
      <trkpt lat="44.81252" lon="6.95737">
        <ele>1814</ele>
        <time>2021-03-19T15:23:57Z</time>
      </trkpt>
      <trkpt lat="44.81251" lon="6.95736">
        <ele>1814</ele>
        <time>2021-03-19T15:23:58Z</time>
      </trkpt>
      <trkpt lat="44.81251" lon="6.95734">
        <ele>1814</ele>
        <time>2021-03-19T15:23:59Z</time>
      </trkpt>
      <trkpt lat="44.81251" lon="6.95732">
        <ele>1814</ele>
        <time>2021-03-19T15:24:00Z</time>
      </trkpt>
      <trkpt lat="44.81251" lon="6.95731">
        <ele>1814</ele>
        <time>2021-03-19T15:24:01Z</time>
      </trkpt>
      <trkpt lat="44.81251" lon="6.95729">
        <ele>1814</ele>
        <time>2021-03-19T15:24:02Z</time>
      </trkpt>
      <trkpt lat="44.81251" lon="6.95728">
        <ele>1813</ele>
        <time>2021-03-19T15:24:03Z</time>
      </trkpt>
      <trkpt lat="44.81252" lon="6.95726">
        <ele>1813</ele>
        <time>2021-03-19T15:24:04Z</time>
      </trkpt>
      <trkpt lat="44.81252" lon="6.95725">
        <ele>1813</ele>
        <time>2021-03-19T15:24:05Z</time>
      </trkpt>
      <trkpt lat="44.81252" lon="6.95723">
        <ele>1813</ele>
        <time>2021-03-19T15:24:06Z</time>
      </trkpt>
      <trkpt lat="44.81252" lon="6.95722">
        <ele>1813</ele>
        <time>2021-03-19T15:24:07Z</time>
      </trkpt>
      <trkpt lat="44.81252" lon="6.95721">
        <ele>1812</ele>
        <time>2021-03-19T15:24:08Z</time>
      </trkpt>
      <trkpt lat="44.81252" lon="6.95719">
        <ele>1812</ele>
        <time>2021-03-19T15:24:09Z</time>
      </trkpt>
      <trkpt lat="44.81252" lon="6.95718">
        <ele>1812</ele>
        <time>2021-03-19T15:24:10Z</time>
      </trkpt>
      <trkpt lat="44.81252" lon="6.95717">
        <ele>1812</ele>
        <time>2021-03-19T15:24:11Z</time>
      </trkpt>
      <trkpt lat="44.81252" lon="6.95715">
        <ele>1812</ele>
        <time>2021-03-19T15:24:12Z</time>
      </trkpt>
      <trkpt lat="44.81251" lon="6.95714">
        <ele>1812</ele>
        <time>2021-03-19T15:24:13Z</time>
      </trkpt>
      <trkpt lat="44.81251" lon="6.95713">
        <ele>1812</ele>
        <time>2021-03-19T15:24:14Z</time>
      </trkpt>
      <trkpt lat="44.81251" lon="6.95711">
        <ele>1812</ele>
        <time>2021-03-19T15:24:15Z</time>
      </trkpt>
      <trkpt lat="44.81251" lon="6.9571">
        <ele>1812</ele>
        <time>2021-03-19T15:24:16Z</time>
      </trkpt>
      <trkpt lat="44.81251" lon="6.95708">
        <ele>1812</ele>
        <time>2021-03-19T15:24:17Z</time>
      </trkpt>
      <trkpt lat="44.81251" lon="6.95707">
        <ele>1812</ele>
        <time>2021-03-19T15:24:18Z</time>
      </trkpt>
      <trkpt lat="44.81251" lon="6.95706">
        <ele>1812</ele>
        <time>2021-03-19T15:24:19Z</time>
      </trkpt>
      <trkpt lat="44.81251" lon="6.95704">
        <ele>1812</ele>
        <time>2021-03-19T15:24:20Z</time>
      </trkpt>
      <trkpt lat="44.81251" lon="6.95703">
        <ele>1812</ele>
        <time>2021-03-19T15:24:21Z</time>
      </trkpt>
      <trkpt lat="44.8125" lon="6.95702">
        <ele>1812</ele>
        <time>2021-03-19T15:24:22Z</time>
      </trkpt>
      <trkpt lat="44.8125" lon="6.95701">
        <ele>1811</ele>
        <time>2021-03-19T15:24:23Z</time>
      </trkpt>
      <trkpt lat="44.8125" lon="6.95699">
        <ele>1811</ele>
        <time>2021-03-19T15:24:24Z</time>
      </trkpt>
      <trkpt lat="44.8125" lon="6.95698">
        <ele>1811</ele>
        <time>2021-03-19T15:24:25Z</time>
      </trkpt>
      <trkpt lat="44.8125" lon="6.95696">
        <ele>1811</ele>
        <time>2021-03-19T15:24:26Z</time>
      </trkpt>
      <trkpt lat="44.81249" lon="6.95695">
        <ele>1811</ele>
        <time>2021-03-19T15:24:27Z</time>
      </trkpt>
      <trkpt lat="44.81249" lon="6.95693">
        <ele>1810</ele>
        <time>2021-03-19T15:24:28Z</time>
      </trkpt>
      <trkpt lat="44.81248" lon="6.95692">
        <ele>1810</ele>
        <time>2021-03-19T15:24:29Z</time>
      </trkpt>
      <trkpt lat="44.81248" lon="6.95691">
        <ele>1810</ele>
        <time>2021-03-19T15:24:30Z</time>
      </trkpt>
      <trkpt lat="44.81247" lon="6.95689">
        <ele>1810</ele>
        <time>2021-03-19T15:24:31Z</time>
      </trkpt>
      <trkpt lat="44.81247" lon="6.95687">
        <ele>1810</ele>
        <time>2021-03-19T15:24:32Z</time>
      </trkpt>
      <trkpt lat="44.81247" lon="6.95686">
        <ele>1810</ele>
        <time>2021-03-19T15:24:33Z</time>
      </trkpt>
      <trkpt lat="44.81246" lon="6.95684">
        <ele>1810</ele>
        <time>2021-03-19T15:24:34Z</time>
      </trkpt>
      <trkpt lat="44.81246" lon="6.95683">
        <ele>1810</ele>
        <time>2021-03-19T15:24:35Z</time>
      </trkpt>
      <trkpt lat="44.81245" lon="6.95681">
        <ele>1810</ele>
        <time>2021-03-19T15:24:36Z</time>
      </trkpt>
      <trkpt lat="44.81245" lon="6.9568">
        <ele>1810</ele>
        <time>2021-03-19T15:24:37Z</time>
      </trkpt>
      <trkpt lat="44.81244" lon="6.95678">
        <ele>1810</ele>
        <time>2021-03-19T15:24:38Z</time>
      </trkpt>
      <trkpt lat="44.81244" lon="6.95677">
        <ele>1810</ele>
        <time>2021-03-19T15:24:39Z</time>
      </trkpt>
      <trkpt lat="44.81243" lon="6.95675">
        <ele>1810</ele>
        <time>2021-03-19T15:24:40Z</time>
      </trkpt>
      <trkpt lat="44.81243" lon="6.95674">
        <ele>1810</ele>
        <time>2021-03-19T15:24:41Z</time>
      </trkpt>
      <trkpt lat="44.81243" lon="6.95673">
        <ele>1810</ele>
        <time>2021-03-19T15:24:42Z</time>
      </trkpt>
      <trkpt lat="44.81242" lon="6.95672">
        <ele>1810</ele>
        <time>2021-03-19T15:24:43Z</time>
      </trkpt>
      <trkpt lat="44.81242" lon="6.9567">
        <ele>1810</ele>
        <time>2021-03-19T15:24:44Z</time>
      </trkpt>
      <trkpt lat="44.81241" lon="6.95669">
        <ele>1810</ele>
        <time>2021-03-19T15:24:45Z</time>
      </trkpt>
      <trkpt lat="44.81241" lon="6.95667">
        <ele>1810</ele>
        <time>2021-03-19T15:24:46Z</time>
      </trkpt>
      <trkpt lat="44.8124" lon="6.95666">
        <ele>1810</ele>
        <time>2021-03-19T15:24:47Z</time>
      </trkpt>
      <trkpt lat="44.8124" lon="6.95664">
        <ele>1810</ele>
        <time>2021-03-19T15:24:48Z</time>
      </trkpt>
      <trkpt lat="44.8124" lon="6.95662">
        <ele>1810</ele>
        <time>2021-03-19T15:24:49Z</time>
      </trkpt>
      <trkpt lat="44.81239" lon="6.9566">
        <ele>1810</ele>
        <time>2021-03-19T15:24:50Z</time>
      </trkpt>
      <trkpt lat="44.81239" lon="6.95659">
        <ele>1810</ele>
        <time>2021-03-19T15:24:51Z</time>
      </trkpt>
      <trkpt lat="44.81239" lon="6.95657">
        <ele>1810</ele>
        <time>2021-03-19T15:24:52Z</time>
      </trkpt>
      <trkpt lat="44.81238" lon="6.95655">
        <ele>1810</ele>
        <time>2021-03-19T15:24:53Z</time>
      </trkpt>
      <trkpt lat="44.81238" lon="6.95653">
        <ele>1810</ele>
        <time>2021-03-19T15:24:54Z</time>
      </trkpt>
      <trkpt lat="44.81238" lon="6.95652">
        <ele>1810</ele>
        <time>2021-03-19T15:24:55Z</time>
      </trkpt>
      <trkpt lat="44.81238" lon="6.9565">
        <ele>1810</ele>
        <time>2021-03-19T15:24:56Z</time>
      </trkpt>
      <trkpt lat="44.81238" lon="6.95648">
        <ele>1810</ele>
        <time>2021-03-19T15:24:57Z</time>
      </trkpt>
      <trkpt lat="44.81239" lon="6.95647">
        <ele>1810</ele>
        <time>2021-03-19T15:24:58Z</time>
      </trkpt>
      <trkpt lat="44.81239" lon="6.95645">
        <ele>1810</ele>
        <time>2021-03-19T15:24:59Z</time>
      </trkpt>
      <trkpt lat="44.81239" lon="6.95643">
        <ele>1810</ele>
        <time>2021-03-19T15:25:00Z</time>
      </trkpt>
      <trkpt lat="44.81239" lon="6.95642">
        <ele>1810</ele>
        <time>2021-03-19T15:25:01Z</time>
      </trkpt>
      <trkpt lat="44.81239" lon="6.9564">
        <ele>1810</ele>
        <time>2021-03-19T15:25:02Z</time>
      </trkpt>
      <trkpt lat="44.81239" lon="6.95639">
        <ele>1810</ele>
        <time>2021-03-19T15:25:03Z</time>
      </trkpt>
      <trkpt lat="44.81239" lon="6.95637">
        <ele>1810</ele>
        <time>2021-03-19T15:25:04Z</time>
      </trkpt>
      <trkpt lat="44.81239" lon="6.95636">
        <ele>1810</ele>
        <time>2021-03-19T15:25:05Z</time>
      </trkpt>
      <trkpt lat="44.81239" lon="6.95634">
        <ele>1810</ele>
        <time>2021-03-19T15:25:06Z</time>
      </trkpt>
      <trkpt lat="44.8124" lon="6.95633">
        <ele>1810</ele>
        <time>2021-03-19T15:25:07Z</time>
      </trkpt>
      <trkpt lat="44.8124" lon="6.95631">
        <ele>1810</ele>
        <time>2021-03-19T15:25:08Z</time>
      </trkpt>
      <trkpt lat="44.8124" lon="6.9563">
        <ele>1810</ele>
        <time>2021-03-19T15:25:09Z</time>
      </trkpt>
      <trkpt lat="44.81241" lon="6.95628">
        <ele>1810</ele>
        <time>2021-03-19T15:25:10Z</time>
      </trkpt>
      <trkpt lat="44.81242" lon="6.95626">
        <ele>1810</ele>
        <time>2021-03-19T15:25:16Z</time>
      </trkpt>
      <trkpt lat="44.81243" lon="6.95625">
        <ele>1810</ele>
        <time>2021-03-19T15:25:17Z</time>
      </trkpt>
      <trkpt lat="44.81243" lon="6.95625">
        <ele>1810</ele>
        <time>2021-03-19T15:25:18Z</time>
      </trkpt>
      <trkpt lat="44.81244" lon="6.95624">
        <ele>1810</ele>
        <time>2021-03-19T15:25:19Z</time>
      </trkpt>
      <trkpt lat="44.81244" lon="6.95623">
        <ele>1810</ele>
        <time>2021-03-19T15:25:20Z</time>
      </trkpt>
      <trkpt lat="44.81245" lon="6.95621">
        <ele>1809</ele>
        <time>2021-03-19T15:25:33Z</time>
      </trkpt>
      <trkpt lat="44.81245" lon="6.9562">
        <ele>1809</ele>
        <time>2021-03-19T15:25:34Z</time>
      </trkpt>
      <trkpt lat="44.81245" lon="6.95619">
        <ele>1809</ele>
        <time>2021-03-19T15:25:35Z</time>
      </trkpt>
      <trkpt lat="44.81244" lon="6.95618">
        <ele>1809</ele>
        <time>2021-03-19T15:25:36Z</time>
      </trkpt>
      <trkpt lat="44.81244" lon="6.95617">
        <ele>1809</ele>
        <time>2021-03-19T15:25:37Z</time>
      </trkpt>
      <trkpt lat="44.81243" lon="6.95616">
        <ele>1809</ele>
        <time>2021-03-19T15:25:38Z</time>
      </trkpt>
      <trkpt lat="44.81243" lon="6.95615">
        <ele>1809</ele>
        <time>2021-03-19T15:25:39Z</time>
      </trkpt>
      <trkpt lat="44.81244" lon="6.95615">
        <ele>1809</ele>
        <time>2021-03-19T15:25:40Z</time>
      </trkpt>
      <trkpt lat="44.81244" lon="6.95615">
        <ele>1809</ele>
        <time>2021-03-19T15:25:41Z</time>
      </trkpt>
      <trkpt lat="44.81245" lon="6.95614">
        <ele>1809</ele>
        <time>2021-03-19T15:25:42Z</time>
      </trkpt>
      <trkpt lat="44.81246" lon="6.95614">
        <ele>1809</ele>
        <time>2021-03-19T15:25:43Z</time>
      </trkpt>
      <trkpt lat="44.81246" lon="6.95613">
        <ele>1809</ele>
        <time>2021-03-19T15:25:44Z</time>
      </trkpt>
      <trkpt lat="44.81247" lon="6.95613">
        <ele>1809</ele>
        <time>2021-03-19T15:25:45Z</time>
      </trkpt>
      <trkpt lat="44.81248" lon="6.95612">
        <ele>1809</ele>
        <time>2021-03-19T15:25:46Z</time>
      </trkpt>
      <trkpt lat="44.81248" lon="6.95611">
        <ele>1809</ele>
        <time>2021-03-19T15:25:47Z</time>
      </trkpt>
      <trkpt lat="44.81249" lon="6.9561">
        <ele>1809</ele>
        <time>2021-03-19T15:25:48Z</time>
      </trkpt>
      <trkpt lat="44.81249" lon="6.95609">
        <ele>1809</ele>
        <time>2021-03-19T15:25:49Z</time>
      </trkpt>
      <trkpt lat="44.8125" lon="6.95607">
        <ele>1809</ele>
        <time>2021-03-19T15:25:50Z</time>
      </trkpt>
      <trkpt lat="44.8125" lon="6.95606">
        <ele>1809</ele>
        <time>2021-03-19T15:25:51Z</time>
      </trkpt>
      <trkpt lat="44.81251" lon="6.95605">
        <ele>1809</ele>
        <time>2021-03-19T15:25:52Z</time>
      </trkpt>
      <trkpt lat="44.81251" lon="6.95604">
        <ele>1809</ele>
        <time>2021-03-19T15:25:53Z</time>
      </trkpt>
      <trkpt lat="44.81251" lon="6.95604">
        <ele>1809</ele>
        <time>2021-03-19T15:25:54Z</time>
      </trkpt>
      <trkpt lat="44.81252" lon="6.95603">
        <ele>1809</ele>
        <time>2021-03-19T15:25:55Z</time>
      </trkpt>
      <trkpt lat="44.81252" lon="6.95603">
        <ele>1809</ele>
        <time>2021-03-19T15:25:56Z</time>
      </trkpt>
      <trkpt lat="44.81252" lon="6.95602">
        <ele>1809</ele>
        <time>2021-03-19T15:25:57Z</time>
      </trkpt>
      <trkpt lat="44.81253" lon="6.95601">
        <ele>1809</ele>
        <time>2021-03-19T15:25:58Z</time>
      </trkpt>
      <trkpt lat="44.81253" lon="6.956">
        <ele>1809</ele>
        <time>2021-03-19T15:25:59Z</time>
      </trkpt>
      <trkpt lat="44.81254" lon="6.95599">
        <ele>1809</ele>
        <time>2021-03-19T15:26:00Z</time>
      </trkpt>
      <trkpt lat="44.81254" lon="6.95598">
        <ele>1809</ele>
        <time>2021-03-19T15:26:01Z</time>
      </trkpt>
      <trkpt lat="44.81255" lon="6.95597">
        <ele>1809</ele>
        <time>2021-03-19T15:26:02Z</time>
      </trkpt>
      <trkpt lat="44.81255" lon="6.95596">
        <ele>1809</ele>
        <time>2021-03-19T15:26:03Z</time>
      </trkpt>
      <trkpt lat="44.81256" lon="6.95595">
        <ele>1809</ele>
        <time>2021-03-19T15:26:04Z</time>
      </trkpt>
      <trkpt lat="44.81256" lon="6.95594">
        <ele>1809</ele>
        <time>2021-03-19T15:26:05Z</time>
      </trkpt>
      <trkpt lat="44.81257" lon="6.95594">
        <ele>1809</ele>
        <time>2021-03-19T15:26:06Z</time>
      </trkpt>
      <trkpt lat="44.81257" lon="6.95593">
        <ele>1809</ele>
        <time>2021-03-19T15:26:07Z</time>
      </trkpt>
      <trkpt lat="44.81258" lon="6.95592">
        <ele>1809</ele>
        <time>2021-03-19T15:26:08Z</time>
      </trkpt>
      <trkpt lat="44.81258" lon="6.95591">
        <ele>1809</ele>
        <time>2021-03-19T15:26:09Z</time>
      </trkpt>
      <trkpt lat="44.81259" lon="6.9559">
        <ele>1809</ele>
        <time>2021-03-19T15:26:10Z</time>
      </trkpt>
      <trkpt lat="44.81259" lon="6.95588">
        <ele>1809</ele>
        <time>2021-03-19T15:26:11Z</time>
      </trkpt>
      <trkpt lat="44.8126" lon="6.95587">
        <ele>1809</ele>
        <time>2021-03-19T15:26:12Z</time>
      </trkpt>
      <trkpt lat="44.8126" lon="6.95586">
        <ele>1809</ele>
        <time>2021-03-19T15:26:13Z</time>
      </trkpt>
      <trkpt lat="44.81261" lon="6.95584">
        <ele>1809</ele>
        <time>2021-03-19T15:26:14Z</time>
      </trkpt>
      <trkpt lat="44.81262" lon="6.95583">
        <ele>1809</ele>
        <time>2021-03-19T15:26:15Z</time>
      </trkpt>
      <trkpt lat="44.81262" lon="6.95582">
        <ele>1809</ele>
        <time>2021-03-19T15:26:16Z</time>
      </trkpt>
      <trkpt lat="44.81263" lon="6.95581">
        <ele>1809</ele>
        <time>2021-03-19T15:26:17Z</time>
      </trkpt>
      <trkpt lat="44.81264" lon="6.9558">
        <ele>1808</ele>
        <time>2021-03-19T15:26:18Z</time>
      </trkpt>
      <trkpt lat="44.81265" lon="6.95579">
        <ele>1808</ele>
        <time>2021-03-19T15:26:19Z</time>
      </trkpt>
      <trkpt lat="44.81265" lon="6.95578">
        <ele>1808</ele>
        <time>2021-03-19T15:26:20Z</time>
      </trkpt>
      <trkpt lat="44.81266" lon="6.95577">
        <ele>1808</ele>
        <time>2021-03-19T15:26:21Z</time>
      </trkpt>
      <trkpt lat="44.81267" lon="6.95576">
        <ele>1808</ele>
        <time>2021-03-19T15:26:22Z</time>
      </trkpt>
      <trkpt lat="44.81268" lon="6.95575">
        <ele>1808</ele>
        <time>2021-03-19T15:26:23Z</time>
      </trkpt>
      <trkpt lat="44.81269" lon="6.95574">
        <ele>1808</ele>
        <time>2021-03-19T15:26:24Z</time>
      </trkpt>
      <trkpt lat="44.8127" lon="6.95573">
        <ele>1808</ele>
        <time>2021-03-19T15:26:25Z</time>
      </trkpt>
      <trkpt lat="44.8127" lon="6.95572">
        <ele>1808</ele>
        <time>2021-03-19T15:26:26Z</time>
      </trkpt>
      <trkpt lat="44.81271" lon="6.9557">
        <ele>1808</ele>
        <time>2021-03-19T15:26:27Z</time>
      </trkpt>
      <trkpt lat="44.81272" lon="6.95569">
        <ele>1808</ele>
        <time>2021-03-19T15:26:28Z</time>
      </trkpt>
      <trkpt lat="44.81272" lon="6.95568">
        <ele>1808</ele>
        <time>2021-03-19T15:26:29Z</time>
      </trkpt>
      <trkpt lat="44.81273" lon="6.95567">
        <ele>1808</ele>
        <time>2021-03-19T15:26:30Z</time>
      </trkpt>
      <trkpt lat="44.81273" lon="6.95565">
        <ele>1808</ele>
        <time>2021-03-19T15:26:31Z</time>
      </trkpt>
      <trkpt lat="44.81274" lon="6.95564">
        <ele>1808</ele>
        <time>2021-03-19T15:26:32Z</time>
      </trkpt>
      <trkpt lat="44.81275" lon="6.95561">
        <ele>1808</ele>
        <time>2021-03-19T15:26:38Z</time>
      </trkpt>
      <trkpt lat="44.81275" lon="6.9556">
        <ele>1808</ele>
        <time>2021-03-19T15:26:39Z</time>
      </trkpt>
      <trkpt lat="44.81275" lon="6.95559">
        <ele>1808</ele>
        <time>2021-03-19T15:26:40Z</time>
      </trkpt>
      <trkpt lat="44.81276" lon="6.95558">
        <ele>1808</ele>
        <time>2021-03-19T15:26:41Z</time>
      </trkpt>
      <trkpt lat="44.81276" lon="6.95557">
        <ele>1808</ele>
        <time>2021-03-19T15:26:42Z</time>
      </trkpt>
      <trkpt lat="44.81277" lon="6.95556">
        <ele>1808</ele>
        <time>2021-03-19T15:26:43Z</time>
      </trkpt>
      <trkpt lat="44.81278" lon="6.95554">
        <ele>1808</ele>
        <time>2021-03-19T15:26:44Z</time>
      </trkpt>
      <trkpt lat="44.81278" lon="6.95553">
        <ele>1808</ele>
        <time>2021-03-19T15:26:45Z</time>
      </trkpt>
      <trkpt lat="44.81279" lon="6.95552">
        <ele>1808</ele>
        <time>2021-03-19T15:26:46Z</time>
      </trkpt>
      <trkpt lat="44.8128" lon="6.95551">
        <ele>1808</ele>
        <time>2021-03-19T15:26:47Z</time>
      </trkpt>
      <trkpt lat="44.81281" lon="6.9555">
        <ele>1808</ele>
        <time>2021-03-19T15:26:48Z</time>
      </trkpt>
      <trkpt lat="44.81282" lon="6.95549">
        <ele>1808</ele>
        <time>2021-03-19T15:26:49Z</time>
      </trkpt>
      <trkpt lat="44.81283" lon="6.95548">
        <ele>1808</ele>
        <time>2021-03-19T15:26:50Z</time>
      </trkpt>
      <trkpt lat="44.81283" lon="6.95547">
        <ele>1808</ele>
        <time>2021-03-19T15:26:51Z</time>
      </trkpt>
      <trkpt lat="44.81284" lon="6.95546">
        <ele>1808</ele>
        <time>2021-03-19T15:26:52Z</time>
      </trkpt>
      <trkpt lat="44.81285" lon="6.95544">
        <ele>1807</ele>
        <time>2021-03-19T15:26:53Z</time>
      </trkpt>
      <trkpt lat="44.81286" lon="6.95543">
        <ele>1807</ele>
        <time>2021-03-19T15:26:54Z</time>
      </trkpt>
      <trkpt lat="44.81286" lon="6.95542">
        <ele>1807</ele>
        <time>2021-03-19T15:26:55Z</time>
      </trkpt>
      <trkpt lat="44.81287" lon="6.95541">
        <ele>1807</ele>
        <time>2021-03-19T15:26:56Z</time>
      </trkpt>
      <trkpt lat="44.81288" lon="6.9554">
        <ele>1807</ele>
        <time>2021-03-19T15:26:57Z</time>
      </trkpt>
      <trkpt lat="44.81288" lon="6.95539">
        <ele>1807</ele>
        <time>2021-03-19T15:26:58Z</time>
      </trkpt>
      <trkpt lat="44.81289" lon="6.95538">
        <ele>1807</ele>
        <time>2021-03-19T15:26:59Z</time>
      </trkpt>
      <trkpt lat="44.81289" lon="6.95536">
        <ele>1807</ele>
        <time>2021-03-19T15:27:00Z</time>
      </trkpt>
      <trkpt lat="44.8129" lon="6.95535">
        <ele>1807</ele>
        <time>2021-03-19T15:27:01Z</time>
      </trkpt>
      <trkpt lat="44.8129" lon="6.95534">
        <ele>1807</ele>
        <time>2021-03-19T15:27:02Z</time>
      </trkpt>
      <trkpt lat="44.81291" lon="6.95532">
        <ele>1807</ele>
        <time>2021-03-19T15:27:03Z</time>
      </trkpt>
      <trkpt lat="44.81292" lon="6.95531">
        <ele>1807</ele>
        <time>2021-03-19T15:27:04Z</time>
      </trkpt>
      <trkpt lat="44.81292" lon="6.95529">
        <ele>1807</ele>
        <time>2021-03-19T15:27:05Z</time>
      </trkpt>
      <trkpt lat="44.81293" lon="6.95527">
        <ele>1807</ele>
        <time>2021-03-19T15:27:06Z</time>
      </trkpt>
      <trkpt lat="44.81293" lon="6.95526">
        <ele>1807</ele>
        <time>2021-03-19T15:27:07Z</time>
      </trkpt>
      <trkpt lat="44.81294" lon="6.95525">
        <ele>1807</ele>
        <time>2021-03-19T15:27:08Z</time>
      </trkpt>
      <trkpt lat="44.81295" lon="6.95523">
        <ele>1807</ele>
        <time>2021-03-19T15:27:09Z</time>
      </trkpt>
      <trkpt lat="44.81295" lon="6.95522">
        <ele>1807</ele>
        <time>2021-03-19T15:27:10Z</time>
      </trkpt>
      <trkpt lat="44.81296" lon="6.9552">
        <ele>1807</ele>
        <time>2021-03-19T15:27:11Z</time>
      </trkpt>
      <trkpt lat="44.81296" lon="6.95519">
        <ele>1807</ele>
        <time>2021-03-19T15:27:12Z</time>
      </trkpt>
      <trkpt lat="44.81296" lon="6.95517">
        <ele>1807</ele>
        <time>2021-03-19T15:27:13Z</time>
      </trkpt>
      <trkpt lat="44.81297" lon="6.95516">
        <ele>1807</ele>
        <time>2021-03-19T15:27:14Z</time>
      </trkpt>
      <trkpt lat="44.81297" lon="6.95515">
        <ele>1807</ele>
        <time>2021-03-19T15:27:15Z</time>
      </trkpt>
      <trkpt lat="44.81297" lon="6.95513">
        <ele>1807</ele>
        <time>2021-03-19T15:27:16Z</time>
      </trkpt>
      <trkpt lat="44.81297" lon="6.95512">
        <ele>1807</ele>
        <time>2021-03-19T15:27:17Z</time>
      </trkpt>
      <trkpt lat="44.81297" lon="6.9551">
        <ele>1806</ele>
        <time>2021-03-19T15:27:18Z</time>
      </trkpt>
      <trkpt lat="44.81297" lon="6.95509">
        <ele>1806</ele>
        <time>2021-03-19T15:27:19Z</time>
      </trkpt>
      <trkpt lat="44.81297" lon="6.95507">
        <ele>1806</ele>
        <time>2021-03-19T15:27:20Z</time>
      </trkpt>
      <trkpt lat="44.81297" lon="6.95506">
        <ele>1806</ele>
        <time>2021-03-19T15:27:21Z</time>
      </trkpt>
      <trkpt lat="44.81298" lon="6.95505">
        <ele>1806</ele>
        <time>2021-03-19T15:27:22Z</time>
      </trkpt>
      <trkpt lat="44.81298" lon="6.95503">
        <ele>1806</ele>
        <time>2021-03-19T15:27:23Z</time>
      </trkpt>
      <trkpt lat="44.81298" lon="6.95501">
        <ele>1806</ele>
        <time>2021-03-19T15:27:24Z</time>
      </trkpt>
      <trkpt lat="44.81298" lon="6.955">
        <ele>1806</ele>
        <time>2021-03-19T15:27:25Z</time>
      </trkpt>
      <trkpt lat="44.81299" lon="6.95498">
        <ele>1806</ele>
        <time>2021-03-19T15:27:26Z</time>
      </trkpt>
      <trkpt lat="44.81299" lon="6.95497">
        <ele>1806</ele>
        <time>2021-03-19T15:27:27Z</time>
      </trkpt>
      <trkpt lat="44.813" lon="6.95496">
        <ele>1806</ele>
        <time>2021-03-19T15:27:28Z</time>
      </trkpt>
      <trkpt lat="44.813" lon="6.95494">
        <ele>1806</ele>
        <time>2021-03-19T15:27:29Z</time>
      </trkpt>
      <trkpt lat="44.813" lon="6.95493">
        <ele>1806</ele>
        <time>2021-03-19T15:27:30Z</time>
      </trkpt>
      <trkpt lat="44.813" lon="6.95492">
        <ele>1806</ele>
        <time>2021-03-19T15:27:31Z</time>
      </trkpt>
      <trkpt lat="44.813" lon="6.9549">
        <ele>1806</ele>
        <time>2021-03-19T15:27:32Z</time>
      </trkpt>
      <trkpt lat="44.81301" lon="6.95489">
        <ele>1806</ele>
        <time>2021-03-19T15:27:33Z</time>
      </trkpt>
      <trkpt lat="44.81301" lon="6.95487">
        <ele>1806</ele>
        <time>2021-03-19T15:27:34Z</time>
      </trkpt>
      <trkpt lat="44.81301" lon="6.95486">
        <ele>1806</ele>
        <time>2021-03-19T15:27:35Z</time>
      </trkpt>
      <trkpt lat="44.81301" lon="6.95485">
        <ele>1806</ele>
        <time>2021-03-19T15:27:36Z</time>
      </trkpt>
      <trkpt lat="44.81301" lon="6.95483">
        <ele>1806</ele>
        <time>2021-03-19T15:27:37Z</time>
      </trkpt>
      <trkpt lat="44.81302" lon="6.95482">
        <ele>1806</ele>
        <time>2021-03-19T15:27:38Z</time>
      </trkpt>
      <trkpt lat="44.81302" lon="6.95481">
        <ele>1806</ele>
        <time>2021-03-19T15:27:39Z</time>
      </trkpt>
      <trkpt lat="44.81302" lon="6.95479">
        <ele>1806</ele>
        <time>2021-03-19T15:27:40Z</time>
      </trkpt>
      <trkpt lat="44.81303" lon="6.95478">
        <ele>1806</ele>
        <time>2021-03-19T15:27:41Z</time>
      </trkpt>
      <trkpt lat="44.81303" lon="6.95477">
        <ele>1806</ele>
        <time>2021-03-19T15:27:42Z</time>
      </trkpt>
      <trkpt lat="44.81303" lon="6.95475">
        <ele>1806</ele>
        <time>2021-03-19T15:27:43Z</time>
      </trkpt>
      <trkpt lat="44.81304" lon="6.95474">
        <ele>1806</ele>
        <time>2021-03-19T15:27:44Z</time>
      </trkpt>
      <trkpt lat="44.81305" lon="6.95473">
        <ele>1806</ele>
        <time>2021-03-19T15:27:45Z</time>
      </trkpt>
      <trkpt lat="44.81305" lon="6.95471">
        <ele>1806</ele>
        <time>2021-03-19T15:27:46Z</time>
      </trkpt>
      <trkpt lat="44.81306" lon="6.9547">
        <ele>1806</ele>
        <time>2021-03-19T15:27:47Z</time>
      </trkpt>
      <trkpt lat="44.81306" lon="6.95469">
        <ele>1806</ele>
        <time>2021-03-19T15:27:48Z</time>
      </trkpt>
      <trkpt lat="44.81307" lon="6.95468">
        <ele>1806</ele>
        <time>2021-03-19T15:27:49Z</time>
      </trkpt>
      <trkpt lat="44.81307" lon="6.95467">
        <ele>1806</ele>
        <time>2021-03-19T15:27:50Z</time>
      </trkpt>
      <trkpt lat="44.81308" lon="6.95465">
        <ele>1806</ele>
        <time>2021-03-19T15:27:51Z</time>
      </trkpt>
      <trkpt lat="44.81308" lon="6.95464">
        <ele>1806</ele>
        <time>2021-03-19T15:27:52Z</time>
      </trkpt>
      <trkpt lat="44.81308" lon="6.95462">
        <ele>1806</ele>
        <time>2021-03-19T15:27:53Z</time>
      </trkpt>
      <trkpt lat="44.81309" lon="6.9546">
        <ele>1806</ele>
        <time>2021-03-19T15:27:54Z</time>
      </trkpt>
      <trkpt lat="44.81309" lon="6.95459">
        <ele>1806</ele>
        <time>2021-03-19T15:27:55Z</time>
      </trkpt>
      <trkpt lat="44.8131" lon="6.95457">
        <ele>1806</ele>
        <time>2021-03-19T15:27:56Z</time>
      </trkpt>
      <trkpt lat="44.8131" lon="6.95455">
        <ele>1806</ele>
        <time>2021-03-19T15:27:57Z</time>
      </trkpt>
      <trkpt lat="44.81311" lon="6.95454">
        <ele>1806</ele>
        <time>2021-03-19T15:27:58Z</time>
      </trkpt>
      <trkpt lat="44.81312" lon="6.95453">
        <ele>1806</ele>
        <time>2021-03-19T15:27:59Z</time>
      </trkpt>
      <trkpt lat="44.81312" lon="6.95451">
        <ele>1806</ele>
        <time>2021-03-19T15:28:00Z</time>
      </trkpt>
      <trkpt lat="44.81313" lon="6.9545">
        <ele>1806</ele>
        <time>2021-03-19T15:28:01Z</time>
      </trkpt>
      <trkpt lat="44.81314" lon="6.95448">
        <ele>1806</ele>
        <time>2021-03-19T15:28:02Z</time>
      </trkpt>
      <trkpt lat="44.81315" lon="6.95446">
        <ele>1806</ele>
        <time>2021-03-19T15:28:03Z</time>
      </trkpt>
      <trkpt lat="44.81315" lon="6.95444">
        <ele>1806</ele>
        <time>2021-03-19T15:28:04Z</time>
      </trkpt>
      <trkpt lat="44.81316" lon="6.95443">
        <ele>1806</ele>
        <time>2021-03-19T15:28:05Z</time>
      </trkpt>
      <trkpt lat="44.81316" lon="6.95441">
        <ele>1806</ele>
        <time>2021-03-19T15:28:06Z</time>
      </trkpt>
      <trkpt lat="44.81316" lon="6.95439">
        <ele>1806</ele>
        <time>2021-03-19T15:28:07Z</time>
      </trkpt>
      <trkpt lat="44.81317" lon="6.95438">
        <ele>1806</ele>
        <time>2021-03-19T15:28:08Z</time>
      </trkpt>
      <trkpt lat="44.81317" lon="6.95437">
        <ele>1806</ele>
        <time>2021-03-19T15:28:09Z</time>
      </trkpt>
      <trkpt lat="44.81318" lon="6.95435">
        <ele>1806</ele>
        <time>2021-03-19T15:28:10Z</time>
      </trkpt>
      <trkpt lat="44.81318" lon="6.95434">
        <ele>1806</ele>
        <time>2021-03-19T15:28:11Z</time>
      </trkpt>
      <trkpt lat="44.81319" lon="6.95433">
        <ele>1806</ele>
        <time>2021-03-19T15:28:12Z</time>
      </trkpt>
      <trkpt lat="44.81319" lon="6.95431">
        <ele>1805</ele>
        <time>2021-03-19T15:28:13Z</time>
      </trkpt>
      <trkpt lat="44.8132" lon="6.9543">
        <ele>1805</ele>
        <time>2021-03-19T15:28:14Z</time>
      </trkpt>
      <trkpt lat="44.8132" lon="6.95428">
        <ele>1805</ele>
        <time>2021-03-19T15:28:15Z</time>
      </trkpt>
      <trkpt lat="44.81321" lon="6.95426">
        <ele>1805</ele>
        <time>2021-03-19T15:28:16Z</time>
      </trkpt>
      <trkpt lat="44.81321" lon="6.95425">
        <ele>1805</ele>
        <time>2021-03-19T15:28:17Z</time>
      </trkpt>
      <trkpt lat="44.81322" lon="6.95423">
        <ele>1805</ele>
        <time>2021-03-19T15:28:18Z</time>
      </trkpt>
      <trkpt lat="44.81322" lon="6.95421">
        <ele>1805</ele>
        <time>2021-03-19T15:28:19Z</time>
      </trkpt>
      <trkpt lat="44.81323" lon="6.9542">
        <ele>1805</ele>
        <time>2021-03-19T15:28:20Z</time>
      </trkpt>
      <trkpt lat="44.81323" lon="6.95418">
        <ele>1805</ele>
        <time>2021-03-19T15:28:21Z</time>
      </trkpt>
      <trkpt lat="44.81324" lon="6.95417">
        <ele>1805</ele>
        <time>2021-03-19T15:28:22Z</time>
      </trkpt>
      <trkpt lat="44.81324" lon="6.95415">
        <ele>1805</ele>
        <time>2021-03-19T15:28:23Z</time>
      </trkpt>
      <trkpt lat="44.81325" lon="6.95414">
        <ele>1805</ele>
        <time>2021-03-19T15:28:24Z</time>
      </trkpt>
      <trkpt lat="44.81325" lon="6.95412">
        <ele>1805</ele>
        <time>2021-03-19T15:28:25Z</time>
      </trkpt>
      <trkpt lat="44.81326" lon="6.95412">
        <ele>1805</ele>
        <time>2021-03-19T15:28:26Z</time>
      </trkpt>
      <trkpt lat="44.81327" lon="6.95411">
        <ele>1805</ele>
        <time>2021-03-19T15:28:27Z</time>
      </trkpt>
      <trkpt lat="44.81328" lon="6.9541">
        <ele>1805</ele>
        <time>2021-03-19T15:28:28Z</time>
      </trkpt>
      <trkpt lat="44.81329" lon="6.95409">
        <ele>1805</ele>
        <time>2021-03-19T15:28:29Z</time>
      </trkpt>
      <trkpt lat="44.8133" lon="6.95408">
        <ele>1805</ele>
        <time>2021-03-19T15:28:30Z</time>
      </trkpt>
      <trkpt lat="44.81331" lon="6.95407">
        <ele>1805</ele>
        <time>2021-03-19T15:28:31Z</time>
      </trkpt>
      <trkpt lat="44.81332" lon="6.95406">
        <ele>1805</ele>
        <time>2021-03-19T15:28:32Z</time>
      </trkpt>
      <trkpt lat="44.81333" lon="6.95405">
        <ele>1805</ele>
        <time>2021-03-19T15:28:33Z</time>
      </trkpt>
      <trkpt lat="44.81333" lon="6.95403">
        <ele>1805</ele>
        <time>2021-03-19T15:28:34Z</time>
      </trkpt>
      <trkpt lat="44.81334" lon="6.95402">
        <ele>1805</ele>
        <time>2021-03-19T15:28:35Z</time>
      </trkpt>
      <trkpt lat="44.81334" lon="6.95401">
        <ele>1805</ele>
        <time>2021-03-19T15:28:36Z</time>
      </trkpt>
      <trkpt lat="44.81335" lon="6.954">
        <ele>1805</ele>
        <time>2021-03-19T15:28:37Z</time>
      </trkpt>
      <trkpt lat="44.81336" lon="6.95399">
        <ele>1805</ele>
        <time>2021-03-19T15:28:38Z</time>
      </trkpt>
      <trkpt lat="44.81337" lon="6.95398">
        <ele>1805</ele>
        <time>2021-03-19T15:28:39Z</time>
      </trkpt>
      <trkpt lat="44.81337" lon="6.95397">
        <ele>1805</ele>
        <time>2021-03-19T15:28:40Z</time>
      </trkpt>
      <trkpt lat="44.81338" lon="6.95396">
        <ele>1805</ele>
        <time>2021-03-19T15:28:41Z</time>
      </trkpt>
      <trkpt lat="44.81339" lon="6.95395">
        <ele>1805</ele>
        <time>2021-03-19T15:28:42Z</time>
      </trkpt>
      <trkpt lat="44.8134" lon="6.95394">
        <ele>1805</ele>
        <time>2021-03-19T15:28:43Z</time>
      </trkpt>
      <trkpt lat="44.81341" lon="6.95393">
        <ele>1805</ele>
        <time>2021-03-19T15:28:44Z</time>
      </trkpt>
      <trkpt lat="44.81342" lon="6.95392">
        <ele>1805</ele>
        <time>2021-03-19T15:28:45Z</time>
      </trkpt>
      <trkpt lat="44.81343" lon="6.95391">
        <ele>1805</ele>
        <time>2021-03-19T15:28:46Z</time>
      </trkpt>
      <trkpt lat="44.81344" lon="6.9539">
        <ele>1805</ele>
        <time>2021-03-19T15:28:47Z</time>
      </trkpt>
      <trkpt lat="44.81345" lon="6.95389">
        <ele>1805</ele>
        <time>2021-03-19T15:28:48Z</time>
      </trkpt>
      <trkpt lat="44.81346" lon="6.95389">
        <ele>1805</ele>
        <time>2021-03-19T15:28:49Z</time>
      </trkpt>
      <trkpt lat="44.81347" lon="6.95388">
        <ele>1805</ele>
        <time>2021-03-19T15:28:50Z</time>
      </trkpt>
      <trkpt lat="44.81348" lon="6.95387">
        <ele>1805</ele>
        <time>2021-03-19T15:28:51Z</time>
      </trkpt>
      <trkpt lat="44.81349" lon="6.95386">
        <ele>1805</ele>
        <time>2021-03-19T15:28:52Z</time>
      </trkpt>
      <trkpt lat="44.8135" lon="6.95385">
        <ele>1804</ele>
        <time>2021-03-19T15:28:53Z</time>
      </trkpt>
      <trkpt lat="44.8135" lon="6.95384">
        <ele>1804</ele>
        <time>2021-03-19T15:28:54Z</time>
      </trkpt>
      <trkpt lat="44.81351" lon="6.95383">
        <ele>1804</ele>
        <time>2021-03-19T15:28:55Z</time>
      </trkpt>
      <trkpt lat="44.81352" lon="6.95382">
        <ele>1804</ele>
        <time>2021-03-19T15:28:56Z</time>
      </trkpt>
      <trkpt lat="44.81353" lon="6.95381">
        <ele>1804</ele>
        <time>2021-03-19T15:28:57Z</time>
      </trkpt>
      <trkpt lat="44.81354" lon="6.9538">
        <ele>1804</ele>
        <time>2021-03-19T15:28:58Z</time>
      </trkpt>
      <trkpt lat="44.81355" lon="6.95379">
        <ele>1804</ele>
        <time>2021-03-19T15:28:59Z</time>
      </trkpt>
      <trkpt lat="44.81356" lon="6.95378">
        <ele>1804</ele>
        <time>2021-03-19T15:29:00Z</time>
      </trkpt>
      <trkpt lat="44.81357" lon="6.95377">
        <ele>1804</ele>
        <time>2021-03-19T15:29:01Z</time>
      </trkpt>
      <trkpt lat="44.81358" lon="6.95376">
        <ele>1804</ele>
        <time>2021-03-19T15:29:02Z</time>
      </trkpt>
      <trkpt lat="44.81359" lon="6.95375">
        <ele>1804</ele>
        <time>2021-03-19T15:29:03Z</time>
      </trkpt>
      <trkpt lat="44.81359" lon="6.95374">
        <ele>1804</ele>
        <time>2021-03-19T15:29:04Z</time>
      </trkpt>
      <trkpt lat="44.8136" lon="6.95373">
        <ele>1804</ele>
        <time>2021-03-19T15:29:05Z</time>
      </trkpt>
      <trkpt lat="44.81361" lon="6.95373">
        <ele>1804</ele>
        <time>2021-03-19T15:29:06Z</time>
      </trkpt>
      <trkpt lat="44.81362" lon="6.95372">
        <ele>1804</ele>
        <time>2021-03-19T15:29:07Z</time>
      </trkpt>
      <trkpt lat="44.81363" lon="6.95371">
        <ele>1804</ele>
        <time>2021-03-19T15:29:08Z</time>
      </trkpt>
      <trkpt lat="44.81363" lon="6.9537">
        <ele>1804</ele>
        <time>2021-03-19T15:29:09Z</time>
      </trkpt>
      <trkpt lat="44.81364" lon="6.95369">
        <ele>1804</ele>
        <time>2021-03-19T15:29:10Z</time>
      </trkpt>
      <trkpt lat="44.81365" lon="6.95368">
        <ele>1804</ele>
        <time>2021-03-19T15:29:11Z</time>
      </trkpt>
      <trkpt lat="44.81366" lon="6.95367">
        <ele>1804</ele>
        <time>2021-03-19T15:29:12Z</time>
      </trkpt>
      <trkpt lat="44.81367" lon="6.95367">
        <ele>1804</ele>
        <time>2021-03-19T15:29:13Z</time>
      </trkpt>
      <trkpt lat="44.81367" lon="6.95366">
        <ele>1804</ele>
        <time>2021-03-19T15:29:14Z</time>
      </trkpt>
      <trkpt lat="44.81368" lon="6.95365">
        <ele>1804</ele>
        <time>2021-03-19T15:29:15Z</time>
      </trkpt>
      <trkpt lat="44.81369" lon="6.95364">
        <ele>1804</ele>
        <time>2021-03-19T15:29:16Z</time>
      </trkpt>
      <trkpt lat="44.8137" lon="6.95364">
        <ele>1804</ele>
        <time>2021-03-19T15:29:17Z</time>
      </trkpt>
      <trkpt lat="44.81371" lon="6.95363">
        <ele>1804</ele>
        <time>2021-03-19T15:29:18Z</time>
      </trkpt>
      <trkpt lat="44.81372" lon="6.95362">
        <ele>1804</ele>
        <time>2021-03-19T15:29:19Z</time>
      </trkpt>
      <trkpt lat="44.81373" lon="6.9536">
        <ele>1804</ele>
        <time>2021-03-19T15:29:20Z</time>
      </trkpt>
      <trkpt lat="44.81374" lon="6.95359">
        <ele>1804</ele>
        <time>2021-03-19T15:29:21Z</time>
      </trkpt>
      <trkpt lat="44.81375" lon="6.95358">
        <ele>1804</ele>
        <time>2021-03-19T15:29:22Z</time>
      </trkpt>
      <trkpt lat="44.81376" lon="6.95357">
        <ele>1804</ele>
        <time>2021-03-19T15:29:23Z</time>
      </trkpt>
      <trkpt lat="44.81377" lon="6.95356">
        <ele>1804</ele>
        <time>2021-03-19T15:29:24Z</time>
      </trkpt>
      <trkpt lat="44.81377" lon="6.95354">
        <ele>1804</ele>
        <time>2021-03-19T15:29:25Z</time>
      </trkpt>
      <trkpt lat="44.81378" lon="6.95353">
        <ele>1804</ele>
        <time>2021-03-19T15:29:26Z</time>
      </trkpt>
      <trkpt lat="44.81379" lon="6.95352">
        <ele>1804</ele>
        <time>2021-03-19T15:29:27Z</time>
      </trkpt>
      <trkpt lat="44.81379" lon="6.9535">
        <ele>1804</ele>
        <time>2021-03-19T15:29:28Z</time>
      </trkpt>
      <trkpt lat="44.8138" lon="6.95349">
        <ele>1804</ele>
        <time>2021-03-19T15:29:29Z</time>
      </trkpt>
      <trkpt lat="44.81381" lon="6.95348">
        <ele>1804</ele>
        <time>2021-03-19T15:29:30Z</time>
      </trkpt>
      <trkpt lat="44.81382" lon="6.95346">
        <ele>1804</ele>
        <time>2021-03-19T15:29:31Z</time>
      </trkpt>
      <trkpt lat="44.81382" lon="6.95345">
        <ele>1804</ele>
        <time>2021-03-19T15:29:32Z</time>
      </trkpt>
      <trkpt lat="44.81383" lon="6.95343">
        <ele>1803</ele>
        <time>2021-03-19T15:29:33Z</time>
      </trkpt>
      <trkpt lat="44.81384" lon="6.95342">
        <ele>1803</ele>
        <time>2021-03-19T15:29:34Z</time>
      </trkpt>
      <trkpt lat="44.81385" lon="6.95341">
        <ele>1803</ele>
        <time>2021-03-19T15:29:35Z</time>
      </trkpt>
      <trkpt lat="44.81386" lon="6.95339">
        <ele>1803</ele>
        <time>2021-03-19T15:29:36Z</time>
      </trkpt>
      <trkpt lat="44.81387" lon="6.95338">
        <ele>1803</ele>
        <time>2021-03-19T15:29:37Z</time>
      </trkpt>
      <trkpt lat="44.81388" lon="6.95337">
        <ele>1803</ele>
        <time>2021-03-19T15:29:38Z</time>
      </trkpt>
      <trkpt lat="44.81388" lon="6.95336">
        <ele>1803</ele>
        <time>2021-03-19T15:29:39Z</time>
      </trkpt>
      <trkpt lat="44.81389" lon="6.95334">
        <ele>1803</ele>
        <time>2021-03-19T15:29:40Z</time>
      </trkpt>
      <trkpt lat="44.8139" lon="6.95333">
        <ele>1803</ele>
        <time>2021-03-19T15:29:41Z</time>
      </trkpt>
      <trkpt lat="44.81391" lon="6.95332">
        <ele>1803</ele>
        <time>2021-03-19T15:29:42Z</time>
      </trkpt>
      <trkpt lat="44.81391" lon="6.9533">
        <ele>1803</ele>
        <time>2021-03-19T15:29:43Z</time>
      </trkpt>
      <trkpt lat="44.81392" lon="6.95329">
        <ele>1803</ele>
        <time>2021-03-19T15:29:44Z</time>
      </trkpt>
      <trkpt lat="44.81393" lon="6.95328">
        <ele>1803</ele>
        <time>2021-03-19T15:29:45Z</time>
      </trkpt>
      <trkpt lat="44.81393" lon="6.95327">
        <ele>1803</ele>
        <time>2021-03-19T15:29:46Z</time>
      </trkpt>
      <trkpt lat="44.81394" lon="6.95325">
        <ele>1803</ele>
        <time>2021-03-19T15:29:47Z</time>
      </trkpt>
      <trkpt lat="44.81395" lon="6.95324">
        <ele>1803</ele>
        <time>2021-03-19T15:29:48Z</time>
      </trkpt>
      <trkpt lat="44.81396" lon="6.95323">
        <ele>1803</ele>
        <time>2021-03-19T15:29:49Z</time>
      </trkpt>
      <trkpt lat="44.81396" lon="6.95322">
        <ele>1803</ele>
        <time>2021-03-19T15:29:50Z</time>
      </trkpt>
      <trkpt lat="44.81397" lon="6.9532">
        <ele>1803</ele>
        <time>2021-03-19T15:29:51Z</time>
      </trkpt>
      <trkpt lat="44.81398" lon="6.95319">
        <ele>1803</ele>
        <time>2021-03-19T15:29:52Z</time>
      </trkpt>
      <trkpt lat="44.81399" lon="6.95317">
        <ele>1803</ele>
        <time>2021-03-19T15:29:53Z</time>
      </trkpt>
      <trkpt lat="44.81399" lon="6.95316">
        <ele>1803</ele>
        <time>2021-03-19T15:29:54Z</time>
      </trkpt>
      <trkpt lat="44.814" lon="6.95315">
        <ele>1803</ele>
        <time>2021-03-19T15:29:55Z</time>
      </trkpt>
      <trkpt lat="44.81401" lon="6.95313">
        <ele>1803</ele>
        <time>2021-03-19T15:29:56Z</time>
      </trkpt>
      <trkpt lat="44.81402" lon="6.95312">
        <ele>1803</ele>
        <time>2021-03-19T15:29:57Z</time>
      </trkpt>
      <trkpt lat="44.81403" lon="6.95311">
        <ele>1803</ele>
        <time>2021-03-19T15:29:58Z</time>
      </trkpt>
      <trkpt lat="44.81404" lon="6.9531">
        <ele>1803</ele>
        <time>2021-03-19T15:29:59Z</time>
      </trkpt>
      <trkpt lat="44.81405" lon="6.95309">
        <ele>1803</ele>
        <time>2021-03-19T15:30:00Z</time>
      </trkpt>
      <trkpt lat="44.81406" lon="6.95308">
        <ele>1803</ele>
        <time>2021-03-19T15:30:01Z</time>
      </trkpt>
      <trkpt lat="44.81407" lon="6.95307">
        <ele>1803</ele>
        <time>2021-03-19T15:30:02Z</time>
      </trkpt>
      <trkpt lat="44.81408" lon="6.95306">
        <ele>1802</ele>
        <time>2021-03-19T15:30:03Z</time>
      </trkpt>
      <trkpt lat="44.81409" lon="6.95305">
        <ele>1802</ele>
        <time>2021-03-19T15:30:04Z</time>
      </trkpt>
      <trkpt lat="44.81409" lon="6.95304">
        <ele>1802</ele>
        <time>2021-03-19T15:30:05Z</time>
      </trkpt>
      <trkpt lat="44.8141" lon="6.95302">
        <ele>1802</ele>
        <time>2021-03-19T15:30:06Z</time>
      </trkpt>
      <trkpt lat="44.81411" lon="6.95301">
        <ele>1802</ele>
        <time>2021-03-19T15:30:07Z</time>
      </trkpt>
      <trkpt lat="44.81411" lon="6.953">
        <ele>1802</ele>
        <time>2021-03-19T15:30:08Z</time>
      </trkpt>
      <trkpt lat="44.81412" lon="6.95299">
        <ele>1802</ele>
        <time>2021-03-19T15:30:09Z</time>
      </trkpt>
      <trkpt lat="44.81413" lon="6.95298">
        <ele>1802</ele>
        <time>2021-03-19T15:30:10Z</time>
      </trkpt>
      <trkpt lat="44.81414" lon="6.95297">
        <ele>1802</ele>
        <time>2021-03-19T15:30:11Z</time>
      </trkpt>
      <trkpt lat="44.81415" lon="6.95296">
        <ele>1802</ele>
        <time>2021-03-19T15:30:12Z</time>
      </trkpt>
      <trkpt lat="44.81416" lon="6.95295">
        <ele>1802</ele>
        <time>2021-03-19T15:30:13Z</time>
      </trkpt>
      <trkpt lat="44.81417" lon="6.95294">
        <ele>1802</ele>
        <time>2021-03-19T15:30:14Z</time>
      </trkpt>
      <trkpt lat="44.81418" lon="6.95294">
        <ele>1802</ele>
        <time>2021-03-19T15:30:15Z</time>
      </trkpt>
      <trkpt lat="44.81419" lon="6.95293">
        <ele>1802</ele>
        <time>2021-03-19T15:30:16Z</time>
      </trkpt>
      <trkpt lat="44.8142" lon="6.95292">
        <ele>1802</ele>
        <time>2021-03-19T15:30:17Z</time>
      </trkpt>
      <trkpt lat="44.81421" lon="6.95291">
        <ele>1802</ele>
        <time>2021-03-19T15:30:18Z</time>
      </trkpt>
      <trkpt lat="44.81422" lon="6.95291">
        <ele>1802</ele>
        <time>2021-03-19T15:30:19Z</time>
      </trkpt>
      <trkpt lat="44.81423" lon="6.9529">
        <ele>1802</ele>
        <time>2021-03-19T15:30:20Z</time>
      </trkpt>
      <trkpt lat="44.81423" lon="6.95289">
        <ele>1802</ele>
        <time>2021-03-19T15:30:21Z</time>
      </trkpt>
      <trkpt lat="44.81424" lon="6.95288">
        <ele>1802</ele>
        <time>2021-03-19T15:30:22Z</time>
      </trkpt>
      <trkpt lat="44.81425" lon="6.95287">
        <ele>1802</ele>
        <time>2021-03-19T15:30:23Z</time>
      </trkpt>
      <trkpt lat="44.81426" lon="6.95286">
        <ele>1802</ele>
        <time>2021-03-19T15:30:24Z</time>
      </trkpt>
      <trkpt lat="44.81427" lon="6.95285">
        <ele>1802</ele>
        <time>2021-03-19T15:30:25Z</time>
      </trkpt>
      <trkpt lat="44.81428" lon="6.95285">
        <ele>1802</ele>
        <time>2021-03-19T15:30:26Z</time>
      </trkpt>
      <trkpt lat="44.81429" lon="6.95284">
        <ele>1802</ele>
        <time>2021-03-19T15:30:27Z</time>
      </trkpt>
      <trkpt lat="44.8143" lon="6.95283">
        <ele>1802</ele>
        <time>2021-03-19T15:30:28Z</time>
      </trkpt>
      <trkpt lat="44.81431" lon="6.95282">
        <ele>1802</ele>
        <time>2021-03-19T15:30:29Z</time>
      </trkpt>
      <trkpt lat="44.81431" lon="6.95281">
        <ele>1802</ele>
        <time>2021-03-19T15:30:30Z</time>
      </trkpt>
      <trkpt lat="44.81432" lon="6.9528">
        <ele>1802</ele>
        <time>2021-03-19T15:30:31Z</time>
      </trkpt>
      <trkpt lat="44.81433" lon="6.95279">
        <ele>1802</ele>
        <time>2021-03-19T15:30:32Z</time>
      </trkpt>
      <trkpt lat="44.81434" lon="6.95278">
        <ele>1802</ele>
        <time>2021-03-19T15:30:33Z</time>
      </trkpt>
      <trkpt lat="44.81435" lon="6.95277">
        <ele>1802</ele>
        <time>2021-03-19T15:30:34Z</time>
      </trkpt>
      <trkpt lat="44.81436" lon="6.95276">
        <ele>1802</ele>
        <time>2021-03-19T15:30:35Z</time>
      </trkpt>
      <trkpt lat="44.81437" lon="6.95275">
        <ele>1802</ele>
        <time>2021-03-19T15:30:36Z</time>
      </trkpt>
      <trkpt lat="44.81438" lon="6.95274">
        <ele>1802</ele>
        <time>2021-03-19T15:30:37Z</time>
      </trkpt>
      <trkpt lat="44.81438" lon="6.95273">
        <ele>1802</ele>
        <time>2021-03-19T15:30:38Z</time>
      </trkpt>
      <trkpt lat="44.81439" lon="6.95273">
        <ele>1802</ele>
        <time>2021-03-19T15:30:39Z</time>
      </trkpt>
      <trkpt lat="44.8144" lon="6.95272">
        <ele>1802</ele>
        <time>2021-03-19T15:30:40Z</time>
      </trkpt>
      <trkpt lat="44.81441" lon="6.95271">
        <ele>1802</ele>
        <time>2021-03-19T15:30:41Z</time>
      </trkpt>
      <trkpt lat="44.81442" lon="6.9527">
        <ele>1802</ele>
        <time>2021-03-19T15:30:42Z</time>
      </trkpt>
      <trkpt lat="44.81443" lon="6.95269">
        <ele>1802</ele>
        <time>2021-03-19T15:30:43Z</time>
      </trkpt>
      <trkpt lat="44.81444" lon="6.95268">
        <ele>1802</ele>
        <time>2021-03-19T15:30:44Z</time>
      </trkpt>
      <trkpt lat="44.81445" lon="6.95268">
        <ele>1802</ele>
        <time>2021-03-19T15:30:45Z</time>
      </trkpt>
      <trkpt lat="44.81446" lon="6.95267">
        <ele>1802</ele>
        <time>2021-03-19T15:30:46Z</time>
      </trkpt>
      <trkpt lat="44.81448" lon="6.95266">
        <ele>1802</ele>
        <time>2021-03-19T15:30:47Z</time>
      </trkpt>
      <trkpt lat="44.81449" lon="6.95265">
        <ele>1802</ele>
        <time>2021-03-19T15:30:48Z</time>
      </trkpt>
      <trkpt lat="44.8145" lon="6.95264">
        <ele>1802</ele>
        <time>2021-03-19T15:30:49Z</time>
      </trkpt>
      <trkpt lat="44.81451" lon="6.95264">
        <ele>1802</ele>
        <time>2021-03-19T15:30:50Z</time>
      </trkpt>
      <trkpt lat="44.81451" lon="6.95263">
        <ele>1802</ele>
        <time>2021-03-19T15:30:51Z</time>
      </trkpt>
      <trkpt lat="44.81452" lon="6.95262">
        <ele>1802</ele>
        <time>2021-03-19T15:30:52Z</time>
      </trkpt>
      <trkpt lat="44.81453" lon="6.9526">
        <ele>1802</ele>
        <time>2021-03-19T15:30:53Z</time>
      </trkpt>
      <trkpt lat="44.81454" lon="6.95259">
        <ele>1802</ele>
        <time>2021-03-19T15:30:54Z</time>
      </trkpt>
      <trkpt lat="44.81454" lon="6.95258">
        <ele>1802</ele>
        <time>2021-03-19T15:30:55Z</time>
      </trkpt>
      <trkpt lat="44.81455" lon="6.95257">
        <ele>1802</ele>
        <time>2021-03-19T15:30:56Z</time>
      </trkpt>
      <trkpt lat="44.81456" lon="6.95256">
        <ele>1802</ele>
        <time>2021-03-19T15:30:57Z</time>
      </trkpt>
      <trkpt lat="44.81456" lon="6.95255">
        <ele>1802</ele>
        <time>2021-03-19T15:30:58Z</time>
      </trkpt>
      <trkpt lat="44.81457" lon="6.95254">
        <ele>1802</ele>
        <time>2021-03-19T15:30:59Z</time>
      </trkpt>
      <trkpt lat="44.81457" lon="6.95254">
        <ele>1802</ele>
        <time>2021-03-19T15:31:00Z</time>
      </trkpt>
      <trkpt lat="44.81458" lon="6.95252">
        <ele>1802</ele>
        <time>2021-03-19T15:31:01Z</time>
      </trkpt>
      <trkpt lat="44.81459" lon="6.95251">
        <ele>1802</ele>
        <time>2021-03-19T15:31:02Z</time>
      </trkpt>
      <trkpt lat="44.81459" lon="6.9525">
        <ele>1802</ele>
        <time>2021-03-19T15:31:03Z</time>
      </trkpt>
      <trkpt lat="44.81459" lon="6.95249">
        <ele>1802</ele>
        <time>2021-03-19T15:31:04Z</time>
      </trkpt>
      <trkpt lat="44.8146" lon="6.95248">
        <ele>1802</ele>
        <time>2021-03-19T15:31:05Z</time>
      </trkpt>
      <trkpt lat="44.8146" lon="6.95246">
        <ele>1802</ele>
        <time>2021-03-19T15:31:06Z</time>
      </trkpt>
      <trkpt lat="44.8146" lon="6.95245">
        <ele>1802</ele>
        <time>2021-03-19T15:31:07Z</time>
      </trkpt>
      <trkpt lat="44.81461" lon="6.95243">
        <ele>1802</ele>
        <time>2021-03-19T15:31:08Z</time>
      </trkpt>
      <trkpt lat="44.81461" lon="6.95241">
        <ele>1802</ele>
        <time>2021-03-19T15:31:09Z</time>
      </trkpt>
      <trkpt lat="44.81461" lon="6.95239">
        <ele>1802</ele>
        <time>2021-03-19T15:31:10Z</time>
      </trkpt>
      <trkpt lat="44.81462" lon="6.95238">
        <ele>1802</ele>
        <time>2021-03-19T15:31:11Z</time>
      </trkpt>
      <trkpt lat="44.81462" lon="6.95236">
        <ele>1802</ele>
        <time>2021-03-19T15:31:12Z</time>
      </trkpt>
      <trkpt lat="44.81463" lon="6.95235">
        <ele>1801</ele>
        <time>2021-03-19T15:31:13Z</time>
      </trkpt>
      <trkpt lat="44.81463" lon="6.95233">
        <ele>1801</ele>
        <time>2021-03-19T15:31:14Z</time>
      </trkpt>
      <trkpt lat="44.81463" lon="6.95231">
        <ele>1801</ele>
        <time>2021-03-19T15:31:15Z</time>
      </trkpt>
      <trkpt lat="44.81464" lon="6.9523">
        <ele>1801</ele>
        <time>2021-03-19T15:31:16Z</time>
      </trkpt>
      <trkpt lat="44.81464" lon="6.95228">
        <ele>1801</ele>
        <time>2021-03-19T15:31:17Z</time>
      </trkpt>
      <trkpt lat="44.81465" lon="6.95227">
        <ele>1801</ele>
        <time>2021-03-19T15:31:18Z</time>
      </trkpt>
      <trkpt lat="44.81465" lon="6.95225">
        <ele>1801</ele>
        <time>2021-03-19T15:31:19Z</time>
      </trkpt>
      <trkpt lat="44.81465" lon="6.95224">
        <ele>1801</ele>
        <time>2021-03-19T15:31:20Z</time>
      </trkpt>
      <trkpt lat="44.81465" lon="6.95222">
        <ele>1801</ele>
        <time>2021-03-19T15:31:21Z</time>
      </trkpt>
      <trkpt lat="44.81466" lon="6.95221">
        <ele>1801</ele>
        <time>2021-03-19T15:31:22Z</time>
      </trkpt>
      <trkpt lat="44.81466" lon="6.95219">
        <ele>1801</ele>
        <time>2021-03-19T15:31:23Z</time>
      </trkpt>
      <trkpt lat="44.81466" lon="6.95218">
        <ele>1801</ele>
        <time>2021-03-19T15:31:24Z</time>
      </trkpt>
      <trkpt lat="44.81466" lon="6.95217">
        <ele>1801</ele>
        <time>2021-03-19T15:31:25Z</time>
      </trkpt>
      <trkpt lat="44.81466" lon="6.95216">
        <ele>1801</ele>
        <time>2021-03-19T15:31:26Z</time>
      </trkpt>
      <trkpt lat="44.81467" lon="6.95215">
        <ele>1801</ele>
        <time>2021-03-19T15:31:27Z</time>
      </trkpt>
      <trkpt lat="44.81467" lon="6.95215">
        <ele>1801</ele>
        <time>2021-03-19T15:31:28Z</time>
      </trkpt>
      <trkpt lat="44.81467" lon="6.95214">
        <ele>1801</ele>
        <time>2021-03-19T15:31:29Z</time>
      </trkpt>
      <trkpt lat="44.81468" lon="6.95213">
        <ele>1801</ele>
        <time>2021-03-19T15:31:30Z</time>
      </trkpt>
      <trkpt lat="44.81468" lon="6.95212">
        <ele>1801</ele>
        <time>2021-03-19T15:31:31Z</time>
      </trkpt>
      <trkpt lat="44.81469" lon="6.95212">
        <ele>1801</ele>
        <time>2021-03-19T15:31:32Z</time>
      </trkpt>
      <trkpt lat="44.81469" lon="6.95211">
        <ele>1800</ele>
        <time>2021-03-19T15:31:33Z</time>
      </trkpt>
      <trkpt lat="44.8147" lon="6.9521">
        <ele>1800</ele>
        <time>2021-03-19T15:31:34Z</time>
      </trkpt>
      <trkpt lat="44.81471" lon="6.95209">
        <ele>1800</ele>
        <time>2021-03-19T15:31:35Z</time>
      </trkpt>
      <trkpt lat="44.81472" lon="6.95208">
        <ele>1800</ele>
        <time>2021-03-19T15:31:36Z</time>
      </trkpt>
      <trkpt lat="44.81473" lon="6.95207">
        <ele>1800</ele>
        <time>2021-03-19T15:31:37Z</time>
      </trkpt>
      <trkpt lat="44.81474" lon="6.95206">
        <ele>1800</ele>
        <time>2021-03-19T15:31:38Z</time>
      </trkpt>
      <trkpt lat="44.81474" lon="6.95205">
        <ele>1800</ele>
        <time>2021-03-19T15:31:39Z</time>
      </trkpt>
      <trkpt lat="44.81475" lon="6.95203">
        <ele>1800</ele>
        <time>2021-03-19T15:31:40Z</time>
      </trkpt>
      <trkpt lat="44.81476" lon="6.95202">
        <ele>1800</ele>
        <time>2021-03-19T15:31:41Z</time>
      </trkpt>
      <trkpt lat="44.81477" lon="6.95201">
        <ele>1800</ele>
        <time>2021-03-19T15:31:42Z</time>
      </trkpt>
      <trkpt lat="44.81478" lon="6.952">
        <ele>1799</ele>
        <time>2021-03-19T15:31:43Z</time>
      </trkpt>
      <trkpt lat="44.81479" lon="6.95199">
        <ele>1799</ele>
        <time>2021-03-19T15:31:44Z</time>
      </trkpt>
      <trkpt lat="44.8148" lon="6.95198">
        <ele>1799</ele>
        <time>2021-03-19T15:31:45Z</time>
      </trkpt>
      <trkpt lat="44.81481" lon="6.95197">
        <ele>1799</ele>
        <time>2021-03-19T15:31:46Z</time>
      </trkpt>
      <trkpt lat="44.81482" lon="6.95197">
        <ele>1799</ele>
        <time>2021-03-19T15:31:47Z</time>
      </trkpt>
      <trkpt lat="44.81483" lon="6.95196">
        <ele>1799</ele>
        <time>2021-03-19T15:31:48Z</time>
      </trkpt>
      <trkpt lat="44.81484" lon="6.95195">
        <ele>1799</ele>
        <time>2021-03-19T15:31:49Z</time>
      </trkpt>
      <trkpt lat="44.81485" lon="6.95194">
        <ele>1799</ele>
        <time>2021-03-19T15:31:50Z</time>
      </trkpt>
      <trkpt lat="44.81486" lon="6.95193">
        <ele>1799</ele>
        <time>2021-03-19T15:31:51Z</time>
      </trkpt>
      <trkpt lat="44.81487" lon="6.95192">
        <ele>1799</ele>
        <time>2021-03-19T15:31:52Z</time>
      </trkpt>
      <trkpt lat="44.81488" lon="6.95191">
        <ele>1798</ele>
        <time>2021-03-19T15:31:53Z</time>
      </trkpt>
      <trkpt lat="44.81488" lon="6.9519">
        <ele>1798</ele>
        <time>2021-03-19T15:31:54Z</time>
      </trkpt>
      <trkpt lat="44.81489" lon="6.95189">
        <ele>1798</ele>
        <time>2021-03-19T15:31:55Z</time>
      </trkpt>
      <trkpt lat="44.8149" lon="6.95188">
        <ele>1798</ele>
        <time>2021-03-19T15:31:56Z</time>
      </trkpt>
      <trkpt lat="44.81491" lon="6.95187">
        <ele>1798</ele>
        <time>2021-03-19T15:31:57Z</time>
      </trkpt>
      <trkpt lat="44.81492" lon="6.95186">
        <ele>1798</ele>
        <time>2021-03-19T15:31:58Z</time>
      </trkpt>
      <trkpt lat="44.81493" lon="6.95185">
        <ele>1798</ele>
        <time>2021-03-19T15:31:59Z</time>
      </trkpt>
      <trkpt lat="44.81494" lon="6.95184">
        <ele>1798</ele>
        <time>2021-03-19T15:32:00Z</time>
      </trkpt>
      <trkpt lat="44.81495" lon="6.95184">
        <ele>1798</ele>
        <time>2021-03-19T15:32:01Z</time>
      </trkpt>
      <trkpt lat="44.81496" lon="6.95183">
        <ele>1798</ele>
        <time>2021-03-19T15:32:02Z</time>
      </trkpt>
      <trkpt lat="44.81497" lon="6.95182">
        <ele>1797</ele>
        <time>2021-03-19T15:32:03Z</time>
      </trkpt>
      <trkpt lat="44.81498" lon="6.95181">
        <ele>1797</ele>
        <time>2021-03-19T15:32:04Z</time>
      </trkpt>
      <trkpt lat="44.81499" lon="6.9518">
        <ele>1797</ele>
        <time>2021-03-19T15:32:05Z</time>
      </trkpt>
      <trkpt lat="44.815" lon="6.9518">
        <ele>1797</ele>
        <time>2021-03-19T15:32:06Z</time>
      </trkpt>
      <trkpt lat="44.81501" lon="6.95179">
        <ele>1797</ele>
        <time>2021-03-19T15:32:07Z</time>
      </trkpt>
      <trkpt lat="44.81502" lon="6.95179">
        <ele>1796</ele>
        <time>2021-03-19T15:32:08Z</time>
      </trkpt>
      <trkpt lat="44.81503" lon="6.95178">
        <ele>1796</ele>
        <time>2021-03-19T15:32:09Z</time>
      </trkpt>
      <trkpt lat="44.81504" lon="6.95177">
        <ele>1796</ele>
        <time>2021-03-19T15:32:10Z</time>
      </trkpt>
      <trkpt lat="44.81505" lon="6.95176">
        <ele>1796</ele>
        <time>2021-03-19T15:32:11Z</time>
      </trkpt>
      <trkpt lat="44.81506" lon="6.95175">
        <ele>1796</ele>
        <time>2021-03-19T15:32:12Z</time>
      </trkpt>
      <trkpt lat="44.81507" lon="6.95174">
        <ele>1796</ele>
        <time>2021-03-19T15:32:13Z</time>
      </trkpt>
      <trkpt lat="44.81508" lon="6.95173">
        <ele>1796</ele>
        <time>2021-03-19T15:32:14Z</time>
      </trkpt>
      <trkpt lat="44.81508" lon="6.95172">
        <ele>1796</ele>
        <time>2021-03-19T15:32:15Z</time>
      </trkpt>
      <trkpt lat="44.81509" lon="6.95171">
        <ele>1796</ele>
        <time>2021-03-19T15:32:16Z</time>
      </trkpt>
      <trkpt lat="44.8151" lon="6.9517">
        <ele>1796</ele>
        <time>2021-03-19T15:32:17Z</time>
      </trkpt>
      <trkpt lat="44.81511" lon="6.95169">
        <ele>1795</ele>
        <time>2021-03-19T15:32:18Z</time>
      </trkpt>
      <trkpt lat="44.81512" lon="6.95168">
        <ele>1795</ele>
        <time>2021-03-19T15:32:19Z</time>
      </trkpt>
      <trkpt lat="44.81513" lon="6.95167">
        <ele>1795</ele>
        <time>2021-03-19T15:32:20Z</time>
      </trkpt>
      <trkpt lat="44.81513" lon="6.95166">
        <ele>1795</ele>
        <time>2021-03-19T15:32:21Z</time>
      </trkpt>
      <trkpt lat="44.81514" lon="6.95165">
        <ele>1795</ele>
        <time>2021-03-19T15:32:22Z</time>
      </trkpt>
      <trkpt lat="44.81515" lon="6.95164">
        <ele>1795</ele>
        <time>2021-03-19T15:32:23Z</time>
      </trkpt>
      <trkpt lat="44.81516" lon="6.95163">
        <ele>1795</ele>
        <time>2021-03-19T15:32:24Z</time>
      </trkpt>
      <trkpt lat="44.81517" lon="6.95162">
        <ele>1795</ele>
        <time>2021-03-19T15:32:25Z</time>
      </trkpt>
      <trkpt lat="44.81518" lon="6.95161">
        <ele>1795</ele>
        <time>2021-03-19T15:32:26Z</time>
      </trkpt>
      <trkpt lat="44.81518" lon="6.95161">
        <ele>1795</ele>
        <time>2021-03-19T15:32:27Z</time>
      </trkpt>
      <trkpt lat="44.81519" lon="6.9516">
        <ele>1794</ele>
        <time>2021-03-19T15:32:28Z</time>
      </trkpt>
      <trkpt lat="44.8152" lon="6.95159">
        <ele>1794</ele>
        <time>2021-03-19T15:32:29Z</time>
      </trkpt>
      <trkpt lat="44.81521" lon="6.95158">
        <ele>1794</ele>
        <time>2021-03-19T15:32:30Z</time>
      </trkpt>
      <trkpt lat="44.81521" lon="6.95157">
        <ele>1794</ele>
        <time>2021-03-19T15:32:31Z</time>
      </trkpt>
      <trkpt lat="44.81522" lon="6.95156">
        <ele>1794</ele>
        <time>2021-03-19T15:32:32Z</time>
      </trkpt>
      <trkpt lat="44.81523" lon="6.95155">
        <ele>1793</ele>
        <time>2021-03-19T15:32:33Z</time>
      </trkpt>
      <trkpt lat="44.81524" lon="6.95154">
        <ele>1793</ele>
        <time>2021-03-19T15:32:34Z</time>
      </trkpt>
      <trkpt lat="44.81524" lon="6.95153">
        <ele>1793</ele>
        <time>2021-03-19T15:32:35Z</time>
      </trkpt>
      <trkpt lat="44.81525" lon="6.95151">
        <ele>1793</ele>
        <time>2021-03-19T15:32:36Z</time>
      </trkpt>
      <trkpt lat="44.81525" lon="6.9515">
        <ele>1793</ele>
        <time>2021-03-19T15:32:37Z</time>
      </trkpt>
      <trkpt lat="44.81526" lon="6.95149">
        <ele>1792</ele>
        <time>2021-03-19T15:32:38Z</time>
      </trkpt>
      <trkpt lat="44.81526" lon="6.95148">
        <ele>1792</ele>
        <time>2021-03-19T15:32:39Z</time>
      </trkpt>
      <trkpt lat="44.81527" lon="6.95146">
        <ele>1792</ele>
        <time>2021-03-19T15:32:40Z</time>
      </trkpt>
      <trkpt lat="44.81527" lon="6.95145">
        <ele>1792</ele>
        <time>2021-03-19T15:32:41Z</time>
      </trkpt>
      <trkpt lat="44.81527" lon="6.95143">
        <ele>1792</ele>
        <time>2021-03-19T15:32:42Z</time>
      </trkpt>
      <trkpt lat="44.81527" lon="6.95142">
        <ele>1792</ele>
        <time>2021-03-19T15:32:43Z</time>
      </trkpt>
      <trkpt lat="44.81527" lon="6.9514">
        <ele>1792</ele>
        <time>2021-03-19T15:32:44Z</time>
      </trkpt>
      <trkpt lat="44.81527" lon="6.95139">
        <ele>1792</ele>
        <time>2021-03-19T15:32:45Z</time>
      </trkpt>
      <trkpt lat="44.81528" lon="6.95137">
        <ele>1792</ele>
        <time>2021-03-19T15:32:46Z</time>
      </trkpt>
      <trkpt lat="44.81527" lon="6.95136">
        <ele>1792</ele>
        <time>2021-03-19T15:32:47Z</time>
      </trkpt>
      <trkpt lat="44.81527" lon="6.95134">
        <ele>1791</ele>
        <time>2021-03-19T15:32:48Z</time>
      </trkpt>
      <trkpt lat="44.81527" lon="6.95133">
        <ele>1791</ele>
        <time>2021-03-19T15:32:49Z</time>
      </trkpt>
      <trkpt lat="44.81528" lon="6.95131">
        <ele>1791</ele>
        <time>2021-03-19T15:32:50Z</time>
      </trkpt>
      <trkpt lat="44.81528" lon="6.9513">
        <ele>1791</ele>
        <time>2021-03-19T15:32:51Z</time>
      </trkpt>
      <trkpt lat="44.81528" lon="6.95128">
        <ele>1791</ele>
        <time>2021-03-19T15:32:52Z</time>
      </trkpt>
      <trkpt lat="44.81528" lon="6.95127">
        <ele>1790</ele>
        <time>2021-03-19T15:32:53Z</time>
      </trkpt>
      <trkpt lat="44.81528" lon="6.95125">
        <ele>1790</ele>
        <time>2021-03-19T15:32:54Z</time>
      </trkpt>
      <trkpt lat="44.81528" lon="6.95124">
        <ele>1790</ele>
        <time>2021-03-19T15:32:55Z</time>
      </trkpt>
      <trkpt lat="44.81528" lon="6.95122">
        <ele>1790</ele>
        <time>2021-03-19T15:32:56Z</time>
      </trkpt>
      <trkpt lat="44.81528" lon="6.95121">
        <ele>1790</ele>
        <time>2021-03-19T15:32:57Z</time>
      </trkpt>
      <trkpt lat="44.81528" lon="6.95119">
        <ele>1790</ele>
        <time>2021-03-19T15:32:58Z</time>
      </trkpt>
      <trkpt lat="44.81528" lon="6.95118">
        <ele>1790</ele>
        <time>2021-03-19T15:32:59Z</time>
      </trkpt>
      <trkpt lat="44.81529" lon="6.95116">
        <ele>1790</ele>
        <time>2021-03-19T15:33:00Z</time>
      </trkpt>
      <trkpt lat="44.81529" lon="6.95114">
        <ele>1790</ele>
        <time>2021-03-19T15:33:01Z</time>
      </trkpt>
      <trkpt lat="44.81529" lon="6.95113">
        <ele>1790</ele>
        <time>2021-03-19T15:33:02Z</time>
      </trkpt>
      <trkpt lat="44.81529" lon="6.95111">
        <ele>1789</ele>
        <time>2021-03-19T15:33:03Z</time>
      </trkpt>
      <trkpt lat="44.8153" lon="6.9511">
        <ele>1789</ele>
        <time>2021-03-19T15:33:04Z</time>
      </trkpt>
      <trkpt lat="44.8153" lon="6.95108">
        <ele>1789</ele>
        <time>2021-03-19T15:33:05Z</time>
      </trkpt>
      <trkpt lat="44.81531" lon="6.95107">
        <ele>1789</ele>
        <time>2021-03-19T15:33:06Z</time>
      </trkpt>
      <trkpt lat="44.81531" lon="6.95105">
        <ele>1789</ele>
        <time>2021-03-19T15:33:07Z</time>
      </trkpt>
      <trkpt lat="44.81531" lon="6.95104">
        <ele>1789</ele>
        <time>2021-03-19T15:33:08Z</time>
      </trkpt>
      <trkpt lat="44.81532" lon="6.95103">
        <ele>1789</ele>
        <time>2021-03-19T15:33:09Z</time>
      </trkpt>
      <trkpt lat="44.81532" lon="6.95101">
        <ele>1789</ele>
        <time>2021-03-19T15:33:10Z</time>
      </trkpt>
      <trkpt lat="44.81533" lon="6.951">
        <ele>1789</ele>
        <time>2021-03-19T15:33:11Z</time>
      </trkpt>
      <trkpt lat="44.81533" lon="6.95098">
        <ele>1789</ele>
        <time>2021-03-19T15:33:12Z</time>
      </trkpt>
      <trkpt lat="44.81533" lon="6.95097">
        <ele>1788</ele>
        <time>2021-03-19T15:33:13Z</time>
      </trkpt>
      <trkpt lat="44.81534" lon="6.95096">
        <ele>1788</ele>
        <time>2021-03-19T15:33:14Z</time>
      </trkpt>
      <trkpt lat="44.81534" lon="6.95094">
        <ele>1788</ele>
        <time>2021-03-19T15:33:15Z</time>
      </trkpt>
      <trkpt lat="44.81534" lon="6.95093">
        <ele>1788</ele>
        <time>2021-03-19T15:33:16Z</time>
      </trkpt>
      <trkpt lat="44.81535" lon="6.95091">
        <ele>1788</ele>
        <time>2021-03-19T15:33:17Z</time>
      </trkpt>
      <trkpt lat="44.81535" lon="6.9509">
        <ele>1788</ele>
        <time>2021-03-19T15:33:18Z</time>
      </trkpt>
      <trkpt lat="44.81535" lon="6.95088">
        <ele>1788</ele>
        <time>2021-03-19T15:33:19Z</time>
      </trkpt>
      <trkpt lat="44.81536" lon="6.95087">
        <ele>1788</ele>
        <time>2021-03-19T15:33:20Z</time>
      </trkpt>
      <trkpt lat="44.81536" lon="6.95085">
        <ele>1788</ele>
        <time>2021-03-19T15:33:21Z</time>
      </trkpt>
      <trkpt lat="44.81536" lon="6.95084">
        <ele>1788</ele>
        <time>2021-03-19T15:33:22Z</time>
      </trkpt>
      <trkpt lat="44.81536" lon="6.95082">
        <ele>1787</ele>
        <time>2021-03-19T15:33:23Z</time>
      </trkpt>
      <trkpt lat="44.81536" lon="6.95081">
        <ele>1787</ele>
        <time>2021-03-19T15:33:24Z</time>
      </trkpt>
      <trkpt lat="44.81536" lon="6.95079">
        <ele>1787</ele>
        <time>2021-03-19T15:33:25Z</time>
      </trkpt>
      <trkpt lat="44.81536" lon="6.95078">
        <ele>1787</ele>
        <time>2021-03-19T15:33:26Z</time>
      </trkpt>
      <trkpt lat="44.81536" lon="6.95076">
        <ele>1787</ele>
        <time>2021-03-19T15:33:27Z</time>
      </trkpt>
      <trkpt lat="44.81537" lon="6.95075">
        <ele>1787</ele>
        <time>2021-03-19T15:33:28Z</time>
      </trkpt>
      <trkpt lat="44.81537" lon="6.95073">
        <ele>1787</ele>
        <time>2021-03-19T15:33:29Z</time>
      </trkpt>
      <trkpt lat="44.81537" lon="6.95072">
        <ele>1787</ele>
        <time>2021-03-19T15:33:30Z</time>
      </trkpt>
      <trkpt lat="44.81537" lon="6.9507">
        <ele>1787</ele>
        <time>2021-03-19T15:33:31Z</time>
      </trkpt>
      <trkpt lat="44.81537" lon="6.95069">
        <ele>1787</ele>
        <time>2021-03-19T15:33:32Z</time>
      </trkpt>
      <trkpt lat="44.81538" lon="6.95067">
        <ele>1786</ele>
        <time>2021-03-19T15:33:33Z</time>
      </trkpt>
      <trkpt lat="44.81538" lon="6.95066">
        <ele>1786</ele>
        <time>2021-03-19T15:33:34Z</time>
      </trkpt>
      <trkpt lat="44.81538" lon="6.95064">
        <ele>1786</ele>
        <time>2021-03-19T15:33:35Z</time>
      </trkpt>
      <trkpt lat="44.81538" lon="6.95063">
        <ele>1786</ele>
        <time>2021-03-19T15:33:36Z</time>
      </trkpt>
      <trkpt lat="44.81538" lon="6.95061">
        <ele>1786</ele>
        <time>2021-03-19T15:33:37Z</time>
      </trkpt>
      <trkpt lat="44.81538" lon="6.95059">
        <ele>1786</ele>
        <time>2021-03-19T15:33:38Z</time>
      </trkpt>
      <trkpt lat="44.81538" lon="6.95058">
        <ele>1786</ele>
        <time>2021-03-19T15:33:39Z</time>
      </trkpt>
      <trkpt lat="44.81538" lon="6.95056">
        <ele>1786</ele>
        <time>2021-03-19T15:33:40Z</time>
      </trkpt>
      <trkpt lat="44.81538" lon="6.95055">
        <ele>1786</ele>
        <time>2021-03-19T15:33:41Z</time>
      </trkpt>
      <trkpt lat="44.81539" lon="6.95053">
        <ele>1786</ele>
        <time>2021-03-19T15:33:42Z</time>
      </trkpt>
      <trkpt lat="44.81539" lon="6.95052">
        <ele>1786</ele>
        <time>2021-03-19T15:33:43Z</time>
      </trkpt>
      <trkpt lat="44.81539" lon="6.9505">
        <ele>1786</ele>
        <time>2021-03-19T15:33:44Z</time>
      </trkpt>
      <trkpt lat="44.81539" lon="6.95049">
        <ele>1786</ele>
        <time>2021-03-19T15:33:45Z</time>
      </trkpt>
      <trkpt lat="44.8154" lon="6.95047">
        <ele>1786</ele>
        <time>2021-03-19T15:33:46Z</time>
      </trkpt>
      <trkpt lat="44.8154" lon="6.95046">
        <ele>1786</ele>
        <time>2021-03-19T15:33:47Z</time>
      </trkpt>
      <trkpt lat="44.8154" lon="6.95045">
        <ele>1785</ele>
        <time>2021-03-19T15:33:48Z</time>
      </trkpt>
      <trkpt lat="44.81541" lon="6.95043">
        <ele>1785</ele>
        <time>2021-03-19T15:33:49Z</time>
      </trkpt>
      <trkpt lat="44.81541" lon="6.95042">
        <ele>1785</ele>
        <time>2021-03-19T15:33:50Z</time>
      </trkpt>
      <trkpt lat="44.81542" lon="6.95041">
        <ele>1785</ele>
        <time>2021-03-19T15:33:51Z</time>
      </trkpt>
      <trkpt lat="44.81542" lon="6.95039">
        <ele>1785</ele>
        <time>2021-03-19T15:33:52Z</time>
      </trkpt>
      <trkpt lat="44.81542" lon="6.95038">
        <ele>1785</ele>
        <time>2021-03-19T15:33:53Z</time>
      </trkpt>
      <trkpt lat="44.81543" lon="6.95036">
        <ele>1785</ele>
        <time>2021-03-19T15:33:54Z</time>
      </trkpt>
      <trkpt lat="44.81543" lon="6.95035">
        <ele>1785</ele>
        <time>2021-03-19T15:33:55Z</time>
      </trkpt>
      <trkpt lat="44.81543" lon="6.95034">
        <ele>1785</ele>
        <time>2021-03-19T15:33:56Z</time>
      </trkpt>
      <trkpt lat="44.81543" lon="6.95032">
        <ele>1785</ele>
        <time>2021-03-19T15:33:57Z</time>
      </trkpt>
      <trkpt lat="44.81544" lon="6.95031">
        <ele>1785</ele>
        <time>2021-03-19T15:33:58Z</time>
      </trkpt>
      <trkpt lat="44.81544" lon="6.95029">
        <ele>1785</ele>
        <time>2021-03-19T15:33:59Z</time>
      </trkpt>
      <trkpt lat="44.81544" lon="6.95028">
        <ele>1785</ele>
        <time>2021-03-19T15:34:00Z</time>
      </trkpt>
      <trkpt lat="44.81545" lon="6.95026">
        <ele>1785</ele>
        <time>2021-03-19T15:34:01Z</time>
      </trkpt>
      <trkpt lat="44.81545" lon="6.95025">
        <ele>1785</ele>
        <time>2021-03-19T15:34:02Z</time>
      </trkpt>
      <trkpt lat="44.81545" lon="6.95023">
        <ele>1784</ele>
        <time>2021-03-19T15:34:03Z</time>
      </trkpt>
      <trkpt lat="44.81546" lon="6.95022">
        <ele>1784</ele>
        <time>2021-03-19T15:34:04Z</time>
      </trkpt>
      <trkpt lat="44.81546" lon="6.95021">
        <ele>1784</ele>
        <time>2021-03-19T15:34:05Z</time>
      </trkpt>
      <trkpt lat="44.81546" lon="6.95019">
        <ele>1784</ele>
        <time>2021-03-19T15:34:06Z</time>
      </trkpt>
      <trkpt lat="44.81546" lon="6.95018">
        <ele>1784</ele>
        <time>2021-03-19T15:34:07Z</time>
      </trkpt>
      <trkpt lat="44.81547" lon="6.95016">
        <ele>1783</ele>
        <time>2021-03-19T15:34:08Z</time>
      </trkpt>
      <trkpt lat="44.81547" lon="6.95015">
        <ele>1783</ele>
        <time>2021-03-19T15:34:09Z</time>
      </trkpt>
      <trkpt lat="44.81547" lon="6.95014">
        <ele>1783</ele>
        <time>2021-03-19T15:34:10Z</time>
      </trkpt>
      <trkpt lat="44.81547" lon="6.95012">
        <ele>1783</ele>
        <time>2021-03-19T15:34:11Z</time>
      </trkpt>
      <trkpt lat="44.81548" lon="6.95011">
        <ele>1783</ele>
        <time>2021-03-19T15:34:12Z</time>
      </trkpt>
      <trkpt lat="44.81548" lon="6.9501">
        <ele>1783</ele>
        <time>2021-03-19T15:34:13Z</time>
      </trkpt>
      <trkpt lat="44.81548" lon="6.95008">
        <ele>1783</ele>
        <time>2021-03-19T15:34:14Z</time>
      </trkpt>
      <trkpt lat="44.81548" lon="6.95007">
        <ele>1783</ele>
        <time>2021-03-19T15:34:15Z</time>
      </trkpt>
      <trkpt lat="44.81548" lon="6.95005">
        <ele>1783</ele>
        <time>2021-03-19T15:34:16Z</time>
      </trkpt>
      <trkpt lat="44.81549" lon="6.95004">
        <ele>1783</ele>
        <time>2021-03-19T15:34:17Z</time>
      </trkpt>
      <trkpt lat="44.81549" lon="6.95003">
        <ele>1783</ele>
        <time>2021-03-19T15:34:18Z</time>
      </trkpt>
      <trkpt lat="44.81549" lon="6.95001">
        <ele>1783</ele>
        <time>2021-03-19T15:34:19Z</time>
      </trkpt>
      <trkpt lat="44.81549" lon="6.95">
        <ele>1783</ele>
        <time>2021-03-19T15:34:20Z</time>
      </trkpt>
      <trkpt lat="44.81549" lon="6.94999">
        <ele>1783</ele>
        <time>2021-03-19T15:34:21Z</time>
      </trkpt>
      <trkpt lat="44.8155" lon="6.94997">
        <ele>1783</ele>
        <time>2021-03-19T15:34:22Z</time>
      </trkpt>
      <trkpt lat="44.8155" lon="6.94996">
        <ele>1783</ele>
        <time>2021-03-19T15:34:23Z</time>
      </trkpt>
      <trkpt lat="44.8155" lon="6.94994">
        <ele>1783</ele>
        <time>2021-03-19T15:34:24Z</time>
      </trkpt>
      <trkpt lat="44.8155" lon="6.94993">
        <ele>1783</ele>
        <time>2021-03-19T15:34:25Z</time>
      </trkpt>
      <trkpt lat="44.8155" lon="6.94991">
        <ele>1783</ele>
        <time>2021-03-19T15:34:26Z</time>
      </trkpt>
      <trkpt lat="44.8155" lon="6.9499">
        <ele>1783</ele>
        <time>2021-03-19T15:34:27Z</time>
      </trkpt>
      <trkpt lat="44.8155" lon="6.94988">
        <ele>1782</ele>
        <time>2021-03-19T15:34:28Z</time>
      </trkpt>
      <trkpt lat="44.8155" lon="6.94987">
        <ele>1782</ele>
        <time>2021-03-19T15:34:29Z</time>
      </trkpt>
      <trkpt lat="44.81551" lon="6.94985">
        <ele>1782</ele>
        <time>2021-03-19T15:34:30Z</time>
      </trkpt>
      <trkpt lat="44.81551" lon="6.94984">
        <ele>1782</ele>
        <time>2021-03-19T15:34:31Z</time>
      </trkpt>
      <trkpt lat="44.81551" lon="6.94982">
        <ele>1782</ele>
        <time>2021-03-19T15:34:32Z</time>
      </trkpt>
      <trkpt lat="44.8155" lon="6.9498">
        <ele>1782</ele>
        <time>2021-03-19T15:34:33Z</time>
      </trkpt>
      <trkpt lat="44.8155" lon="6.94979">
        <ele>1782</ele>
        <time>2021-03-19T15:34:34Z</time>
      </trkpt>
      <trkpt lat="44.8155" lon="6.94977">
        <ele>1782</ele>
        <time>2021-03-19T15:34:35Z</time>
      </trkpt>
      <trkpt lat="44.8155" lon="6.94976">
        <ele>1782</ele>
        <time>2021-03-19T15:34:36Z</time>
      </trkpt>
      <trkpt lat="44.8155" lon="6.94974">
        <ele>1782</ele>
        <time>2021-03-19T15:34:37Z</time>
      </trkpt>
      <trkpt lat="44.8155" lon="6.94972">
        <ele>1781</ele>
        <time>2021-03-19T15:34:38Z</time>
      </trkpt>
      <trkpt lat="44.8155" lon="6.94971">
        <ele>1781</ele>
        <time>2021-03-19T15:34:39Z</time>
      </trkpt>
      <trkpt lat="44.81551" lon="6.94969">
        <ele>1781</ele>
        <time>2021-03-19T15:34:40Z</time>
      </trkpt>
      <trkpt lat="44.81551" lon="6.94968">
        <ele>1781</ele>
        <time>2021-03-19T15:34:41Z</time>
      </trkpt>
      <trkpt lat="44.81551" lon="6.94966">
        <ele>1781</ele>
        <time>2021-03-19T15:34:42Z</time>
      </trkpt>
      <trkpt lat="44.81551" lon="6.94965">
        <ele>1781</ele>
        <time>2021-03-19T15:34:43Z</time>
      </trkpt>
      <trkpt lat="44.81551" lon="6.94964">
        <ele>1781</ele>
        <time>2021-03-19T15:34:44Z</time>
      </trkpt>
      <trkpt lat="44.81551" lon="6.94962">
        <ele>1781</ele>
        <time>2021-03-19T15:34:45Z</time>
      </trkpt>
      <trkpt lat="44.81551" lon="6.94961">
        <ele>1781</ele>
        <time>2021-03-19T15:34:46Z</time>
      </trkpt>
      <trkpt lat="44.81551" lon="6.94959">
        <ele>1781</ele>
        <time>2021-03-19T15:34:47Z</time>
      </trkpt>
      <trkpt lat="44.81551" lon="6.94958">
        <ele>1781</ele>
        <time>2021-03-19T15:34:48Z</time>
      </trkpt>
      <trkpt lat="44.81551" lon="6.94956">
        <ele>1781</ele>
        <time>2021-03-19T15:34:49Z</time>
      </trkpt>
      <trkpt lat="44.81551" lon="6.94955">
        <ele>1781</ele>
        <time>2021-03-19T15:34:50Z</time>
      </trkpt>
      <trkpt lat="44.81551" lon="6.94954">
        <ele>1781</ele>
        <time>2021-03-19T15:34:51Z</time>
      </trkpt>
      <trkpt lat="44.81551" lon="6.94952">
        <ele>1781</ele>
        <time>2021-03-19T15:34:52Z</time>
      </trkpt>
      <trkpt lat="44.81551" lon="6.94951">
        <ele>1780</ele>
        <time>2021-03-19T15:34:53Z</time>
      </trkpt>
      <trkpt lat="44.81551" lon="6.94949">
        <ele>1780</ele>
        <time>2021-03-19T15:34:54Z</time>
      </trkpt>
      <trkpt lat="44.81551" lon="6.94948">
        <ele>1780</ele>
        <time>2021-03-19T15:34:55Z</time>
      </trkpt>
      <trkpt lat="44.81551" lon="6.94947">
        <ele>1780</ele>
        <time>2021-03-19T15:34:56Z</time>
      </trkpt>
      <trkpt lat="44.81551" lon="6.94945">
        <ele>1780</ele>
        <time>2021-03-19T15:34:57Z</time>
      </trkpt>
      <trkpt lat="44.81551" lon="6.94944">
        <ele>1780</ele>
        <time>2021-03-19T15:34:58Z</time>
      </trkpt>
      <trkpt lat="44.81551" lon="6.94943">
        <ele>1780</ele>
        <time>2021-03-19T15:34:59Z</time>
      </trkpt>
      <trkpt lat="44.81551" lon="6.94941">
        <ele>1780</ele>
        <time>2021-03-19T15:35:00Z</time>
      </trkpt>
      <trkpt lat="44.81552" lon="6.9494">
        <ele>1780</ele>
        <time>2021-03-19T15:35:01Z</time>
      </trkpt>
      <trkpt lat="44.81552" lon="6.94938">
        <ele>1780</ele>
        <time>2021-03-19T15:35:02Z</time>
      </trkpt>
      <trkpt lat="44.81552" lon="6.94937">
        <ele>1780</ele>
        <time>2021-03-19T15:35:03Z</time>
      </trkpt>
      <trkpt lat="44.81552" lon="6.94935">
        <ele>1780</ele>
        <time>2021-03-19T15:35:04Z</time>
      </trkpt>
      <trkpt lat="44.81552" lon="6.94934">
        <ele>1780</ele>
        <time>2021-03-19T15:35:05Z</time>
      </trkpt>
      <trkpt lat="44.81553" lon="6.94933">
        <ele>1780</ele>
        <time>2021-03-19T15:35:06Z</time>
      </trkpt>
      <trkpt lat="44.81553" lon="6.94931">
        <ele>1780</ele>
        <time>2021-03-19T15:35:07Z</time>
      </trkpt>
      <trkpt lat="44.81554" lon="6.9493">
        <ele>1779</ele>
        <time>2021-03-19T15:35:08Z</time>
      </trkpt>
      <trkpt lat="44.81554" lon="6.94928">
        <ele>1779</ele>
        <time>2021-03-19T15:35:09Z</time>
      </trkpt>
      <trkpt lat="44.81554" lon="6.94927">
        <ele>1779</ele>
        <time>2021-03-19T15:35:10Z</time>
      </trkpt>
      <trkpt lat="44.81555" lon="6.94926">
        <ele>1779</ele>
        <time>2021-03-19T15:35:11Z</time>
      </trkpt>
      <trkpt lat="44.81555" lon="6.94925">
        <ele>1779</ele>
        <time>2021-03-19T15:35:12Z</time>
      </trkpt>
      <trkpt lat="44.81556" lon="6.94923">
        <ele>1779</ele>
        <time>2021-03-19T15:35:13Z</time>
      </trkpt>
      <trkpt lat="44.81556" lon="6.94922">
        <ele>1779</ele>
        <time>2021-03-19T15:35:14Z</time>
      </trkpt>
      <trkpt lat="44.81556" lon="6.9492">
        <ele>1779</ele>
        <time>2021-03-19T15:35:15Z</time>
      </trkpt>
      <trkpt lat="44.81557" lon="6.94919">
        <ele>1779</ele>
        <time>2021-03-19T15:35:16Z</time>
      </trkpt>
      <trkpt lat="44.81557" lon="6.94918">
        <ele>1779</ele>
        <time>2021-03-19T15:35:17Z</time>
      </trkpt>
      <trkpt lat="44.81558" lon="6.94916">
        <ele>1778</ele>
        <time>2021-03-19T15:35:18Z</time>
      </trkpt>
      <trkpt lat="44.81558" lon="6.94915">
        <ele>1778</ele>
        <time>2021-03-19T15:35:19Z</time>
      </trkpt>
      <trkpt lat="44.81559" lon="6.94914">
        <ele>1778</ele>
        <time>2021-03-19T15:35:20Z</time>
      </trkpt>
      <trkpt lat="44.81559" lon="6.94912">
        <ele>1778</ele>
        <time>2021-03-19T15:35:21Z</time>
      </trkpt>
      <trkpt lat="44.8156" lon="6.94911">
        <ele>1778</ele>
        <time>2021-03-19T15:35:22Z</time>
      </trkpt>
      <trkpt lat="44.8156" lon="6.9491">
        <ele>1778</ele>
        <time>2021-03-19T15:35:23Z</time>
      </trkpt>
      <trkpt lat="44.81561" lon="6.94909">
        <ele>1778</ele>
        <time>2021-03-19T15:35:24Z</time>
      </trkpt>
      <trkpt lat="44.81561" lon="6.94908">
        <ele>1778</ele>
        <time>2021-03-19T15:35:25Z</time>
      </trkpt>
      <trkpt lat="44.81562" lon="6.94907">
        <ele>1778</ele>
        <time>2021-03-19T15:35:26Z</time>
      </trkpt>
      <trkpt lat="44.81562" lon="6.94905">
        <ele>1778</ele>
        <time>2021-03-19T15:35:27Z</time>
      </trkpt>
      <trkpt lat="44.81563" lon="6.94904">
        <ele>1778</ele>
        <time>2021-03-19T15:35:28Z</time>
      </trkpt>
      <trkpt lat="44.81563" lon="6.94903">
        <ele>1778</ele>
        <time>2021-03-19T15:35:29Z</time>
      </trkpt>
      <trkpt lat="44.81564" lon="6.94901">
        <ele>1778</ele>
        <time>2021-03-19T15:35:30Z</time>
      </trkpt>
      <trkpt lat="44.81564" lon="6.949">
        <ele>1778</ele>
        <time>2021-03-19T15:35:31Z</time>
      </trkpt>
      <trkpt lat="44.81564" lon="6.94898">
        <ele>1778</ele>
        <time>2021-03-19T15:35:32Z</time>
      </trkpt>
      <trkpt lat="44.81565" lon="6.94897">
        <ele>1777</ele>
        <time>2021-03-19T15:35:33Z</time>
      </trkpt>
      <trkpt lat="44.81565" lon="6.94896">
        <ele>1777</ele>
        <time>2021-03-19T15:35:34Z</time>
      </trkpt>
      <trkpt lat="44.81565" lon="6.94894">
        <ele>1777</ele>
        <time>2021-03-19T15:35:35Z</time>
      </trkpt>
      <trkpt lat="44.81566" lon="6.94893">
        <ele>1777</ele>
        <time>2021-03-19T15:35:36Z</time>
      </trkpt>
      <trkpt lat="44.81566" lon="6.94891">
        <ele>1777</ele>
        <time>2021-03-19T15:35:37Z</time>
      </trkpt>
      <trkpt lat="44.81566" lon="6.9489">
        <ele>1777</ele>
        <time>2021-03-19T15:35:38Z</time>
      </trkpt>
      <trkpt lat="44.81567" lon="6.94888">
        <ele>1777</ele>
        <time>2021-03-19T15:35:39Z</time>
      </trkpt>
      <trkpt lat="44.81567" lon="6.94887">
        <ele>1777</ele>
        <time>2021-03-19T15:35:40Z</time>
      </trkpt>
      <trkpt lat="44.81567" lon="6.94885">
        <ele>1777</ele>
        <time>2021-03-19T15:35:41Z</time>
      </trkpt>
      <trkpt lat="44.81567" lon="6.94883">
        <ele>1777</ele>
        <time>2021-03-19T15:35:42Z</time>
      </trkpt>
      <trkpt lat="44.81568" lon="6.94882">
        <ele>1776</ele>
        <time>2021-03-19T15:35:43Z</time>
      </trkpt>
      <trkpt lat="44.81568" lon="6.9488">
        <ele>1776</ele>
        <time>2021-03-19T15:35:44Z</time>
      </trkpt>
      <trkpt lat="44.81568" lon="6.94879">
        <ele>1776</ele>
        <time>2021-03-19T15:35:45Z</time>
      </trkpt>
      <trkpt lat="44.81569" lon="6.94878">
        <ele>1776</ele>
        <time>2021-03-19T15:35:46Z</time>
      </trkpt>
      <trkpt lat="44.81569" lon="6.94876">
        <ele>1776</ele>
        <time>2021-03-19T15:35:47Z</time>
      </trkpt>
      <trkpt lat="44.81569" lon="6.94875">
        <ele>1776</ele>
        <time>2021-03-19T15:35:48Z</time>
      </trkpt>
      <trkpt lat="44.81569" lon="6.94874">
        <ele>1776</ele>
        <time>2021-03-19T15:35:49Z</time>
      </trkpt>
      <trkpt lat="44.8157" lon="6.94873">
        <ele>1776</ele>
        <time>2021-03-19T15:35:50Z</time>
      </trkpt>
      <trkpt lat="44.8157" lon="6.94871">
        <ele>1776</ele>
        <time>2021-03-19T15:35:51Z</time>
      </trkpt>
      <trkpt lat="44.8157" lon="6.9487">
        <ele>1776</ele>
        <time>2021-03-19T15:35:52Z</time>
      </trkpt>
      <trkpt lat="44.8157" lon="6.94868">
        <ele>1776</ele>
        <time>2021-03-19T15:35:53Z</time>
      </trkpt>
      <trkpt lat="44.8157" lon="6.94867">
        <ele>1776</ele>
        <time>2021-03-19T15:35:54Z</time>
      </trkpt>
      <trkpt lat="44.81571" lon="6.94865">
        <ele>1776</ele>
        <time>2021-03-19T15:35:55Z</time>
      </trkpt>
      <trkpt lat="44.81571" lon="6.94864">
        <ele>1776</ele>
        <time>2021-03-19T15:35:56Z</time>
      </trkpt>
      <trkpt lat="44.81571" lon="6.94862">
        <ele>1776</ele>
        <time>2021-03-19T15:35:57Z</time>
      </trkpt>
      <trkpt lat="44.81571" lon="6.94861">
        <ele>1775</ele>
        <time>2021-03-19T15:35:58Z</time>
      </trkpt>
      <trkpt lat="44.81571" lon="6.94859">
        <ele>1775</ele>
        <time>2021-03-19T15:35:59Z</time>
      </trkpt>
      <trkpt lat="44.81571" lon="6.94858">
        <ele>1775</ele>
        <time>2021-03-19T15:36:00Z</time>
      </trkpt>
      <trkpt lat="44.81572" lon="6.94857">
        <ele>1775</ele>
        <time>2021-03-19T15:36:01Z</time>
      </trkpt>
      <trkpt lat="44.81572" lon="6.94855">
        <ele>1775</ele>
        <time>2021-03-19T15:36:02Z</time>
      </trkpt>
      <trkpt lat="44.81572" lon="6.94854">
        <ele>1775</ele>
        <time>2021-03-19T15:36:03Z</time>
      </trkpt>
      <trkpt lat="44.81572" lon="6.94852">
        <ele>1775</ele>
        <time>2021-03-19T15:36:04Z</time>
      </trkpt>
      <trkpt lat="44.81572" lon="6.94851">
        <ele>1775</ele>
        <time>2021-03-19T15:36:05Z</time>
      </trkpt>
      <trkpt lat="44.81573" lon="6.9485">
        <ele>1775</ele>
        <time>2021-03-19T15:36:06Z</time>
      </trkpt>
      <trkpt lat="44.81573" lon="6.94848">
        <ele>1775</ele>
        <time>2021-03-19T15:36:07Z</time>
      </trkpt>
      <trkpt lat="44.81573" lon="6.94847">
        <ele>1775</ele>
        <time>2021-03-19T15:36:08Z</time>
      </trkpt>
      <trkpt lat="44.81573" lon="6.94845">
        <ele>1775</ele>
        <time>2021-03-19T15:36:09Z</time>
      </trkpt>
      <trkpt lat="44.81573" lon="6.94844">
        <ele>1775</ele>
        <time>2021-03-19T15:36:10Z</time>
      </trkpt>
      <trkpt lat="44.81574" lon="6.94842">
        <ele>1775</ele>
        <time>2021-03-19T15:36:11Z</time>
      </trkpt>
      <trkpt lat="44.81574" lon="6.94841">
        <ele>1775</ele>
        <time>2021-03-19T15:36:12Z</time>
      </trkpt>
      <trkpt lat="44.81574" lon="6.94839">
        <ele>1774</ele>
        <time>2021-03-19T15:36:13Z</time>
      </trkpt>
      <trkpt lat="44.81575" lon="6.94838">
        <ele>1774</ele>
        <time>2021-03-19T15:36:14Z</time>
      </trkpt>
      <trkpt lat="44.81575" lon="6.94837">
        <ele>1774</ele>
        <time>2021-03-19T15:36:15Z</time>
      </trkpt>
      <trkpt lat="44.81575" lon="6.94835">
        <ele>1774</ele>
        <time>2021-03-19T15:36:16Z</time>
      </trkpt>
      <trkpt lat="44.81576" lon="6.94834">
        <ele>1774</ele>
        <time>2021-03-19T15:36:17Z</time>
      </trkpt>
      <trkpt lat="44.81576" lon="6.94833">
        <ele>1774</ele>
        <time>2021-03-19T15:36:18Z</time>
      </trkpt>
      <trkpt lat="44.81577" lon="6.94831">
        <ele>1774</ele>
        <time>2021-03-19T15:36:19Z</time>
      </trkpt>
      <trkpt lat="44.81577" lon="6.9483">
        <ele>1774</ele>
        <time>2021-03-19T15:36:20Z</time>
      </trkpt>
      <trkpt lat="44.81578" lon="6.94829">
        <ele>1774</ele>
        <time>2021-03-19T15:36:21Z</time>
      </trkpt>
      <trkpt lat="44.81578" lon="6.94828">
        <ele>1774</ele>
        <time>2021-03-19T15:36:22Z</time>
      </trkpt>
      <trkpt lat="44.81579" lon="6.94827">
        <ele>1774</ele>
        <time>2021-03-19T15:36:23Z</time>
      </trkpt>
      <trkpt lat="44.8158" lon="6.94825">
        <ele>1774</ele>
        <time>2021-03-19T15:36:24Z</time>
      </trkpt>
      <trkpt lat="44.8158" lon="6.94824">
        <ele>1774</ele>
        <time>2021-03-19T15:36:25Z</time>
      </trkpt>
      <trkpt lat="44.81581" lon="6.94823">
        <ele>1774</ele>
        <time>2021-03-19T15:36:26Z</time>
      </trkpt>
      <trkpt lat="44.81582" lon="6.94821">
        <ele>1774</ele>
        <time>2021-03-19T15:36:27Z</time>
      </trkpt>
      <trkpt lat="44.81582" lon="6.9482">
        <ele>1773</ele>
        <time>2021-03-19T15:36:28Z</time>
      </trkpt>
      <trkpt lat="44.81583" lon="6.94819">
        <ele>1773</ele>
        <time>2021-03-19T15:36:29Z</time>
      </trkpt>
      <trkpt lat="44.81584" lon="6.94818">
        <ele>1773</ele>
        <time>2021-03-19T15:36:30Z</time>
      </trkpt>
      <trkpt lat="44.81584" lon="6.94816">
        <ele>1773</ele>
        <time>2021-03-19T15:36:31Z</time>
      </trkpt>
      <trkpt lat="44.81585" lon="6.94815">
        <ele>1773</ele>
        <time>2021-03-19T15:36:32Z</time>
      </trkpt>
      <trkpt lat="44.81586" lon="6.94814">
        <ele>1773</ele>
        <time>2021-03-19T15:36:33Z</time>
      </trkpt>
      <trkpt lat="44.81587" lon="6.94812">
        <ele>1773</ele>
        <time>2021-03-19T15:36:34Z</time>
      </trkpt>
      <trkpt lat="44.81587" lon="6.94811">
        <ele>1773</ele>
        <time>2021-03-19T15:36:35Z</time>
      </trkpt>
      <trkpt lat="44.81588" lon="6.9481">
        <ele>1773</ele>
        <time>2021-03-19T15:36:36Z</time>
      </trkpt>
      <trkpt lat="44.81589" lon="6.94809">
        <ele>1773</ele>
        <time>2021-03-19T15:36:37Z</time>
      </trkpt>
      <trkpt lat="44.8159" lon="6.94807">
        <ele>1772</ele>
        <time>2021-03-19T15:36:38Z</time>
      </trkpt>
      <trkpt lat="44.8159" lon="6.94806">
        <ele>1772</ele>
        <time>2021-03-19T15:36:39Z</time>
      </trkpt>
      <trkpt lat="44.81591" lon="6.94806">
        <ele>1772</ele>
        <time>2021-03-19T15:36:40Z</time>
      </trkpt>
      <trkpt lat="44.81592" lon="6.94805">
        <ele>1772</ele>
        <time>2021-03-19T15:36:41Z</time>
      </trkpt>
      <trkpt lat="44.81593" lon="6.94804">
        <ele>1772</ele>
        <time>2021-03-19T15:36:42Z</time>
      </trkpt>
      <trkpt lat="44.81594" lon="6.94803">
        <ele>1772</ele>
        <time>2021-03-19T15:36:43Z</time>
      </trkpt>
      <trkpt lat="44.81594" lon="6.94802">
        <ele>1772</ele>
        <time>2021-03-19T15:36:44Z</time>
      </trkpt>
      <trkpt lat="44.81595" lon="6.94802">
        <ele>1772</ele>
        <time>2021-03-19T15:36:45Z</time>
      </trkpt>
      <trkpt lat="44.81596" lon="6.94801">
        <ele>1772</ele>
        <time>2021-03-19T15:36:46Z</time>
      </trkpt>
      <trkpt lat="44.81596" lon="6.948">
        <ele>1772</ele>
        <time>2021-03-19T15:36:47Z</time>
      </trkpt>
      <trkpt lat="44.81597" lon="6.94799">
        <ele>1771</ele>
        <time>2021-03-19T15:36:48Z</time>
      </trkpt>
      <trkpt lat="44.81598" lon="6.94798">
        <ele>1771</ele>
        <time>2021-03-19T15:36:49Z</time>
      </trkpt>
      <trkpt lat="44.81598" lon="6.94796">
        <ele>1771</ele>
        <time>2021-03-19T15:36:50Z</time>
      </trkpt>
      <trkpt lat="44.81599" lon="6.94795">
        <ele>1771</ele>
        <time>2021-03-19T15:36:51Z</time>
      </trkpt>
      <trkpt lat="44.816" lon="6.94794">
        <ele>1771</ele>
        <time>2021-03-19T15:36:52Z</time>
      </trkpt>
      <trkpt lat="44.816" lon="6.94792">
        <ele>1771</ele>
        <time>2021-03-19T15:36:53Z</time>
      </trkpt>
      <trkpt lat="44.81601" lon="6.94791">
        <ele>1771</ele>
        <time>2021-03-19T15:36:54Z</time>
      </trkpt>
      <trkpt lat="44.81601" lon="6.9479">
        <ele>1771</ele>
        <time>2021-03-19T15:36:55Z</time>
      </trkpt>
      <trkpt lat="44.81602" lon="6.94788">
        <ele>1771</ele>
        <time>2021-03-19T15:36:56Z</time>
      </trkpt>
      <trkpt lat="44.81603" lon="6.94787">
        <ele>1771</ele>
        <time>2021-03-19T15:36:57Z</time>
      </trkpt>
      <trkpt lat="44.81603" lon="6.94786">
        <ele>1771</ele>
        <time>2021-03-19T15:36:58Z</time>
      </trkpt>
      <trkpt lat="44.81604" lon="6.94785">
        <ele>1771</ele>
        <time>2021-03-19T15:36:59Z</time>
      </trkpt>
      <trkpt lat="44.81605" lon="6.94784">
        <ele>1771</ele>
        <time>2021-03-19T15:37:00Z</time>
      </trkpt>
      <trkpt lat="44.81605" lon="6.94783">
        <ele>1771</ele>
        <time>2021-03-19T15:37:01Z</time>
      </trkpt>
      <trkpt lat="44.81606" lon="6.94782">
        <ele>1771</ele>
        <time>2021-03-19T15:37:02Z</time>
      </trkpt>
      <trkpt lat="44.81606" lon="6.94781">
        <ele>1770</ele>
        <time>2021-03-19T15:37:03Z</time>
      </trkpt>
      <trkpt lat="44.81607" lon="6.94779">
        <ele>1770</ele>
        <time>2021-03-19T15:37:04Z</time>
      </trkpt>
      <trkpt lat="44.81607" lon="6.94778">
        <ele>1770</ele>
        <time>2021-03-19T15:37:05Z</time>
      </trkpt>
      <trkpt lat="44.81608" lon="6.94777">
        <ele>1770</ele>
        <time>2021-03-19T15:37:06Z</time>
      </trkpt>
      <trkpt lat="44.81608" lon="6.94775">
        <ele>1770</ele>
        <time>2021-03-19T15:37:07Z</time>
      </trkpt>
      <trkpt lat="44.81609" lon="6.94774">
        <ele>1769</ele>
        <time>2021-03-19T15:37:08Z</time>
      </trkpt>
      <trkpt lat="44.81609" lon="6.94773">
        <ele>1769</ele>
        <time>2021-03-19T15:37:09Z</time>
      </trkpt>
      <trkpt lat="44.8161" lon="6.94772">
        <ele>1769</ele>
        <time>2021-03-19T15:37:10Z</time>
      </trkpt>
      <trkpt lat="44.8161" lon="6.94771">
        <ele>1769</ele>
        <time>2021-03-19T15:37:11Z</time>
      </trkpt>
      <trkpt lat="44.81611" lon="6.9477">
        <ele>1769</ele>
        <time>2021-03-19T15:37:12Z</time>
      </trkpt>
      <trkpt lat="44.81612" lon="6.94769">
        <ele>1769</ele>
        <time>2021-03-19T15:37:13Z</time>
      </trkpt>
      <trkpt lat="44.81612" lon="6.94768">
        <ele>1769</ele>
        <time>2021-03-19T15:37:14Z</time>
      </trkpt>
      <trkpt lat="44.81613" lon="6.94767">
        <ele>1769</ele>
        <time>2021-03-19T15:37:15Z</time>
      </trkpt>
      <trkpt lat="44.81614" lon="6.94766">
        <ele>1769</ele>
        <time>2021-03-19T15:37:16Z</time>
      </trkpt>
      <trkpt lat="44.81614" lon="6.94765">
        <ele>1769</ele>
        <time>2021-03-19T15:37:17Z</time>
      </trkpt>
      <trkpt lat="44.81615" lon="6.94764">
        <ele>1769</ele>
        <time>2021-03-19T15:37:18Z</time>
      </trkpt>
      <trkpt lat="44.81616" lon="6.94763">
        <ele>1769</ele>
        <time>2021-03-19T15:37:19Z</time>
      </trkpt>
      <trkpt lat="44.81616" lon="6.94762">
        <ele>1769</ele>
        <time>2021-03-19T15:37:20Z</time>
      </trkpt>
      <trkpt lat="44.81617" lon="6.94761">
        <ele>1769</ele>
        <time>2021-03-19T15:37:21Z</time>
      </trkpt>
      <trkpt lat="44.81618" lon="6.9476">
        <ele>1769</ele>
        <time>2021-03-19T15:37:22Z</time>
      </trkpt>
      <trkpt lat="44.81619" lon="6.94759">
        <ele>1768</ele>
        <time>2021-03-19T15:37:23Z</time>
      </trkpt>
      <trkpt lat="44.81619" lon="6.94758">
        <ele>1768</ele>
        <time>2021-03-19T15:37:24Z</time>
      </trkpt>
      <trkpt lat="44.8162" lon="6.94757">
        <ele>1768</ele>
        <time>2021-03-19T15:37:25Z</time>
      </trkpt>
      <trkpt lat="44.81621" lon="6.94756">
        <ele>1768</ele>
        <time>2021-03-19T15:37:26Z</time>
      </trkpt>
      <trkpt lat="44.81622" lon="6.94755">
        <ele>1768</ele>
        <time>2021-03-19T15:37:27Z</time>
      </trkpt>
      <trkpt lat="44.81623" lon="6.94754">
        <ele>1768</ele>
        <time>2021-03-19T15:37:28Z</time>
      </trkpt>
      <trkpt lat="44.81623" lon="6.94753">
        <ele>1768</ele>
        <time>2021-03-19T15:37:29Z</time>
      </trkpt>
      <trkpt lat="44.81624" lon="6.94752">
        <ele>1768</ele>
        <time>2021-03-19T15:37:30Z</time>
      </trkpt>
      <trkpt lat="44.81625" lon="6.94751">
        <ele>1768</ele>
        <time>2021-03-19T15:37:31Z</time>
      </trkpt>
      <trkpt lat="44.81626" lon="6.9475">
        <ele>1768</ele>
        <time>2021-03-19T15:37:32Z</time>
      </trkpt>
      <trkpt lat="44.81627" lon="6.94749">
        <ele>1768</ele>
        <time>2021-03-19T15:37:33Z</time>
      </trkpt>
      <trkpt lat="44.81627" lon="6.94749">
        <ele>1768</ele>
        <time>2021-03-19T15:37:34Z</time>
      </trkpt>
      <trkpt lat="44.81628" lon="6.94747">
        <ele>1768</ele>
        <time>2021-03-19T15:37:35Z</time>
      </trkpt>
      <trkpt lat="44.81629" lon="6.94746">
        <ele>1768</ele>
        <time>2021-03-19T15:37:36Z</time>
      </trkpt>
      <trkpt lat="44.81629" lon="6.94745">
        <ele>1768</ele>
        <time>2021-03-19T15:37:37Z</time>
      </trkpt>
      <trkpt lat="44.8163" lon="6.94744">
        <ele>1767</ele>
        <time>2021-03-19T15:37:38Z</time>
      </trkpt>
      <trkpt lat="44.81631" lon="6.94743">
        <ele>1767</ele>
        <time>2021-03-19T15:37:39Z</time>
      </trkpt>
      <trkpt lat="44.81631" lon="6.94742">
        <ele>1767</ele>
        <time>2021-03-19T15:37:40Z</time>
      </trkpt>
      <trkpt lat="44.81632" lon="6.9474">
        <ele>1767</ele>
        <time>2021-03-19T15:37:41Z</time>
      </trkpt>
      <trkpt lat="44.81633" lon="6.94739">
        <ele>1767</ele>
        <time>2021-03-19T15:37:42Z</time>
      </trkpt>
      <trkpt lat="44.81633" lon="6.94738">
        <ele>1767</ele>
        <time>2021-03-19T15:37:43Z</time>
      </trkpt>
      <trkpt lat="44.81634" lon="6.94737">
        <ele>1767</ele>
        <time>2021-03-19T15:37:44Z</time>
      </trkpt>
      <trkpt lat="44.81634" lon="6.94736">
        <ele>1767</ele>
        <time>2021-03-19T15:37:45Z</time>
      </trkpt>
      <trkpt lat="44.81634" lon="6.94735">
        <ele>1767</ele>
        <time>2021-03-19T15:37:46Z</time>
      </trkpt>
      <trkpt lat="44.81635" lon="6.94733">
        <ele>1767</ele>
        <time>2021-03-19T15:37:47Z</time>
      </trkpt>
      <trkpt lat="44.81635" lon="6.94732">
        <ele>1767</ele>
        <time>2021-03-19T15:37:48Z</time>
      </trkpt>
      <trkpt lat="44.81636" lon="6.9473">
        <ele>1767</ele>
        <time>2021-03-19T15:37:49Z</time>
      </trkpt>
      <trkpt lat="44.81636" lon="6.94729">
        <ele>1767</ele>
        <time>2021-03-19T15:37:50Z</time>
      </trkpt>
      <trkpt lat="44.81637" lon="6.94727">
        <ele>1767</ele>
        <time>2021-03-19T15:37:51Z</time>
      </trkpt>
      <trkpt lat="44.81637" lon="6.94726">
        <ele>1767</ele>
        <time>2021-03-19T15:37:52Z</time>
      </trkpt>
      <trkpt lat="44.81637" lon="6.94724">
        <ele>1767</ele>
        <time>2021-03-19T15:37:53Z</time>
      </trkpt>
      <trkpt lat="44.81638" lon="6.94723">
        <ele>1767</ele>
        <time>2021-03-19T15:37:54Z</time>
      </trkpt>
      <trkpt lat="44.81638" lon="6.94721">
        <ele>1767</ele>
        <time>2021-03-19T15:37:55Z</time>
      </trkpt>
      <trkpt lat="44.81639" lon="6.9472">
        <ele>1767</ele>
        <time>2021-03-19T15:37:56Z</time>
      </trkpt>
      <trkpt lat="44.81639" lon="6.94718">
        <ele>1767</ele>
        <time>2021-03-19T15:37:57Z</time>
      </trkpt>
      <trkpt lat="44.8164" lon="6.94717">
        <ele>1767</ele>
        <time>2021-03-19T15:37:58Z</time>
      </trkpt>
      <trkpt lat="44.8164" lon="6.94716">
        <ele>1767</ele>
        <time>2021-03-19T15:37:59Z</time>
      </trkpt>
      <trkpt lat="44.8164" lon="6.94715">
        <ele>1767</ele>
        <time>2021-03-19T15:38:00Z</time>
      </trkpt>
      <trkpt lat="44.81641" lon="6.94713">
        <ele>1767</ele>
        <time>2021-03-19T15:38:01Z</time>
      </trkpt>
      <trkpt lat="44.81641" lon="6.94712">
        <ele>1767</ele>
        <time>2021-03-19T15:38:02Z</time>
      </trkpt>
      <trkpt lat="44.81641" lon="6.94711">
        <ele>1767</ele>
        <time>2021-03-19T15:38:03Z</time>
      </trkpt>
      <trkpt lat="44.81642" lon="6.94709">
        <ele>1767</ele>
        <time>2021-03-19T15:38:04Z</time>
      </trkpt>
      <trkpt lat="44.81642" lon="6.94708">
        <ele>1767</ele>
        <time>2021-03-19T15:38:05Z</time>
      </trkpt>
      <trkpt lat="44.81643" lon="6.94707">
        <ele>1767</ele>
        <time>2021-03-19T15:38:06Z</time>
      </trkpt>
      <trkpt lat="44.81643" lon="6.94705">
        <ele>1767</ele>
        <time>2021-03-19T15:38:07Z</time>
      </trkpt>
      <trkpt lat="44.81644" lon="6.94704">
        <ele>1767</ele>
        <time>2021-03-19T15:38:08Z</time>
      </trkpt>
      <trkpt lat="44.81644" lon="6.94703">
        <ele>1767</ele>
        <time>2021-03-19T15:38:09Z</time>
      </trkpt>
      <trkpt lat="44.81645" lon="6.94701">
        <ele>1767</ele>
        <time>2021-03-19T15:38:10Z</time>
      </trkpt>
      <trkpt lat="44.81645" lon="6.947">
        <ele>1767</ele>
        <time>2021-03-19T15:38:11Z</time>
      </trkpt>
      <trkpt lat="44.81646" lon="6.94699">
        <ele>1767</ele>
        <time>2021-03-19T15:38:12Z</time>
      </trkpt>
      <trkpt lat="44.81647" lon="6.94697">
        <ele>1767</ele>
        <time>2021-03-19T15:38:13Z</time>
      </trkpt>
      <trkpt lat="44.81647" lon="6.94696">
        <ele>1767</ele>
        <time>2021-03-19T15:38:14Z</time>
      </trkpt>
      <trkpt lat="44.81648" lon="6.94695">
        <ele>1767</ele>
        <time>2021-03-19T15:38:15Z</time>
      </trkpt>
      <trkpt lat="44.81649" lon="6.94694">
        <ele>1767</ele>
        <time>2021-03-19T15:38:16Z</time>
      </trkpt>
      <trkpt lat="44.81649" lon="6.94692">
        <ele>1767</ele>
        <time>2021-03-19T15:38:17Z</time>
      </trkpt>
      <trkpt lat="44.8165" lon="6.94691">
        <ele>1767</ele>
        <time>2021-03-19T15:38:18Z</time>
      </trkpt>
      <trkpt lat="44.81651" lon="6.9469">
        <ele>1767</ele>
        <time>2021-03-19T15:38:19Z</time>
      </trkpt>
      <trkpt lat="44.81652" lon="6.94688">
        <ele>1767</ele>
        <time>2021-03-19T15:38:20Z</time>
      </trkpt>
      <trkpt lat="44.81653" lon="6.94687">
        <ele>1767</ele>
        <time>2021-03-19T15:38:21Z</time>
      </trkpt>
      <trkpt lat="44.81654" lon="6.94686">
        <ele>1767</ele>
        <time>2021-03-19T15:38:22Z</time>
      </trkpt>
      <trkpt lat="44.81655" lon="6.94685">
        <ele>1767</ele>
        <time>2021-03-19T15:38:23Z</time>
      </trkpt>
      <trkpt lat="44.81656" lon="6.94684">
        <ele>1767</ele>
        <time>2021-03-19T15:38:24Z</time>
      </trkpt>
      <trkpt lat="44.81657" lon="6.94682">
        <ele>1767</ele>
        <time>2021-03-19T15:38:25Z</time>
      </trkpt>
      <trkpt lat="44.81658" lon="6.94681">
        <ele>1767</ele>
        <time>2021-03-19T15:38:26Z</time>
      </trkpt>
      <trkpt lat="44.81658" lon="6.9468">
        <ele>1767</ele>
        <time>2021-03-19T15:38:27Z</time>
      </trkpt>
      <trkpt lat="44.81659" lon="6.94679">
        <ele>1767</ele>
        <time>2021-03-19T15:38:28Z</time>
      </trkpt>
      <trkpt lat="44.8166" lon="6.94678">
        <ele>1767</ele>
        <time>2021-03-19T15:38:29Z</time>
      </trkpt>
      <trkpt lat="44.81661" lon="6.94677">
        <ele>1767</ele>
        <time>2021-03-19T15:38:30Z</time>
      </trkpt>
      <trkpt lat="44.81662" lon="6.94676">
        <ele>1767</ele>
        <time>2021-03-19T15:38:31Z</time>
      </trkpt>
      <trkpt lat="44.81663" lon="6.94675">
        <ele>1767</ele>
        <time>2021-03-19T15:38:32Z</time>
      </trkpt>
      <trkpt lat="44.81664" lon="6.94674">
        <ele>1766</ele>
        <time>2021-03-19T15:38:33Z</time>
      </trkpt>
      <trkpt lat="44.81665" lon="6.94673">
        <ele>1766</ele>
        <time>2021-03-19T15:38:34Z</time>
      </trkpt>
      <trkpt lat="44.81665" lon="6.94672">
        <ele>1766</ele>
        <time>2021-03-19T15:38:35Z</time>
      </trkpt>
      <trkpt lat="44.81666" lon="6.9467">
        <ele>1766</ele>
        <time>2021-03-19T15:38:36Z</time>
      </trkpt>
      <trkpt lat="44.81667" lon="6.94669">
        <ele>1766</ele>
        <time>2021-03-19T15:38:37Z</time>
      </trkpt>
      <trkpt lat="44.81668" lon="6.94669">
        <ele>1766</ele>
        <time>2021-03-19T15:38:38Z</time>
      </trkpt>
      <trkpt lat="44.81669" lon="6.94668">
        <ele>1766</ele>
        <time>2021-03-19T15:38:39Z</time>
      </trkpt>
      <trkpt lat="44.8167" lon="6.94667">
        <ele>1766</ele>
        <time>2021-03-19T15:38:40Z</time>
      </trkpt>
      <trkpt lat="44.81671" lon="6.94666">
        <ele>1766</ele>
        <time>2021-03-19T15:38:41Z</time>
      </trkpt>
      <trkpt lat="44.81672" lon="6.94666">
        <ele>1766</ele>
        <time>2021-03-19T15:38:42Z</time>
      </trkpt>
      <trkpt lat="44.81673" lon="6.94665">
        <ele>1766</ele>
        <time>2021-03-19T15:38:43Z</time>
      </trkpt>
      <trkpt lat="44.81673" lon="6.94664">
        <ele>1766</ele>
        <time>2021-03-19T15:38:44Z</time>
      </trkpt>
      <trkpt lat="44.81674" lon="6.94664">
        <ele>1765</ele>
        <time>2021-03-19T15:39:01Z</time>
      </trkpt>
      <trkpt lat="44.81675" lon="6.94664">
        <ele>1765</ele>
        <time>2021-03-19T15:39:02Z</time>
      </trkpt>
      <trkpt lat="44.81675" lon="6.94664">
        <ele>1765</ele>
        <time>2021-03-19T15:39:03Z</time>
      </trkpt>
      <trkpt lat="44.81676" lon="6.94664">
        <ele>1765</ele>
        <time>2021-03-19T15:39:04Z</time>
      </trkpt>
      <trkpt lat="44.81676" lon="6.94663">
        <ele>1765</ele>
        <time>2021-03-19T15:39:05Z</time>
      </trkpt>
      <trkpt lat="44.81677" lon="6.94663">
        <ele>1765</ele>
        <time>2021-03-19T15:39:06Z</time>
      </trkpt>
      <trkpt lat="44.81678" lon="6.94662">
        <ele>1765</ele>
        <time>2021-03-19T15:39:07Z</time>
      </trkpt>
      <trkpt lat="44.81679" lon="6.94661">
        <ele>1765</ele>
        <time>2021-03-19T15:39:08Z</time>
      </trkpt>
      <trkpt lat="44.8168" lon="6.9466">
        <ele>1765</ele>
        <time>2021-03-19T15:39:09Z</time>
      </trkpt>
      <trkpt lat="44.81681" lon="6.94659">
        <ele>1765</ele>
        <time>2021-03-19T15:39:10Z</time>
      </trkpt>
      <trkpt lat="44.81682" lon="6.94658">
        <ele>1765</ele>
        <time>2021-03-19T15:39:11Z</time>
      </trkpt>
      <trkpt lat="44.81683" lon="6.94658">
        <ele>1765</ele>
        <time>2021-03-19T15:39:12Z</time>
      </trkpt>
      <trkpt lat="44.81684" lon="6.94657">
        <ele>1765</ele>
        <time>2021-03-19T15:39:13Z</time>
      </trkpt>
      <trkpt lat="44.81684" lon="6.94656">
        <ele>1765</ele>
        <time>2021-03-19T15:39:14Z</time>
      </trkpt>
      <trkpt lat="44.81685" lon="6.94655">
        <ele>1765</ele>
        <time>2021-03-19T15:39:15Z</time>
      </trkpt>
      <trkpt lat="44.81686" lon="6.94654">
        <ele>1765</ele>
        <time>2021-03-19T15:39:16Z</time>
      </trkpt>
      <trkpt lat="44.81687" lon="6.94653">
        <ele>1765</ele>
        <time>2021-03-19T15:39:17Z</time>
      </trkpt>
      <trkpt lat="44.81687" lon="6.94652">
        <ele>1764</ele>
        <time>2021-03-19T15:39:18Z</time>
      </trkpt>
      <trkpt lat="44.81688" lon="6.94651">
        <ele>1764</ele>
        <time>2021-03-19T15:39:19Z</time>
      </trkpt>
      <trkpt lat="44.81689" lon="6.9465">
        <ele>1764</ele>
        <time>2021-03-19T15:39:20Z</time>
      </trkpt>
      <trkpt lat="44.8169" lon="6.94649">
        <ele>1764</ele>
        <time>2021-03-19T15:39:21Z</time>
      </trkpt>
      <trkpt lat="44.8169" lon="6.94649">
        <ele>1764</ele>
        <time>2021-03-19T15:39:22Z</time>
      </trkpt>
      <trkpt lat="44.8169" lon="6.94649">
        <ele>1764</ele>
        <time>2021-03-19T15:39:23Z</time>
      </trkpt>
      <trkpt lat="44.81691" lon="6.94649">
        <ele>1764</ele>
        <time>2021-03-19T15:39:24Z</time>
      </trkpt>
      <trkpt lat="44.81691" lon="6.94648">
        <ele>1764</ele>
        <time>2021-03-19T15:39:25Z</time>
      </trkpt>
      <trkpt lat="44.81692" lon="6.94648">
        <ele>1764</ele>
        <time>2021-03-19T15:39:26Z</time>
      </trkpt>
      <trkpt lat="44.81693" lon="6.94647">
        <ele>1764</ele>
        <time>2021-03-19T15:39:27Z</time>
      </trkpt>
      <trkpt lat="44.81694" lon="6.94647">
        <ele>1764</ele>
        <time>2021-03-19T15:39:28Z</time>
      </trkpt>
      <trkpt lat="44.81695" lon="6.94646">
        <ele>1764</ele>
        <time>2021-03-19T15:39:29Z</time>
      </trkpt>
      <trkpt lat="44.81696" lon="6.94645">
        <ele>1764</ele>
        <time>2021-03-19T15:39:30Z</time>
      </trkpt>
      <trkpt lat="44.81697" lon="6.94644">
        <ele>1764</ele>
        <time>2021-03-19T15:39:31Z</time>
      </trkpt>
      <trkpt lat="44.81698" lon="6.94644">
        <ele>1764</ele>
        <time>2021-03-19T15:39:32Z</time>
      </trkpt>
      <trkpt lat="44.81698" lon="6.94643">
        <ele>1764</ele>
        <time>2021-03-19T15:39:33Z</time>
      </trkpt>
      <trkpt lat="44.81699" lon="6.94642">
        <ele>1764</ele>
        <time>2021-03-19T15:39:34Z</time>
      </trkpt>
      <trkpt lat="44.817" lon="6.94641">
        <ele>1764</ele>
        <time>2021-03-19T15:39:35Z</time>
      </trkpt>
      <trkpt lat="44.81701" lon="6.94641">
        <ele>1764</ele>
        <time>2021-03-19T15:39:36Z</time>
      </trkpt>
      <trkpt lat="44.81702" lon="6.9464">
        <ele>1764</ele>
        <time>2021-03-19T15:39:37Z</time>
      </trkpt>
      <trkpt lat="44.81703" lon="6.94639">
        <ele>1763</ele>
        <time>2021-03-19T15:39:38Z</time>
      </trkpt>
      <trkpt lat="44.81704" lon="6.94639">
        <ele>1763</ele>
        <time>2021-03-19T15:39:39Z</time>
      </trkpt>
      <trkpt lat="44.81705" lon="6.94638">
        <ele>1763</ele>
        <time>2021-03-19T15:39:40Z</time>
      </trkpt>
      <trkpt lat="44.81705" lon="6.94637">
        <ele>1763</ele>
        <time>2021-03-19T15:39:41Z</time>
      </trkpt>
      <trkpt lat="44.81706" lon="6.94636">
        <ele>1763</ele>
        <time>2021-03-19T15:39:42Z</time>
      </trkpt>
      <trkpt lat="44.81707" lon="6.94635">
        <ele>1763</ele>
        <time>2021-03-19T15:39:43Z</time>
      </trkpt>
      <trkpt lat="44.81708" lon="6.94634">
        <ele>1763</ele>
        <time>2021-03-19T15:39:44Z</time>
      </trkpt>
      <trkpt lat="44.81709" lon="6.94634">
        <ele>1763</ele>
        <time>2021-03-19T15:39:45Z</time>
      </trkpt>
      <trkpt lat="44.8171" lon="6.94633">
        <ele>1763</ele>
        <time>2021-03-19T15:39:46Z</time>
      </trkpt>
      <trkpt lat="44.81711" lon="6.94632">
        <ele>1763</ele>
        <time>2021-03-19T15:39:47Z</time>
      </trkpt>
      <trkpt lat="44.81712" lon="6.94631">
        <ele>1763</ele>
        <time>2021-03-19T15:39:48Z</time>
      </trkpt>
      <trkpt lat="44.81713" lon="6.9463">
        <ele>1763</ele>
        <time>2021-03-19T15:39:49Z</time>
      </trkpt>
      <trkpt lat="44.81714" lon="6.94629">
        <ele>1763</ele>
        <time>2021-03-19T15:39:50Z</time>
      </trkpt>
      <trkpt lat="44.81715" lon="6.94629">
        <ele>1763</ele>
        <time>2021-03-19T15:39:51Z</time>
      </trkpt>
      <trkpt lat="44.81716" lon="6.94628">
        <ele>1763</ele>
        <time>2021-03-19T15:39:52Z</time>
      </trkpt>
      <trkpt lat="44.81717" lon="6.94628">
        <ele>1762</ele>
        <time>2021-03-19T15:39:53Z</time>
      </trkpt>
      <trkpt lat="44.81718" lon="6.94627">
        <ele>1762</ele>
        <time>2021-03-19T15:39:54Z</time>
      </trkpt>
      <trkpt lat="44.81719" lon="6.94627">
        <ele>1762</ele>
        <time>2021-03-19T15:39:55Z</time>
      </trkpt>
      <trkpt lat="44.8172" lon="6.94626">
        <ele>1762</ele>
        <time>2021-03-19T15:39:56Z</time>
      </trkpt>
      <trkpt lat="44.81721" lon="6.94625">
        <ele>1762</ele>
        <time>2021-03-19T15:39:57Z</time>
      </trkpt>
      <trkpt lat="44.81722" lon="6.94625">
        <ele>1761</ele>
        <time>2021-03-19T15:39:58Z</time>
      </trkpt>
      <trkpt lat="44.81723" lon="6.94624">
        <ele>1761</ele>
        <time>2021-03-19T15:39:59Z</time>
      </trkpt>
      <trkpt lat="44.81724" lon="6.94624">
        <ele>1761</ele>
        <time>2021-03-19T15:40:00Z</time>
      </trkpt>
      <trkpt lat="44.81725" lon="6.94623">
        <ele>1761</ele>
        <time>2021-03-19T15:40:01Z</time>
      </trkpt>
      <trkpt lat="44.81726" lon="6.94623">
        <ele>1761</ele>
        <time>2021-03-19T15:40:02Z</time>
      </trkpt>
      <trkpt lat="44.81727" lon="6.94622">
        <ele>1761</ele>
        <time>2021-03-19T15:40:03Z</time>
      </trkpt>
      <trkpt lat="44.81729" lon="6.94622">
        <ele>1761</ele>
        <time>2021-03-19T15:40:04Z</time>
      </trkpt>
      <trkpt lat="44.8173" lon="6.94621">
        <ele>1761</ele>
        <time>2021-03-19T15:40:05Z</time>
      </trkpt>
      <trkpt lat="44.81731" lon="6.9462">
        <ele>1761</ele>
        <time>2021-03-19T15:40:06Z</time>
      </trkpt>
      <trkpt lat="44.81732" lon="6.94619">
        <ele>1761</ele>
        <time>2021-03-19T15:40:07Z</time>
      </trkpt>
      <trkpt lat="44.81733" lon="6.94619">
        <ele>1760</ele>
        <time>2021-03-19T15:40:08Z</time>
      </trkpt>
      <trkpt lat="44.81734" lon="6.94618">
        <ele>1760</ele>
        <time>2021-03-19T15:40:09Z</time>
      </trkpt>
      <trkpt lat="44.81735" lon="6.94617">
        <ele>1760</ele>
        <time>2021-03-19T15:40:10Z</time>
      </trkpt>
      <trkpt lat="44.81736" lon="6.94616">
        <ele>1760</ele>
        <time>2021-03-19T15:40:11Z</time>
      </trkpt>
      <trkpt lat="44.81737" lon="6.94615">
        <ele>1760</ele>
        <time>2021-03-19T15:40:12Z</time>
      </trkpt>
      <trkpt lat="44.81738" lon="6.94614">
        <ele>1760</ele>
        <time>2021-03-19T15:40:13Z</time>
      </trkpt>
      <trkpt lat="44.81739" lon="6.94613">
        <ele>1760</ele>
        <time>2021-03-19T15:40:14Z</time>
      </trkpt>
      <trkpt lat="44.8174" lon="6.94612">
        <ele>1760</ele>
        <time>2021-03-19T15:40:15Z</time>
      </trkpt>
      <trkpt lat="44.8174" lon="6.94611">
        <ele>1760</ele>
        <time>2021-03-19T15:40:16Z</time>
      </trkpt>
      <trkpt lat="44.81741" lon="6.9461">
        <ele>1760</ele>
        <time>2021-03-19T15:40:17Z</time>
      </trkpt>
      <trkpt lat="44.81742" lon="6.94608">
        <ele>1759</ele>
        <time>2021-03-19T15:40:18Z</time>
      </trkpt>
      <trkpt lat="44.81742" lon="6.94607">
        <ele>1759</ele>
        <time>2021-03-19T15:40:19Z</time>
      </trkpt>
      <trkpt lat="44.81743" lon="6.94606">
        <ele>1759</ele>
        <time>2021-03-19T15:40:20Z</time>
      </trkpt>
      <trkpt lat="44.81743" lon="6.94604">
        <ele>1759</ele>
        <time>2021-03-19T15:40:21Z</time>
      </trkpt>
      <trkpt lat="44.81744" lon="6.94603">
        <ele>1759</ele>
        <time>2021-03-19T15:40:22Z</time>
      </trkpt>
      <trkpt lat="44.81745" lon="6.94602">
        <ele>1759</ele>
        <time>2021-03-19T15:40:23Z</time>
      </trkpt>
      <trkpt lat="44.81745" lon="6.94601">
        <ele>1759</ele>
        <time>2021-03-19T15:40:24Z</time>
      </trkpt>
      <trkpt lat="44.81746" lon="6.94599">
        <ele>1759</ele>
        <time>2021-03-19T15:40:25Z</time>
      </trkpt>
      <trkpt lat="44.81747" lon="6.94598">
        <ele>1759</ele>
        <time>2021-03-19T15:40:26Z</time>
      </trkpt>
      <trkpt lat="44.81748" lon="6.94597">
        <ele>1759</ele>
        <time>2021-03-19T15:40:27Z</time>
      </trkpt>
      <trkpt lat="44.81749" lon="6.94596">
        <ele>1759</ele>
        <time>2021-03-19T15:40:28Z</time>
      </trkpt>
      <trkpt lat="44.81749" lon="6.94594">
        <ele>1759</ele>
        <time>2021-03-19T15:40:29Z</time>
      </trkpt>
      <trkpt lat="44.8175" lon="6.94593">
        <ele>1759</ele>
        <time>2021-03-19T15:40:30Z</time>
      </trkpt>
      <trkpt lat="44.81751" lon="6.94592">
        <ele>1759</ele>
        <time>2021-03-19T15:40:31Z</time>
      </trkpt>
      <trkpt lat="44.81752" lon="6.94591">
        <ele>1759</ele>
        <time>2021-03-19T15:40:32Z</time>
      </trkpt>
      <trkpt lat="44.81753" lon="6.9459">
        <ele>1759</ele>
        <time>2021-03-19T15:40:33Z</time>
      </trkpt>
      <trkpt lat="44.81753" lon="6.94588">
        <ele>1759</ele>
        <time>2021-03-19T15:40:34Z</time>
      </trkpt>
      <trkpt lat="44.81754" lon="6.94587">
        <ele>1759</ele>
        <time>2021-03-19T15:40:35Z</time>
      </trkpt>
      <trkpt lat="44.81755" lon="6.94586">
        <ele>1759</ele>
        <time>2021-03-19T15:40:36Z</time>
      </trkpt>
      <trkpt lat="44.81756" lon="6.94585">
        <ele>1759</ele>
        <time>2021-03-19T15:40:37Z</time>
      </trkpt>
      <trkpt lat="44.81756" lon="6.94584">
        <ele>1758</ele>
        <time>2021-03-19T15:40:38Z</time>
      </trkpt>
      <trkpt lat="44.81757" lon="6.94583">
        <ele>1758</ele>
        <time>2021-03-19T15:40:39Z</time>
      </trkpt>
      <trkpt lat="44.81758" lon="6.94581">
        <ele>1758</ele>
        <time>2021-03-19T15:40:40Z</time>
      </trkpt>
      <trkpt lat="44.81758" lon="6.9458">
        <ele>1758</ele>
        <time>2021-03-19T15:40:41Z</time>
      </trkpt>
      <trkpt lat="44.81759" lon="6.94579">
        <ele>1758</ele>
        <time>2021-03-19T15:40:42Z</time>
      </trkpt>
      <trkpt lat="44.8176" lon="6.94578">
        <ele>1758</ele>
        <time>2021-03-19T15:40:43Z</time>
      </trkpt>
      <trkpt lat="44.8176" lon="6.94576">
        <ele>1758</ele>
        <time>2021-03-19T15:40:44Z</time>
      </trkpt>
      <trkpt lat="44.81761" lon="6.94575">
        <ele>1758</ele>
        <time>2021-03-19T15:40:45Z</time>
      </trkpt>
      <trkpt lat="44.81762" lon="6.94574">
        <ele>1758</ele>
        <time>2021-03-19T15:40:46Z</time>
      </trkpt>
      <trkpt lat="44.81762" lon="6.94573">
        <ele>1758</ele>
        <time>2021-03-19T15:40:47Z</time>
      </trkpt>
      <trkpt lat="44.81763" lon="6.94572">
        <ele>1758</ele>
        <time>2021-03-19T15:40:48Z</time>
      </trkpt>
      <trkpt lat="44.81763" lon="6.9457">
        <ele>1758</ele>
        <time>2021-03-19T15:40:49Z</time>
      </trkpt>
      <trkpt lat="44.81764" lon="6.94569">
        <ele>1758</ele>
        <time>2021-03-19T15:40:50Z</time>
      </trkpt>
      <trkpt lat="44.81764" lon="6.94568">
        <ele>1758</ele>
        <time>2021-03-19T15:40:51Z</time>
      </trkpt>
      <trkpt lat="44.81765" lon="6.94567">
        <ele>1758</ele>
        <time>2021-03-19T15:40:52Z</time>
      </trkpt>
      <trkpt lat="44.81766" lon="6.94565">
        <ele>1757</ele>
        <time>2021-03-19T15:40:53Z</time>
      </trkpt>
      <trkpt lat="44.81766" lon="6.94564">
        <ele>1757</ele>
        <time>2021-03-19T15:40:54Z</time>
      </trkpt>
      <trkpt lat="44.81767" lon="6.94563">
        <ele>1757</ele>
        <time>2021-03-19T15:40:55Z</time>
      </trkpt>
      <trkpt lat="44.81768" lon="6.94562">
        <ele>1757</ele>
        <time>2021-03-19T15:40:56Z</time>
      </trkpt>
      <trkpt lat="44.81768" lon="6.9456">
        <ele>1757</ele>
        <time>2021-03-19T15:40:57Z</time>
      </trkpt>
      <trkpt lat="44.81769" lon="6.94559">
        <ele>1757</ele>
        <time>2021-03-19T15:40:58Z</time>
      </trkpt>
      <trkpt lat="44.8177" lon="6.94558">
        <ele>1757</ele>
        <time>2021-03-19T15:40:59Z</time>
      </trkpt>
      <trkpt lat="44.8177" lon="6.94556">
        <ele>1757</ele>
        <time>2021-03-19T15:41:00Z</time>
      </trkpt>
      <trkpt lat="44.81771" lon="6.94555">
        <ele>1757</ele>
        <time>2021-03-19T15:41:01Z</time>
      </trkpt>
      <trkpt lat="44.81772" lon="6.94554">
        <ele>1757</ele>
        <time>2021-03-19T15:41:02Z</time>
      </trkpt>
      <trkpt lat="44.81772" lon="6.94552">
        <ele>1757</ele>
        <time>2021-03-19T15:41:03Z</time>
      </trkpt>
      <trkpt lat="44.81773" lon="6.94551">
        <ele>1757</ele>
        <time>2021-03-19T15:41:04Z</time>
      </trkpt>
      <trkpt lat="44.81773" lon="6.94549">
        <ele>1757</ele>
        <time>2021-03-19T15:41:05Z</time>
      </trkpt>
      <trkpt lat="44.81774" lon="6.94548">
        <ele>1757</ele>
        <time>2021-03-19T15:41:06Z</time>
      </trkpt>
      <trkpt lat="44.81774" lon="6.94547">
        <ele>1757</ele>
        <time>2021-03-19T15:41:07Z</time>
      </trkpt>
      <trkpt lat="44.81775" lon="6.94545">
        <ele>1757</ele>
        <time>2021-03-19T15:41:08Z</time>
      </trkpt>
      <trkpt lat="44.81775" lon="6.94544">
        <ele>1757</ele>
        <time>2021-03-19T15:41:09Z</time>
      </trkpt>
      <trkpt lat="44.81776" lon="6.94543">
        <ele>1757</ele>
        <time>2021-03-19T15:41:10Z</time>
      </trkpt>
      <trkpt lat="44.81776" lon="6.94542">
        <ele>1757</ele>
        <time>2021-03-19T15:41:11Z</time>
      </trkpt>
      <trkpt lat="44.81777" lon="6.9454">
        <ele>1757</ele>
        <time>2021-03-19T15:41:12Z</time>
      </trkpt>
      <trkpt lat="44.81778" lon="6.94539">
        <ele>1757</ele>
        <time>2021-03-19T15:41:13Z</time>
      </trkpt>
      <trkpt lat="44.81778" lon="6.94538">
        <ele>1757</ele>
        <time>2021-03-19T15:41:14Z</time>
      </trkpt>
      <trkpt lat="44.81779" lon="6.94537">
        <ele>1757</ele>
        <time>2021-03-19T15:41:15Z</time>
      </trkpt>
      <trkpt lat="44.81779" lon="6.94536">
        <ele>1757</ele>
        <time>2021-03-19T15:41:16Z</time>
      </trkpt>
      <trkpt lat="44.8178" lon="6.94534">
        <ele>1757</ele>
        <time>2021-03-19T15:41:17Z</time>
      </trkpt>
      <trkpt lat="44.81781" lon="6.94533">
        <ele>1757</ele>
        <time>2021-03-19T15:41:18Z</time>
      </trkpt>
      <trkpt lat="44.81781" lon="6.94532">
        <ele>1757</ele>
        <time>2021-03-19T15:41:19Z</time>
      </trkpt>
      <trkpt lat="44.81782" lon="6.9453">
        <ele>1757</ele>
        <time>2021-03-19T15:41:20Z</time>
      </trkpt>
      <trkpt lat="44.81783" lon="6.94529">
        <ele>1757</ele>
        <time>2021-03-19T15:41:21Z</time>
      </trkpt>
      <trkpt lat="44.81784" lon="6.94528">
        <ele>1757</ele>
        <time>2021-03-19T15:41:22Z</time>
      </trkpt>
      <trkpt lat="44.81784" lon="6.94527">
        <ele>1757</ele>
        <time>2021-03-19T15:41:23Z</time>
      </trkpt>
      <trkpt lat="44.81785" lon="6.94526">
        <ele>1757</ele>
        <time>2021-03-19T15:41:24Z</time>
      </trkpt>
      <trkpt lat="44.81785" lon="6.94525">
        <ele>1757</ele>
        <time>2021-03-19T15:41:25Z</time>
      </trkpt>
      <trkpt lat="44.81786" lon="6.94524">
        <ele>1757</ele>
        <time>2021-03-19T15:41:26Z</time>
      </trkpt>
      <trkpt lat="44.81786" lon="6.94523">
        <ele>1757</ele>
        <time>2021-03-19T15:41:27Z</time>
      </trkpt>
      <trkpt lat="44.81787" lon="6.94522">
        <ele>1756</ele>
        <time>2021-03-19T15:41:28Z</time>
      </trkpt>
      <trkpt lat="44.81787" lon="6.94522">
        <ele>1756</ele>
        <time>2021-03-19T15:41:29Z</time>
      </trkpt>
      <trkpt lat="44.81788" lon="6.94521">
        <ele>1756</ele>
        <time>2021-03-19T15:41:30Z</time>
      </trkpt>
      <trkpt lat="44.81788" lon="6.9452">
        <ele>1756</ele>
        <time>2021-03-19T15:41:31Z</time>
      </trkpt>
      <trkpt lat="44.81789" lon="6.94519">
        <ele>1756</ele>
        <time>2021-03-19T15:41:32Z</time>
      </trkpt>
      <trkpt lat="44.8179" lon="6.94518">
        <ele>1756</ele>
        <time>2021-03-19T15:41:33Z</time>
      </trkpt>
      <trkpt lat="44.8179" lon="6.94517">
        <ele>1756</ele>
        <time>2021-03-19T15:41:34Z</time>
      </trkpt>
      <trkpt lat="44.81791" lon="6.94516">
        <ele>1756</ele>
        <time>2021-03-19T15:41:35Z</time>
      </trkpt>
      <trkpt lat="44.81792" lon="6.94515">
        <ele>1756</ele>
        <time>2021-03-19T15:41:36Z</time>
      </trkpt>
      <trkpt lat="44.81793" lon="6.94513">
        <ele>1756</ele>
        <time>2021-03-19T15:41:37Z</time>
      </trkpt>
      <trkpt lat="44.81794" lon="6.94512">
        <ele>1756</ele>
        <time>2021-03-19T15:41:38Z</time>
      </trkpt>
      <trkpt lat="44.81794" lon="6.94511">
        <ele>1756</ele>
        <time>2021-03-19T15:41:39Z</time>
      </trkpt>
      <trkpt lat="44.81795" lon="6.9451">
        <ele>1756</ele>
        <time>2021-03-19T15:41:40Z</time>
      </trkpt>
      <trkpt lat="44.81796" lon="6.94509">
        <ele>1756</ele>
        <time>2021-03-19T15:41:41Z</time>
      </trkpt>
      <trkpt lat="44.81797" lon="6.94508">
        <ele>1756</ele>
        <time>2021-03-19T15:41:42Z</time>
      </trkpt>
      <trkpt lat="44.81797" lon="6.94507">
        <ele>1756</ele>
        <time>2021-03-19T15:41:43Z</time>
      </trkpt>
      <trkpt lat="44.81798" lon="6.94506">
        <ele>1756</ele>
        <time>2021-03-19T15:41:44Z</time>
      </trkpt>
      <trkpt lat="44.81799" lon="6.94504">
        <ele>1756</ele>
        <time>2021-03-19T15:41:45Z</time>
      </trkpt>
      <trkpt lat="44.818" lon="6.94503">
        <ele>1756</ele>
        <time>2021-03-19T15:41:46Z</time>
      </trkpt>
      <trkpt lat="44.818" lon="6.94503">
        <ele>1756</ele>
        <time>2021-03-19T15:41:47Z</time>
      </trkpt>
      <trkpt lat="44.81801" lon="6.94502">
        <ele>1756</ele>
        <time>2021-03-19T15:41:48Z</time>
      </trkpt>
      <trkpt lat="44.81802" lon="6.94501">
        <ele>1756</ele>
        <time>2021-03-19T15:41:49Z</time>
      </trkpt>
      <trkpt lat="44.81803" lon="6.945">
        <ele>1756</ele>
        <time>2021-03-19T15:41:50Z</time>
      </trkpt>
      <trkpt lat="44.81804" lon="6.94499">
        <ele>1756</ele>
        <time>2021-03-19T15:41:51Z</time>
      </trkpt>
      <trkpt lat="44.81805" lon="6.94498">
        <ele>1756</ele>
        <time>2021-03-19T15:41:52Z</time>
      </trkpt>
      <trkpt lat="44.81806" lon="6.94497">
        <ele>1755</ele>
        <time>2021-03-19T15:41:53Z</time>
      </trkpt>
      <trkpt lat="44.81807" lon="6.94496">
        <ele>1755</ele>
        <time>2021-03-19T15:41:54Z</time>
      </trkpt>
      <trkpt lat="44.81808" lon="6.94495">
        <ele>1755</ele>
        <time>2021-03-19T15:41:55Z</time>
      </trkpt>
      <trkpt lat="44.81809" lon="6.94495">
        <ele>1755</ele>
        <time>2021-03-19T15:41:56Z</time>
      </trkpt>
      <trkpt lat="44.81809" lon="6.94494">
        <ele>1755</ele>
        <time>2021-03-19T15:41:57Z</time>
      </trkpt>
      <trkpt lat="44.8181" lon="6.94493">
        <ele>1755</ele>
        <time>2021-03-19T15:41:58Z</time>
      </trkpt>
      <trkpt lat="44.81811" lon="6.94493">
        <ele>1755</ele>
        <time>2021-03-19T15:41:59Z</time>
      </trkpt>
      <trkpt lat="44.81811" lon="6.94492">
        <ele>1755</ele>
        <time>2021-03-19T15:42:00Z</time>
      </trkpt>
      <trkpt lat="44.81811" lon="6.94492">
        <ele>1755</ele>
        <time>2021-03-19T15:42:01Z</time>
      </trkpt>
      <trkpt lat="44.81812" lon="6.94491">
        <ele>1755</ele>
        <time>2021-03-19T15:42:02Z</time>
      </trkpt>
      <trkpt lat="44.81813" lon="6.9449">
        <ele>1755</ele>
        <time>2021-03-19T15:42:03Z</time>
      </trkpt>
      <trkpt lat="44.81814" lon="6.9449">
        <ele>1755</ele>
        <time>2021-03-19T15:42:04Z</time>
      </trkpt>
      <trkpt lat="44.81814" lon="6.94489">
        <ele>1755</ele>
        <time>2021-03-19T15:42:05Z</time>
      </trkpt>
      <trkpt lat="44.81815" lon="6.94489">
        <ele>1755</ele>
        <time>2021-03-19T15:42:06Z</time>
      </trkpt>
      <trkpt lat="44.81816" lon="6.94489">
        <ele>1755</ele>
        <time>2021-03-19T15:42:07Z</time>
      </trkpt>
      <trkpt lat="44.81817" lon="6.94488">
        <ele>1755</ele>
        <time>2021-03-19T15:42:08Z</time>
      </trkpt>
      <trkpt lat="44.81818" lon="6.94488">
        <ele>1755</ele>
        <time>2021-03-19T15:42:09Z</time>
      </trkpt>
      <trkpt lat="44.81819" lon="6.94488">
        <ele>1755</ele>
        <time>2021-03-19T15:42:10Z</time>
      </trkpt>
      <trkpt lat="44.8182" lon="6.94487">
        <ele>1755</ele>
        <time>2021-03-19T15:42:11Z</time>
      </trkpt>
      <trkpt lat="44.8182" lon="6.94486">
        <ele>1755</ele>
        <time>2021-03-19T15:42:12Z</time>
      </trkpt>
      <trkpt lat="44.81821" lon="6.94485">
        <ele>1755</ele>
        <time>2021-03-19T15:42:13Z</time>
      </trkpt>
      <trkpt lat="44.81822" lon="6.94484">
        <ele>1755</ele>
        <time>2021-03-19T15:42:14Z</time>
      </trkpt>
      <trkpt lat="44.81822" lon="6.94483">
        <ele>1755</ele>
        <time>2021-03-19T15:42:15Z</time>
      </trkpt>
      <trkpt lat="44.81823" lon="6.94482">
        <ele>1755</ele>
        <time>2021-03-19T15:42:16Z</time>
      </trkpt>
      <trkpt lat="44.81824" lon="6.94482">
        <ele>1755</ele>
        <time>2021-03-19T15:42:17Z</time>
      </trkpt>
      <trkpt lat="44.81825" lon="6.94481">
        <ele>1755</ele>
        <time>2021-03-19T15:42:18Z</time>
      </trkpt>
      <trkpt lat="44.81826" lon="6.94481">
        <ele>1755</ele>
        <time>2021-03-19T15:42:19Z</time>
      </trkpt>
      <trkpt lat="44.81827" lon="6.94481">
        <ele>1755</ele>
        <time>2021-03-19T15:42:20Z</time>
      </trkpt>
      <trkpt lat="44.81828" lon="6.94481">
        <ele>1755</ele>
        <time>2021-03-19T15:42:21Z</time>
      </trkpt>
      <trkpt lat="44.8183" lon="6.9448">
        <ele>1755</ele>
        <time>2021-03-19T15:42:22Z</time>
      </trkpt>
      <trkpt lat="44.81831" lon="6.9448">
        <ele>1755</ele>
        <time>2021-03-19T15:42:23Z</time>
      </trkpt>
      <trkpt lat="44.81832" lon="6.9448">
        <ele>1755</ele>
        <time>2021-03-19T15:42:24Z</time>
      </trkpt>
      <trkpt lat="44.81833" lon="6.9448">
        <ele>1755</ele>
        <time>2021-03-19T15:42:25Z</time>
      </trkpt>
      <trkpt lat="44.81833" lon="6.9448">
        <ele>1755</ele>
        <time>2021-03-19T15:42:26Z</time>
      </trkpt>
      <trkpt lat="44.81834" lon="6.94479">
        <ele>1755</ele>
        <time>2021-03-19T15:42:27Z</time>
      </trkpt>
      <trkpt lat="44.81835" lon="6.94479">
        <ele>1754</ele>
        <time>2021-03-19T15:42:28Z</time>
      </trkpt>
      <trkpt lat="44.81835" lon="6.94479">
        <ele>1754</ele>
        <time>2021-03-19T15:42:29Z</time>
      </trkpt>
      <trkpt lat="44.81836" lon="6.94479">
        <ele>1754</ele>
        <time>2021-03-19T15:42:30Z</time>
      </trkpt>
      <trkpt lat="44.81836" lon="6.94479">
        <ele>1754</ele>
        <time>2021-03-19T15:42:31Z</time>
      </trkpt>
      <trkpt lat="44.81836" lon="6.94479">
        <ele>1754</ele>
        <time>2021-03-19T15:42:32Z</time>
      </trkpt>
      <trkpt lat="44.81837" lon="6.94479">
        <ele>1754</ele>
        <time>2021-03-19T15:43:00Z</time>
      </trkpt>
      <trkpt lat="44.81838" lon="6.94479">
        <ele>1754</ele>
        <time>2021-03-19T15:43:01Z</time>
      </trkpt>
      <trkpt lat="44.81838" lon="6.94478">
        <ele>1754</ele>
        <time>2021-03-19T15:43:02Z</time>
      </trkpt>
      <trkpt lat="44.81838" lon="6.94478">
        <ele>1754</ele>
        <time>2021-03-19T15:43:03Z</time>
      </trkpt>
      <trkpt lat="44.81837" lon="6.94478">
        <ele>1754</ele>
        <time>2021-03-19T15:43:04Z</time>
      </trkpt>
      <trkpt lat="44.81836" lon="6.94478">
        <ele>1753</ele>
        <time>2021-03-19T15:43:32Z</time>
      </trkpt>
      <trkpt lat="44.81836" lon="6.94478">
        <ele>1753</ele>
        <time>2021-03-19T15:43:33Z</time>
      </trkpt>
      <trkpt lat="44.81836" lon="6.94477">
        <ele>1753</ele>
        <time>2021-03-19T15:43:34Z</time>
      </trkpt>
      <trkpt lat="44.81836" lon="6.94477">
        <ele>1753</ele>
        <time>2021-03-19T15:43:35Z</time>
      </trkpt>
      <trkpt lat="44.81836" lon="6.94477">
        <ele>1753</ele>
        <time>2021-03-19T15:43:36Z</time>
      </trkpt>
      <trkpt lat="44.81836" lon="6.94476">
        <ele>1753</ele>
        <time>2021-03-19T15:43:37Z</time>
      </trkpt>
      <trkpt lat="44.81837" lon="6.94475">
        <ele>1753</ele>
        <time>2021-03-19T15:43:38Z</time>
      </trkpt>
      <trkpt lat="44.81837" lon="6.94474">
        <ele>1753</ele>
        <time>2021-03-19T15:43:39Z</time>
      </trkpt>
      <trkpt lat="44.81837" lon="6.94472">
        <ele>1753</ele>
        <time>2021-03-19T15:43:40Z</time>
      </trkpt>
      <trkpt lat="44.81837" lon="6.94471">
        <ele>1753</ele>
        <time>2021-03-19T15:43:41Z</time>
      </trkpt>
      <trkpt lat="44.81837" lon="6.9447">
        <ele>1753</ele>
        <time>2021-03-19T15:43:42Z</time>
      </trkpt>
      <trkpt lat="44.81837" lon="6.94469">
        <ele>1753</ele>
        <time>2021-03-19T15:43:43Z</time>
      </trkpt>
      <trkpt lat="44.81836" lon="6.94468">
        <ele>1753</ele>
        <time>2021-03-19T15:43:44Z</time>
      </trkpt>
      <trkpt lat="44.81836" lon="6.94467">
        <ele>1753</ele>
        <time>2021-03-19T15:43:45Z</time>
      </trkpt>
      <trkpt lat="44.81835" lon="6.94467">
        <ele>1753</ele>
        <time>2021-03-19T15:43:46Z</time>
      </trkpt>
      <trkpt lat="44.81834" lon="6.94467">
        <ele>1753</ele>
        <time>2021-03-19T15:43:47Z</time>
      </trkpt>
      <trkpt lat="44.81833" lon="6.94467">
        <ele>1752</ele>
        <time>2021-03-19T15:43:48Z</time>
      </trkpt>
      <trkpt lat="44.81832" lon="6.94467">
        <ele>1752</ele>
        <time>2021-03-19T15:43:49Z</time>
      </trkpt>
      <trkpt lat="44.81831" lon="6.94467">
        <ele>1752</ele>
        <time>2021-03-19T15:43:50Z</time>
      </trkpt>
      <trkpt lat="44.8183" lon="6.94468">
        <ele>1752</ele>
        <time>2021-03-19T15:43:51Z</time>
      </trkpt>
      <trkpt lat="44.81829" lon="6.94468">
        <ele>1752</ele>
        <time>2021-03-19T15:43:52Z</time>
      </trkpt>
      <trkpt lat="44.81828" lon="6.94469">
        <ele>1751</ele>
        <time>2021-03-19T15:43:53Z</time>
      </trkpt>
      <trkpt lat="44.81826" lon="6.94469">
        <ele>1751</ele>
        <time>2021-03-19T15:43:54Z</time>
      </trkpt>
      <trkpt lat="44.81825" lon="6.94469">
        <ele>1751</ele>
        <time>2021-03-19T15:43:55Z</time>
      </trkpt>
      <trkpt lat="44.81825" lon="6.9447">
        <ele>1751</ele>
        <time>2021-03-19T15:43:56Z</time>
      </trkpt>
      <trkpt lat="44.81823" lon="6.9447">
        <ele>1751</ele>
        <time>2021-03-19T15:43:57Z</time>
      </trkpt>
      <trkpt lat="44.81822" lon="6.94471">
        <ele>1751</ele>
        <time>2021-03-19T15:43:58Z</time>
      </trkpt>
      <trkpt lat="44.81821" lon="6.94471">
        <ele>1751</ele>
        <time>2021-03-19T15:43:59Z</time>
      </trkpt>
      <trkpt lat="44.8182" lon="6.94472">
        <ele>1751</ele>
        <time>2021-03-19T15:44:00Z</time>
      </trkpt>
      <trkpt lat="44.81819" lon="6.94472">
        <ele>1751</ele>
        <time>2021-03-19T15:44:01Z</time>
      </trkpt>
      <trkpt lat="44.81818" lon="6.94473">
        <ele>1751</ele>
        <time>2021-03-19T15:44:02Z</time>
      </trkpt>
      <trkpt lat="44.81817" lon="6.94473">
        <ele>1750</ele>
        <time>2021-03-19T15:44:03Z</time>
      </trkpt>
      <trkpt lat="44.81816" lon="6.94474">
        <ele>1750</ele>
        <time>2021-03-19T15:44:04Z</time>
      </trkpt>
      <trkpt lat="44.81815" lon="6.94474">
        <ele>1750</ele>
        <time>2021-03-19T15:44:05Z</time>
      </trkpt>
      <trkpt lat="44.81814" lon="6.94474">
        <ele>1750</ele>
        <time>2021-03-19T15:44:06Z</time>
      </trkpt>
      <trkpt lat="44.81813" lon="6.94475">
        <ele>1750</ele>
        <time>2021-03-19T15:44:07Z</time>
      </trkpt>
      <trkpt lat="44.81812" lon="6.94475">
        <ele>1749</ele>
        <time>2021-03-19T15:44:08Z</time>
      </trkpt>
      <trkpt lat="44.81811" lon="6.94476">
        <ele>1749</ele>
        <time>2021-03-19T15:44:09Z</time>
      </trkpt>
      <trkpt lat="44.8181" lon="6.94477">
        <ele>1749</ele>
        <time>2021-03-19T15:44:10Z</time>
      </trkpt>
      <trkpt lat="44.81809" lon="6.94477">
        <ele>1749</ele>
        <time>2021-03-19T15:44:11Z</time>
      </trkpt>
      <trkpt lat="44.81809" lon="6.94478">
        <ele>1749</ele>
        <time>2021-03-19T15:44:12Z</time>
      </trkpt>
      <trkpt lat="44.81808" lon="6.94478">
        <ele>1749</ele>
        <time>2021-03-19T15:44:13Z</time>
      </trkpt>
      <trkpt lat="44.81807" lon="6.94479">
        <ele>1749</ele>
        <time>2021-03-19T15:44:14Z</time>
      </trkpt>
      <trkpt lat="44.81806" lon="6.9448">
        <ele>1749</ele>
        <time>2021-03-19T15:44:15Z</time>
      </trkpt>
      <trkpt lat="44.81805" lon="6.94481">
        <ele>1749</ele>
        <time>2021-03-19T15:44:16Z</time>
      </trkpt>
      <trkpt lat="44.81804" lon="6.94481">
        <ele>1749</ele>
        <time>2021-03-19T15:44:17Z</time>
      </trkpt>
      <trkpt lat="44.81803" lon="6.94482">
        <ele>1748</ele>
        <time>2021-03-19T15:44:18Z</time>
      </trkpt>
      <trkpt lat="44.81802" lon="6.94483">
        <ele>1748</ele>
        <time>2021-03-19T15:44:19Z</time>
      </trkpt>
      <trkpt lat="44.81801" lon="6.94484">
        <ele>1748</ele>
        <time>2021-03-19T15:44:20Z</time>
      </trkpt>
      <trkpt lat="44.818" lon="6.94484">
        <ele>1748</ele>
        <time>2021-03-19T15:44:21Z</time>
      </trkpt>
      <trkpt lat="44.81799" lon="6.94485">
        <ele>1748</ele>
        <time>2021-03-19T15:44:22Z</time>
      </trkpt>
      <trkpt lat="44.81798" lon="6.94486">
        <ele>1747</ele>
        <time>2021-03-19T15:44:23Z</time>
      </trkpt>
      <trkpt lat="44.81797" lon="6.94486">
        <ele>1747</ele>
        <time>2021-03-19T15:44:24Z</time>
      </trkpt>
      <trkpt lat="44.81796" lon="6.94487">
        <ele>1747</ele>
        <time>2021-03-19T15:44:25Z</time>
      </trkpt>
      <trkpt lat="44.81795" lon="6.94487">
        <ele>1747</ele>
        <time>2021-03-19T15:44:26Z</time>
      </trkpt>
      <trkpt lat="44.81795" lon="6.94487">
        <ele>1747</ele>
        <time>2021-03-19T15:44:27Z</time>
      </trkpt>
      <trkpt lat="44.81794" lon="6.94487">
        <ele>1746</ele>
        <time>2021-03-19T15:44:28Z</time>
      </trkpt>
      <trkpt lat="44.81793" lon="6.94486">
        <ele>1746</ele>
        <time>2021-03-19T15:44:29Z</time>
      </trkpt>
      <trkpt lat="44.81792" lon="6.94486">
        <ele>1746</ele>
        <time>2021-03-19T15:44:30Z</time>
      </trkpt>
      <trkpt lat="44.81791" lon="6.94485">
        <ele>1746</ele>
        <time>2021-03-19T15:44:31Z</time>
      </trkpt>
      <trkpt lat="44.81791" lon="6.94484">
        <ele>1746</ele>
        <time>2021-03-19T15:44:32Z</time>
      </trkpt>
      <trkpt lat="44.8179" lon="6.94482">
        <ele>1746</ele>
        <time>2021-03-19T15:44:33Z</time>
      </trkpt>
      <trkpt lat="44.8179" lon="6.94481">
        <ele>1746</ele>
        <time>2021-03-19T15:44:34Z</time>
      </trkpt>
      <trkpt lat="44.8179" lon="6.94479">
        <ele>1746</ele>
        <time>2021-03-19T15:44:35Z</time>
      </trkpt>
      <trkpt lat="44.8179" lon="6.94478">
        <ele>1746</ele>
        <time>2021-03-19T15:44:36Z</time>
      </trkpt>
      <trkpt lat="44.81791" lon="6.94476">
        <ele>1746</ele>
        <time>2021-03-19T15:44:37Z</time>
      </trkpt>
      <trkpt lat="44.81791" lon="6.94475">
        <ele>1745</ele>
        <time>2021-03-19T15:44:38Z</time>
      </trkpt>
      <trkpt lat="44.81792" lon="6.94474">
        <ele>1745</ele>
        <time>2021-03-19T15:44:39Z</time>
      </trkpt>
      <trkpt lat="44.81793" lon="6.94473">
        <ele>1745</ele>
        <time>2021-03-19T15:44:40Z</time>
      </trkpt>
      <trkpt lat="44.81794" lon="6.94472">
        <ele>1745</ele>
        <time>2021-03-19T15:44:41Z</time>
      </trkpt>
      <trkpt lat="44.81795" lon="6.94471">
        <ele>1745</ele>
        <time>2021-03-19T15:44:42Z</time>
      </trkpt>
      <trkpt lat="44.81796" lon="6.9447">
        <ele>1744</ele>
        <time>2021-03-19T15:44:43Z</time>
      </trkpt>
      <trkpt lat="44.81798" lon="6.9447">
        <ele>1744</ele>
        <time>2021-03-19T15:44:44Z</time>
      </trkpt>
      <trkpt lat="44.81799" lon="6.94469">
        <ele>1744</ele>
        <time>2021-03-19T15:44:45Z</time>
      </trkpt>
      <trkpt lat="44.818" lon="6.94468">
        <ele>1744</ele>
        <time>2021-03-19T15:44:46Z</time>
      </trkpt>
      <trkpt lat="44.81801" lon="6.94468">
        <ele>1744</ele>
        <time>2021-03-19T15:44:47Z</time>
      </trkpt>
      <trkpt lat="44.81802" lon="6.94467">
        <ele>1743</ele>
        <time>2021-03-19T15:44:48Z</time>
      </trkpt>
      <trkpt lat="44.81803" lon="6.94466">
        <ele>1743</ele>
        <time>2021-03-19T15:44:49Z</time>
      </trkpt>
      <trkpt lat="44.81804" lon="6.94466">
        <ele>1743</ele>
        <time>2021-03-19T15:44:50Z</time>
      </trkpt>
      <trkpt lat="44.81805" lon="6.94465">
        <ele>1743</ele>
        <time>2021-03-19T15:44:51Z</time>
      </trkpt>
      <trkpt lat="44.81806" lon="6.94464">
        <ele>1743</ele>
        <time>2021-03-19T15:44:52Z</time>
      </trkpt>
      <trkpt lat="44.81807" lon="6.94463">
        <ele>1743</ele>
        <time>2021-03-19T15:44:53Z</time>
      </trkpt>
      <trkpt lat="44.81808" lon="6.94463">
        <ele>1743</ele>
        <time>2021-03-19T15:44:54Z</time>
      </trkpt>
      <trkpt lat="44.81808" lon="6.94462">
        <ele>1743</ele>
        <time>2021-03-19T15:44:55Z</time>
      </trkpt>
      <trkpt lat="44.81809" lon="6.94461">
        <ele>1743</ele>
        <time>2021-03-19T15:44:56Z</time>
      </trkpt>
      <trkpt lat="44.8181" lon="6.9446">
        <ele>1743</ele>
        <time>2021-03-19T15:44:57Z</time>
      </trkpt>
      <trkpt lat="44.81811" lon="6.94459">
        <ele>1742</ele>
        <time>2021-03-19T15:44:58Z</time>
      </trkpt>
      <trkpt lat="44.81811" lon="6.94457">
        <ele>1742</ele>
        <time>2021-03-19T15:44:59Z</time>
      </trkpt>
      <trkpt lat="44.81812" lon="6.94456">
        <ele>1742</ele>
        <time>2021-03-19T15:45:00Z</time>
      </trkpt>
      <trkpt lat="44.81813" lon="6.94455">
        <ele>1742</ele>
        <time>2021-03-19T15:45:01Z</time>
      </trkpt>
      <trkpt lat="44.81814" lon="6.94454">
        <ele>1742</ele>
        <time>2021-03-19T15:45:02Z</time>
      </trkpt>
      <trkpt lat="44.81814" lon="6.94453">
        <ele>1742</ele>
        <time>2021-03-19T15:45:03Z</time>
      </trkpt>
      <trkpt lat="44.81815" lon="6.94452">
        <ele>1742</ele>
        <time>2021-03-19T15:45:04Z</time>
      </trkpt>
      <trkpt lat="44.81816" lon="6.94451">
        <ele>1742</ele>
        <time>2021-03-19T15:45:05Z</time>
      </trkpt>
      <trkpt lat="44.81817" lon="6.9445">
        <ele>1742</ele>
        <time>2021-03-19T15:45:06Z</time>
      </trkpt>
      <trkpt lat="44.81818" lon="6.94449">
        <ele>1742</ele>
        <time>2021-03-19T15:45:07Z</time>
      </trkpt>
      <trkpt lat="44.81818" lon="6.94447">
        <ele>1741</ele>
        <time>2021-03-19T15:45:08Z</time>
      </trkpt>
      <trkpt lat="44.81819" lon="6.94446">
        <ele>1741</ele>
        <time>2021-03-19T15:45:09Z</time>
      </trkpt>
      <trkpt lat="44.81819" lon="6.94445">
        <ele>1741</ele>
        <time>2021-03-19T15:45:10Z</time>
      </trkpt>
      <trkpt lat="44.8182" lon="6.94444">
        <ele>1741</ele>
        <time>2021-03-19T15:45:11Z</time>
      </trkpt>
      <trkpt lat="44.8182" lon="6.94442">
        <ele>1741</ele>
        <time>2021-03-19T15:45:12Z</time>
      </trkpt>
      <trkpt lat="44.81821" lon="6.94441">
        <ele>1741</ele>
        <time>2021-03-19T15:45:13Z</time>
      </trkpt>
      <trkpt lat="44.81821" lon="6.94439">
        <ele>1741</ele>
        <time>2021-03-19T15:45:14Z</time>
      </trkpt>
      <trkpt lat="44.81821" lon="6.94438">
        <ele>1741</ele>
        <time>2021-03-19T15:45:15Z</time>
      </trkpt>
      <trkpt lat="44.81821" lon="6.94437">
        <ele>1741</ele>
        <time>2021-03-19T15:45:16Z</time>
      </trkpt>
      <trkpt lat="44.81821" lon="6.94435">
        <ele>1741</ele>
        <time>2021-03-19T15:45:17Z</time>
      </trkpt>
      <trkpt lat="44.81821" lon="6.94434">
        <ele>1740</ele>
        <time>2021-03-19T15:45:18Z</time>
      </trkpt>
      <trkpt lat="44.81821" lon="6.94432">
        <ele>1740</ele>
        <time>2021-03-19T15:45:19Z</time>
      </trkpt>
      <trkpt lat="44.8182" lon="6.94431">
        <ele>1740</ele>
        <time>2021-03-19T15:45:20Z</time>
      </trkpt>
      <trkpt lat="44.8182" lon="6.94429">
        <ele>1740</ele>
        <time>2021-03-19T15:45:21Z</time>
      </trkpt>
      <trkpt lat="44.8182" lon="6.94428">
        <ele>1740</ele>
        <time>2021-03-19T15:45:22Z</time>
      </trkpt>
      <trkpt lat="44.8182" lon="6.94426">
        <ele>1739</ele>
        <time>2021-03-19T15:45:23Z</time>
      </trkpt>
      <trkpt lat="44.81819" lon="6.94425">
        <ele>1739</ele>
        <time>2021-03-19T15:45:24Z</time>
      </trkpt>
      <trkpt lat="44.81819" lon="6.94423">
        <ele>1739</ele>
        <time>2021-03-19T15:45:25Z</time>
      </trkpt>
      <trkpt lat="44.8182" lon="6.94422">
        <ele>1739</ele>
        <time>2021-03-19T15:45:26Z</time>
      </trkpt>
      <trkpt lat="44.8182" lon="6.9442">
        <ele>1739</ele>
        <time>2021-03-19T15:45:27Z</time>
      </trkpt>
      <trkpt lat="44.8182" lon="6.94419">
        <ele>1739</ele>
        <time>2021-03-19T15:45:28Z</time>
      </trkpt>
      <trkpt lat="44.81821" lon="6.94418">
        <ele>1739</ele>
        <time>2021-03-19T15:45:29Z</time>
      </trkpt>
      <trkpt lat="44.81821" lon="6.94416">
        <ele>1739</ele>
        <time>2021-03-19T15:45:30Z</time>
      </trkpt>
      <trkpt lat="44.81822" lon="6.94415">
        <ele>1739</ele>
        <time>2021-03-19T15:45:31Z</time>
      </trkpt>
      <trkpt lat="44.81823" lon="6.94414">
        <ele>1739</ele>
        <time>2021-03-19T15:45:32Z</time>
      </trkpt>
      <trkpt lat="44.81823" lon="6.94413">
        <ele>1739</ele>
        <time>2021-03-19T15:45:33Z</time>
      </trkpt>
      <trkpt lat="44.81824" lon="6.94412">
        <ele>1739</ele>
        <time>2021-03-19T15:45:34Z</time>
      </trkpt>
      <trkpt lat="44.81825" lon="6.94411">
        <ele>1739</ele>
        <time>2021-03-19T15:45:35Z</time>
      </trkpt>
      <trkpt lat="44.81826" lon="6.9441">
        <ele>1739</ele>
        <time>2021-03-19T15:45:36Z</time>
      </trkpt>
      <trkpt lat="44.81827" lon="6.94409">
        <ele>1739</ele>
        <time>2021-03-19T15:45:37Z</time>
      </trkpt>
      <trkpt lat="44.81828" lon="6.94408">
        <ele>1739</ele>
        <time>2021-03-19T15:45:38Z</time>
      </trkpt>
      <trkpt lat="44.81829" lon="6.94407">
        <ele>1739</ele>
        <time>2021-03-19T15:45:39Z</time>
      </trkpt>
      <trkpt lat="44.81829" lon="6.94406">
        <ele>1739</ele>
        <time>2021-03-19T15:45:40Z</time>
      </trkpt>
      <trkpt lat="44.8183" lon="6.94405">
        <ele>1739</ele>
        <time>2021-03-19T15:45:41Z</time>
      </trkpt>
      <trkpt lat="44.81831" lon="6.94405">
        <ele>1739</ele>
        <time>2021-03-19T15:45:42Z</time>
      </trkpt>
      <trkpt lat="44.81833" lon="6.94404">
        <ele>1738</ele>
        <time>2021-03-19T15:45:43Z</time>
      </trkpt>
      <trkpt lat="44.81834" lon="6.94403">
        <ele>1738</ele>
        <time>2021-03-19T15:45:44Z</time>
      </trkpt>
      <trkpt lat="44.81835" lon="6.94403">
        <ele>1738</ele>
        <time>2021-03-19T15:45:45Z</time>
      </trkpt>
      <trkpt lat="44.81836" lon="6.94402">
        <ele>1738</ele>
        <time>2021-03-19T15:45:46Z</time>
      </trkpt>
      <trkpt lat="44.81837" lon="6.94402">
        <ele>1738</ele>
        <time>2021-03-19T15:45:47Z</time>
      </trkpt>
      <trkpt lat="44.81838" lon="6.94401">
        <ele>1738</ele>
        <time>2021-03-19T15:45:48Z</time>
      </trkpt>
      <trkpt lat="44.81839" lon="6.94401">
        <ele>1738</ele>
        <time>2021-03-19T15:45:49Z</time>
      </trkpt>
      <trkpt lat="44.8184" lon="6.944">
        <ele>1738</ele>
        <time>2021-03-19T15:45:50Z</time>
      </trkpt>
      <trkpt lat="44.81841" lon="6.944">
        <ele>1738</ele>
        <time>2021-03-19T15:45:51Z</time>
      </trkpt>
      <trkpt lat="44.81842" lon="6.94399">
        <ele>1738</ele>
        <time>2021-03-19T15:45:52Z</time>
      </trkpt>
      <trkpt lat="44.81843" lon="6.94398">
        <ele>1737</ele>
        <time>2021-03-19T15:45:53Z</time>
      </trkpt>
      <trkpt lat="44.81844" lon="6.94398">
        <ele>1737</ele>
        <time>2021-03-19T15:45:54Z</time>
      </trkpt>
      <trkpt lat="44.81845" lon="6.94397">
        <ele>1737</ele>
        <time>2021-03-19T15:45:55Z</time>
      </trkpt>
      <trkpt lat="44.81846" lon="6.94397">
        <ele>1737</ele>
        <time>2021-03-19T15:45:56Z</time>
      </trkpt>
      <trkpt lat="44.81847" lon="6.94396">
        <ele>1737</ele>
        <time>2021-03-19T15:45:57Z</time>
      </trkpt>
      <trkpt lat="44.81848" lon="6.94396">
        <ele>1737</ele>
        <time>2021-03-19T15:45:58Z</time>
      </trkpt>
      <trkpt lat="44.81849" lon="6.94395">
        <ele>1737</ele>
        <time>2021-03-19T15:45:59Z</time>
      </trkpt>
      <trkpt lat="44.8185" lon="6.94394">
        <ele>1737</ele>
        <time>2021-03-19T15:46:00Z</time>
      </trkpt>
      <trkpt lat="44.81851" lon="6.94394">
        <ele>1737</ele>
        <time>2021-03-19T15:46:01Z</time>
      </trkpt>
      <trkpt lat="44.81852" lon="6.94393">
        <ele>1737</ele>
        <time>2021-03-19T15:46:02Z</time>
      </trkpt>
      <trkpt lat="44.81853" lon="6.94392">
        <ele>1737</ele>
        <time>2021-03-19T15:46:03Z</time>
      </trkpt>
      <trkpt lat="44.81853" lon="6.94391">
        <ele>1737</ele>
        <time>2021-03-19T15:46:04Z</time>
      </trkpt>
      <trkpt lat="44.81854" lon="6.9439">
        <ele>1737</ele>
        <time>2021-03-19T15:46:05Z</time>
      </trkpt>
      <trkpt lat="44.81855" lon="6.94389">
        <ele>1737</ele>
        <time>2021-03-19T15:46:06Z</time>
      </trkpt>
      <trkpt lat="44.81856" lon="6.94388">
        <ele>1737</ele>
        <time>2021-03-19T15:46:07Z</time>
      </trkpt>
      <trkpt lat="44.81857" lon="6.94387">
        <ele>1736</ele>
        <time>2021-03-19T15:46:08Z</time>
      </trkpt>
      <trkpt lat="44.81857" lon="6.94386">
        <ele>1736</ele>
        <time>2021-03-19T15:46:09Z</time>
      </trkpt>
      <trkpt lat="44.81858" lon="6.94385">
        <ele>1736</ele>
        <time>2021-03-19T15:46:10Z</time>
      </trkpt>
      <trkpt lat="44.81859" lon="6.94384">
        <ele>1736</ele>
        <time>2021-03-19T15:46:11Z</time>
      </trkpt>
      <trkpt lat="44.81859" lon="6.94383">
        <ele>1736</ele>
        <time>2021-03-19T15:46:12Z</time>
      </trkpt>
      <trkpt lat="44.8186" lon="6.94382">
        <ele>1735</ele>
        <time>2021-03-19T15:46:13Z</time>
      </trkpt>
      <trkpt lat="44.81861" lon="6.94381">
        <ele>1735</ele>
        <time>2021-03-19T15:46:14Z</time>
      </trkpt>
      <trkpt lat="44.81862" lon="6.94381">
        <ele>1735</ele>
        <time>2021-03-19T15:46:15Z</time>
      </trkpt>
      <trkpt lat="44.81863" lon="6.9438">
        <ele>1735</ele>
        <time>2021-03-19T15:46:16Z</time>
      </trkpt>
      <trkpt lat="44.81864" lon="6.94379">
        <ele>1735</ele>
        <time>2021-03-19T15:46:17Z</time>
      </trkpt>
      <trkpt lat="44.81865" lon="6.94378">
        <ele>1735</ele>
        <time>2021-03-19T15:46:18Z</time>
      </trkpt>
      <trkpt lat="44.81866" lon="6.94377">
        <ele>1735</ele>
        <time>2021-03-19T15:46:19Z</time>
      </trkpt>
      <trkpt lat="44.81867" lon="6.94377">
        <ele>1735</ele>
        <time>2021-03-19T15:46:20Z</time>
      </trkpt>
      <trkpt lat="44.81868" lon="6.94376">
        <ele>1735</ele>
        <time>2021-03-19T15:46:21Z</time>
      </trkpt>
      <trkpt lat="44.81868" lon="6.94375">
        <ele>1735</ele>
        <time>2021-03-19T15:46:22Z</time>
      </trkpt>
      <trkpt lat="44.81869" lon="6.94374">
        <ele>1734</ele>
        <time>2021-03-19T15:46:23Z</time>
      </trkpt>
      <trkpt lat="44.8187" lon="6.94373">
        <ele>1734</ele>
        <time>2021-03-19T15:46:24Z</time>
      </trkpt>
      <trkpt lat="44.81871" lon="6.94372">
        <ele>1734</ele>
        <time>2021-03-19T15:46:25Z</time>
      </trkpt>
      <trkpt lat="44.81872" lon="6.94372">
        <ele>1734</ele>
        <time>2021-03-19T15:46:26Z</time>
      </trkpt>
      <trkpt lat="44.81873" lon="6.9437">
        <ele>1734</ele>
        <time>2021-03-19T15:46:27Z</time>
      </trkpt>
      <trkpt lat="44.81874" lon="6.94369">
        <ele>1733</ele>
        <time>2021-03-19T15:46:28Z</time>
      </trkpt>
      <trkpt lat="44.81875" lon="6.94368">
        <ele>1733</ele>
        <time>2021-03-19T15:46:29Z</time>
      </trkpt>
      <trkpt lat="44.81876" lon="6.94367">
        <ele>1733</ele>
        <time>2021-03-19T15:46:30Z</time>
      </trkpt>
      <trkpt lat="44.81877" lon="6.94366">
        <ele>1733</ele>
        <time>2021-03-19T15:46:31Z</time>
      </trkpt>
      <trkpt lat="44.81878" lon="6.94365">
        <ele>1733</ele>
        <time>2021-03-19T15:46:32Z</time>
      </trkpt>
      <trkpt lat="44.81879" lon="6.94364">
        <ele>1733</ele>
        <time>2021-03-19T15:46:33Z</time>
      </trkpt>
      <trkpt lat="44.8188" lon="6.94363">
        <ele>1733</ele>
        <time>2021-03-19T15:46:34Z</time>
      </trkpt>
      <trkpt lat="44.8188" lon="6.94362">
        <ele>1733</ele>
        <time>2021-03-19T15:46:35Z</time>
      </trkpt>
      <trkpt lat="44.81881" lon="6.94361">
        <ele>1733</ele>
        <time>2021-03-19T15:46:36Z</time>
      </trkpt>
      <trkpt lat="44.81882" lon="6.9436">
        <ele>1733</ele>
        <time>2021-03-19T15:46:37Z</time>
      </trkpt>
      <trkpt lat="44.81883" lon="6.9436">
        <ele>1732</ele>
        <time>2021-03-19T15:46:38Z</time>
      </trkpt>
      <trkpt lat="44.81884" lon="6.94359">
        <ele>1732</ele>
        <time>2021-03-19T15:46:39Z</time>
      </trkpt>
      <trkpt lat="44.81885" lon="6.94358">
        <ele>1732</ele>
        <time>2021-03-19T15:46:40Z</time>
      </trkpt>
      <trkpt lat="44.81885" lon="6.94357">
        <ele>1732</ele>
        <time>2021-03-19T15:46:41Z</time>
      </trkpt>
      <trkpt lat="44.81886" lon="6.94356">
        <ele>1732</ele>
        <time>2021-03-19T15:46:42Z</time>
      </trkpt>
      <trkpt lat="44.81887" lon="6.94355">
        <ele>1732</ele>
        <time>2021-03-19T15:46:43Z</time>
      </trkpt>
      <trkpt lat="44.81888" lon="6.94354">
        <ele>1732</ele>
        <time>2021-03-19T15:46:44Z</time>
      </trkpt>
      <trkpt lat="44.81888" lon="6.94353">
        <ele>1732</ele>
        <time>2021-03-19T15:46:45Z</time>
      </trkpt>
      <trkpt lat="44.81889" lon="6.94352">
        <ele>1732</ele>
        <time>2021-03-19T15:46:46Z</time>
      </trkpt>
      <trkpt lat="44.8189" lon="6.94351">
        <ele>1732</ele>
        <time>2021-03-19T15:46:47Z</time>
      </trkpt>
      <trkpt lat="44.81891" lon="6.9435">
        <ele>1732</ele>
        <time>2021-03-19T15:46:48Z</time>
      </trkpt>
      <trkpt lat="44.81891" lon="6.94349">
        <ele>1732</ele>
        <time>2021-03-19T15:46:49Z</time>
      </trkpt>
      <trkpt lat="44.81892" lon="6.94348">
        <ele>1732</ele>
        <time>2021-03-19T15:46:50Z</time>
      </trkpt>
      <trkpt lat="44.81893" lon="6.94347">
        <ele>1732</ele>
        <time>2021-03-19T15:46:51Z</time>
      </trkpt>
      <trkpt lat="44.81894" lon="6.94346">
        <ele>1732</ele>
        <time>2021-03-19T15:46:52Z</time>
      </trkpt>
      <trkpt lat="44.81895" lon="6.94345">
        <ele>1732</ele>
        <time>2021-03-19T15:46:53Z</time>
      </trkpt>
      <trkpt lat="44.81896" lon="6.94344">
        <ele>1732</ele>
        <time>2021-03-19T15:46:54Z</time>
      </trkpt>
      <trkpt lat="44.81896" lon="6.94343">
        <ele>1732</ele>
        <time>2021-03-19T15:46:55Z</time>
      </trkpt>
      <trkpt lat="44.81897" lon="6.94342">
        <ele>1732</ele>
        <time>2021-03-19T15:46:56Z</time>
      </trkpt>
      <trkpt lat="44.81898" lon="6.94341">
        <ele>1732</ele>
        <time>2021-03-19T15:46:57Z</time>
      </trkpt>
      <trkpt lat="44.81898" lon="6.94341">
        <ele>1731</ele>
        <time>2021-03-19T15:46:58Z</time>
      </trkpt>
      <trkpt lat="44.81899" lon="6.9434">
        <ele>1731</ele>
        <time>2021-03-19T15:46:59Z</time>
      </trkpt>
      <trkpt lat="44.819" lon="6.94339">
        <ele>1731</ele>
        <time>2021-03-19T15:47:00Z</time>
      </trkpt>
      <trkpt lat="44.81901" lon="6.94338">
        <ele>1731</ele>
        <time>2021-03-19T15:47:01Z</time>
      </trkpt>
      <trkpt lat="44.81901" lon="6.94337">
        <ele>1731</ele>
        <time>2021-03-19T15:47:02Z</time>
      </trkpt>
      <trkpt lat="44.81902" lon="6.94337">
        <ele>1731</ele>
        <time>2021-03-19T15:47:03Z</time>
      </trkpt>
      <trkpt lat="44.81903" lon="6.94336">
        <ele>1731</ele>
        <time>2021-03-19T15:47:04Z</time>
      </trkpt>
      <trkpt lat="44.81904" lon="6.94335">
        <ele>1731</ele>
        <time>2021-03-19T15:47:05Z</time>
      </trkpt>
      <trkpt lat="44.81904" lon="6.94334">
        <ele>1731</ele>
        <time>2021-03-19T15:47:06Z</time>
      </trkpt>
      <trkpt lat="44.81905" lon="6.94333">
        <ele>1731</ele>
        <time>2021-03-19T15:47:07Z</time>
      </trkpt>
      <trkpt lat="44.81906" lon="6.94332">
        <ele>1730</ele>
        <time>2021-03-19T15:47:08Z</time>
      </trkpt>
      <trkpt lat="44.81906" lon="6.94331">
        <ele>1730</ele>
        <time>2021-03-19T15:47:09Z</time>
      </trkpt>
      <trkpt lat="44.81907" lon="6.9433">
        <ele>1730</ele>
        <time>2021-03-19T15:47:10Z</time>
      </trkpt>
      <trkpt lat="44.81907" lon="6.94329">
        <ele>1730</ele>
        <time>2021-03-19T15:47:11Z</time>
      </trkpt>
      <trkpt lat="44.81908" lon="6.94328">
        <ele>1730</ele>
        <time>2021-03-19T15:47:12Z</time>
      </trkpt>
      <trkpt lat="44.81908" lon="6.94327">
        <ele>1730</ele>
        <time>2021-03-19T15:47:13Z</time>
      </trkpt>
      <trkpt lat="44.81909" lon="6.94327">
        <ele>1730</ele>
        <time>2021-03-19T15:47:14Z</time>
      </trkpt>
      <trkpt lat="44.81909" lon="6.94327">
        <ele>1729</ele>
        <time>2021-03-19T15:47:23Z</time>
      </trkpt>
      <trkpt lat="44.81908" lon="6.94327">
        <ele>1729</ele>
        <time>2021-03-19T15:47:24Z</time>
      </trkpt>
      <trkpt lat="44.81908" lon="6.94327">
        <ele>1729</ele>
        <time>2021-03-19T15:47:25Z</time>
      </trkpt>
      <trkpt lat="44.81907" lon="6.94329">
        <ele>1729</ele>
        <time>2021-03-19T15:47:26Z</time>
      </trkpt>
      <trkpt lat="44.81906" lon="6.9433">
        <ele>1729</ele>
        <time>2021-03-19T15:47:27Z</time>
      </trkpt>
    </trkseg>
  </trk>
</gpx>